<?xml version="1.0" encoding="UTF-8" standalone="no" ?>
<gpx xmlns="http://www.topografix.com/GPX/1/1" xmlns:xsi="http://www.w3.org/2001/XMLSchema-instance" xsi:schemaLocation="http://www.topografix.com/GPX/1/1 http://www.topografix.com/GPX/1/1/gpx.xsd" version="1.1" creator="VisuGPX - https://www.visugpx.com">
  <metadata>
    <name>Grenoble Trail 2021-06-26</name>
    <desc><![CDATA[Grenoble - Bastille - Jalla - Rachais - Sous le Mont - Les Granges - La Bergerie - Col de Vence - Fort Saint Eynard - Pret du Plat - Fort Saint Eynard - Cold de Vence - Chemin des batteries - Chemin de Malivert - La Bergerie - Les Granges - Sous le Mont - Rachais - Bec Aigu - Bec du Corbeau - Bastille - Grenoble]]></desc>
  </metadata>
  <trk>
    <name><![CDATA[Grenoble Trail]]></name>
    <trkseg>
      <trkpt lat="45.19656" lon="5.73979">
        <ele>245.60000610352</ele>
        <time>2021-06-26T03:20:47.000Z</time>
      </trkpt>
      <trkpt lat="45.19654" lon="5.7398">
        <ele>245.60000610352</ele>
        <time>2021-06-26T03:20:50.000Z</time>
      </trkpt>
      <trkpt lat="45.1965" lon="5.73982">
        <ele>245.80000305176</ele>
        <time>2021-06-26T03:20:54.000Z</time>
      </trkpt>
      <trkpt lat="45.19647" lon="5.73981">
        <ele>246</ele>
        <time>2021-06-26T03:20:58.000Z</time>
      </trkpt>
      <trkpt lat="45.19639" lon="5.73982">
        <ele>246</ele>
        <time>2021-06-26T03:21:04.000Z</time>
      </trkpt>
      <trkpt lat="45.19637" lon="5.73998">
        <ele>246</ele>
        <time>2021-06-26T03:21:10.000Z</time>
      </trkpt>
      <trkpt lat="45.19637" lon="5.73992">
        <ele>246.19999694824</ele>
        <time>2021-06-26T03:21:12.000Z</time>
      </trkpt>
      <trkpt lat="45.19634" lon="5.73992">
        <ele>244.80000305176</ele>
        <time>2021-06-26T03:21:16.000Z</time>
      </trkpt>
      <trkpt lat="45.19634" lon="5.73988">
        <ele>244.39999389648</ele>
        <time>2021-06-26T03:21:18.000Z</time>
      </trkpt>
      <trkpt lat="45.19637" lon="5.73988">
        <ele>244.19999694824</ele>
        <time>2021-06-26T03:21:20.000Z</time>
      </trkpt>
      <trkpt lat="45.19638" lon="5.7399">
        <ele>243.19999694824</ele>
        <time>2021-06-26T03:21:24.000Z</time>
      </trkpt>
      <trkpt lat="45.19637" lon="5.7399">
        <ele>243</ele>
        <time>2021-06-26T03:21:25.000Z</time>
      </trkpt>
      <trkpt lat="45.19637" lon="5.73992">
        <ele>242.19999694824</ele>
        <time>2021-06-26T03:21:27.000Z</time>
      </trkpt>
      <trkpt lat="45.19637" lon="5.73993">
        <ele>242.19999694824</ele>
        <time>2021-06-26T03:21:28.000Z</time>
      </trkpt>
      <trkpt lat="45.19638" lon="5.73994">
        <ele>241.60000610352</ele>
        <time>2021-06-26T03:21:30.000Z</time>
      </trkpt>
      <trkpt lat="45.19638" lon="5.7399">
        <ele>241.60000610352</ele>
        <time>2021-06-26T03:21:34.000Z</time>
      </trkpt>
      <trkpt lat="45.19638" lon="5.73988">
        <ele>243.19999694824</ele>
        <time>2021-06-26T03:21:35.000Z</time>
      </trkpt>
      <trkpt lat="45.19636" lon="5.73988">
        <ele>242.60000610352</ele>
        <time>2021-06-26T03:21:38.000Z</time>
      </trkpt>
      <trkpt lat="45.19637" lon="5.7399">
        <ele>242.19999694824</ele>
        <time>2021-06-26T03:21:39.000Z</time>
      </trkpt>
      <trkpt lat="45.19637" lon="5.73991">
        <ele>243.19999694824</ele>
        <time>2021-06-26T03:21:40.000Z</time>
      </trkpt>
      <trkpt lat="45.19636" lon="5.73993">
        <ele>241.60000610352</ele>
        <time>2021-06-26T03:21:41.000Z</time>
      </trkpt>
      <trkpt lat="45.19635" lon="5.74002">
        <ele>241.60000610352</ele>
        <time>2021-06-26T03:21:44.000Z</time>
      </trkpt>
      <trkpt lat="45.19635" lon="5.73996">
        <ele>241.39999389648</ele>
        <time>2021-06-26T03:21:46.000Z</time>
      </trkpt>
      <trkpt lat="45.19635" lon="5.73995">
        <ele>241.39999389648</ele>
        <time>2021-06-26T03:21:47.000Z</time>
      </trkpt>
      <trkpt lat="45.19637" lon="5.73991">
        <ele>241.39999389648</ele>
        <time>2021-06-26T03:21:48.000Z</time>
      </trkpt>
      <trkpt lat="45.19641" lon="5.73989">
        <ele>243.19999694824</ele>
        <time>2021-06-26T03:21:50.000Z</time>
      </trkpt>
      <trkpt lat="45.19649" lon="5.73985">
        <ele>243.19999694824</ele>
        <time>2021-06-26T03:21:54.000Z</time>
      </trkpt>
      <trkpt lat="45.19652" lon="5.73984">
        <ele>243.19999694824</ele>
        <time>2021-06-26T03:21:56.000Z</time>
      </trkpt>
      <trkpt lat="45.19653" lon="5.73983">
        <ele>243</ele>
        <time>2021-06-26T03:21:57.000Z</time>
      </trkpt>
      <trkpt lat="45.19658" lon="5.73977">
        <ele>242.80000305176</ele>
        <time>2021-06-26T03:22:00.000Z</time>
      </trkpt>
      <trkpt lat="45.19661" lon="5.73971">
        <ele>242.60000610352</ele>
        <time>2021-06-26T03:22:02.000Z</time>
      </trkpt>
      <trkpt lat="45.19661" lon="5.73964">
        <ele>242.39999389648</ele>
        <time>2021-06-26T03:22:05.000Z</time>
      </trkpt>
      <trkpt lat="45.19661" lon="5.73963">
        <ele>242.39999389648</ele>
        <time>2021-06-26T03:22:06.000Z</time>
      </trkpt>
      <trkpt lat="45.19664" lon="5.73961">
        <ele>242.39999389648</ele>
        <time>2021-06-26T03:22:08.000Z</time>
      </trkpt>
      <trkpt lat="45.1967" lon="5.73963">
        <ele>242.80000305176</ele>
        <time>2021-06-26T03:22:11.000Z</time>
      </trkpt>
      <trkpt lat="45.19671" lon="5.73965">
        <ele>242.80000305176</ele>
        <time>2021-06-26T03:22:12.000Z</time>
      </trkpt>
      <trkpt lat="45.19675" lon="5.73969">
        <ele>242.80000305176</ele>
        <time>2021-06-26T03:22:14.000Z</time>
      </trkpt>
      <trkpt lat="45.1968" lon="5.73983">
        <ele>242.80000305176</ele>
        <time>2021-06-26T03:22:19.000Z</time>
      </trkpt>
      <trkpt lat="45.19691" lon="5.73994">
        <ele>243</ele>
        <time>2021-06-26T03:22:25.000Z</time>
      </trkpt>
      <trkpt lat="45.19692" lon="5.73996">
        <ele>243</ele>
        <time>2021-06-26T03:22:26.000Z</time>
      </trkpt>
      <trkpt lat="45.19702" lon="5.7401">
        <ele>242.60000610352</ele>
        <time>2021-06-26T03:22:32.000Z</time>
      </trkpt>
      <trkpt lat="45.19704" lon="5.74013">
        <ele>242.60000610352</ele>
        <time>2021-06-26T03:22:33.000Z</time>
      </trkpt>
      <trkpt lat="45.19704" lon="5.74018">
        <ele>243</ele>
        <time>2021-06-26T03:22:34.000Z</time>
      </trkpt>
      <trkpt lat="45.19704" lon="5.74022">
        <ele>243</ele>
        <time>2021-06-26T03:22:35.000Z</time>
      </trkpt>
      <trkpt lat="45.19703" lon="5.74031">
        <ele>243</ele>
        <time>2021-06-26T03:22:37.000Z</time>
      </trkpt>
      <trkpt lat="45.19702" lon="5.7404">
        <ele>243</ele>
        <time>2021-06-26T03:22:39.000Z</time>
      </trkpt>
      <trkpt lat="45.197" lon="5.74054">
        <ele>242.60000610352</ele>
        <time>2021-06-26T03:22:42.000Z</time>
      </trkpt>
      <trkpt lat="45.19701" lon="5.74061">
        <ele>242.60000610352</ele>
        <time>2021-06-26T03:22:44.000Z</time>
      </trkpt>
      <trkpt lat="45.19702" lon="5.74064">
        <ele>242.60000610352</ele>
        <time>2021-06-26T03:22:45.000Z</time>
      </trkpt>
      <trkpt lat="45.19702" lon="5.74074">
        <ele>242.80000305176</ele>
        <time>2021-06-26T03:22:48.000Z</time>
      </trkpt>
      <trkpt lat="45.19703" lon="5.74081">
        <ele>243</ele>
        <time>2021-06-26T03:22:50.000Z</time>
      </trkpt>
      <trkpt lat="45.19704" lon="5.74095">
        <ele>243</ele>
        <time>2021-06-26T03:22:54.000Z</time>
      </trkpt>
      <trkpt lat="45.19704" lon="5.74101">
        <ele>243</ele>
        <time>2021-06-26T03:22:56.000Z</time>
      </trkpt>
      <trkpt lat="45.19707" lon="5.74129">
        <ele>243.19999694824</ele>
        <time>2021-06-26T03:23:04.000Z</time>
      </trkpt>
      <trkpt lat="45.1971" lon="5.74145">
        <ele>243</ele>
        <time>2021-06-26T03:23:09.000Z</time>
      </trkpt>
      <trkpt lat="45.19711" lon="5.74148">
        <ele>243.39999389648</ele>
        <time>2021-06-26T03:23:10.000Z</time>
      </trkpt>
      <trkpt lat="45.19712" lon="5.74154">
        <ele>243</ele>
        <time>2021-06-26T03:23:12.000Z</time>
      </trkpt>
      <trkpt lat="45.19714" lon="5.74183">
        <ele>243</ele>
        <time>2021-06-26T03:23:20.000Z</time>
      </trkpt>
      <trkpt lat="45.19715" lon="5.74186">
        <ele>243</ele>
        <time>2021-06-26T03:23:21.000Z</time>
      </trkpt>
      <trkpt lat="45.1972" lon="5.74209">
        <ele>243</ele>
        <time>2021-06-26T03:23:28.000Z</time>
      </trkpt>
      <trkpt lat="45.19725" lon="5.74227">
        <ele>243.39999389648</ele>
        <time>2021-06-26T03:23:33.000Z</time>
      </trkpt>
      <trkpt lat="45.19731" lon="5.74238">
        <ele>243.60000610352</ele>
        <time>2021-06-26T03:23:38.000Z</time>
      </trkpt>
      <trkpt lat="45.19731" lon="5.7424">
        <ele>244</ele>
        <time>2021-06-26T03:23:39.000Z</time>
      </trkpt>
      <trkpt lat="45.19732" lon="5.74241">
        <ele>244.39999389648</ele>
        <time>2021-06-26T03:23:41.000Z</time>
      </trkpt>
      <trkpt lat="45.19734" lon="5.74241">
        <ele>245.19999694824</ele>
        <time>2021-06-26T03:23:44.000Z</time>
      </trkpt>
      <trkpt lat="45.19742" lon="5.74239">
        <ele>245</ele>
        <time>2021-06-26T03:23:48.000Z</time>
      </trkpt>
      <trkpt lat="45.19744" lon="5.74239">
        <ele>245.19999694824</ele>
        <time>2021-06-26T03:23:49.000Z</time>
      </trkpt>
      <trkpt lat="45.19746" lon="5.74238">
        <ele>245</ele>
        <time>2021-06-26T03:23:50.000Z</time>
      </trkpt>
      <trkpt lat="45.19757" lon="5.74231">
        <ele>245.19999694824</ele>
        <time>2021-06-26T03:23:55.000Z</time>
      </trkpt>
      <trkpt lat="45.19762" lon="5.7423">
        <ele>245.19999694824</ele>
        <time>2021-06-26T03:23:57.000Z</time>
      </trkpt>
      <trkpt lat="45.1977" lon="5.74229">
        <ele>245.19999694824</ele>
        <time>2021-06-26T03:24:00.000Z</time>
      </trkpt>
      <trkpt lat="45.19784" lon="5.74228">
        <ele>245.19999694824</ele>
        <time>2021-06-26T03:24:04.000Z</time>
      </trkpt>
      <trkpt lat="45.19791" lon="5.74227">
        <ele>245.19999694824</ele>
        <time>2021-06-26T03:24:07.000Z</time>
      </trkpt>
      <trkpt lat="45.19793" lon="5.74226">
        <ele>245.19999694824</ele>
        <time>2021-06-26T03:24:08.000Z</time>
      </trkpt>
      <trkpt lat="45.19801" lon="5.74225">
        <ele>245.19999694824</ele>
        <time>2021-06-26T03:24:12.000Z</time>
      </trkpt>
      <trkpt lat="45.19815" lon="5.74221">
        <ele>245.19999694824</ele>
        <time>2021-06-26T03:24:18.000Z</time>
      </trkpt>
      <trkpt lat="45.1982" lon="5.74219">
        <ele>245.19999694824</ele>
        <time>2021-06-26T03:24:20.000Z</time>
      </trkpt>
      <trkpt lat="45.19836" lon="5.74213">
        <ele>245.19999694824</ele>
        <time>2021-06-26T03:24:27.000Z</time>
      </trkpt>
      <trkpt lat="45.19855" lon="5.74202">
        <ele>245.39999389648</ele>
        <time>2021-06-26T03:24:35.000Z</time>
      </trkpt>
      <trkpt lat="45.19874" lon="5.74192">
        <ele>245.39999389648</ele>
        <time>2021-06-26T03:24:43.000Z</time>
      </trkpt>
      <trkpt lat="45.19877" lon="5.74191">
        <ele>245.39999389648</ele>
        <time>2021-06-26T03:24:44.000Z</time>
      </trkpt>
      <trkpt lat="45.19886" lon="5.74185">
        <ele>245.39999389648</ele>
        <time>2021-06-26T03:24:48.000Z</time>
      </trkpt>
      <trkpt lat="45.19892" lon="5.74185">
        <ele>245.19999694824</ele>
        <time>2021-06-26T03:24:50.000Z</time>
      </trkpt>
      <trkpt lat="45.19897" lon="5.74182">
        <ele>245.39999389648</ele>
        <time>2021-06-26T03:24:52.000Z</time>
      </trkpt>
      <trkpt lat="45.19909" lon="5.74171">
        <ele>245.60000610352</ele>
        <time>2021-06-26T03:24:58.000Z</time>
      </trkpt>
      <trkpt lat="45.19926" lon="5.74158">
        <ele>245.80000305176</ele>
        <time>2021-06-26T03:25:06.000Z</time>
      </trkpt>
      <trkpt lat="45.19941" lon="5.74144">
        <ele>245.80000305176</ele>
        <time>2021-06-26T03:25:13.000Z</time>
      </trkpt>
      <trkpt lat="45.19952" lon="5.74134">
        <ele>245.19999694824</ele>
        <time>2021-06-26T03:25:18.000Z</time>
      </trkpt>
      <trkpt lat="45.19958" lon="5.74126">
        <ele>245.19999694824</ele>
        <time>2021-06-26T03:25:21.000Z</time>
      </trkpt>
      <trkpt lat="45.19969" lon="5.74112">
        <ele>245</ele>
        <time>2021-06-26T03:25:27.000Z</time>
      </trkpt>
      <trkpt lat="45.1998" lon="5.74107">
        <ele>244.60000610352</ele>
        <time>2021-06-26T03:25:31.000Z</time>
      </trkpt>
      <trkpt lat="45.19982" lon="5.74105">
        <ele>244.39999389648</ele>
        <time>2021-06-26T03:25:32.000Z</time>
      </trkpt>
      <trkpt lat="45.19992" lon="5.74093">
        <ele>243.39999389648</ele>
        <time>2021-06-26T03:25:36.000Z</time>
      </trkpt>
      <trkpt lat="45.19995" lon="5.74089">
        <ele>243.19999694824</ele>
        <time>2021-06-26T03:25:38.000Z</time>
      </trkpt>
      <trkpt lat="45.20001" lon="5.74082">
        <ele>243.19999694824</ele>
        <time>2021-06-26T03:25:41.000Z</time>
      </trkpt>
      <trkpt lat="45.20003" lon="5.74079">
        <ele>243.19999694824</ele>
        <time>2021-06-26T03:25:42.000Z</time>
      </trkpt>
      <trkpt lat="45.20004" lon="5.74078">
        <ele>243.19999694824</ele>
        <time>2021-06-26T03:25:43.000Z</time>
      </trkpt>
      <trkpt lat="45.20027" lon="5.74054">
        <ele>243.19999694824</ele>
        <time>2021-06-26T03:25:55.000Z</time>
      </trkpt>
      <trkpt lat="45.20031" lon="5.74051">
        <ele>243.60000610352</ele>
        <time>2021-06-26T03:25:56.000Z</time>
      </trkpt>
      <trkpt lat="45.20031" lon="5.7405">
        <ele>243.80000305176</ele>
        <time>2021-06-26T03:25:57.000Z</time>
      </trkpt>
      <trkpt lat="45.20034" lon="5.74045">
        <ele>244.19999694824</ele>
        <time>2021-06-26T03:25:59.000Z</time>
      </trkpt>
      <trkpt lat="45.20035" lon="5.74041">
        <ele>244.39999389648</ele>
        <time>2021-06-26T03:26:00.000Z</time>
      </trkpt>
      <trkpt lat="45.20043" lon="5.74029">
        <ele>245</ele>
        <time>2021-06-26T03:26:04.000Z</time>
      </trkpt>
      <trkpt lat="45.20044" lon="5.74025">
        <ele>245.39999389648</ele>
        <time>2021-06-26T03:26:05.000Z</time>
      </trkpt>
      <trkpt lat="45.20047" lon="5.7402">
        <ele>245.39999389648</ele>
        <time>2021-06-26T03:26:07.000Z</time>
      </trkpt>
      <trkpt lat="45.20058" lon="5.74001">
        <ele>245.39999389648</ele>
        <time>2021-06-26T03:26:13.000Z</time>
      </trkpt>
      <trkpt lat="45.20061" lon="5.73998">
        <ele>245.19999694824</ele>
        <time>2021-06-26T03:26:14.000Z</time>
      </trkpt>
      <trkpt lat="45.20066" lon="5.73992">
        <ele>244.80000305176</ele>
        <time>2021-06-26T03:26:18.000Z</time>
      </trkpt>
      <trkpt lat="45.20076" lon="5.73981">
        <ele>244.80000305176</ele>
        <time>2021-06-26T03:26:24.000Z</time>
      </trkpt>
      <trkpt lat="45.20081" lon="5.73974">
        <ele>244.39999389648</ele>
        <time>2021-06-26T03:26:26.000Z</time>
      </trkpt>
      <trkpt lat="45.20087" lon="5.73966">
        <ele>244.39999389648</ele>
        <time>2021-06-26T03:26:28.000Z</time>
      </trkpt>
      <trkpt lat="45.20091" lon="5.73958">
        <ele>244.19999694824</ele>
        <time>2021-06-26T03:26:30.000Z</time>
      </trkpt>
      <trkpt lat="45.20099" lon="5.73949">
        <ele>244.19999694824</ele>
        <time>2021-06-26T03:26:33.000Z</time>
      </trkpt>
      <trkpt lat="45.20109" lon="5.73936">
        <ele>244.19999694824</ele>
        <time>2021-06-26T03:26:37.000Z</time>
      </trkpt>
      <trkpt lat="45.20113" lon="5.73931">
        <ele>244.19999694824</ele>
        <time>2021-06-26T03:26:39.000Z</time>
      </trkpt>
      <trkpt lat="45.20127" lon="5.73912">
        <ele>244.60000610352</ele>
        <time>2021-06-26T03:26:46.000Z</time>
      </trkpt>
      <trkpt lat="45.20132" lon="5.73907">
        <ele>244.80000305176</ele>
        <time>2021-06-26T03:26:48.000Z</time>
      </trkpt>
      <trkpt lat="45.20141" lon="5.73892">
        <ele>244.60000610352</ele>
        <time>2021-06-26T03:26:53.000Z</time>
      </trkpt>
      <trkpt lat="45.20143" lon="5.73889">
        <ele>244.60000610352</ele>
        <time>2021-06-26T03:26:54.000Z</time>
      </trkpt>
      <trkpt lat="45.20145" lon="5.73886">
        <ele>244.60000610352</ele>
        <time>2021-06-26T03:26:55.000Z</time>
      </trkpt>
      <trkpt lat="45.20156" lon="5.73863">
        <ele>244.39999389648</ele>
        <time>2021-06-26T03:27:02.000Z</time>
      </trkpt>
      <trkpt lat="45.20157" lon="5.73859">
        <ele>244.39999389648</ele>
        <time>2021-06-26T03:27:03.000Z</time>
      </trkpt>
      <trkpt lat="45.20167" lon="5.73837">
        <ele>244.60000610352</ele>
        <time>2021-06-26T03:27:09.000Z</time>
      </trkpt>
      <trkpt lat="45.20168" lon="5.73833">
        <ele>244.60000610352</ele>
        <time>2021-06-26T03:27:10.000Z</time>
      </trkpt>
      <trkpt lat="45.20172" lon="5.73807">
        <ele>244.60000610352</ele>
        <time>2021-06-26T03:27:17.000Z</time>
      </trkpt>
      <trkpt lat="45.20172" lon="5.73803">
        <ele>244.60000610352</ele>
        <time>2021-06-26T03:27:18.000Z</time>
      </trkpt>
      <trkpt lat="45.20173" lon="5.73782">
        <ele>244.80000305176</ele>
        <time>2021-06-26T03:27:24.000Z</time>
      </trkpt>
      <trkpt lat="45.20173" lon="5.73774">
        <ele>244.80000305176</ele>
        <time>2021-06-26T03:27:26.000Z</time>
      </trkpt>
      <trkpt lat="45.20173" lon="5.73758">
        <ele>244.80000305176</ele>
        <time>2021-06-26T03:27:30.000Z</time>
      </trkpt>
      <trkpt lat="45.20173" lon="5.73754">
        <ele>244.80000305176</ele>
        <time>2021-06-26T03:27:31.000Z</time>
      </trkpt>
      <trkpt lat="45.20172" lon="5.73736">
        <ele>244.60000610352</ele>
        <time>2021-06-26T03:27:36.000Z</time>
      </trkpt>
      <trkpt lat="45.20172" lon="5.73732">
        <ele>244.60000610352</ele>
        <time>2021-06-26T03:27:37.000Z</time>
      </trkpt>
      <trkpt lat="45.20169" lon="5.73715">
        <ele>244.80000305176</ele>
        <time>2021-06-26T03:27:42.000Z</time>
      </trkpt>
      <trkpt lat="45.20166" lon="5.73696">
        <ele>245.19999694824</ele>
        <time>2021-06-26T03:27:47.000Z</time>
      </trkpt>
      <trkpt lat="45.20166" lon="5.73681">
        <ele>245.19999694824</ele>
        <time>2021-06-26T03:27:51.000Z</time>
      </trkpt>
      <trkpt lat="45.20162" lon="5.73659">
        <ele>244.80000305176</ele>
        <time>2021-06-26T03:27:56.000Z</time>
      </trkpt>
      <trkpt lat="45.2016" lon="5.73654">
        <ele>244.80000305176</ele>
        <time>2021-06-26T03:27:57.000Z</time>
      </trkpt>
      <trkpt lat="45.20156" lon="5.73638">
        <ele>245.19999694824</ele>
        <time>2021-06-26T03:28:01.000Z</time>
      </trkpt>
      <trkpt lat="45.20147" lon="5.73615">
        <ele>245</ele>
        <time>2021-06-26T03:28:08.000Z</time>
      </trkpt>
      <trkpt lat="45.20144" lon="5.73611">
        <ele>245</ele>
        <time>2021-06-26T03:28:10.000Z</time>
      </trkpt>
      <trkpt lat="45.20141" lon="5.73607">
        <ele>245</ele>
        <time>2021-06-26T03:28:12.000Z</time>
      </trkpt>
      <trkpt lat="45.20137" lon="5.73601">
        <ele>245.19999694824</ele>
        <time>2021-06-26T03:28:14.000Z</time>
      </trkpt>
      <trkpt lat="45.20126" lon="5.73585">
        <ele>245</ele>
        <time>2021-06-26T03:28:20.000Z</time>
      </trkpt>
      <trkpt lat="45.20114" lon="5.73563">
        <ele>245.19999694824</ele>
        <time>2021-06-26T03:28:27.000Z</time>
      </trkpt>
      <trkpt lat="45.20109" lon="5.73559">
        <ele>245.39999389648</ele>
        <time>2021-06-26T03:28:29.000Z</time>
      </trkpt>
      <trkpt lat="45.20101" lon="5.73555">
        <ele>245.39999389648</ele>
        <time>2021-06-26T03:28:32.000Z</time>
      </trkpt>
      <trkpt lat="45.20094" lon="5.73543">
        <ele>245.39999389648</ele>
        <time>2021-06-26T03:28:36.000Z</time>
      </trkpt>
      <trkpt lat="45.20092" lon="5.7354">
        <ele>245.39999389648</ele>
        <time>2021-06-26T03:28:37.000Z</time>
      </trkpt>
      <trkpt lat="45.2009" lon="5.73537">
        <ele>245.60000610352</ele>
        <time>2021-06-26T03:28:38.000Z</time>
      </trkpt>
      <trkpt lat="45.20088" lon="5.73529">
        <ele>245.60000610352</ele>
        <time>2021-06-26T03:28:40.000Z</time>
      </trkpt>
      <trkpt lat="45.20089" lon="5.7352">
        <ele>245.60000610352</ele>
        <time>2021-06-26T03:28:42.000Z</time>
      </trkpt>
      <trkpt lat="45.20084" lon="5.73511">
        <ele>245.39999389648</ele>
        <time>2021-06-26T03:28:45.000Z</time>
      </trkpt>
      <trkpt lat="45.20081" lon="5.73508">
        <ele>245.39999389648</ele>
        <time>2021-06-26T03:28:46.000Z</time>
      </trkpt>
      <trkpt lat="45.20074" lon="5.73504">
        <ele>245.39999389648</ele>
        <time>2021-06-26T03:28:49.000Z</time>
      </trkpt>
      <trkpt lat="45.20055" lon="5.73499">
        <ele>245.19999694824</ele>
        <time>2021-06-26T03:28:55.000Z</time>
      </trkpt>
      <trkpt lat="45.20052" lon="5.73498">
        <ele>245.19999694824</ele>
        <time>2021-06-26T03:28:56.000Z</time>
      </trkpt>
      <trkpt lat="45.20036" lon="5.73494">
        <ele>245</ele>
        <time>2021-06-26T03:29:01.000Z</time>
      </trkpt>
      <trkpt lat="45.20032" lon="5.73494">
        <ele>244.80000305176</ele>
        <time>2021-06-26T03:29:02.000Z</time>
      </trkpt>
      <trkpt lat="45.20027" lon="5.73491">
        <ele>244.39999389648</ele>
        <time>2021-06-26T03:29:04.000Z</time>
      </trkpt>
      <trkpt lat="45.2002" lon="5.7348">
        <ele>244</ele>
        <time>2021-06-26T03:29:07.000Z</time>
      </trkpt>
      <trkpt lat="45.20012" lon="5.73479">
        <ele>244</ele>
        <time>2021-06-26T03:29:09.000Z</time>
      </trkpt>
      <trkpt lat="45.20008" lon="5.73477">
        <ele>244.39999389648</ele>
        <time>2021-06-26T03:29:11.000Z</time>
      </trkpt>
      <trkpt lat="45.19995" lon="5.73473">
        <ele>244.80000305176</ele>
        <time>2021-06-26T03:29:16.000Z</time>
      </trkpt>
      <trkpt lat="45.19992" lon="5.73472">
        <ele>244.80000305176</ele>
        <time>2021-06-26T03:29:17.000Z</time>
      </trkpt>
      <trkpt lat="45.19985" lon="5.73468">
        <ele>244.80000305176</ele>
        <time>2021-06-26T03:29:20.000Z</time>
      </trkpt>
      <trkpt lat="45.19982" lon="5.73468">
        <ele>244.80000305176</ele>
        <time>2021-06-26T03:29:21.000Z</time>
      </trkpt>
      <trkpt lat="45.1998" lon="5.73467">
        <ele>244.80000305176</ele>
        <time>2021-06-26T03:29:22.000Z</time>
      </trkpt>
      <trkpt lat="45.1997" lon="5.73465">
        <ele>245.19999694824</ele>
        <time>2021-06-26T03:29:26.000Z</time>
      </trkpt>
      <trkpt lat="45.19955" lon="5.73452">
        <ele>245.19999694824</ele>
        <time>2021-06-26T03:29:32.000Z</time>
      </trkpt>
      <trkpt lat="45.19941" lon="5.73443">
        <ele>245.39999389648</ele>
        <time>2021-06-26T03:29:38.000Z</time>
      </trkpt>
      <trkpt lat="45.19938" lon="5.73442">
        <ele>245</ele>
        <time>2021-06-26T03:29:39.000Z</time>
      </trkpt>
      <trkpt lat="45.19919" lon="5.73437">
        <ele>245</ele>
        <time>2021-06-26T03:29:45.000Z</time>
      </trkpt>
      <trkpt lat="45.19914" lon="5.73434">
        <ele>244.60000610352</ele>
        <time>2021-06-26T03:29:47.000Z</time>
      </trkpt>
      <trkpt lat="45.19905" lon="5.73433">
        <ele>244.80000305176</ele>
        <time>2021-06-26T03:29:50.000Z</time>
      </trkpt>
      <trkpt lat="45.199" lon="5.73433">
        <ele>244.80000305176</ele>
        <time>2021-06-26T03:29:52.000Z</time>
      </trkpt>
      <trkpt lat="45.19898" lon="5.73432">
        <ele>244.80000305176</ele>
        <time>2021-06-26T03:29:53.000Z</time>
      </trkpt>
      <trkpt lat="45.1989" lon="5.73429">
        <ele>245.19999694824</ele>
        <time>2021-06-26T03:29:57.000Z</time>
      </trkpt>
      <trkpt lat="45.19891" lon="5.73424">
        <ele>245.19999694824</ele>
        <time>2021-06-26T03:29:59.000Z</time>
      </trkpt>
      <trkpt lat="45.1989" lon="5.73419">
        <ele>245.39999389648</ele>
        <time>2021-06-26T03:30:01.000Z</time>
      </trkpt>
      <trkpt lat="45.19888" lon="5.73419">
        <ele>245.39999389648</ele>
        <time>2021-06-26T03:30:02.000Z</time>
      </trkpt>
      <trkpt lat="45.1988" lon="5.73417">
        <ele>245.19999694824</ele>
        <time>2021-06-26T03:30:05.000Z</time>
      </trkpt>
      <trkpt lat="45.19877" lon="5.73417">
        <ele>245.19999694824</ele>
        <time>2021-06-26T03:30:06.000Z</time>
      </trkpt>
      <trkpt lat="45.19862" lon="5.73416">
        <ele>245.19999694824</ele>
        <time>2021-06-26T03:30:11.000Z</time>
      </trkpt>
      <trkpt lat="45.19849" lon="5.73413">
        <ele>245.19999694824</ele>
        <time>2021-06-26T03:30:16.000Z</time>
      </trkpt>
      <trkpt lat="45.19845" lon="5.73413">
        <ele>245.19999694824</ele>
        <time>2021-06-26T03:30:17.000Z</time>
      </trkpt>
      <trkpt lat="45.19827" lon="5.73404">
        <ele>245.19999694824</ele>
        <time>2021-06-26T03:30:22.000Z</time>
      </trkpt>
      <trkpt lat="45.19822" lon="5.73399">
        <ele>245.39999389648</ele>
        <time>2021-06-26T03:30:24.000Z</time>
      </trkpt>
      <trkpt lat="45.19809" lon="5.73395">
        <ele>245.39999389648</ele>
        <time>2021-06-26T03:30:28.000Z</time>
      </trkpt>
      <trkpt lat="45.19796" lon="5.73395">
        <ele>245.19999694824</ele>
        <time>2021-06-26T03:30:32.000Z</time>
      </trkpt>
      <trkpt lat="45.19787" lon="5.73395">
        <ele>245.19999694824</ele>
        <time>2021-06-26T03:30:35.000Z</time>
      </trkpt>
      <trkpt lat="45.19768" lon="5.73387">
        <ele>245</ele>
        <time>2021-06-26T03:30:42.000Z</time>
      </trkpt>
      <trkpt lat="45.19757" lon="5.73385">
        <ele>245.60000610352</ele>
        <time>2021-06-26T03:30:46.000Z</time>
      </trkpt>
      <trkpt lat="45.19755" lon="5.73384">
        <ele>245.60000610352</ele>
        <time>2021-06-26T03:30:47.000Z</time>
      </trkpt>
      <trkpt lat="45.19752" lon="5.73384">
        <ele>245.80000305176</ele>
        <time>2021-06-26T03:30:48.000Z</time>
      </trkpt>
      <trkpt lat="45.1975" lon="5.73383">
        <ele>246</ele>
        <time>2021-06-26T03:30:49.000Z</time>
      </trkpt>
      <trkpt lat="45.19747" lon="5.73382">
        <ele>246.39999389648</ele>
        <time>2021-06-26T03:30:50.000Z</time>
      </trkpt>
      <trkpt lat="45.19734" lon="5.73375">
        <ele>247.19999694824</ele>
        <time>2021-06-26T03:30:55.000Z</time>
      </trkpt>
      <trkpt lat="45.19732" lon="5.73372">
        <ele>247.19999694824</ele>
        <time>2021-06-26T03:30:56.000Z</time>
      </trkpt>
      <trkpt lat="45.19731" lon="5.73368">
        <ele>247.39999389648</ele>
        <time>2021-06-26T03:30:57.000Z</time>
      </trkpt>
      <trkpt lat="45.19732" lon="5.7336">
        <ele>247.39999389648</ele>
        <time>2021-06-26T03:30:59.000Z</time>
      </trkpt>
      <trkpt lat="45.19735" lon="5.73331">
        <ele>247.80000305176</ele>
        <time>2021-06-26T03:31:05.000Z</time>
      </trkpt>
      <trkpt lat="45.19739" lon="5.73319">
        <ele>248.39999389648</ele>
        <time>2021-06-26T03:31:08.000Z</time>
      </trkpt>
      <trkpt lat="45.19739" lon="5.73315">
        <ele>248.39999389648</ele>
        <time>2021-06-26T03:31:09.000Z</time>
      </trkpt>
      <trkpt lat="45.19745" lon="5.73289">
        <ele>248.19999694824</ele>
        <time>2021-06-26T03:31:16.000Z</time>
      </trkpt>
      <trkpt lat="45.19748" lon="5.73282">
        <ele>248.19999694824</ele>
        <time>2021-06-26T03:31:18.000Z</time>
      </trkpt>
      <trkpt lat="45.19752" lon="5.73266">
        <ele>247.80000305176</ele>
        <time>2021-06-26T03:31:22.000Z</time>
      </trkpt>
      <trkpt lat="45.19756" lon="5.73253">
        <ele>247.19999694824</ele>
        <time>2021-06-26T03:31:26.000Z</time>
      </trkpt>
      <trkpt lat="45.19758" lon="5.73249">
        <ele>247.19999694824</ele>
        <time>2021-06-26T03:31:27.000Z</time>
      </trkpt>
      <trkpt lat="45.19764" lon="5.73229">
        <ele>246.80000305176</ele>
        <time>2021-06-26T03:31:32.000Z</time>
      </trkpt>
      <trkpt lat="45.19766" lon="5.73221">
        <ele>246.39999389648</ele>
        <time>2021-06-26T03:31:34.000Z</time>
      </trkpt>
      <trkpt lat="45.19771" lon="5.73207">
        <ele>246</ele>
        <time>2021-06-26T03:31:38.000Z</time>
      </trkpt>
      <trkpt lat="45.19774" lon="5.732">
        <ele>245.80000305176</ele>
        <time>2021-06-26T03:31:40.000Z</time>
      </trkpt>
      <trkpt lat="45.19775" lon="5.73197">
        <ele>245.60000610352</ele>
        <time>2021-06-26T03:31:41.000Z</time>
      </trkpt>
      <trkpt lat="45.19777" lon="5.73175">
        <ele>245.80000305176</ele>
        <time>2021-06-26T03:31:47.000Z</time>
      </trkpt>
      <trkpt lat="45.19776" lon="5.73161">
        <ele>245.60000610352</ele>
        <time>2021-06-26T03:31:51.000Z</time>
      </trkpt>
      <trkpt lat="45.19778" lon="5.73157">
        <ele>245.80000305176</ele>
        <time>2021-06-26T03:31:52.000Z</time>
      </trkpt>
      <trkpt lat="45.19779" lon="5.73151">
        <ele>246.80000305176</ele>
        <time>2021-06-26T03:31:54.000Z</time>
      </trkpt>
      <trkpt lat="45.19778" lon="5.73149">
        <ele>247</ele>
        <time>2021-06-26T03:31:55.000Z</time>
      </trkpt>
      <trkpt lat="45.19779" lon="5.73147">
        <ele>247.60000610352</ele>
        <time>2021-06-26T03:31:56.000Z</time>
      </trkpt>
      <trkpt lat="45.19779" lon="5.73145">
        <ele>247.80000305176</ele>
        <time>2021-06-26T03:31:57.000Z</time>
      </trkpt>
      <trkpt lat="45.1978" lon="5.73142">
        <ele>248</ele>
        <time>2021-06-26T03:31:58.000Z</time>
      </trkpt>
      <trkpt lat="45.19784" lon="5.73135">
        <ele>248.80000305176</ele>
        <time>2021-06-26T03:32:00.000Z</time>
      </trkpt>
      <trkpt lat="45.19788" lon="5.73127">
        <ele>250.19999694824</ele>
        <time>2021-06-26T03:32:03.000Z</time>
      </trkpt>
      <trkpt lat="45.19788" lon="5.73124">
        <ele>250.39999389648</ele>
        <time>2021-06-26T03:32:06.000Z</time>
      </trkpt>
      <trkpt lat="45.19789" lon="5.73123">
        <ele>250.80000305176</ele>
        <time>2021-06-26T03:32:07.000Z</time>
      </trkpt>
      <trkpt lat="45.19791" lon="5.7312">
        <ele>251.19999694824</ele>
        <time>2021-06-26T03:32:09.000Z</time>
      </trkpt>
      <trkpt lat="45.19792" lon="5.73119">
        <ele>251.60000610352</ele>
        <time>2021-06-26T03:32:10.000Z</time>
      </trkpt>
      <trkpt lat="45.19795" lon="5.73117">
        <ele>252.39999389648</ele>
        <time>2021-06-26T03:32:12.000Z</time>
      </trkpt>
      <trkpt lat="45.19798" lon="5.73114">
        <ele>253</ele>
        <time>2021-06-26T03:32:16.000Z</time>
      </trkpt>
      <trkpt lat="45.1979" lon="5.73121">
        <ele>253.80000305176</ele>
        <time>2021-06-26T03:32:20.000Z</time>
      </trkpt>
      <trkpt lat="45.19783" lon="5.7312">
        <ele>254.60000610352</ele>
        <time>2021-06-26T03:32:24.000Z</time>
      </trkpt>
      <trkpt lat="45.19782" lon="5.7312">
        <ele>254.80000305176</ele>
        <time>2021-06-26T03:32:25.000Z</time>
      </trkpt>
      <trkpt lat="45.19757" lon="5.73118">
        <ele>257.60000610352</ele>
        <time>2021-06-26T03:32:36.000Z</time>
      </trkpt>
      <trkpt lat="45.19754" lon="5.73116">
        <ele>257.60000610352</ele>
        <time>2021-06-26T03:32:37.000Z</time>
      </trkpt>
      <trkpt lat="45.19757" lon="5.73101">
        <ele>258.20001220703</ele>
        <time>2021-06-26T03:32:40.000Z</time>
      </trkpt>
      <trkpt lat="45.19758" lon="5.73095">
        <ele>258.60000610352</ele>
        <time>2021-06-26T03:32:41.000Z</time>
      </trkpt>
      <trkpt lat="45.19757" lon="5.73092">
        <ele>258.60000610352</ele>
        <time>2021-06-26T03:32:42.000Z</time>
      </trkpt>
      <trkpt lat="45.19757" lon="5.73089">
        <ele>258.79998779297</ele>
        <time>2021-06-26T03:32:43.000Z</time>
      </trkpt>
      <trkpt lat="45.1976" lon="5.7308">
        <ele>259.60000610352</ele>
        <time>2021-06-26T03:32:46.000Z</time>
      </trkpt>
      <trkpt lat="45.19769" lon="5.73075">
        <ele>260.39999389648</ele>
        <time>2021-06-26T03:32:52.000Z</time>
      </trkpt>
      <trkpt lat="45.19772" lon="5.73076">
        <ele>260.60000610352</ele>
        <time>2021-06-26T03:32:54.000Z</time>
      </trkpt>
      <trkpt lat="45.19776" lon="5.73076">
        <ele>261</ele>
        <time>2021-06-26T03:32:55.000Z</time>
      </trkpt>
      <trkpt lat="45.19779" lon="5.73074">
        <ele>261.39999389648</ele>
        <time>2021-06-26T03:32:56.000Z</time>
      </trkpt>
      <trkpt lat="45.19784" lon="5.73069">
        <ele>262.39999389648</ele>
        <time>2021-06-26T03:32:58.000Z</time>
      </trkpt>
      <trkpt lat="45.19788" lon="5.73069">
        <ele>262.39999389648</ele>
        <time>2021-06-26T03:33:01.000Z</time>
      </trkpt>
      <trkpt lat="45.19789" lon="5.73071">
        <ele>263</ele>
        <time>2021-06-26T03:33:02.000Z</time>
      </trkpt>
      <trkpt lat="45.19792" lon="5.73075">
        <ele>263.20001220703</ele>
        <time>2021-06-26T03:33:05.000Z</time>
      </trkpt>
      <trkpt lat="45.19793" lon="5.73076">
        <ele>263.39999389648</ele>
        <time>2021-06-26T03:33:07.000Z</time>
      </trkpt>
      <trkpt lat="45.19796" lon="5.73073">
        <ele>264.60000610352</ele>
        <time>2021-06-26T03:33:10.000Z</time>
      </trkpt>
      <trkpt lat="45.19793" lon="5.73074">
        <ele>264.79998779297</ele>
        <time>2021-06-26T03:33:14.000Z</time>
      </trkpt>
      <trkpt lat="45.19791" lon="5.73075">
        <ele>265.60000610352</ele>
        <time>2021-06-26T03:33:16.000Z</time>
      </trkpt>
      <trkpt lat="45.1979" lon="5.73074">
        <ele>265.60000610352</ele>
        <time>2021-06-26T03:33:17.000Z</time>
      </trkpt>
      <trkpt lat="45.19788" lon="5.73072">
        <ele>266.20001220703</ele>
        <time>2021-06-26T03:33:20.000Z</time>
      </trkpt>
      <trkpt lat="45.19788" lon="5.73072">
        <ele>266.20001220703</ele>
        <time>2021-06-26T03:33:21.000Z</time>
      </trkpt>
      <trkpt lat="45.19786" lon="5.73071">
        <ele>266.79998779297</ele>
        <time>2021-06-26T03:33:23.000Z</time>
      </trkpt>
      <trkpt lat="45.19784" lon="5.73071">
        <ele>267</ele>
        <time>2021-06-26T03:33:24.000Z</time>
      </trkpt>
      <trkpt lat="45.19783" lon="5.73071">
        <ele>267.20001220703</ele>
        <time>2021-06-26T03:33:26.000Z</time>
      </trkpt>
      <trkpt lat="45.19781" lon="5.73071">
        <ele>268</ele>
        <time>2021-06-26T03:33:28.000Z</time>
      </trkpt>
      <trkpt lat="45.1978" lon="5.73071">
        <ele>268</ele>
        <time>2021-06-26T03:33:29.000Z</time>
      </trkpt>
      <trkpt lat="45.19776" lon="5.73069">
        <ele>268.60000610352</ele>
        <time>2021-06-26T03:33:32.000Z</time>
      </trkpt>
      <trkpt lat="45.19773" lon="5.73065">
        <ele>268.79998779297</ele>
        <time>2021-06-26T03:33:34.000Z</time>
      </trkpt>
      <trkpt lat="45.19771" lon="5.73061">
        <ele>269.20001220703</ele>
        <time>2021-06-26T03:33:36.000Z</time>
      </trkpt>
      <trkpt lat="45.19769" lon="5.73061">
        <ele>269.39999389648</ele>
        <time>2021-06-26T03:33:37.000Z</time>
      </trkpt>
      <trkpt lat="45.19766" lon="5.7306">
        <ele>270.20001220703</ele>
        <time>2021-06-26T03:33:39.000Z</time>
      </trkpt>
      <trkpt lat="45.19764" lon="5.73061">
        <ele>270.20001220703</ele>
        <time>2021-06-26T03:33:40.000Z</time>
      </trkpt>
      <trkpt lat="45.19759" lon="5.73062">
        <ele>270.60000610352</ele>
        <time>2021-06-26T03:33:43.000Z</time>
      </trkpt>
      <trkpt lat="45.19757" lon="5.73061">
        <ele>270.79998779297</ele>
        <time>2021-06-26T03:33:44.000Z</time>
      </trkpt>
      <trkpt lat="45.19757" lon="5.73053">
        <ele>271.39999389648</ele>
        <time>2021-06-26T03:33:46.000Z</time>
      </trkpt>
      <trkpt lat="45.19758" lon="5.73051">
        <ele>271.60000610352</ele>
        <time>2021-06-26T03:33:47.000Z</time>
      </trkpt>
      <trkpt lat="45.19761" lon="5.7305">
        <ele>272</ele>
        <time>2021-06-26T03:33:50.000Z</time>
      </trkpt>
      <trkpt lat="45.19762" lon="5.7305">
        <ele>272.60000610352</ele>
        <time>2021-06-26T03:33:51.000Z</time>
      </trkpt>
      <trkpt lat="45.19764" lon="5.7305">
        <ele>272.79998779297</ele>
        <time>2021-06-26T03:33:53.000Z</time>
      </trkpt>
      <trkpt lat="45.19765" lon="5.7305">
        <ele>273.60000610352</ele>
        <time>2021-06-26T03:33:55.000Z</time>
      </trkpt>
      <trkpt lat="45.19766" lon="5.7305">
        <ele>273.60000610352</ele>
        <time>2021-06-26T03:33:56.000Z</time>
      </trkpt>
      <trkpt lat="45.19771" lon="5.73049">
        <ele>274</ele>
        <time>2021-06-26T03:33:59.000Z</time>
      </trkpt>
      <trkpt lat="45.19773" lon="5.73049">
        <ele>274</ele>
        <time>2021-06-26T03:34:00.000Z</time>
      </trkpt>
      <trkpt lat="45.19775" lon="5.73047">
        <ele>275</ele>
        <time>2021-06-26T03:34:01.000Z</time>
      </trkpt>
      <trkpt lat="45.19777" lon="5.73046">
        <ele>275</ele>
        <time>2021-06-26T03:34:02.000Z</time>
      </trkpt>
      <trkpt lat="45.19778" lon="5.73047">
        <ele>275.20001220703</ele>
        <time>2021-06-26T03:34:04.000Z</time>
      </trkpt>
      <trkpt lat="45.19781" lon="5.73051">
        <ele>276.20001220703</ele>
        <time>2021-06-26T03:34:08.000Z</time>
      </trkpt>
      <trkpt lat="45.19784" lon="5.73052">
        <ele>276.39999389648</ele>
        <time>2021-06-26T03:34:10.000Z</time>
      </trkpt>
      <trkpt lat="45.19785" lon="5.73053">
        <ele>276.60000610352</ele>
        <time>2021-06-26T03:34:12.000Z</time>
      </trkpt>
      <trkpt lat="45.19786" lon="5.73052">
        <ele>277.60000610352</ele>
        <time>2021-06-26T03:34:14.000Z</time>
      </trkpt>
      <trkpt lat="45.1978" lon="5.73052">
        <ele>278.79998779297</ele>
        <time>2021-06-26T03:34:21.000Z</time>
      </trkpt>
      <trkpt lat="45.19779" lon="5.73052">
        <ele>279</ele>
        <time>2021-06-26T03:34:22.000Z</time>
      </trkpt>
      <trkpt lat="45.19776" lon="5.73054">
        <ele>279.79998779297</ele>
        <time>2021-06-26T03:34:25.000Z</time>
      </trkpt>
      <trkpt lat="45.19775" lon="5.73053">
        <ele>280</ele>
        <time>2021-06-26T03:34:26.000Z</time>
      </trkpt>
      <trkpt lat="45.1977" lon="5.73045">
        <ele>281.20001220703</ele>
        <time>2021-06-26T03:34:31.000Z</time>
      </trkpt>
      <trkpt lat="45.19769" lon="5.73045">
        <ele>281.20001220703</ele>
        <time>2021-06-26T03:34:32.000Z</time>
      </trkpt>
      <trkpt lat="45.19767" lon="5.73041">
        <ele>281.60000610352</ele>
        <time>2021-06-26T03:34:34.000Z</time>
      </trkpt>
      <trkpt lat="45.19767" lon="5.7304">
        <ele>281.79998779297</ele>
        <time>2021-06-26T03:34:36.000Z</time>
      </trkpt>
      <trkpt lat="45.19766" lon="5.73039">
        <ele>281.79998779297</ele>
        <time>2021-06-26T03:34:37.000Z</time>
      </trkpt>
      <trkpt lat="45.19765" lon="5.73038">
        <ele>282.39999389648</ele>
        <time>2021-06-26T03:34:38.000Z</time>
      </trkpt>
      <trkpt lat="45.19764" lon="5.73035">
        <ele>282.39999389648</ele>
        <time>2021-06-26T03:34:39.000Z</time>
      </trkpt>
      <trkpt lat="45.19764" lon="5.73032">
        <ele>282.60000610352</ele>
        <time>2021-06-26T03:34:40.000Z</time>
      </trkpt>
      <trkpt lat="45.19764" lon="5.73027">
        <ele>283.39999389648</ele>
        <time>2021-06-26T03:34:42.000Z</time>
      </trkpt>
      <trkpt lat="45.19764" lon="5.73024">
        <ele>283.60000610352</ele>
        <time>2021-06-26T03:34:43.000Z</time>
      </trkpt>
      <trkpt lat="45.19766" lon="5.73023">
        <ele>283.79998779297</ele>
        <time>2021-06-26T03:34:44.000Z</time>
      </trkpt>
      <trkpt lat="45.19768" lon="5.73021">
        <ele>283.79998779297</ele>
        <time>2021-06-26T03:34:45.000Z</time>
      </trkpt>
      <trkpt lat="45.19777" lon="5.73015">
        <ele>284.79998779297</ele>
        <time>2021-06-26T03:34:51.000Z</time>
      </trkpt>
      <trkpt lat="45.19785" lon="5.73017">
        <ele>286</ele>
        <time>2021-06-26T03:34:57.000Z</time>
      </trkpt>
      <trkpt lat="45.19785" lon="5.73018">
        <ele>286.39999389648</ele>
        <time>2021-06-26T03:34:58.000Z</time>
      </trkpt>
      <trkpt lat="45.19786" lon="5.7302">
        <ele>286.60000610352</ele>
        <time>2021-06-26T03:35:00.000Z</time>
      </trkpt>
      <trkpt lat="45.19787" lon="5.73021">
        <ele>287.39999389648</ele>
        <time>2021-06-26T03:35:01.000Z</time>
      </trkpt>
      <trkpt lat="45.19791" lon="5.7302">
        <ele>288</ele>
        <time>2021-06-26T03:35:04.000Z</time>
      </trkpt>
      <trkpt lat="45.19793" lon="5.73023">
        <ele>288.20001220703</ele>
        <time>2021-06-26T03:35:06.000Z</time>
      </trkpt>
      <trkpt lat="45.19797" lon="5.73023">
        <ele>288.79998779297</ele>
        <time>2021-06-26T03:35:08.000Z</time>
      </trkpt>
      <trkpt lat="45.19799" lon="5.73022">
        <ele>289.39999389648</ele>
        <time>2021-06-26T03:35:10.000Z</time>
      </trkpt>
      <trkpt lat="45.198" lon="5.7302">
        <ele>289.60000610352</ele>
        <time>2021-06-26T03:35:11.000Z</time>
      </trkpt>
      <trkpt lat="45.198" lon="5.7302">
        <ele>289.79998779297</ele>
        <time>2021-06-26T03:35:12.000Z</time>
      </trkpt>
      <trkpt lat="45.198" lon="5.73019">
        <ele>289.79998779297</ele>
        <time>2021-06-26T03:35:13.000Z</time>
      </trkpt>
      <trkpt lat="45.19798" lon="5.73018">
        <ele>290.79998779297</ele>
        <time>2021-06-26T03:35:15.000Z</time>
      </trkpt>
      <trkpt lat="45.19797" lon="5.73018">
        <ele>291</ele>
        <time>2021-06-26T03:35:16.000Z</time>
      </trkpt>
      <trkpt lat="45.19791" lon="5.73017">
        <ele>291.79998779297</ele>
        <time>2021-06-26T03:35:21.000Z</time>
      </trkpt>
      <trkpt lat="45.19789" lon="5.73015">
        <ele>292</ele>
        <time>2021-06-26T03:35:23.000Z</time>
      </trkpt>
      <trkpt lat="45.19788" lon="5.73015">
        <ele>292.20001220703</ele>
        <time>2021-06-26T03:35:24.000Z</time>
      </trkpt>
      <trkpt lat="45.19785" lon="5.73013">
        <ele>292.79998779297</ele>
        <time>2021-06-26T03:35:26.000Z</time>
      </trkpt>
      <trkpt lat="45.19782" lon="5.73012">
        <ele>293.39999389648</ele>
        <time>2021-06-26T03:35:28.000Z</time>
      </trkpt>
      <trkpt lat="45.19772" lon="5.73011">
        <ele>294.20001220703</ele>
        <time>2021-06-26T03:35:33.000Z</time>
      </trkpt>
      <trkpt lat="45.1977" lon="5.73008">
        <ele>294.60000610352</ele>
        <time>2021-06-26T03:35:35.000Z</time>
      </trkpt>
      <trkpt lat="45.19769" lon="5.73007">
        <ele>294.60000610352</ele>
        <time>2021-06-26T03:35:36.000Z</time>
      </trkpt>
      <trkpt lat="45.19769" lon="5.73002">
        <ele>295.39999389648</ele>
        <time>2021-06-26T03:35:38.000Z</time>
      </trkpt>
      <trkpt lat="45.19769" lon="5.73001">
        <ele>295.79998779297</ele>
        <time>2021-06-26T03:35:39.000Z</time>
      </trkpt>
      <trkpt lat="45.19771" lon="5.73">
        <ele>296</ele>
        <time>2021-06-26T03:35:41.000Z</time>
      </trkpt>
      <trkpt lat="45.19775" lon="5.73001">
        <ele>296.79998779297</ele>
        <time>2021-06-26T03:35:45.000Z</time>
      </trkpt>
      <trkpt lat="45.19778" lon="5.73002">
        <ele>297.39999389648</ele>
        <time>2021-06-26T03:35:47.000Z</time>
      </trkpt>
      <trkpt lat="45.19779" lon="5.73002">
        <ele>297.39999389648</ele>
        <time>2021-06-26T03:35:48.000Z</time>
      </trkpt>
      <trkpt lat="45.19783" lon="5.73002">
        <ele>298</ele>
        <time>2021-06-26T03:35:51.000Z</time>
      </trkpt>
      <trkpt lat="45.19787" lon="5.73003">
        <ele>298</ele>
        <time>2021-06-26T03:35:53.000Z</time>
      </trkpt>
      <trkpt lat="45.1979" lon="5.73003">
        <ele>299</ele>
        <time>2021-06-26T03:35:55.000Z</time>
      </trkpt>
      <trkpt lat="45.19791" lon="5.73003">
        <ele>299</ele>
        <time>2021-06-26T03:35:56.000Z</time>
      </trkpt>
      <trkpt lat="45.19794" lon="5.73003">
        <ele>299</ele>
        <time>2021-06-26T03:35:58.000Z</time>
      </trkpt>
      <trkpt lat="45.19797" lon="5.73004">
        <ele>299.79998779297</ele>
        <time>2021-06-26T03:36:00.000Z</time>
      </trkpt>
      <trkpt lat="45.19799" lon="5.73005">
        <ele>300.20001220703</ele>
        <time>2021-06-26T03:36:01.000Z</time>
      </trkpt>
      <trkpt lat="45.19801" lon="5.73005">
        <ele>300.20001220703</ele>
        <time>2021-06-26T03:36:02.000Z</time>
      </trkpt>
      <trkpt lat="45.19803" lon="5.73005">
        <ele>300.79998779297</ele>
        <time>2021-06-26T03:36:05.000Z</time>
      </trkpt>
      <trkpt lat="45.19804" lon="5.73003">
        <ele>301.39999389648</ele>
        <time>2021-06-26T03:36:06.000Z</time>
      </trkpt>
      <trkpt lat="45.19803" lon="5.73004">
        <ele>301.39999389648</ele>
        <time>2021-06-26T03:36:07.000Z</time>
      </trkpt>
      <trkpt lat="45.19797" lon="5.73007">
        <ele>301.79998779297</ele>
        <time>2021-06-26T03:36:11.000Z</time>
      </trkpt>
      <trkpt lat="45.19793" lon="5.73005">
        <ele>302.39999389648</ele>
        <time>2021-06-26T03:36:14.000Z</time>
      </trkpt>
      <trkpt lat="45.19791" lon="5.73004">
        <ele>302.60000610352</ele>
        <time>2021-06-26T03:36:15.000Z</time>
      </trkpt>
      <trkpt lat="45.19789" lon="5.73004">
        <ele>302.79998779297</ele>
        <time>2021-06-26T03:36:16.000Z</time>
      </trkpt>
      <trkpt lat="45.19785" lon="5.73005">
        <ele>303.39999389648</ele>
        <time>2021-06-26T03:36:18.000Z</time>
      </trkpt>
      <trkpt lat="45.19783" lon="5.73004">
        <ele>303.60000610352</ele>
        <time>2021-06-26T03:36:20.000Z</time>
      </trkpt>
      <trkpt lat="45.19781" lon="5.73003">
        <ele>303.79998779297</ele>
        <time>2021-06-26T03:36:21.000Z</time>
      </trkpt>
      <trkpt lat="45.19775" lon="5.72994">
        <ele>304.79998779297</ele>
        <time>2021-06-26T03:36:26.000Z</time>
      </trkpt>
      <trkpt lat="45.19774" lon="5.72991">
        <ele>305.39999389648</ele>
        <time>2021-06-26T03:36:27.000Z</time>
      </trkpt>
      <trkpt lat="45.19768" lon="5.72985">
        <ele>306</ele>
        <time>2021-06-26T03:36:31.000Z</time>
      </trkpt>
      <trkpt lat="45.19763" lon="5.72981">
        <ele>306.39999389648</ele>
        <time>2021-06-26T03:36:34.000Z</time>
      </trkpt>
      <trkpt lat="45.1976" lon="5.72975">
        <ele>307.60000610352</ele>
        <time>2021-06-26T03:36:37.000Z</time>
      </trkpt>
      <trkpt lat="45.19755" lon="5.72968">
        <ele>308</ele>
        <time>2021-06-26T03:36:41.000Z</time>
      </trkpt>
      <trkpt lat="45.19751" lon="5.72963">
        <ele>308.79998779297</ele>
        <time>2021-06-26T03:36:44.000Z</time>
      </trkpt>
      <trkpt lat="45.19749" lon="5.7296">
        <ele>309</ele>
        <time>2021-06-26T03:36:46.000Z</time>
      </trkpt>
      <trkpt lat="45.19743" lon="5.72955">
        <ele>309.79998779297</ele>
        <time>2021-06-26T03:36:50.000Z</time>
      </trkpt>
      <trkpt lat="45.19742" lon="5.72954">
        <ele>310.20001220703</ele>
        <time>2021-06-26T03:36:51.000Z</time>
      </trkpt>
      <trkpt lat="45.19737" lon="5.72951">
        <ele>310.60000610352</ele>
        <time>2021-06-26T03:36:53.000Z</time>
      </trkpt>
      <trkpt lat="45.19734" lon="5.72947">
        <ele>310.60000610352</ele>
        <time>2021-06-26T03:36:55.000Z</time>
      </trkpt>
      <trkpt lat="45.19733" lon="5.72946">
        <ele>311</ele>
        <time>2021-06-26T03:36:56.000Z</time>
      </trkpt>
      <trkpt lat="45.19731" lon="5.7294">
        <ele>312</ele>
        <time>2021-06-26T03:36:58.000Z</time>
      </trkpt>
      <trkpt lat="45.19722" lon="5.72925">
        <ele>313.20001220703</ele>
        <time>2021-06-26T03:37:05.000Z</time>
      </trkpt>
      <trkpt lat="45.19718" lon="5.72917">
        <ele>313.60000610352</ele>
        <time>2021-06-26T03:37:08.000Z</time>
      </trkpt>
      <trkpt lat="45.19716" lon="5.72913">
        <ele>314.39999389648</ele>
        <time>2021-06-26T03:37:10.000Z</time>
      </trkpt>
      <trkpt lat="45.19715" lon="5.72911">
        <ele>314.39999389648</ele>
        <time>2021-06-26T03:37:11.000Z</time>
      </trkpt>
      <trkpt lat="45.19713" lon="5.72906">
        <ele>314.79998779297</ele>
        <time>2021-06-26T03:37:13.000Z</time>
      </trkpt>
      <trkpt lat="45.19707" lon="5.72903">
        <ele>315.39999389648</ele>
        <time>2021-06-26T03:37:16.000Z</time>
      </trkpt>
      <trkpt lat="45.19706" lon="5.72901">
        <ele>315.79998779297</ele>
        <time>2021-06-26T03:37:17.000Z</time>
      </trkpt>
      <trkpt lat="45.19703" lon="5.72892">
        <ele>316.60000610352</ele>
        <time>2021-06-26T03:37:21.000Z</time>
      </trkpt>
      <trkpt lat="45.19698" lon="5.72886">
        <ele>316.79998779297</ele>
        <time>2021-06-26T03:37:24.000Z</time>
      </trkpt>
      <trkpt lat="45.19697" lon="5.72883">
        <ele>317.60000610352</ele>
        <time>2021-06-26T03:37:25.000Z</time>
      </trkpt>
      <trkpt lat="45.1969" lon="5.72874">
        <ele>318.39999389648</ele>
        <time>2021-06-26T03:37:29.000Z</time>
      </trkpt>
      <trkpt lat="45.19689" lon="5.7287">
        <ele>318.60000610352</ele>
        <time>2021-06-26T03:37:30.000Z</time>
      </trkpt>
      <trkpt lat="45.19688" lon="5.7286">
        <ele>319.60000610352</ele>
        <time>2021-06-26T03:37:33.000Z</time>
      </trkpt>
      <trkpt lat="45.19689" lon="5.72859">
        <ele>320</ele>
        <time>2021-06-26T03:37:34.000Z</time>
      </trkpt>
      <trkpt lat="45.19692" lon="5.72856">
        <ele>320.60000610352</ele>
        <time>2021-06-26T03:37:37.000Z</time>
      </trkpt>
      <trkpt lat="45.19693" lon="5.72857">
        <ele>320.79998779297</ele>
        <time>2021-06-26T03:37:38.000Z</time>
      </trkpt>
      <trkpt lat="45.19698" lon="5.72858">
        <ele>321.39999389648</ele>
        <time>2021-06-26T03:37:40.000Z</time>
      </trkpt>
      <trkpt lat="45.19703" lon="5.7286">
        <ele>322</ele>
        <time>2021-06-26T03:37:43.000Z</time>
      </trkpt>
      <trkpt lat="45.19707" lon="5.72863">
        <ele>322.39999389648</ele>
        <time>2021-06-26T03:37:46.000Z</time>
      </trkpt>
      <trkpt lat="45.19711" lon="5.72867">
        <ele>323.60000610352</ele>
        <time>2021-06-26T03:37:50.000Z</time>
      </trkpt>
      <trkpt lat="45.19713" lon="5.72872">
        <ele>324.39999389648</ele>
        <time>2021-06-26T03:37:53.000Z</time>
      </trkpt>
      <trkpt lat="45.19716" lon="5.72875">
        <ele>324.60000610352</ele>
        <time>2021-06-26T03:37:55.000Z</time>
      </trkpt>
      <trkpt lat="45.19717" lon="5.72876">
        <ele>324.60000610352</ele>
        <time>2021-06-26T03:37:56.000Z</time>
      </trkpt>
      <trkpt lat="45.19721" lon="5.72878">
        <ele>325.20001220703</ele>
        <time>2021-06-26T03:37:58.000Z</time>
      </trkpt>
      <trkpt lat="45.19723" lon="5.7288">
        <ele>325.79998779297</ele>
        <time>2021-06-26T03:37:59.000Z</time>
      </trkpt>
      <trkpt lat="45.19727" lon="5.72883">
        <ele>326.20001220703</ele>
        <time>2021-06-26T03:38:01.000Z</time>
      </trkpt>
      <trkpt lat="45.19731" lon="5.72883">
        <ele>326.79998779297</ele>
        <time>2021-06-26T03:38:03.000Z</time>
      </trkpt>
      <trkpt lat="45.19739" lon="5.72887">
        <ele>327.79998779297</ele>
        <time>2021-06-26T03:38:07.000Z</time>
      </trkpt>
      <trkpt lat="45.19741" lon="5.72889">
        <ele>327.79998779297</ele>
        <time>2021-06-26T03:38:08.000Z</time>
      </trkpt>
      <trkpt lat="45.19742" lon="5.72891">
        <ele>327.79998779297</ele>
        <time>2021-06-26T03:38:09.000Z</time>
      </trkpt>
      <trkpt lat="45.19744" lon="5.72893">
        <ele>328.79998779297</ele>
        <time>2021-06-26T03:38:11.000Z</time>
      </trkpt>
      <trkpt lat="45.19746" lon="5.72897">
        <ele>329</ele>
        <time>2021-06-26T03:38:13.000Z</time>
      </trkpt>
      <trkpt lat="45.1975" lon="5.72902">
        <ele>329.79998779297</ele>
        <time>2021-06-26T03:38:16.000Z</time>
      </trkpt>
      <trkpt lat="45.19753" lon="5.72904">
        <ele>330.60000610352</ele>
        <time>2021-06-26T03:38:18.000Z</time>
      </trkpt>
      <trkpt lat="45.19754" lon="5.72906">
        <ele>330.60000610352</ele>
        <time>2021-06-26T03:38:19.000Z</time>
      </trkpt>
      <trkpt lat="45.19756" lon="5.72907">
        <ele>331.39999389648</ele>
        <time>2021-06-26T03:38:20.000Z</time>
      </trkpt>
      <trkpt lat="45.19765" lon="5.72905">
        <ele>332</ele>
        <time>2021-06-26T03:38:23.000Z</time>
      </trkpt>
      <trkpt lat="45.1977" lon="5.72905">
        <ele>332.60000610352</ele>
        <time>2021-06-26T03:38:25.000Z</time>
      </trkpt>
      <trkpt lat="45.19774" lon="5.72906">
        <ele>332.60000610352</ele>
        <time>2021-06-26T03:38:27.000Z</time>
      </trkpt>
      <trkpt lat="45.19775" lon="5.72907">
        <ele>332.60000610352</ele>
        <time>2021-06-26T03:38:28.000Z</time>
      </trkpt>
      <trkpt lat="45.19776" lon="5.72909">
        <ele>333</ele>
        <time>2021-06-26T03:38:29.000Z</time>
      </trkpt>
      <trkpt lat="45.19777" lon="5.72911">
        <ele>333.20001220703</ele>
        <time>2021-06-26T03:38:30.000Z</time>
      </trkpt>
      <trkpt lat="45.19782" lon="5.7291">
        <ele>334</ele>
        <time>2021-06-26T03:38:33.000Z</time>
      </trkpt>
      <trkpt lat="45.19782" lon="5.72909">
        <ele>334.20001220703</ele>
        <time>2021-06-26T03:38:34.000Z</time>
      </trkpt>
      <trkpt lat="45.19782" lon="5.72909">
        <ele>334.20001220703</ele>
        <time>2021-06-26T03:38:35.000Z</time>
      </trkpt>
      <trkpt lat="45.1978" lon="5.72912">
        <ele>335.20001220703</ele>
        <time>2021-06-26T03:38:37.000Z</time>
      </trkpt>
      <trkpt lat="45.19775" lon="5.72907">
        <ele>336.39999389648</ele>
        <time>2021-06-26T03:38:42.000Z</time>
      </trkpt>
      <trkpt lat="45.19771" lon="5.72905">
        <ele>336.60000610352</ele>
        <time>2021-06-26T03:38:45.000Z</time>
      </trkpt>
      <trkpt lat="45.19768" lon="5.72906">
        <ele>337.39999389648</ele>
        <time>2021-06-26T03:38:47.000Z</time>
      </trkpt>
      <trkpt lat="45.19767" lon="5.72905">
        <ele>337.79998779297</ele>
        <time>2021-06-26T03:38:48.000Z</time>
      </trkpt>
      <trkpt lat="45.19766" lon="5.72902">
        <ele>338</ele>
        <time>2021-06-26T03:38:50.000Z</time>
      </trkpt>
      <trkpt lat="45.19763" lon="5.72899">
        <ele>338.79998779297</ele>
        <time>2021-06-26T03:38:53.000Z</time>
      </trkpt>
      <trkpt lat="45.19762" lon="5.72894">
        <ele>339</ele>
        <time>2021-06-26T03:38:55.000Z</time>
      </trkpt>
      <trkpt lat="45.19758" lon="5.72889">
        <ele>339.79998779297</ele>
        <time>2021-06-26T03:38:58.000Z</time>
      </trkpt>
      <trkpt lat="45.19755" lon="5.72881">
        <ele>340.60000610352</ele>
        <time>2021-06-26T03:39:02.000Z</time>
      </trkpt>
      <trkpt lat="45.19753" lon="5.72879">
        <ele>340.79998779297</ele>
        <time>2021-06-26T03:39:03.000Z</time>
      </trkpt>
      <trkpt lat="45.19752" lon="5.72878">
        <ele>341</ele>
        <time>2021-06-26T03:39:04.000Z</time>
      </trkpt>
      <trkpt lat="45.19748" lon="5.72872">
        <ele>342</ele>
        <time>2021-06-26T03:39:07.000Z</time>
      </trkpt>
      <trkpt lat="45.19744" lon="5.72867">
        <ele>342.60000610352</ele>
        <time>2021-06-26T03:39:11.000Z</time>
      </trkpt>
      <trkpt lat="45.19742" lon="5.72865">
        <ele>343.20001220703</ele>
        <time>2021-06-26T03:39:13.000Z</time>
      </trkpt>
      <trkpt lat="45.19741" lon="5.72857">
        <ele>344</ele>
        <time>2021-06-26T03:39:16.000Z</time>
      </trkpt>
      <trkpt lat="45.19742" lon="5.72855">
        <ele>344.20001220703</ele>
        <time>2021-06-26T03:39:17.000Z</time>
      </trkpt>
      <trkpt lat="45.19745" lon="5.72854">
        <ele>344.79998779297</ele>
        <time>2021-06-26T03:39:20.000Z</time>
      </trkpt>
      <trkpt lat="45.19746" lon="5.72853">
        <ele>344.79998779297</ele>
        <time>2021-06-26T03:39:21.000Z</time>
      </trkpt>
      <trkpt lat="45.19748" lon="5.72855">
        <ele>345.39999389648</ele>
        <time>2021-06-26T03:39:24.000Z</time>
      </trkpt>
      <trkpt lat="45.19754" lon="5.72858">
        <ele>346.20001220703</ele>
        <time>2021-06-26T03:39:28.000Z</time>
      </trkpt>
      <trkpt lat="45.19756" lon="5.72858">
        <ele>346.79998779297</ele>
        <time>2021-06-26T03:39:29.000Z</time>
      </trkpt>
      <trkpt lat="45.19758" lon="5.72858">
        <ele>346.79998779297</ele>
        <time>2021-06-26T03:39:30.000Z</time>
      </trkpt>
      <trkpt lat="45.19759" lon="5.72858">
        <ele>347</ele>
        <time>2021-06-26T03:39:31.000Z</time>
      </trkpt>
      <trkpt lat="45.19761" lon="5.7286">
        <ele>347.39999389648</ele>
        <time>2021-06-26T03:39:33.000Z</time>
      </trkpt>
      <trkpt lat="45.19764" lon="5.72862">
        <ele>347.79998779297</ele>
        <time>2021-06-26T03:39:35.000Z</time>
      </trkpt>
      <trkpt lat="45.19766" lon="5.72865">
        <ele>348.79998779297</ele>
        <time>2021-06-26T03:39:39.000Z</time>
      </trkpt>
      <trkpt lat="45.19768" lon="5.72866">
        <ele>349.20001220703</ele>
        <time>2021-06-26T03:39:40.000Z</time>
      </trkpt>
      <trkpt lat="45.19769" lon="5.72867">
        <ele>349.20001220703</ele>
        <time>2021-06-26T03:39:41.000Z</time>
      </trkpt>
      <trkpt lat="45.19772" lon="5.72869">
        <ele>349.60000610352</ele>
        <time>2021-06-26T03:39:43.000Z</time>
      </trkpt>
      <trkpt lat="45.19773" lon="5.72871">
        <ele>350</ele>
        <time>2021-06-26T03:39:45.000Z</time>
      </trkpt>
      <trkpt lat="45.19774" lon="5.72873">
        <ele>350.60000610352</ele>
        <time>2021-06-26T03:39:46.000Z</time>
      </trkpt>
      <trkpt lat="45.19781" lon="5.72879">
        <ele>351.39999389648</ele>
        <time>2021-06-26T03:39:51.000Z</time>
      </trkpt>
      <trkpt lat="45.19783" lon="5.72879">
        <ele>351.79998779297</ele>
        <time>2021-06-26T03:39:52.000Z</time>
      </trkpt>
      <trkpt lat="45.19788" lon="5.72879">
        <ele>352</ele>
        <time>2021-06-26T03:39:54.000Z</time>
      </trkpt>
      <trkpt lat="45.19791" lon="5.72878">
        <ele>352.39999389648</ele>
        <time>2021-06-26T03:39:56.000Z</time>
      </trkpt>
      <trkpt lat="45.19792" lon="5.72877">
        <ele>352.79998779297</ele>
        <time>2021-06-26T03:39:57.000Z</time>
      </trkpt>
      <trkpt lat="45.1979" lon="5.72877">
        <ele>353.39999389648</ele>
        <time>2021-06-26T03:40:01.000Z</time>
      </trkpt>
      <trkpt lat="45.19788" lon="5.72876">
        <ele>354</ele>
        <time>2021-06-26T03:40:03.000Z</time>
      </trkpt>
      <trkpt lat="45.19786" lon="5.72877">
        <ele>354.20001220703</ele>
        <time>2021-06-26T03:40:04.000Z</time>
      </trkpt>
      <trkpt lat="45.19785" lon="5.72878">
        <ele>354.39999389648</ele>
        <time>2021-06-26T03:40:05.000Z</time>
      </trkpt>
      <trkpt lat="45.19783" lon="5.72877">
        <ele>355.20001220703</ele>
        <time>2021-06-26T03:40:08.000Z</time>
      </trkpt>
      <trkpt lat="45.19781" lon="5.72877">
        <ele>355.60000610352</ele>
        <time>2021-06-26T03:40:10.000Z</time>
      </trkpt>
      <trkpt lat="45.1978" lon="5.72869">
        <ele>356.20001220703</ele>
        <time>2021-06-26T03:40:13.000Z</time>
      </trkpt>
      <trkpt lat="45.1978" lon="5.72866">
        <ele>356.60000610352</ele>
        <time>2021-06-26T03:40:14.000Z</time>
      </trkpt>
      <trkpt lat="45.19778" lon="5.72857">
        <ele>357.20001220703</ele>
        <time>2021-06-26T03:40:17.000Z</time>
      </trkpt>
      <trkpt lat="45.19776" lon="5.72853">
        <ele>357.20001220703</ele>
        <time>2021-06-26T03:40:19.000Z</time>
      </trkpt>
      <trkpt lat="45.19775" lon="5.72851">
        <ele>358.20001220703</ele>
        <time>2021-06-26T03:40:20.000Z</time>
      </trkpt>
      <trkpt lat="45.19774" lon="5.72849">
        <ele>358.20001220703</ele>
        <time>2021-06-26T03:40:21.000Z</time>
      </trkpt>
      <trkpt lat="45.1977" lon="5.72839">
        <ele>359</ele>
        <time>2021-06-26T03:40:25.000Z</time>
      </trkpt>
      <trkpt lat="45.19769" lon="5.72838">
        <ele>359.39999389648</ele>
        <time>2021-06-26T03:40:26.000Z</time>
      </trkpt>
      <trkpt lat="45.19763" lon="5.72833">
        <ele>360.60000610352</ele>
        <time>2021-06-26T03:40:30.000Z</time>
      </trkpt>
      <trkpt lat="45.1976" lon="5.72831">
        <ele>360.79998779297</ele>
        <time>2021-06-26T03:40:32.000Z</time>
      </trkpt>
      <trkpt lat="45.19754" lon="5.72824">
        <ele>361.60000610352</ele>
        <time>2021-06-26T03:40:36.000Z</time>
      </trkpt>
      <trkpt lat="45.19753" lon="5.72816">
        <ele>362.20001220703</ele>
        <time>2021-06-26T03:40:39.000Z</time>
      </trkpt>
      <trkpt lat="45.19755" lon="5.72814">
        <ele>362.79998779297</ele>
        <time>2021-06-26T03:40:42.000Z</time>
      </trkpt>
      <trkpt lat="45.19759" lon="5.72815">
        <ele>363.79998779297</ele>
        <time>2021-06-26T03:40:46.000Z</time>
      </trkpt>
      <trkpt lat="45.1976" lon="5.72815">
        <ele>363.79998779297</ele>
        <time>2021-06-26T03:40:47.000Z</time>
      </trkpt>
      <trkpt lat="45.19761" lon="5.72815">
        <ele>363.79998779297</ele>
        <time>2021-06-26T03:40:48.000Z</time>
      </trkpt>
      <trkpt lat="45.19766" lon="5.72814">
        <ele>365</ele>
        <time>2021-06-26T03:40:51.000Z</time>
      </trkpt>
      <trkpt lat="45.19768" lon="5.72814">
        <ele>365</ele>
        <time>2021-06-26T03:40:52.000Z</time>
      </trkpt>
      <trkpt lat="45.1977" lon="5.72815">
        <ele>365.60000610352</ele>
        <time>2021-06-26T03:40:54.000Z</time>
      </trkpt>
      <trkpt lat="45.19771" lon="5.72815">
        <ele>365.79998779297</ele>
        <time>2021-06-26T03:40:55.000Z</time>
      </trkpt>
      <trkpt lat="45.19773" lon="5.72815">
        <ele>366.39999389648</ele>
        <time>2021-06-26T03:40:56.000Z</time>
      </trkpt>
      <trkpt lat="45.19777" lon="5.72818">
        <ele>366.60000610352</ele>
        <time>2021-06-26T03:40:59.000Z</time>
      </trkpt>
      <trkpt lat="45.1978" lon="5.72819">
        <ele>367</ele>
        <time>2021-06-26T03:41:01.000Z</time>
      </trkpt>
      <trkpt lat="45.19785" lon="5.72822">
        <ele>367.60000610352</ele>
        <time>2021-06-26T03:41:04.000Z</time>
      </trkpt>
      <trkpt lat="45.19788" lon="5.72825">
        <ele>367.79998779297</ele>
        <time>2021-06-26T03:41:06.000Z</time>
      </trkpt>
      <trkpt lat="45.19789" lon="5.72827">
        <ele>368.60000610352</ele>
        <time>2021-06-26T03:41:07.000Z</time>
      </trkpt>
      <trkpt lat="45.1979" lon="5.72829">
        <ele>368.79998779297</ele>
        <time>2021-06-26T03:41:08.000Z</time>
      </trkpt>
      <trkpt lat="45.19798" lon="5.72831">
        <ele>369.79998779297</ele>
        <time>2021-06-26T03:41:12.000Z</time>
      </trkpt>
      <trkpt lat="45.19806" lon="5.7284">
        <ele>371</ele>
        <time>2021-06-26T03:41:18.000Z</time>
      </trkpt>
      <trkpt lat="45.19808" lon="5.7284">
        <ele>371</ele>
        <time>2021-06-26T03:41:19.000Z</time>
      </trkpt>
      <trkpt lat="45.1981" lon="5.7284">
        <ele>371</ele>
        <time>2021-06-26T03:41:20.000Z</time>
      </trkpt>
      <trkpt lat="45.19813" lon="5.72836">
        <ele>371.60000610352</ele>
        <time>2021-06-26T03:41:22.000Z</time>
      </trkpt>
      <trkpt lat="45.19813" lon="5.72835">
        <ele>371.60000610352</ele>
        <time>2021-06-26T03:41:23.000Z</time>
      </trkpt>
      <trkpt lat="45.19807" lon="5.72832">
        <ele>372.39999389648</ele>
        <time>2021-06-26T03:41:27.000Z</time>
      </trkpt>
      <trkpt lat="45.19806" lon="5.72831">
        <ele>372.79998779297</ele>
        <time>2021-06-26T03:41:28.000Z</time>
      </trkpt>
      <trkpt lat="45.19802" lon="5.72829">
        <ele>372.79998779297</ele>
        <time>2021-06-26T03:41:30.000Z</time>
      </trkpt>
      <trkpt lat="45.19798" lon="5.72827">
        <ele>373.39999389648</ele>
        <time>2021-06-26T03:41:33.000Z</time>
      </trkpt>
      <trkpt lat="45.19795" lon="5.72826">
        <ele>373.39999389648</ele>
        <time>2021-06-26T03:41:35.000Z</time>
      </trkpt>
      <trkpt lat="45.19794" lon="5.72824">
        <ele>373.79998779297</ele>
        <time>2021-06-26T03:41:36.000Z</time>
      </trkpt>
      <trkpt lat="45.19792" lon="5.72823">
        <ele>374</ele>
        <time>2021-06-26T03:41:37.000Z</time>
      </trkpt>
      <trkpt lat="45.19791" lon="5.72823">
        <ele>374</ele>
        <time>2021-06-26T03:41:38.000Z</time>
      </trkpt>
      <trkpt lat="45.19788" lon="5.72822">
        <ele>374.39999389648</ele>
        <time>2021-06-26T03:41:40.000Z</time>
      </trkpt>
      <trkpt lat="45.19788" lon="5.72816">
        <ele>374.60000610352</ele>
        <time>2021-06-26T03:41:42.000Z</time>
      </trkpt>
      <trkpt lat="45.1979" lon="5.72813">
        <ele>374.79998779297</ele>
        <time>2021-06-26T03:41:44.000Z</time>
      </trkpt>
      <trkpt lat="45.19792" lon="5.72813">
        <ele>375</ele>
        <time>2021-06-26T03:41:45.000Z</time>
      </trkpt>
      <trkpt lat="45.19794" lon="5.72814">
        <ele>375</ele>
        <time>2021-06-26T03:41:46.000Z</time>
      </trkpt>
      <trkpt lat="45.19799" lon="5.72817">
        <ele>376</ele>
        <time>2021-06-26T03:41:49.000Z</time>
      </trkpt>
      <trkpt lat="45.19804" lon="5.72821">
        <ele>376.39999389648</ele>
        <time>2021-06-26T03:41:52.000Z</time>
      </trkpt>
      <trkpt lat="45.19808" lon="5.72821">
        <ele>376.60000610352</ele>
        <time>2021-06-26T03:41:54.000Z</time>
      </trkpt>
      <trkpt lat="45.19811" lon="5.72821">
        <ele>377.79998779297</ele>
        <time>2021-06-26T03:41:56.000Z</time>
      </trkpt>
      <trkpt lat="45.19813" lon="5.7282">
        <ele>377.79998779297</ele>
        <time>2021-06-26T03:41:57.000Z</time>
      </trkpt>
      <trkpt lat="45.19814" lon="5.72821">
        <ele>378</ele>
        <time>2021-06-26T03:41:58.000Z</time>
      </trkpt>
      <trkpt lat="45.19825" lon="5.72825">
        <ele>378.79998779297</ele>
        <time>2021-06-26T03:42:03.000Z</time>
      </trkpt>
      <trkpt lat="45.19827" lon="5.72826">
        <ele>378.79998779297</ele>
        <time>2021-06-26T03:42:04.000Z</time>
      </trkpt>
      <trkpt lat="45.1983" lon="5.72826">
        <ele>379.79998779297</ele>
        <time>2021-06-26T03:42:06.000Z</time>
      </trkpt>
      <trkpt lat="45.19834" lon="5.72824">
        <ele>380.39999389648</ele>
        <time>2021-06-26T03:42:09.000Z</time>
      </trkpt>
      <trkpt lat="45.19833" lon="5.72824">
        <ele>380.39999389648</ele>
        <time>2021-06-26T03:42:10.000Z</time>
      </trkpt>
      <trkpt lat="45.19828" lon="5.72823">
        <ele>381</ele>
        <time>2021-06-26T03:42:13.000Z</time>
      </trkpt>
      <trkpt lat="45.19825" lon="5.72822">
        <ele>381.20001220703</ele>
        <time>2021-06-26T03:42:15.000Z</time>
      </trkpt>
      <trkpt lat="45.19822" lon="5.7282">
        <ele>381.79998779297</ele>
        <time>2021-06-26T03:42:17.000Z</time>
      </trkpt>
      <trkpt lat="45.1982" lon="5.7282">
        <ele>382</ele>
        <time>2021-06-26T03:42:18.000Z</time>
      </trkpt>
      <trkpt lat="45.19815" lon="5.72817">
        <ele>382.20001220703</ele>
        <time>2021-06-26T03:42:21.000Z</time>
      </trkpt>
      <trkpt lat="45.19815" lon="5.72815">
        <ele>382.39999389648</ele>
        <time>2021-06-26T03:42:22.000Z</time>
      </trkpt>
      <trkpt lat="45.19815" lon="5.72814">
        <ele>383.20001220703</ele>
        <time>2021-06-26T03:42:24.000Z</time>
      </trkpt>
      <trkpt lat="45.19816" lon="5.72814">
        <ele>383.20001220703</ele>
        <time>2021-06-26T03:42:25.000Z</time>
      </trkpt>
      <trkpt lat="45.19817" lon="5.72814">
        <ele>383.79998779297</ele>
        <time>2021-06-26T03:42:26.000Z</time>
      </trkpt>
      <trkpt lat="45.19823" lon="5.72817">
        <ele>385</ele>
        <time>2021-06-26T03:42:30.000Z</time>
      </trkpt>
      <trkpt lat="45.19827" lon="5.72818">
        <ele>385</ele>
        <time>2021-06-26T03:42:32.000Z</time>
      </trkpt>
      <trkpt lat="45.19834" lon="5.72819">
        <ele>385.39999389648</ele>
        <time>2021-06-26T03:42:35.000Z</time>
      </trkpt>
      <trkpt lat="45.19838" lon="5.7282">
        <ele>386</ele>
        <time>2021-06-26T03:42:37.000Z</time>
      </trkpt>
      <trkpt lat="45.19839" lon="5.72822">
        <ele>386</ele>
        <time>2021-06-26T03:42:38.000Z</time>
      </trkpt>
      <trkpt lat="45.19841" lon="5.72822">
        <ele>386.20001220703</ele>
        <time>2021-06-26T03:42:39.000Z</time>
      </trkpt>
      <trkpt lat="45.19844" lon="5.72822">
        <ele>386.60000610352</ele>
        <time>2021-06-26T03:42:41.000Z</time>
      </trkpt>
      <trkpt lat="45.19844" lon="5.72821">
        <ele>386.79998779297</ele>
        <time>2021-06-26T03:42:42.000Z</time>
      </trkpt>
      <trkpt lat="45.19842" lon="5.7282">
        <ele>387</ele>
        <time>2021-06-26T03:42:44.000Z</time>
      </trkpt>
      <trkpt lat="45.19839" lon="5.7282">
        <ele>387.39999389648</ele>
        <time>2021-06-26T03:42:46.000Z</time>
      </trkpt>
      <trkpt lat="45.19834" lon="5.72819">
        <ele>388.20001220703</ele>
        <time>2021-06-26T03:42:49.000Z</time>
      </trkpt>
      <trkpt lat="45.19828" lon="5.72814">
        <ele>389</ele>
        <time>2021-06-26T03:42:53.000Z</time>
      </trkpt>
      <trkpt lat="45.19826" lon="5.72813">
        <ele>389</ele>
        <time>2021-06-26T03:42:54.000Z</time>
      </trkpt>
      <trkpt lat="45.19825" lon="5.72812">
        <ele>389.60000610352</ele>
        <time>2021-06-26T03:42:55.000Z</time>
      </trkpt>
      <trkpt lat="45.19822" lon="5.72807">
        <ele>390</ele>
        <time>2021-06-26T03:42:57.000Z</time>
      </trkpt>
      <trkpt lat="45.19818" lon="5.72803">
        <ele>390.79998779297</ele>
        <time>2021-06-26T03:43:00.000Z</time>
      </trkpt>
      <trkpt lat="45.19813" lon="5.728">
        <ele>391.79998779297</ele>
        <time>2021-06-26T03:43:03.000Z</time>
      </trkpt>
      <trkpt lat="45.19812" lon="5.72798">
        <ele>392</ele>
        <time>2021-06-26T03:43:04.000Z</time>
      </trkpt>
      <trkpt lat="45.19809" lon="5.72795">
        <ele>392.20001220703</ele>
        <time>2021-06-26T03:43:06.000Z</time>
      </trkpt>
      <trkpt lat="45.19805" lon="5.72795">
        <ele>392.79998779297</ele>
        <time>2021-06-26T03:43:08.000Z</time>
      </trkpt>
      <trkpt lat="45.19802" lon="5.72793">
        <ele>393</ele>
        <time>2021-06-26T03:43:10.000Z</time>
      </trkpt>
      <trkpt lat="45.19798" lon="5.72791">
        <ele>393.39999389648</ele>
        <time>2021-06-26T03:43:12.000Z</time>
      </trkpt>
      <trkpt lat="45.19796" lon="5.72785">
        <ele>393.60000610352</ele>
        <time>2021-06-26T03:43:14.000Z</time>
      </trkpt>
      <trkpt lat="45.19796" lon="5.72781">
        <ele>394.20001220703</ele>
        <time>2021-06-26T03:43:16.000Z</time>
      </trkpt>
      <trkpt lat="45.19805" lon="5.72774">
        <ele>395.20001220703</ele>
        <time>2021-06-26T03:43:21.000Z</time>
      </trkpt>
      <trkpt lat="45.19806" lon="5.72774">
        <ele>395.39999389648</ele>
        <time>2021-06-26T03:43:22.000Z</time>
      </trkpt>
      <trkpt lat="45.19813" lon="5.72781">
        <ele>396</ele>
        <time>2021-06-26T03:43:27.000Z</time>
      </trkpt>
      <trkpt lat="45.19815" lon="5.72781">
        <ele>396.79998779297</ele>
        <time>2021-06-26T03:43:28.000Z</time>
      </trkpt>
      <trkpt lat="45.19817" lon="5.72783">
        <ele>397</ele>
        <time>2021-06-26T03:43:30.000Z</time>
      </trkpt>
      <trkpt lat="45.19822" lon="5.72786">
        <ele>397.60000610352</ele>
        <time>2021-06-26T03:43:33.000Z</time>
      </trkpt>
      <trkpt lat="45.19824" lon="5.72787">
        <ele>397.79998779297</ele>
        <time>2021-06-26T03:43:34.000Z</time>
      </trkpt>
      <trkpt lat="45.19832" lon="5.7279">
        <ele>398.79998779297</ele>
        <time>2021-06-26T03:43:38.000Z</time>
      </trkpt>
      <trkpt lat="45.19833" lon="5.7279">
        <ele>399</ele>
        <time>2021-06-26T03:43:39.000Z</time>
      </trkpt>
      <trkpt lat="45.19835" lon="5.72791">
        <ele>399.20001220703</ele>
        <time>2021-06-26T03:43:40.000Z</time>
      </trkpt>
      <trkpt lat="45.19838" lon="5.72792">
        <ele>399.39999389648</ele>
        <time>2021-06-26T03:43:41.000Z</time>
      </trkpt>
      <trkpt lat="45.19841" lon="5.72791">
        <ele>400.20001220703</ele>
        <time>2021-06-26T03:43:43.000Z</time>
      </trkpt>
      <trkpt lat="45.19842" lon="5.7279">
        <ele>400.20001220703</ele>
        <time>2021-06-26T03:43:45.000Z</time>
      </trkpt>
      <trkpt lat="45.1984" lon="5.72791">
        <ele>400.79998779297</ele>
        <time>2021-06-26T03:43:47.000Z</time>
      </trkpt>
      <trkpt lat="45.19839" lon="5.72791">
        <ele>400.79998779297</ele>
        <time>2021-06-26T03:43:48.000Z</time>
      </trkpt>
      <trkpt lat="45.19836" lon="5.7279">
        <ele>401.39999389648</ele>
        <time>2021-06-26T03:43:50.000Z</time>
      </trkpt>
      <trkpt lat="45.19832" lon="5.72786">
        <ele>402</ele>
        <time>2021-06-26T03:43:53.000Z</time>
      </trkpt>
      <trkpt lat="45.19829" lon="5.72783">
        <ele>402.79998779297</ele>
        <time>2021-06-26T03:43:55.000Z</time>
      </trkpt>
      <trkpt lat="45.1982" lon="5.72778">
        <ele>404</ele>
        <time>2021-06-26T03:44:00.000Z</time>
      </trkpt>
      <trkpt lat="45.19815" lon="5.72773">
        <ele>405.20001220703</ele>
        <time>2021-06-26T03:44:04.000Z</time>
      </trkpt>
      <trkpt lat="45.19812" lon="5.72769">
        <ele>405.39999389648</ele>
        <time>2021-06-26T03:44:06.000Z</time>
      </trkpt>
      <trkpt lat="45.19808" lon="5.7276">
        <ele>406.39999389648</ele>
        <time>2021-06-26T03:44:10.000Z</time>
      </trkpt>
      <trkpt lat="45.19807" lon="5.72756">
        <ele>406.79998779297</ele>
        <time>2021-06-26T03:44:12.000Z</time>
      </trkpt>
      <trkpt lat="45.198" lon="5.72749">
        <ele>408.20001220703</ele>
        <time>2021-06-26T03:44:17.000Z</time>
      </trkpt>
      <trkpt lat="45.19797" lon="5.72746">
        <ele>408.20001220703</ele>
        <time>2021-06-26T03:44:19.000Z</time>
      </trkpt>
      <trkpt lat="45.19794" lon="5.72744">
        <ele>409</ele>
        <time>2021-06-26T03:44:21.000Z</time>
      </trkpt>
      <trkpt lat="45.19791" lon="5.72742">
        <ele>409.20001220703</ele>
        <time>2021-06-26T03:44:23.000Z</time>
      </trkpt>
      <trkpt lat="45.1979" lon="5.7274">
        <ele>409.60000610352</ele>
        <time>2021-06-26T03:44:24.000Z</time>
      </trkpt>
      <trkpt lat="45.19791" lon="5.72733">
        <ele>409.79998779297</ele>
        <time>2021-06-26T03:44:26.000Z</time>
      </trkpt>
      <trkpt lat="45.19793" lon="5.72731">
        <ele>410.60000610352</ele>
        <time>2021-06-26T03:44:28.000Z</time>
      </trkpt>
      <trkpt lat="45.19794" lon="5.7273">
        <ele>410.60000610352</ele>
        <time>2021-06-26T03:44:29.000Z</time>
      </trkpt>
      <trkpt lat="45.19797" lon="5.72731">
        <ele>411.39999389648</ele>
        <time>2021-06-26T03:44:32.000Z</time>
      </trkpt>
      <trkpt lat="45.198" lon="5.72732">
        <ele>411.79998779297</ele>
        <time>2021-06-26T03:44:34.000Z</time>
      </trkpt>
      <trkpt lat="45.19803" lon="5.72736">
        <ele>412.20001220703</ele>
        <time>2021-06-26T03:44:37.000Z</time>
      </trkpt>
      <trkpt lat="45.19809" lon="5.72738">
        <ele>413.20001220703</ele>
        <time>2021-06-26T03:44:40.000Z</time>
      </trkpt>
      <trkpt lat="45.19815" lon="5.72743">
        <ele>413.20001220703</ele>
        <time>2021-06-26T03:44:43.000Z</time>
      </trkpt>
      <trkpt lat="45.19818" lon="5.72746">
        <ele>413.60000610352</ele>
        <time>2021-06-26T03:44:45.000Z</time>
      </trkpt>
      <trkpt lat="45.19822" lon="5.72747">
        <ele>414.20001220703</ele>
        <time>2021-06-26T03:44:47.000Z</time>
      </trkpt>
      <trkpt lat="45.19826" lon="5.72751">
        <ele>414.20001220703</ele>
        <time>2021-06-26T03:44:49.000Z</time>
      </trkpt>
      <trkpt lat="45.19828" lon="5.72751">
        <ele>415</ele>
        <time>2021-06-26T03:44:50.000Z</time>
      </trkpt>
      <trkpt lat="45.19832" lon="5.72752">
        <ele>415.39999389648</ele>
        <time>2021-06-26T03:44:52.000Z</time>
      </trkpt>
      <trkpt lat="45.19835" lon="5.72757">
        <ele>415.60000610352</ele>
        <time>2021-06-26T03:44:54.000Z</time>
      </trkpt>
      <trkpt lat="45.19841" lon="5.72762">
        <ele>416.39999389648</ele>
        <time>2021-06-26T03:44:58.000Z</time>
      </trkpt>
      <trkpt lat="45.19848" lon="5.72766">
        <ele>417.20001220703</ele>
        <time>2021-06-26T03:45:02.000Z</time>
      </trkpt>
      <trkpt lat="45.19851" lon="5.72763">
        <ele>417.39999389648</ele>
        <time>2021-06-26T03:45:04.000Z</time>
      </trkpt>
      <trkpt lat="45.19851" lon="5.7276">
        <ele>417.39999389648</ele>
        <time>2021-06-26T03:45:05.000Z</time>
      </trkpt>
      <trkpt lat="45.1985" lon="5.72757">
        <ele>417.79998779297</ele>
        <time>2021-06-26T03:45:06.000Z</time>
      </trkpt>
      <trkpt lat="45.1985" lon="5.72755">
        <ele>418</ele>
        <time>2021-06-26T03:45:07.000Z</time>
      </trkpt>
      <trkpt lat="45.19848" lon="5.72753">
        <ele>418.20001220703</ele>
        <time>2021-06-26T03:45:09.000Z</time>
      </trkpt>
      <trkpt lat="45.19847" lon="5.72754">
        <ele>418.39999389648</ele>
        <time>2021-06-26T03:45:10.000Z</time>
      </trkpt>
      <trkpt lat="45.1985" lon="5.72751">
        <ele>419.39999389648</ele>
        <time>2021-06-26T03:45:13.000Z</time>
      </trkpt>
      <trkpt lat="45.19851" lon="5.72751">
        <ele>419.79998779297</ele>
        <time>2021-06-26T03:45:14.000Z</time>
      </trkpt>
      <trkpt lat="45.19852" lon="5.72753">
        <ele>420.20001220703</ele>
        <time>2021-06-26T03:45:16.000Z</time>
      </trkpt>
      <trkpt lat="45.19853" lon="5.72753">
        <ele>421</ele>
        <time>2021-06-26T03:45:17.000Z</time>
      </trkpt>
      <trkpt lat="45.19854" lon="5.72752">
        <ele>421.79998779297</ele>
        <time>2021-06-26T03:45:18.000Z</time>
      </trkpt>
      <trkpt lat="45.19856" lon="5.72752">
        <ele>422.20001220703</ele>
        <time>2021-06-26T03:45:20.000Z</time>
      </trkpt>
      <trkpt lat="45.19858" lon="5.72754">
        <ele>422.60000610352</ele>
        <time>2021-06-26T03:45:22.000Z</time>
      </trkpt>
      <trkpt lat="45.19857" lon="5.72758">
        <ele>423</ele>
        <time>2021-06-26T03:45:24.000Z</time>
      </trkpt>
      <trkpt lat="45.19856" lon="5.72761">
        <ele>423.39999389648</ele>
        <time>2021-06-26T03:45:25.000Z</time>
      </trkpt>
      <trkpt lat="45.19855" lon="5.72761">
        <ele>423.39999389648</ele>
        <time>2021-06-26T03:45:26.000Z</time>
      </trkpt>
      <trkpt lat="45.19855" lon="5.72759">
        <ele>424</ele>
        <time>2021-06-26T03:45:28.000Z</time>
      </trkpt>
      <trkpt lat="45.19882" lon="5.72737">
        <ele>438.39999389648</ele>
        <time>2021-06-26T03:46:10.000Z</time>
      </trkpt>
      <trkpt lat="45.19877" lon="5.72727">
        <ele>438.60000610352</ele>
        <time>2021-06-26T03:46:11.000Z</time>
      </trkpt>
      <trkpt lat="45.19875" lon="5.72725">
        <ele>439.20001220703</ele>
        <time>2021-06-26T03:46:12.000Z</time>
      </trkpt>
      <trkpt lat="45.19876" lon="5.72727">
        <ele>440</ele>
        <time>2021-06-26T03:46:13.000Z</time>
      </trkpt>
      <trkpt lat="45.19876" lon="5.72727">
        <ele>440.60000610352</ele>
        <time>2021-06-26T03:46:16.000Z</time>
      </trkpt>
      <trkpt lat="45.19874" lon="5.72725">
        <ele>441.60000610352</ele>
        <time>2021-06-26T03:46:18.000Z</time>
      </trkpt>
      <trkpt lat="45.19873" lon="5.72719">
        <ele>441.79998779297</ele>
        <time>2021-06-26T03:46:20.000Z</time>
      </trkpt>
      <trkpt lat="45.19873" lon="5.72714">
        <ele>442</ele>
        <time>2021-06-26T03:46:21.000Z</time>
      </trkpt>
      <trkpt lat="45.19873" lon="5.72706">
        <ele>442.60000610352</ele>
        <time>2021-06-26T03:46:23.000Z</time>
      </trkpt>
      <trkpt lat="45.19876" lon="5.72693">
        <ele>442.60000610352</ele>
        <time>2021-06-26T03:46:28.000Z</time>
      </trkpt>
      <trkpt lat="45.19876" lon="5.72692">
        <ele>443.39999389648</ele>
        <time>2021-06-26T03:46:31.000Z</time>
      </trkpt>
      <trkpt lat="45.19875" lon="5.72692">
        <ele>444.20001220703</ele>
        <time>2021-06-26T03:46:32.000Z</time>
      </trkpt>
      <trkpt lat="45.19874" lon="5.72692">
        <ele>444.20001220703</ele>
        <time>2021-06-26T03:46:33.000Z</time>
      </trkpt>
      <trkpt lat="45.19839" lon="5.72722">
        <ele>447</ele>
        <time>2021-06-26T03:46:48.000Z</time>
      </trkpt>
      <trkpt lat="45.19839" lon="5.72716">
        <ele>447</ele>
        <time>2021-06-26T03:46:50.000Z</time>
      </trkpt>
      <trkpt lat="45.1984" lon="5.72712">
        <ele>447.20001220703</ele>
        <time>2021-06-26T03:46:51.000Z</time>
      </trkpt>
      <trkpt lat="45.1984" lon="5.72701">
        <ele>447.20001220703</ele>
        <time>2021-06-26T03:46:54.000Z</time>
      </trkpt>
      <trkpt lat="45.19834" lon="5.72698">
        <ele>446.79998779297</ele>
        <time>2021-06-26T03:46:57.000Z</time>
      </trkpt>
      <trkpt lat="45.19816" lon="5.72686">
        <ele>446.60000610352</ele>
        <time>2021-06-26T03:47:04.000Z</time>
      </trkpt>
      <trkpt lat="45.198" lon="5.72675">
        <ele>446.20001220703</ele>
        <time>2021-06-26T03:47:11.000Z</time>
      </trkpt>
      <trkpt lat="45.19789" lon="5.72665">
        <ele>446</ele>
        <time>2021-06-26T03:47:16.000Z</time>
      </trkpt>
      <trkpt lat="45.19774" lon="5.72648">
        <ele>446.20001220703</ele>
        <time>2021-06-26T03:47:23.000Z</time>
      </trkpt>
      <trkpt lat="45.19771" lon="5.72646">
        <ele>446.20001220703</ele>
        <time>2021-06-26T03:47:24.000Z</time>
      </trkpt>
      <trkpt lat="45.19759" lon="5.72632">
        <ele>446</ele>
        <time>2021-06-26T03:47:30.000Z</time>
      </trkpt>
      <trkpt lat="45.19749" lon="5.72623">
        <ele>446.20001220703</ele>
        <time>2021-06-26T03:47:35.000Z</time>
      </trkpt>
      <trkpt lat="45.19746" lon="5.72622">
        <ele>446.20001220703</ele>
        <time>2021-06-26T03:47:37.000Z</time>
      </trkpt>
      <trkpt lat="45.19744" lon="5.72623">
        <ele>446.20001220703</ele>
        <time>2021-06-26T03:47:38.000Z</time>
      </trkpt>
      <trkpt lat="45.1974" lon="5.72624">
        <ele>446.20001220703</ele>
        <time>2021-06-26T03:47:40.000Z</time>
      </trkpt>
      <trkpt lat="45.19736" lon="5.72621">
        <ele>446.20001220703</ele>
        <time>2021-06-26T03:47:42.000Z</time>
      </trkpt>
      <trkpt lat="45.19735" lon="5.72614">
        <ele>446.39999389648</ele>
        <time>2021-06-26T03:47:44.000Z</time>
      </trkpt>
      <trkpt lat="45.19737" lon="5.72608">
        <ele>446.39999389648</ele>
        <time>2021-06-26T03:47:46.000Z</time>
      </trkpt>
      <trkpt lat="45.19738" lon="5.72606">
        <ele>446.60000610352</ele>
        <time>2021-06-26T03:47:47.000Z</time>
      </trkpt>
      <trkpt lat="45.19742" lon="5.72599">
        <ele>446.39999389648</ele>
        <time>2021-06-26T03:47:50.000Z</time>
      </trkpt>
      <trkpt lat="45.19742" lon="5.72578">
        <ele>446.39999389648</ele>
        <time>2021-06-26T03:47:56.000Z</time>
      </trkpt>
      <trkpt lat="45.19741" lon="5.72558">
        <ele>446.20001220703</ele>
        <time>2021-06-26T03:48:02.000Z</time>
      </trkpt>
      <trkpt lat="45.1974" lon="5.72554">
        <ele>446.20001220703</ele>
        <time>2021-06-26T03:48:03.000Z</time>
      </trkpt>
      <trkpt lat="45.1974" lon="5.72548">
        <ele>446.20001220703</ele>
        <time>2021-06-26T03:48:05.000Z</time>
      </trkpt>
      <trkpt lat="45.1974" lon="5.72534">
        <ele>446.20001220703</ele>
        <time>2021-06-26T03:48:09.000Z</time>
      </trkpt>
      <trkpt lat="45.19738" lon="5.72529">
        <ele>446.39999389648</ele>
        <time>2021-06-26T03:48:12.000Z</time>
      </trkpt>
      <trkpt lat="45.19737" lon="5.72528">
        <ele>446.39999389648</ele>
        <time>2021-06-26T03:48:13.000Z</time>
      </trkpt>
      <trkpt lat="45.1973" lon="5.72524">
        <ele>446.79998779297</ele>
        <time>2021-06-26T03:48:17.000Z</time>
      </trkpt>
      <trkpt lat="45.19729" lon="5.72521">
        <ele>446.79998779297</ele>
        <time>2021-06-26T03:48:18.000Z</time>
      </trkpt>
      <trkpt lat="45.19729" lon="5.72511">
        <ele>446.39999389648</ele>
        <time>2021-06-26T03:48:21.000Z</time>
      </trkpt>
      <trkpt lat="45.1973" lon="5.72508">
        <ele>446</ele>
        <time>2021-06-26T03:48:22.000Z</time>
      </trkpt>
      <trkpt lat="45.19733" lon="5.72503">
        <ele>446</ele>
        <time>2021-06-26T03:48:24.000Z</time>
      </trkpt>
      <trkpt lat="45.19737" lon="5.72504">
        <ele>446.20001220703</ele>
        <time>2021-06-26T03:48:26.000Z</time>
      </trkpt>
      <trkpt lat="45.19743" lon="5.72503">
        <ele>446.39999389648</ele>
        <time>2021-06-26T03:48:29.000Z</time>
      </trkpt>
      <trkpt lat="45.19746" lon="5.72498">
        <ele>446.39999389648</ele>
        <time>2021-06-26T03:48:31.000Z</time>
      </trkpt>
      <trkpt lat="45.19757" lon="5.72476">
        <ele>446.60000610352</ele>
        <time>2021-06-26T03:48:38.000Z</time>
      </trkpt>
      <trkpt lat="45.19759" lon="5.72473">
        <ele>446.39999389648</ele>
        <time>2021-06-26T03:48:39.000Z</time>
      </trkpt>
      <trkpt lat="45.19767" lon="5.72458">
        <ele>446.20001220703</ele>
        <time>2021-06-26T03:48:44.000Z</time>
      </trkpt>
      <trkpt lat="45.19772" lon="5.72449">
        <ele>446.20001220703</ele>
        <time>2021-06-26T03:48:47.000Z</time>
      </trkpt>
      <trkpt lat="45.19774" lon="5.72442">
        <ele>446.20001220703</ele>
        <time>2021-06-26T03:48:49.000Z</time>
      </trkpt>
      <trkpt lat="45.19778" lon="5.72433">
        <ele>446.20001220703</ele>
        <time>2021-06-26T03:48:52.000Z</time>
      </trkpt>
      <trkpt lat="45.1978" lon="5.7243">
        <ele>446.39999389648</ele>
        <time>2021-06-26T03:48:53.000Z</time>
      </trkpt>
      <trkpt lat="45.19788" lon="5.72409">
        <ele>447.20001220703</ele>
        <time>2021-06-26T03:49:00.000Z</time>
      </trkpt>
      <trkpt lat="45.19787" lon="5.72382">
        <ele>447.60000610352</ele>
        <time>2021-06-26T03:49:07.000Z</time>
      </trkpt>
      <trkpt lat="45.1979" lon="5.72362">
        <ele>447.60000610352</ele>
        <time>2021-06-26T03:49:12.000Z</time>
      </trkpt>
      <trkpt lat="45.19792" lon="5.72356">
        <ele>447.79998779297</ele>
        <time>2021-06-26T03:49:14.000Z</time>
      </trkpt>
      <trkpt lat="45.19797" lon="5.72346">
        <ele>447.60000610352</ele>
        <time>2021-06-26T03:49:17.000Z</time>
      </trkpt>
      <trkpt lat="45.19799" lon="5.72335">
        <ele>447.60000610352</ele>
        <time>2021-06-26T03:49:20.000Z</time>
      </trkpt>
      <trkpt lat="45.19802" lon="5.72324">
        <ele>447.60000610352</ele>
        <time>2021-06-26T03:49:23.000Z</time>
      </trkpt>
      <trkpt lat="45.19806" lon="5.72315">
        <ele>447.39999389648</ele>
        <time>2021-06-26T03:49:26.000Z</time>
      </trkpt>
      <trkpt lat="45.19807" lon="5.72308">
        <ele>447.39999389648</ele>
        <time>2021-06-26T03:49:29.000Z</time>
      </trkpt>
      <trkpt lat="45.1981" lon="5.723">
        <ele>447.39999389648</ele>
        <time>2021-06-26T03:49:32.000Z</time>
      </trkpt>
      <trkpt lat="45.19813" lon="5.72292">
        <ele>447.39999389648</ele>
        <time>2021-06-26T03:49:35.000Z</time>
      </trkpt>
      <trkpt lat="45.19815" lon="5.72294">
        <ele>447.39999389648</ele>
        <time>2021-06-26T03:49:38.000Z</time>
      </trkpt>
      <trkpt lat="45.19815" lon="5.72297">
        <ele>447.39999389648</ele>
        <time>2021-06-26T03:49:39.000Z</time>
      </trkpt>
      <trkpt lat="45.19812" lon="5.72306">
        <ele>447.60000610352</ele>
        <time>2021-06-26T03:49:42.000Z</time>
      </trkpt>
      <trkpt lat="45.1981" lon="5.72321">
        <ele>447.39999389648</ele>
        <time>2021-06-26T03:49:46.000Z</time>
      </trkpt>
      <trkpt lat="45.19804" lon="5.72342">
        <ele>447.60000610352</ele>
        <time>2021-06-26T03:49:53.000Z</time>
      </trkpt>
      <trkpt lat="45.19796" lon="5.72357">
        <ele>447.60000610352</ele>
        <time>2021-06-26T03:49:59.000Z</time>
      </trkpt>
      <trkpt lat="45.19796" lon="5.7236">
        <ele>447.60000610352</ele>
        <time>2021-06-26T03:50:00.000Z</time>
      </trkpt>
      <trkpt lat="45.19793" lon="5.72371">
        <ele>447.60000610352</ele>
        <time>2021-06-26T03:50:03.000Z</time>
      </trkpt>
      <trkpt lat="45.19791" lon="5.72389">
        <ele>447.39999389648</ele>
        <time>2021-06-26T03:50:08.000Z</time>
      </trkpt>
      <trkpt lat="45.19791" lon="5.72392">
        <ele>447.20001220703</ele>
        <time>2021-06-26T03:50:09.000Z</time>
      </trkpt>
      <trkpt lat="45.19789" lon="5.72399">
        <ele>447</ele>
        <time>2021-06-26T03:50:12.000Z</time>
      </trkpt>
      <trkpt lat="45.19789" lon="5.72404">
        <ele>446.79998779297</ele>
        <time>2021-06-26T03:50:14.000Z</time>
      </trkpt>
      <trkpt lat="45.19787" lon="5.72411">
        <ele>447.20001220703</ele>
        <time>2021-06-26T03:50:16.000Z</time>
      </trkpt>
      <trkpt lat="45.19785" lon="5.72419">
        <ele>447.20001220703</ele>
        <time>2021-06-26T03:50:18.000Z</time>
      </trkpt>
      <trkpt lat="45.1978" lon="5.72438">
        <ele>447.79998779297</ele>
        <time>2021-06-26T03:50:23.000Z</time>
      </trkpt>
      <trkpt lat="45.19779" lon="5.7244">
        <ele>448</ele>
        <time>2021-06-26T03:50:24.000Z</time>
      </trkpt>
      <trkpt lat="45.19779" lon="5.72443">
        <ele>448</ele>
        <time>2021-06-26T03:50:25.000Z</time>
      </trkpt>
      <trkpt lat="45.19778" lon="5.72453">
        <ele>448.60000610352</ele>
        <time>2021-06-26T03:50:28.000Z</time>
      </trkpt>
      <trkpt lat="45.19771" lon="5.72468">
        <ele>449.20001220703</ele>
        <time>2021-06-26T03:50:33.000Z</time>
      </trkpt>
      <trkpt lat="45.19768" lon="5.72476">
        <ele>449.60000610352</ele>
        <time>2021-06-26T03:50:36.000Z</time>
      </trkpt>
      <trkpt lat="45.19766" lon="5.72486">
        <ele>450.20001220703</ele>
        <time>2021-06-26T03:50:39.000Z</time>
      </trkpt>
      <trkpt lat="45.19766" lon="5.72491">
        <ele>450.20001220703</ele>
        <time>2021-06-26T03:50:41.000Z</time>
      </trkpt>
      <trkpt lat="45.19766" lon="5.725">
        <ele>450.79998779297</ele>
        <time>2021-06-26T03:50:45.000Z</time>
      </trkpt>
      <trkpt lat="45.19766" lon="5.72503">
        <ele>451.39999389648</ele>
        <time>2021-06-26T03:50:46.000Z</time>
      </trkpt>
      <trkpt lat="45.19761" lon="5.72522">
        <ele>452.39999389648</ele>
        <time>2021-06-26T03:50:52.000Z</time>
      </trkpt>
      <trkpt lat="45.19762" lon="5.72529">
        <ele>452.60000610352</ele>
        <time>2021-06-26T03:50:54.000Z</time>
      </trkpt>
      <trkpt lat="45.19763" lon="5.72546">
        <ele>453.60000610352</ele>
        <time>2021-06-26T03:50:58.000Z</time>
      </trkpt>
      <trkpt lat="45.19765" lon="5.72568">
        <ele>455.20001220703</ele>
        <time>2021-06-26T03:51:04.000Z</time>
      </trkpt>
      <trkpt lat="45.19768" lon="5.72572">
        <ele>455.60000610352</ele>
        <time>2021-06-26T03:51:06.000Z</time>
      </trkpt>
      <trkpt lat="45.1977" lon="5.72569">
        <ele>456</ele>
        <time>2021-06-26T03:51:10.000Z</time>
      </trkpt>
      <trkpt lat="45.1977" lon="5.72567">
        <ele>456.20001220703</ele>
        <time>2021-06-26T03:51:11.000Z</time>
      </trkpt>
      <trkpt lat="45.1977" lon="5.72564">
        <ele>456.20001220703</ele>
        <time>2021-06-26T03:51:12.000Z</time>
      </trkpt>
      <trkpt lat="45.1977" lon="5.72556">
        <ele>457.39999389648</ele>
        <time>2021-06-26T03:51:15.000Z</time>
      </trkpt>
      <trkpt lat="45.1977" lon="5.72554">
        <ele>457.39999389648</ele>
        <time>2021-06-26T03:51:16.000Z</time>
      </trkpt>
      <trkpt lat="45.19773" lon="5.7254">
        <ele>458.79998779297</ele>
        <time>2021-06-26T03:51:22.000Z</time>
      </trkpt>
      <trkpt lat="45.19774" lon="5.72536">
        <ele>459</ele>
        <time>2021-06-26T03:51:24.000Z</time>
      </trkpt>
      <trkpt lat="45.19775" lon="5.72533">
        <ele>459.39999389648</ele>
        <time>2021-06-26T03:51:26.000Z</time>
      </trkpt>
      <trkpt lat="45.19776" lon="5.72531">
        <ele>459.39999389648</ele>
        <time>2021-06-26T03:51:27.000Z</time>
      </trkpt>
      <trkpt lat="45.19778" lon="5.72525">
        <ele>460.39999389648</ele>
        <time>2021-06-26T03:51:29.000Z</time>
      </trkpt>
      <trkpt lat="45.19782" lon="5.72519">
        <ele>460.79998779297</ele>
        <time>2021-06-26T03:51:32.000Z</time>
      </trkpt>
      <trkpt lat="45.19783" lon="5.72519">
        <ele>460.79998779297</ele>
        <time>2021-06-26T03:51:33.000Z</time>
      </trkpt>
      <trkpt lat="45.19786" lon="5.72522">
        <ele>461.39999389648</ele>
        <time>2021-06-26T03:51:35.000Z</time>
      </trkpt>
      <trkpt lat="45.19787" lon="5.72524">
        <ele>461.39999389648</ele>
        <time>2021-06-26T03:51:36.000Z</time>
      </trkpt>
      <trkpt lat="45.19787" lon="5.72533">
        <ele>462</ele>
        <time>2021-06-26T03:51:40.000Z</time>
      </trkpt>
      <trkpt lat="45.19788" lon="5.72538">
        <ele>462.20001220703</ele>
        <time>2021-06-26T03:51:42.000Z</time>
      </trkpt>
      <trkpt lat="45.19788" lon="5.72543">
        <ele>462.60000610352</ele>
        <time>2021-06-26T03:51:45.000Z</time>
      </trkpt>
      <trkpt lat="45.19789" lon="5.72551">
        <ele>463.60000610352</ele>
        <time>2021-06-26T03:51:48.000Z</time>
      </trkpt>
      <trkpt lat="45.19789" lon="5.72556">
        <ele>463.79998779297</ele>
        <time>2021-06-26T03:51:50.000Z</time>
      </trkpt>
      <trkpt lat="45.19792" lon="5.72568">
        <ele>464.39999389648</ele>
        <time>2021-06-26T03:51:54.000Z</time>
      </trkpt>
      <trkpt lat="45.19791" lon="5.72578">
        <ele>464.79998779297</ele>
        <time>2021-06-26T03:51:57.000Z</time>
      </trkpt>
      <trkpt lat="45.19792" lon="5.72587">
        <ele>465.60000610352</ele>
        <time>2021-06-26T03:52:00.000Z</time>
      </trkpt>
      <trkpt lat="45.19794" lon="5.72592">
        <ele>466</ele>
        <time>2021-06-26T03:52:02.000Z</time>
      </trkpt>
      <trkpt lat="45.19797" lon="5.72608">
        <ele>466.79998779297</ele>
        <time>2021-06-26T03:52:08.000Z</time>
      </trkpt>
      <trkpt lat="45.198" lon="5.72612">
        <ele>467.20001220703</ele>
        <time>2021-06-26T03:52:10.000Z</time>
      </trkpt>
      <trkpt lat="45.19801" lon="5.7262">
        <ele>468</ele>
        <time>2021-06-26T03:52:13.000Z</time>
      </trkpt>
      <trkpt lat="45.19801" lon="5.72624">
        <ele>468.39999389648</ele>
        <time>2021-06-26T03:52:15.000Z</time>
      </trkpt>
      <trkpt lat="45.19803" lon="5.72632">
        <ele>468.79998779297</ele>
        <time>2021-06-26T03:52:19.000Z</time>
      </trkpt>
      <trkpt lat="45.19804" lon="5.72634">
        <ele>469.60000610352</ele>
        <time>2021-06-26T03:52:21.000Z</time>
      </trkpt>
      <trkpt lat="45.19807" lon="5.72638">
        <ele>469.79998779297</ele>
        <time>2021-06-26T03:52:24.000Z</time>
      </trkpt>
      <trkpt lat="45.19812" lon="5.72642">
        <ele>470.60000610352</ele>
        <time>2021-06-26T03:52:27.000Z</time>
      </trkpt>
      <trkpt lat="45.19812" lon="5.72644">
        <ele>470.79998779297</ele>
        <time>2021-06-26T03:52:28.000Z</time>
      </trkpt>
      <trkpt lat="45.19813" lon="5.72645">
        <ele>471.39999389648</ele>
        <time>2021-06-26T03:52:29.000Z</time>
      </trkpt>
      <trkpt lat="45.19819" lon="5.72653">
        <ele>472</ele>
        <time>2021-06-26T03:52:34.000Z</time>
      </trkpt>
      <trkpt lat="45.19821" lon="5.72655">
        <ele>472.39999389648</ele>
        <time>2021-06-26T03:52:35.000Z</time>
      </trkpt>
      <trkpt lat="45.19827" lon="5.72666">
        <ele>473</ele>
        <time>2021-06-26T03:52:40.000Z</time>
      </trkpt>
      <trkpt lat="45.19829" lon="5.72667">
        <ele>473.39999389648</ele>
        <time>2021-06-26T03:52:41.000Z</time>
      </trkpt>
      <trkpt lat="45.19834" lon="5.72675">
        <ele>473.79998779297</ele>
        <time>2021-06-26T03:52:45.000Z</time>
      </trkpt>
      <trkpt lat="45.19835" lon="5.72676">
        <ele>474</ele>
        <time>2021-06-26T03:52:46.000Z</time>
      </trkpt>
      <trkpt lat="45.19837" lon="5.72676">
        <ele>474.60000610352</ele>
        <time>2021-06-26T03:52:47.000Z</time>
      </trkpt>
      <trkpt lat="45.19843" lon="5.72678">
        <ele>474.79998779297</ele>
        <time>2021-06-26T03:52:50.000Z</time>
      </trkpt>
      <trkpt lat="45.19847" lon="5.72678">
        <ele>475.20001220703</ele>
        <time>2021-06-26T03:52:52.000Z</time>
      </trkpt>
      <trkpt lat="45.19849" lon="5.72675">
        <ele>475.39999389648</ele>
        <time>2021-06-26T03:52:55.000Z</time>
      </trkpt>
      <trkpt lat="45.19847" lon="5.72672">
        <ele>476.20001220703</ele>
        <time>2021-06-26T03:52:57.000Z</time>
      </trkpt>
      <trkpt lat="45.19845" lon="5.7267">
        <ele>476.20001220703</ele>
        <time>2021-06-26T03:52:59.000Z</time>
      </trkpt>
      <trkpt lat="45.1984" lon="5.72665">
        <ele>477.20001220703</ele>
        <time>2021-06-26T03:53:04.000Z</time>
      </trkpt>
      <trkpt lat="45.19837" lon="5.72664">
        <ele>477.39999389648</ele>
        <time>2021-06-26T03:53:06.000Z</time>
      </trkpt>
      <trkpt lat="45.19836" lon="5.7266">
        <ele>478.39999389648</ele>
        <time>2021-06-26T03:53:08.000Z</time>
      </trkpt>
      <trkpt lat="45.19835" lon="5.72654">
        <ele>478.79998779297</ele>
        <time>2021-06-26T03:53:10.000Z</time>
      </trkpt>
      <trkpt lat="45.19834" lon="5.72648">
        <ele>478.79998779297</ele>
        <time>2021-06-26T03:53:12.000Z</time>
      </trkpt>
      <trkpt lat="45.19828" lon="5.72638">
        <ele>480</ele>
        <time>2021-06-26T03:53:17.000Z</time>
      </trkpt>
      <trkpt lat="45.19828" lon="5.72635">
        <ele>480.20001220703</ele>
        <time>2021-06-26T03:53:18.000Z</time>
      </trkpt>
      <trkpt lat="45.19825" lon="5.72625">
        <ele>480.79998779297</ele>
        <time>2021-06-26T03:53:22.000Z</time>
      </trkpt>
      <trkpt lat="45.19822" lon="5.72617">
        <ele>481.20001220703</ele>
        <time>2021-06-26T03:53:26.000Z</time>
      </trkpt>
      <trkpt lat="45.19822" lon="5.72614">
        <ele>481.60000610352</ele>
        <time>2021-06-26T03:53:27.000Z</time>
      </trkpt>
      <trkpt lat="45.19821" lon="5.72611">
        <ele>481.79998779297</ele>
        <time>2021-06-26T03:53:28.000Z</time>
      </trkpt>
      <trkpt lat="45.19819" lon="5.72603">
        <ele>482.39999389648</ele>
        <time>2021-06-26T03:53:31.000Z</time>
      </trkpt>
      <trkpt lat="45.19818" lon="5.72597">
        <ele>483</ele>
        <time>2021-06-26T03:53:33.000Z</time>
      </trkpt>
      <trkpt lat="45.19818" lon="5.72592">
        <ele>483.20001220703</ele>
        <time>2021-06-26T03:53:35.000Z</time>
      </trkpt>
      <trkpt lat="45.19817" lon="5.72588">
        <ele>483.60000610352</ele>
        <time>2021-06-26T03:53:37.000Z</time>
      </trkpt>
      <trkpt lat="45.19816" lon="5.72572">
        <ele>484.79998779297</ele>
        <time>2021-06-26T03:53:43.000Z</time>
      </trkpt>
      <trkpt lat="45.19816" lon="5.72558">
        <ele>485.79998779297</ele>
        <time>2021-06-26T03:53:48.000Z</time>
      </trkpt>
      <trkpt lat="45.19816" lon="5.72549">
        <ele>486</ele>
        <time>2021-06-26T03:53:52.000Z</time>
      </trkpt>
      <trkpt lat="45.19816" lon="5.72544">
        <ele>487</ele>
        <time>2021-06-26T03:53:54.000Z</time>
      </trkpt>
      <trkpt lat="45.19816" lon="5.72533">
        <ele>487.60000610352</ele>
        <time>2021-06-26T03:53:57.000Z</time>
      </trkpt>
      <trkpt lat="45.19817" lon="5.72525">
        <ele>488</ele>
        <time>2021-06-26T03:54:00.000Z</time>
      </trkpt>
      <trkpt lat="45.1982" lon="5.72507">
        <ele>489.39999389648</ele>
        <time>2021-06-26T03:54:06.000Z</time>
      </trkpt>
      <trkpt lat="45.1982" lon="5.72504">
        <ele>489.60000610352</ele>
        <time>2021-06-26T03:54:07.000Z</time>
      </trkpt>
      <trkpt lat="45.19819" lon="5.72487">
        <ele>490.39999389648</ele>
        <time>2021-06-26T03:54:12.000Z</time>
      </trkpt>
      <trkpt lat="45.1982" lon="5.72478">
        <ele>491.60000610352</ele>
        <time>2021-06-26T03:54:15.000Z</time>
      </trkpt>
      <trkpt lat="45.1982" lon="5.72476">
        <ele>491.60000610352</ele>
        <time>2021-06-26T03:54:16.000Z</time>
      </trkpt>
      <trkpt lat="45.19822" lon="5.72461">
        <ele>492.79998779297</ele>
        <time>2021-06-26T03:54:21.000Z</time>
      </trkpt>
      <trkpt lat="45.19824" lon="5.72448">
        <ele>494</ele>
        <time>2021-06-26T03:54:25.000Z</time>
      </trkpt>
      <trkpt lat="45.19824" lon="5.72445">
        <ele>494.20001220703</ele>
        <time>2021-06-26T03:54:26.000Z</time>
      </trkpt>
      <trkpt lat="45.19828" lon="5.7243">
        <ele>495.39999389648</ele>
        <time>2021-06-26T03:54:31.000Z</time>
      </trkpt>
      <trkpt lat="45.1983" lon="5.72428">
        <ele>495.60000610352</ele>
        <time>2021-06-26T03:54:32.000Z</time>
      </trkpt>
      <trkpt lat="45.19834" lon="5.72427">
        <ele>496</ele>
        <time>2021-06-26T03:54:34.000Z</time>
      </trkpt>
      <trkpt lat="45.19838" lon="5.72431">
        <ele>496.20001220703</ele>
        <time>2021-06-26T03:54:36.000Z</time>
      </trkpt>
      <trkpt lat="45.1984" lon="5.72437">
        <ele>496.20001220703</ele>
        <time>2021-06-26T03:54:38.000Z</time>
      </trkpt>
      <trkpt lat="45.1984" lon="5.72441">
        <ele>496.79998779297</ele>
        <time>2021-06-26T03:54:40.000Z</time>
      </trkpt>
      <trkpt lat="45.1984" lon="5.72443">
        <ele>496.79998779297</ele>
        <time>2021-06-26T03:54:41.000Z</time>
      </trkpt>
      <trkpt lat="45.1984" lon="5.72449">
        <ele>497.60000610352</ele>
        <time>2021-06-26T03:54:43.000Z</time>
      </trkpt>
      <trkpt lat="45.19841" lon="5.72453">
        <ele>497.60000610352</ele>
        <time>2021-06-26T03:54:44.000Z</time>
      </trkpt>
      <trkpt lat="45.19842" lon="5.72457">
        <ele>498</ele>
        <time>2021-06-26T03:54:45.000Z</time>
      </trkpt>
      <trkpt lat="45.19846" lon="5.72472">
        <ele>498.39999389648</ele>
        <time>2021-06-26T03:54:50.000Z</time>
      </trkpt>
      <trkpt lat="45.19846" lon="5.72474">
        <ele>499.39999389648</ele>
        <time>2021-06-26T03:54:51.000Z</time>
      </trkpt>
      <trkpt lat="45.19848" lon="5.72487">
        <ele>500</ele>
        <time>2021-06-26T03:54:57.000Z</time>
      </trkpt>
      <trkpt lat="45.19848" lon="5.72492">
        <ele>500.79998779297</ele>
        <time>2021-06-26T03:54:59.000Z</time>
      </trkpt>
      <trkpt lat="45.19848" lon="5.72495">
        <ele>501.20001220703</ele>
        <time>2021-06-26T03:55:00.000Z</time>
      </trkpt>
      <trkpt lat="45.19846" lon="5.72505">
        <ele>501.79998779297</ele>
        <time>2021-06-26T03:55:03.000Z</time>
      </trkpt>
      <trkpt lat="45.19847" lon="5.72516">
        <ele>502</ele>
        <time>2021-06-26T03:55:07.000Z</time>
      </trkpt>
      <trkpt lat="45.1985" lon="5.72525">
        <ele>503</ele>
        <time>2021-06-26T03:55:10.000Z</time>
      </trkpt>
      <trkpt lat="45.19856" lon="5.7254">
        <ele>503.79998779297</ele>
        <time>2021-06-26T03:55:15.000Z</time>
      </trkpt>
      <trkpt lat="45.19856" lon="5.72543">
        <ele>503.79998779297</ele>
        <time>2021-06-26T03:55:16.000Z</time>
      </trkpt>
      <trkpt lat="45.19856" lon="5.72544">
        <ele>504.20001220703</ele>
        <time>2021-06-26T03:55:17.000Z</time>
      </trkpt>
      <trkpt lat="45.19856" lon="5.72544">
        <ele>504.20001220703</ele>
        <time>2021-06-26T03:55:18.000Z</time>
      </trkpt>
      <trkpt lat="45.19857" lon="5.72543">
        <ele>504.20001220703</ele>
        <time>2021-06-26T03:55:19.000Z</time>
      </trkpt>
      <trkpt lat="45.19857" lon="5.72541">
        <ele>504.79998779297</ele>
        <time>2021-06-26T03:55:21.000Z</time>
      </trkpt>
      <trkpt lat="45.19856" lon="5.72534">
        <ele>505.20001220703</ele>
        <time>2021-06-26T03:55:24.000Z</time>
      </trkpt>
      <trkpt lat="45.19854" lon="5.72529">
        <ele>506.20001220703</ele>
        <time>2021-06-26T03:55:26.000Z</time>
      </trkpt>
      <trkpt lat="45.19852" lon="5.72517">
        <ele>506.60000610352</ele>
        <time>2021-06-26T03:55:30.000Z</time>
      </trkpt>
      <trkpt lat="45.1985" lon="5.72508">
        <ele>507.39999389648</ele>
        <time>2021-06-26T03:55:33.000Z</time>
      </trkpt>
      <trkpt lat="45.19849" lon="5.72492">
        <ele>507.79998779297</ele>
        <time>2021-06-26T03:55:38.000Z</time>
      </trkpt>
      <trkpt lat="45.19854" lon="5.72484">
        <ele>508.39999389648</ele>
        <time>2021-06-26T03:55:42.000Z</time>
      </trkpt>
      <trkpt lat="45.19855" lon="5.72483">
        <ele>509.39999389648</ele>
        <time>2021-06-26T03:55:44.000Z</time>
      </trkpt>
      <trkpt lat="45.19856" lon="5.72482">
        <ele>511</ele>
        <time>2021-06-26T03:55:47.000Z</time>
      </trkpt>
      <trkpt lat="45.19858" lon="5.7248">
        <ele>511.79998779297</ele>
        <time>2021-06-26T03:55:50.000Z</time>
      </trkpt>
      <trkpt lat="45.19858" lon="5.72479">
        <ele>513.20001220703</ele>
        <time>2021-06-26T03:55:51.000Z</time>
      </trkpt>
      <trkpt lat="45.19859" lon="5.72479">
        <ele>513.20001220703</ele>
        <time>2021-06-26T03:55:52.000Z</time>
      </trkpt>
      <trkpt lat="45.19863" lon="5.72477">
        <ele>514.20001220703</ele>
        <time>2021-06-26T03:55:55.000Z</time>
      </trkpt>
      <trkpt lat="45.19864" lon="5.72476">
        <ele>514.40002441406</ele>
        <time>2021-06-26T03:55:57.000Z</time>
      </trkpt>
      <trkpt lat="45.19866" lon="5.72473">
        <ele>516</ele>
        <time>2021-06-26T03:56:00.000Z</time>
      </trkpt>
      <trkpt lat="45.19869" lon="5.72472">
        <ele>518.20001220703</ele>
        <time>2021-06-26T03:56:04.000Z</time>
      </trkpt>
      <trkpt lat="45.19869" lon="5.72474">
        <ele>518.20001220703</ele>
        <time>2021-06-26T03:56:05.000Z</time>
      </trkpt>
      <trkpt lat="45.1987" lon="5.72477">
        <ele>518.20001220703</ele>
        <time>2021-06-26T03:56:06.000Z</time>
      </trkpt>
      <trkpt lat="45.19874" lon="5.72488">
        <ele>518.20001220703</ele>
        <time>2021-06-26T03:56:09.000Z</time>
      </trkpt>
      <trkpt lat="45.1988" lon="5.72509">
        <ele>518.40002441406</ele>
        <time>2021-06-26T03:56:16.000Z</time>
      </trkpt>
      <trkpt lat="45.19883" lon="5.72519">
        <ele>518.40002441406</ele>
        <time>2021-06-26T03:56:19.000Z</time>
      </trkpt>
      <trkpt lat="45.19886" lon="5.72528">
        <ele>519.59997558594</ele>
        <time>2021-06-26T03:56:24.000Z</time>
      </trkpt>
      <trkpt lat="45.19887" lon="5.7253">
        <ele>520.40002441406</ele>
        <time>2021-06-26T03:56:26.000Z</time>
      </trkpt>
      <trkpt lat="45.19888" lon="5.72532">
        <ele>520.79998779297</ele>
        <time>2021-06-26T03:56:27.000Z</time>
      </trkpt>
      <trkpt lat="45.19888" lon="5.72536">
        <ele>522.40002441406</ele>
        <time>2021-06-26T03:56:31.000Z</time>
      </trkpt>
      <trkpt lat="45.19887" lon="5.72538">
        <ele>522.79998779297</ele>
        <time>2021-06-26T03:56:32.000Z</time>
      </trkpt>
      <trkpt lat="45.19886" lon="5.7254">
        <ele>523</ele>
        <time>2021-06-26T03:56:33.000Z</time>
      </trkpt>
      <trkpt lat="45.19884" lon="5.72542">
        <ele>523.59997558594</ele>
        <time>2021-06-26T03:56:34.000Z</time>
      </trkpt>
      <trkpt lat="45.19883" lon="5.72543">
        <ele>523.59997558594</ele>
        <time>2021-06-26T03:56:35.000Z</time>
      </trkpt>
      <trkpt lat="45.1988" lon="5.72544">
        <ele>523.59997558594</ele>
        <time>2021-06-26T03:56:36.000Z</time>
      </trkpt>
      <trkpt lat="45.19875" lon="5.72542">
        <ele>523.79998779297</ele>
        <time>2021-06-26T03:56:38.000Z</time>
      </trkpt>
      <trkpt lat="45.19872" lon="5.72537">
        <ele>524</ele>
        <time>2021-06-26T03:56:40.000Z</time>
      </trkpt>
      <trkpt lat="45.1987" lon="5.72526">
        <ele>524</ele>
        <time>2021-06-26T03:56:43.000Z</time>
      </trkpt>
      <trkpt lat="45.1987" lon="5.72523">
        <ele>523.79998779297</ele>
        <time>2021-06-26T03:56:44.000Z</time>
      </trkpt>
      <trkpt lat="45.19868" lon="5.72513">
        <ele>523.79998779297</ele>
        <time>2021-06-26T03:56:47.000Z</time>
      </trkpt>
      <trkpt lat="45.19868" lon="5.725">
        <ele>524</ele>
        <time>2021-06-26T03:56:52.000Z</time>
      </trkpt>
      <trkpt lat="45.19869" lon="5.725">
        <ele>524</ele>
        <time>2021-06-26T03:56:53.000Z</time>
      </trkpt>
      <trkpt lat="45.19873" lon="5.72509">
        <ele>524</ele>
        <time>2021-06-26T03:56:57.000Z</time>
      </trkpt>
      <trkpt lat="45.19875" lon="5.7253">
        <ele>523.79998779297</ele>
        <time>2021-06-26T03:57:02.000Z</time>
      </trkpt>
      <trkpt lat="45.19875" lon="5.72533">
        <ele>524</ele>
        <time>2021-06-26T03:57:03.000Z</time>
      </trkpt>
      <trkpt lat="45.19877" lon="5.72547">
        <ele>523.79998779297</ele>
        <time>2021-06-26T03:57:07.000Z</time>
      </trkpt>
      <trkpt lat="45.19876" lon="5.72547">
        <ele>523.79998779297</ele>
        <time>2021-06-26T03:57:08.000Z</time>
      </trkpt>
      <trkpt lat="45.19877" lon="5.72545">
        <ele>523.59997558594</ele>
        <time>2021-06-26T03:57:10.000Z</time>
      </trkpt>
      <trkpt lat="45.19877" lon="5.72543">
        <ele>523</ele>
        <time>2021-06-26T03:57:11.000Z</time>
      </trkpt>
      <trkpt lat="45.19878" lon="5.72542">
        <ele>522</ele>
        <time>2021-06-26T03:57:12.000Z</time>
      </trkpt>
      <trkpt lat="45.1988" lon="5.72537">
        <ele>520.79998779297</ele>
        <time>2021-06-26T03:57:15.000Z</time>
      </trkpt>
      <trkpt lat="45.19883" lon="5.72532">
        <ele>519.59997558594</ele>
        <time>2021-06-26T03:57:18.000Z</time>
      </trkpt>
      <trkpt lat="45.19884" lon="5.72533">
        <ele>518.59997558594</ele>
        <time>2021-06-26T03:57:20.000Z</time>
      </trkpt>
      <trkpt lat="45.19887" lon="5.72547">
        <ele>518.59997558594</ele>
        <time>2021-06-26T03:57:25.000Z</time>
      </trkpt>
      <trkpt lat="45.19888" lon="5.72574">
        <ele>518.79998779297</ele>
        <time>2021-06-26T03:57:32.000Z</time>
      </trkpt>
      <trkpt lat="45.19889" lon="5.72575">
        <ele>518.59997558594</ele>
        <time>2021-06-26T03:57:33.000Z</time>
      </trkpt>
      <trkpt lat="45.19891" lon="5.72575">
        <ele>518.79998779297</ele>
        <time>2021-06-26T03:57:35.000Z</time>
      </trkpt>
      <trkpt lat="45.19892" lon="5.72574">
        <ele>518.59997558594</ele>
        <time>2021-06-26T03:57:36.000Z</time>
      </trkpt>
      <trkpt lat="45.19892" lon="5.72572">
        <ele>518.79998779297</ele>
        <time>2021-06-26T03:57:37.000Z</time>
      </trkpt>
      <trkpt lat="45.19892" lon="5.72564">
        <ele>518.59997558594</ele>
        <time>2021-06-26T03:57:39.000Z</time>
      </trkpt>
      <trkpt lat="45.19885" lon="5.7254">
        <ele>518.59997558594</ele>
        <time>2021-06-26T03:57:45.000Z</time>
      </trkpt>
      <trkpt lat="45.19884" lon="5.72536">
        <ele>518.79998779297</ele>
        <time>2021-06-26T03:57:46.000Z</time>
      </trkpt>
      <trkpt lat="45.1988" lon="5.72513">
        <ele>518.79998779297</ele>
        <time>2021-06-26T03:57:52.000Z</time>
      </trkpt>
      <trkpt lat="45.19878" lon="5.72499">
        <ele>518.79998779297</ele>
        <time>2021-06-26T03:57:56.000Z</time>
      </trkpt>
      <trkpt lat="45.19873" lon="5.7248">
        <ele>518.40002441406</ele>
        <time>2021-06-26T03:58:02.000Z</time>
      </trkpt>
      <trkpt lat="45.19873" lon="5.72481">
        <ele>518.20001220703</ele>
        <time>2021-06-26T03:58:04.000Z</time>
      </trkpt>
      <trkpt lat="45.19876" lon="5.72481">
        <ele>518.20001220703</ele>
        <time>2021-06-26T03:58:06.000Z</time>
      </trkpt>
      <trkpt lat="45.19875" lon="5.7248">
        <ele>517.59997558594</ele>
        <time>2021-06-26T03:58:08.000Z</time>
      </trkpt>
      <trkpt lat="45.19872" lon="5.7248">
        <ele>516.20001220703</ele>
        <time>2021-06-26T03:58:10.000Z</time>
      </trkpt>
      <trkpt lat="45.19871" lon="5.72481">
        <ele>515.59997558594</ele>
        <time>2021-06-26T03:58:11.000Z</time>
      </trkpt>
      <trkpt lat="45.19871" lon="5.72483">
        <ele>515.20001220703</ele>
        <time>2021-06-26T03:58:12.000Z</time>
      </trkpt>
      <trkpt lat="45.1987" lon="5.72484">
        <ele>514.59997558594</ele>
        <time>2021-06-26T03:58:13.000Z</time>
      </trkpt>
      <trkpt lat="45.19868" lon="5.72485">
        <ele>514.20001220703</ele>
        <time>2021-06-26T03:58:16.000Z</time>
      </trkpt>
      <trkpt lat="45.19868" lon="5.72486">
        <ele>513.79998779297</ele>
        <time>2021-06-26T03:58:17.000Z</time>
      </trkpt>
      <trkpt lat="45.19867" lon="5.72486">
        <ele>513.40002441406</ele>
        <time>2021-06-26T03:58:18.000Z</time>
      </trkpt>
      <trkpt lat="45.19865" lon="5.72487">
        <ele>512.20001220703</ele>
        <time>2021-06-26T03:58:19.000Z</time>
      </trkpt>
      <trkpt lat="45.19863" lon="5.72487">
        <ele>510.79998779297</ele>
        <time>2021-06-26T03:58:21.000Z</time>
      </trkpt>
      <trkpt lat="45.1986" lon="5.72488">
        <ele>510.20001220703</ele>
        <time>2021-06-26T03:58:23.000Z</time>
      </trkpt>
      <trkpt lat="45.19856" lon="5.72489">
        <ele>508.60000610352</ele>
        <time>2021-06-26T03:58:25.000Z</time>
      </trkpt>
      <trkpt lat="45.19855" lon="5.72488">
        <ele>508.60000610352</ele>
        <time>2021-06-26T03:58:26.000Z</time>
      </trkpt>
      <trkpt lat="45.19852" lon="5.72482">
        <ele>508.39999389648</ele>
        <time>2021-06-26T03:58:28.000Z</time>
      </trkpt>
      <trkpt lat="45.19851" lon="5.72473">
        <ele>508.20001220703</ele>
        <time>2021-06-26T03:58:31.000Z</time>
      </trkpt>
      <trkpt lat="45.19853" lon="5.72472">
        <ele>508.60000610352</ele>
        <time>2021-06-26T03:58:32.000Z</time>
      </trkpt>
      <trkpt lat="45.19855" lon="5.72472">
        <ele>508.39999389648</ele>
        <time>2021-06-26T03:58:34.000Z</time>
      </trkpt>
      <trkpt lat="45.19854" lon="5.72473">
        <ele>508.20001220703</ele>
        <time>2021-06-26T03:58:36.000Z</time>
      </trkpt>
      <trkpt lat="45.19853" lon="5.72473">
        <ele>508.39999389648</ele>
        <time>2021-06-26T03:58:37.000Z</time>
      </trkpt>
      <trkpt lat="45.19852" lon="5.72475">
        <ele>508.20001220703</ele>
        <time>2021-06-26T03:58:40.000Z</time>
      </trkpt>
      <trkpt lat="45.19855" lon="5.72478">
        <ele>508.20001220703</ele>
        <time>2021-06-26T03:58:43.000Z</time>
      </trkpt>
      <trkpt lat="45.19855" lon="5.72478">
        <ele>508.20001220703</ele>
        <time>2021-06-26T03:58:44.000Z</time>
      </trkpt>
      <trkpt lat="45.19857" lon="5.72478">
        <ele>508.20001220703</ele>
        <time>2021-06-26T03:58:46.000Z</time>
      </trkpt>
      <trkpt lat="45.1986" lon="5.72479">
        <ele>508.60000610352</ele>
        <time>2021-06-26T03:58:48.000Z</time>
      </trkpt>
      <trkpt lat="45.19863" lon="5.72478">
        <ele>508.79998779297</ele>
        <time>2021-06-26T03:58:50.000Z</time>
      </trkpt>
      <trkpt lat="45.19866" lon="5.72476">
        <ele>508.79998779297</ele>
        <time>2021-06-26T03:58:52.000Z</time>
      </trkpt>
      <trkpt lat="45.19867" lon="5.72475">
        <ele>508.79998779297</ele>
        <time>2021-06-26T03:58:53.000Z</time>
      </trkpt>
      <trkpt lat="45.19868" lon="5.72474">
        <ele>509</ele>
        <time>2021-06-26T03:58:54.000Z</time>
      </trkpt>
      <trkpt lat="45.19869" lon="5.72472">
        <ele>509.20001220703</ele>
        <time>2021-06-26T03:58:57.000Z</time>
      </trkpt>
      <trkpt lat="45.19868" lon="5.7247">
        <ele>509.20001220703</ele>
        <time>2021-06-26T03:58:58.000Z</time>
      </trkpt>
      <trkpt lat="45.19864" lon="5.72464">
        <ele>508.79998779297</ele>
        <time>2021-06-26T03:59:01.000Z</time>
      </trkpt>
      <trkpt lat="45.19864" lon="5.72462">
        <ele>508.79998779297</ele>
        <time>2021-06-26T03:59:02.000Z</time>
      </trkpt>
      <trkpt lat="45.19865" lon="5.7246">
        <ele>508.79998779297</ele>
        <time>2021-06-26T03:59:05.000Z</time>
      </trkpt>
      <trkpt lat="45.19865" lon="5.7246">
        <ele>509</ele>
        <time>2021-06-26T03:59:06.000Z</time>
      </trkpt>
      <trkpt lat="45.19864" lon="5.72461">
        <ele>509</ele>
        <time>2021-06-26T03:59:08.000Z</time>
      </trkpt>
      <trkpt lat="45.19864" lon="5.72461">
        <ele>509</ele>
        <time>2021-06-26T03:59:10.000Z</time>
      </trkpt>
      <trkpt lat="45.19864" lon="5.72461">
        <ele>509</ele>
        <time>2021-06-26T03:59:11.000Z</time>
      </trkpt>
      <trkpt lat="45.19867" lon="5.72463">
        <ele>509.20001220703</ele>
        <time>2021-06-26T03:59:15.000Z</time>
      </trkpt>
      <trkpt lat="45.19869" lon="5.72466">
        <ele>509.20001220703</ele>
        <time>2021-06-26T03:59:18.000Z</time>
      </trkpt>
      <trkpt lat="45.1987" lon="5.72466">
        <ele>509.79998779297</ele>
        <time>2021-06-26T03:59:19.000Z</time>
      </trkpt>
      <trkpt lat="45.19872" lon="5.72467">
        <ele>510.39999389648</ele>
        <time>2021-06-26T03:59:21.000Z</time>
      </trkpt>
      <trkpt lat="45.19872" lon="5.72467">
        <ele>511</ele>
        <time>2021-06-26T03:59:22.000Z</time>
      </trkpt>
      <trkpt lat="45.19872" lon="5.72463">
        <ele>512.40002441406</ele>
        <time>2021-06-26T03:59:25.000Z</time>
      </trkpt>
      <trkpt lat="45.19873" lon="5.7246">
        <ele>513.40002441406</ele>
        <time>2021-06-26T03:59:27.000Z</time>
      </trkpt>
      <trkpt lat="45.19874" lon="5.72455">
        <ele>513.59997558594</ele>
        <time>2021-06-26T03:59:29.000Z</time>
      </trkpt>
      <trkpt lat="45.19874" lon="5.72452">
        <ele>514</ele>
        <time>2021-06-26T03:59:30.000Z</time>
      </trkpt>
      <trkpt lat="45.19875" lon="5.72451">
        <ele>514.40002441406</ele>
        <time>2021-06-26T03:59:31.000Z</time>
      </trkpt>
      <trkpt lat="45.19878" lon="5.7245">
        <ele>515.20001220703</ele>
        <time>2021-06-26T03:59:33.000Z</time>
      </trkpt>
      <trkpt lat="45.1988" lon="5.7245">
        <ele>515.40002441406</ele>
        <time>2021-06-26T03:59:34.000Z</time>
      </trkpt>
      <trkpt lat="45.19884" lon="5.7245">
        <ele>515.40002441406</ele>
        <time>2021-06-26T03:59:36.000Z</time>
      </trkpt>
      <trkpt lat="45.19887" lon="5.72451">
        <ele>515.40002441406</ele>
        <time>2021-06-26T03:59:39.000Z</time>
      </trkpt>
      <trkpt lat="45.19886" lon="5.72451">
        <ele>515.40002441406</ele>
        <time>2021-06-26T03:59:41.000Z</time>
      </trkpt>
      <trkpt lat="45.19886" lon="5.72451">
        <ele>515.40002441406</ele>
        <time>2021-06-26T03:59:42.000Z</time>
      </trkpt>
      <trkpt lat="45.19884" lon="5.72451">
        <ele>515.40002441406</ele>
        <time>2021-06-26T03:59:44.000Z</time>
      </trkpt>
      <trkpt lat="45.19884" lon="5.72452">
        <ele>515.20001220703</ele>
        <time>2021-06-26T03:59:47.000Z</time>
      </trkpt>
      <trkpt lat="45.19883" lon="5.72454">
        <ele>514.59997558594</ele>
        <time>2021-06-26T03:59:50.000Z</time>
      </trkpt>
      <trkpt lat="45.19883" lon="5.72455">
        <ele>514.40002441406</ele>
        <time>2021-06-26T03:59:51.000Z</time>
      </trkpt>
      <trkpt lat="45.19884" lon="5.72457">
        <ele>512.59997558594</ele>
        <time>2021-06-26T03:59:53.000Z</time>
      </trkpt>
      <trkpt lat="45.19884" lon="5.72459">
        <ele>511.20001220703</ele>
        <time>2021-06-26T03:59:56.000Z</time>
      </trkpt>
      <trkpt lat="45.19884" lon="5.72461">
        <ele>510.60000610352</ele>
        <time>2021-06-26T03:59:58.000Z</time>
      </trkpt>
      <trkpt lat="45.19884" lon="5.72463">
        <ele>509.79998779297</ele>
        <time>2021-06-26T03:59:59.000Z</time>
      </trkpt>
      <trkpt lat="45.19882" lon="5.72468">
        <ele>508.79998779297</ele>
        <time>2021-06-26T04:00:03.000Z</time>
      </trkpt>
      <trkpt lat="45.19882" lon="5.7247">
        <ele>508.79998779297</ele>
        <time>2021-06-26T04:00:04.000Z</time>
      </trkpt>
      <trkpt lat="45.19873" lon="5.72478">
        <ele>509.20001220703</ele>
        <time>2021-06-26T04:00:08.000Z</time>
      </trkpt>
      <trkpt lat="45.19872" lon="5.72479">
        <ele>509.39999389648</ele>
        <time>2021-06-26T04:00:09.000Z</time>
      </trkpt>
      <trkpt lat="45.19871" lon="5.72479">
        <ele>510.20001220703</ele>
        <time>2021-06-26T04:00:11.000Z</time>
      </trkpt>
      <trkpt lat="45.19871" lon="5.72479">
        <ele>510.39999389648</ele>
        <time>2021-06-26T04:00:12.000Z</time>
      </trkpt>
      <trkpt lat="45.19872" lon="5.72479">
        <ele>511.20001220703</ele>
        <time>2021-06-26T04:00:14.000Z</time>
      </trkpt>
      <trkpt lat="45.19872" lon="5.72479">
        <ele>511.60000610352</ele>
        <time>2021-06-26T04:00:15.000Z</time>
      </trkpt>
      <trkpt lat="45.19872" lon="5.72478">
        <ele>515.20001220703</ele>
        <time>2021-06-26T04:00:17.000Z</time>
      </trkpt>
      <trkpt lat="45.19871" lon="5.72474">
        <ele>515.40002441406</ele>
        <time>2021-06-26T04:00:21.000Z</time>
      </trkpt>
      <trkpt lat="45.19866" lon="5.72459">
        <ele>515.40002441406</ele>
        <time>2021-06-26T04:00:25.000Z</time>
      </trkpt>
      <trkpt lat="45.19862" lon="5.72451">
        <ele>515.40002441406</ele>
        <time>2021-06-26T04:00:27.000Z</time>
      </trkpt>
      <trkpt lat="45.19858" lon="5.72439">
        <ele>515.40002441406</ele>
        <time>2021-06-26T04:00:31.000Z</time>
      </trkpt>
      <trkpt lat="45.19858" lon="5.72437">
        <ele>515.40002441406</ele>
        <time>2021-06-26T04:00:33.000Z</time>
      </trkpt>
      <trkpt lat="45.19859" lon="5.72433">
        <ele>515.40002441406</ele>
        <time>2021-06-26T04:00:37.000Z</time>
      </trkpt>
      <trkpt lat="45.19859" lon="5.72432">
        <ele>515.40002441406</ele>
        <time>2021-06-26T04:00:38.000Z</time>
      </trkpt>
      <trkpt lat="45.19858" lon="5.72432">
        <ele>515.20001220703</ele>
        <time>2021-06-26T04:00:39.000Z</time>
      </trkpt>
      <trkpt lat="45.19855" lon="5.72426">
        <ele>515.20001220703</ele>
        <time>2021-06-26T04:00:43.000Z</time>
      </trkpt>
      <trkpt lat="45.19855" lon="5.72425">
        <ele>515.20001220703</ele>
        <time>2021-06-26T04:00:44.000Z</time>
      </trkpt>
      <trkpt lat="45.19856" lon="5.72428">
        <ele>515.20001220703</ele>
        <time>2021-06-26T04:00:48.000Z</time>
      </trkpt>
      <trkpt lat="45.19857" lon="5.72429">
        <ele>515.20001220703</ele>
        <time>2021-06-26T04:00:50.000Z</time>
      </trkpt>
      <trkpt lat="45.19857" lon="5.72429">
        <ele>515.20001220703</ele>
        <time>2021-06-26T04:00:53.000Z</time>
      </trkpt>
      <trkpt lat="45.19857" lon="5.72429">
        <ele>515.40002441406</ele>
        <time>2021-06-26T04:01:01.000Z</time>
      </trkpt>
      <trkpt lat="45.19857" lon="5.72429">
        <ele>515.20001220703</ele>
        <time>2021-06-26T04:01:03.000Z</time>
      </trkpt>
      <trkpt lat="45.19857" lon="5.72429">
        <ele>515.20001220703</ele>
        <time>2021-06-26T04:01:06.000Z</time>
      </trkpt>
      <trkpt lat="45.19857" lon="5.72429">
        <ele>515.20001220703</ele>
        <time>2021-06-26T04:01:07.000Z</time>
      </trkpt>
      <trkpt lat="45.19857" lon="5.7243">
        <ele>515.20001220703</ele>
        <time>2021-06-26T04:01:09.000Z</time>
      </trkpt>
      <trkpt lat="45.19858" lon="5.7243">
        <ele>515.40002441406</ele>
        <time>2021-06-26T04:01:12.000Z</time>
      </trkpt>
      <trkpt lat="45.19859" lon="5.7243">
        <ele>515.40002441406</ele>
        <time>2021-06-26T04:01:15.000Z</time>
      </trkpt>
      <trkpt lat="45.1986" lon="5.72431">
        <ele>515.20001220703</ele>
        <time>2021-06-26T04:01:19.000Z</time>
      </trkpt>
      <trkpt lat="45.19861" lon="5.72431">
        <ele>515.20001220703</ele>
        <time>2021-06-26T04:01:22.000Z</time>
      </trkpt>
      <trkpt lat="45.19861" lon="5.72431">
        <ele>515.20001220703</ele>
        <time>2021-06-26T04:01:25.000Z</time>
      </trkpt>
      <trkpt lat="45.19862" lon="5.72431">
        <ele>515.20001220703</ele>
        <time>2021-06-26T04:01:33.000Z</time>
      </trkpt>
      <trkpt lat="45.19862" lon="5.72432">
        <ele>515.20001220703</ele>
        <time>2021-06-26T04:01:51.000Z</time>
      </trkpt>
      <trkpt lat="45.19862" lon="5.72434">
        <ele>515.20001220703</ele>
        <time>2021-06-26T04:01:54.000Z</time>
      </trkpt>
      <trkpt lat="45.19862" lon="5.72435">
        <ele>515.20001220703</ele>
        <time>2021-06-26T04:01:58.000Z</time>
      </trkpt>
      <trkpt lat="45.19862" lon="5.72435">
        <ele>515.20001220703</ele>
        <time>2021-06-26T04:02:11.000Z</time>
      </trkpt>
      <trkpt lat="45.19864" lon="5.72441">
        <ele>515.20001220703</ele>
        <time>2021-06-26T04:02:29.000Z</time>
      </trkpt>
      <trkpt lat="45.19867" lon="5.7246">
        <ele>515.59997558594</ele>
        <time>2021-06-26T04:02:37.000Z</time>
      </trkpt>
      <trkpt lat="45.19866" lon="5.72463">
        <ele>515.59997558594</ele>
        <time>2021-06-26T04:02:39.000Z</time>
      </trkpt>
      <trkpt lat="45.19866" lon="5.72464">
        <ele>515</ele>
        <time>2021-06-26T04:02:41.000Z</time>
      </trkpt>
      <trkpt lat="45.19866" lon="5.72465">
        <ele>514.59997558594</ele>
        <time>2021-06-26T04:02:42.000Z</time>
      </trkpt>
      <trkpt lat="45.19866" lon="5.72466">
        <ele>513.79998779297</ele>
        <time>2021-06-26T04:02:44.000Z</time>
      </trkpt>
      <trkpt lat="45.19866" lon="5.72466">
        <ele>513.79998779297</ele>
        <time>2021-06-26T04:02:46.000Z</time>
      </trkpt>
      <trkpt lat="45.19866" lon="5.72467">
        <ele>513.20001220703</ele>
        <time>2021-06-26T04:02:48.000Z</time>
      </trkpt>
      <trkpt lat="45.19866" lon="5.72467">
        <ele>512.40002441406</ele>
        <time>2021-06-26T04:02:49.000Z</time>
      </trkpt>
      <trkpt lat="45.19867" lon="5.72467">
        <ele>512.20001220703</ele>
        <time>2021-06-26T04:02:50.000Z</time>
      </trkpt>
      <trkpt lat="45.19869" lon="5.72468">
        <ele>511.39999389648</ele>
        <time>2021-06-26T04:02:53.000Z</time>
      </trkpt>
      <trkpt lat="45.19871" lon="5.72468">
        <ele>511.39999389648</ele>
        <time>2021-06-26T04:02:54.000Z</time>
      </trkpt>
      <trkpt lat="45.19874" lon="5.72467">
        <ele>511.20001220703</ele>
        <time>2021-06-26T04:02:57.000Z</time>
      </trkpt>
      <trkpt lat="45.19879" lon="5.72466">
        <ele>511.20001220703</ele>
        <time>2021-06-26T04:02:59.000Z</time>
      </trkpt>
      <trkpt lat="45.19883" lon="5.72462">
        <ele>511.20001220703</ele>
        <time>2021-06-26T04:03:01.000Z</time>
      </trkpt>
      <trkpt lat="45.19882" lon="5.72459">
        <ele>511.20001220703</ele>
        <time>2021-06-26T04:03:02.000Z</time>
      </trkpt>
      <trkpt lat="45.19882" lon="5.72453">
        <ele>511</ele>
        <time>2021-06-26T04:03:05.000Z</time>
      </trkpt>
      <trkpt lat="45.19883" lon="5.72447">
        <ele>511</ele>
        <time>2021-06-26T04:03:07.000Z</time>
      </trkpt>
      <trkpt lat="45.19884" lon="5.72442">
        <ele>511</ele>
        <time>2021-06-26T04:03:08.000Z</time>
      </trkpt>
      <trkpt lat="45.1989" lon="5.72434">
        <ele>509.79998779297</ele>
        <time>2021-06-26T04:03:11.000Z</time>
      </trkpt>
      <trkpt lat="45.19893" lon="5.72434">
        <ele>509.39999389648</ele>
        <time>2021-06-26T04:03:12.000Z</time>
      </trkpt>
      <trkpt lat="45.19902" lon="5.72431">
        <ele>509</ele>
        <time>2021-06-26T04:03:15.000Z</time>
      </trkpt>
      <trkpt lat="45.19908" lon="5.72429">
        <ele>508</ele>
        <time>2021-06-26T04:03:17.000Z</time>
      </trkpt>
      <trkpt lat="45.19915" lon="5.72428">
        <ele>507.79998779297</ele>
        <time>2021-06-26T04:03:19.000Z</time>
      </trkpt>
      <trkpt lat="45.1992" lon="5.72429">
        <ele>507.79998779297</ele>
        <time>2021-06-26T04:03:20.000Z</time>
      </trkpt>
      <trkpt lat="45.19925" lon="5.72428">
        <ele>507.39999389648</ele>
        <time>2021-06-26T04:03:22.000Z</time>
      </trkpt>
      <trkpt lat="45.19932" lon="5.72425">
        <ele>507.39999389648</ele>
        <time>2021-06-26T04:03:24.000Z</time>
      </trkpt>
      <trkpt lat="45.19941" lon="5.72423">
        <ele>507</ele>
        <time>2021-06-26T04:03:27.000Z</time>
      </trkpt>
      <trkpt lat="45.19947" lon="5.72423">
        <ele>506.79998779297</ele>
        <time>2021-06-26T04:03:29.000Z</time>
      </trkpt>
      <trkpt lat="45.19952" lon="5.72422">
        <ele>506.79998779297</ele>
        <time>2021-06-26T04:03:31.000Z</time>
      </trkpt>
      <trkpt lat="45.19965" lon="5.72421">
        <ele>508</ele>
        <time>2021-06-26T04:03:36.000Z</time>
      </trkpt>
      <trkpt lat="45.1997" lon="5.72421">
        <ele>508.39999389648</ele>
        <time>2021-06-26T04:03:38.000Z</time>
      </trkpt>
      <trkpt lat="45.19977" lon="5.72421">
        <ele>509.20001220703</ele>
        <time>2021-06-26T04:03:41.000Z</time>
      </trkpt>
      <trkpt lat="45.19987" lon="5.72422">
        <ele>510.39999389648</ele>
        <time>2021-06-26T04:03:45.000Z</time>
      </trkpt>
      <trkpt lat="45.1999" lon="5.72422">
        <ele>510.79998779297</ele>
        <time>2021-06-26T04:03:47.000Z</time>
      </trkpt>
      <trkpt lat="45.19997" lon="5.72422">
        <ele>511.60000610352</ele>
        <time>2021-06-26T04:03:50.000Z</time>
      </trkpt>
      <trkpt lat="45.19999" lon="5.72422">
        <ele>511.60000610352</ele>
        <time>2021-06-26T04:03:51.000Z</time>
      </trkpt>
      <trkpt lat="45.20007" lon="5.72423">
        <ele>512.59997558594</ele>
        <time>2021-06-26T04:03:55.000Z</time>
      </trkpt>
      <trkpt lat="45.20009" lon="5.72424">
        <ele>513</ele>
        <time>2021-06-26T04:03:56.000Z</time>
      </trkpt>
      <trkpt lat="45.20011" lon="5.72424">
        <ele>513.20001220703</ele>
        <time>2021-06-26T04:03:57.000Z</time>
      </trkpt>
      <trkpt lat="45.20017" lon="5.72424">
        <ele>514</ele>
        <time>2021-06-26T04:04:00.000Z</time>
      </trkpt>
      <trkpt lat="45.20026" lon="5.72424">
        <ele>514.79998779297</ele>
        <time>2021-06-26T04:04:04.000Z</time>
      </trkpt>
      <trkpt lat="45.20028" lon="5.72424">
        <ele>515.20001220703</ele>
        <time>2021-06-26T04:04:05.000Z</time>
      </trkpt>
      <trkpt lat="45.20043" lon="5.72425">
        <ele>516.20001220703</ele>
        <time>2021-06-26T04:04:13.000Z</time>
      </trkpt>
      <trkpt lat="45.2005" lon="5.72425">
        <ele>517.59997558594</ele>
        <time>2021-06-26T04:04:17.000Z</time>
      </trkpt>
      <trkpt lat="45.20059" lon="5.72425">
        <ele>518.40002441406</ele>
        <time>2021-06-26T04:04:22.000Z</time>
      </trkpt>
      <trkpt lat="45.20061" lon="5.72425">
        <ele>519</ele>
        <time>2021-06-26T04:04:23.000Z</time>
      </trkpt>
      <trkpt lat="45.20062" lon="5.72426">
        <ele>519.20001220703</ele>
        <time>2021-06-26T04:04:24.000Z</time>
      </trkpt>
      <trkpt lat="45.20066" lon="5.72429">
        <ele>519.79998779297</ele>
        <time>2021-06-26T04:04:26.000Z</time>
      </trkpt>
      <trkpt lat="45.20069" lon="5.72432">
        <ele>520.40002441406</ele>
        <time>2021-06-26T04:04:28.000Z</time>
      </trkpt>
      <trkpt lat="45.20073" lon="5.7244">
        <ele>521.59997558594</ele>
        <time>2021-06-26T04:04:32.000Z</time>
      </trkpt>
      <trkpt lat="45.20075" lon="5.72445">
        <ele>521.59997558594</ele>
        <time>2021-06-26T04:04:34.000Z</time>
      </trkpt>
      <trkpt lat="45.20076" lon="5.72451">
        <ele>522.40002441406</ele>
        <time>2021-06-26T04:04:36.000Z</time>
      </trkpt>
      <trkpt lat="45.20078" lon="5.72463">
        <ele>522.79998779297</ele>
        <time>2021-06-26T04:04:40.000Z</time>
      </trkpt>
      <trkpt lat="45.20078" lon="5.72473">
        <ele>523.40002441406</ele>
        <time>2021-06-26T04:04:43.000Z</time>
      </trkpt>
      <trkpt lat="45.20077" lon="5.72488">
        <ele>524</ele>
        <time>2021-06-26T04:04:47.000Z</time>
      </trkpt>
      <trkpt lat="45.20076" lon="5.72498">
        <ele>524</ele>
        <time>2021-06-26T04:04:50.000Z</time>
      </trkpt>
      <trkpt lat="45.20072" lon="5.7252">
        <ele>524.79998779297</ele>
        <time>2021-06-26T04:04:56.000Z</time>
      </trkpt>
      <trkpt lat="45.2008" lon="5.72538">
        <ele>525</ele>
        <time>2021-06-26T04:05:02.000Z</time>
      </trkpt>
      <trkpt lat="45.2009" lon="5.7254">
        <ele>526</ele>
        <time>2021-06-26T04:05:07.000Z</time>
      </trkpt>
      <trkpt lat="45.20092" lon="5.7254">
        <ele>526.20001220703</ele>
        <time>2021-06-26T04:05:08.000Z</time>
      </trkpt>
      <trkpt lat="45.20097" lon="5.72541">
        <ele>527.20001220703</ele>
        <time>2021-06-26T04:05:11.000Z</time>
      </trkpt>
      <trkpt lat="45.20101" lon="5.7254">
        <ele>528.40002441406</ele>
        <time>2021-06-26T04:05:14.000Z</time>
      </trkpt>
      <trkpt lat="45.20105" lon="5.72539">
        <ele>529.40002441406</ele>
        <time>2021-06-26T04:05:17.000Z</time>
      </trkpt>
      <trkpt lat="45.20109" lon="5.72537">
        <ele>530.59997558594</ele>
        <time>2021-06-26T04:05:20.000Z</time>
      </trkpt>
      <trkpt lat="45.20117" lon="5.72538">
        <ele>532</ele>
        <time>2021-06-26T04:05:25.000Z</time>
      </trkpt>
      <trkpt lat="45.20119" lon="5.72538">
        <ele>532.40002441406</ele>
        <time>2021-06-26T04:05:27.000Z</time>
      </trkpt>
      <trkpt lat="45.20122" lon="5.7254">
        <ele>533.40002441406</ele>
        <time>2021-06-26T04:05:29.000Z</time>
      </trkpt>
      <trkpt lat="45.20131" lon="5.72543">
        <ele>534.59997558594</ele>
        <time>2021-06-26T04:05:35.000Z</time>
      </trkpt>
      <trkpt lat="45.20134" lon="5.72546">
        <ele>535.59997558594</ele>
        <time>2021-06-26T04:05:38.000Z</time>
      </trkpt>
      <trkpt lat="45.20139" lon="5.7255">
        <ele>536.79998779297</ele>
        <time>2021-06-26T04:05:44.000Z</time>
      </trkpt>
      <trkpt lat="45.20141" lon="5.7255">
        <ele>537</ele>
        <time>2021-06-26T04:05:45.000Z</time>
      </trkpt>
      <trkpt lat="45.20142" lon="5.7255">
        <ele>537</ele>
        <time>2021-06-26T04:05:46.000Z</time>
      </trkpt>
      <trkpt lat="45.20151" lon="5.72553">
        <ele>537.79998779297</ele>
        <time>2021-06-26T04:05:50.000Z</time>
      </trkpt>
      <trkpt lat="45.20152" lon="5.72553">
        <ele>538</ele>
        <time>2021-06-26T04:05:51.000Z</time>
      </trkpt>
      <trkpt lat="45.20157" lon="5.72555">
        <ele>539</ele>
        <time>2021-06-26T04:05:54.000Z</time>
      </trkpt>
      <trkpt lat="45.20165" lon="5.7256">
        <ele>539.40002441406</ele>
        <time>2021-06-26T04:05:59.000Z</time>
      </trkpt>
      <trkpt lat="45.2017" lon="5.72563">
        <ele>540</ele>
        <time>2021-06-26T04:06:02.000Z</time>
      </trkpt>
      <trkpt lat="45.20174" lon="5.72566">
        <ele>541.20001220703</ele>
        <time>2021-06-26T04:06:05.000Z</time>
      </trkpt>
      <trkpt lat="45.20176" lon="5.72567">
        <ele>541.40002441406</ele>
        <time>2021-06-26T04:06:06.000Z</time>
      </trkpt>
      <trkpt lat="45.2018" lon="5.72569">
        <ele>542</ele>
        <time>2021-06-26T04:06:09.000Z</time>
      </trkpt>
      <trkpt lat="45.20182" lon="5.7257">
        <ele>542</ele>
        <time>2021-06-26T04:06:10.000Z</time>
      </trkpt>
      <trkpt lat="45.20183" lon="5.72571">
        <ele>542.40002441406</ele>
        <time>2021-06-26T04:06:11.000Z</time>
      </trkpt>
      <trkpt lat="45.20185" lon="5.72572">
        <ele>542.59997558594</ele>
        <time>2021-06-26T04:06:12.000Z</time>
      </trkpt>
      <trkpt lat="45.20193" lon="5.72579">
        <ele>544</ele>
        <time>2021-06-26T04:06:18.000Z</time>
      </trkpt>
      <trkpt lat="45.20198" lon="5.72584">
        <ele>544.59997558594</ele>
        <time>2021-06-26T04:06:23.000Z</time>
      </trkpt>
      <trkpt lat="45.202" lon="5.72585">
        <ele>545</ele>
        <time>2021-06-26T04:06:24.000Z</time>
      </trkpt>
      <trkpt lat="45.20201" lon="5.72586">
        <ele>545</ele>
        <time>2021-06-26T04:06:25.000Z</time>
      </trkpt>
      <trkpt lat="45.20203" lon="5.72587">
        <ele>545.79998779297</ele>
        <time>2021-06-26T04:06:27.000Z</time>
      </trkpt>
      <trkpt lat="45.20206" lon="5.72589">
        <ele>546</ele>
        <time>2021-06-26T04:06:29.000Z</time>
      </trkpt>
      <trkpt lat="45.2021" lon="5.72593">
        <ele>547.20001220703</ele>
        <time>2021-06-26T04:06:33.000Z</time>
      </trkpt>
      <trkpt lat="45.20216" lon="5.72597">
        <ele>548</ele>
        <time>2021-06-26T04:06:38.000Z</time>
      </trkpt>
      <trkpt lat="45.20217" lon="5.72597">
        <ele>548.20001220703</ele>
        <time>2021-06-26T04:06:39.000Z</time>
      </trkpt>
      <trkpt lat="45.20218" lon="5.72598">
        <ele>548.59997558594</ele>
        <time>2021-06-26T04:06:40.000Z</time>
      </trkpt>
      <trkpt lat="45.20222" lon="5.726">
        <ele>549.20001220703</ele>
        <time>2021-06-26T04:06:43.000Z</time>
      </trkpt>
      <trkpt lat="45.20226" lon="5.726">
        <ele>550</ele>
        <time>2021-06-26T04:06:47.000Z</time>
      </trkpt>
      <trkpt lat="45.20227" lon="5.726">
        <ele>550.59997558594</ele>
        <time>2021-06-26T04:06:48.000Z</time>
      </trkpt>
      <trkpt lat="45.20235" lon="5.72604">
        <ele>551.79998779297</ele>
        <time>2021-06-26T04:06:54.000Z</time>
      </trkpt>
      <trkpt lat="45.20242" lon="5.72606">
        <ele>553</ele>
        <time>2021-06-26T04:06:58.000Z</time>
      </trkpt>
      <trkpt lat="45.20246" lon="5.72606">
        <ele>553.40002441406</ele>
        <time>2021-06-26T04:07:00.000Z</time>
      </trkpt>
      <trkpt lat="45.20248" lon="5.72606">
        <ele>554.20001220703</ele>
        <time>2021-06-26T04:07:02.000Z</time>
      </trkpt>
      <trkpt lat="45.20255" lon="5.72605">
        <ele>554.79998779297</ele>
        <time>2021-06-26T04:07:06.000Z</time>
      </trkpt>
      <trkpt lat="45.20259" lon="5.72602">
        <ele>555.59997558594</ele>
        <time>2021-06-26T04:07:08.000Z</time>
      </trkpt>
      <trkpt lat="45.2026" lon="5.72602">
        <ele>555.59997558594</ele>
        <time>2021-06-26T04:07:09.000Z</time>
      </trkpt>
      <trkpt lat="45.20264" lon="5.726">
        <ele>556.20001220703</ele>
        <time>2021-06-26T04:07:12.000Z</time>
      </trkpt>
      <trkpt lat="45.20269" lon="5.72602">
        <ele>557</ele>
        <time>2021-06-26T04:07:15.000Z</time>
      </trkpt>
      <trkpt lat="45.20271" lon="5.72602">
        <ele>557.20001220703</ele>
        <time>2021-06-26T04:07:16.000Z</time>
      </trkpt>
      <trkpt lat="45.20273" lon="5.72602">
        <ele>557.59997558594</ele>
        <time>2021-06-26T04:07:17.000Z</time>
      </trkpt>
      <trkpt lat="45.20276" lon="5.72602">
        <ele>558</ele>
        <time>2021-06-26T04:07:19.000Z</time>
      </trkpt>
      <trkpt lat="45.20278" lon="5.72602">
        <ele>558</ele>
        <time>2021-06-26T04:07:20.000Z</time>
      </trkpt>
      <trkpt lat="45.20281" lon="5.72601">
        <ele>558.59997558594</ele>
        <time>2021-06-26T04:07:22.000Z</time>
      </trkpt>
      <trkpt lat="45.20282" lon="5.72602">
        <ele>559</ele>
        <time>2021-06-26T04:07:23.000Z</time>
      </trkpt>
      <trkpt lat="45.20283" lon="5.72603">
        <ele>559.20001220703</ele>
        <time>2021-06-26T04:07:24.000Z</time>
      </trkpt>
      <trkpt lat="45.2029" lon="5.72603">
        <ele>560</ele>
        <time>2021-06-26T04:07:28.000Z</time>
      </trkpt>
      <trkpt lat="45.20292" lon="5.72602">
        <ele>560.40002441406</ele>
        <time>2021-06-26T04:07:29.000Z</time>
      </trkpt>
      <trkpt lat="45.20296" lon="5.72601">
        <ele>560.79998779297</ele>
        <time>2021-06-26T04:07:31.000Z</time>
      </trkpt>
      <trkpt lat="45.20298" lon="5.72602">
        <ele>561.40002441406</ele>
        <time>2021-06-26T04:07:33.000Z</time>
      </trkpt>
      <trkpt lat="45.20299" lon="5.72602">
        <ele>561.59997558594</ele>
        <time>2021-06-26T04:07:34.000Z</time>
      </trkpt>
      <trkpt lat="45.203" lon="5.72601">
        <ele>561.79998779297</ele>
        <time>2021-06-26T04:07:35.000Z</time>
      </trkpt>
      <trkpt lat="45.20305" lon="5.72604">
        <ele>562.20001220703</ele>
        <time>2021-06-26T04:07:38.000Z</time>
      </trkpt>
      <trkpt lat="45.20306" lon="5.72605">
        <ele>562.79998779297</ele>
        <time>2021-06-26T04:07:39.000Z</time>
      </trkpt>
      <trkpt lat="45.20307" lon="5.72607">
        <ele>562.79998779297</ele>
        <time>2021-06-26T04:07:40.000Z</time>
      </trkpt>
      <trkpt lat="45.20309" lon="5.7261">
        <ele>563.40002441406</ele>
        <time>2021-06-26T04:07:42.000Z</time>
      </trkpt>
      <trkpt lat="45.20311" lon="5.72611">
        <ele>563.79998779297</ele>
        <time>2021-06-26T04:07:44.000Z</time>
      </trkpt>
      <trkpt lat="45.20312" lon="5.72611">
        <ele>564.20001220703</ele>
        <time>2021-06-26T04:07:45.000Z</time>
      </trkpt>
      <trkpt lat="45.20314" lon="5.72614">
        <ele>565</ele>
        <time>2021-06-26T04:07:47.000Z</time>
      </trkpt>
      <trkpt lat="45.20315" lon="5.72616">
        <ele>565.20001220703</ele>
        <time>2021-06-26T04:07:48.000Z</time>
      </trkpt>
      <trkpt lat="45.2032" lon="5.72618">
        <ele>565.79998779297</ele>
        <time>2021-06-26T04:07:50.000Z</time>
      </trkpt>
      <trkpt lat="45.20322" lon="5.7262">
        <ele>566</ele>
        <time>2021-06-26T04:07:52.000Z</time>
      </trkpt>
      <trkpt lat="45.20327" lon="5.72622">
        <ele>567</ele>
        <time>2021-06-26T04:07:57.000Z</time>
      </trkpt>
      <trkpt lat="45.20327" lon="5.72623">
        <ele>567.20001220703</ele>
        <time>2021-06-26T04:07:58.000Z</time>
      </trkpt>
      <trkpt lat="45.2033" lon="5.72625">
        <ele>568</ele>
        <time>2021-06-26T04:08:00.000Z</time>
      </trkpt>
      <trkpt lat="45.20333" lon="5.72627">
        <ele>568.40002441406</ele>
        <time>2021-06-26T04:08:02.000Z</time>
      </trkpt>
      <trkpt lat="45.20335" lon="5.72632">
        <ele>569.59997558594</ele>
        <time>2021-06-26T04:08:06.000Z</time>
      </trkpt>
      <trkpt lat="45.20336" lon="5.72633">
        <ele>569.59997558594</ele>
        <time>2021-06-26T04:08:07.000Z</time>
      </trkpt>
      <trkpt lat="45.20338" lon="5.72634">
        <ele>569.59997558594</ele>
        <time>2021-06-26T04:08:08.000Z</time>
      </trkpt>
      <trkpt lat="45.20342" lon="5.72636">
        <ele>570.59997558594</ele>
        <time>2021-06-26T04:08:12.000Z</time>
      </trkpt>
      <trkpt lat="45.20343" lon="5.72637">
        <ele>570.79998779297</ele>
        <time>2021-06-26T04:08:13.000Z</time>
      </trkpt>
      <trkpt lat="45.20344" lon="5.72638">
        <ele>571</ele>
        <time>2021-06-26T04:08:14.000Z</time>
      </trkpt>
      <trkpt lat="45.20347" lon="5.7264">
        <ele>571.79998779297</ele>
        <time>2021-06-26T04:08:16.000Z</time>
      </trkpt>
      <trkpt lat="45.20355" lon="5.72647">
        <ele>572.59997558594</ele>
        <time>2021-06-26T04:08:20.000Z</time>
      </trkpt>
      <trkpt lat="45.20357" lon="5.72648">
        <ele>572.59997558594</ele>
        <time>2021-06-26T04:08:21.000Z</time>
      </trkpt>
      <trkpt lat="45.20359" lon="5.72649">
        <ele>573</ele>
        <time>2021-06-26T04:08:22.000Z</time>
      </trkpt>
      <trkpt lat="45.20363" lon="5.7265">
        <ele>573.40002441406</ele>
        <time>2021-06-26T04:08:24.000Z</time>
      </trkpt>
      <trkpt lat="45.20372" lon="5.72658">
        <ele>574</ele>
        <time>2021-06-26T04:08:28.000Z</time>
      </trkpt>
      <trkpt lat="45.20378" lon="5.72664">
        <ele>574.79998779297</ele>
        <time>2021-06-26T04:08:32.000Z</time>
      </trkpt>
      <trkpt lat="45.20381" lon="5.72667">
        <ele>575</ele>
        <time>2021-06-26T04:08:34.000Z</time>
      </trkpt>
      <trkpt lat="45.20384" lon="5.7267">
        <ele>575.79998779297</ele>
        <time>2021-06-26T04:08:36.000Z</time>
      </trkpt>
      <trkpt lat="45.20386" lon="5.72674">
        <ele>576.20001220703</ele>
        <time>2021-06-26T04:08:38.000Z</time>
      </trkpt>
      <trkpt lat="45.2039" lon="5.72677">
        <ele>576.79998779297</ele>
        <time>2021-06-26T04:08:40.000Z</time>
      </trkpt>
      <trkpt lat="45.20391" lon="5.72679">
        <ele>576.79998779297</ele>
        <time>2021-06-26T04:08:41.000Z</time>
      </trkpt>
      <trkpt lat="45.20393" lon="5.7268">
        <ele>577.40002441406</ele>
        <time>2021-06-26T04:08:42.000Z</time>
      </trkpt>
      <trkpt lat="45.20398" lon="5.72686">
        <ele>578.20001220703</ele>
        <time>2021-06-26T04:08:47.000Z</time>
      </trkpt>
      <trkpt lat="45.20399" lon="5.72688">
        <ele>578.40002441406</ele>
        <time>2021-06-26T04:08:48.000Z</time>
      </trkpt>
      <trkpt lat="45.204" lon="5.72689">
        <ele>578.79998779297</ele>
        <time>2021-06-26T04:08:49.000Z</time>
      </trkpt>
      <trkpt lat="45.20402" lon="5.72691">
        <ele>579.40002441406</ele>
        <time>2021-06-26T04:08:51.000Z</time>
      </trkpt>
      <trkpt lat="45.20406" lon="5.72693">
        <ele>579.79998779297</ele>
        <time>2021-06-26T04:08:53.000Z</time>
      </trkpt>
      <trkpt lat="45.20408" lon="5.72697">
        <ele>580.40002441406</ele>
        <time>2021-06-26T04:08:55.000Z</time>
      </trkpt>
      <trkpt lat="45.2041" lon="5.72701">
        <ele>580.79998779297</ele>
        <time>2021-06-26T04:08:57.000Z</time>
      </trkpt>
      <trkpt lat="45.20412" lon="5.72703">
        <ele>581.20001220703</ele>
        <time>2021-06-26T04:08:59.000Z</time>
      </trkpt>
      <trkpt lat="45.20415" lon="5.72705">
        <ele>581.59997558594</ele>
        <time>2021-06-26T04:09:01.000Z</time>
      </trkpt>
      <trkpt lat="45.20417" lon="5.72705">
        <ele>581.79998779297</ele>
        <time>2021-06-26T04:09:02.000Z</time>
      </trkpt>
      <trkpt lat="45.20419" lon="5.72706">
        <ele>582.59997558594</ele>
        <time>2021-06-26T04:09:04.000Z</time>
      </trkpt>
      <trkpt lat="45.2042" lon="5.72706">
        <ele>582.79998779297</ele>
        <time>2021-06-26T04:09:05.000Z</time>
      </trkpt>
      <trkpt lat="45.20423" lon="5.72709">
        <ele>583.20001220703</ele>
        <time>2021-06-26T04:09:07.000Z</time>
      </trkpt>
      <trkpt lat="45.20426" lon="5.7271">
        <ele>583.79998779297</ele>
        <time>2021-06-26T04:09:09.000Z</time>
      </trkpt>
      <trkpt lat="45.20427" lon="5.72711">
        <ele>584</ele>
        <time>2021-06-26T04:09:10.000Z</time>
      </trkpt>
      <trkpt lat="45.20429" lon="5.72711">
        <ele>584.40002441406</ele>
        <time>2021-06-26T04:09:12.000Z</time>
      </trkpt>
      <trkpt lat="45.20432" lon="5.72714">
        <ele>585</ele>
        <time>2021-06-26T04:09:15.000Z</time>
      </trkpt>
      <trkpt lat="45.20432" lon="5.72714">
        <ele>585</ele>
        <time>2021-06-26T04:09:16.000Z</time>
      </trkpt>
      <trkpt lat="45.20433" lon="5.72714">
        <ele>585.20001220703</ele>
        <time>2021-06-26T04:09:17.000Z</time>
      </trkpt>
      <trkpt lat="45.20436" lon="5.72715">
        <ele>586.20001220703</ele>
        <time>2021-06-26T04:09:20.000Z</time>
      </trkpt>
      <trkpt lat="45.20439" lon="5.72716">
        <ele>586.20001220703</ele>
        <time>2021-06-26T04:09:21.000Z</time>
      </trkpt>
      <trkpt lat="45.20447" lon="5.72716">
        <ele>586.79998779297</ele>
        <time>2021-06-26T04:09:25.000Z</time>
      </trkpt>
      <trkpt lat="45.20451" lon="5.72716">
        <ele>587.20001220703</ele>
        <time>2021-06-26T04:09:27.000Z</time>
      </trkpt>
      <trkpt lat="45.20453" lon="5.72717">
        <ele>587.40002441406</ele>
        <time>2021-06-26T04:09:28.000Z</time>
      </trkpt>
      <trkpt lat="45.20457" lon="5.72718">
        <ele>588</ele>
        <time>2021-06-26T04:09:30.000Z</time>
      </trkpt>
      <trkpt lat="45.20459" lon="5.72719">
        <ele>588.20001220703</ele>
        <time>2021-06-26T04:09:32.000Z</time>
      </trkpt>
      <trkpt lat="45.20461" lon="5.72719">
        <ele>588.20001220703</ele>
        <time>2021-06-26T04:09:33.000Z</time>
      </trkpt>
      <trkpt lat="45.20463" lon="5.72719">
        <ele>588.79998779297</ele>
        <time>2021-06-26T04:09:34.000Z</time>
      </trkpt>
      <trkpt lat="45.20467" lon="5.72722">
        <ele>589.20001220703</ele>
        <time>2021-06-26T04:09:37.000Z</time>
      </trkpt>
      <trkpt lat="45.20472" lon="5.72725">
        <ele>589.59997558594</ele>
        <time>2021-06-26T04:09:40.000Z</time>
      </trkpt>
      <trkpt lat="45.20474" lon="5.72726">
        <ele>589.79998779297</ele>
        <time>2021-06-26T04:09:41.000Z</time>
      </trkpt>
      <trkpt lat="45.20475" lon="5.72728">
        <ele>590.20001220703</ele>
        <time>2021-06-26T04:09:42.000Z</time>
      </trkpt>
      <trkpt lat="45.20485" lon="5.72735">
        <ele>591</ele>
        <time>2021-06-26T04:09:48.000Z</time>
      </trkpt>
      <trkpt lat="45.20487" lon="5.72736">
        <ele>591</ele>
        <time>2021-06-26T04:09:49.000Z</time>
      </trkpt>
      <trkpt lat="45.20492" lon="5.72738">
        <ele>591.59997558594</ele>
        <time>2021-06-26T04:09:51.000Z</time>
      </trkpt>
      <trkpt lat="45.20497" lon="5.7274">
        <ele>592.20001220703</ele>
        <time>2021-06-26T04:09:53.000Z</time>
      </trkpt>
      <trkpt lat="45.20504" lon="5.72742">
        <ele>592.40002441406</ele>
        <time>2021-06-26T04:09:56.000Z</time>
      </trkpt>
      <trkpt lat="45.20505" lon="5.72742">
        <ele>592.59997558594</ele>
        <time>2021-06-26T04:09:57.000Z</time>
      </trkpt>
      <trkpt lat="45.20506" lon="5.7274">
        <ele>593.20001220703</ele>
        <time>2021-06-26T04:09:58.000Z</time>
      </trkpt>
      <trkpt lat="45.20507" lon="5.72739">
        <ele>593.20001220703</ele>
        <time>2021-06-26T04:09:59.000Z</time>
      </trkpt>
      <trkpt lat="45.20507" lon="5.72737">
        <ele>593.20001220703</ele>
        <time>2021-06-26T04:10:01.000Z</time>
      </trkpt>
      <trkpt lat="45.20501" lon="5.72735">
        <ele>594.40002441406</ele>
        <time>2021-06-26T04:10:06.000Z</time>
      </trkpt>
      <trkpt lat="45.20499" lon="5.72736">
        <ele>594.59997558594</ele>
        <time>2021-06-26T04:10:08.000Z</time>
      </trkpt>
      <trkpt lat="45.20494" lon="5.7273">
        <ele>595.59997558594</ele>
        <time>2021-06-26T04:10:13.000Z</time>
      </trkpt>
      <trkpt lat="45.20493" lon="5.72725">
        <ele>596.40002441406</ele>
        <time>2021-06-26T04:10:16.000Z</time>
      </trkpt>
      <trkpt lat="45.20492" lon="5.72724">
        <ele>596.40002441406</ele>
        <time>2021-06-26T04:10:17.000Z</time>
      </trkpt>
      <trkpt lat="45.20488" lon="5.72725">
        <ele>596.79998779297</ele>
        <time>2021-06-26T04:10:19.000Z</time>
      </trkpt>
      <trkpt lat="45.20485" lon="5.72724">
        <ele>597</ele>
        <time>2021-06-26T04:10:21.000Z</time>
      </trkpt>
      <trkpt lat="45.20481" lon="5.72722">
        <ele>597.79998779297</ele>
        <time>2021-06-26T04:10:24.000Z</time>
      </trkpt>
      <trkpt lat="45.20478" lon="5.72721">
        <ele>598</ele>
        <time>2021-06-26T04:10:26.000Z</time>
      </trkpt>
      <trkpt lat="45.20476" lon="5.7272">
        <ele>598.20001220703</ele>
        <time>2021-06-26T04:10:28.000Z</time>
      </trkpt>
      <trkpt lat="45.20469" lon="5.72714">
        <ele>599.40002441406</ele>
        <time>2021-06-26T04:10:33.000Z</time>
      </trkpt>
      <trkpt lat="45.20465" lon="5.72709">
        <ele>599.59997558594</ele>
        <time>2021-06-26T04:10:36.000Z</time>
      </trkpt>
      <trkpt lat="45.20462" lon="5.72706">
        <ele>600.20001220703</ele>
        <time>2021-06-26T04:10:38.000Z</time>
      </trkpt>
      <trkpt lat="45.2046" lon="5.72703">
        <ele>600.40002441406</ele>
        <time>2021-06-26T04:10:40.000Z</time>
      </trkpt>
      <trkpt lat="45.20457" lon="5.72704">
        <ele>601.20001220703</ele>
        <time>2021-06-26T04:10:42.000Z</time>
      </trkpt>
      <trkpt lat="45.20453" lon="5.72703">
        <ele>602.20001220703</ele>
        <time>2021-06-26T04:10:45.000Z</time>
      </trkpt>
      <trkpt lat="45.20446" lon="5.72696">
        <ele>602.79998779297</ele>
        <time>2021-06-26T04:10:49.000Z</time>
      </trkpt>
      <trkpt lat="45.20441" lon="5.7269">
        <ele>603.20001220703</ele>
        <time>2021-06-26T04:10:53.000Z</time>
      </trkpt>
      <trkpt lat="45.20438" lon="5.72686">
        <ele>604</ele>
        <time>2021-06-26T04:10:55.000Z</time>
      </trkpt>
      <trkpt lat="45.20437" lon="5.72684">
        <ele>604.20001220703</ele>
        <time>2021-06-26T04:10:56.000Z</time>
      </trkpt>
      <trkpt lat="45.20435" lon="5.7268">
        <ele>604.20001220703</ele>
        <time>2021-06-26T04:10:58.000Z</time>
      </trkpt>
      <trkpt lat="45.2043" lon="5.72672">
        <ele>605.40002441406</ele>
        <time>2021-06-26T04:11:02.000Z</time>
      </trkpt>
      <trkpt lat="45.20429" lon="5.72669">
        <ele>605.59997558594</ele>
        <time>2021-06-26T04:11:03.000Z</time>
      </trkpt>
      <trkpt lat="45.20427" lon="5.72665">
        <ele>606.59997558594</ele>
        <time>2021-06-26T04:11:05.000Z</time>
      </trkpt>
      <trkpt lat="45.20423" lon="5.72658">
        <ele>606.59997558594</ele>
        <time>2021-06-26T04:11:08.000Z</time>
      </trkpt>
      <trkpt lat="45.20418" lon="5.72648">
        <ele>608</ele>
        <time>2021-06-26T04:11:12.000Z</time>
      </trkpt>
      <trkpt lat="45.20415" lon="5.72644">
        <ele>608.20001220703</ele>
        <time>2021-06-26T04:11:14.000Z</time>
      </trkpt>
      <trkpt lat="45.20415" lon="5.72635">
        <ele>609</ele>
        <time>2021-06-26T04:11:17.000Z</time>
      </trkpt>
      <trkpt lat="45.20416" lon="5.72633">
        <ele>609</ele>
        <time>2021-06-26T04:11:18.000Z</time>
      </trkpt>
      <trkpt lat="45.20421" lon="5.72633">
        <ele>610</ele>
        <time>2021-06-26T04:11:22.000Z</time>
      </trkpt>
      <trkpt lat="45.20423" lon="5.72634">
        <ele>610.20001220703</ele>
        <time>2021-06-26T04:11:23.000Z</time>
      </trkpt>
      <trkpt lat="45.20432" lon="5.72642">
        <ele>610.79998779297</ele>
        <time>2021-06-26T04:11:29.000Z</time>
      </trkpt>
      <trkpt lat="45.20434" lon="5.72647">
        <ele>611.40002441406</ele>
        <time>2021-06-26T04:11:32.000Z</time>
      </trkpt>
      <trkpt lat="45.20437" lon="5.72646">
        <ele>612</ele>
        <time>2021-06-26T04:11:35.000Z</time>
      </trkpt>
      <trkpt lat="45.20438" lon="5.72645">
        <ele>612.20001220703</ele>
        <time>2021-06-26T04:11:36.000Z</time>
      </trkpt>
      <trkpt lat="45.20441" lon="5.72646">
        <ele>612.59997558594</ele>
        <time>2021-06-26T04:11:38.000Z</time>
      </trkpt>
      <trkpt lat="45.20445" lon="5.72646">
        <ele>613.40002441406</ele>
        <time>2021-06-26T04:11:42.000Z</time>
      </trkpt>
      <trkpt lat="45.20446" lon="5.72646">
        <ele>613.79998779297</ele>
        <time>2021-06-26T04:11:43.000Z</time>
      </trkpt>
      <trkpt lat="45.20445" lon="5.72647">
        <ele>613.79998779297</ele>
        <time>2021-06-26T04:11:44.000Z</time>
      </trkpt>
      <trkpt lat="45.20455" lon="5.72649">
        <ele>615.20001220703</ele>
        <time>2021-06-26T04:11:50.000Z</time>
      </trkpt>
      <trkpt lat="45.20457" lon="5.72651">
        <ele>616</ele>
        <time>2021-06-26T04:11:53.000Z</time>
      </trkpt>
      <trkpt lat="45.20459" lon="5.72652">
        <ele>616.20001220703</ele>
        <time>2021-06-26T04:11:54.000Z</time>
      </trkpt>
      <trkpt lat="45.2046" lon="5.72653">
        <ele>616.59997558594</ele>
        <time>2021-06-26T04:11:55.000Z</time>
      </trkpt>
      <trkpt lat="45.20462" lon="5.72655">
        <ele>616.59997558594</ele>
        <time>2021-06-26T04:11:57.000Z</time>
      </trkpt>
      <trkpt lat="45.20463" lon="5.72655">
        <ele>616.79998779297</ele>
        <time>2021-06-26T04:11:58.000Z</time>
      </trkpt>
      <trkpt lat="45.20465" lon="5.72656">
        <ele>617.20001220703</ele>
        <time>2021-06-26T04:11:59.000Z</time>
      </trkpt>
      <trkpt lat="45.20471" lon="5.72656">
        <ele>617.59997558594</ele>
        <time>2021-06-26T04:12:01.000Z</time>
      </trkpt>
      <trkpt lat="45.20475" lon="5.72658">
        <ele>617.79998779297</ele>
        <time>2021-06-26T04:12:03.000Z</time>
      </trkpt>
      <trkpt lat="45.20478" lon="5.7266">
        <ele>618.20001220703</ele>
        <time>2021-06-26T04:12:05.000Z</time>
      </trkpt>
      <trkpt lat="45.20481" lon="5.72662">
        <ele>619.40002441406</ele>
        <time>2021-06-26T04:12:09.000Z</time>
      </trkpt>
      <trkpt lat="45.20486" lon="5.72664">
        <ele>620</ele>
        <time>2021-06-26T04:12:12.000Z</time>
      </trkpt>
      <trkpt lat="45.20487" lon="5.72664">
        <ele>620</ele>
        <time>2021-06-26T04:12:13.000Z</time>
      </trkpt>
      <trkpt lat="45.20491" lon="5.72664">
        <ele>620.40002441406</ele>
        <time>2021-06-26T04:12:16.000Z</time>
      </trkpt>
      <trkpt lat="45.20493" lon="5.72666">
        <ele>620.79998779297</ele>
        <time>2021-06-26T04:12:18.000Z</time>
      </trkpt>
      <trkpt lat="45.20496" lon="5.72668">
        <ele>621.20001220703</ele>
        <time>2021-06-26T04:12:20.000Z</time>
      </trkpt>
      <trkpt lat="45.20498" lon="5.72668">
        <ele>621.59997558594</ele>
        <time>2021-06-26T04:12:21.000Z</time>
      </trkpt>
      <trkpt lat="45.20505" lon="5.72669">
        <ele>622.20001220703</ele>
        <time>2021-06-26T04:12:24.000Z</time>
      </trkpt>
      <trkpt lat="45.20508" lon="5.7267">
        <ele>622.59997558594</ele>
        <time>2021-06-26T04:12:25.000Z</time>
      </trkpt>
      <trkpt lat="45.20515" lon="5.72679">
        <ele>623.59997558594</ele>
        <time>2021-06-26T04:12:30.000Z</time>
      </trkpt>
      <trkpt lat="45.20517" lon="5.7268">
        <ele>624</ele>
        <time>2021-06-26T04:12:31.000Z</time>
      </trkpt>
      <trkpt lat="45.20522" lon="5.72684">
        <ele>625</ele>
        <time>2021-06-26T04:12:35.000Z</time>
      </trkpt>
      <trkpt lat="45.20525" lon="5.72687">
        <ele>625.20001220703</ele>
        <time>2021-06-26T04:12:37.000Z</time>
      </trkpt>
      <trkpt lat="45.20529" lon="5.72689">
        <ele>625.59997558594</ele>
        <time>2021-06-26T04:12:39.000Z</time>
      </trkpt>
      <trkpt lat="45.20536" lon="5.72694">
        <ele>626</ele>
        <time>2021-06-26T04:12:43.000Z</time>
      </trkpt>
      <trkpt lat="45.20538" lon="5.72695">
        <ele>626.40002441406</ele>
        <time>2021-06-26T04:12:44.000Z</time>
      </trkpt>
      <trkpt lat="45.20549" lon="5.72702">
        <ele>627.40002441406</ele>
        <time>2021-06-26T04:12:49.000Z</time>
      </trkpt>
      <trkpt lat="45.20552" lon="5.72703">
        <ele>628.20001220703</ele>
        <time>2021-06-26T04:12:50.000Z</time>
      </trkpt>
      <trkpt lat="45.20556" lon="5.72703">
        <ele>628.40002441406</ele>
        <time>2021-06-26T04:12:52.000Z</time>
      </trkpt>
      <trkpt lat="45.20564" lon="5.72707">
        <ele>629.20001220703</ele>
        <time>2021-06-26T04:12:56.000Z</time>
      </trkpt>
      <trkpt lat="45.20566" lon="5.72707">
        <ele>629.20001220703</ele>
        <time>2021-06-26T04:12:57.000Z</time>
      </trkpt>
      <trkpt lat="45.20567" lon="5.72708">
        <ele>629.59997558594</ele>
        <time>2021-06-26T04:12:58.000Z</time>
      </trkpt>
      <trkpt lat="45.20571" lon="5.72706">
        <ele>630.40002441406</ele>
        <time>2021-06-26T04:13:01.000Z</time>
      </trkpt>
      <trkpt lat="45.20572" lon="5.72704">
        <ele>630.59997558594</ele>
        <time>2021-06-26T04:13:02.000Z</time>
      </trkpt>
      <trkpt lat="45.20572" lon="5.72702">
        <ele>630.79998779297</ele>
        <time>2021-06-26T04:13:04.000Z</time>
      </trkpt>
      <trkpt lat="45.20571" lon="5.72701">
        <ele>630.79998779297</ele>
        <time>2021-06-26T04:13:06.000Z</time>
      </trkpt>
      <trkpt lat="45.20563" lon="5.727">
        <ele>631.79998779297</ele>
        <time>2021-06-26T04:13:10.000Z</time>
      </trkpt>
      <trkpt lat="45.2056" lon="5.72698">
        <ele>631.79998779297</ele>
        <time>2021-06-26T04:13:12.000Z</time>
      </trkpt>
      <trkpt lat="45.20549" lon="5.72688">
        <ele>632</ele>
        <time>2021-06-26T04:13:19.000Z</time>
      </trkpt>
      <trkpt lat="45.20542" lon="5.72681">
        <ele>632.59997558594</ele>
        <time>2021-06-26T04:13:23.000Z</time>
      </trkpt>
      <trkpt lat="45.2054" lon="5.7268">
        <ele>633.20001220703</ele>
        <time>2021-06-26T04:13:24.000Z</time>
      </trkpt>
      <trkpt lat="45.20539" lon="5.72678">
        <ele>633.40002441406</ele>
        <time>2021-06-26T04:13:25.000Z</time>
      </trkpt>
      <trkpt lat="45.20538" lon="5.72677">
        <ele>633.59997558594</ele>
        <time>2021-06-26T04:13:26.000Z</time>
      </trkpt>
      <trkpt lat="45.20531" lon="5.72669">
        <ele>634.59997558594</ele>
        <time>2021-06-26T04:13:31.000Z</time>
      </trkpt>
      <trkpt lat="45.20531" lon="5.72667">
        <ele>635</ele>
        <time>2021-06-26T04:13:32.000Z</time>
      </trkpt>
      <trkpt lat="45.20527" lon="5.72662">
        <ele>635.20001220703</ele>
        <time>2021-06-26T04:13:35.000Z</time>
      </trkpt>
      <trkpt lat="45.20524" lon="5.72659">
        <ele>635.40002441406</ele>
        <time>2021-06-26T04:13:37.000Z</time>
      </trkpt>
      <trkpt lat="45.20522" lon="5.72656">
        <ele>636</ele>
        <time>2021-06-26T04:13:39.000Z</time>
      </trkpt>
      <trkpt lat="45.20517" lon="5.72649">
        <ele>637</ele>
        <time>2021-06-26T04:13:44.000Z</time>
      </trkpt>
      <trkpt lat="45.20516" lon="5.72647">
        <ele>637.40002441406</ele>
        <time>2021-06-26T04:13:45.000Z</time>
      </trkpt>
      <trkpt lat="45.20509" lon="5.72644">
        <ele>638.20001220703</ele>
        <time>2021-06-26T04:13:49.000Z</time>
      </trkpt>
      <trkpt lat="45.20507" lon="5.72644">
        <ele>638.20001220703</ele>
        <time>2021-06-26T04:13:50.000Z</time>
      </trkpt>
      <trkpt lat="45.20502" lon="5.72645">
        <ele>638.59997558594</ele>
        <time>2021-06-26T04:13:52.000Z</time>
      </trkpt>
      <trkpt lat="45.20497" lon="5.72644">
        <ele>639</ele>
        <time>2021-06-26T04:13:55.000Z</time>
      </trkpt>
      <trkpt lat="45.20496" lon="5.72642">
        <ele>639</ele>
        <time>2021-06-26T04:13:56.000Z</time>
      </trkpt>
      <trkpt lat="45.20491" lon="5.7264">
        <ele>640.20001220703</ele>
        <time>2021-06-26T04:13:59.000Z</time>
      </trkpt>
      <trkpt lat="45.20485" lon="5.7263">
        <ele>640.59997558594</ele>
        <time>2021-06-26T04:14:04.000Z</time>
      </trkpt>
      <trkpt lat="45.20481" lon="5.72627">
        <ele>641.79998779297</ele>
        <time>2021-06-26T04:14:06.000Z</time>
      </trkpt>
      <trkpt lat="45.20474" lon="5.7262">
        <ele>642.79998779297</ele>
        <time>2021-06-26T04:14:11.000Z</time>
      </trkpt>
      <trkpt lat="45.20472" lon="5.72618">
        <ele>643</ele>
        <time>2021-06-26T04:14:12.000Z</time>
      </trkpt>
      <trkpt lat="45.20466" lon="5.72609">
        <ele>644.40002441406</ele>
        <time>2021-06-26T04:14:17.000Z</time>
      </trkpt>
      <trkpt lat="45.20465" lon="5.72606">
        <ele>644.40002441406</ele>
        <time>2021-06-26T04:14:18.000Z</time>
      </trkpt>
      <trkpt lat="45.20458" lon="5.7259">
        <ele>645.20001220703</ele>
        <time>2021-06-26T04:14:24.000Z</time>
      </trkpt>
      <trkpt lat="45.20457" lon="5.72588">
        <ele>645.40002441406</ele>
        <time>2021-06-26T04:14:25.000Z</time>
      </trkpt>
      <trkpt lat="45.20453" lon="5.72577">
        <ele>646.59997558594</ele>
        <time>2021-06-26T04:14:29.000Z</time>
      </trkpt>
      <trkpt lat="45.20452" lon="5.72574">
        <ele>646.79998779297</ele>
        <time>2021-06-26T04:14:30.000Z</time>
      </trkpt>
      <trkpt lat="45.20447" lon="5.72561">
        <ele>647.59997558594</ele>
        <time>2021-06-26T04:14:36.000Z</time>
      </trkpt>
      <trkpt lat="45.20444" lon="5.72556">
        <ele>647.79998779297</ele>
        <time>2021-06-26T04:14:38.000Z</time>
      </trkpt>
      <trkpt lat="45.20441" lon="5.72544">
        <ele>648</ele>
        <time>2021-06-26T04:14:42.000Z</time>
      </trkpt>
      <trkpt lat="45.20441" lon="5.72541">
        <ele>649</ele>
        <time>2021-06-26T04:14:43.000Z</time>
      </trkpt>
      <trkpt lat="45.20441" lon="5.72535">
        <ele>649.20001220703</ele>
        <time>2021-06-26T04:14:45.000Z</time>
      </trkpt>
      <trkpt lat="45.2044" lon="5.7253">
        <ele>649.79998779297</ele>
        <time>2021-06-26T04:14:47.000Z</time>
      </trkpt>
      <trkpt lat="45.2044" lon="5.72527">
        <ele>650.20001220703</ele>
        <time>2021-06-26T04:14:48.000Z</time>
      </trkpt>
      <trkpt lat="45.2044" lon="5.72525">
        <ele>650.20001220703</ele>
        <time>2021-06-26T04:14:49.000Z</time>
      </trkpt>
      <trkpt lat="45.2044" lon="5.72524">
        <ele>650.40002441406</ele>
        <time>2021-06-26T04:14:50.000Z</time>
      </trkpt>
      <trkpt lat="45.20445" lon="5.72524">
        <ele>651.20001220703</ele>
        <time>2021-06-26T04:14:53.000Z</time>
      </trkpt>
      <trkpt lat="45.20447" lon="5.72526">
        <ele>651.79998779297</ele>
        <time>2021-06-26T04:14:55.000Z</time>
      </trkpt>
      <trkpt lat="45.20448" lon="5.72527">
        <ele>651.79998779297</ele>
        <time>2021-06-26T04:14:56.000Z</time>
      </trkpt>
      <trkpt lat="45.20453" lon="5.72533">
        <ele>652.40002441406</ele>
        <time>2021-06-26T04:15:00.000Z</time>
      </trkpt>
      <trkpt lat="45.20458" lon="5.72539">
        <ele>653</ele>
        <time>2021-06-26T04:15:03.000Z</time>
      </trkpt>
      <trkpt lat="45.20464" lon="5.72543">
        <ele>653.79998779297</ele>
        <time>2021-06-26T04:15:07.000Z</time>
      </trkpt>
      <trkpt lat="45.20472" lon="5.72551">
        <ele>655</ele>
        <time>2021-06-26T04:15:13.000Z</time>
      </trkpt>
      <trkpt lat="45.2048" lon="5.72559">
        <ele>656.20001220703</ele>
        <time>2021-06-26T04:15:18.000Z</time>
      </trkpt>
      <trkpt lat="45.20486" lon="5.7256">
        <ele>656.40002441406</ele>
        <time>2021-06-26T04:15:21.000Z</time>
      </trkpt>
      <trkpt lat="45.20491" lon="5.72557">
        <ele>656.59997558594</ele>
        <time>2021-06-26T04:15:24.000Z</time>
      </trkpt>
      <trkpt lat="45.20491" lon="5.72555">
        <ele>657.20001220703</ele>
        <time>2021-06-26T04:15:25.000Z</time>
      </trkpt>
      <trkpt lat="45.20491" lon="5.72553">
        <ele>657.40002441406</ele>
        <time>2021-06-26T04:15:26.000Z</time>
      </trkpt>
      <trkpt lat="45.20488" lon="5.72552">
        <ele>657.59997558594</ele>
        <time>2021-06-26T04:15:28.000Z</time>
      </trkpt>
      <trkpt lat="45.20487" lon="5.72551">
        <ele>658.20001220703</ele>
        <time>2021-06-26T04:15:29.000Z</time>
      </trkpt>
      <trkpt lat="45.20487" lon="5.72549">
        <ele>658.20001220703</ele>
        <time>2021-06-26T04:15:30.000Z</time>
      </trkpt>
      <trkpt lat="45.20485" lon="5.72543">
        <ele>659.40002441406</ele>
        <time>2021-06-26T04:15:33.000Z</time>
      </trkpt>
      <trkpt lat="45.20482" lon="5.7254">
        <ele>660.20001220703</ele>
        <time>2021-06-26T04:15:36.000Z</time>
      </trkpt>
      <trkpt lat="45.20482" lon="5.72538">
        <ele>660.40002441406</ele>
        <time>2021-06-26T04:15:37.000Z</time>
      </trkpt>
      <trkpt lat="45.20481" lon="5.72529">
        <ele>661.59997558594</ele>
        <time>2021-06-26T04:15:41.000Z</time>
      </trkpt>
      <trkpt lat="45.20481" lon="5.72521">
        <ele>662</ele>
        <time>2021-06-26T04:15:44.000Z</time>
      </trkpt>
      <trkpt lat="45.20477" lon="5.72505">
        <ele>662</ele>
        <time>2021-06-26T04:15:50.000Z</time>
      </trkpt>
      <trkpt lat="45.20476" lon="5.72502">
        <ele>661.59997558594</ele>
        <time>2021-06-26T04:15:52.000Z</time>
      </trkpt>
      <trkpt lat="45.20472" lon="5.72498">
        <ele>661.59997558594</ele>
        <time>2021-06-26T04:15:55.000Z</time>
      </trkpt>
      <trkpt lat="45.20469" lon="5.72498">
        <ele>661.40002441406</ele>
        <time>2021-06-26T04:15:57.000Z</time>
      </trkpt>
      <trkpt lat="45.20462" lon="5.72496">
        <ele>661.40002441406</ele>
        <time>2021-06-26T04:16:01.000Z</time>
      </trkpt>
      <trkpt lat="45.20458" lon="5.72495">
        <ele>661.40002441406</ele>
        <time>2021-06-26T04:16:03.000Z</time>
      </trkpt>
      <trkpt lat="45.20448" lon="5.72492">
        <ele>661.79998779297</ele>
        <time>2021-06-26T04:16:09.000Z</time>
      </trkpt>
      <trkpt lat="45.20439" lon="5.7249">
        <ele>661.59997558594</ele>
        <time>2021-06-26T04:16:14.000Z</time>
      </trkpt>
      <trkpt lat="45.20434" lon="5.72487">
        <ele>661</ele>
        <time>2021-06-26T04:16:17.000Z</time>
      </trkpt>
      <trkpt lat="45.20425" lon="5.72481">
        <ele>661</ele>
        <time>2021-06-26T04:16:21.000Z</time>
      </trkpt>
      <trkpt lat="45.20413" lon="5.72464">
        <ele>661.79998779297</ele>
        <time>2021-06-26T04:16:27.000Z</time>
      </trkpt>
      <trkpt lat="45.20402" lon="5.72454">
        <ele>662.40002441406</ele>
        <time>2021-06-26T04:16:33.000Z</time>
      </trkpt>
      <trkpt lat="45.20401" lon="5.72453">
        <ele>663</ele>
        <time>2021-06-26T04:16:34.000Z</time>
      </trkpt>
      <trkpt lat="45.204" lon="5.72451">
        <ele>664</ele>
        <time>2021-06-26T04:16:37.000Z</time>
      </trkpt>
      <trkpt lat="45.20399" lon="5.7245">
        <ele>664.20001220703</ele>
        <time>2021-06-26T04:16:38.000Z</time>
      </trkpt>
      <trkpt lat="45.20397" lon="5.7245">
        <ele>664.59997558594</ele>
        <time>2021-06-26T04:16:40.000Z</time>
      </trkpt>
      <trkpt lat="45.20394" lon="5.7245">
        <ele>665.20001220703</ele>
        <time>2021-06-26T04:16:42.000Z</time>
      </trkpt>
      <trkpt lat="45.20391" lon="5.7245">
        <ele>665.79998779297</ele>
        <time>2021-06-26T04:16:44.000Z</time>
      </trkpt>
      <trkpt lat="45.2039" lon="5.72449">
        <ele>666</ele>
        <time>2021-06-26T04:16:45.000Z</time>
      </trkpt>
      <trkpt lat="45.20387" lon="5.72443">
        <ele>666</ele>
        <time>2021-06-26T04:16:49.000Z</time>
      </trkpt>
      <trkpt lat="45.20388" lon="5.72438">
        <ele>666.40002441406</ele>
        <time>2021-06-26T04:16:51.000Z</time>
      </trkpt>
      <trkpt lat="45.20391" lon="5.72435">
        <ele>666.40002441406</ele>
        <time>2021-06-26T04:16:53.000Z</time>
      </trkpt>
      <trkpt lat="45.20398" lon="5.72433">
        <ele>667.40002441406</ele>
        <time>2021-06-26T04:16:57.000Z</time>
      </trkpt>
      <trkpt lat="45.20399" lon="5.7243">
        <ele>667.40002441406</ele>
        <time>2021-06-26T04:16:59.000Z</time>
      </trkpt>
      <trkpt lat="45.20399" lon="5.72426">
        <ele>667.79998779297</ele>
        <time>2021-06-26T04:17:01.000Z</time>
      </trkpt>
      <trkpt lat="45.20396" lon="5.72422">
        <ele>667.79998779297</ele>
        <time>2021-06-26T04:17:04.000Z</time>
      </trkpt>
      <trkpt lat="45.20395" lon="5.72421">
        <ele>667.59997558594</ele>
        <time>2021-06-26T04:17:06.000Z</time>
      </trkpt>
      <trkpt lat="45.2039" lon="5.72425">
        <ele>666.59997558594</ele>
        <time>2021-06-26T04:17:09.000Z</time>
      </trkpt>
      <trkpt lat="45.20388" lon="5.72425">
        <ele>666.59997558594</ele>
        <time>2021-06-26T04:17:12.000Z</time>
      </trkpt>
      <trkpt lat="45.20388" lon="5.72426">
        <ele>666</ele>
        <time>2021-06-26T04:17:13.000Z</time>
      </trkpt>
      <trkpt lat="45.20388" lon="5.72428">
        <ele>665.79998779297</ele>
        <time>2021-06-26T04:17:14.000Z</time>
      </trkpt>
      <trkpt lat="45.20387" lon="5.72439">
        <ele>665.79998779297</ele>
        <time>2021-06-26T04:17:19.000Z</time>
      </trkpt>
      <trkpt lat="45.20386" lon="5.7244">
        <ele>665.79998779297</ele>
        <time>2021-06-26T04:17:20.000Z</time>
      </trkpt>
      <trkpt lat="45.20384" lon="5.7244">
        <ele>665.20001220703</ele>
        <time>2021-06-26T04:17:21.000Z</time>
      </trkpt>
      <trkpt lat="45.20379" lon="5.72437">
        <ele>664.79998779297</ele>
        <time>2021-06-26T04:17:24.000Z</time>
      </trkpt>
      <trkpt lat="45.20378" lon="5.72436">
        <ele>664.79998779297</ele>
        <time>2021-06-26T04:17:25.000Z</time>
      </trkpt>
      <trkpt lat="45.20375" lon="5.72434">
        <ele>663.59997558594</ele>
        <time>2021-06-26T04:17:28.000Z</time>
      </trkpt>
      <trkpt lat="45.20374" lon="5.72432">
        <ele>663</ele>
        <time>2021-06-26T04:17:31.000Z</time>
      </trkpt>
      <trkpt lat="45.2037" lon="5.72432">
        <ele>662.20001220703</ele>
        <time>2021-06-26T04:17:34.000Z</time>
      </trkpt>
      <trkpt lat="45.20368" lon="5.7243">
        <ele>662</ele>
        <time>2021-06-26T04:17:35.000Z</time>
      </trkpt>
      <trkpt lat="45.20368" lon="5.72427">
        <ele>662</ele>
        <time>2021-06-26T04:17:36.000Z</time>
      </trkpt>
      <trkpt lat="45.20366" lon="5.72412">
        <ele>661.59997558594</ele>
        <time>2021-06-26T04:17:41.000Z</time>
      </trkpt>
      <trkpt lat="45.20367" lon="5.72409">
        <ele>661.79998779297</ele>
        <time>2021-06-26T04:17:42.000Z</time>
      </trkpt>
      <trkpt lat="45.20374" lon="5.72398">
        <ele>662</ele>
        <time>2021-06-26T04:17:46.000Z</time>
      </trkpt>
      <trkpt lat="45.20376" lon="5.72396">
        <ele>661.79998779297</ele>
        <time>2021-06-26T04:17:47.000Z</time>
      </trkpt>
      <trkpt lat="45.2039" lon="5.72385">
        <ele>662</ele>
        <time>2021-06-26T04:17:53.000Z</time>
      </trkpt>
      <trkpt lat="45.20396" lon="5.72384">
        <ele>662.40002441406</ele>
        <time>2021-06-26T04:17:55.000Z</time>
      </trkpt>
      <trkpt lat="45.20404" lon="5.72385">
        <ele>662.59997558594</ele>
        <time>2021-06-26T04:17:58.000Z</time>
      </trkpt>
      <trkpt lat="45.2041" lon="5.72385">
        <ele>662.20001220703</ele>
        <time>2021-06-26T04:18:00.000Z</time>
      </trkpt>
      <trkpt lat="45.2043" lon="5.72392">
        <ele>662</ele>
        <time>2021-06-26T04:18:07.000Z</time>
      </trkpt>
      <trkpt lat="45.20432" lon="5.72393">
        <ele>663</ele>
        <time>2021-06-26T04:18:08.000Z</time>
      </trkpt>
      <trkpt lat="45.20441" lon="5.72397">
        <ele>663</ele>
        <time>2021-06-26T04:18:12.000Z</time>
      </trkpt>
      <trkpt lat="45.20443" lon="5.72397">
        <ele>663.20001220703</ele>
        <time>2021-06-26T04:18:13.000Z</time>
      </trkpt>
      <trkpt lat="45.20447" lon="5.72399">
        <ele>663.59997558594</ele>
        <time>2021-06-26T04:18:15.000Z</time>
      </trkpt>
      <trkpt lat="45.20455" lon="5.72402">
        <ele>664.59997558594</ele>
        <time>2021-06-26T04:18:19.000Z</time>
      </trkpt>
      <trkpt lat="45.20459" lon="5.72405">
        <ele>664.79998779297</ele>
        <time>2021-06-26T04:18:21.000Z</time>
      </trkpt>
      <trkpt lat="45.20466" lon="5.72413">
        <ele>665.79998779297</ele>
        <time>2021-06-26T04:18:25.000Z</time>
      </trkpt>
      <trkpt lat="45.20472" lon="5.72424">
        <ele>666.79998779297</ele>
        <time>2021-06-26T04:18:29.000Z</time>
      </trkpt>
      <trkpt lat="45.20473" lon="5.72425">
        <ele>667</ele>
        <time>2021-06-26T04:18:30.000Z</time>
      </trkpt>
      <trkpt lat="45.20475" lon="5.72427">
        <ele>666.79998779297</ele>
        <time>2021-06-26T04:18:31.000Z</time>
      </trkpt>
      <trkpt lat="45.20477" lon="5.72427">
        <ele>667</ele>
        <time>2021-06-26T04:18:32.000Z</time>
      </trkpt>
      <trkpt lat="45.2048" lon="5.72426">
        <ele>667</ele>
        <time>2021-06-26T04:18:34.000Z</time>
      </trkpt>
      <trkpt lat="45.20485" lon="5.72422">
        <ele>667.40002441406</ele>
        <time>2021-06-26T04:18:37.000Z</time>
      </trkpt>
      <trkpt lat="45.20487" lon="5.72422">
        <ele>667.40002441406</ele>
        <time>2021-06-26T04:18:38.000Z</time>
      </trkpt>
      <trkpt lat="45.2049" lon="5.72424">
        <ele>667.59997558594</ele>
        <time>2021-06-26T04:18:40.000Z</time>
      </trkpt>
      <trkpt lat="45.205" lon="5.72433">
        <ele>668</ele>
        <time>2021-06-26T04:18:46.000Z</time>
      </trkpt>
      <trkpt lat="45.20501" lon="5.72433">
        <ele>668.40002441406</ele>
        <time>2021-06-26T04:18:47.000Z</time>
      </trkpt>
      <trkpt lat="45.20507" lon="5.72435">
        <ele>668.40002441406</ele>
        <time>2021-06-26T04:18:50.000Z</time>
      </trkpt>
      <trkpt lat="45.20512" lon="5.72435">
        <ele>668.59997558594</ele>
        <time>2021-06-26T04:18:53.000Z</time>
      </trkpt>
      <trkpt lat="45.20516" lon="5.72436">
        <ele>668.79998779297</ele>
        <time>2021-06-26T04:18:55.000Z</time>
      </trkpt>
      <trkpt lat="45.20521" lon="5.7244">
        <ele>668.20001220703</ele>
        <time>2021-06-26T04:18:59.000Z</time>
      </trkpt>
      <trkpt lat="45.20531" lon="5.72443">
        <ele>668</ele>
        <time>2021-06-26T04:19:05.000Z</time>
      </trkpt>
      <trkpt lat="45.20535" lon="5.72445">
        <ele>667.40002441406</ele>
        <time>2021-06-26T04:19:08.000Z</time>
      </trkpt>
      <trkpt lat="45.20539" lon="5.72447">
        <ele>667.20001220703</ele>
        <time>2021-06-26T04:19:11.000Z</time>
      </trkpt>
      <trkpt lat="45.20541" lon="5.7245">
        <ele>666.79998779297</ele>
        <time>2021-06-26T04:19:13.000Z</time>
      </trkpt>
      <trkpt lat="45.20542" lon="5.72452">
        <ele>666.59997558594</ele>
        <time>2021-06-26T04:19:14.000Z</time>
      </trkpt>
      <trkpt lat="45.20544" lon="5.72453">
        <ele>666.20001220703</ele>
        <time>2021-06-26T04:19:16.000Z</time>
      </trkpt>
      <trkpt lat="45.20545" lon="5.72454">
        <ele>666.20001220703</ele>
        <time>2021-06-26T04:19:17.000Z</time>
      </trkpt>
      <trkpt lat="45.2055" lon="5.72458">
        <ele>665.59997558594</ele>
        <time>2021-06-26T04:19:20.000Z</time>
      </trkpt>
      <trkpt lat="45.20557" lon="5.72463">
        <ele>665</ele>
        <time>2021-06-26T04:19:25.000Z</time>
      </trkpt>
      <trkpt lat="45.20558" lon="5.72464">
        <ele>665</ele>
        <time>2021-06-26T04:19:27.000Z</time>
      </trkpt>
      <trkpt lat="45.20561" lon="5.72465">
        <ele>665</ele>
        <time>2021-06-26T04:19:29.000Z</time>
      </trkpt>
      <trkpt lat="45.20562" lon="5.72466">
        <ele>665</ele>
        <time>2021-06-26T04:19:33.000Z</time>
      </trkpt>
      <trkpt lat="45.20562" lon="5.72467">
        <ele>665</ele>
        <time>2021-06-26T04:19:36.000Z</time>
      </trkpt>
      <trkpt lat="45.20568" lon="5.72468">
        <ele>665.40002441406</ele>
        <time>2021-06-26T04:19:50.000Z</time>
      </trkpt>
      <trkpt lat="45.2057" lon="5.7247">
        <ele>665.40002441406</ele>
        <time>2021-06-26T04:19:51.000Z</time>
      </trkpt>
      <trkpt lat="45.20576" lon="5.72476">
        <ele>666</ele>
        <time>2021-06-26T04:19:54.000Z</time>
      </trkpt>
      <trkpt lat="45.20583" lon="5.72482">
        <ele>666.40002441406</ele>
        <time>2021-06-26T04:19:57.000Z</time>
      </trkpt>
      <trkpt lat="45.20587" lon="5.7249">
        <ele>666.40002441406</ele>
        <time>2021-06-26T04:20:00.000Z</time>
      </trkpt>
      <trkpt lat="45.20587" lon="5.72492">
        <ele>666.40002441406</ele>
        <time>2021-06-26T04:20:01.000Z</time>
      </trkpt>
      <trkpt lat="45.20588" lon="5.72497">
        <ele>666.40002441406</ele>
        <time>2021-06-26T04:20:03.000Z</time>
      </trkpt>
      <trkpt lat="45.20591" lon="5.725">
        <ele>666.40002441406</ele>
        <time>2021-06-26T04:20:05.000Z</time>
      </trkpt>
      <trkpt lat="45.20598" lon="5.72507">
        <ele>666.40002441406</ele>
        <time>2021-06-26T04:20:08.000Z</time>
      </trkpt>
      <trkpt lat="45.20599" lon="5.72509">
        <ele>667</ele>
        <time>2021-06-26T04:20:09.000Z</time>
      </trkpt>
      <trkpt lat="45.20602" lon="5.72514">
        <ele>666.79998779297</ele>
        <time>2021-06-26T04:20:11.000Z</time>
      </trkpt>
      <trkpt lat="45.20603" lon="5.72531">
        <ele>665.79998779297</ele>
        <time>2021-06-26T04:20:17.000Z</time>
      </trkpt>
      <trkpt lat="45.20602" lon="5.72534">
        <ele>665.59997558594</ele>
        <time>2021-06-26T04:20:18.000Z</time>
      </trkpt>
      <trkpt lat="45.20599" lon="5.72541">
        <ele>664.79998779297</ele>
        <time>2021-06-26T04:20:21.000Z</time>
      </trkpt>
      <trkpt lat="45.20596" lon="5.72553">
        <ele>664.59997558594</ele>
        <time>2021-06-26T04:20:24.000Z</time>
      </trkpt>
      <trkpt lat="45.20595" lon="5.72561">
        <ele>664.59997558594</ele>
        <time>2021-06-26T04:20:26.000Z</time>
      </trkpt>
      <trkpt lat="45.20595" lon="5.72563">
        <ele>664.59997558594</ele>
        <time>2021-06-26T04:20:27.000Z</time>
      </trkpt>
      <trkpt lat="45.20599" lon="5.72567">
        <ele>665</ele>
        <time>2021-06-26T04:20:29.000Z</time>
      </trkpt>
      <trkpt lat="45.20603" lon="5.72574">
        <ele>665.40002441406</ele>
        <time>2021-06-26T04:20:33.000Z</time>
      </trkpt>
      <trkpt lat="45.20608" lon="5.72577">
        <ele>665.59997558594</ele>
        <time>2021-06-26T04:20:35.000Z</time>
      </trkpt>
      <trkpt lat="45.20616" lon="5.7259">
        <ele>666.79998779297</ele>
        <time>2021-06-26T04:20:41.000Z</time>
      </trkpt>
      <trkpt lat="45.20623" lon="5.72596">
        <ele>667.79998779297</ele>
        <time>2021-06-26T04:20:47.000Z</time>
      </trkpt>
      <trkpt lat="45.20625" lon="5.72597">
        <ele>668.40002441406</ele>
        <time>2021-06-26T04:20:48.000Z</time>
      </trkpt>
      <trkpt lat="45.20628" lon="5.726">
        <ele>669</ele>
        <time>2021-06-26T04:20:51.000Z</time>
      </trkpt>
      <trkpt lat="45.20635" lon="5.726">
        <ele>669.40002441406</ele>
        <time>2021-06-26T04:20:55.000Z</time>
      </trkpt>
      <trkpt lat="45.20643" lon="5.72599">
        <ele>670</ele>
        <time>2021-06-26T04:21:00.000Z</time>
      </trkpt>
      <trkpt lat="45.20646" lon="5.72595">
        <ele>670.59997558594</ele>
        <time>2021-06-26T04:21:04.000Z</time>
      </trkpt>
      <trkpt lat="45.20649" lon="5.72592">
        <ele>671</ele>
        <time>2021-06-26T04:21:06.000Z</time>
      </trkpt>
      <trkpt lat="45.20657" lon="5.72585">
        <ele>671.59997558594</ele>
        <time>2021-06-26T04:21:10.000Z</time>
      </trkpt>
      <trkpt lat="45.20659" lon="5.72583">
        <ele>672</ele>
        <time>2021-06-26T04:21:11.000Z</time>
      </trkpt>
      <trkpt lat="45.20664" lon="5.72573">
        <ele>673</ele>
        <time>2021-06-26T04:21:15.000Z</time>
      </trkpt>
      <trkpt lat="45.20665" lon="5.72572">
        <ele>673</ele>
        <time>2021-06-26T04:21:16.000Z</time>
      </trkpt>
      <trkpt lat="45.20668" lon="5.7257">
        <ele>673.20001220703</ele>
        <time>2021-06-26T04:21:18.000Z</time>
      </trkpt>
      <trkpt lat="45.2067" lon="5.72569">
        <ele>674.20001220703</ele>
        <time>2021-06-26T04:21:19.000Z</time>
      </trkpt>
      <trkpt lat="45.20677" lon="5.72565">
        <ele>675.20001220703</ele>
        <time>2021-06-26T04:21:23.000Z</time>
      </trkpt>
      <trkpt lat="45.2068" lon="5.72564">
        <ele>675.20001220703</ele>
        <time>2021-06-26T04:21:25.000Z</time>
      </trkpt>
      <trkpt lat="45.20684" lon="5.72563">
        <ele>676.40002441406</ele>
        <time>2021-06-26T04:21:28.000Z</time>
      </trkpt>
      <trkpt lat="45.20687" lon="5.72561">
        <ele>676.59997558594</ele>
        <time>2021-06-26T04:21:30.000Z</time>
      </trkpt>
      <trkpt lat="45.20689" lon="5.7256">
        <ele>677.40002441406</ele>
        <time>2021-06-26T04:21:31.000Z</time>
      </trkpt>
      <trkpt lat="45.20693" lon="5.72562">
        <ele>677.40002441406</ele>
        <time>2021-06-26T04:21:33.000Z</time>
      </trkpt>
      <trkpt lat="45.20697" lon="5.72564">
        <ele>678</ele>
        <time>2021-06-26T04:21:35.000Z</time>
      </trkpt>
      <trkpt lat="45.20698" lon="5.72566">
        <ele>678.20001220703</ele>
        <time>2021-06-26T04:21:36.000Z</time>
      </trkpt>
      <trkpt lat="45.207" lon="5.72567">
        <ele>678.40002441406</ele>
        <time>2021-06-26T04:21:37.000Z</time>
      </trkpt>
      <trkpt lat="45.20701" lon="5.72568">
        <ele>678.79998779297</ele>
        <time>2021-06-26T04:21:38.000Z</time>
      </trkpt>
      <trkpt lat="45.20701" lon="5.72569">
        <ele>679.20001220703</ele>
        <time>2021-06-26T04:21:39.000Z</time>
      </trkpt>
      <trkpt lat="45.20703" lon="5.7257">
        <ele>679.59997558594</ele>
        <time>2021-06-26T04:21:41.000Z</time>
      </trkpt>
      <trkpt lat="45.20704" lon="5.7257">
        <ele>680</ele>
        <time>2021-06-26T04:21:42.000Z</time>
      </trkpt>
      <trkpt lat="45.20705" lon="5.7257">
        <ele>680.40002441406</ele>
        <time>2021-06-26T04:21:43.000Z</time>
      </trkpt>
      <trkpt lat="45.20705" lon="5.7257">
        <ele>680.40002441406</ele>
        <time>2021-06-26T04:21:44.000Z</time>
      </trkpt>
      <trkpt lat="45.20707" lon="5.72571">
        <ele>680.79998779297</ele>
        <time>2021-06-26T04:21:45.000Z</time>
      </trkpt>
      <trkpt lat="45.20708" lon="5.72573">
        <ele>681</ele>
        <time>2021-06-26T04:21:46.000Z</time>
      </trkpt>
      <trkpt lat="45.20711" lon="5.72575">
        <ele>682.20001220703</ele>
        <time>2021-06-26T04:21:48.000Z</time>
      </trkpt>
      <trkpt lat="45.20712" lon="5.72575">
        <ele>682.59997558594</ele>
        <time>2021-06-26T04:21:49.000Z</time>
      </trkpt>
      <trkpt lat="45.20715" lon="5.72576">
        <ele>682.59997558594</ele>
        <time>2021-06-26T04:21:51.000Z</time>
      </trkpt>
      <trkpt lat="45.20716" lon="5.72575">
        <ele>682.59997558594</ele>
        <time>2021-06-26T04:21:52.000Z</time>
      </trkpt>
      <trkpt lat="45.20718" lon="5.72575">
        <ele>683.59997558594</ele>
        <time>2021-06-26T04:21:53.000Z</time>
      </trkpt>
      <trkpt lat="45.2072" lon="5.72575">
        <ele>684</ele>
        <time>2021-06-26T04:21:54.000Z</time>
      </trkpt>
      <trkpt lat="45.20723" lon="5.72575">
        <ele>684.40002441406</ele>
        <time>2021-06-26T04:21:56.000Z</time>
      </trkpt>
      <trkpt lat="45.20724" lon="5.72576">
        <ele>684.59997558594</ele>
        <time>2021-06-26T04:21:57.000Z</time>
      </trkpt>
      <trkpt lat="45.20724" lon="5.72577">
        <ele>685</ele>
        <time>2021-06-26T04:21:58.000Z</time>
      </trkpt>
      <trkpt lat="45.20729" lon="5.7258">
        <ele>685.79998779297</ele>
        <time>2021-06-26T04:22:01.000Z</time>
      </trkpt>
      <trkpt lat="45.2073" lon="5.7258">
        <ele>686</ele>
        <time>2021-06-26T04:22:03.000Z</time>
      </trkpt>
      <trkpt lat="45.20733" lon="5.72581">
        <ele>687.20001220703</ele>
        <time>2021-06-26T04:22:06.000Z</time>
      </trkpt>
      <trkpt lat="45.20736" lon="5.72585">
        <ele>688.20001220703</ele>
        <time>2021-06-26T04:22:10.000Z</time>
      </trkpt>
      <trkpt lat="45.20736" lon="5.72587">
        <ele>688.59997558594</ele>
        <time>2021-06-26T04:22:11.000Z</time>
      </trkpt>
      <trkpt lat="45.20738" lon="5.72591">
        <ele>689.40002441406</ele>
        <time>2021-06-26T04:22:15.000Z</time>
      </trkpt>
      <trkpt lat="45.2074" lon="5.72596">
        <ele>690.20001220703</ele>
        <time>2021-06-26T04:22:18.000Z</time>
      </trkpt>
      <trkpt lat="45.20741" lon="5.726">
        <ele>690.59997558594</ele>
        <time>2021-06-26T04:22:21.000Z</time>
      </trkpt>
      <trkpt lat="45.20741" lon="5.72602">
        <ele>691.20001220703</ele>
        <time>2021-06-26T04:22:22.000Z</time>
      </trkpt>
      <trkpt lat="45.20742" lon="5.72604">
        <ele>691.20001220703</ele>
        <time>2021-06-26T04:22:23.000Z</time>
      </trkpt>
      <trkpt lat="45.20742" lon="5.72605">
        <ele>691.79998779297</ele>
        <time>2021-06-26T04:22:24.000Z</time>
      </trkpt>
      <trkpt lat="45.20743" lon="5.72609">
        <ele>692.59997558594</ele>
        <time>2021-06-26T04:22:27.000Z</time>
      </trkpt>
      <trkpt lat="45.20746" lon="5.7261">
        <ele>693.79998779297</ele>
        <time>2021-06-26T04:22:31.000Z</time>
      </trkpt>
      <trkpt lat="45.20747" lon="5.7261">
        <ele>693.79998779297</ele>
        <time>2021-06-26T04:22:32.000Z</time>
      </trkpt>
      <trkpt lat="45.2075" lon="5.72611">
        <ele>694.20001220703</ele>
        <time>2021-06-26T04:22:34.000Z</time>
      </trkpt>
      <trkpt lat="45.20753" lon="5.72611">
        <ele>695</ele>
        <time>2021-06-26T04:22:36.000Z</time>
      </trkpt>
      <trkpt lat="45.20754" lon="5.72611">
        <ele>695.59997558594</ele>
        <time>2021-06-26T04:22:37.000Z</time>
      </trkpt>
      <trkpt lat="45.20757" lon="5.72611">
        <ele>695.79998779297</ele>
        <time>2021-06-26T04:22:39.000Z</time>
      </trkpt>
      <trkpt lat="45.20758" lon="5.7261">
        <ele>695.79998779297</ele>
        <time>2021-06-26T04:22:40.000Z</time>
      </trkpt>
      <trkpt lat="45.20758" lon="5.7261">
        <ele>696.59997558594</ele>
        <time>2021-06-26T04:22:41.000Z</time>
      </trkpt>
      <trkpt lat="45.2076" lon="5.72607">
        <ele>697.20001220703</ele>
        <time>2021-06-26T04:22:44.000Z</time>
      </trkpt>
      <trkpt lat="45.20762" lon="5.72604">
        <ele>698.40002441406</ele>
        <time>2021-06-26T04:22:47.000Z</time>
      </trkpt>
      <trkpt lat="45.20766" lon="5.72603">
        <ele>699.20001220703</ele>
        <time>2021-06-26T04:22:50.000Z</time>
      </trkpt>
      <trkpt lat="45.20768" lon="5.72604">
        <ele>699.40002441406</ele>
        <time>2021-06-26T04:22:51.000Z</time>
      </trkpt>
      <trkpt lat="45.20772" lon="5.72608">
        <ele>700.59997558594</ele>
        <time>2021-06-26T04:22:54.000Z</time>
      </trkpt>
      <trkpt lat="45.20773" lon="5.72612">
        <ele>701</ele>
        <time>2021-06-26T04:22:56.000Z</time>
      </trkpt>
      <trkpt lat="45.20773" lon="5.72613">
        <ele>701.40002441406</ele>
        <time>2021-06-26T04:22:57.000Z</time>
      </trkpt>
      <trkpt lat="45.20774" lon="5.72616">
        <ele>701.59997558594</ele>
        <time>2021-06-26T04:22:59.000Z</time>
      </trkpt>
      <trkpt lat="45.20774" lon="5.72618">
        <ele>702.20001220703</ele>
        <time>2021-06-26T04:23:00.000Z</time>
      </trkpt>
      <trkpt lat="45.20772" lon="5.72624">
        <ele>702.79998779297</ele>
        <time>2021-06-26T04:23:03.000Z</time>
      </trkpt>
      <trkpt lat="45.20772" lon="5.72627">
        <ele>703.20001220703</ele>
        <time>2021-06-26T04:23:05.000Z</time>
      </trkpt>
      <trkpt lat="45.20773" lon="5.72628">
        <ele>703.79998779297</ele>
        <time>2021-06-26T04:23:07.000Z</time>
      </trkpt>
      <trkpt lat="45.20774" lon="5.72629">
        <ele>703.79998779297</ele>
        <time>2021-06-26T04:23:08.000Z</time>
      </trkpt>
      <trkpt lat="45.20773" lon="5.7263">
        <ele>704.79998779297</ele>
        <time>2021-06-26T04:23:09.000Z</time>
      </trkpt>
      <trkpt lat="45.20773" lon="5.72639">
        <ele>705.59997558594</ele>
        <time>2021-06-26T04:23:14.000Z</time>
      </trkpt>
      <trkpt lat="45.20774" lon="5.72639">
        <ele>706.20001220703</ele>
        <time>2021-06-26T04:23:15.000Z</time>
      </trkpt>
      <trkpt lat="45.20776" lon="5.72639">
        <ele>707.40002441406</ele>
        <time>2021-06-26T04:23:19.000Z</time>
      </trkpt>
      <trkpt lat="45.20779" lon="5.72639">
        <ele>708.59997558594</ele>
        <time>2021-06-26T04:23:22.000Z</time>
      </trkpt>
      <trkpt lat="45.20779" lon="5.72637">
        <ele>709</ele>
        <time>2021-06-26T04:23:25.000Z</time>
      </trkpt>
      <trkpt lat="45.2078" lon="5.72635">
        <ele>709.59997558594</ele>
        <time>2021-06-26T04:23:27.000Z</time>
      </trkpt>
      <trkpt lat="45.2078" lon="5.72635">
        <ele>710.20001220703</ele>
        <time>2021-06-26T04:23:28.000Z</time>
      </trkpt>
      <trkpt lat="45.20785" lon="5.7263">
        <ele>711.20001220703</ele>
        <time>2021-06-26T04:23:33.000Z</time>
      </trkpt>
      <trkpt lat="45.20786" lon="5.7263">
        <ele>711.20001220703</ele>
        <time>2021-06-26T04:23:34.000Z</time>
      </trkpt>
      <trkpt lat="45.20786" lon="5.72625">
        <ele>712</ele>
        <time>2021-06-26T04:23:38.000Z</time>
      </trkpt>
      <trkpt lat="45.20786" lon="5.72624">
        <ele>712.20001220703</ele>
        <time>2021-06-26T04:23:39.000Z</time>
      </trkpt>
      <trkpt lat="45.20786" lon="5.72622">
        <ele>712.59997558594</ele>
        <time>2021-06-26T04:23:40.000Z</time>
      </trkpt>
      <trkpt lat="45.20786" lon="5.72619">
        <ele>713.40002441406</ele>
        <time>2021-06-26T04:23:42.000Z</time>
      </trkpt>
      <trkpt lat="45.20788" lon="5.72618">
        <ele>713.59997558594</ele>
        <time>2021-06-26T04:23:43.000Z</time>
      </trkpt>
      <trkpt lat="45.20791" lon="5.72618">
        <ele>714</ele>
        <time>2021-06-26T04:23:45.000Z</time>
      </trkpt>
      <trkpt lat="45.20792" lon="5.72621">
        <ele>715</ele>
        <time>2021-06-26T04:23:47.000Z</time>
      </trkpt>
      <trkpt lat="45.20795" lon="5.72626">
        <ele>715.40002441406</ele>
        <time>2021-06-26T04:23:50.000Z</time>
      </trkpt>
      <trkpt lat="45.20798" lon="5.72631">
        <ele>716</ele>
        <time>2021-06-26T04:23:53.000Z</time>
      </trkpt>
      <trkpt lat="45.20801" lon="5.72637">
        <ele>717.20001220703</ele>
        <time>2021-06-26T04:23:57.000Z</time>
      </trkpt>
      <trkpt lat="45.20804" lon="5.72641">
        <ele>718.40002441406</ele>
        <time>2021-06-26T04:24:00.000Z</time>
      </trkpt>
      <trkpt lat="45.20804" lon="5.72643">
        <ele>718.79998779297</ele>
        <time>2021-06-26T04:24:01.000Z</time>
      </trkpt>
      <trkpt lat="45.20807" lon="5.72647">
        <ele>719.59997558594</ele>
        <time>2021-06-26T04:24:04.000Z</time>
      </trkpt>
      <trkpt lat="45.20808" lon="5.72653">
        <ele>720.20001220703</ele>
        <time>2021-06-26T04:24:07.000Z</time>
      </trkpt>
      <trkpt lat="45.20808" lon="5.72656">
        <ele>720.79998779297</ele>
        <time>2021-06-26T04:24:09.000Z</time>
      </trkpt>
      <trkpt lat="45.20809" lon="5.72659">
        <ele>721.59997558594</ele>
        <time>2021-06-26T04:24:11.000Z</time>
      </trkpt>
      <trkpt lat="45.2081" lon="5.72662">
        <ele>722.20001220703</ele>
        <time>2021-06-26T04:24:13.000Z</time>
      </trkpt>
      <trkpt lat="45.2081" lon="5.72665">
        <ele>722.40002441406</ele>
        <time>2021-06-26T04:24:15.000Z</time>
      </trkpt>
      <trkpt lat="45.20812" lon="5.72667">
        <ele>723.59997558594</ele>
        <time>2021-06-26T04:24:18.000Z</time>
      </trkpt>
      <trkpt lat="45.20813" lon="5.72666">
        <ele>724</ele>
        <time>2021-06-26T04:24:21.000Z</time>
      </trkpt>
      <trkpt lat="45.20815" lon="5.72666">
        <ele>724.59997558594</ele>
        <time>2021-06-26T04:24:23.000Z</time>
      </trkpt>
      <trkpt lat="45.20815" lon="5.72665">
        <ele>724.79998779297</ele>
        <time>2021-06-26T04:24:24.000Z</time>
      </trkpt>
      <trkpt lat="45.20817" lon="5.72665">
        <ele>725.40002441406</ele>
        <time>2021-06-26T04:24:26.000Z</time>
      </trkpt>
      <trkpt lat="45.20819" lon="5.72663">
        <ele>726</ele>
        <time>2021-06-26T04:24:29.000Z</time>
      </trkpt>
      <trkpt lat="45.20819" lon="5.72662">
        <ele>726.59997558594</ele>
        <time>2021-06-26T04:24:30.000Z</time>
      </trkpt>
      <trkpt lat="45.20819" lon="5.7266">
        <ele>726.79998779297</ele>
        <time>2021-06-26T04:24:32.000Z</time>
      </trkpt>
      <trkpt lat="45.2082" lon="5.72657">
        <ele>727.20001220703</ele>
        <time>2021-06-26T04:24:34.000Z</time>
      </trkpt>
      <trkpt lat="45.2082" lon="5.72655">
        <ele>727.20001220703</ele>
        <time>2021-06-26T04:24:35.000Z</time>
      </trkpt>
      <trkpt lat="45.20821" lon="5.72651">
        <ele>728.20001220703</ele>
        <time>2021-06-26T04:24:37.000Z</time>
      </trkpt>
      <trkpt lat="45.20824" lon="5.72649">
        <ele>728.40002441406</ele>
        <time>2021-06-26T04:24:39.000Z</time>
      </trkpt>
      <trkpt lat="45.20825" lon="5.7265">
        <ele>729</ele>
        <time>2021-06-26T04:24:40.000Z</time>
      </trkpt>
      <trkpt lat="45.20826" lon="5.7265">
        <ele>729</ele>
        <time>2021-06-26T04:24:41.000Z</time>
      </trkpt>
      <trkpt lat="45.20827" lon="5.72652">
        <ele>729.59997558594</ele>
        <time>2021-06-26T04:24:43.000Z</time>
      </trkpt>
      <trkpt lat="45.20827" lon="5.72654">
        <ele>730</ele>
        <time>2021-06-26T04:24:45.000Z</time>
      </trkpt>
      <trkpt lat="45.20827" lon="5.72655">
        <ele>730.20001220703</ele>
        <time>2021-06-26T04:24:46.000Z</time>
      </trkpt>
      <trkpt lat="45.20828" lon="5.72658">
        <ele>730.59997558594</ele>
        <time>2021-06-26T04:24:48.000Z</time>
      </trkpt>
      <trkpt lat="45.2083" lon="5.7266">
        <ele>731.79998779297</ele>
        <time>2021-06-26T04:24:50.000Z</time>
      </trkpt>
      <trkpt lat="45.20831" lon="5.72662">
        <ele>732</ele>
        <time>2021-06-26T04:24:52.000Z</time>
      </trkpt>
      <trkpt lat="45.20831" lon="5.72663">
        <ele>732</ele>
        <time>2021-06-26T04:24:53.000Z</time>
      </trkpt>
      <trkpt lat="45.20832" lon="5.72664">
        <ele>732.59997558594</ele>
        <time>2021-06-26T04:24:54.000Z</time>
      </trkpt>
      <trkpt lat="45.20832" lon="5.72667">
        <ele>732.59997558594</ele>
        <time>2021-06-26T04:24:55.000Z</time>
      </trkpt>
      <trkpt lat="45.20832" lon="5.7267">
        <ele>733.40002441406</ele>
        <time>2021-06-26T04:24:56.000Z</time>
      </trkpt>
      <trkpt lat="45.20831" lon="5.7268">
        <ele>734.79998779297</ele>
        <time>2021-06-26T04:25:02.000Z</time>
      </trkpt>
      <trkpt lat="45.20833" lon="5.72685">
        <ele>735.59997558594</ele>
        <time>2021-06-26T04:25:05.000Z</time>
      </trkpt>
      <trkpt lat="45.20834" lon="5.72686">
        <ele>736</ele>
        <time>2021-06-26T04:25:06.000Z</time>
      </trkpt>
      <trkpt lat="45.20835" lon="5.72687">
        <ele>737</ele>
        <time>2021-06-26T04:25:08.000Z</time>
      </trkpt>
      <trkpt lat="45.20837" lon="5.72688">
        <ele>737.40002441406</ele>
        <time>2021-06-26T04:25:11.000Z</time>
      </trkpt>
      <trkpt lat="45.20838" lon="5.72687">
        <ele>738.59997558594</ele>
        <time>2021-06-26T04:25:13.000Z</time>
      </trkpt>
      <trkpt lat="45.20839" lon="5.72686">
        <ele>738.79998779297</ele>
        <time>2021-06-26T04:25:14.000Z</time>
      </trkpt>
      <trkpt lat="45.2084" lon="5.72685">
        <ele>739.20001220703</ele>
        <time>2021-06-26T04:25:16.000Z</time>
      </trkpt>
      <trkpt lat="45.20841" lon="5.72685">
        <ele>739.40002441406</ele>
        <time>2021-06-26T04:25:18.000Z</time>
      </trkpt>
      <trkpt lat="45.20841" lon="5.72684">
        <ele>740</ele>
        <time>2021-06-26T04:25:19.000Z</time>
      </trkpt>
      <trkpt lat="45.20842" lon="5.72683">
        <ele>740.20001220703</ele>
        <time>2021-06-26T04:25:20.000Z</time>
      </trkpt>
      <trkpt lat="45.20844" lon="5.72684">
        <ele>740.59997558594</ele>
        <time>2021-06-26T04:25:22.000Z</time>
      </trkpt>
      <trkpt lat="45.20846" lon="5.72685">
        <ele>741</ele>
        <time>2021-06-26T04:25:24.000Z</time>
      </trkpt>
      <trkpt lat="45.20849" lon="5.72684">
        <ele>742.20001220703</ele>
        <time>2021-06-26T04:25:27.000Z</time>
      </trkpt>
      <trkpt lat="45.20852" lon="5.72683">
        <ele>742.40002441406</ele>
        <time>2021-06-26T04:25:29.000Z</time>
      </trkpt>
      <trkpt lat="45.20855" lon="5.72682">
        <ele>743</ele>
        <time>2021-06-26T04:25:31.000Z</time>
      </trkpt>
      <trkpt lat="45.20857" lon="5.72681">
        <ele>743.40002441406</ele>
        <time>2021-06-26T04:25:33.000Z</time>
      </trkpt>
      <trkpt lat="45.20858" lon="5.72681">
        <ele>743.59997558594</ele>
        <time>2021-06-26T04:25:34.000Z</time>
      </trkpt>
      <trkpt lat="45.20859" lon="5.7268">
        <ele>743.59997558594</ele>
        <time>2021-06-26T04:25:35.000Z</time>
      </trkpt>
      <trkpt lat="45.2086" lon="5.72679">
        <ele>743.79998779297</ele>
        <time>2021-06-26T04:25:36.000Z</time>
      </trkpt>
      <trkpt lat="45.20865" lon="5.72678">
        <ele>744.40002441406</ele>
        <time>2021-06-26T04:25:39.000Z</time>
      </trkpt>
      <trkpt lat="45.20869" lon="5.72677">
        <ele>745.40002441406</ele>
        <time>2021-06-26T04:25:42.000Z</time>
      </trkpt>
      <trkpt lat="45.2087" lon="5.72676">
        <ele>745.79998779297</ele>
        <time>2021-06-26T04:25:43.000Z</time>
      </trkpt>
      <trkpt lat="45.20873" lon="5.72677">
        <ele>746.20001220703</ele>
        <time>2021-06-26T04:25:45.000Z</time>
      </trkpt>
      <trkpt lat="45.20875" lon="5.72678">
        <ele>746.79998779297</ele>
        <time>2021-06-26T04:25:47.000Z</time>
      </trkpt>
      <trkpt lat="45.20877" lon="5.72678">
        <ele>747</ele>
        <time>2021-06-26T04:25:49.000Z</time>
      </trkpt>
      <trkpt lat="45.20878" lon="5.72675">
        <ele>748</ele>
        <time>2021-06-26T04:25:52.000Z</time>
      </trkpt>
      <trkpt lat="45.2088" lon="5.72674">
        <ele>748.20001220703</ele>
        <time>2021-06-26T04:25:54.000Z</time>
      </trkpt>
      <trkpt lat="45.20884" lon="5.72673">
        <ele>748.79998779297</ele>
        <time>2021-06-26T04:25:57.000Z</time>
      </trkpt>
      <trkpt lat="45.20887" lon="5.72673">
        <ele>749.40002441406</ele>
        <time>2021-06-26T04:25:59.000Z</time>
      </trkpt>
      <trkpt lat="45.20892" lon="5.72673">
        <ele>750.59997558594</ele>
        <time>2021-06-26T04:26:02.000Z</time>
      </trkpt>
      <trkpt lat="45.20895" lon="5.7267">
        <ele>751.40002441406</ele>
        <time>2021-06-26T04:26:05.000Z</time>
      </trkpt>
      <trkpt lat="45.20898" lon="5.72668">
        <ele>752.59997558594</ele>
        <time>2021-06-26T04:26:08.000Z</time>
      </trkpt>
      <trkpt lat="45.20899" lon="5.72667">
        <ele>752.79998779297</ele>
        <time>2021-06-26T04:26:09.000Z</time>
      </trkpt>
      <trkpt lat="45.20902" lon="5.72668">
        <ele>753.40002441406</ele>
        <time>2021-06-26T04:26:12.000Z</time>
      </trkpt>
      <trkpt lat="45.20905" lon="5.72668">
        <ele>754.20001220703</ele>
        <time>2021-06-26T04:26:14.000Z</time>
      </trkpt>
      <trkpt lat="45.20907" lon="5.72668">
        <ele>754.40002441406</ele>
        <time>2021-06-26T04:26:15.000Z</time>
      </trkpt>
      <trkpt lat="45.20911" lon="5.72667">
        <ele>755.20001220703</ele>
        <time>2021-06-26T04:26:19.000Z</time>
      </trkpt>
      <trkpt lat="45.20915" lon="5.7267">
        <ele>756.20001220703</ele>
        <time>2021-06-26T04:26:22.000Z</time>
      </trkpt>
      <trkpt lat="45.20919" lon="5.72675">
        <ele>757.40002441406</ele>
        <time>2021-06-26T04:26:28.000Z</time>
      </trkpt>
      <trkpt lat="45.2092" lon="5.72675">
        <ele>758</ele>
        <time>2021-06-26T04:26:29.000Z</time>
      </trkpt>
      <trkpt lat="45.20921" lon="5.72676">
        <ele>758.40002441406</ele>
        <time>2021-06-26T04:26:30.000Z</time>
      </trkpt>
      <trkpt lat="45.20922" lon="5.72676">
        <ele>758.40002441406</ele>
        <time>2021-06-26T04:26:31.000Z</time>
      </trkpt>
      <trkpt lat="45.20923" lon="5.72677">
        <ele>758.40002441406</ele>
        <time>2021-06-26T04:26:32.000Z</time>
      </trkpt>
      <trkpt lat="45.20926" lon="5.72677">
        <ele>759.20001220703</ele>
        <time>2021-06-26T04:26:34.000Z</time>
      </trkpt>
      <trkpt lat="45.20928" lon="5.72677">
        <ele>759.40002441406</ele>
        <time>2021-06-26T04:26:35.000Z</time>
      </trkpt>
      <trkpt lat="45.20934" lon="5.72682">
        <ele>760.59997558594</ele>
        <time>2021-06-26T04:26:40.000Z</time>
      </trkpt>
      <trkpt lat="45.2094" lon="5.72688">
        <ele>761.79998779297</ele>
        <time>2021-06-26T04:26:44.000Z</time>
      </trkpt>
      <trkpt lat="45.20941" lon="5.7269">
        <ele>762</ele>
        <time>2021-06-26T04:26:46.000Z</time>
      </trkpt>
      <trkpt lat="45.20942" lon="5.72692">
        <ele>762.20001220703</ele>
        <time>2021-06-26T04:26:47.000Z</time>
      </trkpt>
      <trkpt lat="45.20943" lon="5.72694">
        <ele>762.79998779297</ele>
        <time>2021-06-26T04:26:49.000Z</time>
      </trkpt>
      <trkpt lat="45.20944" lon="5.72695">
        <ele>763.20001220703</ele>
        <time>2021-06-26T04:26:50.000Z</time>
      </trkpt>
      <trkpt lat="45.20945" lon="5.72699">
        <ele>764</ele>
        <time>2021-06-26T04:26:53.000Z</time>
      </trkpt>
      <trkpt lat="45.20945" lon="5.727">
        <ele>764.20001220703</ele>
        <time>2021-06-26T04:26:54.000Z</time>
      </trkpt>
      <trkpt lat="45.20949" lon="5.72704">
        <ele>765.20001220703</ele>
        <time>2021-06-26T04:26:58.000Z</time>
      </trkpt>
      <trkpt lat="45.20951" lon="5.72705">
        <ele>765.79998779297</ele>
        <time>2021-06-26T04:27:00.000Z</time>
      </trkpt>
      <trkpt lat="45.20952" lon="5.72707">
        <ele>766.40002441406</ele>
        <time>2021-06-26T04:27:02.000Z</time>
      </trkpt>
      <trkpt lat="45.20955" lon="5.7271">
        <ele>766.79998779297</ele>
        <time>2021-06-26T04:27:04.000Z</time>
      </trkpt>
      <trkpt lat="45.20956" lon="5.7271">
        <ele>767.20001220703</ele>
        <time>2021-06-26T04:27:05.000Z</time>
      </trkpt>
      <trkpt lat="45.20957" lon="5.72711">
        <ele>767.40002441406</ele>
        <time>2021-06-26T04:27:06.000Z</time>
      </trkpt>
      <trkpt lat="45.20961" lon="5.72713">
        <ele>768.20001220703</ele>
        <time>2021-06-26T04:27:09.000Z</time>
      </trkpt>
      <trkpt lat="45.20962" lon="5.72713">
        <ele>769</ele>
        <time>2021-06-26T04:27:10.000Z</time>
      </trkpt>
      <trkpt lat="45.20963" lon="5.72713">
        <ele>769</ele>
        <time>2021-06-26T04:27:11.000Z</time>
      </trkpt>
      <trkpt lat="45.20965" lon="5.72715">
        <ele>769.40002441406</ele>
        <time>2021-06-26T04:27:14.000Z</time>
      </trkpt>
      <trkpt lat="45.20966" lon="5.72716">
        <ele>769.59997558594</ele>
        <time>2021-06-26T04:27:15.000Z</time>
      </trkpt>
      <trkpt lat="45.20967" lon="5.72716">
        <ele>770.20001220703</ele>
        <time>2021-06-26T04:27:16.000Z</time>
      </trkpt>
      <trkpt lat="45.20968" lon="5.72717">
        <ele>770.59997558594</ele>
        <time>2021-06-26T04:27:18.000Z</time>
      </trkpt>
      <trkpt lat="45.20968" lon="5.72718">
        <ele>770.79998779297</ele>
        <time>2021-06-26T04:27:19.000Z</time>
      </trkpt>
      <trkpt lat="45.20969" lon="5.7272">
        <ele>771.40002441406</ele>
        <time>2021-06-26T04:27:21.000Z</time>
      </trkpt>
      <trkpt lat="45.2097" lon="5.72721">
        <ele>772.59997558594</ele>
        <time>2021-06-26T04:27:23.000Z</time>
      </trkpt>
      <trkpt lat="45.2097" lon="5.72722">
        <ele>772.59997558594</ele>
        <time>2021-06-26T04:27:24.000Z</time>
      </trkpt>
      <trkpt lat="45.20972" lon="5.72725">
        <ele>773.79998779297</ele>
        <time>2021-06-26T04:27:28.000Z</time>
      </trkpt>
      <trkpt lat="45.20972" lon="5.72725">
        <ele>774.20001220703</ele>
        <time>2021-06-26T04:27:29.000Z</time>
      </trkpt>
      <trkpt lat="45.20973" lon="5.72726">
        <ele>774.40002441406</ele>
        <time>2021-06-26T04:27:31.000Z</time>
      </trkpt>
      <trkpt lat="45.20973" lon="5.72726">
        <ele>775</ele>
        <time>2021-06-26T04:27:32.000Z</time>
      </trkpt>
      <trkpt lat="45.20974" lon="5.72727">
        <ele>775.20001220703</ele>
        <time>2021-06-26T04:27:33.000Z</time>
      </trkpt>
      <trkpt lat="45.20978" lon="5.72732">
        <ele>776.59997558594</ele>
        <time>2021-06-26T04:27:36.000Z</time>
      </trkpt>
      <trkpt lat="45.2098" lon="5.72734">
        <ele>776.59997558594</ele>
        <time>2021-06-26T04:27:37.000Z</time>
      </trkpt>
      <trkpt lat="45.2098" lon="5.72737">
        <ele>776.79998779297</ele>
        <time>2021-06-26T04:27:39.000Z</time>
      </trkpt>
      <trkpt lat="45.20982" lon="5.72738">
        <ele>777.79998779297</ele>
        <time>2021-06-26T04:27:42.000Z</time>
      </trkpt>
      <trkpt lat="45.20982" lon="5.72739">
        <ele>778.59997558594</ele>
        <time>2021-06-26T04:27:43.000Z</time>
      </trkpt>
      <trkpt lat="45.20983" lon="5.7274">
        <ele>778.79998779297</ele>
        <time>2021-06-26T04:27:44.000Z</time>
      </trkpt>
      <trkpt lat="45.20983" lon="5.72742">
        <ele>779.59997558594</ele>
        <time>2021-06-26T04:27:47.000Z</time>
      </trkpt>
      <trkpt lat="45.20984" lon="5.72743">
        <ele>779.79998779297</ele>
        <time>2021-06-26T04:27:48.000Z</time>
      </trkpt>
      <trkpt lat="45.20984" lon="5.72743">
        <ele>780</ele>
        <time>2021-06-26T04:27:49.000Z</time>
      </trkpt>
      <trkpt lat="45.20985" lon="5.72745">
        <ele>781.20001220703</ele>
        <time>2021-06-26T04:27:51.000Z</time>
      </trkpt>
      <trkpt lat="45.20986" lon="5.72747">
        <ele>781.59997558594</ele>
        <time>2021-06-26T04:27:53.000Z</time>
      </trkpt>
      <trkpt lat="45.20987" lon="5.72751">
        <ele>781.79998779297</ele>
        <time>2021-06-26T04:27:55.000Z</time>
      </trkpt>
      <trkpt lat="45.2099" lon="5.72752">
        <ele>782.40002441406</ele>
        <time>2021-06-26T04:27:57.000Z</time>
      </trkpt>
      <trkpt lat="45.20991" lon="5.72752">
        <ele>782.40002441406</ele>
        <time>2021-06-26T04:27:58.000Z</time>
      </trkpt>
      <trkpt lat="45.20991" lon="5.72751">
        <ele>783.59997558594</ele>
        <time>2021-06-26T04:28:00.000Z</time>
      </trkpt>
      <trkpt lat="45.20992" lon="5.72751">
        <ele>783.59997558594</ele>
        <time>2021-06-26T04:28:01.000Z</time>
      </trkpt>
      <trkpt lat="45.20991" lon="5.72751">
        <ele>784.20001220703</ele>
        <time>2021-06-26T04:28:03.000Z</time>
      </trkpt>
      <trkpt lat="45.20992" lon="5.72751">
        <ele>784.40002441406</ele>
        <time>2021-06-26T04:28:06.000Z</time>
      </trkpt>
      <trkpt lat="45.20993" lon="5.72751">
        <ele>784.79998779297</ele>
        <time>2021-06-26T04:28:07.000Z</time>
      </trkpt>
      <trkpt lat="45.20994" lon="5.72752">
        <ele>785.59997558594</ele>
        <time>2021-06-26T04:28:08.000Z</time>
      </trkpt>
      <trkpt lat="45.20995" lon="5.72752">
        <ele>786.20001220703</ele>
        <time>2021-06-26T04:28:11.000Z</time>
      </trkpt>
      <trkpt lat="45.20995" lon="5.72751">
        <ele>787</ele>
        <time>2021-06-26T04:28:12.000Z</time>
      </trkpt>
      <trkpt lat="45.20994" lon="5.72748">
        <ele>787.20001220703</ele>
        <time>2021-06-26T04:28:15.000Z</time>
      </trkpt>
      <trkpt lat="45.20995" lon="5.72746">
        <ele>788</ele>
        <time>2021-06-26T04:28:17.000Z</time>
      </trkpt>
      <trkpt lat="45.20996" lon="5.72746">
        <ele>788.59997558594</ele>
        <time>2021-06-26T04:28:18.000Z</time>
      </trkpt>
      <trkpt lat="45.20997" lon="5.72744">
        <ele>789.20001220703</ele>
        <time>2021-06-26T04:28:20.000Z</time>
      </trkpt>
      <trkpt lat="45.20998" lon="5.72743">
        <ele>789.59997558594</ele>
        <time>2021-06-26T04:28:22.000Z</time>
      </trkpt>
      <trkpt lat="45.20999" lon="5.72742">
        <ele>790</ele>
        <time>2021-06-26T04:28:23.000Z</time>
      </trkpt>
      <trkpt lat="45.21" lon="5.72742">
        <ele>790</ele>
        <time>2021-06-26T04:28:24.000Z</time>
      </trkpt>
      <trkpt lat="45.21" lon="5.72741">
        <ele>790.40002441406</ele>
        <time>2021-06-26T04:28:25.000Z</time>
      </trkpt>
      <trkpt lat="45.21001" lon="5.7274">
        <ele>791</ele>
        <time>2021-06-26T04:28:26.000Z</time>
      </trkpt>
      <trkpt lat="45.21002" lon="5.72739">
        <ele>791.20001220703</ele>
        <time>2021-06-26T04:28:28.000Z</time>
      </trkpt>
      <trkpt lat="45.21003" lon="5.72739">
        <ele>791.40002441406</ele>
        <time>2021-06-26T04:28:29.000Z</time>
      </trkpt>
      <trkpt lat="45.21004" lon="5.72738">
        <ele>792.20001220703</ele>
        <time>2021-06-26T04:28:30.000Z</time>
      </trkpt>
      <trkpt lat="45.21009" lon="5.72737">
        <ele>793.20001220703</ele>
        <time>2021-06-26T04:28:34.000Z</time>
      </trkpt>
      <trkpt lat="45.2101" lon="5.72737">
        <ele>793.79998779297</ele>
        <time>2021-06-26T04:28:35.000Z</time>
      </trkpt>
      <trkpt lat="45.21011" lon="5.72738">
        <ele>793.79998779297</ele>
        <time>2021-06-26T04:28:36.000Z</time>
      </trkpt>
      <trkpt lat="45.21014" lon="5.72738">
        <ele>794.20001220703</ele>
        <time>2021-06-26T04:28:38.000Z</time>
      </trkpt>
      <trkpt lat="45.21017" lon="5.72739">
        <ele>795.79998779297</ele>
        <time>2021-06-26T04:28:41.000Z</time>
      </trkpt>
      <trkpt lat="45.21018" lon="5.72739">
        <ele>795.79998779297</ele>
        <time>2021-06-26T04:28:42.000Z</time>
      </trkpt>
      <trkpt lat="45.21021" lon="5.72737">
        <ele>796.79998779297</ele>
        <time>2021-06-26T04:28:46.000Z</time>
      </trkpt>
      <trkpt lat="45.21025" lon="5.72737">
        <ele>797.40002441406</ele>
        <time>2021-06-26T04:28:49.000Z</time>
      </trkpt>
      <trkpt lat="45.21027" lon="5.72737">
        <ele>798.59997558594</ele>
        <time>2021-06-26T04:28:51.000Z</time>
      </trkpt>
      <trkpt lat="45.21028" lon="5.72737">
        <ele>798.79998779297</ele>
        <time>2021-06-26T04:28:52.000Z</time>
      </trkpt>
      <trkpt lat="45.21034" lon="5.72739">
        <ele>799.59997558594</ele>
        <time>2021-06-26T04:28:57.000Z</time>
      </trkpt>
      <trkpt lat="45.21035" lon="5.7274">
        <ele>800</ele>
        <time>2021-06-26T04:28:58.000Z</time>
      </trkpt>
      <trkpt lat="45.21036" lon="5.72739">
        <ele>800.59997558594</ele>
        <time>2021-06-26T04:28:59.000Z</time>
      </trkpt>
      <trkpt lat="45.21036" lon="5.7274">
        <ele>800.79998779297</ele>
        <time>2021-06-26T04:29:00.000Z</time>
      </trkpt>
      <trkpt lat="45.21037" lon="5.72739">
        <ele>801</ele>
        <time>2021-06-26T04:29:01.000Z</time>
      </trkpt>
      <trkpt lat="45.21038" lon="5.72739">
        <ele>801.79998779297</ele>
        <time>2021-06-26T04:29:03.000Z</time>
      </trkpt>
      <trkpt lat="45.21039" lon="5.72739">
        <ele>802</ele>
        <time>2021-06-26T04:29:04.000Z</time>
      </trkpt>
      <trkpt lat="45.21044" lon="5.7274">
        <ele>802.59997558594</ele>
        <time>2021-06-26T04:29:07.000Z</time>
      </trkpt>
      <trkpt lat="45.21046" lon="5.7274">
        <ele>803.20001220703</ele>
        <time>2021-06-26T04:29:09.000Z</time>
      </trkpt>
      <trkpt lat="45.21049" lon="5.72741">
        <ele>803.59997558594</ele>
        <time>2021-06-26T04:29:11.000Z</time>
      </trkpt>
      <trkpt lat="45.21052" lon="5.72744">
        <ele>804.20001220703</ele>
        <time>2021-06-26T04:29:14.000Z</time>
      </trkpt>
      <trkpt lat="45.21052" lon="5.7275">
        <ele>804.79998779297</ele>
        <time>2021-06-26T04:29:17.000Z</time>
      </trkpt>
      <trkpt lat="45.21053" lon="5.72753">
        <ele>804.79998779297</ele>
        <time>2021-06-26T04:29:18.000Z</time>
      </trkpt>
      <trkpt lat="45.21055" lon="5.72755">
        <ele>805.20001220703</ele>
        <time>2021-06-26T04:29:20.000Z</time>
      </trkpt>
      <trkpt lat="45.21058" lon="5.72759">
        <ele>805.40002441406</ele>
        <time>2021-06-26T04:29:22.000Z</time>
      </trkpt>
      <trkpt lat="45.21064" lon="5.72773">
        <ele>805.79998779297</ele>
        <time>2021-06-26T04:29:28.000Z</time>
      </trkpt>
      <trkpt lat="45.21065" lon="5.72776">
        <ele>805.79998779297</ele>
        <time>2021-06-26T04:29:30.000Z</time>
      </trkpt>
      <trkpt lat="45.21069" lon="5.72788">
        <ele>806</ele>
        <time>2021-06-26T04:29:37.000Z</time>
      </trkpt>
      <trkpt lat="45.21072" lon="5.72794">
        <ele>806</ele>
        <time>2021-06-26T04:29:39.000Z</time>
      </trkpt>
      <trkpt lat="45.21073" lon="5.72798">
        <ele>806.40002441406</ele>
        <time>2021-06-26T04:29:40.000Z</time>
      </trkpt>
      <trkpt lat="45.21075" lon="5.72803">
        <ele>806.59997558594</ele>
        <time>2021-06-26T04:29:42.000Z</time>
      </trkpt>
      <trkpt lat="45.21078" lon="5.72806">
        <ele>806.59997558594</ele>
        <time>2021-06-26T04:29:44.000Z</time>
      </trkpt>
      <trkpt lat="45.21082" lon="5.72819">
        <ele>807.40002441406</ele>
        <time>2021-06-26T04:29:50.000Z</time>
      </trkpt>
      <trkpt lat="45.21083" lon="5.72822">
        <ele>807.79998779297</ele>
        <time>2021-06-26T04:29:52.000Z</time>
      </trkpt>
      <trkpt lat="45.21083" lon="5.72825">
        <ele>808.20001220703</ele>
        <time>2021-06-26T04:29:54.000Z</time>
      </trkpt>
      <trkpt lat="45.21083" lon="5.72827">
        <ele>808.40002441406</ele>
        <time>2021-06-26T04:29:55.000Z</time>
      </trkpt>
      <trkpt lat="45.21083" lon="5.72829">
        <ele>808.59997558594</ele>
        <time>2021-06-26T04:29:56.000Z</time>
      </trkpt>
      <trkpt lat="45.21084" lon="5.7283">
        <ele>808.79998779297</ele>
        <time>2021-06-26T04:29:57.000Z</time>
      </trkpt>
      <trkpt lat="45.21086" lon="5.72833">
        <ele>809</ele>
        <time>2021-06-26T04:30:00.000Z</time>
      </trkpt>
      <trkpt lat="45.21088" lon="5.72835">
        <ele>809.20001220703</ele>
        <time>2021-06-26T04:30:01.000Z</time>
      </trkpt>
      <trkpt lat="45.21089" lon="5.7284">
        <ele>809.79998779297</ele>
        <time>2021-06-26T04:30:03.000Z</time>
      </trkpt>
      <trkpt lat="45.21091" lon="5.72843">
        <ele>810</ele>
        <time>2021-06-26T04:30:05.000Z</time>
      </trkpt>
      <trkpt lat="45.21093" lon="5.72845">
        <ele>810.20001220703</ele>
        <time>2021-06-26T04:30:07.000Z</time>
      </trkpt>
      <trkpt lat="45.21094" lon="5.72847">
        <ele>811.20001220703</ele>
        <time>2021-06-26T04:30:09.000Z</time>
      </trkpt>
      <trkpt lat="45.21095" lon="5.72848">
        <ele>811.40002441406</ele>
        <time>2021-06-26T04:30:10.000Z</time>
      </trkpt>
      <trkpt lat="45.21096" lon="5.72849">
        <ele>811.40002441406</ele>
        <time>2021-06-26T04:30:11.000Z</time>
      </trkpt>
      <trkpt lat="45.21097" lon="5.7285">
        <ele>811.40002441406</ele>
        <time>2021-06-26T04:30:12.000Z</time>
      </trkpt>
      <trkpt lat="45.211" lon="5.72856">
        <ele>812.59997558594</ele>
        <time>2021-06-26T04:30:15.000Z</time>
      </trkpt>
      <trkpt lat="45.21103" lon="5.72859">
        <ele>812.79998779297</ele>
        <time>2021-06-26T04:30:17.000Z</time>
      </trkpt>
      <trkpt lat="45.21106" lon="5.72865">
        <ele>813.79998779297</ele>
        <time>2021-06-26T04:30:21.000Z</time>
      </trkpt>
      <trkpt lat="45.21108" lon="5.72867">
        <ele>814.40002441406</ele>
        <time>2021-06-26T04:30:23.000Z</time>
      </trkpt>
      <trkpt lat="45.2111" lon="5.72869">
        <ele>814.59997558594</ele>
        <time>2021-06-26T04:30:26.000Z</time>
      </trkpt>
      <trkpt lat="45.21111" lon="5.7287">
        <ele>814.59997558594</ele>
        <time>2021-06-26T04:30:27.000Z</time>
      </trkpt>
      <trkpt lat="45.21112" lon="5.72871">
        <ele>814.79998779297</ele>
        <time>2021-06-26T04:30:28.000Z</time>
      </trkpt>
      <trkpt lat="45.21113" lon="5.72872">
        <ele>815.40002441406</ele>
        <time>2021-06-26T04:30:29.000Z</time>
      </trkpt>
      <trkpt lat="45.21116" lon="5.72873">
        <ele>815.79998779297</ele>
        <time>2021-06-26T04:30:31.000Z</time>
      </trkpt>
      <trkpt lat="45.21118" lon="5.72874">
        <ele>816</ele>
        <time>2021-06-26T04:30:33.000Z</time>
      </trkpt>
      <trkpt lat="45.2112" lon="5.72876">
        <ele>817</ele>
        <time>2021-06-26T04:30:35.000Z</time>
      </trkpt>
      <trkpt lat="45.21124" lon="5.72879">
        <ele>818.20001220703</ele>
        <time>2021-06-26T04:30:39.000Z</time>
      </trkpt>
      <trkpt lat="45.21126" lon="5.7288">
        <ele>818.40002441406</ele>
        <time>2021-06-26T04:30:40.000Z</time>
      </trkpt>
      <trkpt lat="45.2113" lon="5.72882">
        <ele>819.40002441406</ele>
        <time>2021-06-26T04:30:43.000Z</time>
      </trkpt>
      <trkpt lat="45.21131" lon="5.72882">
        <ele>819.79998779297</ele>
        <time>2021-06-26T04:30:45.000Z</time>
      </trkpt>
      <trkpt lat="45.21132" lon="5.72883">
        <ele>820.40002441406</ele>
        <time>2021-06-26T04:30:47.000Z</time>
      </trkpt>
      <trkpt lat="45.21134" lon="5.72884">
        <ele>821.59997558594</ele>
        <time>2021-06-26T04:30:49.000Z</time>
      </trkpt>
      <trkpt lat="45.21136" lon="5.72885">
        <ele>821.59997558594</ele>
        <time>2021-06-26T04:30:50.000Z</time>
      </trkpt>
      <trkpt lat="45.21141" lon="5.72885">
        <ele>822.20001220703</ele>
        <time>2021-06-26T04:30:53.000Z</time>
      </trkpt>
      <trkpt lat="45.21146" lon="5.72888">
        <ele>822.79998779297</ele>
        <time>2021-06-26T04:30:56.000Z</time>
      </trkpt>
      <trkpt lat="45.21148" lon="5.72888">
        <ele>823</ele>
        <time>2021-06-26T04:30:57.000Z</time>
      </trkpt>
      <trkpt lat="45.21159" lon="5.72891">
        <ele>823.79998779297</ele>
        <time>2021-06-26T04:31:03.000Z</time>
      </trkpt>
      <trkpt lat="45.21162" lon="5.72892">
        <ele>824</ele>
        <time>2021-06-26T04:31:04.000Z</time>
      </trkpt>
      <trkpt lat="45.21169" lon="5.72896">
        <ele>825.40002441406</ele>
        <time>2021-06-26T04:31:08.000Z</time>
      </trkpt>
      <trkpt lat="45.21173" lon="5.72898">
        <ele>826.59997558594</ele>
        <time>2021-06-26T04:31:12.000Z</time>
      </trkpt>
      <trkpt lat="45.21177" lon="5.729">
        <ele>827.20001220703</ele>
        <time>2021-06-26T04:31:15.000Z</time>
      </trkpt>
      <trkpt lat="45.2118" lon="5.72902">
        <ele>828</ele>
        <time>2021-06-26T04:31:17.000Z</time>
      </trkpt>
      <trkpt lat="45.21181" lon="5.72903">
        <ele>828</ele>
        <time>2021-06-26T04:31:18.000Z</time>
      </trkpt>
      <trkpt lat="45.21184" lon="5.72906">
        <ele>828.40002441406</ele>
        <time>2021-06-26T04:31:20.000Z</time>
      </trkpt>
      <trkpt lat="45.21186" lon="5.72908">
        <ele>829.20001220703</ele>
        <time>2021-06-26T04:31:22.000Z</time>
      </trkpt>
      <trkpt lat="45.21189" lon="5.72911">
        <ele>829.40002441406</ele>
        <time>2021-06-26T04:31:24.000Z</time>
      </trkpt>
      <trkpt lat="45.21196" lon="5.72917">
        <ele>830.59997558594</ele>
        <time>2021-06-26T04:31:28.000Z</time>
      </trkpt>
      <trkpt lat="45.21198" lon="5.72921">
        <ele>830.79998779297</ele>
        <time>2021-06-26T04:31:30.000Z</time>
      </trkpt>
      <trkpt lat="45.21201" lon="5.72927">
        <ele>831.59997558594</ele>
        <time>2021-06-26T04:31:33.000Z</time>
      </trkpt>
      <trkpt lat="45.21203" lon="5.7293">
        <ele>831.59997558594</ele>
        <time>2021-06-26T04:31:35.000Z</time>
      </trkpt>
      <trkpt lat="45.21204" lon="5.72932">
        <ele>832.40002441406</ele>
        <time>2021-06-26T04:31:37.000Z</time>
      </trkpt>
      <trkpt lat="45.21205" lon="5.72933">
        <ele>832.59997558594</ele>
        <time>2021-06-26T04:31:38.000Z</time>
      </trkpt>
      <trkpt lat="45.21209" lon="5.72936">
        <ele>833.40002441406</ele>
        <time>2021-06-26T04:31:42.000Z</time>
      </trkpt>
      <trkpt lat="45.21209" lon="5.72936">
        <ele>833.59997558594</ele>
        <time>2021-06-26T04:31:43.000Z</time>
      </trkpt>
      <trkpt lat="45.21211" lon="5.72936">
        <ele>833.59997558594</ele>
        <time>2021-06-26T04:31:44.000Z</time>
      </trkpt>
      <trkpt lat="45.21212" lon="5.72936">
        <ele>833.79998779297</ele>
        <time>2021-06-26T04:31:45.000Z</time>
      </trkpt>
      <trkpt lat="45.21212" lon="5.72936">
        <ele>834</ele>
        <time>2021-06-26T04:31:46.000Z</time>
      </trkpt>
      <trkpt lat="45.21211" lon="5.72937">
        <ele>835.20001220703</ele>
        <time>2021-06-26T04:31:48.000Z</time>
      </trkpt>
      <trkpt lat="45.2121" lon="5.72937">
        <ele>835.20001220703</ele>
        <time>2021-06-26T04:31:49.000Z</time>
      </trkpt>
      <trkpt lat="45.21209" lon="5.72935">
        <ele>835.40002441406</ele>
        <time>2021-06-26T04:31:51.000Z</time>
      </trkpt>
      <trkpt lat="45.21207" lon="5.72932">
        <ele>836</ele>
        <time>2021-06-26T04:31:54.000Z</time>
      </trkpt>
      <trkpt lat="45.21207" lon="5.7293">
        <ele>836.20001220703</ele>
        <time>2021-06-26T04:31:55.000Z</time>
      </trkpt>
      <trkpt lat="45.21206" lon="5.72926">
        <ele>837.59997558594</ele>
        <time>2021-06-26T04:31:58.000Z</time>
      </trkpt>
      <trkpt lat="45.21206" lon="5.72925">
        <ele>837.79998779297</ele>
        <time>2021-06-26T04:31:59.000Z</time>
      </trkpt>
      <trkpt lat="45.21205" lon="5.72919">
        <ele>838.59997558594</ele>
        <time>2021-06-26T04:32:03.000Z</time>
      </trkpt>
      <trkpt lat="45.21205" lon="5.72916">
        <ele>839.20001220703</ele>
        <time>2021-06-26T04:32:05.000Z</time>
      </trkpt>
      <trkpt lat="45.21208" lon="5.72915">
        <ele>839.79998779297</ele>
        <time>2021-06-26T04:32:07.000Z</time>
      </trkpt>
      <trkpt lat="45.2121" lon="5.72916">
        <ele>840</ele>
        <time>2021-06-26T04:32:08.000Z</time>
      </trkpt>
      <trkpt lat="45.21214" lon="5.72916">
        <ele>840.40002441406</ele>
        <time>2021-06-26T04:32:10.000Z</time>
      </trkpt>
      <trkpt lat="45.21215" lon="5.72916">
        <ele>840.79998779297</ele>
        <time>2021-06-26T04:32:11.000Z</time>
      </trkpt>
      <trkpt lat="45.21216" lon="5.72917">
        <ele>841</ele>
        <time>2021-06-26T04:32:13.000Z</time>
      </trkpt>
      <trkpt lat="45.21219" lon="5.72918">
        <ele>841.40002441406</ele>
        <time>2021-06-26T04:32:15.000Z</time>
      </trkpt>
      <trkpt lat="45.2122" lon="5.72918">
        <ele>841.79998779297</ele>
        <time>2021-06-26T04:32:16.000Z</time>
      </trkpt>
      <trkpt lat="45.21223" lon="5.72917">
        <ele>842.79998779297</ele>
        <time>2021-06-26T04:32:19.000Z</time>
      </trkpt>
      <trkpt lat="45.21225" lon="5.72919">
        <ele>843.40002441406</ele>
        <time>2021-06-26T04:32:21.000Z</time>
      </trkpt>
      <trkpt lat="45.21226" lon="5.7292">
        <ele>843.59997558594</ele>
        <time>2021-06-26T04:32:22.000Z</time>
      </trkpt>
      <trkpt lat="45.21226" lon="5.72922">
        <ele>843.59997558594</ele>
        <time>2021-06-26T04:32:23.000Z</time>
      </trkpt>
      <trkpt lat="45.21229" lon="5.72925">
        <ele>843.79998779297</ele>
        <time>2021-06-26T04:32:25.000Z</time>
      </trkpt>
      <trkpt lat="45.21233" lon="5.72928">
        <ele>845</ele>
        <time>2021-06-26T04:32:29.000Z</time>
      </trkpt>
      <trkpt lat="45.21234" lon="5.72929">
        <ele>845</ele>
        <time>2021-06-26T04:32:30.000Z</time>
      </trkpt>
      <trkpt lat="45.21235" lon="5.72929">
        <ele>845</ele>
        <time>2021-06-26T04:32:32.000Z</time>
      </trkpt>
      <trkpt lat="45.21237" lon="5.72929">
        <ele>845.79998779297</ele>
        <time>2021-06-26T04:32:34.000Z</time>
      </trkpt>
      <trkpt lat="45.21238" lon="5.7293">
        <ele>846</ele>
        <time>2021-06-26T04:32:35.000Z</time>
      </trkpt>
      <trkpt lat="45.21243" lon="5.72932">
        <ele>846.79998779297</ele>
        <time>2021-06-26T04:32:39.000Z</time>
      </trkpt>
      <trkpt lat="45.21244" lon="5.72932">
        <ele>847.40002441406</ele>
        <time>2021-06-26T04:32:40.000Z</time>
      </trkpt>
      <trkpt lat="45.21245" lon="5.72932">
        <ele>847.40002441406</ele>
        <time>2021-06-26T04:32:41.000Z</time>
      </trkpt>
      <trkpt lat="45.21248" lon="5.72932">
        <ele>847.79998779297</ele>
        <time>2021-06-26T04:32:43.000Z</time>
      </trkpt>
      <trkpt lat="45.21249" lon="5.72932">
        <ele>848.40002441406</ele>
        <time>2021-06-26T04:32:44.000Z</time>
      </trkpt>
      <trkpt lat="45.21253" lon="5.72934">
        <ele>849.40002441406</ele>
        <time>2021-06-26T04:32:48.000Z</time>
      </trkpt>
      <trkpt lat="45.21253" lon="5.72934">
        <ele>849.59997558594</ele>
        <time>2021-06-26T04:32:49.000Z</time>
      </trkpt>
      <trkpt lat="45.21257" lon="5.72938">
        <ele>850.59997558594</ele>
        <time>2021-06-26T04:32:52.000Z</time>
      </trkpt>
      <trkpt lat="45.21258" lon="5.72939">
        <ele>850.79998779297</ele>
        <time>2021-06-26T04:32:53.000Z</time>
      </trkpt>
      <trkpt lat="45.2126" lon="5.72939">
        <ele>851.20001220703</ele>
        <time>2021-06-26T04:32:55.000Z</time>
      </trkpt>
      <trkpt lat="45.21261" lon="5.7294">
        <ele>851.59997558594</ele>
        <time>2021-06-26T04:32:56.000Z</time>
      </trkpt>
      <trkpt lat="45.21262" lon="5.7294">
        <ele>851.79998779297</ele>
        <time>2021-06-26T04:32:57.000Z</time>
      </trkpt>
      <trkpt lat="45.21264" lon="5.72941">
        <ele>852.40002441406</ele>
        <time>2021-06-26T04:32:59.000Z</time>
      </trkpt>
      <trkpt lat="45.21265" lon="5.72941">
        <ele>853</ele>
        <time>2021-06-26T04:33:00.000Z</time>
      </trkpt>
      <trkpt lat="45.21267" lon="5.72942">
        <ele>854</ele>
        <time>2021-06-26T04:33:03.000Z</time>
      </trkpt>
      <trkpt lat="45.2127" lon="5.72945">
        <ele>854.79998779297</ele>
        <time>2021-06-26T04:33:06.000Z</time>
      </trkpt>
      <trkpt lat="45.21272" lon="5.72946">
        <ele>855.20001220703</ele>
        <time>2021-06-26T04:33:07.000Z</time>
      </trkpt>
      <trkpt lat="45.21277" lon="5.72952">
        <ele>856.20001220703</ele>
        <time>2021-06-26T04:33:11.000Z</time>
      </trkpt>
      <trkpt lat="45.21279" lon="5.72955">
        <ele>856.40002441406</ele>
        <time>2021-06-26T04:33:13.000Z</time>
      </trkpt>
      <trkpt lat="45.21279" lon="5.72957">
        <ele>857.20001220703</ele>
        <time>2021-06-26T04:33:14.000Z</time>
      </trkpt>
      <trkpt lat="45.2128" lon="5.72957">
        <ele>857.20001220703</ele>
        <time>2021-06-26T04:33:15.000Z</time>
      </trkpt>
      <trkpt lat="45.21283" lon="5.72961">
        <ele>858</ele>
        <time>2021-06-26T04:33:19.000Z</time>
      </trkpt>
      <trkpt lat="45.21284" lon="5.72963">
        <ele>858.20001220703</ele>
        <time>2021-06-26T04:33:20.000Z</time>
      </trkpt>
      <trkpt lat="45.21287" lon="5.72965">
        <ele>859.40002441406</ele>
        <time>2021-06-26T04:33:23.000Z</time>
      </trkpt>
      <trkpt lat="45.21294" lon="5.72969">
        <ele>860.59997558594</ele>
        <time>2021-06-26T04:33:28.000Z</time>
      </trkpt>
      <trkpt lat="45.21296" lon="5.72972">
        <ele>861.20001220703</ele>
        <time>2021-06-26T04:33:30.000Z</time>
      </trkpt>
      <trkpt lat="45.21298" lon="5.72974">
        <ele>862</ele>
        <time>2021-06-26T04:33:33.000Z</time>
      </trkpt>
      <trkpt lat="45.213" lon="5.72976">
        <ele>862.59997558594</ele>
        <time>2021-06-26T04:33:36.000Z</time>
      </trkpt>
      <trkpt lat="45.21301" lon="5.72977">
        <ele>862.59997558594</ele>
        <time>2021-06-26T04:33:38.000Z</time>
      </trkpt>
      <trkpt lat="45.21302" lon="5.72978">
        <ele>863.40002441406</ele>
        <time>2021-06-26T04:33:39.000Z</time>
      </trkpt>
      <trkpt lat="45.21305" lon="5.7298">
        <ele>863.79998779297</ele>
        <time>2021-06-26T04:33:42.000Z</time>
      </trkpt>
      <trkpt lat="45.21307" lon="5.72984">
        <ele>864.59997558594</ele>
        <time>2021-06-26T04:33:45.000Z</time>
      </trkpt>
      <trkpt lat="45.21311" lon="5.72991">
        <ele>865</ele>
        <time>2021-06-26T04:33:49.000Z</time>
      </trkpt>
      <trkpt lat="45.21312" lon="5.72992">
        <ele>865.59997558594</ele>
        <time>2021-06-26T04:33:50.000Z</time>
      </trkpt>
      <trkpt lat="45.21315" lon="5.72996">
        <ele>865.79998779297</ele>
        <time>2021-06-26T04:33:52.000Z</time>
      </trkpt>
      <trkpt lat="45.21316" lon="5.72998">
        <ele>866.20001220703</ele>
        <time>2021-06-26T04:33:54.000Z</time>
      </trkpt>
      <trkpt lat="45.21317" lon="5.72999">
        <ele>866.59997558594</ele>
        <time>2021-06-26T04:33:55.000Z</time>
      </trkpt>
      <trkpt lat="45.21318" lon="5.73001">
        <ele>866.59997558594</ele>
        <time>2021-06-26T04:33:56.000Z</time>
      </trkpt>
      <trkpt lat="45.21319" lon="5.73004">
        <ele>867.20001220703</ele>
        <time>2021-06-26T04:33:59.000Z</time>
      </trkpt>
      <trkpt lat="45.21319" lon="5.73004">
        <ele>867.79998779297</ele>
        <time>2021-06-26T04:34:00.000Z</time>
      </trkpt>
      <trkpt lat="45.2132" lon="5.73005">
        <ele>868</ele>
        <time>2021-06-26T04:34:01.000Z</time>
      </trkpt>
      <trkpt lat="45.21321" lon="5.73006">
        <ele>868.40002441406</ele>
        <time>2021-06-26T04:34:03.000Z</time>
      </trkpt>
      <trkpt lat="45.21325" lon="5.73009">
        <ele>869.20001220703</ele>
        <time>2021-06-26T04:34:05.000Z</time>
      </trkpt>
      <trkpt lat="45.21326" lon="5.73012">
        <ele>869.20001220703</ele>
        <time>2021-06-26T04:34:07.000Z</time>
      </trkpt>
      <trkpt lat="45.21325" lon="5.73014">
        <ele>870.40002441406</ele>
        <time>2021-06-26T04:34:09.000Z</time>
      </trkpt>
      <trkpt lat="45.21326" lon="5.73015">
        <ele>871</ele>
        <time>2021-06-26T04:34:12.000Z</time>
      </trkpt>
      <trkpt lat="45.21329" lon="5.73017">
        <ele>872</ele>
        <time>2021-06-26T04:34:15.000Z</time>
      </trkpt>
      <trkpt lat="45.21332" lon="5.7302">
        <ele>872.40002441406</ele>
        <time>2021-06-26T04:34:18.000Z</time>
      </trkpt>
      <trkpt lat="45.21334" lon="5.73023">
        <ele>873.59997558594</ele>
        <time>2021-06-26T04:34:21.000Z</time>
      </trkpt>
      <trkpt lat="45.21336" lon="5.73024">
        <ele>874.20001220703</ele>
        <time>2021-06-26T04:34:23.000Z</time>
      </trkpt>
      <trkpt lat="45.21339" lon="5.73027">
        <ele>875.20001220703</ele>
        <time>2021-06-26T04:34:26.000Z</time>
      </trkpt>
      <trkpt lat="45.21342" lon="5.73032">
        <ele>875.79998779297</ele>
        <time>2021-06-26T04:34:30.000Z</time>
      </trkpt>
      <trkpt lat="45.21344" lon="5.73035">
        <ele>876.40002441406</ele>
        <time>2021-06-26T04:34:32.000Z</time>
      </trkpt>
      <trkpt lat="45.21344" lon="5.73038">
        <ele>877.40002441406</ele>
        <time>2021-06-26T04:34:35.000Z</time>
      </trkpt>
      <trkpt lat="45.21347" lon="5.73042">
        <ele>878</ele>
        <time>2021-06-26T04:34:37.000Z</time>
      </trkpt>
      <trkpt lat="45.21348" lon="5.73044">
        <ele>878.20001220703</ele>
        <time>2021-06-26T04:34:38.000Z</time>
      </trkpt>
      <trkpt lat="45.2135" lon="5.73047">
        <ele>878.79998779297</ele>
        <time>2021-06-26T04:34:40.000Z</time>
      </trkpt>
      <trkpt lat="45.21351" lon="5.73048">
        <ele>879.40002441406</ele>
        <time>2021-06-26T04:34:41.000Z</time>
      </trkpt>
      <trkpt lat="45.21352" lon="5.73048">
        <ele>879.40002441406</ele>
        <time>2021-06-26T04:34:42.000Z</time>
      </trkpt>
      <trkpt lat="45.21354" lon="5.73051">
        <ele>879.79998779297</ele>
        <time>2021-06-26T04:34:44.000Z</time>
      </trkpt>
      <trkpt lat="45.21355" lon="5.73053">
        <ele>879.79998779297</ele>
        <time>2021-06-26T04:34:45.000Z</time>
      </trkpt>
      <trkpt lat="45.21357" lon="5.73056">
        <ele>880.59997558594</ele>
        <time>2021-06-26T04:34:47.000Z</time>
      </trkpt>
      <trkpt lat="45.21359" lon="5.73058">
        <ele>880.59997558594</ele>
        <time>2021-06-26T04:34:48.000Z</time>
      </trkpt>
      <trkpt lat="45.2136" lon="5.7306">
        <ele>881</ele>
        <time>2021-06-26T04:34:49.000Z</time>
      </trkpt>
      <trkpt lat="45.21366" lon="5.73066">
        <ele>882.20001220703</ele>
        <time>2021-06-26T04:34:54.000Z</time>
      </trkpt>
      <trkpt lat="45.21368" lon="5.73068">
        <ele>882.40002441406</ele>
        <time>2021-06-26T04:34:56.000Z</time>
      </trkpt>
      <trkpt lat="45.2137" lon="5.73076">
        <ele>882.59997558594</ele>
        <time>2021-06-26T04:35:02.000Z</time>
      </trkpt>
      <trkpt lat="45.21371" lon="5.73077">
        <ele>882.79998779297</ele>
        <time>2021-06-26T04:35:03.000Z</time>
      </trkpt>
      <trkpt lat="45.21378" lon="5.73086">
        <ele>883.40002441406</ele>
        <time>2021-06-26T04:35:08.000Z</time>
      </trkpt>
      <trkpt lat="45.21381" lon="5.7309">
        <ele>883.79998779297</ele>
        <time>2021-06-26T04:35:10.000Z</time>
      </trkpt>
      <trkpt lat="45.21392" lon="5.73103">
        <ele>884.59997558594</ele>
        <time>2021-06-26T04:35:16.000Z</time>
      </trkpt>
      <trkpt lat="45.21396" lon="5.73108">
        <ele>885</ele>
        <time>2021-06-26T04:35:19.000Z</time>
      </trkpt>
      <trkpt lat="45.21401" lon="5.73112">
        <ele>885.20001220703</ele>
        <time>2021-06-26T04:35:22.000Z</time>
      </trkpt>
      <trkpt lat="45.21405" lon="5.73115">
        <ele>885.59997558594</ele>
        <time>2021-06-26T04:35:24.000Z</time>
      </trkpt>
      <trkpt lat="45.21407" lon="5.7312">
        <ele>885.79998779297</ele>
        <time>2021-06-26T04:35:26.000Z</time>
      </trkpt>
      <trkpt lat="45.21412" lon="5.73129">
        <ele>886.79998779297</ele>
        <time>2021-06-26T04:35:30.000Z</time>
      </trkpt>
      <trkpt lat="45.21416" lon="5.73138">
        <ele>888.20001220703</ele>
        <time>2021-06-26T04:35:35.000Z</time>
      </trkpt>
      <trkpt lat="45.21416" lon="5.7314">
        <ele>888.40002441406</ele>
        <time>2021-06-26T04:35:36.000Z</time>
      </trkpt>
      <trkpt lat="45.21417" lon="5.7314">
        <ele>888.59997558594</ele>
        <time>2021-06-26T04:35:37.000Z</time>
      </trkpt>
      <trkpt lat="45.21419" lon="5.73142">
        <ele>889.20001220703</ele>
        <time>2021-06-26T04:35:39.000Z</time>
      </trkpt>
      <trkpt lat="45.21422" lon="5.73144">
        <ele>889.79998779297</ele>
        <time>2021-06-26T04:35:41.000Z</time>
      </trkpt>
      <trkpt lat="45.21423" lon="5.73146">
        <ele>889.79998779297</ele>
        <time>2021-06-26T04:35:43.000Z</time>
      </trkpt>
      <trkpt lat="45.21424" lon="5.73147">
        <ele>890.20001220703</ele>
        <time>2021-06-26T04:35:44.000Z</time>
      </trkpt>
      <trkpt lat="45.21425" lon="5.73149">
        <ele>890.20001220703</ele>
        <time>2021-06-26T04:35:45.000Z</time>
      </trkpt>
      <trkpt lat="45.21426" lon="5.73151">
        <ele>890.40002441406</ele>
        <time>2021-06-26T04:35:46.000Z</time>
      </trkpt>
      <trkpt lat="45.21427" lon="5.73152">
        <ele>890.40002441406</ele>
        <time>2021-06-26T04:35:47.000Z</time>
      </trkpt>
      <trkpt lat="45.21431" lon="5.73155">
        <ele>891</ele>
        <time>2021-06-26T04:35:50.000Z</time>
      </trkpt>
      <trkpt lat="45.21433" lon="5.73157">
        <ele>891.20001220703</ele>
        <time>2021-06-26T04:35:51.000Z</time>
      </trkpt>
      <trkpt lat="45.21434" lon="5.73158">
        <ele>891.40002441406</ele>
        <time>2021-06-26T04:35:52.000Z</time>
      </trkpt>
      <trkpt lat="45.21436" lon="5.73159">
        <ele>892.40002441406</ele>
        <time>2021-06-26T04:35:55.000Z</time>
      </trkpt>
      <trkpt lat="45.21441" lon="5.73162">
        <ele>893.59997558594</ele>
        <time>2021-06-26T04:36:00.000Z</time>
      </trkpt>
      <trkpt lat="45.21442" lon="5.73163">
        <ele>893.79998779297</ele>
        <time>2021-06-26T04:36:01.000Z</time>
      </trkpt>
      <trkpt lat="45.21442" lon="5.73163">
        <ele>894.40002441406</ele>
        <time>2021-06-26T04:36:03.000Z</time>
      </trkpt>
      <trkpt lat="45.21443" lon="5.73163">
        <ele>895</ele>
        <time>2021-06-26T04:36:05.000Z</time>
      </trkpt>
      <trkpt lat="45.21443" lon="5.73163">
        <ele>895.40002441406</ele>
        <time>2021-06-26T04:36:06.000Z</time>
      </trkpt>
      <trkpt lat="45.21442" lon="5.73163">
        <ele>896.20001220703</ele>
        <time>2021-06-26T04:36:09.000Z</time>
      </trkpt>
      <trkpt lat="45.21441" lon="5.73164">
        <ele>896.79998779297</ele>
        <time>2021-06-26T04:36:10.000Z</time>
      </trkpt>
      <trkpt lat="45.21441" lon="5.73164">
        <ele>896.79998779297</ele>
        <time>2021-06-26T04:36:11.000Z</time>
      </trkpt>
      <trkpt lat="45.21441" lon="5.73164">
        <ele>896.79998779297</ele>
        <time>2021-06-26T04:36:12.000Z</time>
      </trkpt>
      <trkpt lat="45.21441" lon="5.73165">
        <ele>897.40002441406</ele>
        <time>2021-06-26T04:36:13.000Z</time>
      </trkpt>
      <trkpt lat="45.21443" lon="5.73166">
        <ele>897.79998779297</ele>
        <time>2021-06-26T04:36:15.000Z</time>
      </trkpt>
      <trkpt lat="45.21444" lon="5.73167">
        <ele>898.40002441406</ele>
        <time>2021-06-26T04:36:16.000Z</time>
      </trkpt>
      <trkpt lat="45.21445" lon="5.73168">
        <ele>898.79998779297</ele>
        <time>2021-06-26T04:36:17.000Z</time>
      </trkpt>
      <trkpt lat="45.21447" lon="5.73168">
        <ele>899.20001220703</ele>
        <time>2021-06-26T04:36:19.000Z</time>
      </trkpt>
      <trkpt lat="45.21449" lon="5.73169">
        <ele>899.59997558594</ele>
        <time>2021-06-26T04:36:20.000Z</time>
      </trkpt>
      <trkpt lat="45.2145" lon="5.7317">
        <ele>900.40002441406</ele>
        <time>2021-06-26T04:36:21.000Z</time>
      </trkpt>
      <trkpt lat="45.21451" lon="5.73171">
        <ele>900.59997558594</ele>
        <time>2021-06-26T04:36:22.000Z</time>
      </trkpt>
      <trkpt lat="45.21453" lon="5.73173">
        <ele>900.59997558594</ele>
        <time>2021-06-26T04:36:23.000Z</time>
      </trkpt>
      <trkpt lat="45.21457" lon="5.73178">
        <ele>901.59997558594</ele>
        <time>2021-06-26T04:36:26.000Z</time>
      </trkpt>
      <trkpt lat="45.21457" lon="5.7318">
        <ele>901.79998779297</ele>
        <time>2021-06-26T04:36:27.000Z</time>
      </trkpt>
      <trkpt lat="45.21462" lon="5.73185">
        <ele>902.20001220703</ele>
        <time>2021-06-26T04:36:29.000Z</time>
      </trkpt>
      <trkpt lat="45.21464" lon="5.73193">
        <ele>902.20001220703</ele>
        <time>2021-06-26T04:36:32.000Z</time>
      </trkpt>
      <trkpt lat="45.21464" lon="5.73202">
        <ele>902.40002441406</ele>
        <time>2021-06-26T04:36:35.000Z</time>
      </trkpt>
      <trkpt lat="45.21468" lon="5.73208">
        <ele>903</ele>
        <time>2021-06-26T04:36:38.000Z</time>
      </trkpt>
      <trkpt lat="45.21472" lon="5.73217">
        <ele>903.59997558594</ele>
        <time>2021-06-26T04:36:42.000Z</time>
      </trkpt>
      <trkpt lat="45.21475" lon="5.7322">
        <ele>904.20001220703</ele>
        <time>2021-06-26T04:36:44.000Z</time>
      </trkpt>
      <trkpt lat="45.21481" lon="5.73224">
        <ele>905</ele>
        <time>2021-06-26T04:36:47.000Z</time>
      </trkpt>
      <trkpt lat="45.21483" lon="5.73226">
        <ele>905.20001220703</ele>
        <time>2021-06-26T04:36:48.000Z</time>
      </trkpt>
      <trkpt lat="45.21488" lon="5.7323">
        <ele>906.40002441406</ele>
        <time>2021-06-26T04:36:51.000Z</time>
      </trkpt>
      <trkpt lat="45.2149" lon="5.73233">
        <ele>906.40002441406</ele>
        <time>2021-06-26T04:36:52.000Z</time>
      </trkpt>
      <trkpt lat="45.21491" lon="5.73236">
        <ele>907.40002441406</ele>
        <time>2021-06-26T04:36:55.000Z</time>
      </trkpt>
      <trkpt lat="45.21492" lon="5.73239">
        <ele>907.79998779297</ele>
        <time>2021-06-26T04:36:57.000Z</time>
      </trkpt>
      <trkpt lat="45.21494" lon="5.73243">
        <ele>907.79998779297</ele>
        <time>2021-06-26T04:36:59.000Z</time>
      </trkpt>
      <trkpt lat="45.21496" lon="5.73246">
        <ele>908.59997558594</ele>
        <time>2021-06-26T04:37:01.000Z</time>
      </trkpt>
      <trkpt lat="45.215" lon="5.73251">
        <ele>909</ele>
        <time>2021-06-26T04:37:04.000Z</time>
      </trkpt>
      <trkpt lat="45.21505" lon="5.73254">
        <ele>909.79998779297</ele>
        <time>2021-06-26T04:37:06.000Z</time>
      </trkpt>
      <trkpt lat="45.21509" lon="5.73257">
        <ele>910</ele>
        <time>2021-06-26T04:37:08.000Z</time>
      </trkpt>
      <trkpt lat="45.21508" lon="5.73261">
        <ele>910</ele>
        <time>2021-06-26T04:37:10.000Z</time>
      </trkpt>
      <trkpt lat="45.21506" lon="5.73276">
        <ele>909.59997558594</ele>
        <time>2021-06-26T04:37:15.000Z</time>
      </trkpt>
      <trkpt lat="45.21506" lon="5.73278">
        <ele>909.59997558594</ele>
        <time>2021-06-26T04:37:16.000Z</time>
      </trkpt>
      <trkpt lat="45.21508" lon="5.73286">
        <ele>909.59997558594</ele>
        <time>2021-06-26T04:37:19.000Z</time>
      </trkpt>
      <trkpt lat="45.21507" lon="5.7329">
        <ele>910.20001220703</ele>
        <time>2021-06-26T04:37:21.000Z</time>
      </trkpt>
      <trkpt lat="45.21507" lon="5.73294">
        <ele>910.79998779297</ele>
        <time>2021-06-26T04:37:23.000Z</time>
      </trkpt>
      <trkpt lat="45.21508" lon="5.733">
        <ele>911</ele>
        <time>2021-06-26T04:37:25.000Z</time>
      </trkpt>
      <trkpt lat="45.21511" lon="5.73303">
        <ele>911.59997558594</ele>
        <time>2021-06-26T04:37:27.000Z</time>
      </trkpt>
      <trkpt lat="45.21512" lon="5.73304">
        <ele>911.59997558594</ele>
        <time>2021-06-26T04:37:28.000Z</time>
      </trkpt>
      <trkpt lat="45.21513" lon="5.73305">
        <ele>912</ele>
        <time>2021-06-26T04:37:29.000Z</time>
      </trkpt>
      <trkpt lat="45.21519" lon="5.7331">
        <ele>912.79998779297</ele>
        <time>2021-06-26T04:37:33.000Z</time>
      </trkpt>
      <trkpt lat="45.2152" lon="5.7331">
        <ele>913.20001220703</ele>
        <time>2021-06-26T04:37:34.000Z</time>
      </trkpt>
      <trkpt lat="45.2153" lon="5.73312">
        <ele>913.79998779297</ele>
        <time>2021-06-26T04:37:39.000Z</time>
      </trkpt>
      <trkpt lat="45.21532" lon="5.73313">
        <ele>914.40002441406</ele>
        <time>2021-06-26T04:37:41.000Z</time>
      </trkpt>
      <trkpt lat="45.21536" lon="5.73316">
        <ele>914.79998779297</ele>
        <time>2021-06-26T04:37:44.000Z</time>
      </trkpt>
      <trkpt lat="45.21536" lon="5.73318">
        <ele>915.40002441406</ele>
        <time>2021-06-26T04:37:45.000Z</time>
      </trkpt>
      <trkpt lat="45.21539" lon="5.73323">
        <ele>916.20001220703</ele>
        <time>2021-06-26T04:37:48.000Z</time>
      </trkpt>
      <trkpt lat="45.21544" lon="5.73325">
        <ele>916.59997558594</ele>
        <time>2021-06-26T04:37:50.000Z</time>
      </trkpt>
      <trkpt lat="45.21545" lon="5.73325">
        <ele>916.59997558594</ele>
        <time>2021-06-26T04:37:51.000Z</time>
      </trkpt>
      <trkpt lat="45.21548" lon="5.73326">
        <ele>916.79998779297</ele>
        <time>2021-06-26T04:37:53.000Z</time>
      </trkpt>
      <trkpt lat="45.2155" lon="5.73328">
        <ele>917.79998779297</ele>
        <time>2021-06-26T04:37:55.000Z</time>
      </trkpt>
      <trkpt lat="45.21552" lon="5.73329">
        <ele>917.79998779297</ele>
        <time>2021-06-26T04:37:56.000Z</time>
      </trkpt>
      <trkpt lat="45.21555" lon="5.7333">
        <ele>918.59997558594</ele>
        <time>2021-06-26T04:37:59.000Z</time>
      </trkpt>
      <trkpt lat="45.21556" lon="5.7333">
        <ele>918.59997558594</ele>
        <time>2021-06-26T04:38:00.000Z</time>
      </trkpt>
      <trkpt lat="45.21558" lon="5.7333">
        <ele>919</ele>
        <time>2021-06-26T04:38:01.000Z</time>
      </trkpt>
      <trkpt lat="45.21562" lon="5.73333">
        <ele>919.59997558594</ele>
        <time>2021-06-26T04:38:04.000Z</time>
      </trkpt>
      <trkpt lat="45.21564" lon="5.73336">
        <ele>920</ele>
        <time>2021-06-26T04:38:06.000Z</time>
      </trkpt>
      <trkpt lat="45.21565" lon="5.73337">
        <ele>920.40002441406</ele>
        <time>2021-06-26T04:38:08.000Z</time>
      </trkpt>
      <trkpt lat="45.21568" lon="5.73339">
        <ele>920.79998779297</ele>
        <time>2021-06-26T04:38:10.000Z</time>
      </trkpt>
      <trkpt lat="45.21571" lon="5.73342">
        <ele>921.40002441406</ele>
        <time>2021-06-26T04:38:12.000Z</time>
      </trkpt>
      <trkpt lat="45.21582" lon="5.73347">
        <ele>922.20001220703</ele>
        <time>2021-06-26T04:38:17.000Z</time>
      </trkpt>
      <trkpt lat="45.21584" lon="5.73348">
        <ele>923.20001220703</ele>
        <time>2021-06-26T04:38:18.000Z</time>
      </trkpt>
      <trkpt lat="45.21594" lon="5.73351">
        <ele>924.59997558594</ele>
        <time>2021-06-26T04:38:23.000Z</time>
      </trkpt>
      <trkpt lat="45.21596" lon="5.73352">
        <ele>924.79998779297</ele>
        <time>2021-06-26T04:38:24.000Z</time>
      </trkpt>
      <trkpt lat="45.21602" lon="5.73358">
        <ele>925.59997558594</ele>
        <time>2021-06-26T04:38:28.000Z</time>
      </trkpt>
      <trkpt lat="45.21605" lon="5.73361">
        <ele>926.40002441406</ele>
        <time>2021-06-26T04:38:31.000Z</time>
      </trkpt>
      <trkpt lat="45.21608" lon="5.73366">
        <ele>927.20001220703</ele>
        <time>2021-06-26T04:38:34.000Z</time>
      </trkpt>
      <trkpt lat="45.21611" lon="5.73367">
        <ele>927.79998779297</ele>
        <time>2021-06-26T04:38:36.000Z</time>
      </trkpt>
      <trkpt lat="45.21615" lon="5.73369">
        <ele>928.59997558594</ele>
        <time>2021-06-26T04:38:38.000Z</time>
      </trkpt>
      <trkpt lat="45.2162" lon="5.73372">
        <ele>929.20001220703</ele>
        <time>2021-06-26T04:38:42.000Z</time>
      </trkpt>
      <trkpt lat="45.21621" lon="5.73373">
        <ele>929.79998779297</ele>
        <time>2021-06-26T04:38:43.000Z</time>
      </trkpt>
      <trkpt lat="45.21624" lon="5.73375">
        <ele>930.79998779297</ele>
        <time>2021-06-26T04:38:45.000Z</time>
      </trkpt>
      <trkpt lat="45.21625" lon="5.73377">
        <ele>930.79998779297</ele>
        <time>2021-06-26T04:38:46.000Z</time>
      </trkpt>
      <trkpt lat="45.21636" lon="5.73386">
        <ele>931.79998779297</ele>
        <time>2021-06-26T04:38:53.000Z</time>
      </trkpt>
      <trkpt lat="45.21642" lon="5.73389">
        <ele>933</ele>
        <time>2021-06-26T04:38:56.000Z</time>
      </trkpt>
      <trkpt lat="45.21647" lon="5.73393">
        <ele>933.20001220703</ele>
        <time>2021-06-26T04:38:59.000Z</time>
      </trkpt>
      <trkpt lat="45.21651" lon="5.73397">
        <ele>933.79998779297</ele>
        <time>2021-06-26T04:39:02.000Z</time>
      </trkpt>
      <trkpt lat="45.21654" lon="5.73404">
        <ele>934</ele>
        <time>2021-06-26T04:39:05.000Z</time>
      </trkpt>
      <trkpt lat="45.21656" lon="5.73406">
        <ele>934</ele>
        <time>2021-06-26T04:39:06.000Z</time>
      </trkpt>
      <trkpt lat="45.21665" lon="5.73422">
        <ele>935.40002441406</ele>
        <time>2021-06-26T04:39:13.000Z</time>
      </trkpt>
      <trkpt lat="45.21666" lon="5.73425">
        <ele>935.40002441406</ele>
        <time>2021-06-26T04:39:14.000Z</time>
      </trkpt>
      <trkpt lat="45.2167" lon="5.7344">
        <ele>936</ele>
        <time>2021-06-26T04:39:19.000Z</time>
      </trkpt>
      <trkpt lat="45.2167" lon="5.73442">
        <ele>936.59997558594</ele>
        <time>2021-06-26T04:39:20.000Z</time>
      </trkpt>
      <trkpt lat="45.2167" lon="5.73445">
        <ele>936.59997558594</ele>
        <time>2021-06-26T04:39:21.000Z</time>
      </trkpt>
      <trkpt lat="45.2167" lon="5.73448">
        <ele>936.79998779297</ele>
        <time>2021-06-26T04:39:22.000Z</time>
      </trkpt>
      <trkpt lat="45.21671" lon="5.73461">
        <ele>937.59997558594</ele>
        <time>2021-06-26T04:39:27.000Z</time>
      </trkpt>
      <trkpt lat="45.21672" lon="5.73463">
        <ele>937.79998779297</ele>
        <time>2021-06-26T04:39:28.000Z</time>
      </trkpt>
      <trkpt lat="45.21676" lon="5.73474">
        <ele>938.79998779297</ele>
        <time>2021-06-26T04:39:32.000Z</time>
      </trkpt>
      <trkpt lat="45.21677" lon="5.73476">
        <ele>939</ele>
        <time>2021-06-26T04:39:33.000Z</time>
      </trkpt>
      <trkpt lat="45.21677" lon="5.73478">
        <ele>939.59997558594</ele>
        <time>2021-06-26T04:39:35.000Z</time>
      </trkpt>
      <trkpt lat="45.21676" lon="5.73476">
        <ele>940</ele>
        <time>2021-06-26T04:39:38.000Z</time>
      </trkpt>
      <trkpt lat="45.21675" lon="5.73475">
        <ele>940.79998779297</ele>
        <time>2021-06-26T04:39:40.000Z</time>
      </trkpt>
      <trkpt lat="45.21675" lon="5.73472">
        <ele>941.20001220703</ele>
        <time>2021-06-26T04:39:42.000Z</time>
      </trkpt>
      <trkpt lat="45.21672" lon="5.73465">
        <ele>941.79998779297</ele>
        <time>2021-06-26T04:39:45.000Z</time>
      </trkpt>
      <trkpt lat="45.21672" lon="5.73456">
        <ele>942.20001220703</ele>
        <time>2021-06-26T04:39:48.000Z</time>
      </trkpt>
      <trkpt lat="45.21672" lon="5.73448">
        <ele>943.40002441406</ele>
        <time>2021-06-26T04:39:52.000Z</time>
      </trkpt>
      <trkpt lat="45.21673" lon="5.73439">
        <ele>945</ele>
        <time>2021-06-26T04:39:57.000Z</time>
      </trkpt>
      <trkpt lat="45.21673" lon="5.73436">
        <ele>945.20001220703</ele>
        <time>2021-06-26T04:39:59.000Z</time>
      </trkpt>
      <trkpt lat="45.21673" lon="5.73434">
        <ele>945.40002441406</ele>
        <time>2021-06-26T04:40:00.000Z</time>
      </trkpt>
      <trkpt lat="45.21673" lon="5.73431">
        <ele>946.20001220703</ele>
        <time>2021-06-26T04:40:02.000Z</time>
      </trkpt>
      <trkpt lat="45.21672" lon="5.73427">
        <ele>947</ele>
        <time>2021-06-26T04:40:05.000Z</time>
      </trkpt>
      <trkpt lat="45.21671" lon="5.73423">
        <ele>947.40002441406</ele>
        <time>2021-06-26T04:40:07.000Z</time>
      </trkpt>
      <trkpt lat="45.21671" lon="5.7342">
        <ele>947.79998779297</ele>
        <time>2021-06-26T04:40:08.000Z</time>
      </trkpt>
      <trkpt lat="45.21669" lon="5.73416">
        <ele>948.20001220703</ele>
        <time>2021-06-26T04:40:11.000Z</time>
      </trkpt>
      <trkpt lat="45.21668" lon="5.73415">
        <ele>948.79998779297</ele>
        <time>2021-06-26T04:40:12.000Z</time>
      </trkpt>
      <trkpt lat="45.21667" lon="5.73408">
        <ele>950.40002441406</ele>
        <time>2021-06-26T04:40:18.000Z</time>
      </trkpt>
      <trkpt lat="45.21667" lon="5.73406">
        <ele>950.79998779297</ele>
        <time>2021-06-26T04:40:19.000Z</time>
      </trkpt>
      <trkpt lat="45.21666" lon="5.73405">
        <ele>951</ele>
        <time>2021-06-26T04:40:20.000Z</time>
      </trkpt>
      <trkpt lat="45.21666" lon="5.73403">
        <ele>951.59997558594</ele>
        <time>2021-06-26T04:40:22.000Z</time>
      </trkpt>
      <trkpt lat="45.21664" lon="5.73398">
        <ele>952.59997558594</ele>
        <time>2021-06-26T04:40:26.000Z</time>
      </trkpt>
      <trkpt lat="45.21664" lon="5.73397">
        <ele>952.79998779297</ele>
        <time>2021-06-26T04:40:27.000Z</time>
      </trkpt>
      <trkpt lat="45.21664" lon="5.73395">
        <ele>953</ele>
        <time>2021-06-26T04:40:28.000Z</time>
      </trkpt>
      <trkpt lat="45.21664" lon="5.73394">
        <ele>953.59997558594</ele>
        <time>2021-06-26T04:40:29.000Z</time>
      </trkpt>
      <trkpt lat="45.21661" lon="5.73391">
        <ele>954.40002441406</ele>
        <time>2021-06-26T04:40:32.000Z</time>
      </trkpt>
      <trkpt lat="45.2166" lon="5.73388">
        <ele>955.20001220703</ele>
        <time>2021-06-26T04:40:34.000Z</time>
      </trkpt>
      <trkpt lat="45.2166" lon="5.73386">
        <ele>955.40002441406</ele>
        <time>2021-06-26T04:40:36.000Z</time>
      </trkpt>
      <trkpt lat="45.2166" lon="5.73384">
        <ele>955.79998779297</ele>
        <time>2021-06-26T04:40:37.000Z</time>
      </trkpt>
      <trkpt lat="45.2166" lon="5.73384">
        <ele>956.20001220703</ele>
        <time>2021-06-26T04:40:38.000Z</time>
      </trkpt>
      <trkpt lat="45.2166" lon="5.73383">
        <ele>956.59997558594</ele>
        <time>2021-06-26T04:40:39.000Z</time>
      </trkpt>
      <trkpt lat="45.21658" lon="5.73379">
        <ele>956.79998779297</ele>
        <time>2021-06-26T04:40:41.000Z</time>
      </trkpt>
      <trkpt lat="45.21657" lon="5.73377">
        <ele>957.20001220703</ele>
        <time>2021-06-26T04:40:42.000Z</time>
      </trkpt>
      <trkpt lat="45.21655" lon="5.73375">
        <ele>957.40002441406</ele>
        <time>2021-06-26T04:40:43.000Z</time>
      </trkpt>
      <trkpt lat="45.21654" lon="5.73371">
        <ele>958.40002441406</ele>
        <time>2021-06-26T04:40:45.000Z</time>
      </trkpt>
      <trkpt lat="45.21654" lon="5.7337">
        <ele>958.59997558594</ele>
        <time>2021-06-26T04:40:46.000Z</time>
      </trkpt>
      <trkpt lat="45.21652" lon="5.73363">
        <ele>960.20001220703</ele>
        <time>2021-06-26T04:40:50.000Z</time>
      </trkpt>
      <trkpt lat="45.2165" lon="5.73358">
        <ele>960.59997558594</ele>
        <time>2021-06-26T04:40:53.000Z</time>
      </trkpt>
      <trkpt lat="45.21649" lon="5.73356">
        <ele>962.20001220703</ele>
        <time>2021-06-26T04:40:55.000Z</time>
      </trkpt>
      <trkpt lat="45.21644" lon="5.73349">
        <ele>963.40002441406</ele>
        <time>2021-06-26T04:41:00.000Z</time>
      </trkpt>
      <trkpt lat="45.21644" lon="5.73347">
        <ele>963.79998779297</ele>
        <time>2021-06-26T04:41:01.000Z</time>
      </trkpt>
      <trkpt lat="45.2164" lon="5.73342">
        <ele>965.40002441406</ele>
        <time>2021-06-26T04:41:05.000Z</time>
      </trkpt>
      <trkpt lat="45.2164" lon="5.7334">
        <ele>965.59997558594</ele>
        <time>2021-06-26T04:41:06.000Z</time>
      </trkpt>
      <trkpt lat="45.21639" lon="5.73339">
        <ele>965.79998779297</ele>
        <time>2021-06-26T04:41:07.000Z</time>
      </trkpt>
      <trkpt lat="45.21639" lon="5.73337">
        <ele>966.20001220703</ele>
        <time>2021-06-26T04:41:10.000Z</time>
      </trkpt>
      <trkpt lat="45.21639" lon="5.73334">
        <ele>966.59997558594</ele>
        <time>2021-06-26T04:41:12.000Z</time>
      </trkpt>
      <trkpt lat="45.21639" lon="5.73333">
        <ele>966.59997558594</ele>
        <time>2021-06-26T04:41:13.000Z</time>
      </trkpt>
      <trkpt lat="45.21637" lon="5.73328">
        <ele>967.79998779297</ele>
        <time>2021-06-26T04:41:16.000Z</time>
      </trkpt>
      <trkpt lat="45.21636" lon="5.73327">
        <ele>968</ele>
        <time>2021-06-26T04:41:17.000Z</time>
      </trkpt>
      <trkpt lat="45.21635" lon="5.73323">
        <ele>968.20001220703</ele>
        <time>2021-06-26T04:41:19.000Z</time>
      </trkpt>
      <trkpt lat="45.21634" lon="5.73318">
        <ele>969.59997558594</ele>
        <time>2021-06-26T04:41:22.000Z</time>
      </trkpt>
      <trkpt lat="45.21634" lon="5.73315">
        <ele>969.59997558594</ele>
        <time>2021-06-26T04:41:23.000Z</time>
      </trkpt>
      <trkpt lat="45.21633" lon="5.73311">
        <ele>969.79998779297</ele>
        <time>2021-06-26T04:41:25.000Z</time>
      </trkpt>
      <trkpt lat="45.21631" lon="5.73303">
        <ele>970.79998779297</ele>
        <time>2021-06-26T04:41:29.000Z</time>
      </trkpt>
      <trkpt lat="45.2163" lon="5.73298">
        <ele>971.20001220703</ele>
        <time>2021-06-26T04:41:32.000Z</time>
      </trkpt>
      <trkpt lat="45.21628" lon="5.73293">
        <ele>971.79998779297</ele>
        <time>2021-06-26T04:41:35.000Z</time>
      </trkpt>
      <trkpt lat="45.21625" lon="5.73284">
        <ele>973</ele>
        <time>2021-06-26T04:41:41.000Z</time>
      </trkpt>
      <trkpt lat="45.21624" lon="5.73282">
        <ele>973</ele>
        <time>2021-06-26T04:41:42.000Z</time>
      </trkpt>
      <trkpt lat="45.2162" lon="5.73273">
        <ele>974</ele>
        <time>2021-06-26T04:41:49.000Z</time>
      </trkpt>
      <trkpt lat="45.21619" lon="5.73271">
        <ele>974.40002441406</ele>
        <time>2021-06-26T04:41:50.000Z</time>
      </trkpt>
      <trkpt lat="45.21617" lon="5.73268">
        <ele>975.20001220703</ele>
        <time>2021-06-26T04:41:53.000Z</time>
      </trkpt>
      <trkpt lat="45.21615" lon="5.73263">
        <ele>976</ele>
        <time>2021-06-26T04:41:56.000Z</time>
      </trkpt>
      <trkpt lat="45.21614" lon="5.73262">
        <ele>976.40002441406</ele>
        <time>2021-06-26T04:41:57.000Z</time>
      </trkpt>
      <trkpt lat="45.21612" lon="5.7326">
        <ele>977</ele>
        <time>2021-06-26T04:42:00.000Z</time>
      </trkpt>
      <trkpt lat="45.2161" lon="5.73254">
        <ele>977.59997558594</ele>
        <time>2021-06-26T04:42:03.000Z</time>
      </trkpt>
      <trkpt lat="45.2161" lon="5.73253">
        <ele>978.59997558594</ele>
        <time>2021-06-26T04:42:04.000Z</time>
      </trkpt>
      <trkpt lat="45.2161" lon="5.73251">
        <ele>979</ele>
        <time>2021-06-26T04:42:06.000Z</time>
      </trkpt>
      <trkpt lat="45.2161" lon="5.73249">
        <ele>979.20001220703</ele>
        <time>2021-06-26T04:42:07.000Z</time>
      </trkpt>
      <trkpt lat="45.21609" lon="5.73246">
        <ele>980.20001220703</ele>
        <time>2021-06-26T04:42:09.000Z</time>
      </trkpt>
      <trkpt lat="45.21607" lon="5.73241">
        <ele>981</ele>
        <time>2021-06-26T04:42:12.000Z</time>
      </trkpt>
      <trkpt lat="45.21607" lon="5.73241">
        <ele>981.20001220703</ele>
        <time>2021-06-26T04:42:13.000Z</time>
      </trkpt>
      <trkpt lat="45.21604" lon="5.73234">
        <ele>982.20001220703</ele>
        <time>2021-06-26T04:42:17.000Z</time>
      </trkpt>
      <trkpt lat="45.21603" lon="5.73231">
        <ele>983.40002441406</ele>
        <time>2021-06-26T04:42:20.000Z</time>
      </trkpt>
      <trkpt lat="45.216" lon="5.73228">
        <ele>984.79998779297</ele>
        <time>2021-06-26T04:42:26.000Z</time>
      </trkpt>
      <trkpt lat="45.21596" lon="5.73225">
        <ele>985.20001220703</ele>
        <time>2021-06-26T04:42:28.000Z</time>
      </trkpt>
      <trkpt lat="45.21593" lon="5.73219">
        <ele>986.20001220703</ele>
        <time>2021-06-26T04:42:33.000Z</time>
      </trkpt>
      <trkpt lat="45.21591" lon="5.73217">
        <ele>986.20001220703</ele>
        <time>2021-06-26T04:42:35.000Z</time>
      </trkpt>
      <trkpt lat="45.21589" lon="5.73214">
        <ele>986.20001220703</ele>
        <time>2021-06-26T04:42:37.000Z</time>
      </trkpt>
      <trkpt lat="45.21588" lon="5.73213">
        <ele>987.20001220703</ele>
        <time>2021-06-26T04:42:38.000Z</time>
      </trkpt>
      <trkpt lat="45.21585" lon="5.73209">
        <ele>987.20001220703</ele>
        <time>2021-06-26T04:42:41.000Z</time>
      </trkpt>
      <trkpt lat="45.21582" lon="5.73208">
        <ele>988.20001220703</ele>
        <time>2021-06-26T04:42:44.000Z</time>
      </trkpt>
      <trkpt lat="45.21577" lon="5.73207">
        <ele>989.40002441406</ele>
        <time>2021-06-26T04:42:49.000Z</time>
      </trkpt>
      <trkpt lat="45.21576" lon="5.73205">
        <ele>989.59997558594</ele>
        <time>2021-06-26T04:42:50.000Z</time>
      </trkpt>
      <trkpt lat="45.21573" lon="5.73201">
        <ele>990.79998779297</ele>
        <time>2021-06-26T04:42:54.000Z</time>
      </trkpt>
      <trkpt lat="45.21571" lon="5.73195">
        <ele>991.20001220703</ele>
        <time>2021-06-26T04:42:56.000Z</time>
      </trkpt>
      <trkpt lat="45.21569" lon="5.73191">
        <ele>991.79998779297</ele>
        <time>2021-06-26T04:42:57.000Z</time>
      </trkpt>
      <trkpt lat="45.21569" lon="5.73187">
        <ele>993</ele>
        <time>2021-06-26T04:43:01.000Z</time>
      </trkpt>
      <trkpt lat="45.21568" lon="5.73186">
        <ele>993.20001220703</ele>
        <time>2021-06-26T04:43:03.000Z</time>
      </trkpt>
      <trkpt lat="45.21567" lon="5.73184">
        <ele>994.20001220703</ele>
        <time>2021-06-26T04:43:05.000Z</time>
      </trkpt>
      <trkpt lat="45.21567" lon="5.73182">
        <ele>994.40002441406</ele>
        <time>2021-06-26T04:43:06.000Z</time>
      </trkpt>
      <trkpt lat="45.21566" lon="5.73179">
        <ele>995.20001220703</ele>
        <time>2021-06-26T04:43:08.000Z</time>
      </trkpt>
      <trkpt lat="45.21566" lon="5.73178">
        <ele>995.40002441406</ele>
        <time>2021-06-26T04:43:09.000Z</time>
      </trkpt>
      <trkpt lat="45.21567" lon="5.73176">
        <ele>995.40002441406</ele>
        <time>2021-06-26T04:43:10.000Z</time>
      </trkpt>
      <trkpt lat="45.21568" lon="5.73173">
        <ele>996.40002441406</ele>
        <time>2021-06-26T04:43:12.000Z</time>
      </trkpt>
      <trkpt lat="45.21571" lon="5.73171">
        <ele>997.40002441406</ele>
        <time>2021-06-26T04:43:14.000Z</time>
      </trkpt>
      <trkpt lat="45.21572" lon="5.7317">
        <ele>997.59997558594</ele>
        <time>2021-06-26T04:43:15.000Z</time>
      </trkpt>
      <trkpt lat="45.21573" lon="5.7317">
        <ele>997.59997558594</ele>
        <time>2021-06-26T04:43:16.000Z</time>
      </trkpt>
      <trkpt lat="45.21574" lon="5.73168">
        <ele>998.40002441406</ele>
        <time>2021-06-26T04:43:19.000Z</time>
      </trkpt>
      <trkpt lat="45.21573" lon="5.73168">
        <ele>998.59997558594</ele>
        <time>2021-06-26T04:43:20.000Z</time>
      </trkpt>
      <trkpt lat="45.21573" lon="5.73166">
        <ele>999.40002441406</ele>
        <time>2021-06-26T04:43:22.000Z</time>
      </trkpt>
      <trkpt lat="45.21572" lon="5.73162">
        <ele>999.40002441406</ele>
        <time>2021-06-26T04:43:24.000Z</time>
      </trkpt>
      <trkpt lat="45.21571" lon="5.7316">
        <ele>1000.4000244141</ele>
        <time>2021-06-26T04:43:25.000Z</time>
      </trkpt>
      <trkpt lat="45.21572" lon="5.73157">
        <ele>1001.200012207</ele>
        <time>2021-06-26T04:43:27.000Z</time>
      </trkpt>
      <trkpt lat="45.21572" lon="5.73157">
        <ele>1001.200012207</ele>
        <time>2021-06-26T04:43:28.000Z</time>
      </trkpt>
      <trkpt lat="45.21572" lon="5.73156">
        <ele>1001.4000244141</ele>
        <time>2021-06-26T04:43:29.000Z</time>
      </trkpt>
      <trkpt lat="45.21573" lon="5.73155">
        <ele>1001.799987793</ele>
        <time>2021-06-26T04:43:30.000Z</time>
      </trkpt>
      <trkpt lat="45.21576" lon="5.73153">
        <ele>1003</ele>
        <time>2021-06-26T04:43:33.000Z</time>
      </trkpt>
      <trkpt lat="45.21575" lon="5.73153">
        <ele>1003</ele>
        <time>2021-06-26T04:43:34.000Z</time>
      </trkpt>
      <trkpt lat="45.21574" lon="5.7315">
        <ele>1004.200012207</ele>
        <time>2021-06-26T04:43:36.000Z</time>
      </trkpt>
      <trkpt lat="45.21578" lon="5.73148">
        <ele>1005.4000244141</ele>
        <time>2021-06-26T04:43:41.000Z</time>
      </trkpt>
      <trkpt lat="45.21578" lon="5.73142">
        <ele>1006.200012207</ele>
        <time>2021-06-26T04:43:46.000Z</time>
      </trkpt>
      <trkpt lat="45.21577" lon="5.73141">
        <ele>1006.5999755859</ele>
        <time>2021-06-26T04:43:47.000Z</time>
      </trkpt>
      <trkpt lat="45.21577" lon="5.7314">
        <ele>1007.799987793</ele>
        <time>2021-06-26T04:43:48.000Z</time>
      </trkpt>
      <trkpt lat="45.21576" lon="5.73133">
        <ele>1008.4000244141</ele>
        <time>2021-06-26T04:43:52.000Z</time>
      </trkpt>
      <trkpt lat="45.21576" lon="5.73131">
        <ele>1009.5999755859</ele>
        <time>2021-06-26T04:43:54.000Z</time>
      </trkpt>
      <trkpt lat="45.21577" lon="5.73127">
        <ele>1010</ele>
        <time>2021-06-26T04:43:57.000Z</time>
      </trkpt>
      <trkpt lat="45.21581" lon="5.73124">
        <ele>1011.200012207</ele>
        <time>2021-06-26T04:44:00.000Z</time>
      </trkpt>
      <trkpt lat="45.21583" lon="5.73122">
        <ele>1011.799987793</ele>
        <time>2021-06-26T04:44:03.000Z</time>
      </trkpt>
      <trkpt lat="45.21586" lon="5.73121">
        <ele>1012.4000244141</ele>
        <time>2021-06-26T04:44:05.000Z</time>
      </trkpt>
      <trkpt lat="45.21596" lon="5.73124">
        <ele>1013.4000244141</ele>
        <time>2021-06-26T04:44:12.000Z</time>
      </trkpt>
      <trkpt lat="45.216" lon="5.73125">
        <ele>1014</ele>
        <time>2021-06-26T04:44:15.000Z</time>
      </trkpt>
      <trkpt lat="45.21606" lon="5.73127">
        <ele>1015.200012207</ele>
        <time>2021-06-26T04:44:19.000Z</time>
      </trkpt>
      <trkpt lat="45.21611" lon="5.73129">
        <ele>1016.200012207</ele>
        <time>2021-06-26T04:44:22.000Z</time>
      </trkpt>
      <trkpt lat="45.21613" lon="5.7313">
        <ele>1016.4000244141</ele>
        <time>2021-06-26T04:44:24.000Z</time>
      </trkpt>
      <trkpt lat="45.21619" lon="5.73133">
        <ele>1017.799987793</ele>
        <time>2021-06-26T04:44:29.000Z</time>
      </trkpt>
      <trkpt lat="45.21621" lon="5.73134">
        <ele>1018.200012207</ele>
        <time>2021-06-26T04:44:31.000Z</time>
      </trkpt>
      <trkpt lat="45.21624" lon="5.73135">
        <ele>1019</ele>
        <time>2021-06-26T04:44:34.000Z</time>
      </trkpt>
      <trkpt lat="45.21627" lon="5.73136">
        <ele>1019.799987793</ele>
        <time>2021-06-26T04:44:37.000Z</time>
      </trkpt>
      <trkpt lat="45.21628" lon="5.73136">
        <ele>1020.200012207</ele>
        <time>2021-06-26T04:44:38.000Z</time>
      </trkpt>
      <trkpt lat="45.21631" lon="5.73137">
        <ele>1020.799987793</ele>
        <time>2021-06-26T04:44:40.000Z</time>
      </trkpt>
      <trkpt lat="45.21633" lon="5.73134">
        <ele>1022</ele>
        <time>2021-06-26T04:44:44.000Z</time>
      </trkpt>
      <trkpt lat="45.21633" lon="5.73133">
        <ele>1022.200012207</ele>
        <time>2021-06-26T04:44:45.000Z</time>
      </trkpt>
      <trkpt lat="45.21637" lon="5.73131">
        <ele>1023.200012207</ele>
        <time>2021-06-26T04:44:50.000Z</time>
      </trkpt>
      <trkpt lat="45.21638" lon="5.73131">
        <ele>1024.1999511719</ele>
        <time>2021-06-26T04:44:51.000Z</time>
      </trkpt>
      <trkpt lat="45.21642" lon="5.73132">
        <ele>1025</ele>
        <time>2021-06-26T04:44:55.000Z</time>
      </trkpt>
      <trkpt lat="45.21643" lon="5.73132">
        <ele>1025.4000244141</ele>
        <time>2021-06-26T04:44:56.000Z</time>
      </trkpt>
      <trkpt lat="45.21646" lon="5.73131">
        <ele>1025.8000488281</ele>
        <time>2021-06-26T04:44:58.000Z</time>
      </trkpt>
      <trkpt lat="45.21647" lon="5.73131">
        <ele>1026</ele>
        <time>2021-06-26T04:44:59.000Z</time>
      </trkpt>
      <trkpt lat="45.21649" lon="5.73131">
        <ele>1026</ele>
        <time>2021-06-26T04:45:00.000Z</time>
      </trkpt>
      <trkpt lat="45.21651" lon="5.7313">
        <ele>1026.1999511719</ele>
        <time>2021-06-26T04:45:02.000Z</time>
      </trkpt>
      <trkpt lat="45.21652" lon="5.73129">
        <ele>1027.4000244141</ele>
        <time>2021-06-26T04:45:03.000Z</time>
      </trkpt>
      <trkpt lat="45.21653" lon="5.73129">
        <ele>1027.5999755859</ele>
        <time>2021-06-26T04:45:04.000Z</time>
      </trkpt>
      <trkpt lat="45.21656" lon="5.73129">
        <ele>1028</ele>
        <time>2021-06-26T04:45:06.000Z</time>
      </trkpt>
      <trkpt lat="45.2166" lon="5.73132">
        <ele>1028.4000244141</ele>
        <time>2021-06-26T04:45:09.000Z</time>
      </trkpt>
      <trkpt lat="45.21662" lon="5.73134">
        <ele>1029.4000244141</ele>
        <time>2021-06-26T04:45:10.000Z</time>
      </trkpt>
      <trkpt lat="45.21663" lon="5.73135">
        <ele>1029.5999755859</ele>
        <time>2021-06-26T04:45:11.000Z</time>
      </trkpt>
      <trkpt lat="45.21664" lon="5.73136">
        <ele>1029.8000488281</ele>
        <time>2021-06-26T04:45:13.000Z</time>
      </trkpt>
      <trkpt lat="45.21665" lon="5.73137">
        <ele>1030.4000244141</ele>
        <time>2021-06-26T04:45:15.000Z</time>
      </trkpt>
      <trkpt lat="45.21667" lon="5.73137">
        <ele>1031.4000244141</ele>
        <time>2021-06-26T04:45:17.000Z</time>
      </trkpt>
      <trkpt lat="45.21669" lon="5.73139">
        <ele>1031.8000488281</ele>
        <time>2021-06-26T04:45:19.000Z</time>
      </trkpt>
      <trkpt lat="45.2167" lon="5.7314">
        <ele>1032.4000244141</ele>
        <time>2021-06-26T04:45:21.000Z</time>
      </trkpt>
      <trkpt lat="45.21671" lon="5.7314">
        <ele>1032.4000244141</ele>
        <time>2021-06-26T04:45:22.000Z</time>
      </trkpt>
      <trkpt lat="45.21673" lon="5.73143">
        <ele>1033.8000488281</ele>
        <time>2021-06-26T04:45:25.000Z</time>
      </trkpt>
      <trkpt lat="45.21674" lon="5.73144">
        <ele>1034</ele>
        <time>2021-06-26T04:45:26.000Z</time>
      </trkpt>
      <trkpt lat="45.21674" lon="5.73145">
        <ele>1034.4000244141</ele>
        <time>2021-06-26T04:45:27.000Z</time>
      </trkpt>
      <trkpt lat="45.21676" lon="5.73148">
        <ele>1034.8000488281</ele>
        <time>2021-06-26T04:45:30.000Z</time>
      </trkpt>
      <trkpt lat="45.21676" lon="5.73149">
        <ele>1035</ele>
        <time>2021-06-26T04:45:31.000Z</time>
      </trkpt>
      <trkpt lat="45.21677" lon="5.7315">
        <ele>1035.8000488281</ele>
        <time>2021-06-26T04:45:32.000Z</time>
      </trkpt>
      <trkpt lat="45.21677" lon="5.73151">
        <ele>1035.8000488281</ele>
        <time>2021-06-26T04:45:33.000Z</time>
      </trkpt>
      <trkpt lat="45.21677" lon="5.73151">
        <ele>1036.1999511719</ele>
        <time>2021-06-26T04:45:34.000Z</time>
      </trkpt>
      <trkpt lat="45.21678" lon="5.73154">
        <ele>1037.4000244141</ele>
        <time>2021-06-26T04:45:39.000Z</time>
      </trkpt>
      <trkpt lat="45.2168" lon="5.73158">
        <ele>1038.8000488281</ele>
        <time>2021-06-26T04:45:43.000Z</time>
      </trkpt>
      <trkpt lat="45.21682" lon="5.73159">
        <ele>1040</ele>
        <time>2021-06-26T04:45:44.000Z</time>
      </trkpt>
      <trkpt lat="45.21683" lon="5.7316">
        <ele>1040</ele>
        <time>2021-06-26T04:45:45.000Z</time>
      </trkpt>
      <trkpt lat="45.21685" lon="5.73162">
        <ele>1040.1999511719</ele>
        <time>2021-06-26T04:45:47.000Z</time>
      </trkpt>
      <trkpt lat="45.21689" lon="5.73167">
        <ele>1041.4000244141</ele>
        <time>2021-06-26T04:45:52.000Z</time>
      </trkpt>
      <trkpt lat="45.2169" lon="5.73169">
        <ele>1041.8000488281</ele>
        <time>2021-06-26T04:45:54.000Z</time>
      </trkpt>
      <trkpt lat="45.21691" lon="5.73172">
        <ele>1042.1999511719</ele>
        <time>2021-06-26T04:45:56.000Z</time>
      </trkpt>
      <trkpt lat="45.21692" lon="5.73173">
        <ele>1042.5999755859</ele>
        <time>2021-06-26T04:45:57.000Z</time>
      </trkpt>
      <trkpt lat="45.21693" lon="5.73174">
        <ele>1043</ele>
        <time>2021-06-26T04:45:58.000Z</time>
      </trkpt>
      <trkpt lat="45.21696" lon="5.7318">
        <ele>1043.1999511719</ele>
        <time>2021-06-26T04:46:01.000Z</time>
      </trkpt>
      <trkpt lat="45.21697" lon="5.73182">
        <ele>1043.5999755859</ele>
        <time>2021-06-26T04:46:02.000Z</time>
      </trkpt>
      <trkpt lat="45.21701" lon="5.73188">
        <ele>1043.8000488281</ele>
        <time>2021-06-26T04:46:06.000Z</time>
      </trkpt>
      <trkpt lat="45.21701" lon="5.73189">
        <ele>1043.8000488281</ele>
        <time>2021-06-26T04:46:07.000Z</time>
      </trkpt>
      <trkpt lat="45.21702" lon="5.7319">
        <ele>1044</ele>
        <time>2021-06-26T04:46:08.000Z</time>
      </trkpt>
      <trkpt lat="45.21702" lon="5.73192">
        <ele>1044</ele>
        <time>2021-06-26T04:46:09.000Z</time>
      </trkpt>
      <trkpt lat="45.21705" lon="5.73194">
        <ele>1044.5999755859</ele>
        <time>2021-06-26T04:46:11.000Z</time>
      </trkpt>
      <trkpt lat="45.21706" lon="5.73198">
        <ele>1044.5999755859</ele>
        <time>2021-06-26T04:46:13.000Z</time>
      </trkpt>
      <trkpt lat="45.21711" lon="5.73204">
        <ele>1044.8000488281</ele>
        <time>2021-06-26T04:46:18.000Z</time>
      </trkpt>
      <trkpt lat="45.21712" lon="5.73207">
        <ele>1045.1999511719</ele>
        <time>2021-06-26T04:46:20.000Z</time>
      </trkpt>
      <trkpt lat="45.21716" lon="5.73209">
        <ele>1045.8000488281</ele>
        <time>2021-06-26T04:46:22.000Z</time>
      </trkpt>
      <trkpt lat="45.21717" lon="5.73213">
        <ele>1046.4000244141</ele>
        <time>2021-06-26T04:46:26.000Z</time>
      </trkpt>
      <trkpt lat="45.21719" lon="5.73213">
        <ele>1046.4000244141</ele>
        <time>2021-06-26T04:46:28.000Z</time>
      </trkpt>
      <trkpt lat="45.2172" lon="5.73213">
        <ele>1047.8000488281</ele>
        <time>2021-06-26T04:46:29.000Z</time>
      </trkpt>
      <trkpt lat="45.21721" lon="5.73212">
        <ele>1048</ele>
        <time>2021-06-26T04:46:31.000Z</time>
      </trkpt>
      <trkpt lat="45.21721" lon="5.73212">
        <ele>1048</ele>
        <time>2021-06-26T04:46:32.000Z</time>
      </trkpt>
      <trkpt lat="45.21722" lon="5.73211">
        <ele>1048.8000488281</ele>
        <time>2021-06-26T04:46:34.000Z</time>
      </trkpt>
      <trkpt lat="45.21722" lon="5.7321">
        <ele>1049</ele>
        <time>2021-06-26T04:46:35.000Z</time>
      </trkpt>
      <trkpt lat="45.21724" lon="5.73209">
        <ele>1049</ele>
        <time>2021-06-26T04:46:37.000Z</time>
      </trkpt>
      <trkpt lat="45.21725" lon="5.73209">
        <ele>1049.4000244141</ele>
        <time>2021-06-26T04:46:38.000Z</time>
      </trkpt>
      <trkpt lat="45.21727" lon="5.73209">
        <ele>1050</ele>
        <time>2021-06-26T04:46:39.000Z</time>
      </trkpt>
      <trkpt lat="45.21728" lon="5.73209">
        <ele>1050.4000244141</ele>
        <time>2021-06-26T04:46:40.000Z</time>
      </trkpt>
      <trkpt lat="45.21729" lon="5.73208">
        <ele>1050.5999755859</ele>
        <time>2021-06-26T04:46:41.000Z</time>
      </trkpt>
      <trkpt lat="45.2173" lon="5.73205">
        <ele>1050.5999755859</ele>
        <time>2021-06-26T04:46:43.000Z</time>
      </trkpt>
      <trkpt lat="45.21732" lon="5.73204">
        <ele>1050.5999755859</ele>
        <time>2021-06-26T04:46:44.000Z</time>
      </trkpt>
      <trkpt lat="45.21736" lon="5.73203">
        <ele>1050.5999755859</ele>
        <time>2021-06-26T04:46:47.000Z</time>
      </trkpt>
      <trkpt lat="45.21738" lon="5.73202">
        <ele>1050.4000244141</ele>
        <time>2021-06-26T04:46:49.000Z</time>
      </trkpt>
      <trkpt lat="45.21742" lon="5.73202">
        <ele>1050.1999511719</ele>
        <time>2021-06-26T04:46:52.000Z</time>
      </trkpt>
      <trkpt lat="45.21747" lon="5.73204">
        <ele>1049.8000488281</ele>
        <time>2021-06-26T04:46:55.000Z</time>
      </trkpt>
      <trkpt lat="45.21748" lon="5.73205">
        <ele>1049.4000244141</ele>
        <time>2021-06-26T04:46:56.000Z</time>
      </trkpt>
      <trkpt lat="45.21754" lon="5.73209">
        <ele>1049.4000244141</ele>
        <time>2021-06-26T04:47:00.000Z</time>
      </trkpt>
      <trkpt lat="45.21758" lon="5.73213">
        <ele>1050.5999755859</ele>
        <time>2021-06-26T04:47:05.000Z</time>
      </trkpt>
      <trkpt lat="45.2176" lon="5.73215">
        <ele>1051.4000244141</ele>
        <time>2021-06-26T04:47:07.000Z</time>
      </trkpt>
      <trkpt lat="45.2176" lon="5.73216">
        <ele>1051.4000244141</ele>
        <time>2021-06-26T04:47:08.000Z</time>
      </trkpt>
      <trkpt lat="45.21763" lon="5.73219">
        <ele>1052.5999755859</ele>
        <time>2021-06-26T04:47:11.000Z</time>
      </trkpt>
      <trkpt lat="45.21763" lon="5.7322">
        <ele>1052.5999755859</ele>
        <time>2021-06-26T04:47:13.000Z</time>
      </trkpt>
      <trkpt lat="45.21766" lon="5.73221">
        <ele>1053</ele>
        <time>2021-06-26T04:47:15.000Z</time>
      </trkpt>
      <trkpt lat="45.2177" lon="5.73227">
        <ele>1053.1999511719</ele>
        <time>2021-06-26T04:47:18.000Z</time>
      </trkpt>
      <trkpt lat="45.2177" lon="5.73229">
        <ele>1053.8000488281</ele>
        <time>2021-06-26T04:47:19.000Z</time>
      </trkpt>
      <trkpt lat="45.21771" lon="5.7323">
        <ele>1053.4000244141</ele>
        <time>2021-06-26T04:47:21.000Z</time>
      </trkpt>
      <trkpt lat="45.21772" lon="5.73231">
        <ele>1053.4000244141</ele>
        <time>2021-06-26T04:47:22.000Z</time>
      </trkpt>
      <trkpt lat="45.21772" lon="5.73231">
        <ele>1053.4000244141</ele>
        <time>2021-06-26T04:47:23.000Z</time>
      </trkpt>
      <trkpt lat="45.21773" lon="5.73231">
        <ele>1053.4000244141</ele>
        <time>2021-06-26T04:47:24.000Z</time>
      </trkpt>
      <trkpt lat="45.21774" lon="5.73231">
        <ele>1053.5999755859</ele>
        <time>2021-06-26T04:47:25.000Z</time>
      </trkpt>
      <trkpt lat="45.21779" lon="5.73234">
        <ele>1053.5999755859</ele>
        <time>2021-06-26T04:47:29.000Z</time>
      </trkpt>
      <trkpt lat="45.21781" lon="5.73241">
        <ele>1054.5999755859</ele>
        <time>2021-06-26T04:47:34.000Z</time>
      </trkpt>
      <trkpt lat="45.21781" lon="5.73242">
        <ele>1054.8000488281</ele>
        <time>2021-06-26T04:47:35.000Z</time>
      </trkpt>
      <trkpt lat="45.21782" lon="5.73245">
        <ele>1055.8000488281</ele>
        <time>2021-06-26T04:47:38.000Z</time>
      </trkpt>
      <trkpt lat="45.21781" lon="5.73246">
        <ele>1055.8000488281</ele>
        <time>2021-06-26T04:47:39.000Z</time>
      </trkpt>
      <trkpt lat="45.21782" lon="5.73247">
        <ele>1056.1999511719</ele>
        <time>2021-06-26T04:47:40.000Z</time>
      </trkpt>
      <trkpt lat="45.21783" lon="5.73249">
        <ele>1056.5999755859</ele>
        <time>2021-06-26T04:47:42.000Z</time>
      </trkpt>
      <trkpt lat="45.21784" lon="5.73251">
        <ele>1056.8000488281</ele>
        <time>2021-06-26T04:47:43.000Z</time>
      </trkpt>
      <trkpt lat="45.21783" lon="5.73252">
        <ele>1056.8000488281</ele>
        <time>2021-06-26T04:47:44.000Z</time>
      </trkpt>
      <trkpt lat="45.21783" lon="5.73262">
        <ele>1058</ele>
        <time>2021-06-26T04:47:48.000Z</time>
      </trkpt>
      <trkpt lat="45.21783" lon="5.73266">
        <ele>1058.1999511719</ele>
        <time>2021-06-26T04:47:50.000Z</time>
      </trkpt>
      <trkpt lat="45.21783" lon="5.7327">
        <ele>1058.5999755859</ele>
        <time>2021-06-26T04:47:52.000Z</time>
      </trkpt>
      <trkpt lat="45.21785" lon="5.73272">
        <ele>1059.1999511719</ele>
        <time>2021-06-26T04:47:58.000Z</time>
      </trkpt>
      <trkpt lat="45.21786" lon="5.73273">
        <ele>1059.4000244141</ele>
        <time>2021-06-26T04:47:59.000Z</time>
      </trkpt>
      <trkpt lat="45.21788" lon="5.73274">
        <ele>1060.1999511719</ele>
        <time>2021-06-26T04:48:01.000Z</time>
      </trkpt>
      <trkpt lat="45.21792" lon="5.73277">
        <ele>1060.5999755859</ele>
        <time>2021-06-26T04:48:04.000Z</time>
      </trkpt>
      <trkpt lat="45.21793" lon="5.73277">
        <ele>1060.8000488281</ele>
        <time>2021-06-26T04:48:05.000Z</time>
      </trkpt>
      <trkpt lat="45.21794" lon="5.73278">
        <ele>1060.8000488281</ele>
        <time>2021-06-26T04:48:06.000Z</time>
      </trkpt>
      <trkpt lat="45.21795" lon="5.73279">
        <ele>1061.4000244141</ele>
        <time>2021-06-26T04:48:07.000Z</time>
      </trkpt>
      <trkpt lat="45.21798" lon="5.73283">
        <ele>1062</ele>
        <time>2021-06-26T04:48:11.000Z</time>
      </trkpt>
      <trkpt lat="45.218" lon="5.73287">
        <ele>1062.5999755859</ele>
        <time>2021-06-26T04:48:13.000Z</time>
      </trkpt>
      <trkpt lat="45.21805" lon="5.73293">
        <ele>1063.5999755859</ele>
        <time>2021-06-26T04:48:19.000Z</time>
      </trkpt>
      <trkpt lat="45.21805" lon="5.73294">
        <ele>1063.5999755859</ele>
        <time>2021-06-26T04:48:20.000Z</time>
      </trkpt>
      <trkpt lat="45.21806" lon="5.73296">
        <ele>1063.8000488281</ele>
        <time>2021-06-26T04:48:21.000Z</time>
      </trkpt>
      <trkpt lat="45.21809" lon="5.733">
        <ele>1064.4000244141</ele>
        <time>2021-06-26T04:48:24.000Z</time>
      </trkpt>
      <trkpt lat="45.2181" lon="5.73301">
        <ele>1064.5999755859</ele>
        <time>2021-06-26T04:48:25.000Z</time>
      </trkpt>
      <trkpt lat="45.21813" lon="5.73302">
        <ele>1065</ele>
        <time>2021-06-26T04:48:27.000Z</time>
      </trkpt>
      <trkpt lat="45.21818" lon="5.73305">
        <ele>1065.4000244141</ele>
        <time>2021-06-26T04:48:30.000Z</time>
      </trkpt>
      <trkpt lat="45.21819" lon="5.73307">
        <ele>1065.5999755859</ele>
        <time>2021-06-26T04:48:32.000Z</time>
      </trkpt>
      <trkpt lat="45.2182" lon="5.73307">
        <ele>1066</ele>
        <time>2021-06-26T04:48:33.000Z</time>
      </trkpt>
      <trkpt lat="45.21823" lon="5.73311">
        <ele>1066.5999755859</ele>
        <time>2021-06-26T04:48:36.000Z</time>
      </trkpt>
      <trkpt lat="45.21827" lon="5.73316">
        <ele>1067.5999755859</ele>
        <time>2021-06-26T04:48:41.000Z</time>
      </trkpt>
      <trkpt lat="45.21829" lon="5.73318">
        <ele>1068.1999511719</ele>
        <time>2021-06-26T04:48:43.000Z</time>
      </trkpt>
      <trkpt lat="45.21832" lon="5.73322">
        <ele>1068.5999755859</ele>
        <time>2021-06-26T04:48:47.000Z</time>
      </trkpt>
      <trkpt lat="45.21833" lon="5.73323">
        <ele>1068.8000488281</ele>
        <time>2021-06-26T04:48:48.000Z</time>
      </trkpt>
      <trkpt lat="45.21835" lon="5.73326">
        <ele>1069.1999511719</ele>
        <time>2021-06-26T04:48:50.000Z</time>
      </trkpt>
      <trkpt lat="45.21842" lon="5.73334">
        <ele>1069.8000488281</ele>
        <time>2021-06-26T04:48:56.000Z</time>
      </trkpt>
      <trkpt lat="45.21843" lon="5.73336">
        <ele>1069.8000488281</ele>
        <time>2021-06-26T04:48:58.000Z</time>
      </trkpt>
      <trkpt lat="45.21844" lon="5.73337">
        <ele>1070</ele>
        <time>2021-06-26T04:49:00.000Z</time>
      </trkpt>
      <trkpt lat="45.21845" lon="5.73338">
        <ele>1070.1999511719</ele>
        <time>2021-06-26T04:49:07.000Z</time>
      </trkpt>
      <trkpt lat="45.21846" lon="5.73339">
        <ele>1070.1999511719</ele>
        <time>2021-06-26T04:49:12.000Z</time>
      </trkpt>
      <trkpt lat="45.21846" lon="5.73339">
        <ele>1070.1999511719</ele>
        <time>2021-06-26T04:49:16.000Z</time>
      </trkpt>
      <trkpt lat="45.21846" lon="5.73339">
        <ele>1070.4000244141</ele>
        <time>2021-06-26T04:49:21.000Z</time>
      </trkpt>
      <trkpt lat="45.21846" lon="5.73339">
        <ele>1070.4000244141</ele>
        <time>2021-06-26T04:49:23.000Z</time>
      </trkpt>
      <trkpt lat="45.21847" lon="5.7334">
        <ele>1070.1999511719</ele>
        <time>2021-06-26T04:49:30.000Z</time>
      </trkpt>
      <trkpt lat="45.21846" lon="5.73348">
        <ele>1070</ele>
        <time>2021-06-26T04:49:33.000Z</time>
      </trkpt>
      <trkpt lat="45.21845" lon="5.73352">
        <ele>1069.8000488281</ele>
        <time>2021-06-26T04:49:36.000Z</time>
      </trkpt>
      <trkpt lat="45.21846" lon="5.73354">
        <ele>1069.5999755859</ele>
        <time>2021-06-26T04:49:38.000Z</time>
      </trkpt>
      <trkpt lat="45.21847" lon="5.73357">
        <ele>1069.5999755859</ele>
        <time>2021-06-26T04:49:40.000Z</time>
      </trkpt>
      <trkpt lat="45.21846" lon="5.73362">
        <ele>1070</ele>
        <time>2021-06-26T04:49:50.000Z</time>
      </trkpt>
      <trkpt lat="45.21846" lon="5.73362">
        <ele>1070</ele>
        <time>2021-06-26T04:49:57.000Z</time>
      </trkpt>
      <trkpt lat="45.21846" lon="5.73362">
        <ele>1070.1999511719</ele>
        <time>2021-06-26T04:50:00.000Z</time>
      </trkpt>
      <trkpt lat="45.21846" lon="5.73362">
        <ele>1070.1999511719</ele>
        <time>2021-06-26T04:50:03.000Z</time>
      </trkpt>
      <trkpt lat="45.21846" lon="5.73362">
        <ele>1070</ele>
        <time>2021-06-26T04:50:05.000Z</time>
      </trkpt>
      <trkpt lat="45.21846" lon="5.73362">
        <ele>1070</ele>
        <time>2021-06-26T04:50:07.000Z</time>
      </trkpt>
      <trkpt lat="45.21846" lon="5.73362">
        <ele>1070</ele>
        <time>2021-06-26T04:50:09.000Z</time>
      </trkpt>
      <trkpt lat="45.21846" lon="5.73362">
        <ele>1070</ele>
        <time>2021-06-26T04:50:13.000Z</time>
      </trkpt>
      <trkpt lat="45.21846" lon="5.73362">
        <ele>1070</ele>
        <time>2021-06-26T04:50:16.000Z</time>
      </trkpt>
      <trkpt lat="45.21845" lon="5.73361">
        <ele>1070</ele>
        <time>2021-06-26T04:50:24.000Z</time>
      </trkpt>
      <trkpt lat="45.21845" lon="5.73361">
        <ele>1070</ele>
        <time>2021-06-26T04:50:25.000Z</time>
      </trkpt>
      <trkpt lat="45.21847" lon="5.73349">
        <ele>1070</ele>
        <time>2021-06-26T04:50:31.000Z</time>
      </trkpt>
      <trkpt lat="45.21849" lon="5.73348">
        <ele>1070</ele>
        <time>2021-06-26T04:50:36.000Z</time>
      </trkpt>
      <trkpt lat="45.2185" lon="5.73347">
        <ele>1070</ele>
        <time>2021-06-26T04:50:38.000Z</time>
      </trkpt>
      <trkpt lat="45.2185" lon="5.73347">
        <ele>1070</ele>
        <time>2021-06-26T04:50:39.000Z</time>
      </trkpt>
      <trkpt lat="45.21852" lon="5.73348">
        <ele>1070</ele>
        <time>2021-06-26T04:50:41.000Z</time>
      </trkpt>
      <trkpt lat="45.21852" lon="5.73349">
        <ele>1070</ele>
        <time>2021-06-26T04:50:42.000Z</time>
      </trkpt>
      <trkpt lat="45.21853" lon="5.73351">
        <ele>1070</ele>
        <time>2021-06-26T04:50:44.000Z</time>
      </trkpt>
      <trkpt lat="45.21854" lon="5.73353">
        <ele>1070</ele>
        <time>2021-06-26T04:50:49.000Z</time>
      </trkpt>
      <trkpt lat="45.21857" lon="5.73354">
        <ele>1070</ele>
        <time>2021-06-26T04:50:51.000Z</time>
      </trkpt>
      <trkpt lat="45.21862" lon="5.73355">
        <ele>1070</ele>
        <time>2021-06-26T04:50:56.000Z</time>
      </trkpt>
      <trkpt lat="45.21863" lon="5.73355">
        <ele>1070</ele>
        <time>2021-06-26T04:50:57.000Z</time>
      </trkpt>
      <trkpt lat="45.21864" lon="5.73357">
        <ele>1070</ele>
        <time>2021-06-26T04:50:59.000Z</time>
      </trkpt>
      <trkpt lat="45.21868" lon="5.7336">
        <ele>1069.5999755859</ele>
        <time>2021-06-26T04:51:02.000Z</time>
      </trkpt>
      <trkpt lat="45.2187" lon="5.73361">
        <ele>1069.1999511719</ele>
        <time>2021-06-26T04:51:03.000Z</time>
      </trkpt>
      <trkpt lat="45.21873" lon="5.73363">
        <ele>1068.5999755859</ele>
        <time>2021-06-26T04:51:05.000Z</time>
      </trkpt>
      <trkpt lat="45.21875" lon="5.73365">
        <ele>1068.4000244141</ele>
        <time>2021-06-26T04:51:07.000Z</time>
      </trkpt>
      <trkpt lat="45.21883" lon="5.73368">
        <ele>1067.4000244141</ele>
        <time>2021-06-26T04:51:11.000Z</time>
      </trkpt>
      <trkpt lat="45.21884" lon="5.73369">
        <ele>1067.4000244141</ele>
        <time>2021-06-26T04:51:12.000Z</time>
      </trkpt>
      <trkpt lat="45.21892" lon="5.73376">
        <ele>1067.8000488281</ele>
        <time>2021-06-26T04:51:17.000Z</time>
      </trkpt>
      <trkpt lat="45.21896" lon="5.7338">
        <ele>1067.8000488281</ele>
        <time>2021-06-26T04:51:20.000Z</time>
      </trkpt>
      <trkpt lat="45.21897" lon="5.73378">
        <ele>1068</ele>
        <time>2021-06-26T04:51:22.000Z</time>
      </trkpt>
      <trkpt lat="45.219" lon="5.73378">
        <ele>1068.4000244141</ele>
        <time>2021-06-26T04:51:24.000Z</time>
      </trkpt>
      <trkpt lat="45.21901" lon="5.73378">
        <ele>1068.4000244141</ele>
        <time>2021-06-26T04:51:25.000Z</time>
      </trkpt>
      <trkpt lat="45.2191" lon="5.73383">
        <ele>1068.5999755859</ele>
        <time>2021-06-26T04:51:29.000Z</time>
      </trkpt>
      <trkpt lat="45.21918" lon="5.73387">
        <ele>1068</ele>
        <time>2021-06-26T04:51:36.000Z</time>
      </trkpt>
      <trkpt lat="45.21919" lon="5.73389">
        <ele>1067.8000488281</ele>
        <time>2021-06-26T04:51:37.000Z</time>
      </trkpt>
      <trkpt lat="45.2192" lon="5.73391">
        <ele>1067.1999511719</ele>
        <time>2021-06-26T04:51:38.000Z</time>
      </trkpt>
      <trkpt lat="45.21925" lon="5.73399">
        <ele>1066.8000488281</ele>
        <time>2021-06-26T04:51:41.000Z</time>
      </trkpt>
      <trkpt lat="45.21931" lon="5.73414">
        <ele>1067.5999755859</ele>
        <time>2021-06-26T04:51:48.000Z</time>
      </trkpt>
      <trkpt lat="45.21935" lon="5.73418">
        <ele>1068.1999511719</ele>
        <time>2021-06-26T04:51:50.000Z</time>
      </trkpt>
      <trkpt lat="45.21936" lon="5.73421">
        <ele>1068.8000488281</ele>
        <time>2021-06-26T04:51:52.000Z</time>
      </trkpt>
      <trkpt lat="45.21938" lon="5.73422">
        <ele>1068.8000488281</ele>
        <time>2021-06-26T04:51:53.000Z</time>
      </trkpt>
      <trkpt lat="45.2194" lon="5.73425">
        <ele>1069.4000244141</ele>
        <time>2021-06-26T04:51:55.000Z</time>
      </trkpt>
      <trkpt lat="45.21943" lon="5.73429">
        <ele>1069.8000488281</ele>
        <time>2021-06-26T04:51:57.000Z</time>
      </trkpt>
      <trkpt lat="45.21945" lon="5.7343">
        <ele>1070.4000244141</ele>
        <time>2021-06-26T04:51:58.000Z</time>
      </trkpt>
      <trkpt lat="45.21948" lon="5.73431">
        <ele>1070.4000244141</ele>
        <time>2021-06-26T04:52:00.000Z</time>
      </trkpt>
      <trkpt lat="45.21949" lon="5.73431">
        <ele>1070.4000244141</ele>
        <time>2021-06-26T04:52:01.000Z</time>
      </trkpt>
      <trkpt lat="45.2195" lon="5.73431">
        <ele>1070.8000488281</ele>
        <time>2021-06-26T04:52:02.000Z</time>
      </trkpt>
      <trkpt lat="45.21956" lon="5.7343">
        <ele>1071.1999511719</ele>
        <time>2021-06-26T04:52:05.000Z</time>
      </trkpt>
      <trkpt lat="45.21957" lon="5.73429">
        <ele>1071.1999511719</ele>
        <time>2021-06-26T04:52:06.000Z</time>
      </trkpt>
      <trkpt lat="45.21959" lon="5.73428">
        <ele>1071.4000244141</ele>
        <time>2021-06-26T04:52:07.000Z</time>
      </trkpt>
      <trkpt lat="45.21962" lon="5.73427">
        <ele>1071.5999755859</ele>
        <time>2021-06-26T04:52:09.000Z</time>
      </trkpt>
      <trkpt lat="45.21964" lon="5.73428">
        <ele>1071.8000488281</ele>
        <time>2021-06-26T04:52:10.000Z</time>
      </trkpt>
      <trkpt lat="45.21972" lon="5.7343">
        <ele>1071.8000488281</ele>
        <time>2021-06-26T04:52:14.000Z</time>
      </trkpt>
      <trkpt lat="45.21973" lon="5.73431">
        <ele>1072</ele>
        <time>2021-06-26T04:52:15.000Z</time>
      </trkpt>
      <trkpt lat="45.21977" lon="5.73431">
        <ele>1072.8000488281</ele>
        <time>2021-06-26T04:52:17.000Z</time>
      </trkpt>
      <trkpt lat="45.21979" lon="5.73432">
        <ele>1073.4000244141</ele>
        <time>2021-06-26T04:52:19.000Z</time>
      </trkpt>
      <trkpt lat="45.21981" lon="5.73433">
        <ele>1073.5999755859</ele>
        <time>2021-06-26T04:52:20.000Z</time>
      </trkpt>
      <trkpt lat="45.21987" lon="5.73437">
        <ele>1074.4000244141</ele>
        <time>2021-06-26T04:52:23.000Z</time>
      </trkpt>
      <trkpt lat="45.2199" lon="5.73438">
        <ele>1074.5999755859</ele>
        <time>2021-06-26T04:52:25.000Z</time>
      </trkpt>
      <trkpt lat="45.21997" lon="5.73438">
        <ele>1075.4000244141</ele>
        <time>2021-06-26T04:52:28.000Z</time>
      </trkpt>
      <trkpt lat="45.22008" lon="5.73439">
        <ele>1075.8000488281</ele>
        <time>2021-06-26T04:52:32.000Z</time>
      </trkpt>
      <trkpt lat="45.22014" lon="5.73442">
        <ele>1075.5999755859</ele>
        <time>2021-06-26T04:52:35.000Z</time>
      </trkpt>
      <trkpt lat="45.2202" lon="5.73447">
        <ele>1074.5999755859</ele>
        <time>2021-06-26T04:52:38.000Z</time>
      </trkpt>
      <trkpt lat="45.22026" lon="5.73451">
        <ele>1074.1999511719</ele>
        <time>2021-06-26T04:52:41.000Z</time>
      </trkpt>
      <trkpt lat="45.22028" lon="5.73453">
        <ele>1074</ele>
        <time>2021-06-26T04:52:42.000Z</time>
      </trkpt>
      <trkpt lat="45.22031" lon="5.73455">
        <ele>1073.4000244141</ele>
        <time>2021-06-26T04:52:44.000Z</time>
      </trkpt>
      <trkpt lat="45.22033" lon="5.73458">
        <ele>1072.1999511719</ele>
        <time>2021-06-26T04:52:47.000Z</time>
      </trkpt>
      <trkpt lat="45.22034" lon="5.73459">
        <ele>1071.5999755859</ele>
        <time>2021-06-26T04:52:49.000Z</time>
      </trkpt>
      <trkpt lat="45.22035" lon="5.73459">
        <ele>1071</ele>
        <time>2021-06-26T04:52:51.000Z</time>
      </trkpt>
      <trkpt lat="45.22036" lon="5.73459">
        <ele>1070.8000488281</ele>
        <time>2021-06-26T04:52:52.000Z</time>
      </trkpt>
      <trkpt lat="45.22038" lon="5.73461">
        <ele>1070.4000244141</ele>
        <time>2021-06-26T04:52:54.000Z</time>
      </trkpt>
      <trkpt lat="45.22041" lon="5.73462">
        <ele>1069.8000488281</ele>
        <time>2021-06-26T04:52:56.000Z</time>
      </trkpt>
      <trkpt lat="45.22045" lon="5.73464">
        <ele>1068.5999755859</ele>
        <time>2021-06-26T04:52:58.000Z</time>
      </trkpt>
      <trkpt lat="45.22053" lon="5.73472">
        <ele>1067.5999755859</ele>
        <time>2021-06-26T04:53:03.000Z</time>
      </trkpt>
      <trkpt lat="45.22055" lon="5.73473">
        <ele>1067</ele>
        <time>2021-06-26T04:53:04.000Z</time>
      </trkpt>
      <trkpt lat="45.22062" lon="5.73477">
        <ele>1066.4000244141</ele>
        <time>2021-06-26T04:53:07.000Z</time>
      </trkpt>
      <trkpt lat="45.22068" lon="5.73484">
        <ele>1065.5999755859</ele>
        <time>2021-06-26T04:53:11.000Z</time>
      </trkpt>
      <trkpt lat="45.2207" lon="5.73485">
        <ele>1065.4000244141</ele>
        <time>2021-06-26T04:53:12.000Z</time>
      </trkpt>
      <trkpt lat="45.22072" lon="5.73486">
        <ele>1065.1999511719</ele>
        <time>2021-06-26T04:53:13.000Z</time>
      </trkpt>
      <trkpt lat="45.2208" lon="5.73491">
        <ele>1064.4000244141</ele>
        <time>2021-06-26T04:53:17.000Z</time>
      </trkpt>
      <trkpt lat="45.22082" lon="5.73493">
        <ele>1063.5999755859</ele>
        <time>2021-06-26T04:53:18.000Z</time>
      </trkpt>
      <trkpt lat="45.22086" lon="5.73496">
        <ele>1062.8000488281</ele>
        <time>2021-06-26T04:53:20.000Z</time>
      </trkpt>
      <trkpt lat="45.22094" lon="5.735">
        <ele>1061.8000488281</ele>
        <time>2021-06-26T04:53:25.000Z</time>
      </trkpt>
      <trkpt lat="45.221" lon="5.73504">
        <ele>1060.4000244141</ele>
        <time>2021-06-26T04:53:28.000Z</time>
      </trkpt>
      <trkpt lat="45.22104" lon="5.73507">
        <ele>1059.8000488281</ele>
        <time>2021-06-26T04:53:31.000Z</time>
      </trkpt>
      <trkpt lat="45.22106" lon="5.73508">
        <ele>1059.1999511719</ele>
        <time>2021-06-26T04:53:33.000Z</time>
      </trkpt>
      <trkpt lat="45.22108" lon="5.73509">
        <ele>1058.4000244141</ele>
        <time>2021-06-26T04:53:36.000Z</time>
      </trkpt>
      <trkpt lat="45.22109" lon="5.73509">
        <ele>1057</ele>
        <time>2021-06-26T04:53:37.000Z</time>
      </trkpt>
      <trkpt lat="45.2211" lon="5.7351">
        <ele>1057</ele>
        <time>2021-06-26T04:53:38.000Z</time>
      </trkpt>
      <trkpt lat="45.22113" lon="5.73512">
        <ele>1056.8000488281</ele>
        <time>2021-06-26T04:53:40.000Z</time>
      </trkpt>
      <trkpt lat="45.22117" lon="5.73512">
        <ele>1055.5999755859</ele>
        <time>2021-06-26T04:53:43.000Z</time>
      </trkpt>
      <trkpt lat="45.22119" lon="5.73512">
        <ele>1055.5999755859</ele>
        <time>2021-06-26T04:53:44.000Z</time>
      </trkpt>
      <trkpt lat="45.22121" lon="5.73513">
        <ele>1054.5999755859</ele>
        <time>2021-06-26T04:53:45.000Z</time>
      </trkpt>
      <trkpt lat="45.22122" lon="5.73516">
        <ele>1054</ele>
        <time>2021-06-26T04:53:47.000Z</time>
      </trkpt>
      <trkpt lat="45.22123" lon="5.73519">
        <ele>1053.8000488281</ele>
        <time>2021-06-26T04:53:48.000Z</time>
      </trkpt>
      <trkpt lat="45.22124" lon="5.73526">
        <ele>1052.8000488281</ele>
        <time>2021-06-26T04:53:50.000Z</time>
      </trkpt>
      <trkpt lat="45.22126" lon="5.73533">
        <ele>1051.1999511719</ele>
        <time>2021-06-26T04:53:53.000Z</time>
      </trkpt>
      <trkpt lat="45.22127" lon="5.73533">
        <ele>1050.8000488281</ele>
        <time>2021-06-26T04:53:54.000Z</time>
      </trkpt>
      <trkpt lat="45.22129" lon="5.73534">
        <ele>1050.5999755859</ele>
        <time>2021-06-26T04:53:56.000Z</time>
      </trkpt>
      <trkpt lat="45.22132" lon="5.73535">
        <ele>1049</ele>
        <time>2021-06-26T04:53:58.000Z</time>
      </trkpt>
      <trkpt lat="45.22136" lon="5.73537">
        <ele>1047.8000488281</ele>
        <time>2021-06-26T04:54:01.000Z</time>
      </trkpt>
      <trkpt lat="45.22139" lon="5.7354">
        <ele>1046.1999511719</ele>
        <time>2021-06-26T04:54:04.000Z</time>
      </trkpt>
      <trkpt lat="45.22147" lon="5.73544">
        <ele>1045.1999511719</ele>
        <time>2021-06-26T04:54:08.000Z</time>
      </trkpt>
      <trkpt lat="45.22147" lon="5.73544">
        <ele>1044.4000244141</ele>
        <time>2021-06-26T04:54:10.000Z</time>
      </trkpt>
      <trkpt lat="45.22149" lon="5.73544">
        <ele>1044</ele>
        <time>2021-06-26T04:54:12.000Z</time>
      </trkpt>
      <trkpt lat="45.22153" lon="5.73549">
        <ele>1043</ele>
        <time>2021-06-26T04:54:15.000Z</time>
      </trkpt>
      <trkpt lat="45.22157" lon="5.7355">
        <ele>1042.1999511719</ele>
        <time>2021-06-26T04:54:18.000Z</time>
      </trkpt>
      <trkpt lat="45.22158" lon="5.7355">
        <ele>1042</ele>
        <time>2021-06-26T04:54:19.000Z</time>
      </trkpt>
      <trkpt lat="45.22163" lon="5.73553">
        <ele>1040.8000488281</ele>
        <time>2021-06-26T04:54:22.000Z</time>
      </trkpt>
      <trkpt lat="45.22169" lon="5.73557">
        <ele>1040.1999511719</ele>
        <time>2021-06-26T04:54:24.000Z</time>
      </trkpt>
      <trkpt lat="45.22171" lon="5.73559">
        <ele>1040</ele>
        <time>2021-06-26T04:54:25.000Z</time>
      </trkpt>
      <trkpt lat="45.22174" lon="5.73561">
        <ele>1039.5999755859</ele>
        <time>2021-06-26T04:54:26.000Z</time>
      </trkpt>
      <trkpt lat="45.22177" lon="5.73567">
        <ele>1038.5999755859</ele>
        <time>2021-06-26T04:54:29.000Z</time>
      </trkpt>
      <trkpt lat="45.22178" lon="5.73568">
        <ele>1038.1999511719</ele>
        <time>2021-06-26T04:54:32.000Z</time>
      </trkpt>
      <trkpt lat="45.22181" lon="5.73571">
        <ele>1037</ele>
        <time>2021-06-26T04:54:34.000Z</time>
      </trkpt>
      <trkpt lat="45.22185" lon="5.73575">
        <ele>1036.5999755859</ele>
        <time>2021-06-26T04:54:37.000Z</time>
      </trkpt>
      <trkpt lat="45.22189" lon="5.73579">
        <ele>1036</ele>
        <time>2021-06-26T04:54:39.000Z</time>
      </trkpt>
      <trkpt lat="45.2219" lon="5.73581">
        <ele>1036</ele>
        <time>2021-06-26T04:54:40.000Z</time>
      </trkpt>
      <trkpt lat="45.22191" lon="5.73583">
        <ele>1035.4000244141</ele>
        <time>2021-06-26T04:54:41.000Z</time>
      </trkpt>
      <trkpt lat="45.22196" lon="5.73588">
        <ele>1034.4000244141</ele>
        <time>2021-06-26T04:54:44.000Z</time>
      </trkpt>
      <trkpt lat="45.22198" lon="5.73589">
        <ele>1034.1999511719</ele>
        <time>2021-06-26T04:54:45.000Z</time>
      </trkpt>
      <trkpt lat="45.22204" lon="5.73598">
        <ele>1034</ele>
        <time>2021-06-26T04:54:49.000Z</time>
      </trkpt>
      <trkpt lat="45.22207" lon="5.73601">
        <ele>1033.8000488281</ele>
        <time>2021-06-26T04:54:51.000Z</time>
      </trkpt>
      <trkpt lat="45.22211" lon="5.73606">
        <ele>1033.4000244141</ele>
        <time>2021-06-26T04:54:53.000Z</time>
      </trkpt>
      <trkpt lat="45.22218" lon="5.73616">
        <ele>1032.1999511719</ele>
        <time>2021-06-26T04:54:58.000Z</time>
      </trkpt>
      <trkpt lat="45.2222" lon="5.73617">
        <ele>1032.1999511719</ele>
        <time>2021-06-26T04:54:59.000Z</time>
      </trkpt>
      <trkpt lat="45.22224" lon="5.73618">
        <ele>1031.8000488281</ele>
        <time>2021-06-26T04:55:01.000Z</time>
      </trkpt>
      <trkpt lat="45.22231" lon="5.73623">
        <ele>1031.4000244141</ele>
        <time>2021-06-26T04:55:04.000Z</time>
      </trkpt>
      <trkpt lat="45.22233" lon="5.73624">
        <ele>1031.1999511719</ele>
        <time>2021-06-26T04:55:05.000Z</time>
      </trkpt>
      <trkpt lat="45.22234" lon="5.73625">
        <ele>1031.1999511719</ele>
        <time>2021-06-26T04:55:06.000Z</time>
      </trkpt>
      <trkpt lat="45.2224" lon="5.73629">
        <ele>1030.1999511719</ele>
        <time>2021-06-26T04:55:10.000Z</time>
      </trkpt>
      <trkpt lat="45.22248" lon="5.73635">
        <ele>1030</ele>
        <time>2021-06-26T04:55:13.000Z</time>
      </trkpt>
      <trkpt lat="45.22252" lon="5.73636">
        <ele>1029.1999511719</ele>
        <time>2021-06-26T04:55:15.000Z</time>
      </trkpt>
      <trkpt lat="45.22254" lon="5.73637">
        <ele>1029</ele>
        <time>2021-06-26T04:55:16.000Z</time>
      </trkpt>
      <trkpt lat="45.22256" lon="5.73638">
        <ele>1028</ele>
        <time>2021-06-26T04:55:17.000Z</time>
      </trkpt>
      <trkpt lat="45.22258" lon="5.73641">
        <ele>1027.4000244141</ele>
        <time>2021-06-26T04:55:19.000Z</time>
      </trkpt>
      <trkpt lat="45.2226" lon="5.73641">
        <ele>1027.1999511719</ele>
        <time>2021-06-26T04:55:20.000Z</time>
      </trkpt>
      <trkpt lat="45.22261" lon="5.73643">
        <ele>1026.8000488281</ele>
        <time>2021-06-26T04:55:21.000Z</time>
      </trkpt>
      <trkpt lat="45.22262" lon="5.73644">
        <ele>1026.8000488281</ele>
        <time>2021-06-26T04:55:22.000Z</time>
      </trkpt>
      <trkpt lat="45.22263" lon="5.73644">
        <ele>1026.1999511719</ele>
        <time>2021-06-26T04:55:24.000Z</time>
      </trkpt>
      <trkpt lat="45.22266" lon="5.73644">
        <ele>1025.5999755859</ele>
        <time>2021-06-26T04:55:26.000Z</time>
      </trkpt>
      <trkpt lat="45.22271" lon="5.73645">
        <ele>1024.5999755859</ele>
        <time>2021-06-26T04:55:28.000Z</time>
      </trkpt>
      <trkpt lat="45.22274" lon="5.73645">
        <ele>1024.5999755859</ele>
        <time>2021-06-26T04:55:29.000Z</time>
      </trkpt>
      <trkpt lat="45.22279" lon="5.73647">
        <ele>1023.4000244141</ele>
        <time>2021-06-26T04:55:33.000Z</time>
      </trkpt>
      <trkpt lat="45.22284" lon="5.73649">
        <ele>1022.4000244141</ele>
        <time>2021-06-26T04:55:35.000Z</time>
      </trkpt>
      <trkpt lat="45.22289" lon="5.7365">
        <ele>1021.799987793</ele>
        <time>2021-06-26T04:55:37.000Z</time>
      </trkpt>
      <trkpt lat="45.22291" lon="5.73649">
        <ele>1021.200012207</ele>
        <time>2021-06-26T04:55:39.000Z</time>
      </trkpt>
      <trkpt lat="45.22292" lon="5.7365">
        <ele>1019.799987793</ele>
        <time>2021-06-26T04:55:40.000Z</time>
      </trkpt>
      <trkpt lat="45.22293" lon="5.7365">
        <ele>1019.5999755859</ele>
        <time>2021-06-26T04:55:41.000Z</time>
      </trkpt>
      <trkpt lat="45.22294" lon="5.73649">
        <ele>1019</ele>
        <time>2021-06-26T04:55:42.000Z</time>
      </trkpt>
      <trkpt lat="45.22295" lon="5.73649">
        <ele>1018.4000244141</ele>
        <time>2021-06-26T04:55:44.000Z</time>
      </trkpt>
      <trkpt lat="45.22298" lon="5.7365">
        <ele>1018.200012207</ele>
        <time>2021-06-26T04:55:45.000Z</time>
      </trkpt>
      <trkpt lat="45.223" lon="5.73651">
        <ele>1018</ele>
        <time>2021-06-26T04:55:46.000Z</time>
      </trkpt>
      <trkpt lat="45.22304" lon="5.73652">
        <ele>1017.200012207</ele>
        <time>2021-06-26T04:55:48.000Z</time>
      </trkpt>
      <trkpt lat="45.22309" lon="5.73652">
        <ele>1016.200012207</ele>
        <time>2021-06-26T04:55:52.000Z</time>
      </trkpt>
      <trkpt lat="45.22311" lon="5.73653">
        <ele>1016.200012207</ele>
        <time>2021-06-26T04:55:53.000Z</time>
      </trkpt>
      <trkpt lat="45.22315" lon="5.73655">
        <ele>1015.4000244141</ele>
        <time>2021-06-26T04:55:56.000Z</time>
      </trkpt>
      <trkpt lat="45.22317" lon="5.73656">
        <ele>1014.799987793</ele>
        <time>2021-06-26T04:55:57.000Z</time>
      </trkpt>
      <trkpt lat="45.22318" lon="5.73656">
        <ele>1014.200012207</ele>
        <time>2021-06-26T04:55:58.000Z</time>
      </trkpt>
      <trkpt lat="45.22319" lon="5.73657">
        <ele>1013.799987793</ele>
        <time>2021-06-26T04:55:59.000Z</time>
      </trkpt>
      <trkpt lat="45.22324" lon="5.73658">
        <ele>1012.799987793</ele>
        <time>2021-06-26T04:56:02.000Z</time>
      </trkpt>
      <trkpt lat="45.22327" lon="5.73658">
        <ele>1012.5999755859</ele>
        <time>2021-06-26T04:56:04.000Z</time>
      </trkpt>
      <trkpt lat="45.22329" lon="5.73658">
        <ele>1012.200012207</ele>
        <time>2021-06-26T04:56:05.000Z</time>
      </trkpt>
      <trkpt lat="45.22336" lon="5.7366">
        <ele>1011.5999755859</ele>
        <time>2021-06-26T04:56:08.000Z</time>
      </trkpt>
      <trkpt lat="45.22341" lon="5.73661">
        <ele>1011.5999755859</ele>
        <time>2021-06-26T04:56:10.000Z</time>
      </trkpt>
      <trkpt lat="45.22349" lon="5.73664">
        <ele>1011.5999755859</ele>
        <time>2021-06-26T04:56:13.000Z</time>
      </trkpt>
      <trkpt lat="45.22353" lon="5.73666">
        <ele>1010.799987793</ele>
        <time>2021-06-26T04:56:16.000Z</time>
      </trkpt>
      <trkpt lat="45.22353" lon="5.73667">
        <ele>1010.4000244141</ele>
        <time>2021-06-26T04:56:17.000Z</time>
      </trkpt>
      <trkpt lat="45.2236" lon="5.73671">
        <ele>1009.5999755859</ele>
        <time>2021-06-26T04:56:21.000Z</time>
      </trkpt>
      <trkpt lat="45.22362" lon="5.73672">
        <ele>1009.799987793</ele>
        <time>2021-06-26T04:56:22.000Z</time>
      </trkpt>
      <trkpt lat="45.22367" lon="5.73673">
        <ele>1009.5999755859</ele>
        <time>2021-06-26T04:56:24.000Z</time>
      </trkpt>
      <trkpt lat="45.22371" lon="5.73675">
        <ele>1010.200012207</ele>
        <time>2021-06-26T04:56:26.000Z</time>
      </trkpt>
      <trkpt lat="45.22373" lon="5.73677">
        <ele>1010.200012207</ele>
        <time>2021-06-26T04:56:27.000Z</time>
      </trkpt>
      <trkpt lat="45.22375" lon="5.73678">
        <ele>1010.200012207</ele>
        <time>2021-06-26T04:56:28.000Z</time>
      </trkpt>
      <trkpt lat="45.2238" lon="5.73679">
        <ele>1011.200012207</ele>
        <time>2021-06-26T04:56:32.000Z</time>
      </trkpt>
      <trkpt lat="45.22381" lon="5.73679">
        <ele>1011.5999755859</ele>
        <time>2021-06-26T04:56:33.000Z</time>
      </trkpt>
      <trkpt lat="45.22384" lon="5.7368">
        <ele>1012</ele>
        <time>2021-06-26T04:56:35.000Z</time>
      </trkpt>
      <trkpt lat="45.22386" lon="5.73681">
        <ele>1012.4000244141</ele>
        <time>2021-06-26T04:56:37.000Z</time>
      </trkpt>
      <trkpt lat="45.22388" lon="5.73681">
        <ele>1012.4000244141</ele>
        <time>2021-06-26T04:56:38.000Z</time>
      </trkpt>
      <trkpt lat="45.22388" lon="5.73682">
        <ele>1012.5999755859</ele>
        <time>2021-06-26T04:56:39.000Z</time>
      </trkpt>
      <trkpt lat="45.22389" lon="5.73682">
        <ele>1013.5999755859</ele>
        <time>2021-06-26T04:56:40.000Z</time>
      </trkpt>
      <trkpt lat="45.2239" lon="5.73682">
        <ele>1013.799987793</ele>
        <time>2021-06-26T04:56:41.000Z</time>
      </trkpt>
      <trkpt lat="45.22393" lon="5.73682">
        <ele>1014.4000244141</ele>
        <time>2021-06-26T04:56:44.000Z</time>
      </trkpt>
      <trkpt lat="45.22394" lon="5.73682">
        <ele>1014.5999755859</ele>
        <time>2021-06-26T04:56:45.000Z</time>
      </trkpt>
      <trkpt lat="45.22396" lon="5.73683">
        <ele>1015.5999755859</ele>
        <time>2021-06-26T04:56:47.000Z</time>
      </trkpt>
      <trkpt lat="45.22396" lon="5.73683">
        <ele>1016</ele>
        <time>2021-06-26T04:56:48.000Z</time>
      </trkpt>
      <trkpt lat="45.22398" lon="5.73684">
        <ele>1016.5999755859</ele>
        <time>2021-06-26T04:56:50.000Z</time>
      </trkpt>
      <trkpt lat="45.22399" lon="5.73685">
        <ele>1017</ele>
        <time>2021-06-26T04:56:51.000Z</time>
      </trkpt>
      <trkpt lat="45.22401" lon="5.73686">
        <ele>1017.5999755859</ele>
        <time>2021-06-26T04:56:52.000Z</time>
      </trkpt>
      <trkpt lat="45.22405" lon="5.73689">
        <ele>1018</ele>
        <time>2021-06-26T04:56:55.000Z</time>
      </trkpt>
      <trkpt lat="45.22407" lon="5.73689">
        <ele>1018.799987793</ele>
        <time>2021-06-26T04:56:57.000Z</time>
      </trkpt>
      <trkpt lat="45.22408" lon="5.73689">
        <ele>1019.4000244141</ele>
        <time>2021-06-26T04:56:58.000Z</time>
      </trkpt>
      <trkpt lat="45.2241" lon="5.73689">
        <ele>1019.799987793</ele>
        <time>2021-06-26T04:57:00.000Z</time>
      </trkpt>
      <trkpt lat="45.22411" lon="5.73689">
        <ele>1020.4000244141</ele>
        <time>2021-06-26T04:57:01.000Z</time>
      </trkpt>
      <trkpt lat="45.22413" lon="5.73688">
        <ele>1020.5999755859</ele>
        <time>2021-06-26T04:57:04.000Z</time>
      </trkpt>
      <trkpt lat="45.22415" lon="5.73688">
        <ele>1021.200012207</ele>
        <time>2021-06-26T04:57:06.000Z</time>
      </trkpt>
      <trkpt lat="45.22416" lon="5.73688">
        <ele>1021.4000244141</ele>
        <time>2021-06-26T04:57:07.000Z</time>
      </trkpt>
      <trkpt lat="45.22419" lon="5.73689">
        <ele>1021.799987793</ele>
        <time>2021-06-26T04:57:08.000Z</time>
      </trkpt>
      <trkpt lat="45.22424" lon="5.73689">
        <ele>1022.4000244141</ele>
        <time>2021-06-26T04:57:11.000Z</time>
      </trkpt>
      <trkpt lat="45.22426" lon="5.73689">
        <ele>1022.5999755859</ele>
        <time>2021-06-26T04:57:12.000Z</time>
      </trkpt>
      <trkpt lat="45.22427" lon="5.73689">
        <ele>1022.5999755859</ele>
        <time>2021-06-26T04:57:13.000Z</time>
      </trkpt>
      <trkpt lat="45.22431" lon="5.7369">
        <ele>1023.200012207</ele>
        <time>2021-06-26T04:57:15.000Z</time>
      </trkpt>
      <trkpt lat="45.22439" lon="5.73694">
        <ele>1023.4000244141</ele>
        <time>2021-06-26T04:57:19.000Z</time>
      </trkpt>
      <trkpt lat="45.22444" lon="5.73694">
        <ele>1023.5999755859</ele>
        <time>2021-06-26T04:57:21.000Z</time>
      </trkpt>
      <trkpt lat="45.22452" lon="5.73695">
        <ele>1022.5999755859</ele>
        <time>2021-06-26T04:57:26.000Z</time>
      </trkpt>
      <trkpt lat="45.22458" lon="5.73693">
        <ele>1022.799987793</ele>
        <time>2021-06-26T04:57:29.000Z</time>
      </trkpt>
      <trkpt lat="45.22461" lon="5.73693">
        <ele>1024.4000244141</ele>
        <time>2021-06-26T04:57:31.000Z</time>
      </trkpt>
      <trkpt lat="45.22463" lon="5.73694">
        <ele>1025.1999511719</ele>
        <time>2021-06-26T04:57:33.000Z</time>
      </trkpt>
      <trkpt lat="45.22465" lon="5.73694">
        <ele>1025.8000488281</ele>
        <time>2021-06-26T04:57:35.000Z</time>
      </trkpt>
      <trkpt lat="45.22469" lon="5.73695">
        <ele>1026.5999755859</ele>
        <time>2021-06-26T04:57:39.000Z</time>
      </trkpt>
      <trkpt lat="45.2247" lon="5.73695">
        <ele>1027.4000244141</ele>
        <time>2021-06-26T04:57:40.000Z</time>
      </trkpt>
      <trkpt lat="45.22471" lon="5.73695">
        <ele>1027.5999755859</ele>
        <time>2021-06-26T04:57:41.000Z</time>
      </trkpt>
      <trkpt lat="45.22471" lon="5.73694">
        <ele>1027.5999755859</ele>
        <time>2021-06-26T04:57:42.000Z</time>
      </trkpt>
      <trkpt lat="45.22474" lon="5.73693">
        <ele>1028.5999755859</ele>
        <time>2021-06-26T04:57:44.000Z</time>
      </trkpt>
      <trkpt lat="45.22475" lon="5.73692">
        <ele>1029</ele>
        <time>2021-06-26T04:57:45.000Z</time>
      </trkpt>
      <trkpt lat="45.22477" lon="5.73691">
        <ele>1029.1999511719</ele>
        <time>2021-06-26T04:57:47.000Z</time>
      </trkpt>
      <trkpt lat="45.2248" lon="5.73691">
        <ele>1030.1999511719</ele>
        <time>2021-06-26T04:57:50.000Z</time>
      </trkpt>
      <trkpt lat="45.22483" lon="5.7369">
        <ele>1030.8000488281</ele>
        <time>2021-06-26T04:57:53.000Z</time>
      </trkpt>
      <trkpt lat="45.22485" lon="5.73689">
        <ele>1030.8000488281</ele>
        <time>2021-06-26T04:57:54.000Z</time>
      </trkpt>
      <trkpt lat="45.22486" lon="5.73688">
        <ele>1031.1999511719</ele>
        <time>2021-06-26T04:57:55.000Z</time>
      </trkpt>
      <trkpt lat="45.2249" lon="5.73686">
        <ele>1032.5999755859</ele>
        <time>2021-06-26T04:57:59.000Z</time>
      </trkpt>
      <trkpt lat="45.22492" lon="5.73682">
        <ele>1033.5999755859</ele>
        <time>2021-06-26T04:58:03.000Z</time>
      </trkpt>
      <trkpt lat="45.22496" lon="5.73682">
        <ele>1034.1999511719</ele>
        <time>2021-06-26T04:58:06.000Z</time>
      </trkpt>
      <trkpt lat="45.22499" lon="5.73683">
        <ele>1035.1999511719</ele>
        <time>2021-06-26T04:58:08.000Z</time>
      </trkpt>
      <trkpt lat="45.22506" lon="5.73682">
        <ele>1036</ele>
        <time>2021-06-26T04:58:12.000Z</time>
      </trkpt>
      <trkpt lat="45.22508" lon="5.73683">
        <ele>1036.4000244141</ele>
        <time>2021-06-26T04:58:13.000Z</time>
      </trkpt>
      <trkpt lat="45.22511" lon="5.73685">
        <ele>1037.1999511719</ele>
        <time>2021-06-26T04:58:16.000Z</time>
      </trkpt>
      <trkpt lat="45.22512" lon="5.73686">
        <ele>1037.1999511719</ele>
        <time>2021-06-26T04:58:17.000Z</time>
      </trkpt>
      <trkpt lat="45.22512" lon="5.73686">
        <ele>1037.4000244141</ele>
        <time>2021-06-26T04:58:18.000Z</time>
      </trkpt>
      <trkpt lat="45.22513" lon="5.73686">
        <ele>1037.8000488281</ele>
        <time>2021-06-26T04:58:19.000Z</time>
      </trkpt>
      <trkpt lat="45.22515" lon="5.73687">
        <ele>1038.8000488281</ele>
        <time>2021-06-26T04:58:22.000Z</time>
      </trkpt>
      <trkpt lat="45.22516" lon="5.73687">
        <ele>1039</ele>
        <time>2021-06-26T04:58:23.000Z</time>
      </trkpt>
      <trkpt lat="45.22517" lon="5.73687">
        <ele>1039</ele>
        <time>2021-06-26T04:58:24.000Z</time>
      </trkpt>
      <trkpt lat="45.22521" lon="5.73688">
        <ele>1040.1999511719</ele>
        <time>2021-06-26T04:58:28.000Z</time>
      </trkpt>
      <trkpt lat="45.22525" lon="5.73688">
        <ele>1040.5999755859</ele>
        <time>2021-06-26T04:58:31.000Z</time>
      </trkpt>
      <trkpt lat="45.22528" lon="5.73689">
        <ele>1041.4000244141</ele>
        <time>2021-06-26T04:58:33.000Z</time>
      </trkpt>
      <trkpt lat="45.2253" lon="5.73689">
        <ele>1041.8000488281</ele>
        <time>2021-06-26T04:58:35.000Z</time>
      </trkpt>
      <trkpt lat="45.22531" lon="5.73689">
        <ele>1042</ele>
        <time>2021-06-26T04:58:36.000Z</time>
      </trkpt>
      <trkpt lat="45.22532" lon="5.7369">
        <ele>1043</ele>
        <time>2021-06-26T04:58:37.000Z</time>
      </trkpt>
      <trkpt lat="45.22537" lon="5.73694">
        <ele>1043.5999755859</ele>
        <time>2021-06-26T04:58:42.000Z</time>
      </trkpt>
      <trkpt lat="45.2254" lon="5.73695">
        <ele>1044.4000244141</ele>
        <time>2021-06-26T04:58:44.000Z</time>
      </trkpt>
      <trkpt lat="45.22542" lon="5.73695">
        <ele>1044.5999755859</ele>
        <time>2021-06-26T04:58:45.000Z</time>
      </trkpt>
      <trkpt lat="45.22545" lon="5.73696">
        <ele>1045</ele>
        <time>2021-06-26T04:58:47.000Z</time>
      </trkpt>
      <trkpt lat="45.22548" lon="5.73698">
        <ele>1045.8000488281</ele>
        <time>2021-06-26T04:58:49.000Z</time>
      </trkpt>
      <trkpt lat="45.22552" lon="5.73701">
        <ele>1046.4000244141</ele>
        <time>2021-06-26T04:58:51.000Z</time>
      </trkpt>
      <trkpt lat="45.22554" lon="5.73703">
        <ele>1046.4000244141</ele>
        <time>2021-06-26T04:58:52.000Z</time>
      </trkpt>
      <trkpt lat="45.22555" lon="5.73704">
        <ele>1046.8000488281</ele>
        <time>2021-06-26T04:58:53.000Z</time>
      </trkpt>
      <trkpt lat="45.22556" lon="5.73705">
        <ele>1047</ele>
        <time>2021-06-26T04:58:54.000Z</time>
      </trkpt>
      <trkpt lat="45.22564" lon="5.7371">
        <ele>1047.1999511719</ele>
        <time>2021-06-26T04:58:58.000Z</time>
      </trkpt>
      <trkpt lat="45.2257" lon="5.73711">
        <ele>1047.4000244141</ele>
        <time>2021-06-26T04:59:02.000Z</time>
      </trkpt>
      <trkpt lat="45.22573" lon="5.7371">
        <ele>1047.8000488281</ele>
        <time>2021-06-26T04:59:05.000Z</time>
      </trkpt>
      <trkpt lat="45.22574" lon="5.7371">
        <ele>1048.1999511719</ele>
        <time>2021-06-26T04:59:06.000Z</time>
      </trkpt>
      <trkpt lat="45.2258" lon="5.73712">
        <ele>1049</ele>
        <time>2021-06-26T04:59:09.000Z</time>
      </trkpt>
      <trkpt lat="45.22582" lon="5.73712">
        <ele>1049.1999511719</ele>
        <time>2021-06-26T04:59:10.000Z</time>
      </trkpt>
      <trkpt lat="45.22583" lon="5.73713">
        <ele>1049.4000244141</ele>
        <time>2021-06-26T04:59:11.000Z</time>
      </trkpt>
      <trkpt lat="45.22584" lon="5.73714">
        <ele>1049.8000488281</ele>
        <time>2021-06-26T04:59:13.000Z</time>
      </trkpt>
      <trkpt lat="45.22588" lon="5.73716">
        <ele>1050.5999755859</ele>
        <time>2021-06-26T04:59:15.000Z</time>
      </trkpt>
      <trkpt lat="45.22591" lon="5.73719">
        <ele>1051.1999511719</ele>
        <time>2021-06-26T04:59:17.000Z</time>
      </trkpt>
      <trkpt lat="45.22594" lon="5.73721">
        <ele>1052.1999511719</ele>
        <time>2021-06-26T04:59:19.000Z</time>
      </trkpt>
      <trkpt lat="45.22595" lon="5.73722">
        <ele>1052.4000244141</ele>
        <time>2021-06-26T04:59:20.000Z</time>
      </trkpt>
      <trkpt lat="45.226" lon="5.73724">
        <ele>1053.4000244141</ele>
        <time>2021-06-26T04:59:24.000Z</time>
      </trkpt>
      <trkpt lat="45.22608" lon="5.73728">
        <ele>1054.4000244141</ele>
        <time>2021-06-26T04:59:30.000Z</time>
      </trkpt>
      <trkpt lat="45.22609" lon="5.73729">
        <ele>1054.4000244141</ele>
        <time>2021-06-26T04:59:31.000Z</time>
      </trkpt>
      <trkpt lat="45.22614" lon="5.73734">
        <ele>1055.4000244141</ele>
        <time>2021-06-26T04:59:36.000Z</time>
      </trkpt>
      <trkpt lat="45.22615" lon="5.73735">
        <ele>1055</ele>
        <time>2021-06-26T04:59:37.000Z</time>
      </trkpt>
      <trkpt lat="45.22616" lon="5.73736">
        <ele>1055</ele>
        <time>2021-06-26T04:59:38.000Z</time>
      </trkpt>
      <trkpt lat="45.22619" lon="5.73741">
        <ele>1055</ele>
        <time>2021-06-26T04:59:41.000Z</time>
      </trkpt>
      <trkpt lat="45.22625" lon="5.73747">
        <ele>1055</ele>
        <time>2021-06-26T04:59:44.000Z</time>
      </trkpt>
      <trkpt lat="45.22627" lon="5.73748">
        <ele>1055</ele>
        <time>2021-06-26T04:59:45.000Z</time>
      </trkpt>
      <trkpt lat="45.22638" lon="5.73759">
        <ele>1054.8000488281</ele>
        <time>2021-06-26T04:59:50.000Z</time>
      </trkpt>
      <trkpt lat="45.22641" lon="5.73764">
        <ele>1055</ele>
        <time>2021-06-26T04:59:52.000Z</time>
      </trkpt>
      <trkpt lat="45.22655" lon="5.73769">
        <ele>1056.8000488281</ele>
        <time>2021-06-26T04:59:58.000Z</time>
      </trkpt>
      <trkpt lat="45.2266" lon="5.73772">
        <ele>1057.1999511719</ele>
        <time>2021-06-26T05:00:01.000Z</time>
      </trkpt>
      <trkpt lat="45.22662" lon="5.73773">
        <ele>1058</ele>
        <time>2021-06-26T05:00:02.000Z</time>
      </trkpt>
      <trkpt lat="45.22672" lon="5.73782">
        <ele>1059.5999755859</ele>
        <time>2021-06-26T05:00:08.000Z</time>
      </trkpt>
      <trkpt lat="45.22673" lon="5.73783">
        <ele>1059.5999755859</ele>
        <time>2021-06-26T05:00:09.000Z</time>
      </trkpt>
      <trkpt lat="45.22672" lon="5.73784">
        <ele>1059.8000488281</ele>
        <time>2021-06-26T05:00:10.000Z</time>
      </trkpt>
      <trkpt lat="45.22675" lon="5.7379">
        <ele>1059.8000488281</ele>
        <time>2021-06-26T05:00:13.000Z</time>
      </trkpt>
      <trkpt lat="45.22676" lon="5.73791">
        <ele>1060</ele>
        <time>2021-06-26T05:00:14.000Z</time>
      </trkpt>
      <trkpt lat="45.22694" lon="5.73804">
        <ele>1060</ele>
        <time>2021-06-26T05:00:20.000Z</time>
      </trkpt>
      <trkpt lat="45.227" lon="5.73806">
        <ele>1061</ele>
        <time>2021-06-26T05:00:23.000Z</time>
      </trkpt>
      <trkpt lat="45.22708" lon="5.73807">
        <ele>1061.4000244141</ele>
        <time>2021-06-26T05:00:28.000Z</time>
      </trkpt>
      <trkpt lat="45.22711" lon="5.73809">
        <ele>1061.4000244141</ele>
        <time>2021-06-26T05:00:30.000Z</time>
      </trkpt>
      <trkpt lat="45.22713" lon="5.73809">
        <ele>1061.4000244141</ele>
        <time>2021-06-26T05:00:31.000Z</time>
      </trkpt>
      <trkpt lat="45.22726" lon="5.73815">
        <ele>1060.5999755859</ele>
        <time>2021-06-26T05:00:38.000Z</time>
      </trkpt>
      <trkpt lat="45.2274" lon="5.73819">
        <ele>1060.4000244141</ele>
        <time>2021-06-26T05:00:45.000Z</time>
      </trkpt>
      <trkpt lat="45.22756" lon="5.73831">
        <ele>1060.1999511719</ele>
        <time>2021-06-26T05:00:52.000Z</time>
      </trkpt>
      <trkpt lat="45.2276" lon="5.73833">
        <ele>1060.1999511719</ele>
        <time>2021-06-26T05:00:55.000Z</time>
      </trkpt>
      <trkpt lat="45.22773" lon="5.7384">
        <ele>1060.4000244141</ele>
        <time>2021-06-26T05:01:03.000Z</time>
      </trkpt>
      <trkpt lat="45.22777" lon="5.73842">
        <ele>1060.1999511719</ele>
        <time>2021-06-26T05:01:05.000Z</time>
      </trkpt>
      <trkpt lat="45.22779" lon="5.73843">
        <ele>1060.1999511719</ele>
        <time>2021-06-26T05:01:06.000Z</time>
      </trkpt>
      <trkpt lat="45.22781" lon="5.73843">
        <ele>1059.8000488281</ele>
        <time>2021-06-26T05:01:07.000Z</time>
      </trkpt>
      <trkpt lat="45.22792" lon="5.73848">
        <ele>1059</ele>
        <time>2021-06-26T05:01:12.000Z</time>
      </trkpt>
      <trkpt lat="45.22795" lon="5.73848">
        <ele>1058.5999755859</ele>
        <time>2021-06-26T05:01:13.000Z</time>
      </trkpt>
      <trkpt lat="45.22806" lon="5.73854">
        <ele>1057.5999755859</ele>
        <time>2021-06-26T05:01:17.000Z</time>
      </trkpt>
      <trkpt lat="45.22808" lon="5.73855">
        <ele>1057.4000244141</ele>
        <time>2021-06-26T05:01:18.000Z</time>
      </trkpt>
      <trkpt lat="45.22812" lon="5.73857">
        <ele>1056.8000488281</ele>
        <time>2021-06-26T05:01:20.000Z</time>
      </trkpt>
      <trkpt lat="45.22817" lon="5.73859">
        <ele>1056.1999511719</ele>
        <time>2021-06-26T05:01:23.000Z</time>
      </trkpt>
      <trkpt lat="45.22826" lon="5.73863">
        <ele>1055.1999511719</ele>
        <time>2021-06-26T05:01:27.000Z</time>
      </trkpt>
      <trkpt lat="45.2284" lon="5.73867">
        <ele>1054.8000488281</ele>
        <time>2021-06-26T05:01:34.000Z</time>
      </trkpt>
      <trkpt lat="45.22847" lon="5.7387">
        <ele>1054</ele>
        <time>2021-06-26T05:01:38.000Z</time>
      </trkpt>
      <trkpt lat="45.22853" lon="5.73872">
        <ele>1053.1999511719</ele>
        <time>2021-06-26T05:01:41.000Z</time>
      </trkpt>
      <trkpt lat="45.22862" lon="5.73873">
        <ele>1053.1999511719</ele>
        <time>2021-06-26T05:01:44.000Z</time>
      </trkpt>
      <trkpt lat="45.22867" lon="5.73872">
        <ele>1053.1999511719</ele>
        <time>2021-06-26T05:01:46.000Z</time>
      </trkpt>
      <trkpt lat="45.22882" lon="5.73866">
        <ele>1053.4000244141</ele>
        <time>2021-06-26T05:01:52.000Z</time>
      </trkpt>
      <trkpt lat="45.22884" lon="5.73865">
        <ele>1053</ele>
        <time>2021-06-26T05:01:53.000Z</time>
      </trkpt>
      <trkpt lat="45.22893" lon="5.73862">
        <ele>1052</ele>
        <time>2021-06-26T05:01:57.000Z</time>
      </trkpt>
      <trkpt lat="45.22898" lon="5.73861">
        <ele>1052</ele>
        <time>2021-06-26T05:01:59.000Z</time>
      </trkpt>
      <trkpt lat="45.22902" lon="5.73861">
        <ele>1051.8000488281</ele>
        <time>2021-06-26T05:02:01.000Z</time>
      </trkpt>
      <trkpt lat="45.22909" lon="5.7386">
        <ele>1051.5999755859</ele>
        <time>2021-06-26T05:02:03.000Z</time>
      </trkpt>
      <trkpt lat="45.22916" lon="5.7386">
        <ele>1051.4000244141</ele>
        <time>2021-06-26T05:02:05.000Z</time>
      </trkpt>
      <trkpt lat="45.22929" lon="5.7386">
        <ele>1050.8000488281</ele>
        <time>2021-06-26T05:02:09.000Z</time>
      </trkpt>
      <trkpt lat="45.22932" lon="5.7386">
        <ele>1050.4000244141</ele>
        <time>2021-06-26T05:02:11.000Z</time>
      </trkpt>
      <trkpt lat="45.22935" lon="5.7386">
        <ele>1050.1999511719</ele>
        <time>2021-06-26T05:02:12.000Z</time>
      </trkpt>
      <trkpt lat="45.22938" lon="5.73862">
        <ele>1049.4000244141</ele>
        <time>2021-06-26T05:02:13.000Z</time>
      </trkpt>
      <trkpt lat="45.2294" lon="5.73864">
        <ele>1049.1999511719</ele>
        <time>2021-06-26T05:02:14.000Z</time>
      </trkpt>
      <trkpt lat="45.22941" lon="5.73867">
        <ele>1049.1999511719</ele>
        <time>2021-06-26T05:02:15.000Z</time>
      </trkpt>
      <trkpt lat="45.22945" lon="5.73877">
        <ele>1049</ele>
        <time>2021-06-26T05:02:19.000Z</time>
      </trkpt>
      <trkpt lat="45.22947" lon="5.73881">
        <ele>1048.1999511719</ele>
        <time>2021-06-26T05:02:20.000Z</time>
      </trkpt>
      <trkpt lat="45.22948" lon="5.73885">
        <ele>1047.5999755859</ele>
        <time>2021-06-26T05:02:22.000Z</time>
      </trkpt>
      <trkpt lat="45.2295" lon="5.73887">
        <ele>1046.1999511719</ele>
        <time>2021-06-26T05:02:23.000Z</time>
      </trkpt>
      <trkpt lat="45.22951" lon="5.73894">
        <ele>1045.4000244141</ele>
        <time>2021-06-26T05:02:25.000Z</time>
      </trkpt>
      <trkpt lat="45.22953" lon="5.73898">
        <ele>1044.8000488281</ele>
        <time>2021-06-26T05:02:26.000Z</time>
      </trkpt>
      <trkpt lat="45.22954" lon="5.73909">
        <ele>1044</ele>
        <time>2021-06-26T05:02:29.000Z</time>
      </trkpt>
      <trkpt lat="45.22957" lon="5.7392">
        <ele>1043.5999755859</ele>
        <time>2021-06-26T05:02:32.000Z</time>
      </trkpt>
      <trkpt lat="45.22958" lon="5.73923">
        <ele>1043.5999755859</ele>
        <time>2021-06-26T05:02:33.000Z</time>
      </trkpt>
      <trkpt lat="45.2296" lon="5.73926">
        <ele>1043.5999755859</ele>
        <time>2021-06-26T05:02:34.000Z</time>
      </trkpt>
      <trkpt lat="45.2297" lon="5.73944">
        <ele>1043.8000488281</ele>
        <time>2021-06-26T05:02:41.000Z</time>
      </trkpt>
      <trkpt lat="45.22972" lon="5.73947">
        <ele>1043.8000488281</ele>
        <time>2021-06-26T05:02:42.000Z</time>
      </trkpt>
      <trkpt lat="45.22984" lon="5.73955">
        <ele>1044.1999511719</ele>
        <time>2021-06-26T05:02:49.000Z</time>
      </trkpt>
      <trkpt lat="45.22991" lon="5.73956">
        <ele>1044.8000488281</ele>
        <time>2021-06-26T05:02:52.000Z</time>
      </trkpt>
      <trkpt lat="45.22997" lon="5.73957">
        <ele>1045</ele>
        <time>2021-06-26T05:02:55.000Z</time>
      </trkpt>
      <trkpt lat="45.23006" lon="5.73962">
        <ele>1045.8000488281</ele>
        <time>2021-06-26T05:02:59.000Z</time>
      </trkpt>
      <trkpt lat="45.23021" lon="5.73966">
        <ele>1046</ele>
        <time>2021-06-26T05:03:05.000Z</time>
      </trkpt>
      <trkpt lat="45.23026" lon="5.73967">
        <ele>1045.8000488281</ele>
        <time>2021-06-26T05:03:07.000Z</time>
      </trkpt>
      <trkpt lat="45.2304" lon="5.73968">
        <ele>1046.1999511719</ele>
        <time>2021-06-26T05:03:13.000Z</time>
      </trkpt>
      <trkpt lat="45.23042" lon="5.73966">
        <ele>1046.1999511719</ele>
        <time>2021-06-26T05:03:14.000Z</time>
      </trkpt>
      <trkpt lat="45.23049" lon="5.73959">
        <ele>1046.5999755859</ele>
        <time>2021-06-26T05:03:18.000Z</time>
      </trkpt>
      <trkpt lat="45.23058" lon="5.73956">
        <ele>1047</ele>
        <time>2021-06-26T05:03:22.000Z</time>
      </trkpt>
      <trkpt lat="45.23067" lon="5.73956">
        <ele>1048</ele>
        <time>2021-06-26T05:03:27.000Z</time>
      </trkpt>
      <trkpt lat="45.23073" lon="5.73956">
        <ele>1049.4000244141</ele>
        <time>2021-06-26T05:03:31.000Z</time>
      </trkpt>
      <trkpt lat="45.23077" lon="5.73957">
        <ele>1049.8000488281</ele>
        <time>2021-06-26T05:03:33.000Z</time>
      </trkpt>
      <trkpt lat="45.23081" lon="5.73959">
        <ele>1050.4000244141</ele>
        <time>2021-06-26T05:03:35.000Z</time>
      </trkpt>
      <trkpt lat="45.23086" lon="5.73964">
        <ele>1051.4000244141</ele>
        <time>2021-06-26T05:03:38.000Z</time>
      </trkpt>
      <trkpt lat="45.23087" lon="5.73966">
        <ele>1051.4000244141</ele>
        <time>2021-06-26T05:03:39.000Z</time>
      </trkpt>
      <trkpt lat="45.23088" lon="5.73969">
        <ele>1052.4000244141</ele>
        <time>2021-06-26T05:03:41.000Z</time>
      </trkpt>
      <trkpt lat="45.2309" lon="5.73972">
        <ele>1052.4000244141</ele>
        <time>2021-06-26T05:03:43.000Z</time>
      </trkpt>
      <trkpt lat="45.231" lon="5.73976">
        <ele>1052.5999755859</ele>
        <time>2021-06-26T05:03:48.000Z</time>
      </trkpt>
      <trkpt lat="45.23104" lon="5.73976">
        <ele>1052.5999755859</ele>
        <time>2021-06-26T05:03:50.000Z</time>
      </trkpt>
      <trkpt lat="45.23105" lon="5.73976">
        <ele>1052.5999755859</ele>
        <time>2021-06-26T05:03:51.000Z</time>
      </trkpt>
      <trkpt lat="45.23112" lon="5.73975">
        <ele>1053.1999511719</ele>
        <time>2021-06-26T05:03:54.000Z</time>
      </trkpt>
      <trkpt lat="45.23113" lon="5.73975">
        <ele>1053.1999511719</ele>
        <time>2021-06-26T05:03:55.000Z</time>
      </trkpt>
      <trkpt lat="45.23121" lon="5.73975">
        <ele>1053.1999511719</ele>
        <time>2021-06-26T05:03:58.000Z</time>
      </trkpt>
      <trkpt lat="45.23126" lon="5.73975">
        <ele>1053.8000488281</ele>
        <time>2021-06-26T05:04:01.000Z</time>
      </trkpt>
      <trkpt lat="45.23131" lon="5.73978">
        <ele>1054</ele>
        <time>2021-06-26T05:04:04.000Z</time>
      </trkpt>
      <trkpt lat="45.23137" lon="5.7398">
        <ele>1054.1999511719</ele>
        <time>2021-06-26T05:04:08.000Z</time>
      </trkpt>
      <trkpt lat="45.23139" lon="5.73981">
        <ele>1054.1999511719</ele>
        <time>2021-06-26T05:04:09.000Z</time>
      </trkpt>
      <trkpt lat="45.23153" lon="5.73985">
        <ele>1054</ele>
        <time>2021-06-26T05:04:15.000Z</time>
      </trkpt>
      <trkpt lat="45.23162" lon="5.73989">
        <ele>1052.8000488281</ele>
        <time>2021-06-26T05:04:19.000Z</time>
      </trkpt>
      <trkpt lat="45.23171" lon="5.73992">
        <ele>1051.5999755859</ele>
        <time>2021-06-26T05:04:23.000Z</time>
      </trkpt>
      <trkpt lat="45.23186" lon="5.73996">
        <ele>1050.5999755859</ele>
        <time>2021-06-26T05:04:28.000Z</time>
      </trkpt>
      <trkpt lat="45.23192" lon="5.74">
        <ele>1050.1999511719</ele>
        <time>2021-06-26T05:04:30.000Z</time>
      </trkpt>
      <trkpt lat="45.232" lon="5.74008">
        <ele>1049.5999755859</ele>
        <time>2021-06-26T05:04:34.000Z</time>
      </trkpt>
      <trkpt lat="45.23201" lon="5.7401">
        <ele>1049.5999755859</ele>
        <time>2021-06-26T05:04:35.000Z</time>
      </trkpt>
      <trkpt lat="45.23212" lon="5.74018">
        <ele>1049.4000244141</ele>
        <time>2021-06-26T05:04:40.000Z</time>
      </trkpt>
      <trkpt lat="45.23227" lon="5.74035">
        <ele>1050.1999511719</ele>
        <time>2021-06-26T05:04:46.000Z</time>
      </trkpt>
      <trkpt lat="45.23227" lon="5.74038">
        <ele>1050.1999511719</ele>
        <time>2021-06-26T05:04:47.000Z</time>
      </trkpt>
      <trkpt lat="45.23227" lon="5.7404">
        <ele>1050.4000244141</ele>
        <time>2021-06-26T05:04:48.000Z</time>
      </trkpt>
      <trkpt lat="45.23226" lon="5.74042">
        <ele>1050.8000488281</ele>
        <time>2021-06-26T05:04:49.000Z</time>
      </trkpt>
      <trkpt lat="45.23225" lon="5.7405">
        <ele>1051.4000244141</ele>
        <time>2021-06-26T05:04:52.000Z</time>
      </trkpt>
      <trkpt lat="45.23225" lon="5.74052">
        <ele>1051.8000488281</ele>
        <time>2021-06-26T05:04:53.000Z</time>
      </trkpt>
      <trkpt lat="45.23223" lon="5.74062">
        <ele>1052.5999755859</ele>
        <time>2021-06-26T05:04:57.000Z</time>
      </trkpt>
      <trkpt lat="45.23224" lon="5.7407">
        <ele>1053</ele>
        <time>2021-06-26T05:05:00.000Z</time>
      </trkpt>
      <trkpt lat="45.23224" lon="5.74083">
        <ele>1053</ele>
        <time>2021-06-26T05:05:04.000Z</time>
      </trkpt>
      <trkpt lat="45.23222" lon="5.74096">
        <ele>1053.5999755859</ele>
        <time>2021-06-26T05:05:09.000Z</time>
      </trkpt>
      <trkpt lat="45.23222" lon="5.74099">
        <ele>1053.1999511719</ele>
        <time>2021-06-26T05:05:10.000Z</time>
      </trkpt>
      <trkpt lat="45.23222" lon="5.74102">
        <ele>1053.1999511719</ele>
        <time>2021-06-26T05:05:11.000Z</time>
      </trkpt>
      <trkpt lat="45.23227" lon="5.74113">
        <ele>1052.4000244141</ele>
        <time>2021-06-26T05:05:15.000Z</time>
      </trkpt>
      <trkpt lat="45.23233" lon="5.74119">
        <ele>1052</ele>
        <time>2021-06-26T05:05:18.000Z</time>
      </trkpt>
      <trkpt lat="45.23247" lon="5.74127">
        <ele>1052.1999511719</ele>
        <time>2021-06-26T05:05:24.000Z</time>
      </trkpt>
      <trkpt lat="45.23255" lon="5.74132">
        <ele>1053.4000244141</ele>
        <time>2021-06-26T05:05:29.000Z</time>
      </trkpt>
      <trkpt lat="45.23256" lon="5.74132">
        <ele>1053.4000244141</ele>
        <time>2021-06-26T05:05:30.000Z</time>
      </trkpt>
      <trkpt lat="45.23259" lon="5.74135">
        <ele>1053.5999755859</ele>
        <time>2021-06-26T05:05:32.000Z</time>
      </trkpt>
      <trkpt lat="45.2326" lon="5.74138">
        <ele>1053.4000244141</ele>
        <time>2021-06-26T05:05:34.000Z</time>
      </trkpt>
      <trkpt lat="45.23262" lon="5.7414">
        <ele>1053.4000244141</ele>
        <time>2021-06-26T05:05:35.000Z</time>
      </trkpt>
      <trkpt lat="45.23267" lon="5.74146">
        <ele>1053.1999511719</ele>
        <time>2021-06-26T05:05:37.000Z</time>
      </trkpt>
      <trkpt lat="45.23274" lon="5.74153">
        <ele>1052.5999755859</ele>
        <time>2021-06-26T05:05:40.000Z</time>
      </trkpt>
      <trkpt lat="45.23274" lon="5.74155">
        <ele>1052.4000244141</ele>
        <time>2021-06-26T05:05:41.000Z</time>
      </trkpt>
      <trkpt lat="45.23278" lon="5.74162">
        <ele>1051.8000488281</ele>
        <time>2021-06-26T05:05:44.000Z</time>
      </trkpt>
      <trkpt lat="45.2328" lon="5.74166">
        <ele>1051.8000488281</ele>
        <time>2021-06-26T05:05:46.000Z</time>
      </trkpt>
      <trkpt lat="45.23296" lon="5.74175">
        <ele>1050.8000488281</ele>
        <time>2021-06-26T05:05:53.000Z</time>
      </trkpt>
      <trkpt lat="45.23311" lon="5.74186">
        <ele>1050.8000488281</ele>
        <time>2021-06-26T05:05:58.000Z</time>
      </trkpt>
      <trkpt lat="45.23326" lon="5.74196">
        <ele>1050.8000488281</ele>
        <time>2021-06-26T05:06:04.000Z</time>
      </trkpt>
      <trkpt lat="45.23333" lon="5.74198">
        <ele>1051.1999511719</ele>
        <time>2021-06-26T05:06:07.000Z</time>
      </trkpt>
      <trkpt lat="45.23337" lon="5.74202">
        <ele>1050.5999755859</ele>
        <time>2021-06-26T05:06:09.000Z</time>
      </trkpt>
      <trkpt lat="45.23351" lon="5.74209">
        <ele>1051</ele>
        <time>2021-06-26T05:06:15.000Z</time>
      </trkpt>
      <trkpt lat="45.23362" lon="5.74218">
        <ele>1050.4000244141</ele>
        <time>2021-06-26T05:06:21.000Z</time>
      </trkpt>
      <trkpt lat="45.23371" lon="5.74229">
        <ele>1049.8000488281</ele>
        <time>2021-06-26T05:06:26.000Z</time>
      </trkpt>
      <trkpt lat="45.23378" lon="5.74234">
        <ele>1049.8000488281</ele>
        <time>2021-06-26T05:06:29.000Z</time>
      </trkpt>
      <trkpt lat="45.23383" lon="5.74242">
        <ele>1049.4000244141</ele>
        <time>2021-06-26T05:06:32.000Z</time>
      </trkpt>
      <trkpt lat="45.23385" lon="5.74251">
        <ele>1049.1999511719</ele>
        <time>2021-06-26T05:06:34.000Z</time>
      </trkpt>
      <trkpt lat="45.23386" lon="5.7426">
        <ele>1048.8000488281</ele>
        <time>2021-06-26T05:06:37.000Z</time>
      </trkpt>
      <trkpt lat="45.23386" lon="5.74263">
        <ele>1048.5999755859</ele>
        <time>2021-06-26T05:06:38.000Z</time>
      </trkpt>
      <trkpt lat="45.23387" lon="5.7427">
        <ele>1046</ele>
        <time>2021-06-26T05:06:41.000Z</time>
      </trkpt>
      <trkpt lat="45.23387" lon="5.74275">
        <ele>1045.4000244141</ele>
        <time>2021-06-26T05:06:43.000Z</time>
      </trkpt>
      <trkpt lat="45.23387" lon="5.74283">
        <ele>1045</ele>
        <time>2021-06-26T05:06:45.000Z</time>
      </trkpt>
      <trkpt lat="45.23387" lon="5.74286">
        <ele>1043.8000488281</ele>
        <time>2021-06-26T05:06:46.000Z</time>
      </trkpt>
      <trkpt lat="45.23385" lon="5.74294">
        <ele>1043.1999511719</ele>
        <time>2021-06-26T05:06:49.000Z</time>
      </trkpt>
      <trkpt lat="45.23383" lon="5.74301">
        <ele>1042.8000488281</ele>
        <time>2021-06-26T05:06:51.000Z</time>
      </trkpt>
      <trkpt lat="45.23382" lon="5.74321">
        <ele>1042</ele>
        <time>2021-06-26T05:06:57.000Z</time>
      </trkpt>
      <trkpt lat="45.23382" lon="5.74328">
        <ele>1041.5999755859</ele>
        <time>2021-06-26T05:06:59.000Z</time>
      </trkpt>
      <trkpt lat="45.23387" lon="5.74337">
        <ele>1041.1999511719</ele>
        <time>2021-06-26T05:07:02.000Z</time>
      </trkpt>
      <trkpt lat="45.23389" lon="5.74342">
        <ele>1040.5999755859</ele>
        <time>2021-06-26T05:07:04.000Z</time>
      </trkpt>
      <trkpt lat="45.23391" lon="5.74349">
        <ele>1039.5999755859</ele>
        <time>2021-06-26T05:07:07.000Z</time>
      </trkpt>
      <trkpt lat="45.23392" lon="5.74352">
        <ele>1039.4000244141</ele>
        <time>2021-06-26T05:07:09.000Z</time>
      </trkpt>
      <trkpt lat="45.23395" lon="5.74354">
        <ele>1038.8000488281</ele>
        <time>2021-06-26T05:07:12.000Z</time>
      </trkpt>
      <trkpt lat="45.23411" lon="5.74361">
        <ele>1040.4000244141</ele>
        <time>2021-06-26T05:07:21.000Z</time>
      </trkpt>
      <trkpt lat="45.23417" lon="5.74365">
        <ele>1041</ele>
        <time>2021-06-26T05:07:24.000Z</time>
      </trkpt>
      <trkpt lat="45.23426" lon="5.74373">
        <ele>1041.5999755859</ele>
        <time>2021-06-26T05:07:28.000Z</time>
      </trkpt>
      <trkpt lat="45.23434" lon="5.74381">
        <ele>1042.1999511719</ele>
        <time>2021-06-26T05:07:32.000Z</time>
      </trkpt>
      <trkpt lat="45.23441" lon="5.74387">
        <ele>1042.4000244141</ele>
        <time>2021-06-26T05:07:35.000Z</time>
      </trkpt>
      <trkpt lat="45.23451" lon="5.74398">
        <ele>1043.1999511719</ele>
        <time>2021-06-26T05:07:40.000Z</time>
      </trkpt>
      <trkpt lat="45.23457" lon="5.74403">
        <ele>1043.4000244141</ele>
        <time>2021-06-26T05:07:43.000Z</time>
      </trkpt>
      <trkpt lat="45.23469" lon="5.74412">
        <ele>1043.5999755859</ele>
        <time>2021-06-26T05:07:50.000Z</time>
      </trkpt>
      <trkpt lat="45.2347" lon="5.74414">
        <ele>1043.5999755859</ele>
        <time>2021-06-26T05:07:51.000Z</time>
      </trkpt>
      <trkpt lat="45.23478" lon="5.74428">
        <ele>1043</ele>
        <time>2021-06-26T05:07:56.000Z</time>
      </trkpt>
      <trkpt lat="45.2348" lon="5.7443">
        <ele>1043.1999511719</ele>
        <time>2021-06-26T05:07:57.000Z</time>
      </trkpt>
      <trkpt lat="45.23487" lon="5.74438">
        <ele>1042.8000488281</ele>
        <time>2021-06-26T05:08:01.000Z</time>
      </trkpt>
      <trkpt lat="45.23489" lon="5.7444">
        <ele>1042.5999755859</ele>
        <time>2021-06-26T05:08:02.000Z</time>
      </trkpt>
      <trkpt lat="45.23496" lon="5.74446">
        <ele>1042.4000244141</ele>
        <time>2021-06-26T05:08:06.000Z</time>
      </trkpt>
      <trkpt lat="45.23498" lon="5.74448">
        <ele>1041.8000488281</ele>
        <time>2021-06-26T05:08:07.000Z</time>
      </trkpt>
      <trkpt lat="45.23507" lon="5.74458">
        <ele>1040.5999755859</ele>
        <time>2021-06-26T05:08:12.000Z</time>
      </trkpt>
      <trkpt lat="45.23513" lon="5.74463">
        <ele>1039.5999755859</ele>
        <time>2021-06-26T05:08:14.000Z</time>
      </trkpt>
      <trkpt lat="45.23527" lon="5.74481">
        <ele>1038.1999511719</ele>
        <time>2021-06-26T05:08:20.000Z</time>
      </trkpt>
      <trkpt lat="45.23529" lon="5.74483">
        <ele>1037.8000488281</ele>
        <time>2021-06-26T05:08:21.000Z</time>
      </trkpt>
      <trkpt lat="45.23533" lon="5.74486">
        <ele>1037</ele>
        <time>2021-06-26T05:08:24.000Z</time>
      </trkpt>
      <trkpt lat="45.23536" lon="5.74486">
        <ele>1036</ele>
        <time>2021-06-26T05:08:27.000Z</time>
      </trkpt>
      <trkpt lat="45.23541" lon="5.74487">
        <ele>1034.8000488281</ele>
        <time>2021-06-26T05:08:31.000Z</time>
      </trkpt>
      <trkpt lat="45.23545" lon="5.74488">
        <ele>1033.8000488281</ele>
        <time>2021-06-26T05:08:34.000Z</time>
      </trkpt>
      <trkpt lat="45.23547" lon="5.74489">
        <ele>1033.5999755859</ele>
        <time>2021-06-26T05:08:35.000Z</time>
      </trkpt>
      <trkpt lat="45.23557" lon="5.74499">
        <ele>1032.8000488281</ele>
        <time>2021-06-26T05:08:39.000Z</time>
      </trkpt>
      <trkpt lat="45.2356" lon="5.74504">
        <ele>1032.5999755859</ele>
        <time>2021-06-26T05:08:41.000Z</time>
      </trkpt>
      <trkpt lat="45.2357" lon="5.7452">
        <ele>1031.5999755859</ele>
        <time>2021-06-26T05:08:47.000Z</time>
      </trkpt>
      <trkpt lat="45.23572" lon="5.74523">
        <ele>1031.1999511719</ele>
        <time>2021-06-26T05:08:48.000Z</time>
      </trkpt>
      <trkpt lat="45.23583" lon="5.7454">
        <ele>1029.8000488281</ele>
        <time>2021-06-26T05:08:53.000Z</time>
      </trkpt>
      <trkpt lat="45.23584" lon="5.74543">
        <ele>1029.5999755859</ele>
        <time>2021-06-26T05:08:54.000Z</time>
      </trkpt>
      <trkpt lat="45.23596" lon="5.74563">
        <ele>1028.5999755859</ele>
        <time>2021-06-26T05:09:00.000Z</time>
      </trkpt>
      <trkpt lat="45.236" lon="5.7457">
        <ele>1027.8000488281</ele>
        <time>2021-06-26T05:09:02.000Z</time>
      </trkpt>
      <trkpt lat="45.23601" lon="5.74573">
        <ele>1027.4000244141</ele>
        <time>2021-06-26T05:09:03.000Z</time>
      </trkpt>
      <trkpt lat="45.23611" lon="5.74584">
        <ele>1026.1999511719</ele>
        <time>2021-06-26T05:09:08.000Z</time>
      </trkpt>
      <trkpt lat="45.23614" lon="5.74585">
        <ele>1025.4000244141</ele>
        <time>2021-06-26T05:09:10.000Z</time>
      </trkpt>
      <trkpt lat="45.23616" lon="5.74585">
        <ele>1025.1999511719</ele>
        <time>2021-06-26T05:09:11.000Z</time>
      </trkpt>
      <trkpt lat="45.23624" lon="5.74583">
        <ele>1024.1999511719</ele>
        <time>2021-06-26T05:09:15.000Z</time>
      </trkpt>
      <trkpt lat="45.23627" lon="5.74582">
        <ele>1023.4000244141</ele>
        <time>2021-06-26T05:09:17.000Z</time>
      </trkpt>
      <trkpt lat="45.23629" lon="5.74581">
        <ele>1022.5999755859</ele>
        <time>2021-06-26T05:09:18.000Z</time>
      </trkpt>
      <trkpt lat="45.23635" lon="5.74579">
        <ele>1021.799987793</ele>
        <time>2021-06-26T05:09:21.000Z</time>
      </trkpt>
      <trkpt lat="45.23637" lon="5.74578">
        <ele>1021.4000244141</ele>
        <time>2021-06-26T05:09:22.000Z</time>
      </trkpt>
      <trkpt lat="45.23639" lon="5.74578">
        <ele>1021.200012207</ele>
        <time>2021-06-26T05:09:23.000Z</time>
      </trkpt>
      <trkpt lat="45.23641" lon="5.74578">
        <ele>1020.799987793</ele>
        <time>2021-06-26T05:09:24.000Z</time>
      </trkpt>
      <trkpt lat="45.23649" lon="5.74575">
        <ele>1020.5999755859</ele>
        <time>2021-06-26T05:09:28.000Z</time>
      </trkpt>
      <trkpt lat="45.23651" lon="5.74575">
        <ele>1020.799987793</ele>
        <time>2021-06-26T05:09:29.000Z</time>
      </trkpt>
      <trkpt lat="45.23653" lon="5.74574">
        <ele>1020</ele>
        <time>2021-06-26T05:09:30.000Z</time>
      </trkpt>
      <trkpt lat="45.23661" lon="5.74572">
        <ele>1019</ele>
        <time>2021-06-26T05:09:33.000Z</time>
      </trkpt>
      <trkpt lat="45.23667" lon="5.74571">
        <ele>1018.200012207</ele>
        <time>2021-06-26T05:09:36.000Z</time>
      </trkpt>
      <trkpt lat="45.23668" lon="5.74571">
        <ele>1018</ele>
        <time>2021-06-26T05:09:37.000Z</time>
      </trkpt>
      <trkpt lat="45.23674" lon="5.7457">
        <ele>1017.200012207</ele>
        <time>2021-06-26T05:09:40.000Z</time>
      </trkpt>
      <trkpt lat="45.2368" lon="5.74567">
        <ele>1016.200012207</ele>
        <time>2021-06-26T05:09:42.000Z</time>
      </trkpt>
      <trkpt lat="45.23687" lon="5.74565">
        <ele>1015.799987793</ele>
        <time>2021-06-26T05:09:44.000Z</time>
      </trkpt>
      <trkpt lat="45.23698" lon="5.74561">
        <ele>1015</ele>
        <time>2021-06-26T05:09:47.000Z</time>
      </trkpt>
      <trkpt lat="45.2371" lon="5.74554">
        <ele>1013.4000244141</ele>
        <time>2021-06-26T05:09:51.000Z</time>
      </trkpt>
      <trkpt lat="45.23724" lon="5.74547">
        <ele>1012.5999755859</ele>
        <time>2021-06-26T05:09:57.000Z</time>
      </trkpt>
      <trkpt lat="45.23734" lon="5.74547">
        <ele>1012.200012207</ele>
        <time>2021-06-26T05:10:01.000Z</time>
      </trkpt>
      <trkpt lat="45.23737" lon="5.74547">
        <ele>1012.200012207</ele>
        <time>2021-06-26T05:10:04.000Z</time>
      </trkpt>
      <trkpt lat="45.23742" lon="5.74548">
        <ele>1012.200012207</ele>
        <time>2021-06-26T05:10:11.000Z</time>
      </trkpt>
      <trkpt lat="45.23747" lon="5.74548">
        <ele>1012.4000244141</ele>
        <time>2021-06-26T05:10:19.000Z</time>
      </trkpt>
      <trkpt lat="45.23749" lon="5.74549">
        <ele>1012.200012207</ele>
        <time>2021-06-26T05:10:26.000Z</time>
      </trkpt>
      <trkpt lat="45.23744" lon="5.74548">
        <ele>1012</ele>
        <time>2021-06-26T05:10:31.000Z</time>
      </trkpt>
      <trkpt lat="45.23742" lon="5.74548">
        <ele>1012</ele>
        <time>2021-06-26T05:10:32.000Z</time>
      </trkpt>
      <trkpt lat="45.23735" lon="5.74549">
        <ele>1012</ele>
        <time>2021-06-26T05:10:35.000Z</time>
      </trkpt>
      <trkpt lat="45.2373" lon="5.74553">
        <ele>1012.5999755859</ele>
        <time>2021-06-26T05:10:38.000Z</time>
      </trkpt>
      <trkpt lat="45.23728" lon="5.74554">
        <ele>1013.200012207</ele>
        <time>2021-06-26T05:10:39.000Z</time>
      </trkpt>
      <trkpt lat="45.23717" lon="5.74569">
        <ele>1014.200012207</ele>
        <time>2021-06-26T05:10:45.000Z</time>
      </trkpt>
      <trkpt lat="45.23715" lon="5.74571">
        <ele>1014.4000244141</ele>
        <time>2021-06-26T05:10:46.000Z</time>
      </trkpt>
      <trkpt lat="45.23711" lon="5.74575">
        <ele>1014.5999755859</ele>
        <time>2021-06-26T05:10:48.000Z</time>
      </trkpt>
      <trkpt lat="45.23707" lon="5.74578">
        <ele>1015</ele>
        <time>2021-06-26T05:10:50.000Z</time>
      </trkpt>
      <trkpt lat="45.23701" lon="5.74584">
        <ele>1015.799987793</ele>
        <time>2021-06-26T05:10:53.000Z</time>
      </trkpt>
      <trkpt lat="45.23699" lon="5.74586">
        <ele>1016</ele>
        <time>2021-06-26T05:10:54.000Z</time>
      </trkpt>
      <trkpt lat="45.23697" lon="5.74587">
        <ele>1016</ele>
        <time>2021-06-26T05:10:55.000Z</time>
      </trkpt>
      <trkpt lat="45.23695" lon="5.74588">
        <ele>1016.4000244141</ele>
        <time>2021-06-26T05:10:56.000Z</time>
      </trkpt>
      <trkpt lat="45.23691" lon="5.7459">
        <ele>1017</ele>
        <time>2021-06-26T05:10:58.000Z</time>
      </trkpt>
      <trkpt lat="45.23682" lon="5.74593">
        <ele>1018.200012207</ele>
        <time>2021-06-26T05:11:02.000Z</time>
      </trkpt>
      <trkpt lat="45.2368" lon="5.74594">
        <ele>1018.200012207</ele>
        <time>2021-06-26T05:11:03.000Z</time>
      </trkpt>
      <trkpt lat="45.23671" lon="5.74597">
        <ele>1019.200012207</ele>
        <time>2021-06-26T05:11:08.000Z</time>
      </trkpt>
      <trkpt lat="45.23664" lon="5.74597">
        <ele>1019.4000244141</ele>
        <time>2021-06-26T05:11:11.000Z</time>
      </trkpt>
      <trkpt lat="45.23658" lon="5.74597">
        <ele>1020.4000244141</ele>
        <time>2021-06-26T05:11:14.000Z</time>
      </trkpt>
      <trkpt lat="45.23653" lon="5.74598">
        <ele>1020.799987793</ele>
        <time>2021-06-26T05:11:16.000Z</time>
      </trkpt>
      <trkpt lat="45.23647" lon="5.74605">
        <ele>1021.4000244141</ele>
        <time>2021-06-26T05:11:20.000Z</time>
      </trkpt>
      <trkpt lat="45.23642" lon="5.74609">
        <ele>1021.5999755859</ele>
        <time>2021-06-26T05:11:23.000Z</time>
      </trkpt>
      <trkpt lat="45.23637" lon="5.74612">
        <ele>1022.5999755859</ele>
        <time>2021-06-26T05:11:26.000Z</time>
      </trkpt>
      <trkpt lat="45.23629" lon="5.74616">
        <ele>1023.4000244141</ele>
        <time>2021-06-26T05:11:30.000Z</time>
      </trkpt>
      <trkpt lat="45.23625" lon="5.74618">
        <ele>1023.5999755859</ele>
        <time>2021-06-26T05:11:32.000Z</time>
      </trkpt>
      <trkpt lat="45.23614" lon="5.74618">
        <ele>1025</ele>
        <time>2021-06-26T05:11:37.000Z</time>
      </trkpt>
      <trkpt lat="45.23612" lon="5.74617">
        <ele>1025.4000244141</ele>
        <time>2021-06-26T05:11:38.000Z</time>
      </trkpt>
      <trkpt lat="45.23607" lon="5.74613">
        <ele>1026</ele>
        <time>2021-06-26T05:11:41.000Z</time>
      </trkpt>
      <trkpt lat="45.23603" lon="5.74604">
        <ele>1026.5999755859</ele>
        <time>2021-06-26T05:11:44.000Z</time>
      </trkpt>
      <trkpt lat="45.23596" lon="5.74594">
        <ele>1027.5999755859</ele>
        <time>2021-06-26T05:11:48.000Z</time>
      </trkpt>
      <trkpt lat="45.23593" lon="5.74588">
        <ele>1028.1999511719</ele>
        <time>2021-06-26T05:11:50.000Z</time>
      </trkpt>
      <trkpt lat="45.23589" lon="5.74581">
        <ele>1028.1999511719</ele>
        <time>2021-06-26T05:11:53.000Z</time>
      </trkpt>
      <trkpt lat="45.23588" lon="5.74578">
        <ele>1029</ele>
        <time>2021-06-26T05:11:54.000Z</time>
      </trkpt>
      <trkpt lat="45.23583" lon="5.74565">
        <ele>1029.4000244141</ele>
        <time>2021-06-26T05:11:59.000Z</time>
      </trkpt>
      <trkpt lat="45.23579" lon="5.74558">
        <ele>1030.1999511719</ele>
        <time>2021-06-26T05:12:02.000Z</time>
      </trkpt>
      <trkpt lat="45.23573" lon="5.74541">
        <ele>1031</ele>
        <time>2021-06-26T05:12:08.000Z</time>
      </trkpt>
      <trkpt lat="45.2357" lon="5.74536">
        <ele>1031.5999755859</ele>
        <time>2021-06-26T05:12:10.000Z</time>
      </trkpt>
      <trkpt lat="45.23564" lon="5.74526">
        <ele>1031.8000488281</ele>
        <time>2021-06-26T05:12:15.000Z</time>
      </trkpt>
      <trkpt lat="45.23558" lon="5.74516">
        <ele>1032.5999755859</ele>
        <time>2021-06-26T05:12:20.000Z</time>
      </trkpt>
      <trkpt lat="45.23557" lon="5.74515">
        <ele>1033</ele>
        <time>2021-06-26T05:12:21.000Z</time>
      </trkpt>
      <trkpt lat="45.23551" lon="5.74515">
        <ele>1033.8000488281</ele>
        <time>2021-06-26T05:12:25.000Z</time>
      </trkpt>
      <trkpt lat="45.2355" lon="5.74516">
        <ele>1034</ele>
        <time>2021-06-26T05:12:26.000Z</time>
      </trkpt>
      <trkpt lat="45.23547" lon="5.74517">
        <ele>1034.5999755859</ele>
        <time>2021-06-26T05:12:29.000Z</time>
      </trkpt>
      <trkpt lat="45.23541" lon="5.74517">
        <ele>1035.5999755859</ele>
        <time>2021-06-26T05:12:32.000Z</time>
      </trkpt>
      <trkpt lat="45.23531" lon="5.74513">
        <ele>1036.8000488281</ele>
        <time>2021-06-26T05:12:37.000Z</time>
      </trkpt>
      <trkpt lat="45.23526" lon="5.74509">
        <ele>1036.8000488281</ele>
        <time>2021-06-26T05:12:40.000Z</time>
      </trkpt>
      <trkpt lat="45.23522" lon="5.74505">
        <ele>1038</ele>
        <time>2021-06-26T05:12:42.000Z</time>
      </trkpt>
      <trkpt lat="45.23521" lon="5.74503">
        <ele>1038.1999511719</ele>
        <time>2021-06-26T05:12:43.000Z</time>
      </trkpt>
      <trkpt lat="45.23517" lon="5.74497">
        <ele>1038.5999755859</ele>
        <time>2021-06-26T05:12:46.000Z</time>
      </trkpt>
      <trkpt lat="45.23514" lon="5.74493">
        <ele>1039.1999511719</ele>
        <time>2021-06-26T05:12:48.000Z</time>
      </trkpt>
      <trkpt lat="45.23504" lon="5.74483">
        <ele>1040</ele>
        <time>2021-06-26T05:12:54.000Z</time>
      </trkpt>
      <trkpt lat="45.23503" lon="5.74481">
        <ele>1040.5999755859</ele>
        <time>2021-06-26T05:12:55.000Z</time>
      </trkpt>
      <trkpt lat="45.23496" lon="5.74475">
        <ele>1041.5999755859</ele>
        <time>2021-06-26T05:13:00.000Z</time>
      </trkpt>
      <trkpt lat="45.23492" lon="5.74472">
        <ele>1042</ele>
        <time>2021-06-26T05:13:02.000Z</time>
      </trkpt>
      <trkpt lat="45.23485" lon="5.74463">
        <ele>1042.8000488281</ele>
        <time>2021-06-26T05:13:07.000Z</time>
      </trkpt>
      <trkpt lat="45.2348" lon="5.74453">
        <ele>1042.8000488281</ele>
        <time>2021-06-26T05:13:10.000Z</time>
      </trkpt>
      <trkpt lat="45.23465" lon="5.74437">
        <ele>1043.4000244141</ele>
        <time>2021-06-26T05:13:17.000Z</time>
      </trkpt>
      <trkpt lat="45.23459" lon="5.74434">
        <ele>1043.4000244141</ele>
        <time>2021-06-26T05:13:19.000Z</time>
      </trkpt>
      <trkpt lat="45.23445" lon="5.74419">
        <ele>1043</ele>
        <time>2021-06-26T05:13:25.000Z</time>
      </trkpt>
      <trkpt lat="45.23429" lon="5.74405">
        <ele>1041.8000488281</ele>
        <time>2021-06-26T05:13:32.000Z</time>
      </trkpt>
      <trkpt lat="45.23424" lon="5.744">
        <ele>1041.8000488281</ele>
        <time>2021-06-26T05:13:34.000Z</time>
      </trkpt>
      <trkpt lat="45.23413" lon="5.74391">
        <ele>1040.5999755859</ele>
        <time>2021-06-26T05:13:39.000Z</time>
      </trkpt>
      <trkpt lat="45.23401" lon="5.74386">
        <ele>1039.8000488281</ele>
        <time>2021-06-26T05:13:44.000Z</time>
      </trkpt>
      <trkpt lat="45.23395" lon="5.74386">
        <ele>1039.4000244141</ele>
        <time>2021-06-26T05:13:47.000Z</time>
      </trkpt>
      <trkpt lat="45.23387" lon="5.74387">
        <ele>1038.4000244141</ele>
        <time>2021-06-26T05:13:51.000Z</time>
      </trkpt>
      <trkpt lat="45.23384" lon="5.74388">
        <ele>1038.1999511719</ele>
        <time>2021-06-26T05:13:52.000Z</time>
      </trkpt>
      <trkpt lat="45.23375" lon="5.74389">
        <ele>1037</ele>
        <time>2021-06-26T05:13:56.000Z</time>
      </trkpt>
      <trkpt lat="45.23366" lon="5.74388">
        <ele>1036</ele>
        <time>2021-06-26T05:14:01.000Z</time>
      </trkpt>
      <trkpt lat="45.23361" lon="5.74389">
        <ele>1035.4000244141</ele>
        <time>2021-06-26T05:14:03.000Z</time>
      </trkpt>
      <trkpt lat="45.23356" lon="5.74389">
        <ele>1035</ele>
        <time>2021-06-26T05:14:05.000Z</time>
      </trkpt>
      <trkpt lat="45.23346" lon="5.74388">
        <ele>1034</ele>
        <time>2021-06-26T05:14:09.000Z</time>
      </trkpt>
      <trkpt lat="45.2334" lon="5.74387">
        <ele>1033.4000244141</ele>
        <time>2021-06-26T05:14:11.000Z</time>
      </trkpt>
      <trkpt lat="45.23326" lon="5.74384">
        <ele>1032.4000244141</ele>
        <time>2021-06-26T05:14:15.000Z</time>
      </trkpt>
      <trkpt lat="45.23323" lon="5.74381">
        <ele>1032</ele>
        <time>2021-06-26T05:14:17.000Z</time>
      </trkpt>
      <trkpt lat="45.23314" lon="5.74376">
        <ele>1031.1999511719</ele>
        <time>2021-06-26T05:14:20.000Z</time>
      </trkpt>
      <trkpt lat="45.23306" lon="5.74371">
        <ele>1030</ele>
        <time>2021-06-26T05:14:23.000Z</time>
      </trkpt>
      <trkpt lat="45.23301" lon="5.74366">
        <ele>1029</ele>
        <time>2021-06-26T05:14:25.000Z</time>
      </trkpt>
      <trkpt lat="45.23291" lon="5.7436">
        <ele>1027.5999755859</ele>
        <time>2021-06-26T05:14:30.000Z</time>
      </trkpt>
      <trkpt lat="45.23282" lon="5.74351">
        <ele>1026.5999755859</ele>
        <time>2021-06-26T05:14:34.000Z</time>
      </trkpt>
      <trkpt lat="45.23274" lon="5.74344">
        <ele>1025.5999755859</ele>
        <time>2021-06-26T05:14:38.000Z</time>
      </trkpt>
      <trkpt lat="45.23272" lon="5.74343">
        <ele>1025.1999511719</ele>
        <time>2021-06-26T05:14:39.000Z</time>
      </trkpt>
      <trkpt lat="45.23263" lon="5.74334">
        <ele>1024</ele>
        <time>2021-06-26T05:14:44.000Z</time>
      </trkpt>
      <trkpt lat="45.23255" lon="5.74328">
        <ele>1022.5999755859</ele>
        <time>2021-06-26T05:14:48.000Z</time>
      </trkpt>
      <trkpt lat="45.2325" lon="5.74325">
        <ele>1022.4000244141</ele>
        <time>2021-06-26T05:14:51.000Z</time>
      </trkpt>
      <trkpt lat="45.23242" lon="5.74323">
        <ele>1021.5999755859</ele>
        <time>2021-06-26T05:14:54.000Z</time>
      </trkpt>
      <trkpt lat="45.23239" lon="5.74322">
        <ele>1021.4000244141</ele>
        <time>2021-06-26T05:14:55.000Z</time>
      </trkpt>
      <trkpt lat="45.23228" lon="5.74318">
        <ele>1020.4000244141</ele>
        <time>2021-06-26T05:14:59.000Z</time>
      </trkpt>
      <trkpt lat="45.23213" lon="5.74314">
        <ele>1019.4000244141</ele>
        <time>2021-06-26T05:15:05.000Z</time>
      </trkpt>
      <trkpt lat="45.23208" lon="5.74313">
        <ele>1018</ele>
        <time>2021-06-26T05:15:07.000Z</time>
      </trkpt>
      <trkpt lat="45.23206" lon="5.74313">
        <ele>1017.799987793</ele>
        <time>2021-06-26T05:15:08.000Z</time>
      </trkpt>
      <trkpt lat="45.23197" lon="5.7431">
        <ele>1016.799987793</ele>
        <time>2021-06-26T05:15:12.000Z</time>
      </trkpt>
      <trkpt lat="45.23186" lon="5.74308">
        <ele>1015</ele>
        <time>2021-06-26T05:15:17.000Z</time>
      </trkpt>
      <trkpt lat="45.23172" lon="5.74306">
        <ele>1014</ele>
        <time>2021-06-26T05:15:22.000Z</time>
      </trkpt>
      <trkpt lat="45.23165" lon="5.74304">
        <ele>1012.799987793</ele>
        <time>2021-06-26T05:15:25.000Z</time>
      </trkpt>
      <trkpt lat="45.23157" lon="5.74302">
        <ele>1012.4000244141</ele>
        <time>2021-06-26T05:15:28.000Z</time>
      </trkpt>
      <trkpt lat="45.23153" lon="5.74301">
        <ele>1011.4000244141</ele>
        <time>2021-06-26T05:15:30.000Z</time>
      </trkpt>
      <trkpt lat="45.23141" lon="5.74296">
        <ele>1010</ele>
        <time>2021-06-26T05:15:35.000Z</time>
      </trkpt>
      <trkpt lat="45.23136" lon="5.74293">
        <ele>1009.5999755859</ele>
        <time>2021-06-26T05:15:37.000Z</time>
      </trkpt>
      <trkpt lat="45.23131" lon="5.74292">
        <ele>1008.5999755859</ele>
        <time>2021-06-26T05:15:40.000Z</time>
      </trkpt>
      <trkpt lat="45.23129" lon="5.74291">
        <ele>1008.5999755859</ele>
        <time>2021-06-26T05:15:41.000Z</time>
      </trkpt>
      <trkpt lat="45.23122" lon="5.74289">
        <ele>1008.4000244141</ele>
        <time>2021-06-26T05:15:43.000Z</time>
      </trkpt>
      <trkpt lat="45.23113" lon="5.74286">
        <ele>1007.5999755859</ele>
        <time>2021-06-26T05:15:46.000Z</time>
      </trkpt>
      <trkpt lat="45.23104" lon="5.74281">
        <ele>1006.4000244141</ele>
        <time>2021-06-26T05:15:50.000Z</time>
      </trkpt>
      <trkpt lat="45.23099" lon="5.7428">
        <ele>1006</ele>
        <time>2021-06-26T05:15:52.000Z</time>
      </trkpt>
      <trkpt lat="45.23094" lon="5.74279">
        <ele>1005.200012207</ele>
        <time>2021-06-26T05:15:54.000Z</time>
      </trkpt>
      <trkpt lat="45.23082" lon="5.74274">
        <ele>1004.200012207</ele>
        <time>2021-06-26T05:15:59.000Z</time>
      </trkpt>
      <trkpt lat="45.23079" lon="5.74273">
        <ele>1003.5999755859</ele>
        <time>2021-06-26T05:16:00.000Z</time>
      </trkpt>
      <trkpt lat="45.23071" lon="5.7427">
        <ele>1002.799987793</ele>
        <time>2021-06-26T05:16:03.000Z</time>
      </trkpt>
      <trkpt lat="45.23061" lon="5.74265">
        <ele>1001.799987793</ele>
        <time>2021-06-26T05:16:07.000Z</time>
      </trkpt>
      <trkpt lat="45.23058" lon="5.74265">
        <ele>1001.799987793</ele>
        <time>2021-06-26T05:16:08.000Z</time>
      </trkpt>
      <trkpt lat="45.23048" lon="5.7426">
        <ele>1000.200012207</ele>
        <time>2021-06-26T05:16:12.000Z</time>
      </trkpt>
      <trkpt lat="45.23039" lon="5.74256">
        <ele>999.79998779297</ele>
        <time>2021-06-26T05:16:15.000Z</time>
      </trkpt>
      <trkpt lat="45.23037" lon="5.74255">
        <ele>999.79998779297</ele>
        <time>2021-06-26T05:16:16.000Z</time>
      </trkpt>
      <trkpt lat="45.23035" lon="5.74254">
        <ele>998.79998779297</ele>
        <time>2021-06-26T05:16:17.000Z</time>
      </trkpt>
      <trkpt lat="45.23028" lon="5.74251">
        <ele>998.20001220703</ele>
        <time>2021-06-26T05:16:20.000Z</time>
      </trkpt>
      <trkpt lat="45.23026" lon="5.7425">
        <ele>997.79998779297</ele>
        <time>2021-06-26T05:16:21.000Z</time>
      </trkpt>
      <trkpt lat="45.23016" lon="5.74248">
        <ele>996.59997558594</ele>
        <time>2021-06-26T05:16:25.000Z</time>
      </trkpt>
      <trkpt lat="45.23011" lon="5.74247">
        <ele>996.20001220703</ele>
        <time>2021-06-26T05:16:27.000Z</time>
      </trkpt>
      <trkpt lat="45.23" lon="5.74245">
        <ele>995</ele>
        <time>2021-06-26T05:16:31.000Z</time>
      </trkpt>
      <trkpt lat="45.22994" lon="5.74244">
        <ele>994.40002441406</ele>
        <time>2021-06-26T05:16:33.000Z</time>
      </trkpt>
      <trkpt lat="45.22985" lon="5.74241">
        <ele>993.79998779297</ele>
        <time>2021-06-26T05:16:36.000Z</time>
      </trkpt>
      <trkpt lat="45.22975" lon="5.74238">
        <ele>993</ele>
        <time>2021-06-26T05:16:39.000Z</time>
      </trkpt>
      <trkpt lat="45.22972" lon="5.74237">
        <ele>992.59997558594</ele>
        <time>2021-06-26T05:16:40.000Z</time>
      </trkpt>
      <trkpt lat="45.22964" lon="5.74236">
        <ele>991.40002441406</ele>
        <time>2021-06-26T05:16:43.000Z</time>
      </trkpt>
      <trkpt lat="45.22952" lon="5.74233">
        <ele>991</ele>
        <time>2021-06-26T05:16:47.000Z</time>
      </trkpt>
      <trkpt lat="45.2295" lon="5.74232">
        <ele>990.40002441406</ele>
        <time>2021-06-26T05:16:48.000Z</time>
      </trkpt>
      <trkpt lat="45.22939" lon="5.74227">
        <ele>989.40002441406</ele>
        <time>2021-06-26T05:16:52.000Z</time>
      </trkpt>
      <trkpt lat="45.22937" lon="5.74226">
        <ele>988.59997558594</ele>
        <time>2021-06-26T05:16:53.000Z</time>
      </trkpt>
      <trkpt lat="45.22927" lon="5.7422">
        <ele>987.79998779297</ele>
        <time>2021-06-26T05:16:57.000Z</time>
      </trkpt>
      <trkpt lat="45.22924" lon="5.74218">
        <ele>987.79998779297</ele>
        <time>2021-06-26T05:16:58.000Z</time>
      </trkpt>
      <trkpt lat="45.22922" lon="5.74216">
        <ele>987.20001220703</ele>
        <time>2021-06-26T05:16:59.000Z</time>
      </trkpt>
      <trkpt lat="45.22916" lon="5.7421">
        <ele>985.79998779297</ele>
        <time>2021-06-26T05:17:02.000Z</time>
      </trkpt>
      <trkpt lat="45.22914" lon="5.74208">
        <ele>985.59997558594</ele>
        <time>2021-06-26T05:17:03.000Z</time>
      </trkpt>
      <trkpt lat="45.229" lon="5.742">
        <ele>984.40002441406</ele>
        <time>2021-06-26T05:17:09.000Z</time>
      </trkpt>
      <trkpt lat="45.22895" lon="5.742">
        <ele>984</ele>
        <time>2021-06-26T05:17:11.000Z</time>
      </trkpt>
      <trkpt lat="45.22889" lon="5.742">
        <ele>983.20001220703</ele>
        <time>2021-06-26T05:17:13.000Z</time>
      </trkpt>
      <trkpt lat="45.22879" lon="5.74195">
        <ele>981.79998779297</ele>
        <time>2021-06-26T05:17:17.000Z</time>
      </trkpt>
      <trkpt lat="45.22868" lon="5.74187">
        <ele>980.79998779297</ele>
        <time>2021-06-26T05:17:22.000Z</time>
      </trkpt>
      <trkpt lat="45.22863" lon="5.74185">
        <ele>980.20001220703</ele>
        <time>2021-06-26T05:17:24.000Z</time>
      </trkpt>
      <trkpt lat="45.22855" lon="5.7418">
        <ele>979</ele>
        <time>2021-06-26T05:17:27.000Z</time>
      </trkpt>
      <trkpt lat="45.22843" lon="5.74174">
        <ele>978</ele>
        <time>2021-06-26T05:17:32.000Z</time>
      </trkpt>
      <trkpt lat="45.22841" lon="5.74173">
        <ele>977.59997558594</ele>
        <time>2021-06-26T05:17:33.000Z</time>
      </trkpt>
      <trkpt lat="45.22834" lon="5.74173">
        <ele>976.59997558594</ele>
        <time>2021-06-26T05:17:36.000Z</time>
      </trkpt>
      <trkpt lat="45.22827" lon="5.74171">
        <ele>976.20001220703</ele>
        <time>2021-06-26T05:17:39.000Z</time>
      </trkpt>
      <trkpt lat="45.22823" lon="5.74169">
        <ele>975.40002441406</ele>
        <time>2021-06-26T05:17:41.000Z</time>
      </trkpt>
      <trkpt lat="45.2281" lon="5.74166">
        <ele>974</ele>
        <time>2021-06-26T05:17:47.000Z</time>
      </trkpt>
      <trkpt lat="45.228" lon="5.74163">
        <ele>972.59997558594</ele>
        <time>2021-06-26T05:17:51.000Z</time>
      </trkpt>
      <trkpt lat="45.22791" lon="5.7416">
        <ele>972.20001220703</ele>
        <time>2021-06-26T05:17:54.000Z</time>
      </trkpt>
      <trkpt lat="45.22786" lon="5.74158">
        <ele>971.59997558594</ele>
        <time>2021-06-26T05:17:56.000Z</time>
      </trkpt>
      <trkpt lat="45.22781" lon="5.74155">
        <ele>970.59997558594</ele>
        <time>2021-06-26T05:17:58.000Z</time>
      </trkpt>
      <trkpt lat="45.22771" lon="5.74149">
        <ele>970.20001220703</ele>
        <time>2021-06-26T05:18:02.000Z</time>
      </trkpt>
      <trkpt lat="45.22764" lon="5.74144">
        <ele>969.20001220703</ele>
        <time>2021-06-26T05:18:05.000Z</time>
      </trkpt>
      <trkpt lat="45.22759" lon="5.74141">
        <ele>968.59997558594</ele>
        <time>2021-06-26T05:18:07.000Z</time>
      </trkpt>
      <trkpt lat="45.22753" lon="5.74137">
        <ele>968.20001220703</ele>
        <time>2021-06-26T05:18:10.000Z</time>
      </trkpt>
      <trkpt lat="45.22743" lon="5.74132">
        <ele>966.59997558594</ele>
        <time>2021-06-26T05:18:14.000Z</time>
      </trkpt>
      <trkpt lat="45.22735" lon="5.74128">
        <ele>965.59997558594</ele>
        <time>2021-06-26T05:18:17.000Z</time>
      </trkpt>
      <trkpt lat="45.22722" lon="5.74124">
        <ele>964.40002441406</ele>
        <time>2021-06-26T05:18:22.000Z</time>
      </trkpt>
      <trkpt lat="45.2272" lon="5.74124">
        <ele>963.79998779297</ele>
        <time>2021-06-26T05:18:23.000Z</time>
      </trkpt>
      <trkpt lat="45.22712" lon="5.74122">
        <ele>963.40002441406</ele>
        <time>2021-06-26T05:18:26.000Z</time>
      </trkpt>
      <trkpt lat="45.22704" lon="5.74121">
        <ele>962.40002441406</ele>
        <time>2021-06-26T05:18:29.000Z</time>
      </trkpt>
      <trkpt lat="45.22697" lon="5.7412">
        <ele>961.40002441406</ele>
        <time>2021-06-26T05:18:32.000Z</time>
      </trkpt>
      <trkpt lat="45.22693" lon="5.74118">
        <ele>961</ele>
        <time>2021-06-26T05:18:34.000Z</time>
      </trkpt>
      <trkpt lat="45.22682" lon="5.74116">
        <ele>960.40002441406</ele>
        <time>2021-06-26T05:18:38.000Z</time>
      </trkpt>
      <trkpt lat="45.22681" lon="5.74115">
        <ele>959.20001220703</ele>
        <time>2021-06-26T05:18:39.000Z</time>
      </trkpt>
      <trkpt lat="45.22672" lon="5.74111">
        <ele>958.59997558594</ele>
        <time>2021-06-26T05:18:43.000Z</time>
      </trkpt>
      <trkpt lat="45.22669" lon="5.74111">
        <ele>958</ele>
        <time>2021-06-26T05:18:44.000Z</time>
      </trkpt>
      <trkpt lat="45.22649" lon="5.74107">
        <ele>956.40002441406</ele>
        <time>2021-06-26T05:18:52.000Z</time>
      </trkpt>
      <trkpt lat="45.22643" lon="5.74106">
        <ele>956</ele>
        <time>2021-06-26T05:18:54.000Z</time>
      </trkpt>
      <trkpt lat="45.2264" lon="5.74106">
        <ele>956</ele>
        <time>2021-06-26T05:18:55.000Z</time>
      </trkpt>
      <trkpt lat="45.22635" lon="5.74105">
        <ele>955.79998779297</ele>
        <time>2021-06-26T05:18:57.000Z</time>
      </trkpt>
      <trkpt lat="45.22632" lon="5.74105">
        <ele>955.20001220703</ele>
        <time>2021-06-26T05:18:58.000Z</time>
      </trkpt>
      <trkpt lat="45.22629" lon="5.74105">
        <ele>955.20001220703</ele>
        <time>2021-06-26T05:18:59.000Z</time>
      </trkpt>
      <trkpt lat="45.22626" lon="5.74104">
        <ele>955</ele>
        <time>2021-06-26T05:19:00.000Z</time>
      </trkpt>
      <trkpt lat="45.22623" lon="5.74103">
        <ele>954.20001220703</ele>
        <time>2021-06-26T05:19:01.000Z</time>
      </trkpt>
      <trkpt lat="45.22617" lon="5.74102">
        <ele>954</ele>
        <time>2021-06-26T05:19:03.000Z</time>
      </trkpt>
      <trkpt lat="45.22612" lon="5.74101">
        <ele>953.40002441406</ele>
        <time>2021-06-26T05:19:05.000Z</time>
      </trkpt>
      <trkpt lat="45.22609" lon="5.741">
        <ele>952.59997558594</ele>
        <time>2021-06-26T05:19:06.000Z</time>
      </trkpt>
      <trkpt lat="45.22607" lon="5.74099">
        <ele>952.59997558594</ele>
        <time>2021-06-26T05:19:07.000Z</time>
      </trkpt>
      <trkpt lat="45.22597" lon="5.74098">
        <ele>951.40002441406</ele>
        <time>2021-06-26T05:19:11.000Z</time>
      </trkpt>
      <trkpt lat="45.2259" lon="5.74098">
        <ele>950.59997558594</ele>
        <time>2021-06-26T05:19:14.000Z</time>
      </trkpt>
      <trkpt lat="45.22584" lon="5.741">
        <ele>950</ele>
        <time>2021-06-26T05:19:17.000Z</time>
      </trkpt>
      <trkpt lat="45.22579" lon="5.741">
        <ele>948.59997558594</ele>
        <time>2021-06-26T05:19:19.000Z</time>
      </trkpt>
      <trkpt lat="45.22572" lon="5.74101">
        <ele>948.40002441406</ele>
        <time>2021-06-26T05:19:22.000Z</time>
      </trkpt>
      <trkpt lat="45.2256" lon="5.74106">
        <ele>947.40002441406</ele>
        <time>2021-06-26T05:19:27.000Z</time>
      </trkpt>
      <trkpt lat="45.22557" lon="5.74107">
        <ele>947</ele>
        <time>2021-06-26T05:19:28.000Z</time>
      </trkpt>
      <trkpt lat="45.22547" lon="5.7411">
        <ele>945.79998779297</ele>
        <time>2021-06-26T05:19:31.000Z</time>
      </trkpt>
      <trkpt lat="45.22538" lon="5.74112">
        <ele>944.59997558594</ele>
        <time>2021-06-26T05:19:34.000Z</time>
      </trkpt>
      <trkpt lat="45.22535" lon="5.74112">
        <ele>944.20001220703</ele>
        <time>2021-06-26T05:19:35.000Z</time>
      </trkpt>
      <trkpt lat="45.22523" lon="5.74113">
        <ele>943.59997558594</ele>
        <time>2021-06-26T05:19:39.000Z</time>
      </trkpt>
      <trkpt lat="45.22515" lon="5.74114">
        <ele>942.79998779297</ele>
        <time>2021-06-26T05:19:42.000Z</time>
      </trkpt>
      <trkpt lat="45.22512" lon="5.74114">
        <ele>942.40002441406</ele>
        <time>2021-06-26T05:19:43.000Z</time>
      </trkpt>
      <trkpt lat="45.22505" lon="5.74114">
        <ele>941.40002441406</ele>
        <time>2021-06-26T05:19:46.000Z</time>
      </trkpt>
      <trkpt lat="45.22498" lon="5.74113">
        <ele>941</ele>
        <time>2021-06-26T05:19:49.000Z</time>
      </trkpt>
      <trkpt lat="45.22487" lon="5.74111">
        <ele>940</ele>
        <time>2021-06-26T05:19:53.000Z</time>
      </trkpt>
      <trkpt lat="45.22474" lon="5.7411">
        <ele>938.59997558594</ele>
        <time>2021-06-26T05:19:57.000Z</time>
      </trkpt>
      <trkpt lat="45.22465" lon="5.74109">
        <ele>937.59997558594</ele>
        <time>2021-06-26T05:20:00.000Z</time>
      </trkpt>
      <trkpt lat="45.22457" lon="5.74105">
        <ele>936.40002441406</ele>
        <time>2021-06-26T05:20:03.000Z</time>
      </trkpt>
      <trkpt lat="45.22454" lon="5.74104">
        <ele>936.40002441406</ele>
        <time>2021-06-26T05:20:04.000Z</time>
      </trkpt>
      <trkpt lat="45.22443" lon="5.741">
        <ele>935.40002441406</ele>
        <time>2021-06-26T05:20:08.000Z</time>
      </trkpt>
      <trkpt lat="45.22436" lon="5.74095">
        <ele>934.40002441406</ele>
        <time>2021-06-26T05:20:11.000Z</time>
      </trkpt>
      <trkpt lat="45.22431" lon="5.74092">
        <ele>934</ele>
        <time>2021-06-26T05:20:13.000Z</time>
      </trkpt>
      <trkpt lat="45.22424" lon="5.74089">
        <ele>932.79998779297</ele>
        <time>2021-06-26T05:20:16.000Z</time>
      </trkpt>
      <trkpt lat="45.22417" lon="5.74084">
        <ele>932</ele>
        <time>2021-06-26T05:20:19.000Z</time>
      </trkpt>
      <trkpt lat="45.22415" lon="5.74082">
        <ele>931.79998779297</ele>
        <time>2021-06-26T05:20:20.000Z</time>
      </trkpt>
      <trkpt lat="45.22404" lon="5.74077">
        <ele>930.59997558594</ele>
        <time>2021-06-26T05:20:25.000Z</time>
      </trkpt>
      <trkpt lat="45.22399" lon="5.74077">
        <ele>930</ele>
        <time>2021-06-26T05:20:29.000Z</time>
      </trkpt>
      <trkpt lat="45.224" lon="5.74078">
        <ele>930</ele>
        <time>2021-06-26T05:20:30.000Z</time>
      </trkpt>
      <trkpt lat="45.22407" lon="5.74083">
        <ele>929</ele>
        <time>2021-06-26T05:20:35.000Z</time>
      </trkpt>
      <trkpt lat="45.22411" lon="5.74089">
        <ele>927.40002441406</ele>
        <time>2021-06-26T05:20:40.000Z</time>
      </trkpt>
      <trkpt lat="45.22412" lon="5.7409">
        <ele>927.20001220703</ele>
        <time>2021-06-26T05:20:41.000Z</time>
      </trkpt>
      <trkpt lat="45.22416" lon="5.74095">
        <ele>926.20001220703</ele>
        <time>2021-06-26T05:20:43.000Z</time>
      </trkpt>
      <trkpt lat="45.22423" lon="5.74102">
        <ele>925.59997558594</ele>
        <time>2021-06-26T05:20:46.000Z</time>
      </trkpt>
      <trkpt lat="45.22426" lon="5.74108">
        <ele>924.59997558594</ele>
        <time>2021-06-26T05:20:48.000Z</time>
      </trkpt>
      <trkpt lat="45.22431" lon="5.74115">
        <ele>923.59997558594</ele>
        <time>2021-06-26T05:20:51.000Z</time>
      </trkpt>
      <trkpt lat="45.22433" lon="5.74118">
        <ele>923.40002441406</ele>
        <time>2021-06-26T05:20:52.000Z</time>
      </trkpt>
      <trkpt lat="45.22444" lon="5.74128">
        <ele>922.59997558594</ele>
        <time>2021-06-26T05:20:56.000Z</time>
      </trkpt>
      <trkpt lat="45.22446" lon="5.7413">
        <ele>921.79998779297</ele>
        <time>2021-06-26T05:20:57.000Z</time>
      </trkpt>
      <trkpt lat="45.22448" lon="5.74133">
        <ele>921.40002441406</ele>
        <time>2021-06-26T05:20:58.000Z</time>
      </trkpt>
      <trkpt lat="45.22453" lon="5.74143">
        <ele>920.20001220703</ele>
        <time>2021-06-26T05:21:03.000Z</time>
      </trkpt>
      <trkpt lat="45.22454" lon="5.74145">
        <ele>920</ele>
        <time>2021-06-26T05:21:04.000Z</time>
      </trkpt>
      <trkpt lat="45.22455" lon="5.74149">
        <ele>919.59997558594</ele>
        <time>2021-06-26T05:21:06.000Z</time>
      </trkpt>
      <trkpt lat="45.22457" lon="5.74152">
        <ele>919.59997558594</ele>
        <time>2021-06-26T05:21:07.000Z</time>
      </trkpt>
      <trkpt lat="45.22461" lon="5.74161">
        <ele>919</ele>
        <time>2021-06-26T05:21:09.000Z</time>
      </trkpt>
      <trkpt lat="45.22469" lon="5.74172">
        <ele>917.79998779297</ele>
        <time>2021-06-26T05:21:13.000Z</time>
      </trkpt>
      <trkpt lat="45.22473" lon="5.74177">
        <ele>916.79998779297</ele>
        <time>2021-06-26T05:21:16.000Z</time>
      </trkpt>
      <trkpt lat="45.22483" lon="5.74185">
        <ele>915.59997558594</ele>
        <time>2021-06-26T05:21:21.000Z</time>
      </trkpt>
      <trkpt lat="45.2249" lon="5.74192">
        <ele>914.79998779297</ele>
        <time>2021-06-26T05:21:24.000Z</time>
      </trkpt>
      <trkpt lat="45.22493" lon="5.74196">
        <ele>914.20001220703</ele>
        <time>2021-06-26T05:21:26.000Z</time>
      </trkpt>
      <trkpt lat="45.22508" lon="5.74208">
        <ele>913</ele>
        <time>2021-06-26T05:21:32.000Z</time>
      </trkpt>
      <trkpt lat="45.22512" lon="5.74212">
        <ele>912</ele>
        <time>2021-06-26T05:21:34.000Z</time>
      </trkpt>
      <trkpt lat="45.22515" lon="5.74214">
        <ele>912</ele>
        <time>2021-06-26T05:21:36.000Z</time>
      </trkpt>
      <trkpt lat="45.2252" lon="5.74218">
        <ele>910.59997558594</ele>
        <time>2021-06-26T05:21:39.000Z</time>
      </trkpt>
      <trkpt lat="45.22523" lon="5.7422">
        <ele>910.40002441406</ele>
        <time>2021-06-26T05:21:41.000Z</time>
      </trkpt>
      <trkpt lat="45.2253" lon="5.74224">
        <ele>909</ele>
        <time>2021-06-26T05:21:45.000Z</time>
      </trkpt>
      <trkpt lat="45.22533" lon="5.74226">
        <ele>908.40002441406</ele>
        <time>2021-06-26T05:21:46.000Z</time>
      </trkpt>
      <trkpt lat="45.22537" lon="5.74226">
        <ele>908.20001220703</ele>
        <time>2021-06-26T05:21:48.000Z</time>
      </trkpt>
      <trkpt lat="45.22542" lon="5.74229">
        <ele>907.79998779297</ele>
        <time>2021-06-26T05:21:50.000Z</time>
      </trkpt>
      <trkpt lat="45.22547" lon="5.74232">
        <ele>906.79998779297</ele>
        <time>2021-06-26T05:21:52.000Z</time>
      </trkpt>
      <trkpt lat="45.2255" lon="5.74232">
        <ele>906.79998779297</ele>
        <time>2021-06-26T05:21:53.000Z</time>
      </trkpt>
      <trkpt lat="45.22552" lon="5.74233">
        <ele>906.40002441406</ele>
        <time>2021-06-26T05:21:54.000Z</time>
      </trkpt>
      <trkpt lat="45.22556" lon="5.74236">
        <ele>905.59997558594</ele>
        <time>2021-06-26T05:21:56.000Z</time>
      </trkpt>
      <trkpt lat="45.22561" lon="5.74238">
        <ele>905.20001220703</ele>
        <time>2021-06-26T05:21:59.000Z</time>
      </trkpt>
      <trkpt lat="45.22565" lon="5.7424">
        <ele>904.20001220703</ele>
        <time>2021-06-26T05:22:01.000Z</time>
      </trkpt>
      <trkpt lat="45.22575" lon="5.74243">
        <ele>903.20001220703</ele>
        <time>2021-06-26T05:22:05.000Z</time>
      </trkpt>
      <trkpt lat="45.22577" lon="5.74245">
        <ele>902.59997558594</ele>
        <time>2021-06-26T05:22:06.000Z</time>
      </trkpt>
      <trkpt lat="45.22579" lon="5.74246">
        <ele>902.59997558594</ele>
        <time>2021-06-26T05:22:07.000Z</time>
      </trkpt>
      <trkpt lat="45.22581" lon="5.74248">
        <ele>902.40002441406</ele>
        <time>2021-06-26T05:22:09.000Z</time>
      </trkpt>
      <trkpt lat="45.22585" lon="5.74251">
        <ele>901.59997558594</ele>
        <time>2021-06-26T05:22:11.000Z</time>
      </trkpt>
      <trkpt lat="45.22596" lon="5.74254">
        <ele>899.79998779297</ele>
        <time>2021-06-26T05:22:16.000Z</time>
      </trkpt>
      <trkpt lat="45.22602" lon="5.74257">
        <ele>899.40002441406</ele>
        <time>2021-06-26T05:22:19.000Z</time>
      </trkpt>
      <trkpt lat="45.22607" lon="5.74257">
        <ele>898</ele>
        <time>2021-06-26T05:22:21.000Z</time>
      </trkpt>
      <trkpt lat="45.22625" lon="5.74262">
        <ele>897</ele>
        <time>2021-06-26T05:22:27.000Z</time>
      </trkpt>
      <trkpt lat="45.22631" lon="5.74264">
        <ele>896.59997558594</ele>
        <time>2021-06-26T05:22:29.000Z</time>
      </trkpt>
      <trkpt lat="45.22637" lon="5.74266">
        <ele>895.40002441406</ele>
        <time>2021-06-26T05:22:31.000Z</time>
      </trkpt>
      <trkpt lat="45.22644" lon="5.74268">
        <ele>895</ele>
        <time>2021-06-26T05:22:34.000Z</time>
      </trkpt>
      <trkpt lat="45.2265" lon="5.7427">
        <ele>894.20001220703</ele>
        <time>2021-06-26T05:22:36.000Z</time>
      </trkpt>
      <trkpt lat="45.22656" lon="5.74272">
        <ele>893.59997558594</ele>
        <time>2021-06-26T05:22:39.000Z</time>
      </trkpt>
      <trkpt lat="45.22662" lon="5.74276">
        <ele>893</ele>
        <time>2021-06-26T05:22:41.000Z</time>
      </trkpt>
      <trkpt lat="45.22666" lon="5.74278">
        <ele>893</ele>
        <time>2021-06-26T05:22:42.000Z</time>
      </trkpt>
      <trkpt lat="45.22677" lon="5.74287">
        <ele>892.20001220703</ele>
        <time>2021-06-26T05:22:45.000Z</time>
      </trkpt>
      <trkpt lat="45.2268" lon="5.7429">
        <ele>891.59997558594</ele>
        <time>2021-06-26T05:22:46.000Z</time>
      </trkpt>
      <trkpt lat="45.22687" lon="5.74301">
        <ele>890.79998779297</ele>
        <time>2021-06-26T05:22:51.000Z</time>
      </trkpt>
      <trkpt lat="45.22689" lon="5.74302">
        <ele>890</ele>
        <time>2021-06-26T05:22:52.000Z</time>
      </trkpt>
      <trkpt lat="45.22695" lon="5.74308">
        <ele>889</ele>
        <time>2021-06-26T05:22:55.000Z</time>
      </trkpt>
      <trkpt lat="45.22704" lon="5.74315">
        <ele>888</ele>
        <time>2021-06-26T05:22:59.000Z</time>
      </trkpt>
      <trkpt lat="45.22706" lon="5.74317">
        <ele>887.79998779297</ele>
        <time>2021-06-26T05:23:00.000Z</time>
      </trkpt>
      <trkpt lat="45.22709" lon="5.74319">
        <ele>886.79998779297</ele>
        <time>2021-06-26T05:23:01.000Z</time>
      </trkpt>
      <trkpt lat="45.22722" lon="5.74328">
        <ele>886.20001220703</ele>
        <time>2021-06-26T05:23:05.000Z</time>
      </trkpt>
      <trkpt lat="45.22732" lon="5.74332">
        <ele>885</ele>
        <time>2021-06-26T05:23:08.000Z</time>
      </trkpt>
      <trkpt lat="45.22734" lon="5.74334">
        <ele>884.79998779297</ele>
        <time>2021-06-26T05:23:09.000Z</time>
      </trkpt>
      <trkpt lat="45.22739" lon="5.7434">
        <ele>884.59997558594</ele>
        <time>2021-06-26T05:23:12.000Z</time>
      </trkpt>
      <trkpt lat="45.22741" lon="5.74342">
        <ele>883.59997558594</ele>
        <time>2021-06-26T05:23:13.000Z</time>
      </trkpt>
      <trkpt lat="45.2275" lon="5.7435">
        <ele>882</ele>
        <time>2021-06-26T05:23:17.000Z</time>
      </trkpt>
      <trkpt lat="45.22756" lon="5.74354">
        <ele>882</ele>
        <time>2021-06-26T05:23:20.000Z</time>
      </trkpt>
      <trkpt lat="45.22761" lon="5.74357">
        <ele>880.59997558594</ele>
        <time>2021-06-26T05:23:23.000Z</time>
      </trkpt>
      <trkpt lat="45.22777" lon="5.74366">
        <ele>879.59997558594</ele>
        <time>2021-06-26T05:23:27.000Z</time>
      </trkpt>
      <trkpt lat="45.22782" lon="5.74371">
        <ele>878.79998779297</ele>
        <time>2021-06-26T05:23:29.000Z</time>
      </trkpt>
      <trkpt lat="45.22793" lon="5.74381">
        <ele>877.40002441406</ele>
        <time>2021-06-26T05:23:34.000Z</time>
      </trkpt>
      <trkpt lat="45.22795" lon="5.74383">
        <ele>877.20001220703</ele>
        <time>2021-06-26T05:23:35.000Z</time>
      </trkpt>
      <trkpt lat="45.22803" lon="5.74388">
        <ele>876.40002441406</ele>
        <time>2021-06-26T05:23:38.000Z</time>
      </trkpt>
      <trkpt lat="45.22806" lon="5.74389">
        <ele>876.20001220703</ele>
        <time>2021-06-26T05:23:39.000Z</time>
      </trkpt>
      <trkpt lat="45.22811" lon="5.74391">
        <ele>875.40002441406</ele>
        <time>2021-06-26T05:23:41.000Z</time>
      </trkpt>
      <trkpt lat="45.22813" lon="5.74392">
        <ele>875</ele>
        <time>2021-06-26T05:23:42.000Z</time>
      </trkpt>
      <trkpt lat="45.22823" lon="5.74398">
        <ele>873.79998779297</ele>
        <time>2021-06-26T05:23:47.000Z</time>
      </trkpt>
      <trkpt lat="45.22831" lon="5.74406">
        <ele>872.40002441406</ele>
        <time>2021-06-26T05:23:52.000Z</time>
      </trkpt>
      <trkpt lat="45.22834" lon="5.7441">
        <ele>871.79998779297</ele>
        <time>2021-06-26T05:23:54.000Z</time>
      </trkpt>
      <trkpt lat="45.22836" lon="5.74411">
        <ele>871.79998779297</ele>
        <time>2021-06-26T05:23:55.000Z</time>
      </trkpt>
      <trkpt lat="45.2284" lon="5.74414">
        <ele>871.40002441406</ele>
        <time>2021-06-26T05:23:57.000Z</time>
      </trkpt>
      <trkpt lat="45.22845" lon="5.74418">
        <ele>870.79998779297</ele>
        <time>2021-06-26T05:23:59.000Z</time>
      </trkpt>
      <trkpt lat="45.22851" lon="5.74424">
        <ele>870</ele>
        <time>2021-06-26T05:24:02.000Z</time>
      </trkpt>
      <trkpt lat="45.22853" lon="5.74426">
        <ele>870</ele>
        <time>2021-06-26T05:24:03.000Z</time>
      </trkpt>
      <trkpt lat="45.2286" lon="5.74433">
        <ele>868.59997558594</ele>
        <time>2021-06-26T05:24:07.000Z</time>
      </trkpt>
      <trkpt lat="45.22862" lon="5.74435">
        <ele>868.40002441406</ele>
        <time>2021-06-26T05:24:08.000Z</time>
      </trkpt>
      <trkpt lat="45.22863" lon="5.74437">
        <ele>868.40002441406</ele>
        <time>2021-06-26T05:24:09.000Z</time>
      </trkpt>
      <trkpt lat="45.22867" lon="5.74443">
        <ele>867.40002441406</ele>
        <time>2021-06-26T05:24:12.000Z</time>
      </trkpt>
      <trkpt lat="45.22871" lon="5.74447">
        <ele>866.40002441406</ele>
        <time>2021-06-26T05:24:14.000Z</time>
      </trkpt>
      <trkpt lat="45.22874" lon="5.74448">
        <ele>866</ele>
        <time>2021-06-26T05:24:15.000Z</time>
      </trkpt>
      <trkpt lat="45.2289" lon="5.7446">
        <ele>864.59997558594</ele>
        <time>2021-06-26T05:24:21.000Z</time>
      </trkpt>
      <trkpt lat="45.22892" lon="5.74462">
        <ele>864.59997558594</ele>
        <time>2021-06-26T05:24:22.000Z</time>
      </trkpt>
      <trkpt lat="45.22898" lon="5.74465">
        <ele>863.40002441406</ele>
        <time>2021-06-26T05:24:25.000Z</time>
      </trkpt>
      <trkpt lat="45.229" lon="5.74467">
        <ele>862.79998779297</ele>
        <time>2021-06-26T05:24:26.000Z</time>
      </trkpt>
      <trkpt lat="45.22903" lon="5.7447">
        <ele>862.40002441406</ele>
        <time>2021-06-26T05:24:28.000Z</time>
      </trkpt>
      <trkpt lat="45.22905" lon="5.74472">
        <ele>862.40002441406</ele>
        <time>2021-06-26T05:24:29.000Z</time>
      </trkpt>
      <trkpt lat="45.2291" lon="5.74479">
        <ele>861.40002441406</ele>
        <time>2021-06-26T05:24:32.000Z</time>
      </trkpt>
      <trkpt lat="45.22916" lon="5.74486">
        <ele>860.20001220703</ele>
        <time>2021-06-26T05:24:35.000Z</time>
      </trkpt>
      <trkpt lat="45.22923" lon="5.74494">
        <ele>859.20001220703</ele>
        <time>2021-06-26T05:24:39.000Z</time>
      </trkpt>
      <trkpt lat="45.22924" lon="5.74495">
        <ele>859</ele>
        <time>2021-06-26T05:24:40.000Z</time>
      </trkpt>
      <trkpt lat="45.22926" lon="5.74496">
        <ele>859</ele>
        <time>2021-06-26T05:24:41.000Z</time>
      </trkpt>
      <trkpt lat="45.22931" lon="5.745">
        <ele>858</ele>
        <time>2021-06-26T05:24:43.000Z</time>
      </trkpt>
      <trkpt lat="45.22945" lon="5.74513">
        <ele>857.20001220703</ele>
        <time>2021-06-26T05:24:47.000Z</time>
      </trkpt>
      <trkpt lat="45.22948" lon="5.74516">
        <ele>856.79998779297</ele>
        <time>2021-06-26T05:24:48.000Z</time>
      </trkpt>
      <trkpt lat="45.22951" lon="5.74518">
        <ele>856.20001220703</ele>
        <time>2021-06-26T05:24:49.000Z</time>
      </trkpt>
      <trkpt lat="45.22953" lon="5.7452">
        <ele>855.59997558594</ele>
        <time>2021-06-26T05:24:50.000Z</time>
      </trkpt>
      <trkpt lat="45.22958" lon="5.74525">
        <ele>855.59997558594</ele>
        <time>2021-06-26T05:24:52.000Z</time>
      </trkpt>
      <trkpt lat="45.22964" lon="5.7453">
        <ele>854.59997558594</ele>
        <time>2021-06-26T05:24:55.000Z</time>
      </trkpt>
      <trkpt lat="45.2297" lon="5.74535">
        <ele>853.40002441406</ele>
        <time>2021-06-26T05:24:58.000Z</time>
      </trkpt>
      <trkpt lat="45.22974" lon="5.7454">
        <ele>852.59997558594</ele>
        <time>2021-06-26T05:25:00.000Z</time>
      </trkpt>
      <trkpt lat="45.22976" lon="5.74543">
        <ele>852</ele>
        <time>2021-06-26T05:25:01.000Z</time>
      </trkpt>
      <trkpt lat="45.22985" lon="5.74554">
        <ele>851</ele>
        <time>2021-06-26T05:25:05.000Z</time>
      </trkpt>
      <trkpt lat="45.22992" lon="5.74564">
        <ele>849.79998779297</ele>
        <time>2021-06-26T05:25:09.000Z</time>
      </trkpt>
      <trkpt lat="45.23004" lon="5.74578">
        <ele>848.40002441406</ele>
        <time>2021-06-26T05:25:14.000Z</time>
      </trkpt>
      <trkpt lat="45.2301" lon="5.74585">
        <ele>848</ele>
        <time>2021-06-26T05:25:16.000Z</time>
      </trkpt>
      <trkpt lat="45.23012" lon="5.74588">
        <ele>848</ele>
        <time>2021-06-26T05:25:17.000Z</time>
      </trkpt>
      <trkpt lat="45.23017" lon="5.74592">
        <ele>846.79998779297</ele>
        <time>2021-06-26T05:25:19.000Z</time>
      </trkpt>
      <trkpt lat="45.23022" lon="5.74599">
        <ele>846.40002441406</ele>
        <time>2021-06-26T05:25:22.000Z</time>
      </trkpt>
      <trkpt lat="45.23027" lon="5.74605">
        <ele>845.59997558594</ele>
        <time>2021-06-26T05:25:24.000Z</time>
      </trkpt>
      <trkpt lat="45.23035" lon="5.7462">
        <ele>844.20001220703</ele>
        <time>2021-06-26T05:25:29.000Z</time>
      </trkpt>
      <trkpt lat="45.23043" lon="5.74635">
        <ele>842.59997558594</ele>
        <time>2021-06-26T05:25:34.000Z</time>
      </trkpt>
      <trkpt lat="45.23047" lon="5.7464">
        <ele>842.20001220703</ele>
        <time>2021-06-26T05:25:36.000Z</time>
      </trkpt>
      <trkpt lat="45.2305" lon="5.74642">
        <ele>841.59997558594</ele>
        <time>2021-06-26T05:25:37.000Z</time>
      </trkpt>
      <trkpt lat="45.23053" lon="5.74645">
        <ele>841.40002441406</ele>
        <time>2021-06-26T05:25:39.000Z</time>
      </trkpt>
      <trkpt lat="45.23056" lon="5.74649">
        <ele>840.79998779297</ele>
        <time>2021-06-26T05:25:41.000Z</time>
      </trkpt>
      <trkpt lat="45.23059" lon="5.74652">
        <ele>840</ele>
        <time>2021-06-26T05:25:43.000Z</time>
      </trkpt>
      <trkpt lat="45.23063" lon="5.74661">
        <ele>838.79998779297</ele>
        <time>2021-06-26T05:25:47.000Z</time>
      </trkpt>
      <trkpt lat="45.23064" lon="5.74663">
        <ele>838.59997558594</ele>
        <time>2021-06-26T05:25:48.000Z</time>
      </trkpt>
      <trkpt lat="45.23071" lon="5.74676">
        <ele>837.59997558594</ele>
        <time>2021-06-26T05:25:51.000Z</time>
      </trkpt>
      <trkpt lat="45.23083" lon="5.74695">
        <ele>836.59997558594</ele>
        <time>2021-06-26T05:25:56.000Z</time>
      </trkpt>
      <trkpt lat="45.23088" lon="5.74706">
        <ele>835.40002441406</ele>
        <time>2021-06-26T05:25:59.000Z</time>
      </trkpt>
      <trkpt lat="45.23093" lon="5.74717">
        <ele>833.59997558594</ele>
        <time>2021-06-26T05:26:03.000Z</time>
      </trkpt>
      <trkpt lat="45.23101" lon="5.74728">
        <ele>833</ele>
        <time>2021-06-26T05:26:07.000Z</time>
      </trkpt>
      <trkpt lat="45.23103" lon="5.7473">
        <ele>833</ele>
        <time>2021-06-26T05:26:08.000Z</time>
      </trkpt>
      <trkpt lat="45.23105" lon="5.74733">
        <ele>832.20001220703</ele>
        <time>2021-06-26T05:26:09.000Z</time>
      </trkpt>
      <trkpt lat="45.23113" lon="5.74743">
        <ele>830.59997558594</ele>
        <time>2021-06-26T05:26:13.000Z</time>
      </trkpt>
      <trkpt lat="45.23118" lon="5.74749">
        <ele>830.40002441406</ele>
        <time>2021-06-26T05:26:15.000Z</time>
      </trkpt>
      <trkpt lat="45.23121" lon="5.74754">
        <ele>829.59997558594</ele>
        <time>2021-06-26T05:26:17.000Z</time>
      </trkpt>
      <trkpt lat="45.23129" lon="5.74765">
        <ele>828.59997558594</ele>
        <time>2021-06-26T05:26:21.000Z</time>
      </trkpt>
      <trkpt lat="45.2313" lon="5.74767">
        <ele>828.40002441406</ele>
        <time>2021-06-26T05:26:22.000Z</time>
      </trkpt>
      <trkpt lat="45.23136" lon="5.74778">
        <ele>827.20001220703</ele>
        <time>2021-06-26T05:26:26.000Z</time>
      </trkpt>
      <trkpt lat="45.23142" lon="5.7479">
        <ele>826.59997558594</ele>
        <time>2021-06-26T05:26:29.000Z</time>
      </trkpt>
      <trkpt lat="45.23147" lon="5.74798">
        <ele>825.79998779297</ele>
        <time>2021-06-26T05:26:31.000Z</time>
      </trkpt>
      <trkpt lat="45.23155" lon="5.74815">
        <ele>824.79998779297</ele>
        <time>2021-06-26T05:26:36.000Z</time>
      </trkpt>
      <trkpt lat="45.23158" lon="5.7482">
        <ele>824</ele>
        <time>2021-06-26T05:26:38.000Z</time>
      </trkpt>
      <trkpt lat="45.23159" lon="5.74823">
        <ele>823.59997558594</ele>
        <time>2021-06-26T05:26:39.000Z</time>
      </trkpt>
      <trkpt lat="45.2316" lon="5.74826">
        <ele>823.59997558594</ele>
        <time>2021-06-26T05:26:40.000Z</time>
      </trkpt>
      <trkpt lat="45.23164" lon="5.74832">
        <ele>822.59997558594</ele>
        <time>2021-06-26T05:26:43.000Z</time>
      </trkpt>
      <trkpt lat="45.23172" lon="5.74836">
        <ele>822</ele>
        <time>2021-06-26T05:26:46.000Z</time>
      </trkpt>
      <trkpt lat="45.23173" lon="5.74838">
        <ele>821.40002441406</ele>
        <time>2021-06-26T05:26:47.000Z</time>
      </trkpt>
      <trkpt lat="45.2318" lon="5.74845">
        <ele>820</ele>
        <time>2021-06-26T05:26:51.000Z</time>
      </trkpt>
      <trkpt lat="45.23185" lon="5.7485">
        <ele>819.20001220703</ele>
        <time>2021-06-26T05:26:54.000Z</time>
      </trkpt>
      <trkpt lat="45.23186" lon="5.74852">
        <ele>818.79998779297</ele>
        <time>2021-06-26T05:26:55.000Z</time>
      </trkpt>
      <trkpt lat="45.23187" lon="5.74854">
        <ele>818.79998779297</ele>
        <time>2021-06-26T05:26:56.000Z</time>
      </trkpt>
      <trkpt lat="45.2319" lon="5.74865">
        <ele>818</ele>
        <time>2021-06-26T05:26:59.000Z</time>
      </trkpt>
      <trkpt lat="45.23192" lon="5.74869">
        <ele>817.79998779297</ele>
        <time>2021-06-26T05:27:00.000Z</time>
      </trkpt>
      <trkpt lat="45.23194" lon="5.74872">
        <ele>817.40002441406</ele>
        <time>2021-06-26T05:27:01.000Z</time>
      </trkpt>
      <trkpt lat="45.232" lon="5.74879">
        <ele>816.59997558594</ele>
        <time>2021-06-26T05:27:04.000Z</time>
      </trkpt>
      <trkpt lat="45.23202" lon="5.74882">
        <ele>816.40002441406</ele>
        <time>2021-06-26T05:27:05.000Z</time>
      </trkpt>
      <trkpt lat="45.23205" lon="5.74887">
        <ele>815.79998779297</ele>
        <time>2021-06-26T05:27:07.000Z</time>
      </trkpt>
      <trkpt lat="45.23206" lon="5.74893">
        <ele>814.59997558594</ele>
        <time>2021-06-26T05:27:09.000Z</time>
      </trkpt>
      <trkpt lat="45.23208" lon="5.74896">
        <ele>814.59997558594</ele>
        <time>2021-06-26T05:27:10.000Z</time>
      </trkpt>
      <trkpt lat="45.23219" lon="5.74905">
        <ele>813.59997558594</ele>
        <time>2021-06-26T05:27:14.000Z</time>
      </trkpt>
      <trkpt lat="45.23222" lon="5.74907">
        <ele>813.59997558594</ele>
        <time>2021-06-26T05:27:15.000Z</time>
      </trkpt>
      <trkpt lat="45.23228" lon="5.74912">
        <ele>812.79998779297</ele>
        <time>2021-06-26T05:27:17.000Z</time>
      </trkpt>
      <trkpt lat="45.23235" lon="5.74917">
        <ele>812.20001220703</ele>
        <time>2021-06-26T05:27:19.000Z</time>
      </trkpt>
      <trkpt lat="45.23245" lon="5.74925">
        <ele>812</ele>
        <time>2021-06-26T05:27:22.000Z</time>
      </trkpt>
      <trkpt lat="45.23246" lon="5.74926">
        <ele>811.20001220703</ele>
        <time>2021-06-26T05:27:23.000Z</time>
      </trkpt>
      <trkpt lat="45.23251" lon="5.74933">
        <ele>810</ele>
        <time>2021-06-26T05:27:27.000Z</time>
      </trkpt>
      <trkpt lat="45.23254" lon="5.74936">
        <ele>809.59997558594</ele>
        <time>2021-06-26T05:27:29.000Z</time>
      </trkpt>
      <trkpt lat="45.23261" lon="5.74946">
        <ele>808.59997558594</ele>
        <time>2021-06-26T05:27:32.000Z</time>
      </trkpt>
      <trkpt lat="45.23264" lon="5.7495">
        <ele>808.59997558594</ele>
        <time>2021-06-26T05:27:33.000Z</time>
      </trkpt>
      <trkpt lat="45.23267" lon="5.74954">
        <ele>808.20001220703</ele>
        <time>2021-06-26T05:27:34.000Z</time>
      </trkpt>
      <trkpt lat="45.23273" lon="5.74962">
        <ele>807.59997558594</ele>
        <time>2021-06-26T05:27:37.000Z</time>
      </trkpt>
      <trkpt lat="45.23276" lon="5.74968">
        <ele>807.40002441406</ele>
        <time>2021-06-26T05:27:39.000Z</time>
      </trkpt>
      <trkpt lat="45.23278" lon="5.74974">
        <ele>806.59997558594</ele>
        <time>2021-06-26T05:27:41.000Z</time>
      </trkpt>
      <trkpt lat="45.23285" lon="5.74984">
        <ele>805.40002441406</ele>
        <time>2021-06-26T05:27:45.000Z</time>
      </trkpt>
      <trkpt lat="45.23287" lon="5.74987">
        <ele>805.40002441406</ele>
        <time>2021-06-26T05:27:46.000Z</time>
      </trkpt>
      <trkpt lat="45.23294" lon="5.74997">
        <ele>804.40002441406</ele>
        <time>2021-06-26T05:27:49.000Z</time>
      </trkpt>
      <trkpt lat="45.23299" lon="5.75006">
        <ele>803.59997558594</ele>
        <time>2021-06-26T05:27:52.000Z</time>
      </trkpt>
      <trkpt lat="45.233" lon="5.75009">
        <ele>803.59997558594</ele>
        <time>2021-06-26T05:27:53.000Z</time>
      </trkpt>
      <trkpt lat="45.23302" lon="5.75013">
        <ele>802.79998779297</ele>
        <time>2021-06-26T05:27:54.000Z</time>
      </trkpt>
      <trkpt lat="45.23314" lon="5.75031">
        <ele>801.20001220703</ele>
        <time>2021-06-26T05:27:59.000Z</time>
      </trkpt>
      <trkpt lat="45.23316" lon="5.75036">
        <ele>800.20001220703</ele>
        <time>2021-06-26T05:28:00.000Z</time>
      </trkpt>
      <trkpt lat="45.23318" lon="5.75042">
        <ele>800.20001220703</ele>
        <time>2021-06-26T05:28:01.000Z</time>
      </trkpt>
      <trkpt lat="45.23325" lon="5.75057">
        <ele>799.20001220703</ele>
        <time>2021-06-26T05:28:04.000Z</time>
      </trkpt>
      <trkpt lat="45.23327" lon="5.75066">
        <ele>799.20001220703</ele>
        <time>2021-06-26T05:28:06.000Z</time>
      </trkpt>
      <trkpt lat="45.23326" lon="5.75086">
        <ele>797.79998779297</ele>
        <time>2021-06-26T05:28:10.000Z</time>
      </trkpt>
      <trkpt lat="45.23332" lon="5.75102">
        <ele>797.79998779297</ele>
        <time>2021-06-26T05:28:15.000Z</time>
      </trkpt>
      <trkpt lat="45.23332" lon="5.75102">
        <ele>797.79998779297</ele>
        <time>2021-06-26T05:28:16.000Z</time>
      </trkpt>
      <trkpt lat="45.23338" lon="5.75104">
        <ele>798.59997558594</ele>
        <time>2021-06-26T05:28:20.000Z</time>
      </trkpt>
      <trkpt lat="45.23339" lon="5.75103">
        <ele>799</ele>
        <time>2021-06-26T05:28:21.000Z</time>
      </trkpt>
      <trkpt lat="45.23346" lon="5.751">
        <ele>799.79998779297</ele>
        <time>2021-06-26T05:28:25.000Z</time>
      </trkpt>
      <trkpt lat="45.2335" lon="5.75098">
        <ele>800.40002441406</ele>
        <time>2021-06-26T05:28:27.000Z</time>
      </trkpt>
      <trkpt lat="45.23358" lon="5.75095">
        <ele>801.20001220703</ele>
        <time>2021-06-26T05:28:31.000Z</time>
      </trkpt>
      <trkpt lat="45.2336" lon="5.75095">
        <ele>801.59997558594</ele>
        <time>2021-06-26T05:28:32.000Z</time>
      </trkpt>
      <trkpt lat="45.23366" lon="5.75096">
        <ele>801.59997558594</ele>
        <time>2021-06-26T05:28:35.000Z</time>
      </trkpt>
      <trkpt lat="45.23372" lon="5.75095">
        <ele>802.40002441406</ele>
        <time>2021-06-26T05:28:38.000Z</time>
      </trkpt>
      <trkpt lat="45.23376" lon="5.75095">
        <ele>803</ele>
        <time>2021-06-26T05:28:40.000Z</time>
      </trkpt>
      <trkpt lat="45.23378" lon="5.75095">
        <ele>803.20001220703</ele>
        <time>2021-06-26T05:28:41.000Z</time>
      </trkpt>
      <trkpt lat="45.23388" lon="5.75087">
        <ele>803.40002441406</ele>
        <time>2021-06-26T05:28:46.000Z</time>
      </trkpt>
      <trkpt lat="45.23396" lon="5.75085">
        <ele>803.79998779297</ele>
        <time>2021-06-26T05:28:49.000Z</time>
      </trkpt>
      <trkpt lat="45.23399" lon="5.75084">
        <ele>804.20001220703</ele>
        <time>2021-06-26T05:28:50.000Z</time>
      </trkpt>
      <trkpt lat="45.23414" lon="5.75085">
        <ele>804.79998779297</ele>
        <time>2021-06-26T05:28:56.000Z</time>
      </trkpt>
      <trkpt lat="45.23429" lon="5.75081">
        <ele>805</ele>
        <time>2021-06-26T05:29:02.000Z</time>
      </trkpt>
      <trkpt lat="45.23433" lon="5.7508">
        <ele>805.20001220703</ele>
        <time>2021-06-26T05:29:04.000Z</time>
      </trkpt>
      <trkpt lat="45.23445" lon="5.75075">
        <ele>806</ele>
        <time>2021-06-26T05:29:09.000Z</time>
      </trkpt>
      <trkpt lat="45.2345" lon="5.75076">
        <ele>806.40002441406</ele>
        <time>2021-06-26T05:29:11.000Z</time>
      </trkpt>
      <trkpt lat="45.23452" lon="5.75076">
        <ele>806.59997558594</ele>
        <time>2021-06-26T05:29:12.000Z</time>
      </trkpt>
      <trkpt lat="45.2346" lon="5.75076">
        <ele>807.40002441406</ele>
        <time>2021-06-26T05:29:16.000Z</time>
      </trkpt>
      <trkpt lat="45.23465" lon="5.75076">
        <ele>808.59997558594</ele>
        <time>2021-06-26T05:29:18.000Z</time>
      </trkpt>
      <trkpt lat="45.23467" lon="5.75076">
        <ele>808.59997558594</ele>
        <time>2021-06-26T05:29:19.000Z</time>
      </trkpt>
      <trkpt lat="45.23474" lon="5.75076">
        <ele>809.59997558594</ele>
        <time>2021-06-26T05:29:22.000Z</time>
      </trkpt>
      <trkpt lat="45.23482" lon="5.75075">
        <ele>809.79998779297</ele>
        <time>2021-06-26T05:29:25.000Z</time>
      </trkpt>
      <trkpt lat="45.23496" lon="5.75072">
        <ele>810.59997558594</ele>
        <time>2021-06-26T05:29:31.000Z</time>
      </trkpt>
      <trkpt lat="45.23505" lon="5.75073">
        <ele>811</ele>
        <time>2021-06-26T05:29:34.000Z</time>
      </trkpt>
      <trkpt lat="45.23518" lon="5.75073">
        <ele>811.79998779297</ele>
        <time>2021-06-26T05:29:39.000Z</time>
      </trkpt>
      <trkpt lat="45.23522" lon="5.75074">
        <ele>812.20001220703</ele>
        <time>2021-06-26T05:29:41.000Z</time>
      </trkpt>
      <trkpt lat="45.23535" lon="5.75077">
        <ele>812.79998779297</ele>
        <time>2021-06-26T05:29:47.000Z</time>
      </trkpt>
      <trkpt lat="45.23543" lon="5.75082">
        <ele>813.40002441406</ele>
        <time>2021-06-26T05:29:51.000Z</time>
      </trkpt>
      <trkpt lat="45.23546" lon="5.75084">
        <ele>813.79998779297</ele>
        <time>2021-06-26T05:29:53.000Z</time>
      </trkpt>
      <trkpt lat="45.23548" lon="5.75085">
        <ele>814.20001220703</ele>
        <time>2021-06-26T05:29:54.000Z</time>
      </trkpt>
      <trkpt lat="45.23548" lon="5.75085">
        <ele>814.79998779297</ele>
        <time>2021-06-26T05:29:55.000Z</time>
      </trkpt>
      <trkpt lat="45.23549" lon="5.75085">
        <ele>815</ele>
        <time>2021-06-26T05:29:56.000Z</time>
      </trkpt>
      <trkpt lat="45.23551" lon="5.75085">
        <ele>816.40002441406</ele>
        <time>2021-06-26T05:29:58.000Z</time>
      </trkpt>
      <trkpt lat="45.23552" lon="5.75085">
        <ele>816.40002441406</ele>
        <time>2021-06-26T05:29:59.000Z</time>
      </trkpt>
      <trkpt lat="45.23558" lon="5.75092">
        <ele>817.40002441406</ele>
        <time>2021-06-26T05:30:02.000Z</time>
      </trkpt>
      <trkpt lat="45.23561" lon="5.75096">
        <ele>817.59997558594</ele>
        <time>2021-06-26T05:30:04.000Z</time>
      </trkpt>
      <trkpt lat="45.23564" lon="5.75098">
        <ele>818.79998779297</ele>
        <time>2021-06-26T05:30:06.000Z</time>
      </trkpt>
      <trkpt lat="45.23566" lon="5.75101">
        <ele>819.20001220703</ele>
        <time>2021-06-26T05:30:09.000Z</time>
      </trkpt>
      <trkpt lat="45.23568" lon="5.75103">
        <ele>819.79998779297</ele>
        <time>2021-06-26T05:30:11.000Z</time>
      </trkpt>
      <trkpt lat="45.23569" lon="5.75104">
        <ele>820</ele>
        <time>2021-06-26T05:30:12.000Z</time>
      </trkpt>
      <trkpt lat="45.23573" lon="5.75107">
        <ele>821.20001220703</ele>
        <time>2021-06-26T05:30:15.000Z</time>
      </trkpt>
      <trkpt lat="45.23575" lon="5.75109">
        <ele>822.20001220703</ele>
        <time>2021-06-26T05:30:17.000Z</time>
      </trkpt>
      <trkpt lat="45.23577" lon="5.7511">
        <ele>822.40002441406</ele>
        <time>2021-06-26T05:30:18.000Z</time>
      </trkpt>
      <trkpt lat="45.23579" lon="5.75111">
        <ele>822.40002441406</ele>
        <time>2021-06-26T05:30:19.000Z</time>
      </trkpt>
      <trkpt lat="45.23582" lon="5.75113">
        <ele>823.59997558594</ele>
        <time>2021-06-26T05:30:21.000Z</time>
      </trkpt>
      <trkpt lat="45.23588" lon="5.75117">
        <ele>824</ele>
        <time>2021-06-26T05:30:23.000Z</time>
      </trkpt>
      <trkpt lat="45.2359" lon="5.75122">
        <ele>824.79998779297</ele>
        <time>2021-06-26T05:30:26.000Z</time>
      </trkpt>
      <trkpt lat="45.23589" lon="5.75122">
        <ele>825.20001220703</ele>
        <time>2021-06-26T05:30:27.000Z</time>
      </trkpt>
      <trkpt lat="45.23586" lon="5.75123">
        <ele>826</ele>
        <time>2021-06-26T05:30:29.000Z</time>
      </trkpt>
      <trkpt lat="45.23583" lon="5.75124">
        <ele>827</ele>
        <time>2021-06-26T05:30:33.000Z</time>
      </trkpt>
      <trkpt lat="45.2358" lon="5.75125">
        <ele>828.40002441406</ele>
        <time>2021-06-26T05:30:37.000Z</time>
      </trkpt>
      <trkpt lat="45.23579" lon="5.75125">
        <ele>828.59997558594</ele>
        <time>2021-06-26T05:30:38.000Z</time>
      </trkpt>
      <trkpt lat="45.23576" lon="5.75128">
        <ele>829.40002441406</ele>
        <time>2021-06-26T05:30:42.000Z</time>
      </trkpt>
      <trkpt lat="45.23572" lon="5.7513">
        <ele>830.40002441406</ele>
        <time>2021-06-26T05:30:43.000Z</time>
      </trkpt>
      <trkpt lat="45.23568" lon="5.75136">
        <ele>830.79998779297</ele>
        <time>2021-06-26T05:30:46.000Z</time>
      </trkpt>
      <trkpt lat="45.23566" lon="5.75138">
        <ele>831.79998779297</ele>
        <time>2021-06-26T05:30:48.000Z</time>
      </trkpt>
      <trkpt lat="45.23562" lon="5.75142">
        <ele>832.79998779297</ele>
        <time>2021-06-26T05:30:52.000Z</time>
      </trkpt>
      <trkpt lat="45.23561" lon="5.75143">
        <ele>833.20001220703</ele>
        <time>2021-06-26T05:30:53.000Z</time>
      </trkpt>
      <trkpt lat="45.23559" lon="5.75144">
        <ele>833.20001220703</ele>
        <time>2021-06-26T05:30:54.000Z</time>
      </trkpt>
      <trkpt lat="45.23556" lon="5.75146">
        <ele>834</ele>
        <time>2021-06-26T05:30:56.000Z</time>
      </trkpt>
      <trkpt lat="45.23553" lon="5.75151">
        <ele>835.59997558594</ele>
        <time>2021-06-26T05:31:01.000Z</time>
      </trkpt>
      <trkpt lat="45.2355" lon="5.75153">
        <ele>836</ele>
        <time>2021-06-26T05:31:03.000Z</time>
      </trkpt>
      <trkpt lat="45.23548" lon="5.75155">
        <ele>836.59997558594</ele>
        <time>2021-06-26T05:31:05.000Z</time>
      </trkpt>
      <trkpt lat="45.23546" lon="5.75156">
        <ele>836.79998779297</ele>
        <time>2021-06-26T05:31:07.000Z</time>
      </trkpt>
      <trkpt lat="45.23544" lon="5.75159">
        <ele>837.59997558594</ele>
        <time>2021-06-26T05:31:09.000Z</time>
      </trkpt>
      <trkpt lat="45.23541" lon="5.75165">
        <ele>838.79998779297</ele>
        <time>2021-06-26T05:31:13.000Z</time>
      </trkpt>
      <trkpt lat="45.23538" lon="5.75167">
        <ele>839</ele>
        <time>2021-06-26T05:31:14.000Z</time>
      </trkpt>
      <trkpt lat="45.23536" lon="5.75168">
        <ele>839.20001220703</ele>
        <time>2021-06-26T05:31:15.000Z</time>
      </trkpt>
      <trkpt lat="45.23534" lon="5.75169">
        <ele>840.20001220703</ele>
        <time>2021-06-26T05:31:18.000Z</time>
      </trkpt>
      <trkpt lat="45.23529" lon="5.75172">
        <ele>841.40002441406</ele>
        <time>2021-06-26T05:31:22.000Z</time>
      </trkpt>
      <trkpt lat="45.23524" lon="5.75176">
        <ele>842</ele>
        <time>2021-06-26T05:31:25.000Z</time>
      </trkpt>
      <trkpt lat="45.23522" lon="5.75181">
        <ele>842.59997558594</ele>
        <time>2021-06-26T05:31:27.000Z</time>
      </trkpt>
      <trkpt lat="45.23521" lon="5.75182">
        <ele>842.79998779297</ele>
        <time>2021-06-26T05:31:28.000Z</time>
      </trkpt>
      <trkpt lat="45.23518" lon="5.75187">
        <ele>843.79998779297</ele>
        <time>2021-06-26T05:31:31.000Z</time>
      </trkpt>
      <trkpt lat="45.23513" lon="5.75193">
        <ele>844.79998779297</ele>
        <time>2021-06-26T05:31:35.000Z</time>
      </trkpt>
      <trkpt lat="45.23512" lon="5.75194">
        <ele>845.20001220703</ele>
        <time>2021-06-26T05:31:36.000Z</time>
      </trkpt>
      <trkpt lat="45.23508" lon="5.75197">
        <ele>845.79998779297</ele>
        <time>2021-06-26T05:31:39.000Z</time>
      </trkpt>
      <trkpt lat="45.23508" lon="5.75199">
        <ele>846.40002441406</ele>
        <time>2021-06-26T05:31:41.000Z</time>
      </trkpt>
      <trkpt lat="45.23507" lon="5.75202">
        <ele>847</ele>
        <time>2021-06-26T05:31:44.000Z</time>
      </trkpt>
      <trkpt lat="45.23506" lon="5.75205">
        <ele>847.40002441406</ele>
        <time>2021-06-26T05:31:46.000Z</time>
      </trkpt>
      <trkpt lat="45.23503" lon="5.75209">
        <ele>848.59997558594</ele>
        <time>2021-06-26T05:31:50.000Z</time>
      </trkpt>
      <trkpt lat="45.23503" lon="5.7521">
        <ele>849.40002441406</ele>
        <time>2021-06-26T05:31:51.000Z</time>
      </trkpt>
      <trkpt lat="45.23503" lon="5.7521">
        <ele>849.40002441406</ele>
        <time>2021-06-26T05:31:52.000Z</time>
      </trkpt>
      <trkpt lat="45.23501" lon="5.75211">
        <ele>850</ele>
        <time>2021-06-26T05:31:54.000Z</time>
      </trkpt>
      <trkpt lat="45.23498" lon="5.75213">
        <ele>850.40002441406</ele>
        <time>2021-06-26T05:31:56.000Z</time>
      </trkpt>
      <trkpt lat="45.23491" lon="5.75217">
        <ele>851.20001220703</ele>
        <time>2021-06-26T05:31:59.000Z</time>
      </trkpt>
      <trkpt lat="45.23487" lon="5.7522">
        <ele>851.79998779297</ele>
        <time>2021-06-26T05:32:01.000Z</time>
      </trkpt>
      <trkpt lat="45.23486" lon="5.75222">
        <ele>852.20001220703</ele>
        <time>2021-06-26T05:32:03.000Z</time>
      </trkpt>
      <trkpt lat="45.23485" lon="5.75227">
        <ele>853.79998779297</ele>
        <time>2021-06-26T05:32:06.000Z</time>
      </trkpt>
      <trkpt lat="45.23483" lon="5.75228">
        <ele>854</ele>
        <time>2021-06-26T05:32:08.000Z</time>
      </trkpt>
      <trkpt lat="45.23482" lon="5.75229">
        <ele>854</ele>
        <time>2021-06-26T05:32:09.000Z</time>
      </trkpt>
      <trkpt lat="45.23477" lon="5.75232">
        <ele>854.79998779297</ele>
        <time>2021-06-26T05:32:12.000Z</time>
      </trkpt>
      <trkpt lat="45.23475" lon="5.75233">
        <ele>855.79998779297</ele>
        <time>2021-06-26T05:32:14.000Z</time>
      </trkpt>
      <trkpt lat="45.23471" lon="5.75234">
        <ele>856.40002441406</ele>
        <time>2021-06-26T05:32:16.000Z</time>
      </trkpt>
      <trkpt lat="45.23469" lon="5.75235">
        <ele>856.40002441406</ele>
        <time>2021-06-26T05:32:17.000Z</time>
      </trkpt>
      <trkpt lat="45.23467" lon="5.75236">
        <ele>856.79998779297</ele>
        <time>2021-06-26T05:32:19.000Z</time>
      </trkpt>
      <trkpt lat="45.23464" lon="5.7524">
        <ele>858.20001220703</ele>
        <time>2021-06-26T05:32:23.000Z</time>
      </trkpt>
      <trkpt lat="45.23464" lon="5.75241">
        <ele>858.40002441406</ele>
        <time>2021-06-26T05:32:24.000Z</time>
      </trkpt>
      <trkpt lat="45.23464" lon="5.75245">
        <ele>859</ele>
        <time>2021-06-26T05:32:26.000Z</time>
      </trkpt>
      <trkpt lat="45.23463" lon="5.75246">
        <ele>859.40002441406</ele>
        <time>2021-06-26T05:32:27.000Z</time>
      </trkpt>
      <trkpt lat="45.23462" lon="5.7525">
        <ele>860</ele>
        <time>2021-06-26T05:32:30.000Z</time>
      </trkpt>
      <trkpt lat="45.23462" lon="5.7525">
        <ele>860.79998779297</ele>
        <time>2021-06-26T05:32:31.000Z</time>
      </trkpt>
      <trkpt lat="45.23462" lon="5.75254">
        <ele>861.79998779297</ele>
        <time>2021-06-26T05:32:35.000Z</time>
      </trkpt>
      <trkpt lat="45.23461" lon="5.75256">
        <ele>861.79998779297</ele>
        <time>2021-06-26T05:32:36.000Z</time>
      </trkpt>
      <trkpt lat="45.2346" lon="5.75261">
        <ele>863</ele>
        <time>2021-06-26T05:32:39.000Z</time>
      </trkpt>
      <trkpt lat="45.23458" lon="5.75262">
        <ele>863.40002441406</ele>
        <time>2021-06-26T05:32:41.000Z</time>
      </trkpt>
      <trkpt lat="45.23457" lon="5.75265">
        <ele>864.59997558594</ele>
        <time>2021-06-26T05:32:44.000Z</time>
      </trkpt>
      <trkpt lat="45.23455" lon="5.75266">
        <ele>865</ele>
        <time>2021-06-26T05:32:47.000Z</time>
      </trkpt>
      <trkpt lat="45.23454" lon="5.75267">
        <ele>865.79998779297</ele>
        <time>2021-06-26T05:32:48.000Z</time>
      </trkpt>
      <trkpt lat="45.23453" lon="5.75268">
        <ele>866</ele>
        <time>2021-06-26T05:32:49.000Z</time>
      </trkpt>
      <trkpt lat="45.23451" lon="5.75271">
        <ele>866.40002441406</ele>
        <time>2021-06-26T05:32:51.000Z</time>
      </trkpt>
      <trkpt lat="45.23449" lon="5.75275">
        <ele>866.59997558594</ele>
        <time>2021-06-26T05:32:53.000Z</time>
      </trkpt>
      <trkpt lat="45.23448" lon="5.75278">
        <ele>867.59997558594</ele>
        <time>2021-06-26T05:32:54.000Z</time>
      </trkpt>
      <trkpt lat="45.23446" lon="5.7528">
        <ele>867.59997558594</ele>
        <time>2021-06-26T05:32:55.000Z</time>
      </trkpt>
      <trkpt lat="45.23445" lon="5.75282">
        <ele>867.79998779297</ele>
        <time>2021-06-26T05:32:56.000Z</time>
      </trkpt>
      <trkpt lat="45.23441" lon="5.75288">
        <ele>868.59997558594</ele>
        <time>2021-06-26T05:32:59.000Z</time>
      </trkpt>
      <trkpt lat="45.23439" lon="5.75292">
        <ele>869</ele>
        <time>2021-06-26T05:33:01.000Z</time>
      </trkpt>
      <trkpt lat="45.23438" lon="5.75294">
        <ele>869.59997558594</ele>
        <time>2021-06-26T05:33:03.000Z</time>
      </trkpt>
      <trkpt lat="45.23438" lon="5.75299">
        <ele>870.40002441406</ele>
        <time>2021-06-26T05:33:07.000Z</time>
      </trkpt>
      <trkpt lat="45.23439" lon="5.753">
        <ele>871</ele>
        <time>2021-06-26T05:33:08.000Z</time>
      </trkpt>
      <trkpt lat="45.23441" lon="5.75305">
        <ele>872.40002441406</ele>
        <time>2021-06-26T05:33:12.000Z</time>
      </trkpt>
      <trkpt lat="45.23441" lon="5.75306">
        <ele>872.40002441406</ele>
        <time>2021-06-26T05:33:13.000Z</time>
      </trkpt>
      <trkpt lat="45.23439" lon="5.75308">
        <ele>872.79998779297</ele>
        <time>2021-06-26T05:33:14.000Z</time>
      </trkpt>
      <trkpt lat="45.23437" lon="5.75313">
        <ele>873.20001220703</ele>
        <time>2021-06-26T05:33:17.000Z</time>
      </trkpt>
      <trkpt lat="45.23437" lon="5.75314">
        <ele>873.40002441406</ele>
        <time>2021-06-26T05:33:18.000Z</time>
      </trkpt>
      <trkpt lat="45.23437" lon="5.75318">
        <ele>874.59997558594</ele>
        <time>2021-06-26T05:33:21.000Z</time>
      </trkpt>
      <trkpt lat="45.23434" lon="5.75323">
        <ele>876</ele>
        <time>2021-06-26T05:33:25.000Z</time>
      </trkpt>
      <trkpt lat="45.23433" lon="5.75326">
        <ele>876.59997558594</ele>
        <time>2021-06-26T05:33:27.000Z</time>
      </trkpt>
      <trkpt lat="45.23431" lon="5.75328">
        <ele>877</ele>
        <time>2021-06-26T05:33:29.000Z</time>
      </trkpt>
      <trkpt lat="45.2343" lon="5.75329">
        <ele>877.40002441406</ele>
        <time>2021-06-26T05:33:30.000Z</time>
      </trkpt>
      <trkpt lat="45.23428" lon="5.75333">
        <ele>877.79998779297</ele>
        <time>2021-06-26T05:33:33.000Z</time>
      </trkpt>
      <trkpt lat="45.23427" lon="5.75333">
        <ele>878.79998779297</ele>
        <time>2021-06-26T05:33:34.000Z</time>
      </trkpt>
      <trkpt lat="45.23426" lon="5.75334">
        <ele>879</ele>
        <time>2021-06-26T05:33:35.000Z</time>
      </trkpt>
      <trkpt lat="45.23424" lon="5.75334">
        <ele>879</ele>
        <time>2021-06-26T05:33:36.000Z</time>
      </trkpt>
      <trkpt lat="45.23418" lon="5.75337">
        <ele>879.20001220703</ele>
        <time>2021-06-26T05:33:39.000Z</time>
      </trkpt>
      <trkpt lat="45.23416" lon="5.75338">
        <ele>879.79998779297</ele>
        <time>2021-06-26T05:33:40.000Z</time>
      </trkpt>
      <trkpt lat="45.2341" lon="5.75339">
        <ele>881</ele>
        <time>2021-06-26T05:33:44.000Z</time>
      </trkpt>
      <trkpt lat="45.23408" lon="5.7534">
        <ele>881.59997558594</ele>
        <time>2021-06-26T05:33:46.000Z</time>
      </trkpt>
      <trkpt lat="45.23408" lon="5.75341">
        <ele>881.59997558594</ele>
        <time>2021-06-26T05:33:47.000Z</time>
      </trkpt>
      <trkpt lat="45.23407" lon="5.75343">
        <ele>882</ele>
        <time>2021-06-26T05:33:49.000Z</time>
      </trkpt>
      <trkpt lat="45.23405" lon="5.75344">
        <ele>882.20001220703</ele>
        <time>2021-06-26T05:33:51.000Z</time>
      </trkpt>
      <trkpt lat="45.23404" lon="5.75345">
        <ele>882.59997558594</ele>
        <time>2021-06-26T05:33:53.000Z</time>
      </trkpt>
      <trkpt lat="45.23403" lon="5.75346">
        <ele>883.20001220703</ele>
        <time>2021-06-26T05:33:54.000Z</time>
      </trkpt>
      <trkpt lat="45.23398" lon="5.75349">
        <ele>884.40002441406</ele>
        <time>2021-06-26T05:33:59.000Z</time>
      </trkpt>
      <trkpt lat="45.23389" lon="5.75355">
        <ele>885.59997558594</ele>
        <time>2021-06-26T05:34:04.000Z</time>
      </trkpt>
      <trkpt lat="45.23388" lon="5.75356">
        <ele>885.59997558594</ele>
        <time>2021-06-26T05:34:05.000Z</time>
      </trkpt>
      <trkpt lat="45.23386" lon="5.75357">
        <ele>886.59997558594</ele>
        <time>2021-06-26T05:34:07.000Z</time>
      </trkpt>
      <trkpt lat="45.23383" lon="5.75358">
        <ele>887.20001220703</ele>
        <time>2021-06-26T05:34:10.000Z</time>
      </trkpt>
      <trkpt lat="45.23383" lon="5.75359">
        <ele>887.40002441406</ele>
        <time>2021-06-26T05:34:11.000Z</time>
      </trkpt>
      <trkpt lat="45.23382" lon="5.75359">
        <ele>887.59997558594</ele>
        <time>2021-06-26T05:34:12.000Z</time>
      </trkpt>
      <trkpt lat="45.23375" lon="5.75361">
        <ele>888.59997558594</ele>
        <time>2021-06-26T05:34:16.000Z</time>
      </trkpt>
      <trkpt lat="45.23373" lon="5.75361">
        <ele>889.20001220703</ele>
        <time>2021-06-26T05:34:18.000Z</time>
      </trkpt>
      <trkpt lat="45.2337" lon="5.75364">
        <ele>889.79998779297</ele>
        <time>2021-06-26T05:34:21.000Z</time>
      </trkpt>
      <trkpt lat="45.23369" lon="5.75364">
        <ele>890</ele>
        <time>2021-06-26T05:34:22.000Z</time>
      </trkpt>
      <trkpt lat="45.23368" lon="5.75366">
        <ele>890.20001220703</ele>
        <time>2021-06-26T05:34:24.000Z</time>
      </trkpt>
      <trkpt lat="45.23363" lon="5.75368">
        <ele>891.20001220703</ele>
        <time>2021-06-26T05:34:27.000Z</time>
      </trkpt>
      <trkpt lat="45.23361" lon="5.75368">
        <ele>891.40002441406</ele>
        <time>2021-06-26T05:34:28.000Z</time>
      </trkpt>
      <trkpt lat="45.2336" lon="5.75368">
        <ele>892</ele>
        <time>2021-06-26T05:34:29.000Z</time>
      </trkpt>
      <trkpt lat="45.23359" lon="5.7537">
        <ele>892</ele>
        <time>2021-06-26T05:34:31.000Z</time>
      </trkpt>
      <trkpt lat="45.23359" lon="5.75371">
        <ele>892.40002441406</ele>
        <time>2021-06-26T05:34:32.000Z</time>
      </trkpt>
      <trkpt lat="45.23357" lon="5.75373">
        <ele>893.20001220703</ele>
        <time>2021-06-26T05:34:34.000Z</time>
      </trkpt>
      <trkpt lat="45.23355" lon="5.75375">
        <ele>893.59997558594</ele>
        <time>2021-06-26T05:34:36.000Z</time>
      </trkpt>
      <trkpt lat="45.23351" lon="5.75379">
        <ele>894.59997558594</ele>
        <time>2021-06-26T05:34:39.000Z</time>
      </trkpt>
      <trkpt lat="45.2335" lon="5.7538">
        <ele>894.59997558594</ele>
        <time>2021-06-26T05:34:40.000Z</time>
      </trkpt>
      <trkpt lat="45.23349" lon="5.75381">
        <ele>895.20001220703</ele>
        <time>2021-06-26T05:34:42.000Z</time>
      </trkpt>
      <trkpt lat="45.23348" lon="5.75382">
        <ele>895.59997558594</ele>
        <time>2021-06-26T05:34:43.000Z</time>
      </trkpt>
      <trkpt lat="45.23348" lon="5.75383">
        <ele>895.79998779297</ele>
        <time>2021-06-26T05:34:44.000Z</time>
      </trkpt>
      <trkpt lat="45.23347" lon="5.75383">
        <ele>895.79998779297</ele>
        <time>2021-06-26T05:34:45.000Z</time>
      </trkpt>
      <trkpt lat="45.23346" lon="5.75384">
        <ele>896.40002441406</ele>
        <time>2021-06-26T05:34:46.000Z</time>
      </trkpt>
      <trkpt lat="45.23343" lon="5.75385">
        <ele>896.79998779297</ele>
        <time>2021-06-26T05:34:48.000Z</time>
      </trkpt>
      <trkpt lat="45.23339" lon="5.75389">
        <ele>897.40002441406</ele>
        <time>2021-06-26T05:34:51.000Z</time>
      </trkpt>
      <trkpt lat="45.23338" lon="5.75391">
        <ele>897.40002441406</ele>
        <time>2021-06-26T05:34:52.000Z</time>
      </trkpt>
      <trkpt lat="45.23337" lon="5.75392">
        <ele>897.79998779297</ele>
        <time>2021-06-26T05:34:53.000Z</time>
      </trkpt>
      <trkpt lat="45.23337" lon="5.75393">
        <ele>898.40002441406</ele>
        <time>2021-06-26T05:34:54.000Z</time>
      </trkpt>
      <trkpt lat="45.23336" lon="5.75394">
        <ele>898.59997558594</ele>
        <time>2021-06-26T05:34:55.000Z</time>
      </trkpt>
      <trkpt lat="45.23334" lon="5.75397">
        <ele>899</ele>
        <time>2021-06-26T05:34:57.000Z</time>
      </trkpt>
      <trkpt lat="45.23333" lon="5.75398">
        <ele>899.40002441406</ele>
        <time>2021-06-26T05:34:58.000Z</time>
      </trkpt>
      <trkpt lat="45.23331" lon="5.75399">
        <ele>899.40002441406</ele>
        <time>2021-06-26T05:34:59.000Z</time>
      </trkpt>
      <trkpt lat="45.23328" lon="5.75404">
        <ele>900.59997558594</ele>
        <time>2021-06-26T05:35:02.000Z</time>
      </trkpt>
      <trkpt lat="45.23328" lon="5.75404">
        <ele>900.79998779297</ele>
        <time>2021-06-26T05:35:04.000Z</time>
      </trkpt>
      <trkpt lat="45.23326" lon="5.75408">
        <ele>901.59997558594</ele>
        <time>2021-06-26T05:35:07.000Z</time>
      </trkpt>
      <trkpt lat="45.23324" lon="5.75412">
        <ele>902.59997558594</ele>
        <time>2021-06-26T05:35:10.000Z</time>
      </trkpt>
      <trkpt lat="45.23323" lon="5.75412">
        <ele>903</ele>
        <time>2021-06-26T05:35:11.000Z</time>
      </trkpt>
      <trkpt lat="45.23316" lon="5.75421">
        <ele>904</ele>
        <time>2021-06-26T05:35:17.000Z</time>
      </trkpt>
      <trkpt lat="45.23313" lon="5.75429">
        <ele>905.20001220703</ele>
        <time>2021-06-26T05:35:21.000Z</time>
      </trkpt>
      <trkpt lat="45.23312" lon="5.7543">
        <ele>905.79998779297</ele>
        <time>2021-06-26T05:35:23.000Z</time>
      </trkpt>
      <trkpt lat="45.2331" lon="5.75435">
        <ele>906.20001220703</ele>
        <time>2021-06-26T05:35:25.000Z</time>
      </trkpt>
      <trkpt lat="45.23308" lon="5.75438">
        <ele>907.20001220703</ele>
        <time>2021-06-26T05:35:28.000Z</time>
      </trkpt>
      <trkpt lat="45.23307" lon="5.75441">
        <ele>907.59997558594</ele>
        <time>2021-06-26T05:35:30.000Z</time>
      </trkpt>
      <trkpt lat="45.23305" lon="5.75444">
        <ele>908.59997558594</ele>
        <time>2021-06-26T05:35:33.000Z</time>
      </trkpt>
      <trkpt lat="45.23302" lon="5.75449">
        <ele>909.20001220703</ele>
        <time>2021-06-26T05:35:37.000Z</time>
      </trkpt>
      <trkpt lat="45.233" lon="5.75451">
        <ele>909.79998779297</ele>
        <time>2021-06-26T05:35:39.000Z</time>
      </trkpt>
      <trkpt lat="45.23299" lon="5.75452">
        <ele>910.79998779297</ele>
        <time>2021-06-26T05:35:41.000Z</time>
      </trkpt>
      <trkpt lat="45.23298" lon="5.75455">
        <ele>911</ele>
        <time>2021-06-26T05:35:43.000Z</time>
      </trkpt>
      <trkpt lat="45.23298" lon="5.75458">
        <ele>911.59997558594</ele>
        <time>2021-06-26T05:35:45.000Z</time>
      </trkpt>
      <trkpt lat="45.23298" lon="5.7546">
        <ele>912.20001220703</ele>
        <time>2021-06-26T05:35:47.000Z</time>
      </trkpt>
      <trkpt lat="45.23296" lon="5.75464">
        <ele>913</ele>
        <time>2021-06-26T05:35:50.000Z</time>
      </trkpt>
      <trkpt lat="45.23296" lon="5.75466">
        <ele>913.20001220703</ele>
        <time>2021-06-26T05:35:51.000Z</time>
      </trkpt>
      <trkpt lat="45.23292" lon="5.75472">
        <ele>914</ele>
        <time>2021-06-26T05:35:55.000Z</time>
      </trkpt>
      <trkpt lat="45.23291" lon="5.75474">
        <ele>914.40002441406</ele>
        <time>2021-06-26T05:35:56.000Z</time>
      </trkpt>
      <trkpt lat="45.23291" lon="5.75475">
        <ele>914.59997558594</ele>
        <time>2021-06-26T05:35:57.000Z</time>
      </trkpt>
      <trkpt lat="45.23289" lon="5.75478">
        <ele>915</ele>
        <time>2021-06-26T05:35:59.000Z</time>
      </trkpt>
      <trkpt lat="45.23287" lon="5.7548">
        <ele>915.59997558594</ele>
        <time>2021-06-26T05:36:00.000Z</time>
      </trkpt>
      <trkpt lat="45.2328" lon="5.75487">
        <ele>916.20001220703</ele>
        <time>2021-06-26T05:36:04.000Z</time>
      </trkpt>
      <trkpt lat="45.2328" lon="5.75488">
        <ele>916.20001220703</ele>
        <time>2021-06-26T05:36:05.000Z</time>
      </trkpt>
      <trkpt lat="45.2328" lon="5.75489">
        <ele>916.79998779297</ele>
        <time>2021-06-26T05:36:06.000Z</time>
      </trkpt>
      <trkpt lat="45.23279" lon="5.7549">
        <ele>917.40002441406</ele>
        <time>2021-06-26T05:36:07.000Z</time>
      </trkpt>
      <trkpt lat="45.2328" lon="5.75491">
        <ele>917.59997558594</ele>
        <time>2021-06-26T05:36:08.000Z</time>
      </trkpt>
      <trkpt lat="45.23281" lon="5.75491">
        <ele>917.79998779297</ele>
        <time>2021-06-26T05:36:10.000Z</time>
      </trkpt>
      <trkpt lat="45.23281" lon="5.75487">
        <ele>919.20001220703</ele>
        <time>2021-06-26T05:36:14.000Z</time>
      </trkpt>
      <trkpt lat="45.23282" lon="5.75486">
        <ele>919.40002441406</ele>
        <time>2021-06-26T05:36:15.000Z</time>
      </trkpt>
      <trkpt lat="45.23282" lon="5.75486">
        <ele>919.40002441406</ele>
        <time>2021-06-26T05:36:16.000Z</time>
      </trkpt>
      <trkpt lat="45.23283" lon="5.75486">
        <ele>919.79998779297</ele>
        <time>2021-06-26T05:36:17.000Z</time>
      </trkpt>
      <trkpt lat="45.23285" lon="5.75485">
        <ele>920.59997558594</ele>
        <time>2021-06-26T05:36:19.000Z</time>
      </trkpt>
      <trkpt lat="45.23286" lon="5.75485">
        <ele>921</ele>
        <time>2021-06-26T05:36:21.000Z</time>
      </trkpt>
      <trkpt lat="45.2329" lon="5.75482">
        <ele>921.79998779297</ele>
        <time>2021-06-26T05:36:25.000Z</time>
      </trkpt>
      <trkpt lat="45.23292" lon="5.75479">
        <ele>922.59997558594</ele>
        <time>2021-06-26T05:36:27.000Z</time>
      </trkpt>
      <trkpt lat="45.23293" lon="5.75479">
        <ele>923</ele>
        <time>2021-06-26T05:36:30.000Z</time>
      </trkpt>
      <trkpt lat="45.23293" lon="5.75479">
        <ele>923.20001220703</ele>
        <time>2021-06-26T05:36:31.000Z</time>
      </trkpt>
      <trkpt lat="45.23295" lon="5.75478">
        <ele>924.59997558594</ele>
        <time>2021-06-26T05:36:33.000Z</time>
      </trkpt>
      <trkpt lat="45.23299" lon="5.75474">
        <ele>925.20001220703</ele>
        <time>2021-06-26T05:36:38.000Z</time>
      </trkpt>
      <trkpt lat="45.233" lon="5.75473">
        <ele>925.59997558594</ele>
        <time>2021-06-26T05:36:39.000Z</time>
      </trkpt>
      <trkpt lat="45.23301" lon="5.75473">
        <ele>925.59997558594</ele>
        <time>2021-06-26T05:36:40.000Z</time>
      </trkpt>
      <trkpt lat="45.23302" lon="5.75472">
        <ele>925.79998779297</ele>
        <time>2021-06-26T05:36:41.000Z</time>
      </trkpt>
      <trkpt lat="45.23304" lon="5.75471">
        <ele>926.79998779297</ele>
        <time>2021-06-26T05:36:44.000Z</time>
      </trkpt>
      <trkpt lat="45.23306" lon="5.75471">
        <ele>927</ele>
        <time>2021-06-26T05:36:46.000Z</time>
      </trkpt>
      <trkpt lat="45.23307" lon="5.7547">
        <ele>927.20001220703</ele>
        <time>2021-06-26T05:36:47.000Z</time>
      </trkpt>
      <trkpt lat="45.23309" lon="5.75467">
        <ele>928.20001220703</ele>
        <time>2021-06-26T05:36:50.000Z</time>
      </trkpt>
      <trkpt lat="45.23312" lon="5.75464">
        <ele>928.40002441406</ele>
        <time>2021-06-26T05:36:52.000Z</time>
      </trkpt>
      <trkpt lat="45.23314" lon="5.75463">
        <ele>928.79998779297</ele>
        <time>2021-06-26T05:36:53.000Z</time>
      </trkpt>
      <trkpt lat="45.23314" lon="5.75463">
        <ele>929.59997558594</ele>
        <time>2021-06-26T05:36:54.000Z</time>
      </trkpt>
      <trkpt lat="45.23321" lon="5.75462">
        <ele>930.59997558594</ele>
        <time>2021-06-26T05:37:00.000Z</time>
      </trkpt>
      <trkpt lat="45.23322" lon="5.75462">
        <ele>931.40002441406</ele>
        <time>2021-06-26T05:37:01.000Z</time>
      </trkpt>
      <trkpt lat="45.23323" lon="5.75461">
        <ele>931.79998779297</ele>
        <time>2021-06-26T05:37:02.000Z</time>
      </trkpt>
      <trkpt lat="45.23324" lon="5.7546">
        <ele>932</ele>
        <time>2021-06-26T05:37:05.000Z</time>
      </trkpt>
      <trkpt lat="45.23325" lon="5.75459">
        <ele>932.59997558594</ele>
        <time>2021-06-26T05:37:06.000Z</time>
      </trkpt>
      <trkpt lat="45.23326" lon="5.7546">
        <ele>932.59997558594</ele>
        <time>2021-06-26T05:37:07.000Z</time>
      </trkpt>
      <trkpt lat="45.23328" lon="5.75459">
        <ele>932.79998779297</ele>
        <time>2021-06-26T05:37:08.000Z</time>
      </trkpt>
      <trkpt lat="45.23329" lon="5.75459">
        <ele>933.20001220703</ele>
        <time>2021-06-26T05:37:09.000Z</time>
      </trkpt>
      <trkpt lat="45.23332" lon="5.75458">
        <ele>933.59997558594</ele>
        <time>2021-06-26T05:37:11.000Z</time>
      </trkpt>
      <trkpt lat="45.23334" lon="5.75458">
        <ele>934</ele>
        <time>2021-06-26T05:37:13.000Z</time>
      </trkpt>
      <trkpt lat="45.23335" lon="5.75457">
        <ele>934.20001220703</ele>
        <time>2021-06-26T05:37:14.000Z</time>
      </trkpt>
      <trkpt lat="45.23337" lon="5.75456">
        <ele>934.59997558594</ele>
        <time>2021-06-26T05:37:16.000Z</time>
      </trkpt>
      <trkpt lat="45.23339" lon="5.75455">
        <ele>935.20001220703</ele>
        <time>2021-06-26T05:37:17.000Z</time>
      </trkpt>
      <trkpt lat="45.2334" lon="5.75455">
        <ele>935.40002441406</ele>
        <time>2021-06-26T05:37:18.000Z</time>
      </trkpt>
      <trkpt lat="45.23345" lon="5.75455">
        <ele>936.40002441406</ele>
        <time>2021-06-26T05:37:22.000Z</time>
      </trkpt>
      <trkpt lat="45.23347" lon="5.75452">
        <ele>936.59997558594</ele>
        <time>2021-06-26T05:37:24.000Z</time>
      </trkpt>
      <trkpt lat="45.23351" lon="5.7545">
        <ele>937.59997558594</ele>
        <time>2021-06-26T05:37:27.000Z</time>
      </trkpt>
      <trkpt lat="45.23353" lon="5.75451">
        <ele>938.20001220703</ele>
        <time>2021-06-26T05:37:29.000Z</time>
      </trkpt>
      <trkpt lat="45.23356" lon="5.75451">
        <ele>938.59997558594</ele>
        <time>2021-06-26T05:37:31.000Z</time>
      </trkpt>
      <trkpt lat="45.23358" lon="5.75451">
        <ele>938.79998779297</ele>
        <time>2021-06-26T05:37:32.000Z</time>
      </trkpt>
      <trkpt lat="45.23362" lon="5.75448">
        <ele>939.59997558594</ele>
        <time>2021-06-26T05:37:35.000Z</time>
      </trkpt>
      <trkpt lat="45.23363" lon="5.75448">
        <ele>939.79998779297</ele>
        <time>2021-06-26T05:37:36.000Z</time>
      </trkpt>
      <trkpt lat="45.23366" lon="5.75448">
        <ele>941</ele>
        <time>2021-06-26T05:37:39.000Z</time>
      </trkpt>
      <trkpt lat="45.23368" lon="5.75448">
        <ele>941.79998779297</ele>
        <time>2021-06-26T05:37:41.000Z</time>
      </trkpt>
      <trkpt lat="45.23371" lon="5.7545">
        <ele>941.79998779297</ele>
        <time>2021-06-26T05:37:43.000Z</time>
      </trkpt>
      <trkpt lat="45.23372" lon="5.7545">
        <ele>942.40002441406</ele>
        <time>2021-06-26T05:37:44.000Z</time>
      </trkpt>
      <trkpt lat="45.23376" lon="5.75452">
        <ele>942.59997558594</ele>
        <time>2021-06-26T05:37:47.000Z</time>
      </trkpt>
      <trkpt lat="45.23377" lon="5.75452">
        <ele>943.79998779297</ele>
        <time>2021-06-26T05:37:48.000Z</time>
      </trkpt>
      <trkpt lat="45.23383" lon="5.7545">
        <ele>945.40002441406</ele>
        <time>2021-06-26T05:37:54.000Z</time>
      </trkpt>
      <trkpt lat="45.23391" lon="5.75453">
        <ele>946.20001220703</ele>
        <time>2021-06-26T05:38:00.000Z</time>
      </trkpt>
      <trkpt lat="45.23393" lon="5.75454">
        <ele>946.40002441406</ele>
        <time>2021-06-26T05:38:01.000Z</time>
      </trkpt>
      <trkpt lat="45.23396" lon="5.75455">
        <ele>947.79998779297</ele>
        <time>2021-06-26T05:38:03.000Z</time>
      </trkpt>
      <trkpt lat="45.23399" lon="5.75454">
        <ele>948</ele>
        <time>2021-06-26T05:38:05.000Z</time>
      </trkpt>
      <trkpt lat="45.23401" lon="5.75455">
        <ele>948.40002441406</ele>
        <time>2021-06-26T05:38:07.000Z</time>
      </trkpt>
      <trkpt lat="45.23403" lon="5.75454">
        <ele>948.59997558594</ele>
        <time>2021-06-26T05:38:08.000Z</time>
      </trkpt>
      <trkpt lat="45.23405" lon="5.75455">
        <ele>949</ele>
        <time>2021-06-26T05:38:10.000Z</time>
      </trkpt>
      <trkpt lat="45.23406" lon="5.75455">
        <ele>949.20001220703</ele>
        <time>2021-06-26T05:38:11.000Z</time>
      </trkpt>
      <trkpt lat="45.2341" lon="5.75453">
        <ele>950.20001220703</ele>
        <time>2021-06-26T05:38:15.000Z</time>
      </trkpt>
      <trkpt lat="45.23411" lon="5.75453">
        <ele>950.40002441406</ele>
        <time>2021-06-26T05:38:16.000Z</time>
      </trkpt>
      <trkpt lat="45.23414" lon="5.75451">
        <ele>950.79998779297</ele>
        <time>2021-06-26T05:38:18.000Z</time>
      </trkpt>
      <trkpt lat="45.23415" lon="5.75452">
        <ele>951.20001220703</ele>
        <time>2021-06-26T05:38:19.000Z</time>
      </trkpt>
      <trkpt lat="45.23419" lon="5.75453">
        <ele>952.20001220703</ele>
        <time>2021-06-26T05:38:22.000Z</time>
      </trkpt>
      <trkpt lat="45.23421" lon="5.75453">
        <ele>952.40002441406</ele>
        <time>2021-06-26T05:38:24.000Z</time>
      </trkpt>
      <trkpt lat="45.23424" lon="5.75453">
        <ele>953.40002441406</ele>
        <time>2021-06-26T05:38:26.000Z</time>
      </trkpt>
      <trkpt lat="45.23426" lon="5.75453">
        <ele>953.79998779297</ele>
        <time>2021-06-26T05:38:28.000Z</time>
      </trkpt>
      <trkpt lat="45.23427" lon="5.75452">
        <ele>954</ele>
        <time>2021-06-26T05:38:29.000Z</time>
      </trkpt>
      <trkpt lat="45.23429" lon="5.75451">
        <ele>954.59997558594</ele>
        <time>2021-06-26T05:38:31.000Z</time>
      </trkpt>
      <trkpt lat="45.23431" lon="5.75451">
        <ele>955.59997558594</ele>
        <time>2021-06-26T05:38:34.000Z</time>
      </trkpt>
      <trkpt lat="45.23437" lon="5.75454">
        <ele>957</ele>
        <time>2021-06-26T05:38:39.000Z</time>
      </trkpt>
      <trkpt lat="45.23439" lon="5.75454">
        <ele>957.20001220703</ele>
        <time>2021-06-26T05:38:40.000Z</time>
      </trkpt>
      <trkpt lat="45.2344" lon="5.75456">
        <ele>957.40002441406</ele>
        <time>2021-06-26T05:38:41.000Z</time>
      </trkpt>
      <trkpt lat="45.23444" lon="5.75459">
        <ele>958</ele>
        <time>2021-06-26T05:38:45.000Z</time>
      </trkpt>
      <trkpt lat="45.23445" lon="5.75459">
        <ele>958.20001220703</ele>
        <time>2021-06-26T05:38:46.000Z</time>
      </trkpt>
      <trkpt lat="45.23447" lon="5.75461">
        <ele>958.40002441406</ele>
        <time>2021-06-26T05:38:47.000Z</time>
      </trkpt>
      <trkpt lat="45.23448" lon="5.75464">
        <ele>959</ele>
        <time>2021-06-26T05:38:48.000Z</time>
      </trkpt>
      <trkpt lat="45.2345" lon="5.75465">
        <ele>959.59997558594</ele>
        <time>2021-06-26T05:38:49.000Z</time>
      </trkpt>
      <trkpt lat="45.23452" lon="5.75463">
        <ele>960.20001220703</ele>
        <time>2021-06-26T05:38:51.000Z</time>
      </trkpt>
      <trkpt lat="45.23453" lon="5.75461">
        <ele>960.79998779297</ele>
        <time>2021-06-26T05:38:54.000Z</time>
      </trkpt>
      <trkpt lat="45.23453" lon="5.7546">
        <ele>961.20001220703</ele>
        <time>2021-06-26T05:38:55.000Z</time>
      </trkpt>
      <trkpt lat="45.23454" lon="5.75459">
        <ele>961.40002441406</ele>
        <time>2021-06-26T05:38:56.000Z</time>
      </trkpt>
      <trkpt lat="45.23458" lon="5.75458">
        <ele>961.59997558594</ele>
        <time>2021-06-26T05:38:59.000Z</time>
      </trkpt>
      <trkpt lat="45.23461" lon="5.7546">
        <ele>962</ele>
        <time>2021-06-26T05:39:01.000Z</time>
      </trkpt>
      <trkpt lat="45.23462" lon="5.75461">
        <ele>962.40002441406</ele>
        <time>2021-06-26T05:39:02.000Z</time>
      </trkpt>
      <trkpt lat="45.23465" lon="5.7546">
        <ele>963.40002441406</ele>
        <time>2021-06-26T05:39:06.000Z</time>
      </trkpt>
      <trkpt lat="45.23466" lon="5.7546">
        <ele>963.59997558594</ele>
        <time>2021-06-26T05:39:07.000Z</time>
      </trkpt>
      <trkpt lat="45.23469" lon="5.75461">
        <ele>963.79998779297</ele>
        <time>2021-06-26T05:39:09.000Z</time>
      </trkpt>
      <trkpt lat="45.23472" lon="5.75462">
        <ele>964.59997558594</ele>
        <time>2021-06-26T05:39:10.000Z</time>
      </trkpt>
      <trkpt lat="45.23474" lon="5.75462">
        <ele>965.20001220703</ele>
        <time>2021-06-26T05:39:12.000Z</time>
      </trkpt>
      <trkpt lat="45.23478" lon="5.75461">
        <ele>965.79998779297</ele>
        <time>2021-06-26T05:39:15.000Z</time>
      </trkpt>
      <trkpt lat="45.23479" lon="5.75461">
        <ele>965.79998779297</ele>
        <time>2021-06-26T05:39:16.000Z</time>
      </trkpt>
      <trkpt lat="45.2348" lon="5.75462">
        <ele>966.20001220703</ele>
        <time>2021-06-26T05:39:17.000Z</time>
      </trkpt>
      <trkpt lat="45.23482" lon="5.75462">
        <ele>967.40002441406</ele>
        <time>2021-06-26T05:39:19.000Z</time>
      </trkpt>
      <trkpt lat="45.23483" lon="5.75463">
        <ele>967.59997558594</ele>
        <time>2021-06-26T05:39:20.000Z</time>
      </trkpt>
      <trkpt lat="45.23485" lon="5.75468">
        <ele>968</ele>
        <time>2021-06-26T05:39:23.000Z</time>
      </trkpt>
      <trkpt lat="45.23485" lon="5.7547">
        <ele>968.40002441406</ele>
        <time>2021-06-26T05:39:25.000Z</time>
      </trkpt>
      <trkpt lat="45.23484" lon="5.7547">
        <ele>969</ele>
        <time>2021-06-26T05:39:26.000Z</time>
      </trkpt>
      <trkpt lat="45.23483" lon="5.75471">
        <ele>969.79998779297</ele>
        <time>2021-06-26T05:39:28.000Z</time>
      </trkpt>
      <trkpt lat="45.23483" lon="5.75471">
        <ele>970.20001220703</ele>
        <time>2021-06-26T05:39:29.000Z</time>
      </trkpt>
      <trkpt lat="45.23482" lon="5.75472">
        <ele>970.59997558594</ele>
        <time>2021-06-26T05:39:31.000Z</time>
      </trkpt>
      <trkpt lat="45.23481" lon="5.75472">
        <ele>970.59997558594</ele>
        <time>2021-06-26T05:39:33.000Z</time>
      </trkpt>
      <trkpt lat="45.2348" lon="5.75472">
        <ele>970.59997558594</ele>
        <time>2021-06-26T05:39:34.000Z</time>
      </trkpt>
      <trkpt lat="45.2348" lon="5.75473">
        <ele>971.20001220703</ele>
        <time>2021-06-26T05:39:36.000Z</time>
      </trkpt>
      <trkpt lat="45.23478" lon="5.75475">
        <ele>972</ele>
        <time>2021-06-26T05:39:38.000Z</time>
      </trkpt>
      <trkpt lat="45.23478" lon="5.75476">
        <ele>972.40002441406</ele>
        <time>2021-06-26T05:39:39.000Z</time>
      </trkpt>
      <trkpt lat="45.23475" lon="5.75483">
        <ele>973.20001220703</ele>
        <time>2021-06-26T05:39:43.000Z</time>
      </trkpt>
      <trkpt lat="45.23475" lon="5.75485">
        <ele>974</ele>
        <time>2021-06-26T05:39:44.000Z</time>
      </trkpt>
      <trkpt lat="45.23475" lon="5.75487">
        <ele>975</ele>
        <time>2021-06-26T05:39:46.000Z</time>
      </trkpt>
      <trkpt lat="45.23474" lon="5.75487">
        <ele>975.20001220703</ele>
        <time>2021-06-26T05:39:47.000Z</time>
      </trkpt>
      <trkpt lat="45.23468" lon="5.7549">
        <ele>976</ele>
        <time>2021-06-26T05:39:51.000Z</time>
      </trkpt>
      <trkpt lat="45.23466" lon="5.7549">
        <ele>976.40002441406</ele>
        <time>2021-06-26T05:39:52.000Z</time>
      </trkpt>
      <trkpt lat="45.23462" lon="5.75491">
        <ele>977</ele>
        <time>2021-06-26T05:39:56.000Z</time>
      </trkpt>
      <trkpt lat="45.23461" lon="5.75491">
        <ele>977.20001220703</ele>
        <time>2021-06-26T05:39:57.000Z</time>
      </trkpt>
      <trkpt lat="45.23461" lon="5.75491">
        <ele>977.40002441406</ele>
        <time>2021-06-26T05:39:58.000Z</time>
      </trkpt>
      <trkpt lat="45.2346" lon="5.75491">
        <ele>977.79998779297</ele>
        <time>2021-06-26T05:39:59.000Z</time>
      </trkpt>
      <trkpt lat="45.23459" lon="5.75491">
        <ele>977.79998779297</ele>
        <time>2021-06-26T05:40:00.000Z</time>
      </trkpt>
      <trkpt lat="45.23456" lon="5.75494">
        <ele>978.79998779297</ele>
        <time>2021-06-26T05:40:02.000Z</time>
      </trkpt>
      <trkpt lat="45.23453" lon="5.75499">
        <ele>979.20001220703</ele>
        <time>2021-06-26T05:40:05.000Z</time>
      </trkpt>
      <trkpt lat="45.23452" lon="5.75501">
        <ele>979.59997558594</ele>
        <time>2021-06-26T05:40:07.000Z</time>
      </trkpt>
      <trkpt lat="45.23448" lon="5.75501">
        <ele>980.40002441406</ele>
        <time>2021-06-26T05:40:09.000Z</time>
      </trkpt>
      <trkpt lat="45.23443" lon="5.75505">
        <ele>981.40002441406</ele>
        <time>2021-06-26T05:40:14.000Z</time>
      </trkpt>
      <trkpt lat="45.23439" lon="5.75506">
        <ele>982.20001220703</ele>
        <time>2021-06-26T05:40:18.000Z</time>
      </trkpt>
      <trkpt lat="45.23439" lon="5.75506">
        <ele>982.59997558594</ele>
        <time>2021-06-26T05:40:19.000Z</time>
      </trkpt>
      <trkpt lat="45.23435" lon="5.75507">
        <ele>983</ele>
        <time>2021-06-26T05:40:22.000Z</time>
      </trkpt>
      <trkpt lat="45.23434" lon="5.75509">
        <ele>983.20001220703</ele>
        <time>2021-06-26T05:40:23.000Z</time>
      </trkpt>
      <trkpt lat="45.23433" lon="5.7551">
        <ele>983.59997558594</ele>
        <time>2021-06-26T05:40:24.000Z</time>
      </trkpt>
      <trkpt lat="45.2343" lon="5.75511">
        <ele>983.79998779297</ele>
        <time>2021-06-26T05:40:25.000Z</time>
      </trkpt>
      <trkpt lat="45.23428" lon="5.75512">
        <ele>984.40002441406</ele>
        <time>2021-06-26T05:40:28.000Z</time>
      </trkpt>
      <trkpt lat="45.23427" lon="5.75513">
        <ele>984.79998779297</ele>
        <time>2021-06-26T05:40:30.000Z</time>
      </trkpt>
      <trkpt lat="45.23423" lon="5.75517">
        <ele>986</ele>
        <time>2021-06-26T05:40:33.000Z</time>
      </trkpt>
      <trkpt lat="45.23422" lon="5.75517">
        <ele>986</ele>
        <time>2021-06-26T05:40:34.000Z</time>
      </trkpt>
      <trkpt lat="45.2342" lon="5.75517">
        <ele>986.40002441406</ele>
        <time>2021-06-26T05:40:35.000Z</time>
      </trkpt>
      <trkpt lat="45.23416" lon="5.75519">
        <ele>986.79998779297</ele>
        <time>2021-06-26T05:40:38.000Z</time>
      </trkpt>
      <trkpt lat="45.23415" lon="5.75521">
        <ele>987.20001220703</ele>
        <time>2021-06-26T05:40:39.000Z</time>
      </trkpt>
      <trkpt lat="45.23415" lon="5.75523">
        <ele>987.20001220703</ele>
        <time>2021-06-26T05:40:40.000Z</time>
      </trkpt>
      <trkpt lat="45.23413" lon="5.75525">
        <ele>988</ele>
        <time>2021-06-26T05:40:42.000Z</time>
      </trkpt>
      <trkpt lat="45.23412" lon="5.75527">
        <ele>988.40002441406</ele>
        <time>2021-06-26T05:40:44.000Z</time>
      </trkpt>
      <trkpt lat="45.2341" lon="5.75529">
        <ele>988.59997558594</ele>
        <time>2021-06-26T05:40:46.000Z</time>
      </trkpt>
      <trkpt lat="45.23409" lon="5.75531">
        <ele>989.59997558594</ele>
        <time>2021-06-26T05:40:48.000Z</time>
      </trkpt>
      <trkpt lat="45.23408" lon="5.75532">
        <ele>989.79998779297</ele>
        <time>2021-06-26T05:40:49.000Z</time>
      </trkpt>
      <trkpt lat="45.23406" lon="5.75533">
        <ele>990.20001220703</ele>
        <time>2021-06-26T05:40:51.000Z</time>
      </trkpt>
      <trkpt lat="45.23405" lon="5.75536">
        <ele>990.59997558594</ele>
        <time>2021-06-26T05:40:53.000Z</time>
      </trkpt>
      <trkpt lat="45.23402" lon="5.75538">
        <ele>990.79998779297</ele>
        <time>2021-06-26T05:40:55.000Z</time>
      </trkpt>
      <trkpt lat="45.234" lon="5.75543">
        <ele>991.79998779297</ele>
        <time>2021-06-26T05:40:58.000Z</time>
      </trkpt>
      <trkpt lat="45.23399" lon="5.75544">
        <ele>992</ele>
        <time>2021-06-26T05:40:59.000Z</time>
      </trkpt>
      <trkpt lat="45.23399" lon="5.75545">
        <ele>992.59997558594</ele>
        <time>2021-06-26T05:41:00.000Z</time>
      </trkpt>
      <trkpt lat="45.23397" lon="5.75548">
        <ele>993</ele>
        <time>2021-06-26T05:41:02.000Z</time>
      </trkpt>
      <trkpt lat="45.23393" lon="5.7555">
        <ele>994</ele>
        <time>2021-06-26T05:41:05.000Z</time>
      </trkpt>
      <trkpt lat="45.2339" lon="5.75551">
        <ele>994.20001220703</ele>
        <time>2021-06-26T05:41:07.000Z</time>
      </trkpt>
      <trkpt lat="45.23388" lon="5.75554">
        <ele>994.79998779297</ele>
        <time>2021-06-26T05:41:09.000Z</time>
      </trkpt>
      <trkpt lat="45.23385" lon="5.75558">
        <ele>995.40002441406</ele>
        <time>2021-06-26T05:41:12.000Z</time>
      </trkpt>
      <trkpt lat="45.23384" lon="5.75558">
        <ele>995.59997558594</ele>
        <time>2021-06-26T05:41:13.000Z</time>
      </trkpt>
      <trkpt lat="45.23383" lon="5.7556">
        <ele>996.20001220703</ele>
        <time>2021-06-26T05:41:15.000Z</time>
      </trkpt>
      <trkpt lat="45.23382" lon="5.75561">
        <ele>997</ele>
        <time>2021-06-26T05:41:16.000Z</time>
      </trkpt>
      <trkpt lat="45.2338" lon="5.75563">
        <ele>997</ele>
        <time>2021-06-26T05:41:18.000Z</time>
      </trkpt>
      <trkpt lat="45.23378" lon="5.75565">
        <ele>997.40002441406</ele>
        <time>2021-06-26T05:41:20.000Z</time>
      </trkpt>
      <trkpt lat="45.23377" lon="5.75566">
        <ele>998</ele>
        <time>2021-06-26T05:41:21.000Z</time>
      </trkpt>
      <trkpt lat="45.23373" lon="5.75571">
        <ele>999.20001220703</ele>
        <time>2021-06-26T05:41:25.000Z</time>
      </trkpt>
      <trkpt lat="45.23371" lon="5.75573">
        <ele>999.40002441406</ele>
        <time>2021-06-26T05:41:27.000Z</time>
      </trkpt>
      <trkpt lat="45.23369" lon="5.75575">
        <ele>1000.5999755859</ele>
        <time>2021-06-26T05:41:29.000Z</time>
      </trkpt>
      <trkpt lat="45.23368" lon="5.75577">
        <ele>1000.799987793</ele>
        <time>2021-06-26T05:41:31.000Z</time>
      </trkpt>
      <trkpt lat="45.23366" lon="5.75579">
        <ele>1001.4000244141</ele>
        <time>2021-06-26T05:41:33.000Z</time>
      </trkpt>
      <trkpt lat="45.23364" lon="5.75581">
        <ele>1001.799987793</ele>
        <time>2021-06-26T05:41:35.000Z</time>
      </trkpt>
      <trkpt lat="45.2336" lon="5.75584">
        <ele>1003</ele>
        <time>2021-06-26T05:41:39.000Z</time>
      </trkpt>
      <trkpt lat="45.23359" lon="5.75585">
        <ele>1003.200012207</ele>
        <time>2021-06-26T05:41:40.000Z</time>
      </trkpt>
      <trkpt lat="45.23355" lon="5.75588">
        <ele>1004.200012207</ele>
        <time>2021-06-26T05:41:43.000Z</time>
      </trkpt>
      <trkpt lat="45.23351" lon="5.7559">
        <ele>1004.799987793</ele>
        <time>2021-06-26T05:41:45.000Z</time>
      </trkpt>
      <trkpt lat="45.2335" lon="5.75591">
        <ele>1005.200012207</ele>
        <time>2021-06-26T05:41:46.000Z</time>
      </trkpt>
      <trkpt lat="45.23348" lon="5.75593">
        <ele>1005.4000244141</ele>
        <time>2021-06-26T05:41:47.000Z</time>
      </trkpt>
      <trkpt lat="45.23347" lon="5.75596">
        <ele>1005.5999755859</ele>
        <time>2021-06-26T05:41:49.000Z</time>
      </trkpt>
      <trkpt lat="45.23347" lon="5.75597">
        <ele>1006.200012207</ele>
        <time>2021-06-26T05:41:51.000Z</time>
      </trkpt>
      <trkpt lat="45.23348" lon="5.75596">
        <ele>1006.4000244141</ele>
        <time>2021-06-26T05:41:52.000Z</time>
      </trkpt>
      <trkpt lat="45.23349" lon="5.75593">
        <ele>1007.5999755859</ele>
        <time>2021-06-26T05:41:56.000Z</time>
      </trkpt>
      <trkpt lat="45.2335" lon="5.75592">
        <ele>1008</ele>
        <time>2021-06-26T05:41:57.000Z</time>
      </trkpt>
      <trkpt lat="45.23351" lon="5.7559">
        <ele>1008.5999755859</ele>
        <time>2021-06-26T05:42:00.000Z</time>
      </trkpt>
      <trkpt lat="45.23354" lon="5.75587">
        <ele>1009.799987793</ele>
        <time>2021-06-26T05:42:03.000Z</time>
      </trkpt>
      <trkpt lat="45.23356" lon="5.75586">
        <ele>1010</ele>
        <time>2021-06-26T05:42:05.000Z</time>
      </trkpt>
      <trkpt lat="45.2336" lon="5.75581">
        <ele>1011.4000244141</ele>
        <time>2021-06-26T05:42:09.000Z</time>
      </trkpt>
      <trkpt lat="45.23363" lon="5.75578">
        <ele>1012.200012207</ele>
        <time>2021-06-26T05:42:13.000Z</time>
      </trkpt>
      <trkpt lat="45.23364" lon="5.75577">
        <ele>1012.200012207</ele>
        <time>2021-06-26T05:42:14.000Z</time>
      </trkpt>
      <trkpt lat="45.23364" lon="5.75577">
        <ele>1012.799987793</ele>
        <time>2021-06-26T05:42:15.000Z</time>
      </trkpt>
      <trkpt lat="45.23367" lon="5.75577">
        <ele>1013.4000244141</ele>
        <time>2021-06-26T05:42:18.000Z</time>
      </trkpt>
      <trkpt lat="45.2337" lon="5.75575">
        <ele>1014</ele>
        <time>2021-06-26T05:42:21.000Z</time>
      </trkpt>
      <trkpt lat="45.23372" lon="5.75574">
        <ele>1014.5999755859</ele>
        <time>2021-06-26T05:42:23.000Z</time>
      </trkpt>
      <trkpt lat="45.23374" lon="5.75574">
        <ele>1015.200012207</ele>
        <time>2021-06-26T05:42:24.000Z</time>
      </trkpt>
      <trkpt lat="45.23375" lon="5.75573">
        <ele>1015.4000244141</ele>
        <time>2021-06-26T05:42:26.000Z</time>
      </trkpt>
      <trkpt lat="45.23377" lon="5.75572">
        <ele>1016.200012207</ele>
        <time>2021-06-26T05:42:29.000Z</time>
      </trkpt>
      <trkpt lat="45.23378" lon="5.75572">
        <ele>1016.200012207</ele>
        <time>2021-06-26T05:42:30.000Z</time>
      </trkpt>
      <trkpt lat="45.23383" lon="5.7557">
        <ele>1017.5999755859</ele>
        <time>2021-06-26T05:42:34.000Z</time>
      </trkpt>
      <trkpt lat="45.23385" lon="5.75569">
        <ele>1017.799987793</ele>
        <time>2021-06-26T05:42:36.000Z</time>
      </trkpt>
      <trkpt lat="45.23389" lon="5.75568">
        <ele>1018.4000244141</ele>
        <time>2021-06-26T05:42:39.000Z</time>
      </trkpt>
      <trkpt lat="45.23392" lon="5.75566">
        <ele>1018.799987793</ele>
        <time>2021-06-26T05:42:41.000Z</time>
      </trkpt>
      <trkpt lat="45.23396" lon="5.75565">
        <ele>1020.200012207</ele>
        <time>2021-06-26T05:42:45.000Z</time>
      </trkpt>
      <trkpt lat="45.234" lon="5.75567">
        <ele>1021</ele>
        <time>2021-06-26T05:42:49.000Z</time>
      </trkpt>
      <trkpt lat="45.23401" lon="5.75568">
        <ele>1021.799987793</ele>
        <time>2021-06-26T05:42:50.000Z</time>
      </trkpt>
      <trkpt lat="45.23402" lon="5.75568">
        <ele>1022.200012207</ele>
        <time>2021-06-26T05:42:51.000Z</time>
      </trkpt>
      <trkpt lat="45.23406" lon="5.75567">
        <ele>1023.200012207</ele>
        <time>2021-06-26T05:42:55.000Z</time>
      </trkpt>
      <trkpt lat="45.23408" lon="5.75567">
        <ele>1023.200012207</ele>
        <time>2021-06-26T05:42:56.000Z</time>
      </trkpt>
      <trkpt lat="45.23413" lon="5.75569">
        <ele>1024.4000244141</ele>
        <time>2021-06-26T05:43:00.000Z</time>
      </trkpt>
      <trkpt lat="45.2342" lon="5.7557">
        <ele>1025.1999511719</ele>
        <time>2021-06-26T05:43:05.000Z</time>
      </trkpt>
      <trkpt lat="45.23421" lon="5.75571">
        <ele>1025.5999755859</ele>
        <time>2021-06-26T05:43:06.000Z</time>
      </trkpt>
      <trkpt lat="45.23426" lon="5.75573">
        <ele>1026.4000244141</ele>
        <time>2021-06-26T05:43:10.000Z</time>
      </trkpt>
      <trkpt lat="45.23426" lon="5.75573">
        <ele>1026.8000488281</ele>
        <time>2021-06-26T05:43:11.000Z</time>
      </trkpt>
      <trkpt lat="45.2343" lon="5.75573">
        <ele>1028</ele>
        <time>2021-06-26T05:43:15.000Z</time>
      </trkpt>
      <trkpt lat="45.23435" lon="5.75573">
        <ele>1029</ele>
        <time>2021-06-26T05:43:18.000Z</time>
      </trkpt>
      <trkpt lat="45.23435" lon="5.75573">
        <ele>1029.1999511719</ele>
        <time>2021-06-26T05:43:19.000Z</time>
      </trkpt>
      <trkpt lat="45.23442" lon="5.75572">
        <ele>1030.1999511719</ele>
        <time>2021-06-26T05:43:24.000Z</time>
      </trkpt>
      <trkpt lat="45.23444" lon="5.75571">
        <ele>1030.4000244141</ele>
        <time>2021-06-26T05:43:26.000Z</time>
      </trkpt>
      <trkpt lat="45.23445" lon="5.7557">
        <ele>1030.8000488281</ele>
        <time>2021-06-26T05:43:27.000Z</time>
      </trkpt>
      <trkpt lat="45.23448" lon="5.7557">
        <ele>1031.1999511719</ele>
        <time>2021-06-26T05:43:29.000Z</time>
      </trkpt>
      <trkpt lat="45.2345" lon="5.7557">
        <ele>1032</ele>
        <time>2021-06-26T05:43:31.000Z</time>
      </trkpt>
      <trkpt lat="45.23452" lon="5.7557">
        <ele>1032.5999755859</ele>
        <time>2021-06-26T05:43:32.000Z</time>
      </trkpt>
      <trkpt lat="45.23455" lon="5.75569">
        <ele>1033</ele>
        <time>2021-06-26T05:43:35.000Z</time>
      </trkpt>
      <trkpt lat="45.23457" lon="5.75569">
        <ele>1033.4000244141</ele>
        <time>2021-06-26T05:43:37.000Z</time>
      </trkpt>
      <trkpt lat="45.23459" lon="5.75569">
        <ele>1034</ele>
        <time>2021-06-26T05:43:38.000Z</time>
      </trkpt>
      <trkpt lat="45.2346" lon="5.75569">
        <ele>1034.5999755859</ele>
        <time>2021-06-26T05:43:39.000Z</time>
      </trkpt>
      <trkpt lat="45.23461" lon="5.75568">
        <ele>1034.8000488281</ele>
        <time>2021-06-26T05:43:40.000Z</time>
      </trkpt>
      <trkpt lat="45.23462" lon="5.75568">
        <ele>1035</ele>
        <time>2021-06-26T05:43:41.000Z</time>
      </trkpt>
      <trkpt lat="45.23466" lon="5.75569">
        <ele>1035.8000488281</ele>
        <time>2021-06-26T05:43:44.000Z</time>
      </trkpt>
      <trkpt lat="45.2347" lon="5.75571">
        <ele>1036.1999511719</ele>
        <time>2021-06-26T05:43:47.000Z</time>
      </trkpt>
      <trkpt lat="45.23472" lon="5.75575">
        <ele>1037.1999511719</ele>
        <time>2021-06-26T05:43:49.000Z</time>
      </trkpt>
      <trkpt lat="45.23473" lon="5.75576">
        <ele>1037.5999755859</ele>
        <time>2021-06-26T05:43:50.000Z</time>
      </trkpt>
      <trkpt lat="45.23475" lon="5.75575">
        <ele>1037.8000488281</ele>
        <time>2021-06-26T05:43:51.000Z</time>
      </trkpt>
      <trkpt lat="45.23477" lon="5.75574">
        <ele>1038.5999755859</ele>
        <time>2021-06-26T05:43:53.000Z</time>
      </trkpt>
      <trkpt lat="45.23481" lon="5.75578">
        <ele>1039.4000244141</ele>
        <time>2021-06-26T05:43:57.000Z</time>
      </trkpt>
      <trkpt lat="45.23482" lon="5.75578">
        <ele>1040</ele>
        <time>2021-06-26T05:43:58.000Z</time>
      </trkpt>
      <trkpt lat="45.23485" lon="5.75578">
        <ele>1040.5999755859</ele>
        <time>2021-06-26T05:44:02.000Z</time>
      </trkpt>
      <trkpt lat="45.23486" lon="5.75578">
        <ele>1041</ele>
        <time>2021-06-26T05:44:03.000Z</time>
      </trkpt>
      <trkpt lat="45.23487" lon="5.75578">
        <ele>1041.4000244141</ele>
        <time>2021-06-26T05:44:04.000Z</time>
      </trkpt>
      <trkpt lat="45.23493" lon="5.75578">
        <ele>1042.1999511719</ele>
        <time>2021-06-26T05:44:09.000Z</time>
      </trkpt>
      <trkpt lat="45.23495" lon="5.75577">
        <ele>1042.5999755859</ele>
        <time>2021-06-26T05:44:10.000Z</time>
      </trkpt>
      <trkpt lat="45.23497" lon="5.75577">
        <ele>1043.1999511719</ele>
        <time>2021-06-26T05:44:12.000Z</time>
      </trkpt>
      <trkpt lat="45.23499" lon="5.75579">
        <ele>1043.5999755859</ele>
        <time>2021-06-26T05:44:14.000Z</time>
      </trkpt>
      <trkpt lat="45.23501" lon="5.7558">
        <ele>1044.4000244141</ele>
        <time>2021-06-26T05:44:16.000Z</time>
      </trkpt>
      <trkpt lat="45.23505" lon="5.75582">
        <ele>1044.8000488281</ele>
        <time>2021-06-26T05:44:18.000Z</time>
      </trkpt>
      <trkpt lat="45.23511" lon="5.75587">
        <ele>1045.8000488281</ele>
        <time>2021-06-26T05:44:22.000Z</time>
      </trkpt>
      <trkpt lat="45.23513" lon="5.7559">
        <ele>1047.1999511719</ele>
        <time>2021-06-26T05:44:24.000Z</time>
      </trkpt>
      <trkpt lat="45.23516" lon="5.75593">
        <ele>1047.8000488281</ele>
        <time>2021-06-26T05:44:27.000Z</time>
      </trkpt>
      <trkpt lat="45.23518" lon="5.75593">
        <ele>1048.1999511719</ele>
        <time>2021-06-26T05:44:29.000Z</time>
      </trkpt>
      <trkpt lat="45.23525" lon="5.75594">
        <ele>1049.4000244141</ele>
        <time>2021-06-26T05:44:34.000Z</time>
      </trkpt>
      <trkpt lat="45.2353" lon="5.75595">
        <ele>1050.8000488281</ele>
        <time>2021-06-26T05:44:38.000Z</time>
      </trkpt>
      <trkpt lat="45.23533" lon="5.75595">
        <ele>1051</ele>
        <time>2021-06-26T05:44:40.000Z</time>
      </trkpt>
      <trkpt lat="45.23535" lon="5.75597">
        <ele>1051.4000244141</ele>
        <time>2021-06-26T05:44:42.000Z</time>
      </trkpt>
      <trkpt lat="45.23537" lon="5.75598">
        <ele>1051.8000488281</ele>
        <time>2021-06-26T05:44:43.000Z</time>
      </trkpt>
      <trkpt lat="45.23539" lon="5.75601">
        <ele>1052.5999755859</ele>
        <time>2021-06-26T05:44:45.000Z</time>
      </trkpt>
      <trkpt lat="45.23537" lon="5.75603">
        <ele>1053</ele>
        <time>2021-06-26T05:44:47.000Z</time>
      </trkpt>
      <trkpt lat="45.23536" lon="5.75604">
        <ele>1053</ele>
        <time>2021-06-26T05:44:48.000Z</time>
      </trkpt>
      <trkpt lat="45.23534" lon="5.75605">
        <ele>1053.8000488281</ele>
        <time>2021-06-26T05:44:51.000Z</time>
      </trkpt>
      <trkpt lat="45.23532" lon="5.75605">
        <ele>1054</ele>
        <time>2021-06-26T05:44:52.000Z</time>
      </trkpt>
      <trkpt lat="45.23531" lon="5.75607">
        <ele>1054.1999511719</ele>
        <time>2021-06-26T05:44:53.000Z</time>
      </trkpt>
      <trkpt lat="45.23531" lon="5.75608">
        <ele>1055.1999511719</ele>
        <time>2021-06-26T05:44:54.000Z</time>
      </trkpt>
      <trkpt lat="45.23531" lon="5.75608">
        <ele>1055.1999511719</ele>
        <time>2021-06-26T05:44:55.000Z</time>
      </trkpt>
      <trkpt lat="45.23531" lon="5.75609">
        <ele>1055.4000244141</ele>
        <time>2021-06-26T05:44:57.000Z</time>
      </trkpt>
      <trkpt lat="45.2353" lon="5.7561">
        <ele>1056</ele>
        <time>2021-06-26T05:44:58.000Z</time>
      </trkpt>
      <trkpt lat="45.23527" lon="5.75612">
        <ele>1056.1999511719</ele>
        <time>2021-06-26T05:45:00.000Z</time>
      </trkpt>
      <trkpt lat="45.23525" lon="5.75613">
        <ele>1056.4000244141</ele>
        <time>2021-06-26T05:45:01.000Z</time>
      </trkpt>
      <trkpt lat="45.23524" lon="5.75615">
        <ele>1056.5999755859</ele>
        <time>2021-06-26T05:45:02.000Z</time>
      </trkpt>
      <trkpt lat="45.23524" lon="5.75616">
        <ele>1056.8000488281</ele>
        <time>2021-06-26T05:45:03.000Z</time>
      </trkpt>
      <trkpt lat="45.23524" lon="5.75617">
        <ele>1057.5999755859</ele>
        <time>2021-06-26T05:45:04.000Z</time>
      </trkpt>
      <trkpt lat="45.23519" lon="5.7562">
        <ele>1058.4000244141</ele>
        <time>2021-06-26T05:45:07.000Z</time>
      </trkpt>
      <trkpt lat="45.23516" lon="5.7562">
        <ele>1058.5999755859</ele>
        <time>2021-06-26T05:45:09.000Z</time>
      </trkpt>
      <trkpt lat="45.23511" lon="5.7562">
        <ele>1059.8000488281</ele>
        <time>2021-06-26T05:45:14.000Z</time>
      </trkpt>
      <trkpt lat="45.2351" lon="5.75621">
        <ele>1060</ele>
        <time>2021-06-26T05:45:16.000Z</time>
      </trkpt>
      <trkpt lat="45.2351" lon="5.75622">
        <ele>1060.8000488281</ele>
        <time>2021-06-26T05:45:17.000Z</time>
      </trkpt>
      <trkpt lat="45.23501" lon="5.75624">
        <ele>1061.8000488281</ele>
        <time>2021-06-26T05:45:22.000Z</time>
      </trkpt>
      <trkpt lat="45.23499" lon="5.75625">
        <ele>1062.1999511719</ele>
        <time>2021-06-26T05:45:23.000Z</time>
      </trkpt>
      <trkpt lat="45.23498" lon="5.75626">
        <ele>1062.4000244141</ele>
        <time>2021-06-26T05:45:24.000Z</time>
      </trkpt>
      <trkpt lat="45.23497" lon="5.75627">
        <ele>1063</ele>
        <time>2021-06-26T05:45:25.000Z</time>
      </trkpt>
      <trkpt lat="45.23494" lon="5.75628">
        <ele>1063.1999511719</ele>
        <time>2021-06-26T05:45:28.000Z</time>
      </trkpt>
      <trkpt lat="45.23494" lon="5.75628">
        <ele>1064</ele>
        <time>2021-06-26T05:45:29.000Z</time>
      </trkpt>
      <trkpt lat="45.23492" lon="5.75628">
        <ele>1064.1999511719</ele>
        <time>2021-06-26T05:45:31.000Z</time>
      </trkpt>
      <trkpt lat="45.23489" lon="5.7563">
        <ele>1064.5999755859</ele>
        <time>2021-06-26T05:45:33.000Z</time>
      </trkpt>
      <trkpt lat="45.23488" lon="5.7563">
        <ele>1065.5999755859</ele>
        <time>2021-06-26T05:45:34.000Z</time>
      </trkpt>
      <trkpt lat="45.23484" lon="5.75631">
        <ele>1065.8000488281</ele>
        <time>2021-06-26T05:45:37.000Z</time>
      </trkpt>
      <trkpt lat="45.23484" lon="5.7563">
        <ele>1066.4000244141</ele>
        <time>2021-06-26T05:45:38.000Z</time>
      </trkpt>
      <trkpt lat="45.23483" lon="5.7563">
        <ele>1066.5999755859</ele>
        <time>2021-06-26T05:45:39.000Z</time>
      </trkpt>
      <trkpt lat="45.2348" lon="5.75631">
        <ele>1066.5999755859</ele>
        <time>2021-06-26T05:45:41.000Z</time>
      </trkpt>
      <trkpt lat="45.23478" lon="5.75631">
        <ele>1067.8000488281</ele>
        <time>2021-06-26T05:45:43.000Z</time>
      </trkpt>
      <trkpt lat="45.23476" lon="5.75632">
        <ele>1068.1999511719</ele>
        <time>2021-06-26T05:45:45.000Z</time>
      </trkpt>
      <trkpt lat="45.23475" lon="5.75632">
        <ele>1068.4000244141</ele>
        <time>2021-06-26T05:45:47.000Z</time>
      </trkpt>
      <trkpt lat="45.23471" lon="5.75633">
        <ele>1069.4000244141</ele>
        <time>2021-06-26T05:45:50.000Z</time>
      </trkpt>
      <trkpt lat="45.23467" lon="5.75634">
        <ele>1070</ele>
        <time>2021-06-26T05:45:53.000Z</time>
      </trkpt>
      <trkpt lat="45.23467" lon="5.75634">
        <ele>1070</ele>
        <time>2021-06-26T05:45:54.000Z</time>
      </trkpt>
      <trkpt lat="45.23466" lon="5.75634">
        <ele>1070.5999755859</ele>
        <time>2021-06-26T05:45:55.000Z</time>
      </trkpt>
      <trkpt lat="45.23464" lon="5.75636">
        <ele>1070.5999755859</ele>
        <time>2021-06-26T05:45:56.000Z</time>
      </trkpt>
      <trkpt lat="45.2346" lon="5.75639">
        <ele>1072</ele>
        <time>2021-06-26T05:46:00.000Z</time>
      </trkpt>
      <trkpt lat="45.23457" lon="5.7564">
        <ele>1072.5999755859</ele>
        <time>2021-06-26T05:46:03.000Z</time>
      </trkpt>
      <trkpt lat="45.23456" lon="5.75641">
        <ele>1073.8000488281</ele>
        <time>2021-06-26T05:46:05.000Z</time>
      </trkpt>
      <trkpt lat="45.23454" lon="5.75642">
        <ele>1074</ele>
        <time>2021-06-26T05:46:07.000Z</time>
      </trkpt>
      <trkpt lat="45.23453" lon="5.75642">
        <ele>1074.1999511719</ele>
        <time>2021-06-26T05:46:08.000Z</time>
      </trkpt>
      <trkpt lat="45.23452" lon="5.75641">
        <ele>1074.4000244141</ele>
        <time>2021-06-26T05:46:09.000Z</time>
      </trkpt>
      <trkpt lat="45.23449" lon="5.75641">
        <ele>1074.5999755859</ele>
        <time>2021-06-26T05:46:12.000Z</time>
      </trkpt>
      <trkpt lat="45.23448" lon="5.75642">
        <ele>1074.5999755859</ele>
        <time>2021-06-26T05:46:13.000Z</time>
      </trkpt>
      <trkpt lat="45.23447" lon="5.75642">
        <ele>1075.5999755859</ele>
        <time>2021-06-26T05:46:14.000Z</time>
      </trkpt>
      <trkpt lat="45.23439" lon="5.75646">
        <ele>1076.4000244141</ele>
        <time>2021-06-26T05:46:19.000Z</time>
      </trkpt>
      <trkpt lat="45.23436" lon="5.75649">
        <ele>1076.5999755859</ele>
        <time>2021-06-26T05:46:21.000Z</time>
      </trkpt>
      <trkpt lat="45.23432" lon="5.75652">
        <ele>1077.5999755859</ele>
        <time>2021-06-26T05:46:25.000Z</time>
      </trkpt>
      <trkpt lat="45.23429" lon="5.75654">
        <ele>1078.4000244141</ele>
        <time>2021-06-26T05:46:27.000Z</time>
      </trkpt>
      <trkpt lat="45.23429" lon="5.75655">
        <ele>1078.5999755859</ele>
        <time>2021-06-26T05:46:29.000Z</time>
      </trkpt>
      <trkpt lat="45.23429" lon="5.75657">
        <ele>1079.8000488281</ele>
        <time>2021-06-26T05:46:32.000Z</time>
      </trkpt>
      <trkpt lat="45.23424" lon="5.75662">
        <ele>1080.4000244141</ele>
        <time>2021-06-26T05:46:36.000Z</time>
      </trkpt>
      <trkpt lat="45.23423" lon="5.75663">
        <ele>1080.5999755859</ele>
        <time>2021-06-26T05:46:37.000Z</time>
      </trkpt>
      <trkpt lat="45.23423" lon="5.75664">
        <ele>1081.1999511719</ele>
        <time>2021-06-26T05:46:38.000Z</time>
      </trkpt>
      <trkpt lat="45.23422" lon="5.75667">
        <ele>1082.4000244141</ele>
        <time>2021-06-26T05:46:42.000Z</time>
      </trkpt>
      <trkpt lat="45.23419" lon="5.75672">
        <ele>1083.4000244141</ele>
        <time>2021-06-26T05:46:46.000Z</time>
      </trkpt>
      <trkpt lat="45.23418" lon="5.75673">
        <ele>1083.4000244141</ele>
        <time>2021-06-26T05:46:47.000Z</time>
      </trkpt>
      <trkpt lat="45.23418" lon="5.75675">
        <ele>1084</ele>
        <time>2021-06-26T05:46:49.000Z</time>
      </trkpt>
      <trkpt lat="45.23417" lon="5.75678">
        <ele>1084.5999755859</ele>
        <time>2021-06-26T05:46:52.000Z</time>
      </trkpt>
      <trkpt lat="45.23417" lon="5.75681">
        <ele>1085.4000244141</ele>
        <time>2021-06-26T05:46:55.000Z</time>
      </trkpt>
      <trkpt lat="45.23417" lon="5.75682">
        <ele>1085.5999755859</ele>
        <time>2021-06-26T05:46:56.000Z</time>
      </trkpt>
      <trkpt lat="45.23416" lon="5.75684">
        <ele>1085.8000488281</ele>
        <time>2021-06-26T05:46:57.000Z</time>
      </trkpt>
      <trkpt lat="45.23415" lon="5.75689">
        <ele>1086.8000488281</ele>
        <time>2021-06-26T05:47:00.000Z</time>
      </trkpt>
      <trkpt lat="45.23414" lon="5.75691">
        <ele>1087</ele>
        <time>2021-06-26T05:47:01.000Z</time>
      </trkpt>
      <trkpt lat="45.23414" lon="5.75695">
        <ele>1087.5999755859</ele>
        <time>2021-06-26T05:47:03.000Z</time>
      </trkpt>
      <trkpt lat="45.23413" lon="5.75699">
        <ele>1088</ele>
        <time>2021-06-26T05:47:05.000Z</time>
      </trkpt>
      <trkpt lat="45.23411" lon="5.75703">
        <ele>1088.5999755859</ele>
        <time>2021-06-26T05:47:07.000Z</time>
      </trkpt>
      <trkpt lat="45.23411" lon="5.75705">
        <ele>1089.1999511719</ele>
        <time>2021-06-26T05:47:08.000Z</time>
      </trkpt>
      <trkpt lat="45.2341" lon="5.75709">
        <ele>1089.4000244141</ele>
        <time>2021-06-26T05:47:10.000Z</time>
      </trkpt>
      <trkpt lat="45.23409" lon="5.75711">
        <ele>1089.8000488281</ele>
        <time>2021-06-26T05:47:12.000Z</time>
      </trkpt>
      <trkpt lat="45.23408" lon="5.75713">
        <ele>1090</ele>
        <time>2021-06-26T05:47:13.000Z</time>
      </trkpt>
      <trkpt lat="45.23407" lon="5.75714">
        <ele>1090.4000244141</ele>
        <time>2021-06-26T05:47:14.000Z</time>
      </trkpt>
      <trkpt lat="45.23404" lon="5.75722">
        <ele>1091.4000244141</ele>
        <time>2021-06-26T05:47:19.000Z</time>
      </trkpt>
      <trkpt lat="45.23404" lon="5.7572">
        <ele>1092.5999755859</ele>
        <time>2021-06-26T05:47:22.000Z</time>
      </trkpt>
      <trkpt lat="45.23405" lon="5.75719">
        <ele>1092.8000488281</ele>
        <time>2021-06-26T05:47:24.000Z</time>
      </trkpt>
      <trkpt lat="45.23405" lon="5.75718">
        <ele>1093</ele>
        <time>2021-06-26T05:47:25.000Z</time>
      </trkpt>
      <trkpt lat="45.23406" lon="5.75717">
        <ele>1093.5999755859</ele>
        <time>2021-06-26T05:47:26.000Z</time>
      </trkpt>
      <trkpt lat="45.23407" lon="5.75714">
        <ele>1094.5999755859</ele>
        <time>2021-06-26T05:47:30.000Z</time>
      </trkpt>
      <trkpt lat="45.23407" lon="5.75715">
        <ele>1094.5999755859</ele>
        <time>2021-06-26T05:47:31.000Z</time>
      </trkpt>
      <trkpt lat="45.23407" lon="5.75715">
        <ele>1094.8000488281</ele>
        <time>2021-06-26T05:47:32.000Z</time>
      </trkpt>
      <trkpt lat="45.23409" lon="5.75715">
        <ele>1096</ele>
        <time>2021-06-26T05:47:35.000Z</time>
      </trkpt>
      <trkpt lat="45.23411" lon="5.75712">
        <ele>1096.1999511719</ele>
        <time>2021-06-26T05:47:38.000Z</time>
      </trkpt>
      <trkpt lat="45.23412" lon="5.75711">
        <ele>1096.4000244141</ele>
        <time>2021-06-26T05:47:39.000Z</time>
      </trkpt>
      <trkpt lat="45.23414" lon="5.7571">
        <ele>1096.8000488281</ele>
        <time>2021-06-26T05:47:41.000Z</time>
      </trkpt>
      <trkpt lat="45.23416" lon="5.75709">
        <ele>1097.4000244141</ele>
        <time>2021-06-26T05:47:42.000Z</time>
      </trkpt>
      <trkpt lat="45.23417" lon="5.75709">
        <ele>1097.8000488281</ele>
        <time>2021-06-26T05:47:44.000Z</time>
      </trkpt>
      <trkpt lat="45.23419" lon="5.75707">
        <ele>1098.4000244141</ele>
        <time>2021-06-26T05:47:47.000Z</time>
      </trkpt>
      <trkpt lat="45.2342" lon="5.75707">
        <ele>1098.8000488281</ele>
        <time>2021-06-26T05:47:48.000Z</time>
      </trkpt>
      <trkpt lat="45.23421" lon="5.75706">
        <ele>1098.8000488281</ele>
        <time>2021-06-26T05:47:49.000Z</time>
      </trkpt>
      <trkpt lat="45.23424" lon="5.75703">
        <ele>1100</ele>
        <time>2021-06-26T05:47:52.000Z</time>
      </trkpt>
      <trkpt lat="45.23425" lon="5.757">
        <ele>1100.4000244141</ele>
        <time>2021-06-26T05:47:54.000Z</time>
      </trkpt>
      <trkpt lat="45.23426" lon="5.75697">
        <ele>1100.8000488281</ele>
        <time>2021-06-26T05:47:56.000Z</time>
      </trkpt>
      <trkpt lat="45.23428" lon="5.75694">
        <ele>1101.1999511719</ele>
        <time>2021-06-26T05:47:58.000Z</time>
      </trkpt>
      <trkpt lat="45.23429" lon="5.75692">
        <ele>1101.8000488281</ele>
        <time>2021-06-26T05:48:00.000Z</time>
      </trkpt>
      <trkpt lat="45.2343" lon="5.75692">
        <ele>1102.1999511719</ele>
        <time>2021-06-26T05:48:01.000Z</time>
      </trkpt>
      <trkpt lat="45.23433" lon="5.75694">
        <ele>1102.1999511719</ele>
        <time>2021-06-26T05:48:03.000Z</time>
      </trkpt>
      <trkpt lat="45.23433" lon="5.75698">
        <ele>1102.8000488281</ele>
        <time>2021-06-26T05:48:05.000Z</time>
      </trkpt>
      <trkpt lat="45.23433" lon="5.757">
        <ele>1103</ele>
        <time>2021-06-26T05:48:06.000Z</time>
      </trkpt>
      <trkpt lat="45.23433" lon="5.75701">
        <ele>1103.4000244141</ele>
        <time>2021-06-26T05:48:07.000Z</time>
      </trkpt>
      <trkpt lat="45.23433" lon="5.75703">
        <ele>1103.5999755859</ele>
        <time>2021-06-26T05:48:09.000Z</time>
      </trkpt>
      <trkpt lat="45.23433" lon="5.75705">
        <ele>1104.4000244141</ele>
        <time>2021-06-26T05:48:11.000Z</time>
      </trkpt>
      <trkpt lat="45.23433" lon="5.75706">
        <ele>1104.5999755859</ele>
        <time>2021-06-26T05:48:13.000Z</time>
      </trkpt>
      <trkpt lat="45.23433" lon="5.75708">
        <ele>1104.8000488281</ele>
        <time>2021-06-26T05:48:14.000Z</time>
      </trkpt>
      <trkpt lat="45.23432" lon="5.7571">
        <ele>1105.4000244141</ele>
        <time>2021-06-26T05:48:16.000Z</time>
      </trkpt>
      <trkpt lat="45.23431" lon="5.75713">
        <ele>1105.8000488281</ele>
        <time>2021-06-26T05:48:18.000Z</time>
      </trkpt>
      <trkpt lat="45.2343" lon="5.75717">
        <ele>1106.4000244141</ele>
        <time>2021-06-26T05:48:20.000Z</time>
      </trkpt>
      <trkpt lat="45.23431" lon="5.75719">
        <ele>1106.4000244141</ele>
        <time>2021-06-26T05:48:21.000Z</time>
      </trkpt>
      <trkpt lat="45.23432" lon="5.75721">
        <ele>1107</ele>
        <time>2021-06-26T05:48:22.000Z</time>
      </trkpt>
      <trkpt lat="45.23432" lon="5.75722">
        <ele>1107</ele>
        <time>2021-06-26T05:48:23.000Z</time>
      </trkpt>
      <trkpt lat="45.23431" lon="5.75726">
        <ele>1107.8000488281</ele>
        <time>2021-06-26T05:48:25.000Z</time>
      </trkpt>
      <trkpt lat="45.23431" lon="5.75728">
        <ele>1108</ele>
        <time>2021-06-26T05:48:26.000Z</time>
      </trkpt>
      <trkpt lat="45.23432" lon="5.75729">
        <ele>1108.5999755859</ele>
        <time>2021-06-26T05:48:27.000Z</time>
      </trkpt>
      <trkpt lat="45.23431" lon="5.75733">
        <ele>1109.1999511719</ele>
        <time>2021-06-26T05:48:30.000Z</time>
      </trkpt>
      <trkpt lat="45.23431" lon="5.75734">
        <ele>1109.8000488281</ele>
        <time>2021-06-26T05:48:31.000Z</time>
      </trkpt>
      <trkpt lat="45.23431" lon="5.75736">
        <ele>1110.5999755859</ele>
        <time>2021-06-26T05:48:34.000Z</time>
      </trkpt>
      <trkpt lat="45.23431" lon="5.75738">
        <ele>1111</ele>
        <time>2021-06-26T05:48:36.000Z</time>
      </trkpt>
      <trkpt lat="45.23431" lon="5.75738">
        <ele>1111.1999511719</ele>
        <time>2021-06-26T05:48:37.000Z</time>
      </trkpt>
      <trkpt lat="45.23429" lon="5.75741">
        <ele>1111.4000244141</ele>
        <time>2021-06-26T05:48:39.000Z</time>
      </trkpt>
      <trkpt lat="45.23429" lon="5.75742">
        <ele>1111.5999755859</ele>
        <time>2021-06-26T05:48:40.000Z</time>
      </trkpt>
      <trkpt lat="45.23429" lon="5.75743">
        <ele>1112.5999755859</ele>
        <time>2021-06-26T05:48:41.000Z</time>
      </trkpt>
      <trkpt lat="45.23429" lon="5.75744">
        <ele>1112.5999755859</ele>
        <time>2021-06-26T05:48:42.000Z</time>
      </trkpt>
      <trkpt lat="45.23429" lon="5.75745">
        <ele>1113</ele>
        <time>2021-06-26T05:48:43.000Z</time>
      </trkpt>
      <trkpt lat="45.23428" lon="5.75749">
        <ele>1113.5999755859</ele>
        <time>2021-06-26T05:48:46.000Z</time>
      </trkpt>
      <trkpt lat="45.23427" lon="5.75752">
        <ele>1114.1999511719</ele>
        <time>2021-06-26T05:48:49.000Z</time>
      </trkpt>
      <trkpt lat="45.23426" lon="5.75753">
        <ele>1114.4000244141</ele>
        <time>2021-06-26T05:48:50.000Z</time>
      </trkpt>
      <trkpt lat="45.23426" lon="5.75754">
        <ele>1114.8000488281</ele>
        <time>2021-06-26T05:48:51.000Z</time>
      </trkpt>
      <trkpt lat="45.23425" lon="5.75755">
        <ele>1115.8000488281</ele>
        <time>2021-06-26T05:48:52.000Z</time>
      </trkpt>
      <trkpt lat="45.23424" lon="5.75757">
        <ele>1115.8000488281</ele>
        <time>2021-06-26T05:48:54.000Z</time>
      </trkpt>
      <trkpt lat="45.23424" lon="5.75759">
        <ele>1116</ele>
        <time>2021-06-26T05:48:55.000Z</time>
      </trkpt>
      <trkpt lat="45.23424" lon="5.75766">
        <ele>1117</ele>
        <time>2021-06-26T05:48:59.000Z</time>
      </trkpt>
      <trkpt lat="45.23423" lon="5.75768">
        <ele>1117.1999511719</ele>
        <time>2021-06-26T05:49:00.000Z</time>
      </trkpt>
      <trkpt lat="45.2342" lon="5.75777">
        <ele>1118.5999755859</ele>
        <time>2021-06-26T05:49:06.000Z</time>
      </trkpt>
      <trkpt lat="45.23417" lon="5.75789">
        <ele>1119.5999755859</ele>
        <time>2021-06-26T05:49:12.000Z</time>
      </trkpt>
      <trkpt lat="45.23416" lon="5.75795">
        <ele>1120.8000488281</ele>
        <time>2021-06-26T05:49:15.000Z</time>
      </trkpt>
      <trkpt lat="45.23416" lon="5.75799">
        <ele>1121.4000244141</ele>
        <time>2021-06-26T05:49:18.000Z</time>
      </trkpt>
      <trkpt lat="45.23416" lon="5.75799">
        <ele>1121.4000244141</ele>
        <time>2021-06-26T05:49:19.000Z</time>
      </trkpt>
      <trkpt lat="45.23416" lon="5.758">
        <ele>1122</ele>
        <time>2021-06-26T05:49:20.000Z</time>
      </trkpt>
      <trkpt lat="45.23414" lon="5.75805">
        <ele>1122.8000488281</ele>
        <time>2021-06-26T05:49:23.000Z</time>
      </trkpt>
      <trkpt lat="45.23414" lon="5.75806">
        <ele>1123</ele>
        <time>2021-06-26T05:49:24.000Z</time>
      </trkpt>
      <trkpt lat="45.23413" lon="5.75807">
        <ele>1123.4000244141</ele>
        <time>2021-06-26T05:49:25.000Z</time>
      </trkpt>
      <trkpt lat="45.23413" lon="5.75808">
        <ele>1123.8000488281</ele>
        <time>2021-06-26T05:49:26.000Z</time>
      </trkpt>
      <trkpt lat="45.23409" lon="5.75812">
        <ele>1124.1999511719</ele>
        <time>2021-06-26T05:49:29.000Z</time>
      </trkpt>
      <trkpt lat="45.23408" lon="5.75812">
        <ele>1124.5999755859</ele>
        <time>2021-06-26T05:49:30.000Z</time>
      </trkpt>
      <trkpt lat="45.23407" lon="5.75814">
        <ele>1124.5999755859</ele>
        <time>2021-06-26T05:49:31.000Z</time>
      </trkpt>
      <trkpt lat="45.23405" lon="5.75818">
        <ele>1125.1999511719</ele>
        <time>2021-06-26T05:49:33.000Z</time>
      </trkpt>
      <trkpt lat="45.23403" lon="5.7582">
        <ele>1125.5999755859</ele>
        <time>2021-06-26T05:49:35.000Z</time>
      </trkpt>
      <trkpt lat="45.23401" lon="5.75821">
        <ele>1125.8000488281</ele>
        <time>2021-06-26T05:49:36.000Z</time>
      </trkpt>
      <trkpt lat="45.234" lon="5.75822">
        <ele>1126</ele>
        <time>2021-06-26T05:49:37.000Z</time>
      </trkpt>
      <trkpt lat="45.23395" lon="5.75826">
        <ele>1126.8000488281</ele>
        <time>2021-06-26T05:49:40.000Z</time>
      </trkpt>
      <trkpt lat="45.23391" lon="5.7583">
        <ele>1127.5999755859</ele>
        <time>2021-06-26T05:49:43.000Z</time>
      </trkpt>
      <trkpt lat="45.2339" lon="5.7583">
        <ele>1128</ele>
        <time>2021-06-26T05:49:44.000Z</time>
      </trkpt>
      <trkpt lat="45.23386" lon="5.7583">
        <ele>1128.5999755859</ele>
        <time>2021-06-26T05:49:46.000Z</time>
      </trkpt>
      <trkpt lat="45.23385" lon="5.7583">
        <ele>1129</ele>
        <time>2021-06-26T05:49:47.000Z</time>
      </trkpt>
      <trkpt lat="45.23385" lon="5.7583">
        <ele>1129</ele>
        <time>2021-06-26T05:49:48.000Z</time>
      </trkpt>
      <trkpt lat="45.23384" lon="5.7583">
        <ele>1129.1999511719</ele>
        <time>2021-06-26T05:49:49.000Z</time>
      </trkpt>
      <trkpt lat="45.23379" lon="5.75834">
        <ele>1130</ele>
        <time>2021-06-26T05:49:53.000Z</time>
      </trkpt>
      <trkpt lat="45.23377" lon="5.75836">
        <ele>1130.4000244141</ele>
        <time>2021-06-26T05:49:55.000Z</time>
      </trkpt>
      <trkpt lat="45.23375" lon="5.75837">
        <ele>1131</ele>
        <time>2021-06-26T05:49:57.000Z</time>
      </trkpt>
      <trkpt lat="45.23372" lon="5.75839">
        <ele>1131</ele>
        <time>2021-06-26T05:49:59.000Z</time>
      </trkpt>
      <trkpt lat="45.23368" lon="5.75842">
        <ele>1132</ele>
        <time>2021-06-26T05:50:02.000Z</time>
      </trkpt>
      <trkpt lat="45.23367" lon="5.75843">
        <ele>1132</ele>
        <time>2021-06-26T05:50:03.000Z</time>
      </trkpt>
      <trkpt lat="45.23362" lon="5.75851">
        <ele>1133.1999511719</ele>
        <time>2021-06-26T05:50:08.000Z</time>
      </trkpt>
      <trkpt lat="45.23361" lon="5.75854">
        <ele>1133.4000244141</ele>
        <time>2021-06-26T05:50:10.000Z</time>
      </trkpt>
      <trkpt lat="45.23358" lon="5.75859">
        <ele>1134.1999511719</ele>
        <time>2021-06-26T05:50:13.000Z</time>
      </trkpt>
      <trkpt lat="45.23356" lon="5.75863">
        <ele>1134.8000488281</ele>
        <time>2021-06-26T05:50:16.000Z</time>
      </trkpt>
      <trkpt lat="45.23355" lon="5.75864">
        <ele>1135</ele>
        <time>2021-06-26T05:50:17.000Z</time>
      </trkpt>
      <trkpt lat="45.23354" lon="5.75866">
        <ele>1135</ele>
        <time>2021-06-26T05:50:18.000Z</time>
      </trkpt>
      <trkpt lat="45.23353" lon="5.7587">
        <ele>1135.5999755859</ele>
        <time>2021-06-26T05:50:20.000Z</time>
      </trkpt>
      <trkpt lat="45.23354" lon="5.75872">
        <ele>1136</ele>
        <time>2021-06-26T05:50:21.000Z</time>
      </trkpt>
      <trkpt lat="45.23355" lon="5.75874">
        <ele>1136.4000244141</ele>
        <time>2021-06-26T05:50:22.000Z</time>
      </trkpt>
      <trkpt lat="45.23355" lon="5.75875">
        <ele>1136.4000244141</ele>
        <time>2021-06-26T05:50:23.000Z</time>
      </trkpt>
      <trkpt lat="45.23355" lon="5.75877">
        <ele>1136.4000244141</ele>
        <time>2021-06-26T05:50:25.000Z</time>
      </trkpt>
      <trkpt lat="45.23355" lon="5.75879">
        <ele>1137</ele>
        <time>2021-06-26T05:50:26.000Z</time>
      </trkpt>
      <trkpt lat="45.23356" lon="5.75881">
        <ele>1137</ele>
        <time>2021-06-26T05:50:27.000Z</time>
      </trkpt>
      <trkpt lat="45.23357" lon="5.75885">
        <ele>1138</ele>
        <time>2021-06-26T05:50:30.000Z</time>
      </trkpt>
      <trkpt lat="45.23359" lon="5.75887">
        <ele>1138.4000244141</ele>
        <time>2021-06-26T05:50:32.000Z</time>
      </trkpt>
      <trkpt lat="45.2336" lon="5.75891">
        <ele>1139.1999511719</ele>
        <time>2021-06-26T05:50:34.000Z</time>
      </trkpt>
      <trkpt lat="45.2336" lon="5.75892">
        <ele>1139.1999511719</ele>
        <time>2021-06-26T05:50:35.000Z</time>
      </trkpt>
      <trkpt lat="45.23362" lon="5.75896">
        <ele>1140</ele>
        <time>2021-06-26T05:50:39.000Z</time>
      </trkpt>
      <trkpt lat="45.23362" lon="5.75898">
        <ele>1140.4000244141</ele>
        <time>2021-06-26T05:50:40.000Z</time>
      </trkpt>
      <trkpt lat="45.23362" lon="5.759">
        <ele>1140.8000488281</ele>
        <time>2021-06-26T05:50:41.000Z</time>
      </trkpt>
      <trkpt lat="45.23362" lon="5.75902">
        <ele>1140.8000488281</ele>
        <time>2021-06-26T05:50:42.000Z</time>
      </trkpt>
      <trkpt lat="45.23363" lon="5.75904">
        <ele>1141.5999755859</ele>
        <time>2021-06-26T05:50:44.000Z</time>
      </trkpt>
      <trkpt lat="45.23365" lon="5.75906">
        <ele>1142</ele>
        <time>2021-06-26T05:50:46.000Z</time>
      </trkpt>
      <trkpt lat="45.23365" lon="5.75911">
        <ele>1142.5999755859</ele>
        <time>2021-06-26T05:50:49.000Z</time>
      </trkpt>
      <trkpt lat="45.23364" lon="5.75912">
        <ele>1143.1999511719</ele>
        <time>2021-06-26T05:50:50.000Z</time>
      </trkpt>
      <trkpt lat="45.23364" lon="5.75912">
        <ele>1143.4000244141</ele>
        <time>2021-06-26T05:50:51.000Z</time>
      </trkpt>
      <trkpt lat="45.23364" lon="5.75915">
        <ele>1143.8000488281</ele>
        <time>2021-06-26T05:50:53.000Z</time>
      </trkpt>
      <trkpt lat="45.23365" lon="5.75918">
        <ele>1144.1999511719</ele>
        <time>2021-06-26T05:50:55.000Z</time>
      </trkpt>
      <trkpt lat="45.23367" lon="5.75922">
        <ele>1144.5999755859</ele>
        <time>2021-06-26T05:50:57.000Z</time>
      </trkpt>
      <trkpt lat="45.23367" lon="5.75924">
        <ele>1144.8000488281</ele>
        <time>2021-06-26T05:50:58.000Z</time>
      </trkpt>
      <trkpt lat="45.23368" lon="5.75926">
        <ele>1145.4000244141</ele>
        <time>2021-06-26T05:50:59.000Z</time>
      </trkpt>
      <trkpt lat="45.23369" lon="5.75928">
        <ele>1145.5999755859</ele>
        <time>2021-06-26T05:51:00.000Z</time>
      </trkpt>
      <trkpt lat="45.23369" lon="5.7593">
        <ele>1146</ele>
        <time>2021-06-26T05:51:01.000Z</time>
      </trkpt>
      <trkpt lat="45.2337" lon="5.75934">
        <ele>1146.4000244141</ele>
        <time>2021-06-26T05:51:03.000Z</time>
      </trkpt>
      <trkpt lat="45.2337" lon="5.75935">
        <ele>1146.4000244141</ele>
        <time>2021-06-26T05:51:04.000Z</time>
      </trkpt>
      <trkpt lat="45.23371" lon="5.75936">
        <ele>1147.4000244141</ele>
        <time>2021-06-26T05:51:06.000Z</time>
      </trkpt>
      <trkpt lat="45.23371" lon="5.75935">
        <ele>1147.4000244141</ele>
        <time>2021-06-26T05:51:07.000Z</time>
      </trkpt>
      <trkpt lat="45.23371" lon="5.75933">
        <ele>1147.8000488281</ele>
        <time>2021-06-26T05:51:09.000Z</time>
      </trkpt>
      <trkpt lat="45.23371" lon="5.75927">
        <ele>1148.8000488281</ele>
        <time>2021-06-26T05:51:13.000Z</time>
      </trkpt>
      <trkpt lat="45.23371" lon="5.75922">
        <ele>1149.4000244141</ele>
        <time>2021-06-26T05:51:16.000Z</time>
      </trkpt>
      <trkpt lat="45.23371" lon="5.75921">
        <ele>1149.5999755859</ele>
        <time>2021-06-26T05:51:17.000Z</time>
      </trkpt>
      <trkpt lat="45.23372" lon="5.75918">
        <ele>1150.4000244141</ele>
        <time>2021-06-26T05:51:19.000Z</time>
      </trkpt>
      <trkpt lat="45.23373" lon="5.75912">
        <ele>1151.4000244141</ele>
        <time>2021-06-26T05:51:24.000Z</time>
      </trkpt>
      <trkpt lat="45.23373" lon="5.75911">
        <ele>1151.4000244141</ele>
        <time>2021-06-26T05:51:25.000Z</time>
      </trkpt>
      <trkpt lat="45.23372" lon="5.7591">
        <ele>1151.4000244141</ele>
        <time>2021-06-26T05:51:26.000Z</time>
      </trkpt>
      <trkpt lat="45.23373" lon="5.75908">
        <ele>1152.4000244141</ele>
        <time>2021-06-26T05:51:28.000Z</time>
      </trkpt>
      <trkpt lat="45.23373" lon="5.75906">
        <ele>1152.5999755859</ele>
        <time>2021-06-26T05:51:29.000Z</time>
      </trkpt>
      <trkpt lat="45.23374" lon="5.75905">
        <ele>1152.8000488281</ele>
        <time>2021-06-26T05:51:30.000Z</time>
      </trkpt>
      <trkpt lat="45.23378" lon="5.759">
        <ele>1154</ele>
        <time>2021-06-26T05:51:34.000Z</time>
      </trkpt>
      <trkpt lat="45.23383" lon="5.75897">
        <ele>1155</ele>
        <time>2021-06-26T05:51:38.000Z</time>
      </trkpt>
      <trkpt lat="45.23388" lon="5.75893">
        <ele>1156.1999511719</ele>
        <time>2021-06-26T05:51:42.000Z</time>
      </trkpt>
      <trkpt lat="45.23391" lon="5.75892">
        <ele>1157</ele>
        <time>2021-06-26T05:51:44.000Z</time>
      </trkpt>
      <trkpt lat="45.23392" lon="5.75892">
        <ele>1157</ele>
        <time>2021-06-26T05:51:45.000Z</time>
      </trkpt>
      <trkpt lat="45.23393" lon="5.75892">
        <ele>1157.1999511719</ele>
        <time>2021-06-26T05:51:46.000Z</time>
      </trkpt>
      <trkpt lat="45.23397" lon="5.75893">
        <ele>1158</ele>
        <time>2021-06-26T05:51:50.000Z</time>
      </trkpt>
      <trkpt lat="45.234" lon="5.75892">
        <ele>1158.5999755859</ele>
        <time>2021-06-26T05:51:52.000Z</time>
      </trkpt>
      <trkpt lat="45.23403" lon="5.75892">
        <ele>1159.5999755859</ele>
        <time>2021-06-26T05:51:56.000Z</time>
      </trkpt>
      <trkpt lat="45.23405" lon="5.75889">
        <ele>1160</ele>
        <time>2021-06-26T05:51:58.000Z</time>
      </trkpt>
      <trkpt lat="45.23409" lon="5.75885">
        <ele>1161.1999511719</ele>
        <time>2021-06-26T05:52:02.000Z</time>
      </trkpt>
      <trkpt lat="45.23413" lon="5.75882">
        <ele>1162</ele>
        <time>2021-06-26T05:52:06.000Z</time>
      </trkpt>
      <trkpt lat="45.23415" lon="5.75881">
        <ele>1162.4000244141</ele>
        <time>2021-06-26T05:52:08.000Z</time>
      </trkpt>
      <trkpt lat="45.23419" lon="5.75879">
        <ele>1163.5999755859</ele>
        <time>2021-06-26T05:52:12.000Z</time>
      </trkpt>
      <trkpt lat="45.23419" lon="5.75879">
        <ele>1163.5999755859</ele>
        <time>2021-06-26T05:52:13.000Z</time>
      </trkpt>
      <trkpt lat="45.23421" lon="5.75877">
        <ele>1164.5999755859</ele>
        <time>2021-06-26T05:52:17.000Z</time>
      </trkpt>
      <trkpt lat="45.23422" lon="5.75875">
        <ele>1165</ele>
        <time>2021-06-26T05:52:18.000Z</time>
      </trkpt>
      <trkpt lat="45.23424" lon="5.75873">
        <ele>1165.5999755859</ele>
        <time>2021-06-26T05:52:20.000Z</time>
      </trkpt>
      <trkpt lat="45.23426" lon="5.75871">
        <ele>1166</ele>
        <time>2021-06-26T05:52:22.000Z</time>
      </trkpt>
      <trkpt lat="45.23429" lon="5.75869">
        <ele>1166.8000488281</ele>
        <time>2021-06-26T05:52:25.000Z</time>
      </trkpt>
      <trkpt lat="45.2343" lon="5.75868">
        <ele>1166.8000488281</ele>
        <time>2021-06-26T05:52:26.000Z</time>
      </trkpt>
      <trkpt lat="45.23432" lon="5.75867">
        <ele>1167.4000244141</ele>
        <time>2021-06-26T05:52:28.000Z</time>
      </trkpt>
      <trkpt lat="45.23434" lon="5.75864">
        <ele>1168.1999511719</ele>
        <time>2021-06-26T05:52:31.000Z</time>
      </trkpt>
      <trkpt lat="45.23435" lon="5.75863">
        <ele>1168.5999755859</ele>
        <time>2021-06-26T05:52:32.000Z</time>
      </trkpt>
      <trkpt lat="45.2344" lon="5.7586">
        <ele>1169.1999511719</ele>
        <time>2021-06-26T05:52:35.000Z</time>
      </trkpt>
      <trkpt lat="45.23442" lon="5.7586">
        <ele>1170.1999511719</ele>
        <time>2021-06-26T05:52:37.000Z</time>
      </trkpt>
      <trkpt lat="45.23442" lon="5.75859">
        <ele>1170.1999511719</ele>
        <time>2021-06-26T05:52:38.000Z</time>
      </trkpt>
      <trkpt lat="45.23443" lon="5.75859">
        <ele>1170.5999755859</ele>
        <time>2021-06-26T05:52:39.000Z</time>
      </trkpt>
      <trkpt lat="45.23445" lon="5.75857">
        <ele>1171.4000244141</ele>
        <time>2021-06-26T05:52:41.000Z</time>
      </trkpt>
      <trkpt lat="45.23445" lon="5.75857">
        <ele>1171.4000244141</ele>
        <time>2021-06-26T05:52:42.000Z</time>
      </trkpt>
      <trkpt lat="45.23448" lon="5.75855">
        <ele>1172.4000244141</ele>
        <time>2021-06-26T05:52:45.000Z</time>
      </trkpt>
      <trkpt lat="45.23451" lon="5.75854">
        <ele>1173.1999511719</ele>
        <time>2021-06-26T05:52:48.000Z</time>
      </trkpt>
      <trkpt lat="45.23451" lon="5.75854">
        <ele>1173.1999511719</ele>
        <time>2021-06-26T05:52:49.000Z</time>
      </trkpt>
      <trkpt lat="45.23452" lon="5.75854">
        <ele>1173.5999755859</ele>
        <time>2021-06-26T05:52:50.000Z</time>
      </trkpt>
      <trkpt lat="45.23454" lon="5.75852">
        <ele>1174</ele>
        <time>2021-06-26T05:52:51.000Z</time>
      </trkpt>
      <trkpt lat="45.23459" lon="5.75848">
        <ele>1175</ele>
        <time>2021-06-26T05:52:55.000Z</time>
      </trkpt>
      <trkpt lat="45.23463" lon="5.75845">
        <ele>1176</ele>
        <time>2021-06-26T05:52:59.000Z</time>
      </trkpt>
      <trkpt lat="45.23463" lon="5.75844">
        <ele>1176.1999511719</ele>
        <time>2021-06-26T05:53:00.000Z</time>
      </trkpt>
      <trkpt lat="45.23464" lon="5.75843">
        <ele>1176.5999755859</ele>
        <time>2021-06-26T05:53:02.000Z</time>
      </trkpt>
      <trkpt lat="45.23466" lon="5.75842">
        <ele>1177.5999755859</ele>
        <time>2021-06-26T05:53:04.000Z</time>
      </trkpt>
      <trkpt lat="45.23467" lon="5.75841">
        <ele>1178</ele>
        <time>2021-06-26T05:53:05.000Z</time>
      </trkpt>
      <trkpt lat="45.23471" lon="5.7584">
        <ele>1178.8000488281</ele>
        <time>2021-06-26T05:53:09.000Z</time>
      </trkpt>
      <trkpt lat="45.23472" lon="5.7584">
        <ele>1179</ele>
        <time>2021-06-26T05:53:10.000Z</time>
      </trkpt>
      <trkpt lat="45.23475" lon="5.7584">
        <ele>1180.1999511719</ele>
        <time>2021-06-26T05:53:13.000Z</time>
      </trkpt>
      <trkpt lat="45.23478" lon="5.75841">
        <ele>1181</ele>
        <time>2021-06-26T05:53:17.000Z</time>
      </trkpt>
      <trkpt lat="45.23479" lon="5.75841">
        <ele>1181.1999511719</ele>
        <time>2021-06-26T05:53:18.000Z</time>
      </trkpt>
      <trkpt lat="45.23485" lon="5.75837">
        <ele>1182.1999511719</ele>
        <time>2021-06-26T05:53:23.000Z</time>
      </trkpt>
      <trkpt lat="45.23487" lon="5.75835">
        <ele>1182.1999511719</ele>
        <time>2021-06-26T05:53:24.000Z</time>
      </trkpt>
      <trkpt lat="45.23488" lon="5.75833">
        <ele>1182.4000244141</ele>
        <time>2021-06-26T05:53:25.000Z</time>
      </trkpt>
      <trkpt lat="45.23488" lon="5.75833">
        <ele>1183</ele>
        <time>2021-06-26T05:53:26.000Z</time>
      </trkpt>
      <trkpt lat="45.23489" lon="5.75832">
        <ele>1183.5999755859</ele>
        <time>2021-06-26T05:53:27.000Z</time>
      </trkpt>
      <trkpt lat="45.23492" lon="5.7583">
        <ele>1184</ele>
        <time>2021-06-26T05:53:30.000Z</time>
      </trkpt>
      <trkpt lat="45.23494" lon="5.75828">
        <ele>1184.8000488281</ele>
        <time>2021-06-26T05:53:33.000Z</time>
      </trkpt>
      <trkpt lat="45.23496" lon="5.75826">
        <ele>1185</ele>
        <time>2021-06-26T05:53:35.000Z</time>
      </trkpt>
      <trkpt lat="45.23497" lon="5.75825">
        <ele>1185.8000488281</ele>
        <time>2021-06-26T05:53:36.000Z</time>
      </trkpt>
      <trkpt lat="45.23498" lon="5.75825">
        <ele>1186.1999511719</ele>
        <time>2021-06-26T05:53:37.000Z</time>
      </trkpt>
      <trkpt lat="45.23501" lon="5.75823">
        <ele>1186.5999755859</ele>
        <time>2021-06-26T05:53:40.000Z</time>
      </trkpt>
      <trkpt lat="45.23501" lon="5.75823">
        <ele>1187</ele>
        <time>2021-06-26T05:53:41.000Z</time>
      </trkpt>
      <trkpt lat="45.23502" lon="5.75823">
        <ele>1187.1999511719</ele>
        <time>2021-06-26T05:53:42.000Z</time>
      </trkpt>
      <trkpt lat="45.23502" lon="5.75823">
        <ele>1187.4000244141</ele>
        <time>2021-06-26T05:53:43.000Z</time>
      </trkpt>
      <trkpt lat="45.23504" lon="5.75824">
        <ele>1187.8000488281</ele>
        <time>2021-06-26T05:53:45.000Z</time>
      </trkpt>
      <trkpt lat="45.23507" lon="5.75823">
        <ele>1188.5999755859</ele>
        <time>2021-06-26T05:53:48.000Z</time>
      </trkpt>
      <trkpt lat="45.23509" lon="5.75822">
        <ele>1189.1999511719</ele>
        <time>2021-06-26T05:53:51.000Z</time>
      </trkpt>
      <trkpt lat="45.2351" lon="5.7582">
        <ele>1189.8000488281</ele>
        <time>2021-06-26T05:53:53.000Z</time>
      </trkpt>
      <trkpt lat="45.23512" lon="5.75819">
        <ele>1190.4000244141</ele>
        <time>2021-06-26T05:53:54.000Z</time>
      </trkpt>
      <trkpt lat="45.23514" lon="5.75816">
        <ele>1190.4000244141</ele>
        <time>2021-06-26T05:53:56.000Z</time>
      </trkpt>
      <trkpt lat="45.23517" lon="5.75813">
        <ele>1191.1999511719</ele>
        <time>2021-06-26T05:53:58.000Z</time>
      </trkpt>
      <trkpt lat="45.23518" lon="5.75812">
        <ele>1191.1999511719</ele>
        <time>2021-06-26T05:53:59.000Z</time>
      </trkpt>
      <trkpt lat="45.2352" lon="5.75812">
        <ele>1192.5999755859</ele>
        <time>2021-06-26T05:54:01.000Z</time>
      </trkpt>
      <trkpt lat="45.23521" lon="5.75811">
        <ele>1192.5999755859</ele>
        <time>2021-06-26T05:54:03.000Z</time>
      </trkpt>
      <trkpt lat="45.23523" lon="5.7581">
        <ele>1193.1999511719</ele>
        <time>2021-06-26T05:54:06.000Z</time>
      </trkpt>
      <trkpt lat="45.23524" lon="5.75809">
        <ele>1193.1999511719</ele>
        <time>2021-06-26T05:54:07.000Z</time>
      </trkpt>
      <trkpt lat="45.23526" lon="5.75807">
        <ele>1193.8000488281</ele>
        <time>2021-06-26T05:54:08.000Z</time>
      </trkpt>
      <trkpt lat="45.23529" lon="5.75805">
        <ele>1194</ele>
        <time>2021-06-26T05:54:10.000Z</time>
      </trkpt>
      <trkpt lat="45.23531" lon="5.75803">
        <ele>1194.4000244141</ele>
        <time>2021-06-26T05:54:11.000Z</time>
      </trkpt>
      <trkpt lat="45.23533" lon="5.75804">
        <ele>1195.5999755859</ele>
        <time>2021-06-26T05:54:13.000Z</time>
      </trkpt>
      <trkpt lat="45.23535" lon="5.75803">
        <ele>1196</ele>
        <time>2021-06-26T05:54:16.000Z</time>
      </trkpt>
      <trkpt lat="45.23538" lon="5.75802">
        <ele>1196.5999755859</ele>
        <time>2021-06-26T05:54:18.000Z</time>
      </trkpt>
      <trkpt lat="45.23542" lon="5.75798">
        <ele>1197.5999755859</ele>
        <time>2021-06-26T05:54:22.000Z</time>
      </trkpt>
      <trkpt lat="45.23543" lon="5.75796">
        <ele>1198.4000244141</ele>
        <time>2021-06-26T05:54:23.000Z</time>
      </trkpt>
      <trkpt lat="45.23544" lon="5.75795">
        <ele>1198.5999755859</ele>
        <time>2021-06-26T05:54:24.000Z</time>
      </trkpt>
      <trkpt lat="45.23546" lon="5.75794">
        <ele>1198.5999755859</ele>
        <time>2021-06-26T05:54:26.000Z</time>
      </trkpt>
      <trkpt lat="45.23547" lon="5.75794">
        <ele>1199.1999511719</ele>
        <time>2021-06-26T05:54:27.000Z</time>
      </trkpt>
      <trkpt lat="45.23548" lon="5.75793">
        <ele>1200</ele>
        <time>2021-06-26T05:54:29.000Z</time>
      </trkpt>
      <trkpt lat="45.23549" lon="5.75792">
        <ele>1200</ele>
        <time>2021-06-26T05:54:30.000Z</time>
      </trkpt>
      <trkpt lat="45.23551" lon="5.75791">
        <ele>1200</ele>
        <time>2021-06-26T05:54:31.000Z</time>
      </trkpt>
      <trkpt lat="45.23552" lon="5.75791">
        <ele>1200.4000244141</ele>
        <time>2021-06-26T05:54:32.000Z</time>
      </trkpt>
      <trkpt lat="45.23556" lon="5.7579">
        <ele>1201.5999755859</ele>
        <time>2021-06-26T05:54:35.000Z</time>
      </trkpt>
      <trkpt lat="45.23558" lon="5.75788">
        <ele>1202.5999755859</ele>
        <time>2021-06-26T05:54:38.000Z</time>
      </trkpt>
      <trkpt lat="45.23562" lon="5.75786">
        <ele>1202.8000488281</ele>
        <time>2021-06-26T05:54:41.000Z</time>
      </trkpt>
      <trkpt lat="45.23564" lon="5.75786">
        <ele>1204</ele>
        <time>2021-06-26T05:54:43.000Z</time>
      </trkpt>
      <trkpt lat="45.23567" lon="5.75785">
        <ele>1205</ele>
        <time>2021-06-26T05:54:47.000Z</time>
      </trkpt>
      <trkpt lat="45.23568" lon="5.75784">
        <ele>1205.5999755859</ele>
        <time>2021-06-26T05:54:48.000Z</time>
      </trkpt>
      <trkpt lat="45.23569" lon="5.75784">
        <ele>1205.5999755859</ele>
        <time>2021-06-26T05:54:49.000Z</time>
      </trkpt>
      <trkpt lat="45.23572" lon="5.75783">
        <ele>1206.1999511719</ele>
        <time>2021-06-26T05:54:52.000Z</time>
      </trkpt>
      <trkpt lat="45.23574" lon="5.75783">
        <ele>1206.8000488281</ele>
        <time>2021-06-26T05:54:53.000Z</time>
      </trkpt>
      <trkpt lat="45.23575" lon="5.75782">
        <ele>1207.8000488281</ele>
        <time>2021-06-26T05:54:54.000Z</time>
      </trkpt>
      <trkpt lat="45.23576" lon="5.75782">
        <ele>1207.8000488281</ele>
        <time>2021-06-26T05:54:56.000Z</time>
      </trkpt>
      <trkpt lat="45.2358" lon="5.7578">
        <ele>1208.1999511719</ele>
        <time>2021-06-26T05:54:59.000Z</time>
      </trkpt>
      <trkpt lat="45.23581" lon="5.7578">
        <ele>1208.8000488281</ele>
        <time>2021-06-26T05:55:00.000Z</time>
      </trkpt>
      <trkpt lat="45.23584" lon="5.75779">
        <ele>1209</ele>
        <time>2021-06-26T05:55:02.000Z</time>
      </trkpt>
      <trkpt lat="45.23585" lon="5.75779">
        <ele>1209</ele>
        <time>2021-06-26T05:55:03.000Z</time>
      </trkpt>
      <trkpt lat="45.23589" lon="5.75779">
        <ele>1210.1999511719</ele>
        <time>2021-06-26T05:55:07.000Z</time>
      </trkpt>
      <trkpt lat="45.2359" lon="5.75779">
        <ele>1211</ele>
        <time>2021-06-26T05:55:09.000Z</time>
      </trkpt>
      <trkpt lat="45.23591" lon="5.75778">
        <ele>1211.1999511719</ele>
        <time>2021-06-26T05:55:10.000Z</time>
      </trkpt>
      <trkpt lat="45.23592" lon="5.75778">
        <ele>1211.4000244141</ele>
        <time>2021-06-26T05:55:11.000Z</time>
      </trkpt>
      <trkpt lat="45.23593" lon="5.75778">
        <ele>1211.5999755859</ele>
        <time>2021-06-26T05:55:12.000Z</time>
      </trkpt>
      <trkpt lat="45.23594" lon="5.75777">
        <ele>1211.5999755859</ele>
        <time>2021-06-26T05:55:13.000Z</time>
      </trkpt>
      <trkpt lat="45.23595" lon="5.75777">
        <ele>1211.8000488281</ele>
        <time>2021-06-26T05:55:14.000Z</time>
      </trkpt>
      <trkpt lat="45.23596" lon="5.75777">
        <ele>1212</ele>
        <time>2021-06-26T05:55:15.000Z</time>
      </trkpt>
      <trkpt lat="45.23599" lon="5.75777">
        <ele>1213.1999511719</ele>
        <time>2021-06-26T05:55:17.000Z</time>
      </trkpt>
      <trkpt lat="45.23604" lon="5.75779">
        <ele>1213.4000244141</ele>
        <time>2021-06-26T05:55:19.000Z</time>
      </trkpt>
      <trkpt lat="45.23605" lon="5.75786">
        <ele>1214.1999511719</ele>
        <time>2021-06-26T05:55:23.000Z</time>
      </trkpt>
      <trkpt lat="45.23604" lon="5.75787">
        <ele>1214.8000488281</ele>
        <time>2021-06-26T05:55:25.000Z</time>
      </trkpt>
      <trkpt lat="45.23602" lon="5.75789">
        <ele>1215.1999511719</ele>
        <time>2021-06-26T05:55:28.000Z</time>
      </trkpt>
      <trkpt lat="45.23601" lon="5.75792">
        <ele>1215.8000488281</ele>
        <time>2021-06-26T05:55:30.000Z</time>
      </trkpt>
      <trkpt lat="45.236" lon="5.75793">
        <ele>1215.8000488281</ele>
        <time>2021-06-26T05:55:31.000Z</time>
      </trkpt>
      <trkpt lat="45.23599" lon="5.75798">
        <ele>1216.5999755859</ele>
        <time>2021-06-26T05:55:34.000Z</time>
      </trkpt>
      <trkpt lat="45.23597" lon="5.75801">
        <ele>1217.1999511719</ele>
        <time>2021-06-26T05:55:36.000Z</time>
      </trkpt>
      <trkpt lat="45.23594" lon="5.75806">
        <ele>1218</ele>
        <time>2021-06-26T05:55:41.000Z</time>
      </trkpt>
      <trkpt lat="45.23595" lon="5.75807">
        <ele>1218.8000488281</ele>
        <time>2021-06-26T05:55:42.000Z</time>
      </trkpt>
      <trkpt lat="45.23597" lon="5.75812">
        <ele>1219.4000244141</ele>
        <time>2021-06-26T05:55:45.000Z</time>
      </trkpt>
      <trkpt lat="45.23596" lon="5.75812">
        <ele>1219.4000244141</ele>
        <time>2021-06-26T05:55:46.000Z</time>
      </trkpt>
      <trkpt lat="45.23596" lon="5.75812">
        <ele>1219.8000488281</ele>
        <time>2021-06-26T05:55:47.000Z</time>
      </trkpt>
      <trkpt lat="45.23596" lon="5.75812">
        <ele>1220</ele>
        <time>2021-06-26T05:55:48.000Z</time>
      </trkpt>
      <trkpt lat="45.23596" lon="5.75813">
        <ele>1220.1999511719</ele>
        <time>2021-06-26T05:55:49.000Z</time>
      </trkpt>
      <trkpt lat="45.23594" lon="5.75816">
        <ele>1221.1999511719</ele>
        <time>2021-06-26T05:55:51.000Z</time>
      </trkpt>
      <trkpt lat="45.23594" lon="5.75816">
        <ele>1221.1999511719</ele>
        <time>2021-06-26T05:55:52.000Z</time>
      </trkpt>
      <trkpt lat="45.23592" lon="5.75819">
        <ele>1222.1999511719</ele>
        <time>2021-06-26T05:55:54.000Z</time>
      </trkpt>
      <trkpt lat="45.23591" lon="5.75821">
        <ele>1222.1999511719</ele>
        <time>2021-06-26T05:55:55.000Z</time>
      </trkpt>
      <trkpt lat="45.23591" lon="5.75824">
        <ele>1222.4000244141</ele>
        <time>2021-06-26T05:55:56.000Z</time>
      </trkpt>
      <trkpt lat="45.23591" lon="5.75826">
        <ele>1222.4000244141</ele>
        <time>2021-06-26T05:55:58.000Z</time>
      </trkpt>
      <trkpt lat="45.2359" lon="5.75828">
        <ele>1222.8000488281</ele>
        <time>2021-06-26T05:55:59.000Z</time>
      </trkpt>
      <trkpt lat="45.23589" lon="5.7583">
        <ele>1223.4000244141</ele>
        <time>2021-06-26T05:56:00.000Z</time>
      </trkpt>
      <trkpt lat="45.23588" lon="5.7583">
        <ele>1223.4000244141</ele>
        <time>2021-06-26T05:56:01.000Z</time>
      </trkpt>
      <trkpt lat="45.23585" lon="5.75832">
        <ele>1223.8000488281</ele>
        <time>2021-06-26T05:56:03.000Z</time>
      </trkpt>
      <trkpt lat="45.23584" lon="5.75836">
        <ele>1224.5999755859</ele>
        <time>2021-06-26T05:56:05.000Z</time>
      </trkpt>
      <trkpt lat="45.23584" lon="5.75837">
        <ele>1224.8000488281</ele>
        <time>2021-06-26T05:56:06.000Z</time>
      </trkpt>
      <trkpt lat="45.23584" lon="5.7584">
        <ele>1225</ele>
        <time>2021-06-26T05:56:08.000Z</time>
      </trkpt>
      <trkpt lat="45.23583" lon="5.75843">
        <ele>1225.5999755859</ele>
        <time>2021-06-26T05:56:10.000Z</time>
      </trkpt>
      <trkpt lat="45.23581" lon="5.75847">
        <ele>1226.1999511719</ele>
        <time>2021-06-26T05:56:13.000Z</time>
      </trkpt>
      <trkpt lat="45.2358" lon="5.75851">
        <ele>1226.8000488281</ele>
        <time>2021-06-26T05:56:15.000Z</time>
      </trkpt>
      <trkpt lat="45.23579" lon="5.75852">
        <ele>1227</ele>
        <time>2021-06-26T05:56:16.000Z</time>
      </trkpt>
      <trkpt lat="45.23578" lon="5.75854">
        <ele>1227.1999511719</ele>
        <time>2021-06-26T05:56:17.000Z</time>
      </trkpt>
      <trkpt lat="45.23577" lon="5.75854">
        <ele>1227.5999755859</ele>
        <time>2021-06-26T05:56:19.000Z</time>
      </trkpt>
      <trkpt lat="45.23576" lon="5.75856">
        <ele>1228.1999511719</ele>
        <time>2021-06-26T05:56:21.000Z</time>
      </trkpt>
      <trkpt lat="45.23573" lon="5.7586">
        <ele>1228.8000488281</ele>
        <time>2021-06-26T05:56:24.000Z</time>
      </trkpt>
      <trkpt lat="45.23572" lon="5.75864">
        <ele>1229.4000244141</ele>
        <time>2021-06-26T05:56:26.000Z</time>
      </trkpt>
      <trkpt lat="45.23572" lon="5.75866">
        <ele>1229.8000488281</ele>
        <time>2021-06-26T05:56:28.000Z</time>
      </trkpt>
      <trkpt lat="45.23573" lon="5.7587">
        <ele>1230.4000244141</ele>
        <time>2021-06-26T05:56:31.000Z</time>
      </trkpt>
      <trkpt lat="45.23573" lon="5.75871">
        <ele>1230.5999755859</ele>
        <time>2021-06-26T05:56:32.000Z</time>
      </trkpt>
      <trkpt lat="45.23573" lon="5.75872">
        <ele>1231</ele>
        <time>2021-06-26T05:56:33.000Z</time>
      </trkpt>
      <trkpt lat="45.23573" lon="5.75873">
        <ele>1231.1999511719</ele>
        <time>2021-06-26T05:56:34.000Z</time>
      </trkpt>
      <trkpt lat="45.23573" lon="5.75874">
        <ele>1231.4000244141</ele>
        <time>2021-06-26T05:56:35.000Z</time>
      </trkpt>
      <trkpt lat="45.23571" lon="5.75877">
        <ele>1232.4000244141</ele>
        <time>2021-06-26T05:56:38.000Z</time>
      </trkpt>
      <trkpt lat="45.2357" lon="5.75878">
        <ele>1232.4000244141</ele>
        <time>2021-06-26T05:56:39.000Z</time>
      </trkpt>
      <trkpt lat="45.2357" lon="5.75879">
        <ele>1232.8000488281</ele>
        <time>2021-06-26T05:56:40.000Z</time>
      </trkpt>
      <trkpt lat="45.23569" lon="5.7588">
        <ele>1234</ele>
        <time>2021-06-26T05:56:42.000Z</time>
      </trkpt>
      <trkpt lat="45.23568" lon="5.75881">
        <ele>1234</ele>
        <time>2021-06-26T05:56:43.000Z</time>
      </trkpt>
      <trkpt lat="45.23567" lon="5.75882">
        <ele>1234</ele>
        <time>2021-06-26T05:56:44.000Z</time>
      </trkpt>
      <trkpt lat="45.23565" lon="5.75886">
        <ele>1234.1999511719</ele>
        <time>2021-06-26T05:56:46.000Z</time>
      </trkpt>
      <trkpt lat="45.23561" lon="5.75892">
        <ele>1235</ele>
        <time>2021-06-26T05:56:50.000Z</time>
      </trkpt>
      <trkpt lat="45.2356" lon="5.75896">
        <ele>1235.8000488281</ele>
        <time>2021-06-26T05:56:53.000Z</time>
      </trkpt>
      <trkpt lat="45.23558" lon="5.75898">
        <ele>1236.1999511719</ele>
        <time>2021-06-26T05:56:54.000Z</time>
      </trkpt>
      <trkpt lat="45.23554" lon="5.75906">
        <ele>1237.4000244141</ele>
        <time>2021-06-26T05:56:58.000Z</time>
      </trkpt>
      <trkpt lat="45.23553" lon="5.75907">
        <ele>1237.5999755859</ele>
        <time>2021-06-26T05:56:59.000Z</time>
      </trkpt>
      <trkpt lat="45.23553" lon="5.7591">
        <ele>1238.4000244141</ele>
        <time>2021-06-26T05:57:01.000Z</time>
      </trkpt>
      <trkpt lat="45.23552" lon="5.75914">
        <ele>1238.5999755859</ele>
        <time>2021-06-26T05:57:02.000Z</time>
      </trkpt>
      <trkpt lat="45.23551" lon="5.75917">
        <ele>1238.8000488281</ele>
        <time>2021-06-26T05:57:03.000Z</time>
      </trkpt>
      <trkpt lat="45.23549" lon="5.75919">
        <ele>1239</ele>
        <time>2021-06-26T05:57:04.000Z</time>
      </trkpt>
      <trkpt lat="45.23544" lon="5.75927">
        <ele>1239.8000488281</ele>
        <time>2021-06-26T05:57:08.000Z</time>
      </trkpt>
      <trkpt lat="45.23543" lon="5.75932">
        <ele>1240.8000488281</ele>
        <time>2021-06-26T05:57:11.000Z</time>
      </trkpt>
      <trkpt lat="45.23544" lon="5.75936">
        <ele>1241</ele>
        <time>2021-06-26T05:57:13.000Z</time>
      </trkpt>
      <trkpt lat="45.23543" lon="5.75937">
        <ele>1241.8000488281</ele>
        <time>2021-06-26T05:57:14.000Z</time>
      </trkpt>
      <trkpt lat="45.23541" lon="5.75941">
        <ele>1242.5999755859</ele>
        <time>2021-06-26T05:57:17.000Z</time>
      </trkpt>
      <trkpt lat="45.2354" lon="5.75945">
        <ele>1243</ele>
        <time>2021-06-26T05:57:19.000Z</time>
      </trkpt>
      <trkpt lat="45.23539" lon="5.75947">
        <ele>1243.4000244141</ele>
        <time>2021-06-26T05:57:20.000Z</time>
      </trkpt>
      <trkpt lat="45.23536" lon="5.75954">
        <ele>1244</ele>
        <time>2021-06-26T05:57:23.000Z</time>
      </trkpt>
      <trkpt lat="45.23532" lon="5.75965">
        <ele>1245.4000244141</ele>
        <time>2021-06-26T05:57:28.000Z</time>
      </trkpt>
      <trkpt lat="45.23532" lon="5.75969">
        <ele>1246</ele>
        <time>2021-06-26T05:57:30.000Z</time>
      </trkpt>
      <trkpt lat="45.23531" lon="5.7597">
        <ele>1246.1999511719</ele>
        <time>2021-06-26T05:57:31.000Z</time>
      </trkpt>
      <trkpt lat="45.2353" lon="5.75971">
        <ele>1246.1999511719</ele>
        <time>2021-06-26T05:57:32.000Z</time>
      </trkpt>
      <trkpt lat="45.23529" lon="5.75971">
        <ele>1246.5999755859</ele>
        <time>2021-06-26T05:57:33.000Z</time>
      </trkpt>
      <trkpt lat="45.23528" lon="5.75972">
        <ele>1247.1999511719</ele>
        <time>2021-06-26T05:57:36.000Z</time>
      </trkpt>
      <trkpt lat="45.23527" lon="5.75975">
        <ele>1247.8000488281</ele>
        <time>2021-06-26T05:57:38.000Z</time>
      </trkpt>
      <trkpt lat="45.23526" lon="5.75977">
        <ele>1248</ele>
        <time>2021-06-26T05:57:40.000Z</time>
      </trkpt>
      <trkpt lat="45.23525" lon="5.7598">
        <ele>1248.1999511719</ele>
        <time>2021-06-26T05:57:42.000Z</time>
      </trkpt>
      <trkpt lat="45.23525" lon="5.7598">
        <ele>1248.8000488281</ele>
        <time>2021-06-26T05:57:43.000Z</time>
      </trkpt>
      <trkpt lat="45.23524" lon="5.75981">
        <ele>1249</ele>
        <time>2021-06-26T05:57:44.000Z</time>
      </trkpt>
      <trkpt lat="45.23522" lon="5.75985">
        <ele>1250</ele>
        <time>2021-06-26T05:57:46.000Z</time>
      </trkpt>
      <trkpt lat="45.2352" lon="5.75987">
        <ele>1250</ele>
        <time>2021-06-26T05:57:47.000Z</time>
      </trkpt>
      <trkpt lat="45.23518" lon="5.75991">
        <ele>1250.4000244141</ele>
        <time>2021-06-26T05:57:49.000Z</time>
      </trkpt>
      <trkpt lat="45.23516" lon="5.75995">
        <ele>1251.1999511719</ele>
        <time>2021-06-26T05:57:51.000Z</time>
      </trkpt>
      <trkpt lat="45.23515" lon="5.75998">
        <ele>1251.5999755859</ele>
        <time>2021-06-26T05:57:53.000Z</time>
      </trkpt>
      <trkpt lat="45.23515" lon="5.76001">
        <ele>1251.5999755859</ele>
        <time>2021-06-26T05:57:55.000Z</time>
      </trkpt>
      <trkpt lat="45.23512" lon="5.76005">
        <ele>1252</ele>
        <time>2021-06-26T05:57:57.000Z</time>
      </trkpt>
      <trkpt lat="45.23511" lon="5.76007">
        <ele>1252.8000488281</ele>
        <time>2021-06-26T05:57:58.000Z</time>
      </trkpt>
      <trkpt lat="45.23511" lon="5.76009">
        <ele>1253</ele>
        <time>2021-06-26T05:57:59.000Z</time>
      </trkpt>
      <trkpt lat="45.23512" lon="5.76012">
        <ele>1254</ele>
        <time>2021-06-26T05:58:03.000Z</time>
      </trkpt>
      <trkpt lat="45.23515" lon="5.7601">
        <ele>1254.5999755859</ele>
        <time>2021-06-26T05:58:07.000Z</time>
      </trkpt>
      <trkpt lat="45.23515" lon="5.76009">
        <ele>1255.4000244141</ele>
        <time>2021-06-26T05:58:08.000Z</time>
      </trkpt>
      <trkpt lat="45.23516" lon="5.76007">
        <ele>1255.8000488281</ele>
        <time>2021-06-26T05:58:10.000Z</time>
      </trkpt>
      <trkpt lat="45.23518" lon="5.76004">
        <ele>1256.4000244141</ele>
        <time>2021-06-26T05:58:13.000Z</time>
      </trkpt>
      <trkpt lat="45.23519" lon="5.76">
        <ele>1257.4000244141</ele>
        <time>2021-06-26T05:58:16.000Z</time>
      </trkpt>
      <trkpt lat="45.2352" lon="5.75999">
        <ele>1257.5999755859</ele>
        <time>2021-06-26T05:58:17.000Z</time>
      </trkpt>
      <trkpt lat="45.23521" lon="5.75998">
        <ele>1257.8000488281</ele>
        <time>2021-06-26T05:58:19.000Z</time>
      </trkpt>
      <trkpt lat="45.23525" lon="5.75996">
        <ele>1258.8000488281</ele>
        <time>2021-06-26T05:58:22.000Z</time>
      </trkpt>
      <trkpt lat="45.23527" lon="5.75993">
        <ele>1259.8000488281</ele>
        <time>2021-06-26T05:58:25.000Z</time>
      </trkpt>
      <trkpt lat="45.23528" lon="5.75993">
        <ele>1260</ele>
        <time>2021-06-26T05:58:26.000Z</time>
      </trkpt>
      <trkpt lat="45.2353" lon="5.75988">
        <ele>1260.8000488281</ele>
        <time>2021-06-26T05:58:30.000Z</time>
      </trkpt>
      <trkpt lat="45.23531" lon="5.75987">
        <ele>1260.8000488281</ele>
        <time>2021-06-26T05:58:31.000Z</time>
      </trkpt>
      <trkpt lat="45.23532" lon="5.75986">
        <ele>1261</ele>
        <time>2021-06-26T05:58:32.000Z</time>
      </trkpt>
      <trkpt lat="45.23533" lon="5.75986">
        <ele>1261.8000488281</ele>
        <time>2021-06-26T05:58:34.000Z</time>
      </trkpt>
      <trkpt lat="45.23534" lon="5.75985">
        <ele>1262</ele>
        <time>2021-06-26T05:58:35.000Z</time>
      </trkpt>
      <trkpt lat="45.23538" lon="5.75984">
        <ele>1262.8000488281</ele>
        <time>2021-06-26T05:58:38.000Z</time>
      </trkpt>
      <trkpt lat="45.23539" lon="5.75982">
        <ele>1263</ele>
        <time>2021-06-26T05:58:40.000Z</time>
      </trkpt>
      <trkpt lat="45.2354" lon="5.75982">
        <ele>1263</ele>
        <time>2021-06-26T05:58:41.000Z</time>
      </trkpt>
      <trkpt lat="45.23542" lon="5.75981">
        <ele>1264.1999511719</ele>
        <time>2021-06-26T05:58:43.000Z</time>
      </trkpt>
      <trkpt lat="45.23543" lon="5.7598">
        <ele>1264.1999511719</ele>
        <time>2021-06-26T05:58:44.000Z</time>
      </trkpt>
      <trkpt lat="45.23544" lon="5.7598">
        <ele>1264.5999755859</ele>
        <time>2021-06-26T05:58:45.000Z</time>
      </trkpt>
      <trkpt lat="45.23549" lon="5.75977">
        <ele>1265.5999755859</ele>
        <time>2021-06-26T05:58:50.000Z</time>
      </trkpt>
      <trkpt lat="45.23552" lon="5.75973">
        <ele>1266.8000488281</ele>
        <time>2021-06-26T05:58:54.000Z</time>
      </trkpt>
      <trkpt lat="45.23555" lon="5.75971">
        <ele>1266.8000488281</ele>
        <time>2021-06-26T05:58:56.000Z</time>
      </trkpt>
      <trkpt lat="45.23556" lon="5.75971">
        <ele>1267</ele>
        <time>2021-06-26T05:58:57.000Z</time>
      </trkpt>
      <trkpt lat="45.23558" lon="5.75971">
        <ele>1268</ele>
        <time>2021-06-26T05:58:58.000Z</time>
      </trkpt>
      <trkpt lat="45.23562" lon="5.75967">
        <ele>1268.8000488281</ele>
        <time>2021-06-26T05:59:03.000Z</time>
      </trkpt>
      <trkpt lat="45.23563" lon="5.75966">
        <ele>1269.4000244141</ele>
        <time>2021-06-26T05:59:04.000Z</time>
      </trkpt>
      <trkpt lat="45.23566" lon="5.75962">
        <ele>1270.4000244141</ele>
        <time>2021-06-26T05:59:07.000Z</time>
      </trkpt>
      <trkpt lat="45.2357" lon="5.7596">
        <ele>1271.1999511719</ele>
        <time>2021-06-26T05:59:11.000Z</time>
      </trkpt>
      <trkpt lat="45.23572" lon="5.75959">
        <ele>1272</ele>
        <time>2021-06-26T05:59:13.000Z</time>
      </trkpt>
      <trkpt lat="45.23576" lon="5.75957">
        <ele>1273</ele>
        <time>2021-06-26T05:59:17.000Z</time>
      </trkpt>
      <trkpt lat="45.23577" lon="5.75955">
        <ele>1273.1999511719</ele>
        <time>2021-06-26T05:59:19.000Z</time>
      </trkpt>
      <trkpt lat="45.23579" lon="5.75954">
        <ele>1273.5999755859</ele>
        <time>2021-06-26T05:59:21.000Z</time>
      </trkpt>
      <trkpt lat="45.2358" lon="5.75954">
        <ele>1274.1999511719</ele>
        <time>2021-06-26T05:59:22.000Z</time>
      </trkpt>
      <trkpt lat="45.2358" lon="5.75953">
        <ele>1274.4000244141</ele>
        <time>2021-06-26T05:59:23.000Z</time>
      </trkpt>
      <trkpt lat="45.23582" lon="5.75952">
        <ele>1275.1999511719</ele>
        <time>2021-06-26T05:59:26.000Z</time>
      </trkpt>
      <trkpt lat="45.23583" lon="5.75952">
        <ele>1275.1999511719</ele>
        <time>2021-06-26T05:59:27.000Z</time>
      </trkpt>
      <trkpt lat="45.23585" lon="5.7595">
        <ele>1275.4000244141</ele>
        <time>2021-06-26T05:59:28.000Z</time>
      </trkpt>
      <trkpt lat="45.23586" lon="5.7595">
        <ele>1275.4000244141</ele>
        <time>2021-06-26T05:59:29.000Z</time>
      </trkpt>
      <trkpt lat="45.23589" lon="5.75948">
        <ele>1276.8000488281</ele>
        <time>2021-06-26T05:59:31.000Z</time>
      </trkpt>
      <trkpt lat="45.23592" lon="5.75947">
        <ele>1277.1999511719</ele>
        <time>2021-06-26T05:59:34.000Z</time>
      </trkpt>
      <trkpt lat="45.23596" lon="5.75945">
        <ele>1277.8000488281</ele>
        <time>2021-06-26T05:59:37.000Z</time>
      </trkpt>
      <trkpt lat="45.236" lon="5.75942">
        <ele>1278.1999511719</ele>
        <time>2021-06-26T05:59:40.000Z</time>
      </trkpt>
      <trkpt lat="45.23602" lon="5.75941">
        <ele>1279.1999511719</ele>
        <time>2021-06-26T05:59:42.000Z</time>
      </trkpt>
      <trkpt lat="45.23608" lon="5.75935">
        <ele>1280.1999511719</ele>
        <time>2021-06-26T05:59:47.000Z</time>
      </trkpt>
      <trkpt lat="45.2361" lon="5.75934">
        <ele>1281.5999755859</ele>
        <time>2021-06-26T05:59:49.000Z</time>
      </trkpt>
      <trkpt lat="45.23613" lon="5.75933">
        <ele>1282</ele>
        <time>2021-06-26T05:59:52.000Z</time>
      </trkpt>
      <trkpt lat="45.23614" lon="5.75932">
        <ele>1282.1999511719</ele>
        <time>2021-06-26T05:59:53.000Z</time>
      </trkpt>
      <trkpt lat="45.23617" lon="5.75931">
        <ele>1282.8000488281</ele>
        <time>2021-06-26T05:59:56.000Z</time>
      </trkpt>
      <trkpt lat="45.23619" lon="5.75931">
        <ele>1283.5999755859</ele>
        <time>2021-06-26T05:59:58.000Z</time>
      </trkpt>
      <trkpt lat="45.23623" lon="5.75931">
        <ele>1283.8000488281</ele>
        <time>2021-06-26T06:00:00.000Z</time>
      </trkpt>
      <trkpt lat="45.23626" lon="5.75931">
        <ele>1284.4000244141</ele>
        <time>2021-06-26T06:00:02.000Z</time>
      </trkpt>
      <trkpt lat="45.23627" lon="5.75932">
        <ele>1285.4000244141</ele>
        <time>2021-06-26T06:00:04.000Z</time>
      </trkpt>
      <trkpt lat="45.23628" lon="5.75932">
        <ele>1285.4000244141</ele>
        <time>2021-06-26T06:00:05.000Z</time>
      </trkpt>
      <trkpt lat="45.23626" lon="5.75935">
        <ele>1286</ele>
        <time>2021-06-26T06:00:08.000Z</time>
      </trkpt>
      <trkpt lat="45.23626" lon="5.75937">
        <ele>1286.1999511719</ele>
        <time>2021-06-26T06:00:09.000Z</time>
      </trkpt>
      <trkpt lat="45.23626" lon="5.7594">
        <ele>1286.4000244141</ele>
        <time>2021-06-26T06:00:10.000Z</time>
      </trkpt>
      <trkpt lat="45.23626" lon="5.75943">
        <ele>1287.1999511719</ele>
        <time>2021-06-26T06:00:12.000Z</time>
      </trkpt>
      <trkpt lat="45.23625" lon="5.75944">
        <ele>1287.5999755859</ele>
        <time>2021-06-26T06:00:14.000Z</time>
      </trkpt>
      <trkpt lat="45.23624" lon="5.75945">
        <ele>1288</ele>
        <time>2021-06-26T06:00:15.000Z</time>
      </trkpt>
      <trkpt lat="45.23623" lon="5.75946">
        <ele>1288</ele>
        <time>2021-06-26T06:00:17.000Z</time>
      </trkpt>
      <trkpt lat="45.23623" lon="5.75948">
        <ele>1288.1999511719</ele>
        <time>2021-06-26T06:00:18.000Z</time>
      </trkpt>
      <trkpt lat="45.23622" lon="5.7595">
        <ele>1288.4000244141</ele>
        <time>2021-06-26T06:00:20.000Z</time>
      </trkpt>
      <trkpt lat="45.23621" lon="5.75951">
        <ele>1288.8000488281</ele>
        <time>2021-06-26T06:00:21.000Z</time>
      </trkpt>
      <trkpt lat="45.23621" lon="5.75952">
        <ele>1289</ele>
        <time>2021-06-26T06:00:22.000Z</time>
      </trkpt>
      <trkpt lat="45.2362" lon="5.75955">
        <ele>1289.8000488281</ele>
        <time>2021-06-26T06:00:25.000Z</time>
      </trkpt>
      <trkpt lat="45.23619" lon="5.75956">
        <ele>1290</ele>
        <time>2021-06-26T06:00:26.000Z</time>
      </trkpt>
      <trkpt lat="45.23618" lon="5.75958">
        <ele>1290.1999511719</ele>
        <time>2021-06-26T06:00:27.000Z</time>
      </trkpt>
      <trkpt lat="45.23617" lon="5.7596">
        <ele>1290.5999755859</ele>
        <time>2021-06-26T06:00:29.000Z</time>
      </trkpt>
      <trkpt lat="45.23615" lon="5.75961">
        <ele>1291.1999511719</ele>
        <time>2021-06-26T06:00:31.000Z</time>
      </trkpt>
      <trkpt lat="45.23614" lon="5.75962">
        <ele>1291.4000244141</ele>
        <time>2021-06-26T06:00:32.000Z</time>
      </trkpt>
      <trkpt lat="45.2361" lon="5.75967">
        <ele>1292.1999511719</ele>
        <time>2021-06-26T06:00:36.000Z</time>
      </trkpt>
      <trkpt lat="45.23609" lon="5.75969">
        <ele>1292.4000244141</ele>
        <time>2021-06-26T06:00:37.000Z</time>
      </trkpt>
      <trkpt lat="45.23608" lon="5.7597">
        <ele>1293</ele>
        <time>2021-06-26T06:00:38.000Z</time>
      </trkpt>
      <trkpt lat="45.23607" lon="5.75971">
        <ele>1293.4000244141</ele>
        <time>2021-06-26T06:00:39.000Z</time>
      </trkpt>
      <trkpt lat="45.23606" lon="5.75974">
        <ele>1293.8000488281</ele>
        <time>2021-06-26T06:00:41.000Z</time>
      </trkpt>
      <trkpt lat="45.23603" lon="5.75982">
        <ele>1294.5999755859</ele>
        <time>2021-06-26T06:00:45.000Z</time>
      </trkpt>
      <trkpt lat="45.23602" lon="5.75984">
        <ele>1295.1999511719</ele>
        <time>2021-06-26T06:00:47.000Z</time>
      </trkpt>
      <trkpt lat="45.23602" lon="5.75986">
        <ele>1295.1999511719</ele>
        <time>2021-06-26T06:00:48.000Z</time>
      </trkpt>
      <trkpt lat="45.23602" lon="5.75986">
        <ele>1295.5999755859</ele>
        <time>2021-06-26T06:00:49.000Z</time>
      </trkpt>
      <trkpt lat="45.236" lon="5.75989">
        <ele>1296.4000244141</ele>
        <time>2021-06-26T06:00:52.000Z</time>
      </trkpt>
      <trkpt lat="45.23599" lon="5.75993">
        <ele>1296.8000488281</ele>
        <time>2021-06-26T06:00:55.000Z</time>
      </trkpt>
      <trkpt lat="45.23598" lon="5.75994">
        <ele>1297.4000244141</ele>
        <time>2021-06-26T06:00:56.000Z</time>
      </trkpt>
      <trkpt lat="45.23597" lon="5.75997">
        <ele>1297.8000488281</ele>
        <time>2021-06-26T06:00:58.000Z</time>
      </trkpt>
      <trkpt lat="45.23597" lon="5.75998">
        <ele>1297.8000488281</ele>
        <time>2021-06-26T06:00:59.000Z</time>
      </trkpt>
      <trkpt lat="45.23594" lon="5.76">
        <ele>1298.5999755859</ele>
        <time>2021-06-26T06:01:02.000Z</time>
      </trkpt>
      <trkpt lat="45.23591" lon="5.76002">
        <ele>1299.1999511719</ele>
        <time>2021-06-26T06:01:04.000Z</time>
      </trkpt>
      <trkpt lat="45.23587" lon="5.76005">
        <ele>1300.4000244141</ele>
        <time>2021-06-26T06:01:09.000Z</time>
      </trkpt>
      <trkpt lat="45.23587" lon="5.76006">
        <ele>1300.8000488281</ele>
        <time>2021-06-26T06:01:10.000Z</time>
      </trkpt>
      <trkpt lat="45.23587" lon="5.76007">
        <ele>1301.1999511719</ele>
        <time>2021-06-26T06:01:11.000Z</time>
      </trkpt>
      <trkpt lat="45.23587" lon="5.76009">
        <ele>1302</ele>
        <time>2021-06-26T06:01:12.000Z</time>
      </trkpt>
      <trkpt lat="45.23584" lon="5.76022">
        <ele>1302.8000488281</ele>
        <time>2021-06-26T06:01:17.000Z</time>
      </trkpt>
      <trkpt lat="45.23583" lon="5.76026">
        <ele>1303</ele>
        <time>2021-06-26T06:01:19.000Z</time>
      </trkpt>
      <trkpt lat="45.23582" lon="5.76028">
        <ele>1304</ele>
        <time>2021-06-26T06:01:20.000Z</time>
      </trkpt>
      <trkpt lat="45.23578" lon="5.76031">
        <ele>1304.4000244141</ele>
        <time>2021-06-26T06:01:23.000Z</time>
      </trkpt>
      <trkpt lat="45.23576" lon="5.76035">
        <ele>1305.1999511719</ele>
        <time>2021-06-26T06:01:26.000Z</time>
      </trkpt>
      <trkpt lat="45.23576" lon="5.76036">
        <ele>1305.5999755859</ele>
        <time>2021-06-26T06:01:27.000Z</time>
      </trkpt>
      <trkpt lat="45.23576" lon="5.76039">
        <ele>1305.8000488281</ele>
        <time>2021-06-26T06:01:28.000Z</time>
      </trkpt>
      <trkpt lat="45.23575" lon="5.7604">
        <ele>1305.8000488281</ele>
        <time>2021-06-26T06:01:29.000Z</time>
      </trkpt>
      <trkpt lat="45.23574" lon="5.76042">
        <ele>1306.5999755859</ele>
        <time>2021-06-26T06:01:31.000Z</time>
      </trkpt>
      <trkpt lat="45.23573" lon="5.76044">
        <ele>1306.8000488281</ele>
        <time>2021-06-26T06:01:33.000Z</time>
      </trkpt>
      <trkpt lat="45.23573" lon="5.76044">
        <ele>1307</ele>
        <time>2021-06-26T06:01:34.000Z</time>
      </trkpt>
      <trkpt lat="45.23573" lon="5.76046">
        <ele>1307.8000488281</ele>
        <time>2021-06-26T06:01:35.000Z</time>
      </trkpt>
      <trkpt lat="45.23573" lon="5.7605">
        <ele>1308</ele>
        <time>2021-06-26T06:01:37.000Z</time>
      </trkpt>
      <trkpt lat="45.23571" lon="5.76052">
        <ele>1308.8000488281</ele>
        <time>2021-06-26T06:01:39.000Z</time>
      </trkpt>
      <trkpt lat="45.23571" lon="5.76052">
        <ele>1308.8000488281</ele>
        <time>2021-06-26T06:01:40.000Z</time>
      </trkpt>
      <trkpt lat="45.2357" lon="5.76053">
        <ele>1309</ele>
        <time>2021-06-26T06:01:41.000Z</time>
      </trkpt>
      <trkpt lat="45.23569" lon="5.76053">
        <ele>1310.1999511719</ele>
        <time>2021-06-26T06:01:43.000Z</time>
      </trkpt>
      <trkpt lat="45.23569" lon="5.76053">
        <ele>1310.1999511719</ele>
        <time>2021-06-26T06:01:44.000Z</time>
      </trkpt>
      <trkpt lat="45.23567" lon="5.76056">
        <ele>1310.8000488281</ele>
        <time>2021-06-26T06:01:47.000Z</time>
      </trkpt>
      <trkpt lat="45.23567" lon="5.76057">
        <ele>1311.5999755859</ele>
        <time>2021-06-26T06:01:48.000Z</time>
      </trkpt>
      <trkpt lat="45.23565" lon="5.76057">
        <ele>1311.8000488281</ele>
        <time>2021-06-26T06:01:50.000Z</time>
      </trkpt>
      <trkpt lat="45.23564" lon="5.76057">
        <ele>1312</ele>
        <time>2021-06-26T06:01:51.000Z</time>
      </trkpt>
      <trkpt lat="45.23563" lon="5.76058">
        <ele>1312.1999511719</ele>
        <time>2021-06-26T06:01:52.000Z</time>
      </trkpt>
      <trkpt lat="45.23561" lon="5.76059">
        <ele>1312.8000488281</ele>
        <time>2021-06-26T06:01:53.000Z</time>
      </trkpt>
      <trkpt lat="45.2356" lon="5.76061">
        <ele>1313.4000244141</ele>
        <time>2021-06-26T06:01:56.000Z</time>
      </trkpt>
      <trkpt lat="45.23559" lon="5.76059">
        <ele>1313.4000244141</ele>
        <time>2021-06-26T06:01:57.000Z</time>
      </trkpt>
      <trkpt lat="45.23559" lon="5.76061">
        <ele>1314.1999511719</ele>
        <time>2021-06-26T06:01:59.000Z</time>
      </trkpt>
      <trkpt lat="45.23559" lon="5.76062">
        <ele>1314.1999511719</ele>
        <time>2021-06-26T06:02:00.000Z</time>
      </trkpt>
      <trkpt lat="45.2356" lon="5.76062">
        <ele>1314.4000244141</ele>
        <time>2021-06-26T06:02:01.000Z</time>
      </trkpt>
      <trkpt lat="45.23561" lon="5.7606">
        <ele>1315.5999755859</ele>
        <time>2021-06-26T06:02:04.000Z</time>
      </trkpt>
      <trkpt lat="45.23563" lon="5.76058">
        <ele>1316.5999755859</ele>
        <time>2021-06-26T06:02:08.000Z</time>
      </trkpt>
      <trkpt lat="45.23563" lon="5.76057">
        <ele>1316.8000488281</ele>
        <time>2021-06-26T06:02:09.000Z</time>
      </trkpt>
      <trkpt lat="45.23564" lon="5.76056">
        <ele>1317</ele>
        <time>2021-06-26T06:02:10.000Z</time>
      </trkpt>
      <trkpt lat="45.23566" lon="5.76054">
        <ele>1317.8000488281</ele>
        <time>2021-06-26T06:02:13.000Z</time>
      </trkpt>
      <trkpt lat="45.23567" lon="5.76054">
        <ele>1318.4000244141</ele>
        <time>2021-06-26T06:02:14.000Z</time>
      </trkpt>
      <trkpt lat="45.23567" lon="5.76055">
        <ele>1318.5999755859</ele>
        <time>2021-06-26T06:02:16.000Z</time>
      </trkpt>
      <trkpt lat="45.23569" lon="5.76055">
        <ele>1319.4000244141</ele>
        <time>2021-06-26T06:02:19.000Z</time>
      </trkpt>
      <trkpt lat="45.2357" lon="5.76053">
        <ele>1320</ele>
        <time>2021-06-26T06:02:21.000Z</time>
      </trkpt>
      <trkpt lat="45.23571" lon="5.76053">
        <ele>1320.5999755859</ele>
        <time>2021-06-26T06:02:22.000Z</time>
      </trkpt>
      <trkpt lat="45.23574" lon="5.76052">
        <ele>1321.8000488281</ele>
        <time>2021-06-26T06:02:27.000Z</time>
      </trkpt>
      <trkpt lat="45.23579" lon="5.76051">
        <ele>1323</ele>
        <time>2021-06-26T06:02:32.000Z</time>
      </trkpt>
      <trkpt lat="45.23581" lon="5.7605">
        <ele>1323.4000244141</ele>
        <time>2021-06-26T06:02:35.000Z</time>
      </trkpt>
      <trkpt lat="45.23584" lon="5.7605">
        <ele>1324.1999511719</ele>
        <time>2021-06-26T06:02:37.000Z</time>
      </trkpt>
      <trkpt lat="45.23585" lon="5.76052">
        <ele>1324.8000488281</ele>
        <time>2021-06-26T06:02:39.000Z</time>
      </trkpt>
      <trkpt lat="45.23584" lon="5.76053">
        <ele>1325</ele>
        <time>2021-06-26T06:02:40.000Z</time>
      </trkpt>
      <trkpt lat="45.23584" lon="5.76055">
        <ele>1325.4000244141</ele>
        <time>2021-06-26T06:02:41.000Z</time>
      </trkpt>
      <trkpt lat="45.23583" lon="5.76056">
        <ele>1325.5999755859</ele>
        <time>2021-06-26T06:02:42.000Z</time>
      </trkpt>
      <trkpt lat="45.23584" lon="5.76059">
        <ele>1326</ele>
        <time>2021-06-26T06:02:44.000Z</time>
      </trkpt>
      <trkpt lat="45.23584" lon="5.76061">
        <ele>1326</ele>
        <time>2021-06-26T06:02:45.000Z</time>
      </trkpt>
      <trkpt lat="45.23584" lon="5.76062">
        <ele>1326.4000244141</ele>
        <time>2021-06-26T06:02:46.000Z</time>
      </trkpt>
      <trkpt lat="45.23581" lon="5.76066">
        <ele>1327</ele>
        <time>2021-06-26T06:02:49.000Z</time>
      </trkpt>
      <trkpt lat="45.23578" lon="5.76068">
        <ele>1327</ele>
        <time>2021-06-26T06:02:51.000Z</time>
      </trkpt>
      <trkpt lat="45.23578" lon="5.76069">
        <ele>1327.5999755859</ele>
        <time>2021-06-26T06:02:52.000Z</time>
      </trkpt>
      <trkpt lat="45.23575" lon="5.76072">
        <ele>1328.5999755859</ele>
        <time>2021-06-26T06:02:56.000Z</time>
      </trkpt>
      <trkpt lat="45.23574" lon="5.76072">
        <ele>1329.4000244141</ele>
        <time>2021-06-26T06:02:58.000Z</time>
      </trkpt>
      <trkpt lat="45.23572" lon="5.76074">
        <ele>1329.5999755859</ele>
        <time>2021-06-26T06:03:01.000Z</time>
      </trkpt>
      <trkpt lat="45.23571" lon="5.76076">
        <ele>1329.5999755859</ele>
        <time>2021-06-26T06:03:02.000Z</time>
      </trkpt>
      <trkpt lat="45.23571" lon="5.76077">
        <ele>1330.5999755859</ele>
        <time>2021-06-26T06:03:03.000Z</time>
      </trkpt>
      <trkpt lat="45.23568" lon="5.76079">
        <ele>1331.1999511719</ele>
        <time>2021-06-26T06:03:08.000Z</time>
      </trkpt>
      <trkpt lat="45.23568" lon="5.7608">
        <ele>1331.4000244141</ele>
        <time>2021-06-26T06:03:09.000Z</time>
      </trkpt>
      <trkpt lat="45.23568" lon="5.76081">
        <ele>1331.5999755859</ele>
        <time>2021-06-26T06:03:10.000Z</time>
      </trkpt>
      <trkpt lat="45.23567" lon="5.76082">
        <ele>1331.8000488281</ele>
        <time>2021-06-26T06:03:11.000Z</time>
      </trkpt>
      <trkpt lat="45.23565" lon="5.76084">
        <ele>1332.8000488281</ele>
        <time>2021-06-26T06:03:13.000Z</time>
      </trkpt>
      <trkpt lat="45.23564" lon="5.76086">
        <ele>1333</ele>
        <time>2021-06-26T06:03:15.000Z</time>
      </trkpt>
      <trkpt lat="45.23561" lon="5.76089">
        <ele>1333.8000488281</ele>
        <time>2021-06-26T06:03:18.000Z</time>
      </trkpt>
      <trkpt lat="45.23558" lon="5.76093">
        <ele>1334</ele>
        <time>2021-06-26T06:03:21.000Z</time>
      </trkpt>
      <trkpt lat="45.23557" lon="5.76094">
        <ele>1335</ele>
        <time>2021-06-26T06:03:22.000Z</time>
      </trkpt>
      <trkpt lat="45.23553" lon="5.76104">
        <ele>1336.1999511719</ele>
        <time>2021-06-26T06:03:28.000Z</time>
      </trkpt>
      <trkpt lat="45.23553" lon="5.76105">
        <ele>1336.1999511719</ele>
        <time>2021-06-26T06:03:29.000Z</time>
      </trkpt>
      <trkpt lat="45.23556" lon="5.76103">
        <ele>1337.1999511719</ele>
        <time>2021-06-26T06:03:33.000Z</time>
      </trkpt>
      <trkpt lat="45.23559" lon="5.76101">
        <ele>1338.5999755859</ele>
        <time>2021-06-26T06:03:37.000Z</time>
      </trkpt>
      <trkpt lat="45.23562" lon="5.761">
        <ele>1339.1999511719</ele>
        <time>2021-06-26T06:03:40.000Z</time>
      </trkpt>
      <trkpt lat="45.23567" lon="5.76098">
        <ele>1339.8000488281</ele>
        <time>2021-06-26T06:03:44.000Z</time>
      </trkpt>
      <trkpt lat="45.23569" lon="5.76096">
        <ele>1341</ele>
        <time>2021-06-26T06:03:46.000Z</time>
      </trkpt>
      <trkpt lat="45.2357" lon="5.76096">
        <ele>1341.1999511719</ele>
        <time>2021-06-26T06:03:47.000Z</time>
      </trkpt>
      <trkpt lat="45.23576" lon="5.76092">
        <ele>1342.1999511719</ele>
        <time>2021-06-26T06:03:53.000Z</time>
      </trkpt>
      <trkpt lat="45.23578" lon="5.76091">
        <ele>1343.1999511719</ele>
        <time>2021-06-26T06:03:55.000Z</time>
      </trkpt>
      <trkpt lat="45.23579" lon="5.76091">
        <ele>1343.4000244141</ele>
        <time>2021-06-26T06:03:56.000Z</time>
      </trkpt>
      <trkpt lat="45.2358" lon="5.76095">
        <ele>1343.5999755859</ele>
        <time>2021-06-26T06:03:58.000Z</time>
      </trkpt>
      <trkpt lat="45.23578" lon="5.76097">
        <ele>1344</ele>
        <time>2021-06-26T06:04:00.000Z</time>
      </trkpt>
      <trkpt lat="45.23576" lon="5.761">
        <ele>1344.4000244141</ele>
        <time>2021-06-26T06:04:02.000Z</time>
      </trkpt>
      <trkpt lat="45.23575" lon="5.76101">
        <ele>1344.8000488281</ele>
        <time>2021-06-26T06:04:03.000Z</time>
      </trkpt>
      <trkpt lat="45.23573" lon="5.76103">
        <ele>1345.4000244141</ele>
        <time>2021-06-26T06:04:07.000Z</time>
      </trkpt>
      <trkpt lat="45.23572" lon="5.76103">
        <ele>1346.1999511719</ele>
        <time>2021-06-26T06:04:08.000Z</time>
      </trkpt>
      <trkpt lat="45.23572" lon="5.76103">
        <ele>1346.5999755859</ele>
        <time>2021-06-26T06:04:09.000Z</time>
      </trkpt>
      <trkpt lat="45.23571" lon="5.76104">
        <ele>1346.8000488281</ele>
        <time>2021-06-26T06:04:10.000Z</time>
      </trkpt>
      <trkpt lat="45.23569" lon="5.76104">
        <ele>1347</ele>
        <time>2021-06-26T06:04:12.000Z</time>
      </trkpt>
      <trkpt lat="45.23568" lon="5.76104">
        <ele>1347</ele>
        <time>2021-06-26T06:04:13.000Z</time>
      </trkpt>
      <trkpt lat="45.23567" lon="5.76105">
        <ele>1347.5999755859</ele>
        <time>2021-06-26T06:04:14.000Z</time>
      </trkpt>
      <trkpt lat="45.23566" lon="5.76106">
        <ele>1348</ele>
        <time>2021-06-26T06:04:15.000Z</time>
      </trkpt>
      <trkpt lat="45.23565" lon="5.76109">
        <ele>1348.4000244141</ele>
        <time>2021-06-26T06:04:17.000Z</time>
      </trkpt>
      <trkpt lat="45.23564" lon="5.76111">
        <ele>1348.5999755859</ele>
        <time>2021-06-26T06:04:19.000Z</time>
      </trkpt>
      <trkpt lat="45.23561" lon="5.76113">
        <ele>1349.4000244141</ele>
        <time>2021-06-26T06:04:22.000Z</time>
      </trkpt>
      <trkpt lat="45.2356" lon="5.76112">
        <ele>1349.8000488281</ele>
        <time>2021-06-26T06:04:23.000Z</time>
      </trkpt>
      <trkpt lat="45.23559" lon="5.76112">
        <ele>1350</ele>
        <time>2021-06-26T06:04:24.000Z</time>
      </trkpt>
      <trkpt lat="45.23558" lon="5.76113">
        <ele>1350.1999511719</ele>
        <time>2021-06-26T06:04:25.000Z</time>
      </trkpt>
      <trkpt lat="45.23557" lon="5.76115">
        <ele>1350.5999755859</ele>
        <time>2021-06-26T06:04:27.000Z</time>
      </trkpt>
      <trkpt lat="45.23554" lon="5.76119">
        <ele>1351</ele>
        <time>2021-06-26T06:04:29.000Z</time>
      </trkpt>
      <trkpt lat="45.23554" lon="5.76124">
        <ele>1351.8000488281</ele>
        <time>2021-06-26T06:04:31.000Z</time>
      </trkpt>
      <trkpt lat="45.23553" lon="5.76125">
        <ele>1352.1999511719</ele>
        <time>2021-06-26T06:04:32.000Z</time>
      </trkpt>
      <trkpt lat="45.23552" lon="5.76126">
        <ele>1352.1999511719</ele>
        <time>2021-06-26T06:04:33.000Z</time>
      </trkpt>
      <trkpt lat="45.2355" lon="5.7613">
        <ele>1352.5999755859</ele>
        <time>2021-06-26T06:04:35.000Z</time>
      </trkpt>
      <trkpt lat="45.23548" lon="5.76132">
        <ele>1352.8000488281</ele>
        <time>2021-06-26T06:04:37.000Z</time>
      </trkpt>
      <trkpt lat="45.23547" lon="5.76133">
        <ele>1353.1999511719</ele>
        <time>2021-06-26T06:04:38.000Z</time>
      </trkpt>
      <trkpt lat="45.23545" lon="5.76134">
        <ele>1354.4000244141</ele>
        <time>2021-06-26T06:04:40.000Z</time>
      </trkpt>
      <trkpt lat="45.23542" lon="5.76137">
        <ele>1354.5999755859</ele>
        <time>2021-06-26T06:04:42.000Z</time>
      </trkpt>
      <trkpt lat="45.23541" lon="5.76141">
        <ele>1355.1999511719</ele>
        <time>2021-06-26T06:04:46.000Z</time>
      </trkpt>
      <trkpt lat="45.23542" lon="5.7614">
        <ele>1355.4000244141</ele>
        <time>2021-06-26T06:04:47.000Z</time>
      </trkpt>
      <trkpt lat="45.23542" lon="5.76139">
        <ele>1355.8000488281</ele>
        <time>2021-06-26T06:04:48.000Z</time>
      </trkpt>
      <trkpt lat="45.23544" lon="5.76137">
        <ele>1356.5999755859</ele>
        <time>2021-06-26T06:04:50.000Z</time>
      </trkpt>
      <trkpt lat="45.23545" lon="5.76136">
        <ele>1357.4000244141</ele>
        <time>2021-06-26T06:04:52.000Z</time>
      </trkpt>
      <trkpt lat="45.23545" lon="5.76136">
        <ele>1358.1999511719</ele>
        <time>2021-06-26T06:04:53.000Z</time>
      </trkpt>
      <trkpt lat="45.23547" lon="5.76136">
        <ele>1359.8000488281</ele>
        <time>2021-06-26T06:04:56.000Z</time>
      </trkpt>
      <trkpt lat="45.23548" lon="5.76136">
        <ele>1359.8000488281</ele>
        <time>2021-06-26T06:04:57.000Z</time>
      </trkpt>
      <trkpt lat="45.23548" lon="5.76137">
        <ele>1360.4000244141</ele>
        <time>2021-06-26T06:04:58.000Z</time>
      </trkpt>
      <trkpt lat="45.2355" lon="5.76137">
        <ele>1361.4000244141</ele>
        <time>2021-06-26T06:05:00.000Z</time>
      </trkpt>
      <trkpt lat="45.23556" lon="5.76134">
        <ele>1361.5999755859</ele>
        <time>2021-06-26T06:05:04.000Z</time>
      </trkpt>
      <trkpt lat="45.23557" lon="5.76135">
        <ele>1361.8000488281</ele>
        <time>2021-06-26T06:05:05.000Z</time>
      </trkpt>
      <trkpt lat="45.23557" lon="5.76138">
        <ele>1362.5999755859</ele>
        <time>2021-06-26T06:05:08.000Z</time>
      </trkpt>
      <trkpt lat="45.23555" lon="5.76138">
        <ele>1363.5999755859</ele>
        <time>2021-06-26T06:05:10.000Z</time>
      </trkpt>
      <trkpt lat="45.23554" lon="5.76138">
        <ele>1363.5999755859</ele>
        <time>2021-06-26T06:05:12.000Z</time>
      </trkpt>
      <trkpt lat="45.23553" lon="5.7614">
        <ele>1365.5999755859</ele>
        <time>2021-06-26T06:05:14.000Z</time>
      </trkpt>
      <trkpt lat="45.23552" lon="5.76142">
        <ele>1366.8000488281</ele>
        <time>2021-06-26T06:05:16.000Z</time>
      </trkpt>
      <trkpt lat="45.23551" lon="5.76144">
        <ele>1367.1999511719</ele>
        <time>2021-06-26T06:05:18.000Z</time>
      </trkpt>
      <trkpt lat="45.23551" lon="5.76146">
        <ele>1367.1999511719</ele>
        <time>2021-06-26T06:05:19.000Z</time>
      </trkpt>
      <trkpt lat="45.23553" lon="5.76146">
        <ele>1367.4000244141</ele>
        <time>2021-06-26T06:05:22.000Z</time>
      </trkpt>
      <trkpt lat="45.23555" lon="5.76144">
        <ele>1367.8000488281</ele>
        <time>2021-06-26T06:05:25.000Z</time>
      </trkpt>
      <trkpt lat="45.2356" lon="5.76142">
        <ele>1368</ele>
        <time>2021-06-26T06:05:28.000Z</time>
      </trkpt>
      <trkpt lat="45.23561" lon="5.76142">
        <ele>1368.5999755859</ele>
        <time>2021-06-26T06:05:29.000Z</time>
      </trkpt>
      <trkpt lat="45.23566" lon="5.76139">
        <ele>1369</ele>
        <time>2021-06-26T06:05:33.000Z</time>
      </trkpt>
      <trkpt lat="45.2357" lon="5.76135">
        <ele>1369.4000244141</ele>
        <time>2021-06-26T06:05:36.000Z</time>
      </trkpt>
      <trkpt lat="45.23574" lon="5.76134">
        <ele>1369.4000244141</ele>
        <time>2021-06-26T06:05:40.000Z</time>
      </trkpt>
      <trkpt lat="45.23576" lon="5.76135">
        <ele>1369.4000244141</ele>
        <time>2021-06-26T06:05:42.000Z</time>
      </trkpt>
      <trkpt lat="45.23577" lon="5.76135">
        <ele>1369.5999755859</ele>
        <time>2021-06-26T06:05:43.000Z</time>
      </trkpt>
      <trkpt lat="45.23584" lon="5.76133">
        <ele>1369.8000488281</ele>
        <time>2021-06-26T06:05:48.000Z</time>
      </trkpt>
      <trkpt lat="45.23585" lon="5.76134">
        <ele>1370.1999511719</ele>
        <time>2021-06-26T06:05:49.000Z</time>
      </trkpt>
      <trkpt lat="45.23586" lon="5.76133">
        <ele>1370.1999511719</ele>
        <time>2021-06-26T06:05:50.000Z</time>
      </trkpt>
      <trkpt lat="45.23587" lon="5.76133">
        <ele>1370.5999755859</ele>
        <time>2021-06-26T06:05:51.000Z</time>
      </trkpt>
      <trkpt lat="45.23589" lon="5.76131">
        <ele>1371</ele>
        <time>2021-06-26T06:05:54.000Z</time>
      </trkpt>
      <trkpt lat="45.23592" lon="5.76128">
        <ele>1371.4000244141</ele>
        <time>2021-06-26T06:05:57.000Z</time>
      </trkpt>
      <trkpt lat="45.23596" lon="5.76125">
        <ele>1371.5999755859</ele>
        <time>2021-06-26T06:06:00.000Z</time>
      </trkpt>
      <trkpt lat="45.23597" lon="5.76124">
        <ele>1371.8000488281</ele>
        <time>2021-06-26T06:06:01.000Z</time>
      </trkpt>
      <trkpt lat="45.23598" lon="5.76124">
        <ele>1372.4000244141</ele>
        <time>2021-06-26T06:06:02.000Z</time>
      </trkpt>
      <trkpt lat="45.23599" lon="5.76123">
        <ele>1373</ele>
        <time>2021-06-26T06:06:06.000Z</time>
      </trkpt>
      <trkpt lat="45.23599" lon="5.76122">
        <ele>1373</ele>
        <time>2021-06-26T06:06:07.000Z</time>
      </trkpt>
      <trkpt lat="45.23601" lon="5.76122">
        <ele>1373.5999755859</ele>
        <time>2021-06-26T06:06:09.000Z</time>
      </trkpt>
      <trkpt lat="45.23602" lon="5.76121">
        <ele>1374</ele>
        <time>2021-06-26T06:06:10.000Z</time>
      </trkpt>
      <trkpt lat="45.23602" lon="5.7612">
        <ele>1374.5999755859</ele>
        <time>2021-06-26T06:06:12.000Z</time>
      </trkpt>
      <trkpt lat="45.23603" lon="5.76119">
        <ele>1374.8000488281</ele>
        <time>2021-06-26T06:06:13.000Z</time>
      </trkpt>
      <trkpt lat="45.23606" lon="5.76117">
        <ele>1375.8000488281</ele>
        <time>2021-06-26T06:06:16.000Z</time>
      </trkpt>
      <trkpt lat="45.23608" lon="5.76115">
        <ele>1376.4000244141</ele>
        <time>2021-06-26T06:06:18.000Z</time>
      </trkpt>
      <trkpt lat="45.2361" lon="5.76112">
        <ele>1376.5999755859</ele>
        <time>2021-06-26T06:06:20.000Z</time>
      </trkpt>
      <trkpt lat="45.23616" lon="5.76106">
        <ele>1377</ele>
        <time>2021-06-26T06:06:24.000Z</time>
      </trkpt>
      <trkpt lat="45.23622" lon="5.76103">
        <ele>1377.4000244141</ele>
        <time>2021-06-26T06:06:28.000Z</time>
      </trkpt>
      <trkpt lat="45.23636" lon="5.76097">
        <ele>1377.8000488281</ele>
        <time>2021-06-26T06:06:36.000Z</time>
      </trkpt>
      <trkpt lat="45.23637" lon="5.76096">
        <ele>1377.8000488281</ele>
        <time>2021-06-26T06:06:37.000Z</time>
      </trkpt>
      <trkpt lat="45.23639" lon="5.76093">
        <ele>1378.4000244141</ele>
        <time>2021-06-26T06:06:39.000Z</time>
      </trkpt>
      <trkpt lat="45.23642" lon="5.76091">
        <ele>1378.8000488281</ele>
        <time>2021-06-26T06:06:42.000Z</time>
      </trkpt>
      <trkpt lat="45.23647" lon="5.76088">
        <ele>1379.1999511719</ele>
        <time>2021-06-26T06:06:46.000Z</time>
      </trkpt>
      <trkpt lat="45.23652" lon="5.76085">
        <ele>1380</ele>
        <time>2021-06-26T06:06:49.000Z</time>
      </trkpt>
      <trkpt lat="45.23653" lon="5.76084">
        <ele>1380.1999511719</ele>
        <time>2021-06-26T06:06:50.000Z</time>
      </trkpt>
      <trkpt lat="45.23655" lon="5.76083">
        <ele>1380.4000244141</ele>
        <time>2021-06-26T06:06:52.000Z</time>
      </trkpt>
      <trkpt lat="45.23659" lon="5.76079">
        <ele>1381.1999511719</ele>
        <time>2021-06-26T06:06:55.000Z</time>
      </trkpt>
      <trkpt lat="45.2366" lon="5.76079">
        <ele>1381.5999755859</ele>
        <time>2021-06-26T06:06:56.000Z</time>
      </trkpt>
      <trkpt lat="45.23663" lon="5.76075">
        <ele>1382.1999511719</ele>
        <time>2021-06-26T06:06:59.000Z</time>
      </trkpt>
      <trkpt lat="45.23667" lon="5.76073">
        <ele>1383.1999511719</ele>
        <time>2021-06-26T06:07:03.000Z</time>
      </trkpt>
      <trkpt lat="45.23668" lon="5.76072">
        <ele>1384</ele>
        <time>2021-06-26T06:07:04.000Z</time>
      </trkpt>
      <trkpt lat="45.23668" lon="5.76072">
        <ele>1384</ele>
        <time>2021-06-26T06:07:05.000Z</time>
      </trkpt>
      <trkpt lat="45.23669" lon="5.76072">
        <ele>1384.1999511719</ele>
        <time>2021-06-26T06:07:07.000Z</time>
      </trkpt>
      <trkpt lat="45.2367" lon="5.76072">
        <ele>1384.4000244141</ele>
        <time>2021-06-26T06:07:09.000Z</time>
      </trkpt>
      <trkpt lat="45.23672" lon="5.76071">
        <ele>1384.8000488281</ele>
        <time>2021-06-26T06:07:11.000Z</time>
      </trkpt>
      <trkpt lat="45.23673" lon="5.7607">
        <ele>1386.1999511719</ele>
        <time>2021-06-26T06:07:13.000Z</time>
      </trkpt>
      <trkpt lat="45.23673" lon="5.7607">
        <ele>1386.1999511719</ele>
        <time>2021-06-26T06:07:14.000Z</time>
      </trkpt>
      <trkpt lat="45.23677" lon="5.76066">
        <ele>1386.8000488281</ele>
        <time>2021-06-26T06:07:17.000Z</time>
      </trkpt>
      <trkpt lat="45.23678" lon="5.76065">
        <ele>1387.4000244141</ele>
        <time>2021-06-26T06:07:19.000Z</time>
      </trkpt>
      <trkpt lat="45.23678" lon="5.76062">
        <ele>1387.5999755859</ele>
        <time>2021-06-26T06:07:21.000Z</time>
      </trkpt>
      <trkpt lat="45.2368" lon="5.76061">
        <ele>1388.5999755859</ele>
        <time>2021-06-26T06:07:22.000Z</time>
      </trkpt>
      <trkpt lat="45.23683" lon="5.76058">
        <ele>1388.8000488281</ele>
        <time>2021-06-26T06:07:27.000Z</time>
      </trkpt>
      <trkpt lat="45.23683" lon="5.76059">
        <ele>1388.8000488281</ele>
        <time>2021-06-26T06:07:29.000Z</time>
      </trkpt>
      <trkpt lat="45.23684" lon="5.7606">
        <ele>1388.5999755859</ele>
        <time>2021-06-26T06:07:36.000Z</time>
      </trkpt>
      <trkpt lat="45.23684" lon="5.7606">
        <ele>1388.5999755859</ele>
        <time>2021-06-26T06:07:43.000Z</time>
      </trkpt>
      <trkpt lat="45.23684" lon="5.7606">
        <ele>1388.8000488281</ele>
        <time>2021-06-26T06:07:46.000Z</time>
      </trkpt>
      <trkpt lat="45.23684" lon="5.76059">
        <ele>1388.8000488281</ele>
        <time>2021-06-26T06:07:51.000Z</time>
      </trkpt>
      <trkpt lat="45.23685" lon="5.76059">
        <ele>1388.5999755859</ele>
        <time>2021-06-26T06:08:02.000Z</time>
      </trkpt>
      <trkpt lat="45.23685" lon="5.76059">
        <ele>1388.4000244141</ele>
        <time>2021-06-26T06:08:05.000Z</time>
      </trkpt>
      <trkpt lat="45.23685" lon="5.76059">
        <ele>1388.5999755859</ele>
        <time>2021-06-26T06:08:06.000Z</time>
      </trkpt>
      <trkpt lat="45.23685" lon="5.76059">
        <ele>1388.5999755859</ele>
        <time>2021-06-26T06:08:07.000Z</time>
      </trkpt>
      <trkpt lat="45.23685" lon="5.76059">
        <ele>1388.5999755859</ele>
        <time>2021-06-26T06:08:08.000Z</time>
      </trkpt>
      <trkpt lat="45.23685" lon="5.76059">
        <ele>1388.5999755859</ele>
        <time>2021-06-26T06:08:09.000Z</time>
      </trkpt>
      <trkpt lat="45.23685" lon="5.76059">
        <ele>1388.5999755859</ele>
        <time>2021-06-26T06:08:11.000Z</time>
      </trkpt>
      <trkpt lat="45.23685" lon="5.76059">
        <ele>1388.5999755859</ele>
        <time>2021-06-26T06:08:13.000Z</time>
      </trkpt>
      <trkpt lat="45.23685" lon="5.76059">
        <ele>1388.5999755859</ele>
        <time>2021-06-26T06:08:17.000Z</time>
      </trkpt>
      <trkpt lat="45.23685" lon="5.7606">
        <ele>1388.5999755859</ele>
        <time>2021-06-26T06:08:20.000Z</time>
      </trkpt>
      <trkpt lat="45.23685" lon="5.7606">
        <ele>1388.5999755859</ele>
        <time>2021-06-26T06:08:22.000Z</time>
      </trkpt>
      <trkpt lat="45.23685" lon="5.7606">
        <ele>1388.4000244141</ele>
        <time>2021-06-26T06:08:24.000Z</time>
      </trkpt>
      <trkpt lat="45.23685" lon="5.7606">
        <ele>1388.4000244141</ele>
        <time>2021-06-26T06:08:26.000Z</time>
      </trkpt>
      <trkpt lat="45.23685" lon="5.76061">
        <ele>1388.4000244141</ele>
        <time>2021-06-26T06:08:35.000Z</time>
      </trkpt>
      <trkpt lat="45.23685" lon="5.76062">
        <ele>1388.4000244141</ele>
        <time>2021-06-26T06:08:38.000Z</time>
      </trkpt>
      <trkpt lat="45.23685" lon="5.76062">
        <ele>1388.1999511719</ele>
        <time>2021-06-26T06:08:50.000Z</time>
      </trkpt>
      <trkpt lat="45.23681" lon="5.76063">
        <ele>1388</ele>
        <time>2021-06-26T06:08:58.000Z</time>
      </trkpt>
      <trkpt lat="45.2368" lon="5.76065">
        <ele>1388</ele>
        <time>2021-06-26T06:09:02.000Z</time>
      </trkpt>
      <trkpt lat="45.2368" lon="5.76065">
        <ele>1388.1999511719</ele>
        <time>2021-06-26T06:09:09.000Z</time>
      </trkpt>
      <trkpt lat="45.2368" lon="5.76065">
        <ele>1388.1999511719</ele>
        <time>2021-06-26T06:09:13.000Z</time>
      </trkpt>
      <trkpt lat="45.23681" lon="5.76065">
        <ele>1388</ele>
        <time>2021-06-26T06:09:18.000Z</time>
      </trkpt>
      <trkpt lat="45.23682" lon="5.76065">
        <ele>1387.4000244141</ele>
        <time>2021-06-26T06:09:27.000Z</time>
      </trkpt>
      <trkpt lat="45.23682" lon="5.76066">
        <ele>1387</ele>
        <time>2021-06-26T06:09:28.000Z</time>
      </trkpt>
      <trkpt lat="45.2368" lon="5.7607">
        <ele>1386.8000488281</ele>
        <time>2021-06-26T06:09:31.000Z</time>
      </trkpt>
      <trkpt lat="45.23679" lon="5.76071">
        <ele>1385.4000244141</ele>
        <time>2021-06-26T06:09:33.000Z</time>
      </trkpt>
      <trkpt lat="45.23677" lon="5.76075">
        <ele>1384.1999511719</ele>
        <time>2021-06-26T06:09:37.000Z</time>
      </trkpt>
      <trkpt lat="45.23674" lon="5.76076">
        <ele>1383.8000488281</ele>
        <time>2021-06-26T06:09:40.000Z</time>
      </trkpt>
      <trkpt lat="45.23673" lon="5.76077">
        <ele>1383.4000244141</ele>
        <time>2021-06-26T06:09:42.000Z</time>
      </trkpt>
      <trkpt lat="45.23672" lon="5.76077">
        <ele>1383.1999511719</ele>
        <time>2021-06-26T06:09:43.000Z</time>
      </trkpt>
      <trkpt lat="45.23669" lon="5.76079">
        <ele>1382.5999755859</ele>
        <time>2021-06-26T06:09:46.000Z</time>
      </trkpt>
      <trkpt lat="45.23668" lon="5.76079">
        <ele>1381.8000488281</ele>
        <time>2021-06-26T06:09:47.000Z</time>
      </trkpt>
      <trkpt lat="45.23664" lon="5.76084">
        <ele>1380.5999755859</ele>
        <time>2021-06-26T06:09:52.000Z</time>
      </trkpt>
      <trkpt lat="45.23663" lon="5.76084">
        <ele>1380</ele>
        <time>2021-06-26T06:09:53.000Z</time>
      </trkpt>
      <trkpt lat="45.23662" lon="5.76084">
        <ele>1379.5999755859</ele>
        <time>2021-06-26T06:09:54.000Z</time>
      </trkpt>
      <trkpt lat="45.23661" lon="5.76086">
        <ele>1379.1999511719</ele>
        <time>2021-06-26T06:09:56.000Z</time>
      </trkpt>
      <trkpt lat="45.23659" lon="5.76088">
        <ele>1379</ele>
        <time>2021-06-26T06:09:58.000Z</time>
      </trkpt>
      <trkpt lat="45.23657" lon="5.76089">
        <ele>1379</ele>
        <time>2021-06-26T06:09:59.000Z</time>
      </trkpt>
      <trkpt lat="45.23656" lon="5.76089">
        <ele>1378.8000488281</ele>
        <time>2021-06-26T06:10:00.000Z</time>
      </trkpt>
      <trkpt lat="45.23653" lon="5.76091">
        <ele>1378.4000244141</ele>
        <time>2021-06-26T06:10:02.000Z</time>
      </trkpt>
      <trkpt lat="45.2365" lon="5.76093">
        <ele>1378.1999511719</ele>
        <time>2021-06-26T06:10:04.000Z</time>
      </trkpt>
      <trkpt lat="45.23647" lon="5.76096">
        <ele>1377.5999755859</ele>
        <time>2021-06-26T06:10:07.000Z</time>
      </trkpt>
      <trkpt lat="45.23646" lon="5.76097">
        <ele>1377.1999511719</ele>
        <time>2021-06-26T06:10:08.000Z</time>
      </trkpt>
      <trkpt lat="45.23642" lon="5.76099">
        <ele>1376.8000488281</ele>
        <time>2021-06-26T06:10:11.000Z</time>
      </trkpt>
      <trkpt lat="45.23633" lon="5.76104">
        <ele>1376.1999511719</ele>
        <time>2021-06-26T06:10:16.000Z</time>
      </trkpt>
      <trkpt lat="45.23628" lon="5.76106">
        <ele>1376.4000244141</ele>
        <time>2021-06-26T06:10:20.000Z</time>
      </trkpt>
      <trkpt lat="45.23618" lon="5.76113">
        <ele>1375.1999511719</ele>
        <time>2021-06-26T06:10:27.000Z</time>
      </trkpt>
      <trkpt lat="45.23617" lon="5.76114">
        <ele>1375</ele>
        <time>2021-06-26T06:10:28.000Z</time>
      </trkpt>
      <trkpt lat="45.23612" lon="5.76118">
        <ele>1373.8000488281</ele>
        <time>2021-06-26T06:10:33.000Z</time>
      </trkpt>
      <trkpt lat="45.23611" lon="5.76118">
        <ele>1373.5999755859</ele>
        <time>2021-06-26T06:10:34.000Z</time>
      </trkpt>
      <trkpt lat="45.23609" lon="5.76119">
        <ele>1373</ele>
        <time>2021-06-26T06:10:37.000Z</time>
      </trkpt>
      <trkpt lat="45.23608" lon="5.7612">
        <ele>1372.4000244141</ele>
        <time>2021-06-26T06:10:38.000Z</time>
      </trkpt>
      <trkpt lat="45.23607" lon="5.76122">
        <ele>1372.1999511719</ele>
        <time>2021-06-26T06:10:40.000Z</time>
      </trkpt>
      <trkpt lat="45.23605" lon="5.76123">
        <ele>1371.8000488281</ele>
        <time>2021-06-26T06:10:41.000Z</time>
      </trkpt>
      <trkpt lat="45.23604" lon="5.76125">
        <ele>1371</ele>
        <time>2021-06-26T06:10:44.000Z</time>
      </trkpt>
      <trkpt lat="45.23603" lon="5.76126">
        <ele>1371</ele>
        <time>2021-06-26T06:10:45.000Z</time>
      </trkpt>
      <trkpt lat="45.23595" lon="5.7613">
        <ele>1370</ele>
        <time>2021-06-26T06:10:51.000Z</time>
      </trkpt>
      <trkpt lat="45.23594" lon="5.76131">
        <ele>1369.8000488281</ele>
        <time>2021-06-26T06:10:52.000Z</time>
      </trkpt>
      <trkpt lat="45.23591" lon="5.76135">
        <ele>1369</ele>
        <time>2021-06-26T06:10:55.000Z</time>
      </trkpt>
      <trkpt lat="45.2359" lon="5.76136">
        <ele>1368.8000488281</ele>
        <time>2021-06-26T06:10:56.000Z</time>
      </trkpt>
      <trkpt lat="45.23589" lon="5.76137">
        <ele>1368.5999755859</ele>
        <time>2021-06-26T06:10:57.000Z</time>
      </trkpt>
      <trkpt lat="45.23586" lon="5.7614">
        <ele>1368.5999755859</ele>
        <time>2021-06-26T06:10:59.000Z</time>
      </trkpt>
      <trkpt lat="45.23571" lon="5.76147">
        <ele>1368</ele>
        <time>2021-06-26T06:11:07.000Z</time>
      </trkpt>
      <trkpt lat="45.23565" lon="5.7615">
        <ele>1367.4000244141</ele>
        <time>2021-06-26T06:11:09.000Z</time>
      </trkpt>
      <trkpt lat="45.23561" lon="5.76153">
        <ele>1367</ele>
        <time>2021-06-26T06:11:11.000Z</time>
      </trkpt>
      <trkpt lat="45.23557" lon="5.76156">
        <ele>1366.4000244141</ele>
        <time>2021-06-26T06:11:13.000Z</time>
      </trkpt>
      <trkpt lat="45.23556" lon="5.76157">
        <ele>1366.4000244141</ele>
        <time>2021-06-26T06:11:14.000Z</time>
      </trkpt>
      <trkpt lat="45.23555" lon="5.76158">
        <ele>1365.5999755859</ele>
        <time>2021-06-26T06:11:15.000Z</time>
      </trkpt>
      <trkpt lat="45.23555" lon="5.7616">
        <ele>1365.5999755859</ele>
        <time>2021-06-26T06:11:16.000Z</time>
      </trkpt>
      <trkpt lat="45.23555" lon="5.7616">
        <ele>1365.4000244141</ele>
        <time>2021-06-26T06:11:18.000Z</time>
      </trkpt>
      <trkpt lat="45.23555" lon="5.7616">
        <ele>1365.1999511719</ele>
        <time>2021-06-26T06:11:20.000Z</time>
      </trkpt>
      <trkpt lat="45.23557" lon="5.76161">
        <ele>1364.1999511719</ele>
        <time>2021-06-26T06:11:23.000Z</time>
      </trkpt>
      <trkpt lat="45.23558" lon="5.76162">
        <ele>1363.8000488281</ele>
        <time>2021-06-26T06:11:24.000Z</time>
      </trkpt>
      <trkpt lat="45.23559" lon="5.76162">
        <ele>1362.5999755859</ele>
        <time>2021-06-26T06:11:26.000Z</time>
      </trkpt>
      <trkpt lat="45.23562" lon="5.76163">
        <ele>1361.5999755859</ele>
        <time>2021-06-26T06:11:29.000Z</time>
      </trkpt>
      <trkpt lat="45.23562" lon="5.76164">
        <ele>1361.5999755859</ele>
        <time>2021-06-26T06:11:30.000Z</time>
      </trkpt>
      <trkpt lat="45.23562" lon="5.76164">
        <ele>1361.5999755859</ele>
        <time>2021-06-26T06:11:31.000Z</time>
      </trkpt>
      <trkpt lat="45.23562" lon="5.76165">
        <ele>1360.1999511719</ele>
        <time>2021-06-26T06:11:34.000Z</time>
      </trkpt>
      <trkpt lat="45.23563" lon="5.76167">
        <ele>1359</ele>
        <time>2021-06-26T06:11:38.000Z</time>
      </trkpt>
      <trkpt lat="45.23564" lon="5.76167">
        <ele>1358.1999511719</ele>
        <time>2021-06-26T06:11:40.000Z</time>
      </trkpt>
      <trkpt lat="45.23565" lon="5.76167">
        <ele>1358</ele>
        <time>2021-06-26T06:11:41.000Z</time>
      </trkpt>
      <trkpt lat="45.23565" lon="5.76166">
        <ele>1358</ele>
        <time>2021-06-26T06:11:42.000Z</time>
      </trkpt>
      <trkpt lat="45.2357" lon="5.76166">
        <ele>1356.5999755859</ele>
        <time>2021-06-26T06:11:47.000Z</time>
      </trkpt>
      <trkpt lat="45.23571" lon="5.76165">
        <ele>1356.5999755859</ele>
        <time>2021-06-26T06:11:48.000Z</time>
      </trkpt>
      <trkpt lat="45.23577" lon="5.76166">
        <ele>1354.5999755859</ele>
        <time>2021-06-26T06:11:53.000Z</time>
      </trkpt>
      <trkpt lat="45.2358" lon="5.76166">
        <ele>1353.5999755859</ele>
        <time>2021-06-26T06:11:55.000Z</time>
      </trkpt>
      <trkpt lat="45.23581" lon="5.76166">
        <ele>1353.5999755859</ele>
        <time>2021-06-26T06:11:56.000Z</time>
      </trkpt>
      <trkpt lat="45.23582" lon="5.76168">
        <ele>1352.4000244141</ele>
        <time>2021-06-26T06:11:59.000Z</time>
      </trkpt>
      <trkpt lat="45.23582" lon="5.7617">
        <ele>1351.4000244141</ele>
        <time>2021-06-26T06:12:00.000Z</time>
      </trkpt>
      <trkpt lat="45.23582" lon="5.76172">
        <ele>1351.4000244141</ele>
        <time>2021-06-26T06:12:01.000Z</time>
      </trkpt>
      <trkpt lat="45.23582" lon="5.76176">
        <ele>1350.1999511719</ele>
        <time>2021-06-26T06:12:05.000Z</time>
      </trkpt>
      <trkpt lat="45.23582" lon="5.7618">
        <ele>1348.5999755859</ele>
        <time>2021-06-26T06:12:08.000Z</time>
      </trkpt>
      <trkpt lat="45.23584" lon="5.76185">
        <ele>1348</ele>
        <time>2021-06-26T06:12:13.000Z</time>
      </trkpt>
      <trkpt lat="45.23586" lon="5.76185">
        <ele>1346.5999755859</ele>
        <time>2021-06-26T06:12:14.000Z</time>
      </trkpt>
      <trkpt lat="45.23587" lon="5.76186">
        <ele>1346.5999755859</ele>
        <time>2021-06-26T06:12:15.000Z</time>
      </trkpt>
      <trkpt lat="45.23589" lon="5.76191">
        <ele>1345.8000488281</ele>
        <time>2021-06-26T06:12:18.000Z</time>
      </trkpt>
      <trkpt lat="45.23589" lon="5.76195">
        <ele>1345.8000488281</ele>
        <time>2021-06-26T06:12:19.000Z</time>
      </trkpt>
      <trkpt lat="45.23588" lon="5.76203">
        <ele>1345.1999511719</ele>
        <time>2021-06-26T06:12:21.000Z</time>
      </trkpt>
      <trkpt lat="45.23584" lon="5.76213">
        <ele>1345</ele>
        <time>2021-06-26T06:12:24.000Z</time>
      </trkpt>
      <trkpt lat="45.23581" lon="5.76219">
        <ele>1344</ele>
        <time>2021-06-26T06:12:26.000Z</time>
      </trkpt>
      <trkpt lat="45.23579" lon="5.76222">
        <ele>1344</ele>
        <time>2021-06-26T06:12:27.000Z</time>
      </trkpt>
      <trkpt lat="45.23578" lon="5.76224">
        <ele>1343.8000488281</ele>
        <time>2021-06-26T06:12:28.000Z</time>
      </trkpt>
      <trkpt lat="45.23575" lon="5.76226">
        <ele>1344.4000244141</ele>
        <time>2021-06-26T06:12:29.000Z</time>
      </trkpt>
      <trkpt lat="45.23571" lon="5.76232">
        <ele>1343.8000488281</ele>
        <time>2021-06-26T06:12:31.000Z</time>
      </trkpt>
      <trkpt lat="45.23569" lon="5.76235">
        <ele>1344.1999511719</ele>
        <time>2021-06-26T06:12:32.000Z</time>
      </trkpt>
      <trkpt lat="45.23565" lon="5.7624">
        <ele>1344.1999511719</ele>
        <time>2021-06-26T06:12:34.000Z</time>
      </trkpt>
      <trkpt lat="45.2356" lon="5.76246">
        <ele>1344.5999755859</ele>
        <time>2021-06-26T06:12:37.000Z</time>
      </trkpt>
      <trkpt lat="45.23559" lon="5.76248">
        <ele>1344.8000488281</ele>
        <time>2021-06-26T06:12:38.000Z</time>
      </trkpt>
      <trkpt lat="45.23553" lon="5.76252">
        <ele>1345</ele>
        <time>2021-06-26T06:12:41.000Z</time>
      </trkpt>
      <trkpt lat="45.23539" lon="5.76263">
        <ele>1346.1999511719</ele>
        <time>2021-06-26T06:12:48.000Z</time>
      </trkpt>
      <trkpt lat="45.23538" lon="5.76266">
        <ele>1346.4000244141</ele>
        <time>2021-06-26T06:12:49.000Z</time>
      </trkpt>
      <trkpt lat="45.23538" lon="5.76274">
        <ele>1346.8000488281</ele>
        <time>2021-06-26T06:12:52.000Z</time>
      </trkpt>
      <trkpt lat="45.23539" lon="5.76276">
        <ele>1346.5999755859</ele>
        <time>2021-06-26T06:12:53.000Z</time>
      </trkpt>
      <trkpt lat="45.23542" lon="5.76288">
        <ele>1345.5999755859</ele>
        <time>2021-06-26T06:12:58.000Z</time>
      </trkpt>
      <trkpt lat="45.23544" lon="5.76299">
        <ele>1344.5999755859</ele>
        <time>2021-06-26T06:13:02.000Z</time>
      </trkpt>
      <trkpt lat="45.23544" lon="5.76306">
        <ele>1344.1999511719</ele>
        <time>2021-06-26T06:13:04.000Z</time>
      </trkpt>
      <trkpt lat="45.23545" lon="5.76315">
        <ele>1343.4000244141</ele>
        <time>2021-06-26T06:13:07.000Z</time>
      </trkpt>
      <trkpt lat="45.23547" lon="5.7633">
        <ele>1342.4000244141</ele>
        <time>2021-06-26T06:13:12.000Z</time>
      </trkpt>
      <trkpt lat="45.23547" lon="5.76332">
        <ele>1342.1999511719</ele>
        <time>2021-06-26T06:13:13.000Z</time>
      </trkpt>
      <trkpt lat="45.23547" lon="5.76345">
        <ele>1341.1999511719</ele>
        <time>2021-06-26T06:13:17.000Z</time>
      </trkpt>
      <trkpt lat="45.23549" lon="5.76357">
        <ele>1340.1999511719</ele>
        <time>2021-06-26T06:13:20.000Z</time>
      </trkpt>
      <trkpt lat="45.23549" lon="5.7636">
        <ele>1340</ele>
        <time>2021-06-26T06:13:21.000Z</time>
      </trkpt>
      <trkpt lat="45.23549" lon="5.76375">
        <ele>1340</ele>
        <time>2021-06-26T06:13:25.000Z</time>
      </trkpt>
      <trkpt lat="45.23549" lon="5.7638">
        <ele>1340</ele>
        <time>2021-06-26T06:13:27.000Z</time>
      </trkpt>
      <trkpt lat="45.23547" lon="5.76383">
        <ele>1340.5999755859</ele>
        <time>2021-06-26T06:13:28.000Z</time>
      </trkpt>
      <trkpt lat="45.23544" lon="5.76386">
        <ele>1341.1999511719</ele>
        <time>2021-06-26T06:13:30.000Z</time>
      </trkpt>
      <trkpt lat="45.23543" lon="5.76387">
        <ele>1341.1999511719</ele>
        <time>2021-06-26T06:13:31.000Z</time>
      </trkpt>
      <trkpt lat="45.23537" lon="5.76391">
        <ele>1342.1999511719</ele>
        <time>2021-06-26T06:13:35.000Z</time>
      </trkpt>
      <trkpt lat="45.23537" lon="5.76391">
        <ele>1342.1999511719</ele>
        <time>2021-06-26T06:13:36.000Z</time>
      </trkpt>
      <trkpt lat="45.23536" lon="5.76391">
        <ele>1342.8000488281</ele>
        <time>2021-06-26T06:13:37.000Z</time>
      </trkpt>
      <trkpt lat="45.23534" lon="5.76392">
        <ele>1343.1999511719</ele>
        <time>2021-06-26T06:13:38.000Z</time>
      </trkpt>
      <trkpt lat="45.23531" lon="5.76393">
        <ele>1343.4000244141</ele>
        <time>2021-06-26T06:13:40.000Z</time>
      </trkpt>
      <trkpt lat="45.23528" lon="5.76396">
        <ele>1344.4000244141</ele>
        <time>2021-06-26T06:13:44.000Z</time>
      </trkpt>
      <trkpt lat="45.23526" lon="5.76397">
        <ele>1345</ele>
        <time>2021-06-26T06:13:45.000Z</time>
      </trkpt>
      <trkpt lat="45.23525" lon="5.76398">
        <ele>1345.1999511719</ele>
        <time>2021-06-26T06:13:46.000Z</time>
      </trkpt>
      <trkpt lat="45.23525" lon="5.76398">
        <ele>1345.5999755859</ele>
        <time>2021-06-26T06:13:47.000Z</time>
      </trkpt>
      <trkpt lat="45.23524" lon="5.764">
        <ele>1346.1999511719</ele>
        <time>2021-06-26T06:13:49.000Z</time>
      </trkpt>
      <trkpt lat="45.23523" lon="5.76403">
        <ele>1347</ele>
        <time>2021-06-26T06:13:51.000Z</time>
      </trkpt>
      <trkpt lat="45.23523" lon="5.76404">
        <ele>1347.4000244141</ele>
        <time>2021-06-26T06:13:52.000Z</time>
      </trkpt>
      <trkpt lat="45.23522" lon="5.76405">
        <ele>1348</ele>
        <time>2021-06-26T06:13:53.000Z</time>
      </trkpt>
      <trkpt lat="45.23522" lon="5.76405">
        <ele>1348.1999511719</ele>
        <time>2021-06-26T06:13:54.000Z</time>
      </trkpt>
      <trkpt lat="45.23521" lon="5.76405">
        <ele>1348.4000244141</ele>
        <time>2021-06-26T06:13:55.000Z</time>
      </trkpt>
      <trkpt lat="45.23519" lon="5.76403">
        <ele>1348.5999755859</ele>
        <time>2021-06-26T06:13:57.000Z</time>
      </trkpt>
      <trkpt lat="45.23518" lon="5.76403">
        <ele>1349.4000244141</ele>
        <time>2021-06-26T06:13:58.000Z</time>
      </trkpt>
      <trkpt lat="45.23516" lon="5.76401">
        <ele>1350.1999511719</ele>
        <time>2021-06-26T06:14:01.000Z</time>
      </trkpt>
      <trkpt lat="45.23516" lon="5.764">
        <ele>1350.8000488281</ele>
        <time>2021-06-26T06:14:02.000Z</time>
      </trkpt>
      <trkpt lat="45.23515" lon="5.764">
        <ele>1351</ele>
        <time>2021-06-26T06:14:03.000Z</time>
      </trkpt>
      <trkpt lat="45.2351" lon="5.76399">
        <ele>1351.4000244141</ele>
        <time>2021-06-26T06:14:09.000Z</time>
      </trkpt>
      <trkpt lat="45.23509" lon="5.76399">
        <ele>1352</ele>
        <time>2021-06-26T06:14:10.000Z</time>
      </trkpt>
      <trkpt lat="45.23498" lon="5.7639">
        <ele>1352.1999511719</ele>
        <time>2021-06-26T06:14:15.000Z</time>
      </trkpt>
      <trkpt lat="45.23489" lon="5.76372">
        <ele>1352.5999755859</ele>
        <time>2021-06-26T06:14:21.000Z</time>
      </trkpt>
      <trkpt lat="45.23488" lon="5.7637">
        <ele>1352.5999755859</ele>
        <time>2021-06-26T06:14:22.000Z</time>
      </trkpt>
      <trkpt lat="45.23488" lon="5.76368">
        <ele>1352.5999755859</ele>
        <time>2021-06-26T06:14:25.000Z</time>
      </trkpt>
      <trkpt lat="45.23489" lon="5.76369">
        <ele>1352.8000488281</ele>
        <time>2021-06-26T06:14:26.000Z</time>
      </trkpt>
      <trkpt lat="45.2349" lon="5.76373">
        <ele>1352.8000488281</ele>
        <time>2021-06-26T06:14:29.000Z</time>
      </trkpt>
      <trkpt lat="45.2349" lon="5.76374">
        <ele>1352.8000488281</ele>
        <time>2021-06-26T06:14:30.000Z</time>
      </trkpt>
      <trkpt lat="45.23491" lon="5.76379">
        <ele>1352.5999755859</ele>
        <time>2021-06-26T06:14:33.000Z</time>
      </trkpt>
      <trkpt lat="45.23493" lon="5.76386">
        <ele>1352.5999755859</ele>
        <time>2021-06-26T06:14:35.000Z</time>
      </trkpt>
      <trkpt lat="45.23498" lon="5.76407">
        <ele>1352</ele>
        <time>2021-06-26T06:14:42.000Z</time>
      </trkpt>
      <trkpt lat="45.23502" lon="5.76423">
        <ele>1351.1999511719</ele>
        <time>2021-06-26T06:14:47.000Z</time>
      </trkpt>
      <trkpt lat="45.23505" lon="5.76432">
        <ele>1350.5999755859</ele>
        <time>2021-06-26T06:14:50.000Z</time>
      </trkpt>
      <trkpt lat="45.23506" lon="5.76435">
        <ele>1350.4000244141</ele>
        <time>2021-06-26T06:14:51.000Z</time>
      </trkpt>
      <trkpt lat="45.23509" lon="5.76443">
        <ele>1350.4000244141</ele>
        <time>2021-06-26T06:14:54.000Z</time>
      </trkpt>
      <trkpt lat="45.2351" lon="5.7645">
        <ele>1349.4000244141</ele>
        <time>2021-06-26T06:14:57.000Z</time>
      </trkpt>
      <trkpt lat="45.23509" lon="5.76448">
        <ele>1349.4000244141</ele>
        <time>2021-06-26T06:15:00.000Z</time>
      </trkpt>
      <trkpt lat="45.23508" lon="5.76447">
        <ele>1349.5999755859</ele>
        <time>2021-06-26T06:15:03.000Z</time>
      </trkpt>
      <trkpt lat="45.23508" lon="5.76448">
        <ele>1349.5999755859</ele>
        <time>2021-06-26T06:15:05.000Z</time>
      </trkpt>
      <trkpt lat="45.23507" lon="5.76451">
        <ele>1349.5999755859</ele>
        <time>2021-06-26T06:15:08.000Z</time>
      </trkpt>
      <trkpt lat="45.23507" lon="5.76451">
        <ele>1349.4000244141</ele>
        <time>2021-06-26T06:15:11.000Z</time>
      </trkpt>
      <trkpt lat="45.23507" lon="5.76451">
        <ele>1349.5999755859</ele>
        <time>2021-06-26T06:15:14.000Z</time>
      </trkpt>
      <trkpt lat="45.23507" lon="5.76451">
        <ele>1349.4000244141</ele>
        <time>2021-06-26T06:15:19.000Z</time>
      </trkpt>
      <trkpt lat="45.23507" lon="5.76451">
        <ele>1349.4000244141</ele>
        <time>2021-06-26T06:15:23.000Z</time>
      </trkpt>
      <trkpt lat="45.23507" lon="5.76451">
        <ele>1349.4000244141</ele>
        <time>2021-06-26T06:15:26.000Z</time>
      </trkpt>
      <trkpt lat="45.23506" lon="5.76452">
        <ele>1349.4000244141</ele>
        <time>2021-06-26T06:15:32.000Z</time>
      </trkpt>
      <trkpt lat="45.23503" lon="5.76459">
        <ele>1348.5999755859</ele>
        <time>2021-06-26T06:15:37.000Z</time>
      </trkpt>
      <trkpt lat="45.235" lon="5.76464">
        <ele>1348.4000244141</ele>
        <time>2021-06-26T06:15:39.000Z</time>
      </trkpt>
      <trkpt lat="45.23499" lon="5.76466">
        <ele>1348.1999511719</ele>
        <time>2021-06-26T06:15:40.000Z</time>
      </trkpt>
      <trkpt lat="45.235" lon="5.76467">
        <ele>1348</ele>
        <time>2021-06-26T06:15:41.000Z</time>
      </trkpt>
      <trkpt lat="45.23501" lon="5.76468">
        <ele>1347.1999511719</ele>
        <time>2021-06-26T06:15:42.000Z</time>
      </trkpt>
      <trkpt lat="45.23501" lon="5.76471">
        <ele>1347</ele>
        <time>2021-06-26T06:15:44.000Z</time>
      </trkpt>
      <trkpt lat="45.235" lon="5.76478">
        <ele>1346.4000244141</ele>
        <time>2021-06-26T06:15:46.000Z</time>
      </trkpt>
      <trkpt lat="45.23502" lon="5.76488">
        <ele>1345.8000488281</ele>
        <time>2021-06-26T06:15:50.000Z</time>
      </trkpt>
      <trkpt lat="45.23503" lon="5.76487">
        <ele>1345.8000488281</ele>
        <time>2021-06-26T06:15:51.000Z</time>
      </trkpt>
      <trkpt lat="45.23505" lon="5.76487">
        <ele>1345.8000488281</ele>
        <time>2021-06-26T06:15:52.000Z</time>
      </trkpt>
      <trkpt lat="45.23506" lon="5.76487">
        <ele>1345.8000488281</ele>
        <time>2021-06-26T06:15:58.000Z</time>
      </trkpt>
      <trkpt lat="45.23507" lon="5.76487">
        <ele>1345.8000488281</ele>
        <time>2021-06-26T06:16:03.000Z</time>
      </trkpt>
      <trkpt lat="45.23507" lon="5.76487">
        <ele>1345.8000488281</ele>
        <time>2021-06-26T06:16:05.000Z</time>
      </trkpt>
      <trkpt lat="45.23506" lon="5.76492">
        <ele>1345.5999755859</ele>
        <time>2021-06-26T06:16:11.000Z</time>
      </trkpt>
      <trkpt lat="45.23506" lon="5.76491">
        <ele>1345.1999511719</ele>
        <time>2021-06-26T06:16:14.000Z</time>
      </trkpt>
      <trkpt lat="45.23506" lon="5.76492">
        <ele>1344.8000488281</ele>
        <time>2021-06-26T06:16:15.000Z</time>
      </trkpt>
      <trkpt lat="45.23546" lon="5.76625">
        <ele>1332.8000488281</ele>
        <time>2021-06-26T06:17:04.000Z</time>
      </trkpt>
      <trkpt lat="45.23544" lon="5.7663">
        <ele>1332.4000244141</ele>
        <time>2021-06-26T06:17:05.000Z</time>
      </trkpt>
      <trkpt lat="45.23551" lon="5.7665">
        <ele>1332.5999755859</ele>
        <time>2021-06-26T06:17:10.000Z</time>
      </trkpt>
      <trkpt lat="45.23555" lon="5.76662">
        <ele>1333.5999755859</ele>
        <time>2021-06-26T06:17:13.000Z</time>
      </trkpt>
      <trkpt lat="45.23558" lon="5.76674">
        <ele>1333.8000488281</ele>
        <time>2021-06-26T06:17:17.000Z</time>
      </trkpt>
      <trkpt lat="45.23561" lon="5.76685">
        <ele>1334.1999511719</ele>
        <time>2021-06-26T06:17:21.000Z</time>
      </trkpt>
      <trkpt lat="45.23564" lon="5.76691">
        <ele>1334.4000244141</ele>
        <time>2021-06-26T06:17:23.000Z</time>
      </trkpt>
      <trkpt lat="45.23571" lon="5.7671">
        <ele>1334.1999511719</ele>
        <time>2021-06-26T06:17:29.000Z</time>
      </trkpt>
      <trkpt lat="45.23579" lon="5.76732">
        <ele>1333.8000488281</ele>
        <time>2021-06-26T06:17:36.000Z</time>
      </trkpt>
      <trkpt lat="45.23582" lon="5.76741">
        <ele>1333.8000488281</ele>
        <time>2021-06-26T06:17:38.000Z</time>
      </trkpt>
      <trkpt lat="45.23583" lon="5.76745">
        <ele>1333.8000488281</ele>
        <time>2021-06-26T06:17:39.000Z</time>
      </trkpt>
      <trkpt lat="45.23586" lon="5.76751">
        <ele>1333.8000488281</ele>
        <time>2021-06-26T06:17:41.000Z</time>
      </trkpt>
      <trkpt lat="45.23589" lon="5.76759">
        <ele>1333.4000244141</ele>
        <time>2021-06-26T06:17:43.000Z</time>
      </trkpt>
      <trkpt lat="45.23591" lon="5.76767">
        <ele>1333.8000488281</ele>
        <time>2021-06-26T06:17:45.000Z</time>
      </trkpt>
      <trkpt lat="45.23594" lon="5.76776">
        <ele>1333.5999755859</ele>
        <time>2021-06-26T06:17:48.000Z</time>
      </trkpt>
      <trkpt lat="45.23597" lon="5.76775">
        <ele>1333.8000488281</ele>
        <time>2021-06-26T06:17:50.000Z</time>
      </trkpt>
      <trkpt lat="45.23603" lon="5.76775">
        <ele>1334.1999511719</ele>
        <time>2021-06-26T06:17:53.000Z</time>
      </trkpt>
      <trkpt lat="45.23604" lon="5.76778">
        <ele>1334.5999755859</ele>
        <time>2021-06-26T06:17:56.000Z</time>
      </trkpt>
      <trkpt lat="45.23605" lon="5.76778">
        <ele>1335</ele>
        <time>2021-06-26T06:17:58.000Z</time>
      </trkpt>
      <trkpt lat="45.23606" lon="5.76781">
        <ele>1335.8000488281</ele>
        <time>2021-06-26T06:18:01.000Z</time>
      </trkpt>
      <trkpt lat="45.23606" lon="5.76783">
        <ele>1335.8000488281</ele>
        <time>2021-06-26T06:18:02.000Z</time>
      </trkpt>
      <trkpt lat="45.23607" lon="5.76788">
        <ele>1336.1999511719</ele>
        <time>2021-06-26T06:18:04.000Z</time>
      </trkpt>
      <trkpt lat="45.23608" lon="5.76792">
        <ele>1336.5999755859</ele>
        <time>2021-06-26T06:18:06.000Z</time>
      </trkpt>
      <trkpt lat="45.23609" lon="5.76795">
        <ele>1337.1999511719</ele>
        <time>2021-06-26T06:18:07.000Z</time>
      </trkpt>
      <trkpt lat="45.23609" lon="5.76797">
        <ele>1337.4000244141</ele>
        <time>2021-06-26T06:18:08.000Z</time>
      </trkpt>
      <trkpt lat="45.23609" lon="5.768">
        <ele>1337.8000488281</ele>
        <time>2021-06-26T06:18:11.000Z</time>
      </trkpt>
      <trkpt lat="45.2361" lon="5.76802">
        <ele>1338</ele>
        <time>2021-06-26T06:18:12.000Z</time>
      </trkpt>
      <trkpt lat="45.23612" lon="5.76819">
        <ele>1338</ele>
        <time>2021-06-26T06:18:17.000Z</time>
      </trkpt>
      <trkpt lat="45.23613" lon="5.76825">
        <ele>1338</ele>
        <time>2021-06-26T06:18:19.000Z</time>
      </trkpt>
      <trkpt lat="45.23613" lon="5.76827">
        <ele>1338</ele>
        <time>2021-06-26T06:18:20.000Z</time>
      </trkpt>
      <trkpt lat="45.23617" lon="5.76837">
        <ele>1338.4000244141</ele>
        <time>2021-06-26T06:18:24.000Z</time>
      </trkpt>
      <trkpt lat="45.23619" lon="5.76844">
        <ele>1338.4000244141</ele>
        <time>2021-06-26T06:18:27.000Z</time>
      </trkpt>
      <trkpt lat="45.23623" lon="5.76853">
        <ele>1338.5999755859</ele>
        <time>2021-06-26T06:18:31.000Z</time>
      </trkpt>
      <trkpt lat="45.23623" lon="5.76856">
        <ele>1338.5999755859</ele>
        <time>2021-06-26T06:18:32.000Z</time>
      </trkpt>
      <trkpt lat="45.23625" lon="5.76867">
        <ele>1338.4000244141</ele>
        <time>2021-06-26T06:18:36.000Z</time>
      </trkpt>
      <trkpt lat="45.23626" lon="5.7687">
        <ele>1338.4000244141</ele>
        <time>2021-06-26T06:18:40.000Z</time>
      </trkpt>
      <trkpt lat="45.23629" lon="5.76876">
        <ele>1338.1999511719</ele>
        <time>2021-06-26T06:18:44.000Z</time>
      </trkpt>
      <trkpt lat="45.2363" lon="5.7688">
        <ele>1337.8000488281</ele>
        <time>2021-06-26T06:18:47.000Z</time>
      </trkpt>
      <trkpt lat="45.23633" lon="5.76888">
        <ele>1337.1999511719</ele>
        <time>2021-06-26T06:18:51.000Z</time>
      </trkpt>
      <trkpt lat="45.23635" lon="5.76891">
        <ele>1337.1999511719</ele>
        <time>2021-06-26T06:18:53.000Z</time>
      </trkpt>
      <trkpt lat="45.23636" lon="5.76893">
        <ele>1337</ele>
        <time>2021-06-26T06:18:54.000Z</time>
      </trkpt>
      <trkpt lat="45.2364" lon="5.76911">
        <ele>1337.8000488281</ele>
        <time>2021-06-26T06:19:01.000Z</time>
      </trkpt>
      <trkpt lat="45.2364" lon="5.76914">
        <ele>1337.8000488281</ele>
        <time>2021-06-26T06:19:02.000Z</time>
      </trkpt>
      <trkpt lat="45.2364" lon="5.76917">
        <ele>1338.4000244141</ele>
        <time>2021-06-26T06:19:03.000Z</time>
      </trkpt>
      <trkpt lat="45.2364" lon="5.76924">
        <ele>1339.4000244141</ele>
        <time>2021-06-26T06:19:06.000Z</time>
      </trkpt>
      <trkpt lat="45.23641" lon="5.76925">
        <ele>1340</ele>
        <time>2021-06-26T06:19:07.000Z</time>
      </trkpt>
      <trkpt lat="45.23643" lon="5.76928">
        <ele>1340.1999511719</ele>
        <time>2021-06-26T06:19:09.000Z</time>
      </trkpt>
      <trkpt lat="45.23646" lon="5.76935">
        <ele>1340.5999755859</ele>
        <time>2021-06-26T06:19:13.000Z</time>
      </trkpt>
      <trkpt lat="45.23645" lon="5.76942">
        <ele>1341.1999511719</ele>
        <time>2021-06-26T06:19:15.000Z</time>
      </trkpt>
      <trkpt lat="45.23647" lon="5.76948">
        <ele>1341.1999511719</ele>
        <time>2021-06-26T06:19:17.000Z</time>
      </trkpt>
      <trkpt lat="45.2365" lon="5.76956">
        <ele>1341.5999755859</ele>
        <time>2021-06-26T06:19:21.000Z</time>
      </trkpt>
      <trkpt lat="45.23652" lon="5.76964">
        <ele>1341.4000244141</ele>
        <time>2021-06-26T06:19:27.000Z</time>
      </trkpt>
      <trkpt lat="45.23652" lon="5.76968">
        <ele>1341.4000244141</ele>
        <time>2021-06-26T06:19:29.000Z</time>
      </trkpt>
      <trkpt lat="45.23655" lon="5.76974">
        <ele>1341.1999511719</ele>
        <time>2021-06-26T06:19:33.000Z</time>
      </trkpt>
      <trkpt lat="45.23663" lon="5.76992">
        <ele>1341.8000488281</ele>
        <time>2021-06-26T06:19:42.000Z</time>
      </trkpt>
      <trkpt lat="45.23667" lon="5.77006">
        <ele>1342.4000244141</ele>
        <time>2021-06-26T06:19:48.000Z</time>
      </trkpt>
      <trkpt lat="45.23668" lon="5.7701">
        <ele>1342.4000244141</ele>
        <time>2021-06-26T06:19:50.000Z</time>
      </trkpt>
      <trkpt lat="45.23669" lon="5.77015">
        <ele>1342.5999755859</ele>
        <time>2021-06-26T06:19:52.000Z</time>
      </trkpt>
      <trkpt lat="45.23669" lon="5.7702">
        <ele>1342.5999755859</ele>
        <time>2021-06-26T06:19:54.000Z</time>
      </trkpt>
      <trkpt lat="45.23669" lon="5.77023">
        <ele>1343.1999511719</ele>
        <time>2021-06-26T06:19:56.000Z</time>
      </trkpt>
      <trkpt lat="45.23669" lon="5.77024">
        <ele>1343.4000244141</ele>
        <time>2021-06-26T06:19:57.000Z</time>
      </trkpt>
      <trkpt lat="45.2367" lon="5.77024">
        <ele>1343.1999511719</ele>
        <time>2021-06-26T06:20:01.000Z</time>
      </trkpt>
      <trkpt lat="45.23671" lon="5.77024">
        <ele>1342.8000488281</ele>
        <time>2021-06-26T06:20:02.000Z</time>
      </trkpt>
      <trkpt lat="45.23672" lon="5.77024">
        <ele>1342.5999755859</ele>
        <time>2021-06-26T06:20:03.000Z</time>
      </trkpt>
      <trkpt lat="45.23673" lon="5.77025">
        <ele>1342.1999511719</ele>
        <time>2021-06-26T06:20:04.000Z</time>
      </trkpt>
      <trkpt lat="45.23676" lon="5.77031">
        <ele>1341.4000244141</ele>
        <time>2021-06-26T06:20:08.000Z</time>
      </trkpt>
      <trkpt lat="45.23678" lon="5.77032">
        <ele>1341.1999511719</ele>
        <time>2021-06-26T06:20:09.000Z</time>
      </trkpt>
      <trkpt lat="45.2368" lon="5.77037">
        <ele>1340</ele>
        <time>2021-06-26T06:20:12.000Z</time>
      </trkpt>
      <trkpt lat="45.23681" lon="5.77038">
        <ele>1339.5999755859</ele>
        <time>2021-06-26T06:20:13.000Z</time>
      </trkpt>
      <trkpt lat="45.23682" lon="5.77041">
        <ele>1339.1999511719</ele>
        <time>2021-06-26T06:20:15.000Z</time>
      </trkpt>
      <trkpt lat="45.23685" lon="5.77043">
        <ele>1339</ele>
        <time>2021-06-26T06:20:17.000Z</time>
      </trkpt>
      <trkpt lat="45.23686" lon="5.77045">
        <ele>1338.8000488281</ele>
        <time>2021-06-26T06:20:18.000Z</time>
      </trkpt>
      <trkpt lat="45.2369" lon="5.77051">
        <ele>1338</ele>
        <time>2021-06-26T06:20:20.000Z</time>
      </trkpt>
      <trkpt lat="45.23691" lon="5.77052">
        <ele>1338</ele>
        <time>2021-06-26T06:20:21.000Z</time>
      </trkpt>
      <trkpt lat="45.23693" lon="5.77054">
        <ele>1337.5999755859</ele>
        <time>2021-06-26T06:20:22.000Z</time>
      </trkpt>
      <trkpt lat="45.23698" lon="5.77059">
        <ele>1337.4000244141</ele>
        <time>2021-06-26T06:20:26.000Z</time>
      </trkpt>
      <trkpt lat="45.23701" lon="5.77063">
        <ele>1337.1999511719</ele>
        <time>2021-06-26T06:20:28.000Z</time>
      </trkpt>
      <trkpt lat="45.23702" lon="5.77066">
        <ele>1337.4000244141</ele>
        <time>2021-06-26T06:20:29.000Z</time>
      </trkpt>
      <trkpt lat="45.2371" lon="5.77083">
        <ele>1338.1999511719</ele>
        <time>2021-06-26T06:20:35.000Z</time>
      </trkpt>
      <trkpt lat="45.2371" lon="5.77085">
        <ele>1338.1999511719</ele>
        <time>2021-06-26T06:20:36.000Z</time>
      </trkpt>
      <trkpt lat="45.23712" lon="5.77088">
        <ele>1338.5999755859</ele>
        <time>2021-06-26T06:20:38.000Z</time>
      </trkpt>
      <trkpt lat="45.23716" lon="5.77091">
        <ele>1338.5999755859</ele>
        <time>2021-06-26T06:20:41.000Z</time>
      </trkpt>
      <trkpt lat="45.23717" lon="5.77091">
        <ele>1338.4000244141</ele>
        <time>2021-06-26T06:20:42.000Z</time>
      </trkpt>
      <trkpt lat="45.23722" lon="5.77094">
        <ele>1337.1999511719</ele>
        <time>2021-06-26T06:20:46.000Z</time>
      </trkpt>
      <trkpt lat="45.23725" lon="5.77096">
        <ele>1336</ele>
        <time>2021-06-26T06:20:49.000Z</time>
      </trkpt>
      <trkpt lat="45.23728" lon="5.77099">
        <ele>1335.1999511719</ele>
        <time>2021-06-26T06:20:52.000Z</time>
      </trkpt>
      <trkpt lat="45.23731" lon="5.77101">
        <ele>1334.4000244141</ele>
        <time>2021-06-26T06:20:55.000Z</time>
      </trkpt>
      <trkpt lat="45.23736" lon="5.77112">
        <ele>1333.8000488281</ele>
        <time>2021-06-26T06:20:59.000Z</time>
      </trkpt>
      <trkpt lat="45.23737" lon="5.77115">
        <ele>1333.5999755859</ele>
        <time>2021-06-26T06:21:01.000Z</time>
      </trkpt>
      <trkpt lat="45.23739" lon="5.77119">
        <ele>1333.4000244141</ele>
        <time>2021-06-26T06:21:03.000Z</time>
      </trkpt>
      <trkpt lat="45.2374" lon="5.77121">
        <ele>1333.5999755859</ele>
        <time>2021-06-26T06:21:04.000Z</time>
      </trkpt>
      <trkpt lat="45.2374" lon="5.77123">
        <ele>1333</ele>
        <time>2021-06-26T06:21:05.000Z</time>
      </trkpt>
      <trkpt lat="45.23741" lon="5.77127">
        <ele>1332.8000488281</ele>
        <time>2021-06-26T06:21:06.000Z</time>
      </trkpt>
      <trkpt lat="45.23741" lon="5.77129">
        <ele>1332.8000488281</ele>
        <time>2021-06-26T06:21:07.000Z</time>
      </trkpt>
      <trkpt lat="45.23742" lon="5.77131">
        <ele>1332.5999755859</ele>
        <time>2021-06-26T06:21:08.000Z</time>
      </trkpt>
      <trkpt lat="45.23746" lon="5.77138">
        <ele>1332</ele>
        <time>2021-06-26T06:21:12.000Z</time>
      </trkpt>
      <trkpt lat="45.23747" lon="5.77139">
        <ele>1331.4000244141</ele>
        <time>2021-06-26T06:21:13.000Z</time>
      </trkpt>
      <trkpt lat="45.23749" lon="5.7714">
        <ele>1330</ele>
        <time>2021-06-26T06:21:15.000Z</time>
      </trkpt>
      <trkpt lat="45.23754" lon="5.77144">
        <ele>1329.1999511719</ele>
        <time>2021-06-26T06:21:20.000Z</time>
      </trkpt>
      <trkpt lat="45.23755" lon="5.77145">
        <ele>1328.4000244141</ele>
        <time>2021-06-26T06:21:21.000Z</time>
      </trkpt>
      <trkpt lat="45.23759" lon="5.77153">
        <ele>1327</ele>
        <time>2021-06-26T06:21:24.000Z</time>
      </trkpt>
      <trkpt lat="45.23761" lon="5.77157">
        <ele>1326.8000488281</ele>
        <time>2021-06-26T06:21:26.000Z</time>
      </trkpt>
      <trkpt lat="45.23761" lon="5.77159">
        <ele>1326.5999755859</ele>
        <time>2021-06-26T06:21:28.000Z</time>
      </trkpt>
      <trkpt lat="45.23762" lon="5.77159">
        <ele>1326</ele>
        <time>2021-06-26T06:21:30.000Z</time>
      </trkpt>
      <trkpt lat="45.23763" lon="5.77159">
        <ele>1325.5999755859</ele>
        <time>2021-06-26T06:21:31.000Z</time>
      </trkpt>
      <trkpt lat="45.23767" lon="5.7716">
        <ele>1324.8000488281</ele>
        <time>2021-06-26T06:21:34.000Z</time>
      </trkpt>
      <trkpt lat="45.2377" lon="5.77162">
        <ele>1324</ele>
        <time>2021-06-26T06:21:36.000Z</time>
      </trkpt>
      <trkpt lat="45.23772" lon="5.77163">
        <ele>1323.8000488281</ele>
        <time>2021-06-26T06:21:37.000Z</time>
      </trkpt>
      <trkpt lat="45.23778" lon="5.77171">
        <ele>1323.1999511719</ele>
        <time>2021-06-26T06:21:40.000Z</time>
      </trkpt>
      <trkpt lat="45.23782" lon="5.77174">
        <ele>1322.5999755859</ele>
        <time>2021-06-26T06:21:44.000Z</time>
      </trkpt>
      <trkpt lat="45.23783" lon="5.77175">
        <ele>1323</ele>
        <time>2021-06-26T06:21:45.000Z</time>
      </trkpt>
      <trkpt lat="45.23787" lon="5.77181">
        <ele>1322.4000244141</ele>
        <time>2021-06-26T06:21:49.000Z</time>
      </trkpt>
      <trkpt lat="45.23796" lon="5.77194">
        <ele>1322.4000244141</ele>
        <time>2021-06-26T06:21:55.000Z</time>
      </trkpt>
      <trkpt lat="45.23797" lon="5.77197">
        <ele>1322.4000244141</ele>
        <time>2021-06-26T06:21:56.000Z</time>
      </trkpt>
      <trkpt lat="45.23798" lon="5.77199">
        <ele>1322.4000244141</ele>
        <time>2021-06-26T06:21:57.000Z</time>
      </trkpt>
      <trkpt lat="45.238" lon="5.77203">
        <ele>1322.1999511719</ele>
        <time>2021-06-26T06:22:00.000Z</time>
      </trkpt>
      <trkpt lat="45.23803" lon="5.77207">
        <ele>1322.1999511719</ele>
        <time>2021-06-26T06:22:02.000Z</time>
      </trkpt>
      <trkpt lat="45.23805" lon="5.77212">
        <ele>1322.1999511719</ele>
        <time>2021-06-26T06:22:04.000Z</time>
      </trkpt>
      <trkpt lat="45.23816" lon="5.77225">
        <ele>1322.4000244141</ele>
        <time>2021-06-26T06:22:09.000Z</time>
      </trkpt>
      <trkpt lat="45.23819" lon="5.7723">
        <ele>1322.4000244141</ele>
        <time>2021-06-26T06:22:11.000Z</time>
      </trkpt>
      <trkpt lat="45.23822" lon="5.77237">
        <ele>1322.4000244141</ele>
        <time>2021-06-26T06:22:14.000Z</time>
      </trkpt>
      <trkpt lat="45.23822" lon="5.7724">
        <ele>1322.5999755859</ele>
        <time>2021-06-26T06:22:15.000Z</time>
      </trkpt>
      <trkpt lat="45.23825" lon="5.7726">
        <ele>1324</ele>
        <time>2021-06-26T06:22:20.000Z</time>
      </trkpt>
      <trkpt lat="45.23826" lon="5.77264">
        <ele>1324</ele>
        <time>2021-06-26T06:22:21.000Z</time>
      </trkpt>
      <trkpt lat="45.23826" lon="5.77265">
        <ele>1324.4000244141</ele>
        <time>2021-06-26T06:22:22.000Z</time>
      </trkpt>
      <trkpt lat="45.23828" lon="5.77268">
        <ele>1324.4000244141</ele>
        <time>2021-06-26T06:22:25.000Z</time>
      </trkpt>
      <trkpt lat="45.23829" lon="5.77269">
        <ele>1324.4000244141</ele>
        <time>2021-06-26T06:22:26.000Z</time>
      </trkpt>
      <trkpt lat="45.2383" lon="5.7727">
        <ele>1324.4000244141</ele>
        <time>2021-06-26T06:22:27.000Z</time>
      </trkpt>
      <trkpt lat="45.23835" lon="5.77278">
        <ele>1324</ele>
        <time>2021-06-26T06:22:32.000Z</time>
      </trkpt>
      <trkpt lat="45.23836" lon="5.77279">
        <ele>1324</ele>
        <time>2021-06-26T06:22:33.000Z</time>
      </trkpt>
      <trkpt lat="45.23839" lon="5.77286">
        <ele>1323.5999755859</ele>
        <time>2021-06-26T06:22:36.000Z</time>
      </trkpt>
      <trkpt lat="45.23842" lon="5.77296">
        <ele>1324.1999511719</ele>
        <time>2021-06-26T06:22:39.000Z</time>
      </trkpt>
      <trkpt lat="45.23844" lon="5.77298">
        <ele>1324.4000244141</ele>
        <time>2021-06-26T06:22:40.000Z</time>
      </trkpt>
      <trkpt lat="45.23845" lon="5.77301">
        <ele>1324.4000244141</ele>
        <time>2021-06-26T06:22:41.000Z</time>
      </trkpt>
      <trkpt lat="45.2385" lon="5.77303">
        <ele>1324.4000244141</ele>
        <time>2021-06-26T06:22:44.000Z</time>
      </trkpt>
      <trkpt lat="45.23852" lon="5.77305">
        <ele>1325</ele>
        <time>2021-06-26T06:22:46.000Z</time>
      </trkpt>
      <trkpt lat="45.23854" lon="5.77305">
        <ele>1325.4000244141</ele>
        <time>2021-06-26T06:22:47.000Z</time>
      </trkpt>
      <trkpt lat="45.23859" lon="5.77306">
        <ele>1326</ele>
        <time>2021-06-26T06:22:50.000Z</time>
      </trkpt>
      <trkpt lat="45.2386" lon="5.77307">
        <ele>1326</ele>
        <time>2021-06-26T06:22:51.000Z</time>
      </trkpt>
      <trkpt lat="45.23864" lon="5.77314">
        <ele>1326.8000488281</ele>
        <time>2021-06-26T06:22:54.000Z</time>
      </trkpt>
      <trkpt lat="45.23865" lon="5.77315">
        <ele>1327.1999511719</ele>
        <time>2021-06-26T06:22:55.000Z</time>
      </trkpt>
      <trkpt lat="45.23867" lon="5.77316">
        <ele>1328.1999511719</ele>
        <time>2021-06-26T06:22:58.000Z</time>
      </trkpt>
      <trkpt lat="45.23868" lon="5.77317">
        <ele>1328.5999755859</ele>
        <time>2021-06-26T06:22:59.000Z</time>
      </trkpt>
      <trkpt lat="45.23869" lon="5.77317">
        <ele>1328.5999755859</ele>
        <time>2021-06-26T06:23:00.000Z</time>
      </trkpt>
      <trkpt lat="45.23872" lon="5.77318">
        <ele>1329.1999511719</ele>
        <time>2021-06-26T06:23:02.000Z</time>
      </trkpt>
      <trkpt lat="45.23875" lon="5.77319">
        <ele>1329.5999755859</ele>
        <time>2021-06-26T06:23:04.000Z</time>
      </trkpt>
      <trkpt lat="45.23878" lon="5.7732">
        <ele>1329.8000488281</ele>
        <time>2021-06-26T06:23:08.000Z</time>
      </trkpt>
      <trkpt lat="45.2388" lon="5.77321">
        <ele>1330.5999755859</ele>
        <time>2021-06-26T06:23:10.000Z</time>
      </trkpt>
      <trkpt lat="45.23882" lon="5.77323">
        <ele>1330.8000488281</ele>
        <time>2021-06-26T06:23:12.000Z</time>
      </trkpt>
      <trkpt lat="45.23884" lon="5.77325">
        <ele>1331.8000488281</ele>
        <time>2021-06-26T06:23:14.000Z</time>
      </trkpt>
      <trkpt lat="45.23884" lon="5.77326">
        <ele>1331.8000488281</ele>
        <time>2021-06-26T06:23:15.000Z</time>
      </trkpt>
      <trkpt lat="45.23884" lon="5.77327">
        <ele>1331.8000488281</ele>
        <time>2021-06-26T06:23:16.000Z</time>
      </trkpt>
      <trkpt lat="45.23883" lon="5.77329">
        <ele>1332.4000244141</ele>
        <time>2021-06-26T06:23:18.000Z</time>
      </trkpt>
      <trkpt lat="45.23883" lon="5.77331">
        <ele>1333</ele>
        <time>2021-06-26T06:23:19.000Z</time>
      </trkpt>
      <trkpt lat="45.23883" lon="5.77334">
        <ele>1333.5999755859</ele>
        <time>2021-06-26T06:23:22.000Z</time>
      </trkpt>
      <trkpt lat="45.23883" lon="5.77334">
        <ele>1333.8000488281</ele>
        <time>2021-06-26T06:23:23.000Z</time>
      </trkpt>
      <trkpt lat="45.23883" lon="5.77335">
        <ele>1334.4000244141</ele>
        <time>2021-06-26T06:23:24.000Z</time>
      </trkpt>
      <trkpt lat="45.23885" lon="5.7734">
        <ele>1334.5999755859</ele>
        <time>2021-06-26T06:23:28.000Z</time>
      </trkpt>
      <trkpt lat="45.23885" lon="5.77341">
        <ele>1334.5999755859</ele>
        <time>2021-06-26T06:23:29.000Z</time>
      </trkpt>
      <trkpt lat="45.23888" lon="5.77345">
        <ele>1332.8000488281</ele>
        <time>2021-06-26T06:23:34.000Z</time>
      </trkpt>
      <trkpt lat="45.23888" lon="5.77348">
        <ele>1332.5999755859</ele>
        <time>2021-06-26T06:23:36.000Z</time>
      </trkpt>
      <trkpt lat="45.23889" lon="5.77349">
        <ele>1332.5999755859</ele>
        <time>2021-06-26T06:23:37.000Z</time>
      </trkpt>
      <trkpt lat="45.23889" lon="5.7735">
        <ele>1332.4000244141</ele>
        <time>2021-06-26T06:23:38.000Z</time>
      </trkpt>
      <trkpt lat="45.2389" lon="5.77352">
        <ele>1331.8000488281</ele>
        <time>2021-06-26T06:23:39.000Z</time>
      </trkpt>
      <trkpt lat="45.23892" lon="5.7736">
        <ele>1330.8000488281</ele>
        <time>2021-06-26T06:23:42.000Z</time>
      </trkpt>
      <trkpt lat="45.23893" lon="5.7736">
        <ele>1330.8000488281</ele>
        <time>2021-06-26T06:23:43.000Z</time>
      </trkpt>
      <trkpt lat="45.23895" lon="5.77361">
        <ele>1330.4000244141</ele>
        <time>2021-06-26T06:23:44.000Z</time>
      </trkpt>
      <trkpt lat="45.239" lon="5.77362">
        <ele>1329.8000488281</ele>
        <time>2021-06-26T06:23:47.000Z</time>
      </trkpt>
      <trkpt lat="45.23901" lon="5.77363">
        <ele>1329.5999755859</ele>
        <time>2021-06-26T06:23:48.000Z</time>
      </trkpt>
      <trkpt lat="45.23904" lon="5.77367">
        <ele>1329.4000244141</ele>
        <time>2021-06-26T06:23:52.000Z</time>
      </trkpt>
      <trkpt lat="45.23908" lon="5.77371">
        <ele>1329.5999755859</ele>
        <time>2021-06-26T06:23:55.000Z</time>
      </trkpt>
      <trkpt lat="45.23912" lon="5.77378">
        <ele>1330</ele>
        <time>2021-06-26T06:23:58.000Z</time>
      </trkpt>
      <trkpt lat="45.23914" lon="5.77386">
        <ele>1331</ele>
        <time>2021-06-26T06:24:01.000Z</time>
      </trkpt>
      <trkpt lat="45.23917" lon="5.77388">
        <ele>1331.4000244141</ele>
        <time>2021-06-26T06:24:04.000Z</time>
      </trkpt>
      <trkpt lat="45.23919" lon="5.77389">
        <ele>1331.5999755859</ele>
        <time>2021-06-26T06:24:06.000Z</time>
      </trkpt>
      <trkpt lat="45.23921" lon="5.77389">
        <ele>1331.5999755859</ele>
        <time>2021-06-26T06:24:07.000Z</time>
      </trkpt>
      <trkpt lat="45.23922" lon="5.77389">
        <ele>1331.8000488281</ele>
        <time>2021-06-26T06:24:08.000Z</time>
      </trkpt>
      <trkpt lat="45.23924" lon="5.77389">
        <ele>1332.5999755859</ele>
        <time>2021-06-26T06:24:10.000Z</time>
      </trkpt>
      <trkpt lat="45.23926" lon="5.77388">
        <ele>1333.4000244141</ele>
        <time>2021-06-26T06:24:12.000Z</time>
      </trkpt>
      <trkpt lat="45.23926" lon="5.77389">
        <ele>1333.8000488281</ele>
        <time>2021-06-26T06:24:13.000Z</time>
      </trkpt>
      <trkpt lat="45.23929" lon="5.77393">
        <ele>1334</ele>
        <time>2021-06-26T06:24:16.000Z</time>
      </trkpt>
      <trkpt lat="45.23929" lon="5.77393">
        <ele>1334</ele>
        <time>2021-06-26T06:24:17.000Z</time>
      </trkpt>
      <trkpt lat="45.23937" lon="5.77401">
        <ele>1333.8000488281</ele>
        <time>2021-06-26T06:24:24.000Z</time>
      </trkpt>
      <trkpt lat="45.23938" lon="5.77403">
        <ele>1333.8000488281</ele>
        <time>2021-06-26T06:24:25.000Z</time>
      </trkpt>
      <trkpt lat="45.23939" lon="5.77406">
        <ele>1334.5999755859</ele>
        <time>2021-06-26T06:24:27.000Z</time>
      </trkpt>
      <trkpt lat="45.23941" lon="5.77411">
        <ele>1335.1999511719</ele>
        <time>2021-06-26T06:24:29.000Z</time>
      </trkpt>
      <trkpt lat="45.23941" lon="5.77413">
        <ele>1335.4000244141</ele>
        <time>2021-06-26T06:24:30.000Z</time>
      </trkpt>
      <trkpt lat="45.23941" lon="5.77414">
        <ele>1336.4000244141</ele>
        <time>2021-06-26T06:24:31.000Z</time>
      </trkpt>
      <trkpt lat="45.23942" lon="5.77416">
        <ele>1336.4000244141</ele>
        <time>2021-06-26T06:24:32.000Z</time>
      </trkpt>
      <trkpt lat="45.23942" lon="5.77418">
        <ele>1337.1999511719</ele>
        <time>2021-06-26T06:24:35.000Z</time>
      </trkpt>
      <trkpt lat="45.23942" lon="5.7742">
        <ele>1337.5999755859</ele>
        <time>2021-06-26T06:24:36.000Z</time>
      </trkpt>
      <trkpt lat="45.23942" lon="5.77421">
        <ele>1337.8000488281</ele>
        <time>2021-06-26T06:24:37.000Z</time>
      </trkpt>
      <trkpt lat="45.23944" lon="5.77429">
        <ele>1338.1999511719</ele>
        <time>2021-06-26T06:24:41.000Z</time>
      </trkpt>
      <trkpt lat="45.23944" lon="5.7743">
        <ele>1338.5999755859</ele>
        <time>2021-06-26T06:24:42.000Z</time>
      </trkpt>
      <trkpt lat="45.23944" lon="5.77431">
        <ele>1339</ele>
        <time>2021-06-26T06:24:43.000Z</time>
      </trkpt>
      <trkpt lat="45.23944" lon="5.77434">
        <ele>1339.5999755859</ele>
        <time>2021-06-26T06:24:46.000Z</time>
      </trkpt>
      <trkpt lat="45.23944" lon="5.77435">
        <ele>1340.1999511719</ele>
        <time>2021-06-26T06:24:47.000Z</time>
      </trkpt>
      <trkpt lat="45.23944" lon="5.77437">
        <ele>1340.5999755859</ele>
        <time>2021-06-26T06:24:48.000Z</time>
      </trkpt>
      <trkpt lat="45.23942" lon="5.7744">
        <ele>1340.8000488281</ele>
        <time>2021-06-26T06:24:50.000Z</time>
      </trkpt>
      <trkpt lat="45.23942" lon="5.77441">
        <ele>1341.1999511719</ele>
        <time>2021-06-26T06:24:51.000Z</time>
      </trkpt>
      <trkpt lat="45.23941" lon="5.77443">
        <ele>1341.5999755859</ele>
        <time>2021-06-26T06:24:52.000Z</time>
      </trkpt>
      <trkpt lat="45.2394" lon="5.77447">
        <ele>1342.4000244141</ele>
        <time>2021-06-26T06:24:56.000Z</time>
      </trkpt>
      <trkpt lat="45.2394" lon="5.77448">
        <ele>1342.4000244141</ele>
        <time>2021-06-26T06:24:58.000Z</time>
      </trkpt>
      <trkpt lat="45.23939" lon="5.77448">
        <ele>1342.1999511719</ele>
        <time>2021-06-26T06:25:01.000Z</time>
      </trkpt>
      <trkpt lat="45.23939" lon="5.77448">
        <ele>1342.1999511719</ele>
        <time>2021-06-26T06:25:02.000Z</time>
      </trkpt>
      <trkpt lat="45.23939" lon="5.77451">
        <ele>1342.1999511719</ele>
        <time>2021-06-26T06:25:05.000Z</time>
      </trkpt>
      <trkpt lat="45.23939" lon="5.77451">
        <ele>1342.1999511719</ele>
        <time>2021-06-26T06:25:07.000Z</time>
      </trkpt>
      <trkpt lat="45.23939" lon="5.77451">
        <ele>1342.1999511719</ele>
        <time>2021-06-26T06:25:08.000Z</time>
      </trkpt>
      <trkpt lat="45.23939" lon="5.77453">
        <ele>1341.8000488281</ele>
        <time>2021-06-26T06:25:14.000Z</time>
      </trkpt>
      <trkpt lat="45.23939" lon="5.77453">
        <ele>1341.8000488281</ele>
        <time>2021-06-26T06:25:26.000Z</time>
      </trkpt>
      <trkpt lat="45.23939" lon="5.77453">
        <ele>1341.8000488281</ele>
        <time>2021-06-26T06:25:28.000Z</time>
      </trkpt>
      <trkpt lat="45.23939" lon="5.77453">
        <ele>1341.8000488281</ele>
        <time>2021-06-26T06:25:29.000Z</time>
      </trkpt>
      <trkpt lat="45.23938" lon="5.77455">
        <ele>1341.8000488281</ele>
        <time>2021-06-26T06:25:47.000Z</time>
      </trkpt>
      <trkpt lat="45.23937" lon="5.77455">
        <ele>1341.8000488281</ele>
        <time>2021-06-26T06:25:49.000Z</time>
      </trkpt>
      <trkpt lat="45.23937" lon="5.77455">
        <ele>1341.8000488281</ele>
        <time>2021-06-26T06:25:51.000Z</time>
      </trkpt>
      <trkpt lat="45.23937" lon="5.77455">
        <ele>1341.8000488281</ele>
        <time>2021-06-26T06:25:53.000Z</time>
      </trkpt>
      <trkpt lat="45.23936" lon="5.77455">
        <ele>1341.8000488281</ele>
        <time>2021-06-26T06:25:55.000Z</time>
      </trkpt>
      <trkpt lat="45.23936" lon="5.77455">
        <ele>1341.8000488281</ele>
        <time>2021-06-26T06:26:01.000Z</time>
      </trkpt>
      <trkpt lat="45.23936" lon="5.77456">
        <ele>1341.8000488281</ele>
        <time>2021-06-26T06:26:02.000Z</time>
      </trkpt>
      <trkpt lat="45.23936" lon="5.77456">
        <ele>1341.8000488281</ele>
        <time>2021-06-26T06:26:13.000Z</time>
      </trkpt>
      <trkpt lat="45.23936" lon="5.77456">
        <ele>1341.8000488281</ele>
        <time>2021-06-26T06:26:16.000Z</time>
      </trkpt>
      <trkpt lat="45.2394" lon="5.77457">
        <ele>1341.8000488281</ele>
        <time>2021-06-26T06:26:25.000Z</time>
      </trkpt>
      <trkpt lat="45.23949" lon="5.77462">
        <ele>1341.8000488281</ele>
        <time>2021-06-26T06:26:31.000Z</time>
      </trkpt>
      <trkpt lat="45.23952" lon="5.77463">
        <ele>1341.8000488281</ele>
        <time>2021-06-26T06:26:33.000Z</time>
      </trkpt>
      <trkpt lat="45.23957" lon="5.77467">
        <ele>1341.8000488281</ele>
        <time>2021-06-26T06:26:36.000Z</time>
      </trkpt>
      <trkpt lat="45.23958" lon="5.77468">
        <ele>1341.8000488281</ele>
        <time>2021-06-26T06:26:37.000Z</time>
      </trkpt>
      <trkpt lat="45.23962" lon="5.77473">
        <ele>1342</ele>
        <time>2021-06-26T06:26:40.000Z</time>
      </trkpt>
      <trkpt lat="45.23963" lon="5.77475">
        <ele>1342</ele>
        <time>2021-06-26T06:26:41.000Z</time>
      </trkpt>
      <trkpt lat="45.23967" lon="5.7748">
        <ele>1342.1999511719</ele>
        <time>2021-06-26T06:26:43.000Z</time>
      </trkpt>
      <trkpt lat="45.23969" lon="5.77487">
        <ele>1342.1999511719</ele>
        <time>2021-06-26T06:26:45.000Z</time>
      </trkpt>
      <trkpt lat="45.23973" lon="5.77495">
        <ele>1342.8000488281</ele>
        <time>2021-06-26T06:26:48.000Z</time>
      </trkpt>
      <trkpt lat="45.23976" lon="5.77501">
        <ele>1343</ele>
        <time>2021-06-26T06:26:51.000Z</time>
      </trkpt>
      <trkpt lat="45.23978" lon="5.77507">
        <ele>1343.5999755859</ele>
        <time>2021-06-26T06:26:54.000Z</time>
      </trkpt>
      <trkpt lat="45.2398" lon="5.7751">
        <ele>1343.8000488281</ele>
        <time>2021-06-26T06:26:56.000Z</time>
      </trkpt>
      <trkpt lat="45.23984" lon="5.77515">
        <ele>1343.8000488281</ele>
        <time>2021-06-26T06:26:59.000Z</time>
      </trkpt>
      <trkpt lat="45.2399" lon="5.77519">
        <ele>1343.8000488281</ele>
        <time>2021-06-26T06:27:02.000Z</time>
      </trkpt>
      <trkpt lat="45.23998" lon="5.77524">
        <ele>1342.5999755859</ele>
        <time>2021-06-26T06:27:07.000Z</time>
      </trkpt>
      <trkpt lat="45.23999" lon="5.77529">
        <ele>1342</ele>
        <time>2021-06-26T06:27:10.000Z</time>
      </trkpt>
      <trkpt lat="45.23998" lon="5.77531">
        <ele>1342</ele>
        <time>2021-06-26T06:27:11.000Z</time>
      </trkpt>
      <trkpt lat="45.23998" lon="5.77538">
        <ele>1342</ele>
        <time>2021-06-26T06:27:15.000Z</time>
      </trkpt>
      <trkpt lat="45.23999" lon="5.7754">
        <ele>1342</ele>
        <time>2021-06-26T06:27:17.000Z</time>
      </trkpt>
      <trkpt lat="45.23998" lon="5.77542">
        <ele>1342</ele>
        <time>2021-06-26T06:27:21.000Z</time>
      </trkpt>
      <trkpt lat="45.23997" lon="5.77546">
        <ele>1342</ele>
        <time>2021-06-26T06:27:29.000Z</time>
      </trkpt>
      <trkpt lat="45.24001" lon="5.77546">
        <ele>1342</ele>
        <time>2021-06-26T06:27:38.000Z</time>
      </trkpt>
      <trkpt lat="45.24002" lon="5.77546">
        <ele>1341.5999755859</ele>
        <time>2021-06-26T06:27:39.000Z</time>
      </trkpt>
      <trkpt lat="45.24003" lon="5.77545">
        <ele>1341</ele>
        <time>2021-06-26T06:27:41.000Z</time>
      </trkpt>
      <trkpt lat="45.24004" lon="5.77544">
        <ele>1340.4000244141</ele>
        <time>2021-06-26T06:27:43.000Z</time>
      </trkpt>
      <trkpt lat="45.24007" lon="5.77547">
        <ele>1340.4000244141</ele>
        <time>2021-06-26T06:27:47.000Z</time>
      </trkpt>
      <trkpt lat="45.24009" lon="5.77549">
        <ele>1340.4000244141</ele>
        <time>2021-06-26T06:27:49.000Z</time>
      </trkpt>
      <trkpt lat="45.24011" lon="5.7755">
        <ele>1340</ele>
        <time>2021-06-26T06:27:51.000Z</time>
      </trkpt>
      <trkpt lat="45.24013" lon="5.77554">
        <ele>1339.8000488281</ele>
        <time>2021-06-26T06:27:54.000Z</time>
      </trkpt>
      <trkpt lat="45.24015" lon="5.77554">
        <ele>1340</ele>
        <time>2021-06-26T06:27:56.000Z</time>
      </trkpt>
      <trkpt lat="45.24018" lon="5.77559">
        <ele>1340.4000244141</ele>
        <time>2021-06-26T06:27:59.000Z</time>
      </trkpt>
      <trkpt lat="45.2402" lon="5.77561">
        <ele>1340.8000488281</ele>
        <time>2021-06-26T06:28:02.000Z</time>
      </trkpt>
      <trkpt lat="45.24022" lon="5.77562">
        <ele>1340.1999511719</ele>
        <time>2021-06-26T06:28:05.000Z</time>
      </trkpt>
      <trkpt lat="45.24026" lon="5.77565">
        <ele>1340.1999511719</ele>
        <time>2021-06-26T06:28:08.000Z</time>
      </trkpt>
      <trkpt lat="45.24031" lon="5.77566">
        <ele>1339.5999755859</ele>
        <time>2021-06-26T06:28:11.000Z</time>
      </trkpt>
      <trkpt lat="45.24032" lon="5.77568">
        <ele>1339.4000244141</ele>
        <time>2021-06-26T06:28:12.000Z</time>
      </trkpt>
      <trkpt lat="45.24044" lon="5.77569">
        <ele>1338.1999511719</ele>
        <time>2021-06-26T06:28:19.000Z</time>
      </trkpt>
      <trkpt lat="45.24046" lon="5.77568">
        <ele>1337.5999755859</ele>
        <time>2021-06-26T06:28:20.000Z</time>
      </trkpt>
      <trkpt lat="45.24047" lon="5.77568">
        <ele>1337</ele>
        <time>2021-06-26T06:28:21.000Z</time>
      </trkpt>
      <trkpt lat="45.24049" lon="5.77568">
        <ele>1337</ele>
        <time>2021-06-26T06:28:22.000Z</time>
      </trkpt>
      <trkpt lat="45.24053" lon="5.77572">
        <ele>1336.5999755859</ele>
        <time>2021-06-26T06:28:25.000Z</time>
      </trkpt>
      <trkpt lat="45.24056" lon="5.77574">
        <ele>1336.5999755859</ele>
        <time>2021-06-26T06:28:27.000Z</time>
      </trkpt>
      <trkpt lat="45.24058" lon="5.77583">
        <ele>1336.8000488281</ele>
        <time>2021-06-26T06:28:30.000Z</time>
      </trkpt>
      <trkpt lat="45.24059" lon="5.77585">
        <ele>1337</ele>
        <time>2021-06-26T06:28:31.000Z</time>
      </trkpt>
      <trkpt lat="45.24061" lon="5.77589">
        <ele>1338.1999511719</ele>
        <time>2021-06-26T06:28:33.000Z</time>
      </trkpt>
      <trkpt lat="45.24063" lon="5.77595">
        <ele>1338.8000488281</ele>
        <time>2021-06-26T06:28:36.000Z</time>
      </trkpt>
      <trkpt lat="45.24064" lon="5.77597">
        <ele>1339.4000244141</ele>
        <time>2021-06-26T06:28:37.000Z</time>
      </trkpt>
      <trkpt lat="45.24066" lon="5.77604">
        <ele>1340.4000244141</ele>
        <time>2021-06-26T06:28:40.000Z</time>
      </trkpt>
      <trkpt lat="45.24067" lon="5.77608">
        <ele>1341</ele>
        <time>2021-06-26T06:28:42.000Z</time>
      </trkpt>
      <trkpt lat="45.24068" lon="5.77613">
        <ele>1341.4000244141</ele>
        <time>2021-06-26T06:28:44.000Z</time>
      </trkpt>
      <trkpt lat="45.24068" lon="5.77615">
        <ele>1341.5999755859</ele>
        <time>2021-06-26T06:28:45.000Z</time>
      </trkpt>
      <trkpt lat="45.24071" lon="5.7762">
        <ele>1342.4000244141</ele>
        <time>2021-06-26T06:28:49.000Z</time>
      </trkpt>
      <trkpt lat="45.24072" lon="5.77621">
        <ele>1342.5999755859</ele>
        <time>2021-06-26T06:28:50.000Z</time>
      </trkpt>
      <trkpt lat="45.24081" lon="5.77627">
        <ele>1343.1999511719</ele>
        <time>2021-06-26T06:28:55.000Z</time>
      </trkpt>
      <trkpt lat="45.24083" lon="5.77628">
        <ele>1343.1999511719</ele>
        <time>2021-06-26T06:28:56.000Z</time>
      </trkpt>
      <trkpt lat="45.24087" lon="5.77637">
        <ele>1343.1999511719</ele>
        <time>2021-06-26T06:29:00.000Z</time>
      </trkpt>
      <trkpt lat="45.24089" lon="5.77638">
        <ele>1343.1999511719</ele>
        <time>2021-06-26T06:29:01.000Z</time>
      </trkpt>
      <trkpt lat="45.24095" lon="5.77643">
        <ele>1343.5999755859</ele>
        <time>2021-06-26T06:29:05.000Z</time>
      </trkpt>
      <trkpt lat="45.24096" lon="5.77644">
        <ele>1343.5999755859</ele>
        <time>2021-06-26T06:29:06.000Z</time>
      </trkpt>
      <trkpt lat="45.24102" lon="5.77649">
        <ele>1343.8000488281</ele>
        <time>2021-06-26T06:29:10.000Z</time>
      </trkpt>
      <trkpt lat="45.24114" lon="5.7766">
        <ele>1342.5999755859</ele>
        <time>2021-06-26T06:29:16.000Z</time>
      </trkpt>
      <trkpt lat="45.24117" lon="5.77663">
        <ele>1342.4000244141</ele>
        <time>2021-06-26T06:29:18.000Z</time>
      </trkpt>
      <trkpt lat="45.2412" lon="5.77665">
        <ele>1342.4000244141</ele>
        <time>2021-06-26T06:29:20.000Z</time>
      </trkpt>
      <trkpt lat="45.24122" lon="5.77666">
        <ele>1341.4000244141</ele>
        <time>2021-06-26T06:29:22.000Z</time>
      </trkpt>
      <trkpt lat="45.24122" lon="5.77668">
        <ele>1341.4000244141</ele>
        <time>2021-06-26T06:29:23.000Z</time>
      </trkpt>
      <trkpt lat="45.24123" lon="5.7767">
        <ele>1341.4000244141</ele>
        <time>2021-06-26T06:29:24.000Z</time>
      </trkpt>
      <trkpt lat="45.2413" lon="5.77679">
        <ele>1342.1999511719</ele>
        <time>2021-06-26T06:29:28.000Z</time>
      </trkpt>
      <trkpt lat="45.24133" lon="5.77684">
        <ele>1342.5999755859</ele>
        <time>2021-06-26T06:29:30.000Z</time>
      </trkpt>
      <trkpt lat="45.24141" lon="5.77693">
        <ele>1344.4000244141</ele>
        <time>2021-06-26T06:29:35.000Z</time>
      </trkpt>
      <trkpt lat="45.24143" lon="5.77696">
        <ele>1344.4000244141</ele>
        <time>2021-06-26T06:29:37.000Z</time>
      </trkpt>
      <trkpt lat="45.24147" lon="5.77701">
        <ele>1345.8000488281</ele>
        <time>2021-06-26T06:29:41.000Z</time>
      </trkpt>
      <trkpt lat="45.2415" lon="5.77707">
        <ele>1346</ele>
        <time>2021-06-26T06:29:44.000Z</time>
      </trkpt>
      <trkpt lat="45.2415" lon="5.77709">
        <ele>1346</ele>
        <time>2021-06-26T06:29:45.000Z</time>
      </trkpt>
      <trkpt lat="45.24151" lon="5.7771">
        <ele>1346.8000488281</ele>
        <time>2021-06-26T06:29:46.000Z</time>
      </trkpt>
      <trkpt lat="45.24152" lon="5.77712">
        <ele>1347.1999511719</ele>
        <time>2021-06-26T06:29:48.000Z</time>
      </trkpt>
      <trkpt lat="45.24155" lon="5.77713">
        <ele>1347.5999755859</ele>
        <time>2021-06-26T06:29:51.000Z</time>
      </trkpt>
      <trkpt lat="45.2416" lon="5.77719">
        <ele>1348</ele>
        <time>2021-06-26T06:29:55.000Z</time>
      </trkpt>
      <trkpt lat="45.24161" lon="5.77726">
        <ele>1348.4000244141</ele>
        <time>2021-06-26T06:29:58.000Z</time>
      </trkpt>
      <trkpt lat="45.24161" lon="5.77728">
        <ele>1349.1999511719</ele>
        <time>2021-06-26T06:29:59.000Z</time>
      </trkpt>
      <trkpt lat="45.24161" lon="5.7773">
        <ele>1349.5999755859</ele>
        <time>2021-06-26T06:30:01.000Z</time>
      </trkpt>
      <trkpt lat="45.24165" lon="5.77734">
        <ele>1350</ele>
        <time>2021-06-26T06:30:05.000Z</time>
      </trkpt>
      <trkpt lat="45.24166" lon="5.77735">
        <ele>1350.1999511719</ele>
        <time>2021-06-26T06:30:06.000Z</time>
      </trkpt>
      <trkpt lat="45.2417" lon="5.77745">
        <ele>1351.8000488281</ele>
        <time>2021-06-26T06:30:10.000Z</time>
      </trkpt>
      <trkpt lat="45.24171" lon="5.77746">
        <ele>1351.8000488281</ele>
        <time>2021-06-26T06:30:11.000Z</time>
      </trkpt>
      <trkpt lat="45.24172" lon="5.77746">
        <ele>1351.8000488281</ele>
        <time>2021-06-26T06:30:12.000Z</time>
      </trkpt>
      <trkpt lat="45.24174" lon="5.77751">
        <ele>1351.4000244141</ele>
        <time>2021-06-26T06:30:16.000Z</time>
      </trkpt>
      <trkpt lat="45.24177" lon="5.77755">
        <ele>1351.4000244141</ele>
        <time>2021-06-26T06:30:19.000Z</time>
      </trkpt>
      <trkpt lat="45.24178" lon="5.77756">
        <ele>1351.4000244141</ele>
        <time>2021-06-26T06:30:20.000Z</time>
      </trkpt>
      <trkpt lat="45.24179" lon="5.7776">
        <ele>1352.5999755859</ele>
        <time>2021-06-26T06:30:22.000Z</time>
      </trkpt>
      <trkpt lat="45.24179" lon="5.77762">
        <ele>1352.5999755859</ele>
        <time>2021-06-26T06:30:23.000Z</time>
      </trkpt>
      <trkpt lat="45.2418" lon="5.77764">
        <ele>1352.5999755859</ele>
        <time>2021-06-26T06:30:26.000Z</time>
      </trkpt>
      <trkpt lat="45.24181" lon="5.77764">
        <ele>1352.1999511719</ele>
        <time>2021-06-26T06:30:27.000Z</time>
      </trkpt>
      <trkpt lat="45.24182" lon="5.77764">
        <ele>1351.5999755859</ele>
        <time>2021-06-26T06:30:29.000Z</time>
      </trkpt>
      <trkpt lat="45.24183" lon="5.77764">
        <ele>1350.8000488281</ele>
        <time>2021-06-26T06:30:30.000Z</time>
      </trkpt>
      <trkpt lat="45.24186" lon="5.77765">
        <ele>1350.5999755859</ele>
        <time>2021-06-26T06:30:32.000Z</time>
      </trkpt>
      <trkpt lat="45.24187" lon="5.77766">
        <ele>1350.4000244141</ele>
        <time>2021-06-26T06:30:33.000Z</time>
      </trkpt>
      <trkpt lat="45.24188" lon="5.7777">
        <ele>1350.1999511719</ele>
        <time>2021-06-26T06:30:36.000Z</time>
      </trkpt>
      <trkpt lat="45.24188" lon="5.77771">
        <ele>1350.1999511719</ele>
        <time>2021-06-26T06:30:37.000Z</time>
      </trkpt>
      <trkpt lat="45.24189" lon="5.77773">
        <ele>1350.4000244141</ele>
        <time>2021-06-26T06:30:40.000Z</time>
      </trkpt>
      <trkpt lat="45.24189" lon="5.77773">
        <ele>1351</ele>
        <time>2021-06-26T06:30:41.000Z</time>
      </trkpt>
      <trkpt lat="45.2419" lon="5.77776">
        <ele>1351.8000488281</ele>
        <time>2021-06-26T06:30:44.000Z</time>
      </trkpt>
      <trkpt lat="45.24192" lon="5.77778">
        <ele>1352</ele>
        <time>2021-06-26T06:30:45.000Z</time>
      </trkpt>
      <trkpt lat="45.24194" lon="5.77779">
        <ele>1352.5999755859</ele>
        <time>2021-06-26T06:30:46.000Z</time>
      </trkpt>
      <trkpt lat="45.24196" lon="5.77782">
        <ele>1353</ele>
        <time>2021-06-26T06:30:48.000Z</time>
      </trkpt>
      <trkpt lat="45.24197" lon="5.77785">
        <ele>1353.1999511719</ele>
        <time>2021-06-26T06:30:50.000Z</time>
      </trkpt>
      <trkpt lat="45.24203" lon="5.7779">
        <ele>1354.1999511719</ele>
        <time>2021-06-26T06:30:55.000Z</time>
      </trkpt>
      <trkpt lat="45.24205" lon="5.77795">
        <ele>1354.5999755859</ele>
        <time>2021-06-26T06:30:58.000Z</time>
      </trkpt>
      <trkpt lat="45.24207" lon="5.77799">
        <ele>1355.5999755859</ele>
        <time>2021-06-26T06:31:00.000Z</time>
      </trkpt>
      <trkpt lat="45.24208" lon="5.778">
        <ele>1355.5999755859</ele>
        <time>2021-06-26T06:31:01.000Z</time>
      </trkpt>
      <trkpt lat="45.24212" lon="5.77808">
        <ele>1356.1999511719</ele>
        <time>2021-06-26T06:31:05.000Z</time>
      </trkpt>
      <trkpt lat="45.24214" lon="5.77811">
        <ele>1356.1999511719</ele>
        <time>2021-06-26T06:31:07.000Z</time>
      </trkpt>
      <trkpt lat="45.24215" lon="5.77812">
        <ele>1356.8000488281</ele>
        <time>2021-06-26T06:31:08.000Z</time>
      </trkpt>
      <trkpt lat="45.24221" lon="5.77815">
        <ele>1357.1999511719</ele>
        <time>2021-06-26T06:31:13.000Z</time>
      </trkpt>
      <trkpt lat="45.24225" lon="5.77822">
        <ele>1358.1999511719</ele>
        <time>2021-06-26T06:31:17.000Z</time>
      </trkpt>
      <trkpt lat="45.2423" lon="5.77826">
        <ele>1358.8000488281</ele>
        <time>2021-06-26T06:31:22.000Z</time>
      </trkpt>
      <trkpt lat="45.24231" lon="5.77827">
        <ele>1359</ele>
        <time>2021-06-26T06:31:23.000Z</time>
      </trkpt>
      <trkpt lat="45.24232" lon="5.77829">
        <ele>1359.1999511719</ele>
        <time>2021-06-26T06:31:24.000Z</time>
      </trkpt>
      <trkpt lat="45.24234" lon="5.77834">
        <ele>1360.1999511719</ele>
        <time>2021-06-26T06:31:28.000Z</time>
      </trkpt>
      <trkpt lat="45.24236" lon="5.77838">
        <ele>1360.5999755859</ele>
        <time>2021-06-26T06:31:30.000Z</time>
      </trkpt>
      <trkpt lat="45.24238" lon="5.77842">
        <ele>1361.1999511719</ele>
        <time>2021-06-26T06:31:33.000Z</time>
      </trkpt>
      <trkpt lat="45.24239" lon="5.77846">
        <ele>1361.8000488281</ele>
        <time>2021-06-26T06:31:35.000Z</time>
      </trkpt>
      <trkpt lat="45.2424" lon="5.77856">
        <ele>1362.8000488281</ele>
        <time>2021-06-26T06:31:39.000Z</time>
      </trkpt>
      <trkpt lat="45.2424" lon="5.77862">
        <ele>1364.5999755859</ele>
        <time>2021-06-26T06:31:44.000Z</time>
      </trkpt>
      <trkpt lat="45.24241" lon="5.77863">
        <ele>1364.5999755859</ele>
        <time>2021-06-26T06:31:45.000Z</time>
      </trkpt>
      <trkpt lat="45.24242" lon="5.77864">
        <ele>1364.8000488281</ele>
        <time>2021-06-26T06:31:46.000Z</time>
      </trkpt>
      <trkpt lat="45.2425" lon="5.77867">
        <ele>1364.5999755859</ele>
        <time>2021-06-26T06:31:51.000Z</time>
      </trkpt>
      <trkpt lat="45.24261" lon="5.77872">
        <ele>1364</ele>
        <time>2021-06-26T06:31:58.000Z</time>
      </trkpt>
      <trkpt lat="45.24263" lon="5.77876">
        <ele>1364.4000244141</ele>
        <time>2021-06-26T06:31:59.000Z</time>
      </trkpt>
      <trkpt lat="45.24269" lon="5.77885">
        <ele>1364.5999755859</ele>
        <time>2021-06-26T06:32:03.000Z</time>
      </trkpt>
      <trkpt lat="45.2427" lon="5.77887">
        <ele>1364.5999755859</ele>
        <time>2021-06-26T06:32:04.000Z</time>
      </trkpt>
      <trkpt lat="45.24275" lon="5.77891">
        <ele>1365</ele>
        <time>2021-06-26T06:32:08.000Z</time>
      </trkpt>
      <trkpt lat="45.24278" lon="5.77892">
        <ele>1365</ele>
        <time>2021-06-26T06:32:10.000Z</time>
      </trkpt>
      <trkpt lat="45.24284" lon="5.77899">
        <ele>1365.5999755859</ele>
        <time>2021-06-26T06:32:15.000Z</time>
      </trkpt>
      <trkpt lat="45.24287" lon="5.77903">
        <ele>1365.8000488281</ele>
        <time>2021-06-26T06:32:16.000Z</time>
      </trkpt>
      <trkpt lat="45.24289" lon="5.77906">
        <ele>1366.1999511719</ele>
        <time>2021-06-26T06:32:17.000Z</time>
      </trkpt>
      <trkpt lat="45.24292" lon="5.77915">
        <ele>1367</ele>
        <time>2021-06-26T06:32:21.000Z</time>
      </trkpt>
      <trkpt lat="45.24293" lon="5.77917">
        <ele>1367.4000244141</ele>
        <time>2021-06-26T06:32:23.000Z</time>
      </trkpt>
      <trkpt lat="45.24302" lon="5.77926">
        <ele>1367.8000488281</ele>
        <time>2021-06-26T06:32:29.000Z</time>
      </trkpt>
      <trkpt lat="45.24304" lon="5.77929">
        <ele>1368.1999511719</ele>
        <time>2021-06-26T06:32:31.000Z</time>
      </trkpt>
      <trkpt lat="45.24312" lon="5.77934">
        <ele>1368</ele>
        <time>2021-06-26T06:32:35.000Z</time>
      </trkpt>
      <trkpt lat="45.24315" lon="5.77935">
        <ele>1367.8000488281</ele>
        <time>2021-06-26T06:32:38.000Z</time>
      </trkpt>
      <trkpt lat="45.24319" lon="5.77937">
        <ele>1367</ele>
        <time>2021-06-26T06:32:41.000Z</time>
      </trkpt>
      <trkpt lat="45.24321" lon="5.77937">
        <ele>1366.5999755859</ele>
        <time>2021-06-26T06:32:42.000Z</time>
      </trkpt>
      <trkpt lat="45.24323" lon="5.77937">
        <ele>1366</ele>
        <time>2021-06-26T06:32:44.000Z</time>
      </trkpt>
      <trkpt lat="45.24329" lon="5.77942">
        <ele>1364.8000488281</ele>
        <time>2021-06-26T06:32:48.000Z</time>
      </trkpt>
      <trkpt lat="45.24333" lon="5.77946">
        <ele>1364.1999511719</ele>
        <time>2021-06-26T06:32:50.000Z</time>
      </trkpt>
      <trkpt lat="45.24339" lon="5.77955">
        <ele>1363.8000488281</ele>
        <time>2021-06-26T06:32:54.000Z</time>
      </trkpt>
      <trkpt lat="45.24342" lon="5.7796">
        <ele>1363.8000488281</ele>
        <time>2021-06-26T06:32:56.000Z</time>
      </trkpt>
      <trkpt lat="45.24345" lon="5.7797">
        <ele>1364.4000244141</ele>
        <time>2021-06-26T06:32:59.000Z</time>
      </trkpt>
      <trkpt lat="45.24346" lon="5.77972">
        <ele>1364.5999755859</ele>
        <time>2021-06-26T06:33:00.000Z</time>
      </trkpt>
      <trkpt lat="45.24346" lon="5.77977">
        <ele>1365.1999511719</ele>
        <time>2021-06-26T06:33:02.000Z</time>
      </trkpt>
      <trkpt lat="45.24347" lon="5.77983">
        <ele>1365.8000488281</ele>
        <time>2021-06-26T06:33:04.000Z</time>
      </trkpt>
      <trkpt lat="45.24347" lon="5.77987">
        <ele>1366.1999511719</ele>
        <time>2021-06-26T06:33:06.000Z</time>
      </trkpt>
      <trkpt lat="45.24349" lon="5.77989">
        <ele>1366.8000488281</ele>
        <time>2021-06-26T06:33:09.000Z</time>
      </trkpt>
      <trkpt lat="45.2435" lon="5.7799">
        <ele>1366.8000488281</ele>
        <time>2021-06-26T06:33:10.000Z</time>
      </trkpt>
      <trkpt lat="45.24352" lon="5.77992">
        <ele>1365.8000488281</ele>
        <time>2021-06-26T06:33:11.000Z</time>
      </trkpt>
      <trkpt lat="45.24353" lon="5.77994">
        <ele>1365.8000488281</ele>
        <time>2021-06-26T06:33:12.000Z</time>
      </trkpt>
      <trkpt lat="45.24355" lon="5.77998">
        <ele>1365</ele>
        <time>2021-06-26T06:33:15.000Z</time>
      </trkpt>
      <trkpt lat="45.24357" lon="5.77999">
        <ele>1365</ele>
        <time>2021-06-26T06:33:16.000Z</time>
      </trkpt>
      <trkpt lat="45.24359" lon="5.78001">
        <ele>1364.5999755859</ele>
        <time>2021-06-26T06:33:19.000Z</time>
      </trkpt>
      <trkpt lat="45.2436" lon="5.78004">
        <ele>1364.5999755859</ele>
        <time>2021-06-26T06:33:21.000Z</time>
      </trkpt>
      <trkpt lat="45.2436" lon="5.78007">
        <ele>1364.5999755859</ele>
        <time>2021-06-26T06:33:22.000Z</time>
      </trkpt>
      <trkpt lat="45.24365" lon="5.78015">
        <ele>1365.4000244141</ele>
        <time>2021-06-26T06:33:27.000Z</time>
      </trkpt>
      <trkpt lat="45.24366" lon="5.78017">
        <ele>1365.1999511719</ele>
        <time>2021-06-26T06:33:28.000Z</time>
      </trkpt>
      <trkpt lat="45.24368" lon="5.7802">
        <ele>1365</ele>
        <time>2021-06-26T06:33:30.000Z</time>
      </trkpt>
      <trkpt lat="45.24369" lon="5.78023">
        <ele>1364.5999755859</ele>
        <time>2021-06-26T06:33:32.000Z</time>
      </trkpt>
      <trkpt lat="45.2437" lon="5.78025">
        <ele>1364.4000244141</ele>
        <time>2021-06-26T06:33:33.000Z</time>
      </trkpt>
      <trkpt lat="45.24371" lon="5.78026">
        <ele>1364.1999511719</ele>
        <time>2021-06-26T06:33:34.000Z</time>
      </trkpt>
      <trkpt lat="45.24373" lon="5.78029">
        <ele>1364</ele>
        <time>2021-06-26T06:33:36.000Z</time>
      </trkpt>
      <trkpt lat="45.24373" lon="5.78029">
        <ele>1363.1999511719</ele>
        <time>2021-06-26T06:33:37.000Z</time>
      </trkpt>
      <trkpt lat="45.24374" lon="5.7803">
        <ele>1363.1999511719</ele>
        <time>2021-06-26T06:33:38.000Z</time>
      </trkpt>
      <trkpt lat="45.24374" lon="5.7803">
        <ele>1363</ele>
        <time>2021-06-26T06:33:39.000Z</time>
      </trkpt>
      <trkpt lat="45.24375" lon="5.7803">
        <ele>1362.8000488281</ele>
        <time>2021-06-26T06:33:40.000Z</time>
      </trkpt>
      <trkpt lat="45.24377" lon="5.78032">
        <ele>1361.8000488281</ele>
        <time>2021-06-26T06:33:42.000Z</time>
      </trkpt>
      <trkpt lat="45.24378" lon="5.78034">
        <ele>1361.5999755859</ele>
        <time>2021-06-26T06:33:44.000Z</time>
      </trkpt>
      <trkpt lat="45.2438" lon="5.78034">
        <ele>1361.4000244141</ele>
        <time>2021-06-26T06:33:45.000Z</time>
      </trkpt>
      <trkpt lat="45.24381" lon="5.78035">
        <ele>1361</ele>
        <time>2021-06-26T06:33:46.000Z</time>
      </trkpt>
      <trkpt lat="45.24382" lon="5.78036">
        <ele>1360.5999755859</ele>
        <time>2021-06-26T06:33:47.000Z</time>
      </trkpt>
      <trkpt lat="45.24385" lon="5.78038">
        <ele>1360.1999511719</ele>
        <time>2021-06-26T06:33:49.000Z</time>
      </trkpt>
      <trkpt lat="45.24386" lon="5.78039">
        <ele>1359.4000244141</ele>
        <time>2021-06-26T06:33:50.000Z</time>
      </trkpt>
      <trkpt lat="45.2439" lon="5.78043">
        <ele>1359.1999511719</ele>
        <time>2021-06-26T06:33:53.000Z</time>
      </trkpt>
      <trkpt lat="45.24396" lon="5.78051">
        <ele>1358.1999511719</ele>
        <time>2021-06-26T06:33:56.000Z</time>
      </trkpt>
      <trkpt lat="45.24397" lon="5.78054">
        <ele>1358.1999511719</ele>
        <time>2021-06-26T06:33:57.000Z</time>
      </trkpt>
      <trkpt lat="45.24401" lon="5.78061">
        <ele>1358.4000244141</ele>
        <time>2021-06-26T06:34:00.000Z</time>
      </trkpt>
      <trkpt lat="45.24401" lon="5.78062">
        <ele>1358.4000244141</ele>
        <time>2021-06-26T06:34:01.000Z</time>
      </trkpt>
      <trkpt lat="45.24406" lon="5.78065">
        <ele>1357.5999755859</ele>
        <time>2021-06-26T06:34:06.000Z</time>
      </trkpt>
      <trkpt lat="45.24407" lon="5.78065">
        <ele>1356.8000488281</ele>
        <time>2021-06-26T06:34:08.000Z</time>
      </trkpt>
      <trkpt lat="45.2441" lon="5.78068">
        <ele>1357</ele>
        <time>2021-06-26T06:34:10.000Z</time>
      </trkpt>
      <trkpt lat="45.24412" lon="5.78071">
        <ele>1357</ele>
        <time>2021-06-26T06:34:13.000Z</time>
      </trkpt>
      <trkpt lat="45.24413" lon="5.78072">
        <ele>1356.5999755859</ele>
        <time>2021-06-26T06:34:15.000Z</time>
      </trkpt>
      <trkpt lat="45.24418" lon="5.78074">
        <ele>1355.5999755859</ele>
        <time>2021-06-26T06:34:19.000Z</time>
      </trkpt>
      <trkpt lat="45.24422" lon="5.78078">
        <ele>1355.4000244141</ele>
        <time>2021-06-26T06:34:23.000Z</time>
      </trkpt>
      <trkpt lat="45.24423" lon="5.78079">
        <ele>1355.1999511719</ele>
        <time>2021-06-26T06:34:24.000Z</time>
      </trkpt>
      <trkpt lat="45.24429" lon="5.78085">
        <ele>1355.1999511719</ele>
        <time>2021-06-26T06:34:29.000Z</time>
      </trkpt>
      <trkpt lat="45.24432" lon="5.78089">
        <ele>1355.1999511719</ele>
        <time>2021-06-26T06:34:33.000Z</time>
      </trkpt>
      <trkpt lat="45.24435" lon="5.78091">
        <ele>1355.4000244141</ele>
        <time>2021-06-26T06:34:36.000Z</time>
      </trkpt>
      <trkpt lat="45.24436" lon="5.78092">
        <ele>1355.4000244141</ele>
        <time>2021-06-26T06:34:38.000Z</time>
      </trkpt>
      <trkpt lat="45.24439" lon="5.78094">
        <ele>1354.8000488281</ele>
        <time>2021-06-26T06:34:42.000Z</time>
      </trkpt>
      <trkpt lat="45.2444" lon="5.78095">
        <ele>1354.5999755859</ele>
        <time>2021-06-26T06:34:43.000Z</time>
      </trkpt>
      <trkpt lat="45.24446" lon="5.78098">
        <ele>1354.1999511719</ele>
        <time>2021-06-26T06:34:49.000Z</time>
      </trkpt>
      <trkpt lat="45.24448" lon="5.78099">
        <ele>1353.8000488281</ele>
        <time>2021-06-26T06:34:50.000Z</time>
      </trkpt>
      <trkpt lat="45.24449" lon="5.781">
        <ele>1353.8000488281</ele>
        <time>2021-06-26T06:34:51.000Z</time>
      </trkpt>
      <trkpt lat="45.24452" lon="5.78102">
        <ele>1354.1999511719</ele>
        <time>2021-06-26T06:34:54.000Z</time>
      </trkpt>
      <trkpt lat="45.24454" lon="5.78104">
        <ele>1353.8000488281</ele>
        <time>2021-06-26T06:34:56.000Z</time>
      </trkpt>
      <trkpt lat="45.24454" lon="5.78106">
        <ele>1353.5999755859</ele>
        <time>2021-06-26T06:34:58.000Z</time>
      </trkpt>
      <trkpt lat="45.24463" lon="5.7812">
        <ele>1355</ele>
        <time>2021-06-26T06:35:06.000Z</time>
      </trkpt>
      <trkpt lat="45.24466" lon="5.78127">
        <ele>1356.1999511719</ele>
        <time>2021-06-26T06:35:10.000Z</time>
      </trkpt>
      <trkpt lat="45.24468" lon="5.78131">
        <ele>1356.4000244141</ele>
        <time>2021-06-26T06:35:13.000Z</time>
      </trkpt>
      <trkpt lat="45.2447" lon="5.78138">
        <ele>1357.4000244141</ele>
        <time>2021-06-26T06:35:18.000Z</time>
      </trkpt>
      <trkpt lat="45.24472" lon="5.7814">
        <ele>1357.5999755859</ele>
        <time>2021-06-26T06:35:20.000Z</time>
      </trkpt>
      <trkpt lat="45.24475" lon="5.78147">
        <ele>1358.4000244141</ele>
        <time>2021-06-26T06:35:24.000Z</time>
      </trkpt>
      <trkpt lat="45.24475" lon="5.78147">
        <ele>1358.4000244141</ele>
        <time>2021-06-26T06:35:25.000Z</time>
      </trkpt>
      <trkpt lat="45.24477" lon="5.7815">
        <ele>1358.4000244141</ele>
        <time>2021-06-26T06:35:27.000Z</time>
      </trkpt>
      <trkpt lat="45.24478" lon="5.78151">
        <ele>1358.4000244141</ele>
        <time>2021-06-26T06:35:28.000Z</time>
      </trkpt>
      <trkpt lat="45.24483" lon="5.78158">
        <ele>1359.4000244141</ele>
        <time>2021-06-26T06:35:32.000Z</time>
      </trkpt>
      <trkpt lat="45.24485" lon="5.78159">
        <ele>1359.5999755859</ele>
        <time>2021-06-26T06:35:34.000Z</time>
      </trkpt>
      <trkpt lat="45.24489" lon="5.78168">
        <ele>1360.4000244141</ele>
        <time>2021-06-26T06:35:38.000Z</time>
      </trkpt>
      <trkpt lat="45.24492" lon="5.78174">
        <ele>1361</ele>
        <time>2021-06-26T06:35:41.000Z</time>
      </trkpt>
      <trkpt lat="45.24492" lon="5.78176">
        <ele>1361.5999755859</ele>
        <time>2021-06-26T06:35:42.000Z</time>
      </trkpt>
      <trkpt lat="45.24493" lon="5.78184">
        <ele>1361.5999755859</ele>
        <time>2021-06-26T06:35:46.000Z</time>
      </trkpt>
      <trkpt lat="45.24494" lon="5.78186">
        <ele>1361.5999755859</ele>
        <time>2021-06-26T06:35:47.000Z</time>
      </trkpt>
      <trkpt lat="45.24494" lon="5.78188">
        <ele>1361.5999755859</ele>
        <time>2021-06-26T06:35:49.000Z</time>
      </trkpt>
      <trkpt lat="45.24495" lon="5.78187">
        <ele>1361.5999755859</ele>
        <time>2021-06-26T06:35:51.000Z</time>
      </trkpt>
      <trkpt lat="45.245" lon="5.78192">
        <ele>1361.5999755859</ele>
        <time>2021-06-26T06:35:57.000Z</time>
      </trkpt>
      <trkpt lat="45.24504" lon="5.78197">
        <ele>1362</ele>
        <time>2021-06-26T06:36:00.000Z</time>
      </trkpt>
      <trkpt lat="45.24505" lon="5.78201">
        <ele>1363</ele>
        <time>2021-06-26T06:36:02.000Z</time>
      </trkpt>
      <trkpt lat="45.24505" lon="5.78203">
        <ele>1363</ele>
        <time>2021-06-26T06:36:03.000Z</time>
      </trkpt>
      <trkpt lat="45.24507" lon="5.78208">
        <ele>1364</ele>
        <time>2021-06-26T06:36:06.000Z</time>
      </trkpt>
      <trkpt lat="45.24508" lon="5.78209">
        <ele>1364.5999755859</ele>
        <time>2021-06-26T06:36:07.000Z</time>
      </trkpt>
      <trkpt lat="45.24509" lon="5.78213">
        <ele>1365</ele>
        <time>2021-06-26T06:36:09.000Z</time>
      </trkpt>
      <trkpt lat="45.24511" lon="5.78214">
        <ele>1365</ele>
        <time>2021-06-26T06:36:10.000Z</time>
      </trkpt>
      <trkpt lat="45.24515" lon="5.7822">
        <ele>1366</ele>
        <time>2021-06-26T06:36:15.000Z</time>
      </trkpt>
      <trkpt lat="45.24519" lon="5.78223">
        <ele>1366.1999511719</ele>
        <time>2021-06-26T06:36:19.000Z</time>
      </trkpt>
      <trkpt lat="45.2452" lon="5.78228">
        <ele>1367</ele>
        <time>2021-06-26T06:36:23.000Z</time>
      </trkpt>
      <trkpt lat="45.24521" lon="5.78235">
        <ele>1367.8000488281</ele>
        <time>2021-06-26T06:36:25.000Z</time>
      </trkpt>
      <trkpt lat="45.24524" lon="5.78244">
        <ele>1368.5999755859</ele>
        <time>2021-06-26T06:36:29.000Z</time>
      </trkpt>
      <trkpt lat="45.24524" lon="5.78248">
        <ele>1369.4000244141</ele>
        <time>2021-06-26T06:36:31.000Z</time>
      </trkpt>
      <trkpt lat="45.24525" lon="5.7825">
        <ele>1369.5999755859</ele>
        <time>2021-06-26T06:36:33.000Z</time>
      </trkpt>
      <trkpt lat="45.24526" lon="5.78253">
        <ele>1370.1999511719</ele>
        <time>2021-06-26T06:36:35.000Z</time>
      </trkpt>
      <trkpt lat="45.24528" lon="5.78255">
        <ele>1370.1999511719</ele>
        <time>2021-06-26T06:36:38.000Z</time>
      </trkpt>
      <trkpt lat="45.2453" lon="5.78256">
        <ele>1370.1999511719</ele>
        <time>2021-06-26T06:36:40.000Z</time>
      </trkpt>
      <trkpt lat="45.24531" lon="5.78256">
        <ele>1370.1999511719</ele>
        <time>2021-06-26T06:36:41.000Z</time>
      </trkpt>
      <trkpt lat="45.24532" lon="5.78257">
        <ele>1369.8000488281</ele>
        <time>2021-06-26T06:36:42.000Z</time>
      </trkpt>
      <trkpt lat="45.24535" lon="5.78261">
        <ele>1369.8000488281</ele>
        <time>2021-06-26T06:36:45.000Z</time>
      </trkpt>
      <trkpt lat="45.2454" lon="5.78263">
        <ele>1369.5999755859</ele>
        <time>2021-06-26T06:36:48.000Z</time>
      </trkpt>
      <trkpt lat="45.24548" lon="5.7827">
        <ele>1369.4000244141</ele>
        <time>2021-06-26T06:36:53.000Z</time>
      </trkpt>
      <trkpt lat="45.24555" lon="5.78277">
        <ele>1370.1999511719</ele>
        <time>2021-06-26T06:36:58.000Z</time>
      </trkpt>
      <trkpt lat="45.24557" lon="5.7828">
        <ele>1370.5999755859</ele>
        <time>2021-06-26T06:37:00.000Z</time>
      </trkpt>
      <trkpt lat="45.24563" lon="5.78292">
        <ele>1372</ele>
        <time>2021-06-26T06:37:06.000Z</time>
      </trkpt>
      <trkpt lat="45.24566" lon="5.78294">
        <ele>1372</ele>
        <time>2021-06-26T06:37:08.000Z</time>
      </trkpt>
      <trkpt lat="45.24569" lon="5.78298">
        <ele>1373</ele>
        <time>2021-06-26T06:37:11.000Z</time>
      </trkpt>
      <trkpt lat="45.2457" lon="5.783">
        <ele>1373</ele>
        <time>2021-06-26T06:37:12.000Z</time>
      </trkpt>
      <trkpt lat="45.24571" lon="5.78304">
        <ele>1374</ele>
        <time>2021-06-26T06:37:14.000Z</time>
      </trkpt>
      <trkpt lat="45.24572" lon="5.78307">
        <ele>1374.1999511719</ele>
        <time>2021-06-26T06:37:15.000Z</time>
      </trkpt>
      <trkpt lat="45.24574" lon="5.78314">
        <ele>1374.4000244141</ele>
        <time>2021-06-26T06:37:18.000Z</time>
      </trkpt>
      <trkpt lat="45.24576" lon="5.78318">
        <ele>1375.4000244141</ele>
        <time>2021-06-26T06:37:20.000Z</time>
      </trkpt>
      <trkpt lat="45.24579" lon="5.78324">
        <ele>1376.4000244141</ele>
        <time>2021-06-26T06:37:24.000Z</time>
      </trkpt>
      <trkpt lat="45.2458" lon="5.78326">
        <ele>1377.1999511719</ele>
        <time>2021-06-26T06:37:26.000Z</time>
      </trkpt>
      <trkpt lat="45.24582" lon="5.78328">
        <ele>1377.4000244141</ele>
        <time>2021-06-26T06:37:28.000Z</time>
      </trkpt>
      <trkpt lat="45.24582" lon="5.7833">
        <ele>1377.8000488281</ele>
        <time>2021-06-26T06:37:29.000Z</time>
      </trkpt>
      <trkpt lat="45.24584" lon="5.78333">
        <ele>1378.4000244141</ele>
        <time>2021-06-26T06:37:32.000Z</time>
      </trkpt>
      <trkpt lat="45.2459" lon="5.78345">
        <ele>1379</ele>
        <time>2021-06-26T06:37:38.000Z</time>
      </trkpt>
      <trkpt lat="45.24593" lon="5.78348">
        <ele>1379.1999511719</ele>
        <time>2021-06-26T06:37:40.000Z</time>
      </trkpt>
      <trkpt lat="45.24594" lon="5.78348">
        <ele>1379.1999511719</ele>
        <time>2021-06-26T06:37:41.000Z</time>
      </trkpt>
      <trkpt lat="45.246" lon="5.78354">
        <ele>1379</ele>
        <time>2021-06-26T06:37:45.000Z</time>
      </trkpt>
      <trkpt lat="45.24604" lon="5.78358">
        <ele>1379.4000244141</ele>
        <time>2021-06-26T06:37:47.000Z</time>
      </trkpt>
      <trkpt lat="45.24609" lon="5.78365">
        <ele>1379.8000488281</ele>
        <time>2021-06-26T06:37:50.000Z</time>
      </trkpt>
      <trkpt lat="45.24612" lon="5.78368">
        <ele>1379.8000488281</ele>
        <time>2021-06-26T06:37:53.000Z</time>
      </trkpt>
      <trkpt lat="45.24614" lon="5.78368">
        <ele>1379.8000488281</ele>
        <time>2021-06-26T06:37:54.000Z</time>
      </trkpt>
      <trkpt lat="45.24618" lon="5.78367">
        <ele>1379.8000488281</ele>
        <time>2021-06-26T06:37:57.000Z</time>
      </trkpt>
      <trkpt lat="45.24623" lon="5.7837">
        <ele>1379.4000244141</ele>
        <time>2021-06-26T06:38:01.000Z</time>
      </trkpt>
      <trkpt lat="45.24624" lon="5.78371">
        <ele>1379.8000488281</ele>
        <time>2021-06-26T06:38:02.000Z</time>
      </trkpt>
      <trkpt lat="45.24627" lon="5.78375">
        <ele>1380</ele>
        <time>2021-06-26T06:38:05.000Z</time>
      </trkpt>
      <trkpt lat="45.24632" lon="5.78382">
        <ele>1380</ele>
        <time>2021-06-26T06:38:11.000Z</time>
      </trkpt>
      <trkpt lat="45.24637" lon="5.78384">
        <ele>1379.8000488281</ele>
        <time>2021-06-26T06:38:15.000Z</time>
      </trkpt>
      <trkpt lat="45.24641" lon="5.78387">
        <ele>1380</ele>
        <time>2021-06-26T06:38:19.000Z</time>
      </trkpt>
      <trkpt lat="45.24644" lon="5.78388">
        <ele>1379.8000488281</ele>
        <time>2021-06-26T06:38:23.000Z</time>
      </trkpt>
      <trkpt lat="45.24646" lon="5.78388">
        <ele>1379</ele>
        <time>2021-06-26T06:38:25.000Z</time>
      </trkpt>
      <trkpt lat="45.24646" lon="5.78389">
        <ele>1378.5999755859</ele>
        <time>2021-06-26T06:38:26.000Z</time>
      </trkpt>
      <trkpt lat="45.2465" lon="5.78391">
        <ele>1378</ele>
        <time>2021-06-26T06:38:29.000Z</time>
      </trkpt>
      <trkpt lat="45.24652" lon="5.78392">
        <ele>1377.4000244141</ele>
        <time>2021-06-26T06:38:30.000Z</time>
      </trkpt>
      <trkpt lat="45.24653" lon="5.78392">
        <ele>1377.4000244141</ele>
        <time>2021-06-26T06:38:31.000Z</time>
      </trkpt>
      <trkpt lat="45.24657" lon="5.78392">
        <ele>1377.1999511719</ele>
        <time>2021-06-26T06:38:33.000Z</time>
      </trkpt>
      <trkpt lat="45.2466" lon="5.78396">
        <ele>1377.1999511719</ele>
        <time>2021-06-26T06:38:36.000Z</time>
      </trkpt>
      <trkpt lat="45.24661" lon="5.78397">
        <ele>1376.4000244141</ele>
        <time>2021-06-26T06:38:37.000Z</time>
      </trkpt>
      <trkpt lat="45.24663" lon="5.78397">
        <ele>1375.4000244141</ele>
        <time>2021-06-26T06:38:41.000Z</time>
      </trkpt>
      <trkpt lat="45.24664" lon="5.78399">
        <ele>1375</ele>
        <time>2021-06-26T06:38:43.000Z</time>
      </trkpt>
      <trkpt lat="45.24667" lon="5.78399">
        <ele>1374.4000244141</ele>
        <time>2021-06-26T06:38:45.000Z</time>
      </trkpt>
      <trkpt lat="45.24669" lon="5.78398">
        <ele>1373.1999511719</ele>
        <time>2021-06-26T06:38:49.000Z</time>
      </trkpt>
      <trkpt lat="45.24671" lon="5.78398">
        <ele>1372.5999755859</ele>
        <time>2021-06-26T06:38:51.000Z</time>
      </trkpt>
      <trkpt lat="45.24675" lon="5.78397">
        <ele>1371.8000488281</ele>
        <time>2021-06-26T06:38:54.000Z</time>
      </trkpt>
      <trkpt lat="45.2468" lon="5.78399">
        <ele>1371</ele>
        <time>2021-06-26T06:38:57.000Z</time>
      </trkpt>
      <trkpt lat="45.24682" lon="5.784">
        <ele>1370.4000244141</ele>
        <time>2021-06-26T06:38:58.000Z</time>
      </trkpt>
      <trkpt lat="45.24689" lon="5.78406">
        <ele>1369.5999755859</ele>
        <time>2021-06-26T06:39:04.000Z</time>
      </trkpt>
      <trkpt lat="45.2469" lon="5.78405">
        <ele>1369.1999511719</ele>
        <time>2021-06-26T06:39:06.000Z</time>
      </trkpt>
      <trkpt lat="45.24691" lon="5.78405">
        <ele>1368.8000488281</ele>
        <time>2021-06-26T06:39:07.000Z</time>
      </trkpt>
      <trkpt lat="45.24693" lon="5.78404">
        <ele>1368.4000244141</ele>
        <time>2021-06-26T06:39:09.000Z</time>
      </trkpt>
      <trkpt lat="45.24694" lon="5.78405">
        <ele>1368.4000244141</ele>
        <time>2021-06-26T06:39:10.000Z</time>
      </trkpt>
      <trkpt lat="45.24694" lon="5.78404">
        <ele>1368.1999511719</ele>
        <time>2021-06-26T06:39:11.000Z</time>
      </trkpt>
      <trkpt lat="45.24697" lon="5.78402">
        <ele>1367</ele>
        <time>2021-06-26T06:39:14.000Z</time>
      </trkpt>
      <trkpt lat="45.24701" lon="5.78402">
        <ele>1366.4000244141</ele>
        <time>2021-06-26T06:39:17.000Z</time>
      </trkpt>
      <trkpt lat="45.24702" lon="5.78402">
        <ele>1365.8000488281</ele>
        <time>2021-06-26T06:39:18.000Z</time>
      </trkpt>
      <trkpt lat="45.24705" lon="5.78401">
        <ele>1364.4000244141</ele>
        <time>2021-06-26T06:39:22.000Z</time>
      </trkpt>
      <trkpt lat="45.24707" lon="5.784">
        <ele>1363.1999511719</ele>
        <time>2021-06-26T06:39:25.000Z</time>
      </trkpt>
      <trkpt lat="45.2471" lon="5.78399">
        <ele>1362.5999755859</ele>
        <time>2021-06-26T06:39:28.000Z</time>
      </trkpt>
      <trkpt lat="45.24711" lon="5.78399">
        <ele>1361.8000488281</ele>
        <time>2021-06-26T06:39:30.000Z</time>
      </trkpt>
      <trkpt lat="45.24712" lon="5.78399">
        <ele>1361.5999755859</ele>
        <time>2021-06-26T06:39:31.000Z</time>
      </trkpt>
      <trkpt lat="45.24715" lon="5.78399">
        <ele>1361</ele>
        <time>2021-06-26T06:39:33.000Z</time>
      </trkpt>
      <trkpt lat="45.24716" lon="5.78399">
        <ele>1360.5999755859</ele>
        <time>2021-06-26T06:39:34.000Z</time>
      </trkpt>
      <trkpt lat="45.24718" lon="5.78399">
        <ele>1360</ele>
        <time>2021-06-26T06:39:36.000Z</time>
      </trkpt>
      <trkpt lat="45.24719" lon="5.78399">
        <ele>1359.5999755859</ele>
        <time>2021-06-26T06:39:37.000Z</time>
      </trkpt>
      <trkpt lat="45.24722" lon="5.784">
        <ele>1359.4000244141</ele>
        <time>2021-06-26T06:39:39.000Z</time>
      </trkpt>
      <trkpt lat="45.24724" lon="5.78399">
        <ele>1359</ele>
        <time>2021-06-26T06:39:42.000Z</time>
      </trkpt>
      <trkpt lat="45.24726" lon="5.78399">
        <ele>1357.5999755859</ele>
        <time>2021-06-26T06:39:44.000Z</time>
      </trkpt>
      <trkpt lat="45.24727" lon="5.78399">
        <ele>1357.5999755859</ele>
        <time>2021-06-26T06:39:45.000Z</time>
      </trkpt>
      <trkpt lat="45.24728" lon="5.78399">
        <ele>1357.4000244141</ele>
        <time>2021-06-26T06:39:46.000Z</time>
      </trkpt>
      <trkpt lat="45.2473" lon="5.78398">
        <ele>1356.5999755859</ele>
        <time>2021-06-26T06:39:49.000Z</time>
      </trkpt>
      <trkpt lat="45.24731" lon="5.78397">
        <ele>1355.5999755859</ele>
        <time>2021-06-26T06:39:50.000Z</time>
      </trkpt>
      <trkpt lat="45.24732" lon="5.78397">
        <ele>1355.4000244141</ele>
        <time>2021-06-26T06:39:51.000Z</time>
      </trkpt>
      <trkpt lat="45.24734" lon="5.78398">
        <ele>1355</ele>
        <time>2021-06-26T06:39:53.000Z</time>
      </trkpt>
      <trkpt lat="45.24735" lon="5.78399">
        <ele>1354.8000488281</ele>
        <time>2021-06-26T06:39:55.000Z</time>
      </trkpt>
      <trkpt lat="45.24735" lon="5.78399">
        <ele>1354.8000488281</ele>
        <time>2021-06-26T06:39:56.000Z</time>
      </trkpt>
      <trkpt lat="45.24737" lon="5.78397">
        <ele>1354.5999755859</ele>
        <time>2021-06-26T06:39:59.000Z</time>
      </trkpt>
      <trkpt lat="45.24737" lon="5.78398">
        <ele>1354.4000244141</ele>
        <time>2021-06-26T06:40:01.000Z</time>
      </trkpt>
      <trkpt lat="45.24737" lon="5.78399">
        <ele>1354.1999511719</ele>
        <time>2021-06-26T06:40:03.000Z</time>
      </trkpt>
      <trkpt lat="45.24737" lon="5.78401">
        <ele>1354.1999511719</ele>
        <time>2021-06-26T06:40:06.000Z</time>
      </trkpt>
      <trkpt lat="45.24738" lon="5.78402">
        <ele>1354.1999511719</ele>
        <time>2021-06-26T06:40:13.000Z</time>
      </trkpt>
      <trkpt lat="45.24738" lon="5.784">
        <ele>1354</ele>
        <time>2021-06-26T06:40:20.000Z</time>
      </trkpt>
      <trkpt lat="45.24738" lon="5.784">
        <ele>1354</ele>
        <time>2021-06-26T06:40:23.000Z</time>
      </trkpt>
      <trkpt lat="45.24738" lon="5.784">
        <ele>1354</ele>
        <time>2021-06-26T06:40:25.000Z</time>
      </trkpt>
      <trkpt lat="45.24738" lon="5.784">
        <ele>1354</ele>
        <time>2021-06-26T06:40:27.000Z</time>
      </trkpt>
      <trkpt lat="45.24738" lon="5.784">
        <ele>1353.4000244141</ele>
        <time>2021-06-26T06:40:28.000Z</time>
      </trkpt>
      <trkpt lat="45.24738" lon="5.784">
        <ele>1352.4000244141</ele>
        <time>2021-06-26T06:40:32.000Z</time>
      </trkpt>
      <trkpt lat="45.24739" lon="5.784">
        <ele>1352</ele>
        <time>2021-06-26T06:40:35.000Z</time>
      </trkpt>
      <trkpt lat="45.24739" lon="5.78399">
        <ele>1352</ele>
        <time>2021-06-26T06:40:36.000Z</time>
      </trkpt>
      <trkpt lat="45.2474" lon="5.78398">
        <ele>1351.5999755859</ele>
        <time>2021-06-26T06:40:39.000Z</time>
      </trkpt>
      <trkpt lat="45.24745" lon="5.784">
        <ele>1351.5999755859</ele>
        <time>2021-06-26T06:40:41.000Z</time>
      </trkpt>
      <trkpt lat="45.24747" lon="5.78402">
        <ele>1351.5999755859</ele>
        <time>2021-06-26T06:40:42.000Z</time>
      </trkpt>
      <trkpt lat="45.24753" lon="5.78409">
        <ele>1351.5999755859</ele>
        <time>2021-06-26T06:40:45.000Z</time>
      </trkpt>
      <trkpt lat="45.24756" lon="5.78412">
        <ele>1352.1999511719</ele>
        <time>2021-06-26T06:40:47.000Z</time>
      </trkpt>
      <trkpt lat="45.24757" lon="5.78414">
        <ele>1352.8000488281</ele>
        <time>2021-06-26T06:40:49.000Z</time>
      </trkpt>
      <trkpt lat="45.24757" lon="5.78416">
        <ele>1353.8000488281</ele>
        <time>2021-06-26T06:40:50.000Z</time>
      </trkpt>
      <trkpt lat="45.24757" lon="5.78418">
        <ele>1354</ele>
        <time>2021-06-26T06:40:52.000Z</time>
      </trkpt>
      <trkpt lat="45.24757" lon="5.78419">
        <ele>1354</ele>
        <time>2021-06-26T06:40:53.000Z</time>
      </trkpt>
      <trkpt lat="45.24758" lon="5.78414">
        <ele>1353</ele>
        <time>2021-06-26T06:41:00.000Z</time>
      </trkpt>
      <trkpt lat="45.2476" lon="5.78414">
        <ele>1352.4000244141</ele>
        <time>2021-06-26T06:41:01.000Z</time>
      </trkpt>
      <trkpt lat="45.24763" lon="5.78417">
        <ele>1351.8000488281</ele>
        <time>2021-06-26T06:41:04.000Z</time>
      </trkpt>
      <trkpt lat="45.24766" lon="5.78417">
        <ele>1351.1999511719</ele>
        <time>2021-06-26T06:41:07.000Z</time>
      </trkpt>
      <trkpt lat="45.24768" lon="5.78422">
        <ele>1351.8000488281</ele>
        <time>2021-06-26T06:41:11.000Z</time>
      </trkpt>
      <trkpt lat="45.24769" lon="5.78423">
        <ele>1352.4000244141</ele>
        <time>2021-06-26T06:41:12.000Z</time>
      </trkpt>
      <trkpt lat="45.2477" lon="5.78427">
        <ele>1352.4000244141</ele>
        <time>2021-06-26T06:41:14.000Z</time>
      </trkpt>
      <trkpt lat="45.2477" lon="5.78429">
        <ele>1352.5999755859</ele>
        <time>2021-06-26T06:41:15.000Z</time>
      </trkpt>
      <trkpt lat="45.24769" lon="5.78432">
        <ele>1352.5999755859</ele>
        <time>2021-06-26T06:41:16.000Z</time>
      </trkpt>
      <trkpt lat="45.24769" lon="5.78433">
        <ele>1354</ele>
        <time>2021-06-26T06:41:17.000Z</time>
      </trkpt>
      <trkpt lat="45.2477" lon="5.78434">
        <ele>1354</ele>
        <time>2021-06-26T06:41:18.000Z</time>
      </trkpt>
      <trkpt lat="45.24771" lon="5.78436">
        <ele>1354.8000488281</ele>
        <time>2021-06-26T06:41:21.000Z</time>
      </trkpt>
      <trkpt lat="45.24771" lon="5.78439">
        <ele>1354.8000488281</ele>
        <time>2021-06-26T06:41:23.000Z</time>
      </trkpt>
      <trkpt lat="45.24774" lon="5.78441">
        <ele>1354.5999755859</ele>
        <time>2021-06-26T06:41:27.000Z</time>
      </trkpt>
      <trkpt lat="45.24776" lon="5.78442">
        <ele>1354.1999511719</ele>
        <time>2021-06-26T06:41:28.000Z</time>
      </trkpt>
      <trkpt lat="45.24779" lon="5.78444">
        <ele>1354.1999511719</ele>
        <time>2021-06-26T06:41:30.000Z</time>
      </trkpt>
      <trkpt lat="45.24781" lon="5.78449">
        <ele>1354</ele>
        <time>2021-06-26T06:41:34.000Z</time>
      </trkpt>
      <trkpt lat="45.24786" lon="5.78456">
        <ele>1353.4000244141</ele>
        <time>2021-06-26T06:41:39.000Z</time>
      </trkpt>
      <trkpt lat="45.24788" lon="5.78459">
        <ele>1353.4000244141</ele>
        <time>2021-06-26T06:41:40.000Z</time>
      </trkpt>
      <trkpt lat="45.2479" lon="5.78465">
        <ele>1353.4000244141</ele>
        <time>2021-06-26T06:41:42.000Z</time>
      </trkpt>
      <trkpt lat="45.24792" lon="5.78472">
        <ele>1353.1999511719</ele>
        <time>2021-06-26T06:41:45.000Z</time>
      </trkpt>
      <trkpt lat="45.24792" lon="5.78472">
        <ele>1353.4000244141</ele>
        <time>2021-06-26T06:41:46.000Z</time>
      </trkpt>
      <trkpt lat="45.24791" lon="5.78475">
        <ele>1353.5999755859</ele>
        <time>2021-06-26T06:41:51.000Z</time>
      </trkpt>
      <trkpt lat="45.24792" lon="5.78476">
        <ele>1353.5999755859</ele>
        <time>2021-06-26T06:41:52.000Z</time>
      </trkpt>
      <trkpt lat="45.24794" lon="5.78476">
        <ele>1353.5999755859</ele>
        <time>2021-06-26T06:41:55.000Z</time>
      </trkpt>
      <trkpt lat="45.24794" lon="5.78477">
        <ele>1353.5999755859</ele>
        <time>2021-06-26T06:41:57.000Z</time>
      </trkpt>
      <trkpt lat="45.24794" lon="5.78478">
        <ele>1353.5999755859</ele>
        <time>2021-06-26T06:41:59.000Z</time>
      </trkpt>
      <trkpt lat="45.24793" lon="5.78478">
        <ele>1353.5999755859</ele>
        <time>2021-06-26T06:42:02.000Z</time>
      </trkpt>
      <trkpt lat="45.24794" lon="5.78479">
        <ele>1353.5999755859</ele>
        <time>2021-06-26T06:42:04.000Z</time>
      </trkpt>
      <trkpt lat="45.24793" lon="5.7848">
        <ele>1353.5999755859</ele>
        <time>2021-06-26T06:42:07.000Z</time>
      </trkpt>
      <trkpt lat="45.24793" lon="5.7848">
        <ele>1353.5999755859</ele>
        <time>2021-06-26T06:42:09.000Z</time>
      </trkpt>
      <trkpt lat="45.24793" lon="5.7848">
        <ele>1353.5999755859</ele>
        <time>2021-06-26T06:42:11.000Z</time>
      </trkpt>
      <trkpt lat="45.24793" lon="5.7848">
        <ele>1353.5999755859</ele>
        <time>2021-06-26T06:42:14.000Z</time>
      </trkpt>
      <trkpt lat="45.24795" lon="5.78479">
        <ele>1353.5999755859</ele>
        <time>2021-06-26T06:42:28.000Z</time>
      </trkpt>
      <trkpt lat="45.24797" lon="5.78479">
        <ele>1353.5999755859</ele>
        <time>2021-06-26T06:42:46.000Z</time>
      </trkpt>
      <trkpt lat="45.24797" lon="5.7848">
        <ele>1353.5999755859</ele>
        <time>2021-06-26T06:42:50.000Z</time>
      </trkpt>
      <trkpt lat="45.24794" lon="5.78481">
        <ele>1353.5999755859</ele>
        <time>2021-06-26T06:43:06.000Z</time>
      </trkpt>
      <trkpt lat="45.24787" lon="5.78474">
        <ele>1353.5999755859</ele>
        <time>2021-06-26T06:43:16.000Z</time>
      </trkpt>
      <trkpt lat="45.24784" lon="5.7847">
        <ele>1353.5999755859</ele>
        <time>2021-06-26T06:43:18.000Z</time>
      </trkpt>
      <trkpt lat="45.24783" lon="5.78468">
        <ele>1353.5999755859</ele>
        <time>2021-06-26T06:43:19.000Z</time>
      </trkpt>
      <trkpt lat="45.24781" lon="5.78467">
        <ele>1353.5999755859</ele>
        <time>2021-06-26T06:43:20.000Z</time>
      </trkpt>
      <trkpt lat="45.24779" lon="5.78463">
        <ele>1353.5999755859</ele>
        <time>2021-06-26T06:43:22.000Z</time>
      </trkpt>
      <trkpt lat="45.24775" lon="5.78456">
        <ele>1353.4000244141</ele>
        <time>2021-06-26T06:43:27.000Z</time>
      </trkpt>
      <trkpt lat="45.24773" lon="5.78454">
        <ele>1353.4000244141</ele>
        <time>2021-06-26T06:43:29.000Z</time>
      </trkpt>
      <trkpt lat="45.24771" lon="5.78451">
        <ele>1354.4000244141</ele>
        <time>2021-06-26T06:43:31.000Z</time>
      </trkpt>
      <trkpt lat="45.2477" lon="5.78447">
        <ele>1354.4000244141</ele>
        <time>2021-06-26T06:43:33.000Z</time>
      </trkpt>
      <trkpt lat="45.2477" lon="5.78446">
        <ele>1354.1999511719</ele>
        <time>2021-06-26T06:43:34.000Z</time>
      </trkpt>
      <trkpt lat="45.2477" lon="5.78444">
        <ele>1354.1999511719</ele>
        <time>2021-06-26T06:43:35.000Z</time>
      </trkpt>
      <trkpt lat="45.24769" lon="5.78441">
        <ele>1353.8000488281</ele>
        <time>2021-06-26T06:43:38.000Z</time>
      </trkpt>
      <trkpt lat="45.24769" lon="5.7844">
        <ele>1353.5999755859</ele>
        <time>2021-06-26T06:43:39.000Z</time>
      </trkpt>
      <trkpt lat="45.24769" lon="5.78439">
        <ele>1353</ele>
        <time>2021-06-26T06:43:40.000Z</time>
      </trkpt>
      <trkpt lat="45.24769" lon="5.78437">
        <ele>1352.5999755859</ele>
        <time>2021-06-26T06:43:41.000Z</time>
      </trkpt>
      <trkpt lat="45.24768" lon="5.78436">
        <ele>1352.4000244141</ele>
        <time>2021-06-26T06:43:42.000Z</time>
      </trkpt>
      <trkpt lat="45.24766" lon="5.78431">
        <ele>1351.8000488281</ele>
        <time>2021-06-26T06:43:46.000Z</time>
      </trkpt>
      <trkpt lat="45.24765" lon="5.7843">
        <ele>1351.4000244141</ele>
        <time>2021-06-26T06:43:47.000Z</time>
      </trkpt>
      <trkpt lat="45.24759" lon="5.78425">
        <ele>1351.1999511719</ele>
        <time>2021-06-26T06:43:51.000Z</time>
      </trkpt>
      <trkpt lat="45.24757" lon="5.7842">
        <ele>1351.1999511719</ele>
        <time>2021-06-26T06:43:53.000Z</time>
      </trkpt>
      <trkpt lat="45.24754" lon="5.78414">
        <ele>1351.1999511719</ele>
        <time>2021-06-26T06:43:56.000Z</time>
      </trkpt>
      <trkpt lat="45.24749" lon="5.78411">
        <ele>1351.4000244141</ele>
        <time>2021-06-26T06:44:00.000Z</time>
      </trkpt>
      <trkpt lat="45.24747" lon="5.7841">
        <ele>1351.8000488281</ele>
        <time>2021-06-26T06:44:02.000Z</time>
      </trkpt>
      <trkpt lat="45.24746" lon="5.78409">
        <ele>1352</ele>
        <time>2021-06-26T06:44:03.000Z</time>
      </trkpt>
      <trkpt lat="45.24744" lon="5.78409">
        <ele>1352.4000244141</ele>
        <time>2021-06-26T06:44:05.000Z</time>
      </trkpt>
      <trkpt lat="45.24742" lon="5.78409">
        <ele>1352.5999755859</ele>
        <time>2021-06-26T06:44:07.000Z</time>
      </trkpt>
      <trkpt lat="45.24741" lon="5.78409">
        <ele>1353.1999511719</ele>
        <time>2021-06-26T06:44:09.000Z</time>
      </trkpt>
      <trkpt lat="45.2474" lon="5.7841">
        <ele>1353.5999755859</ele>
        <time>2021-06-26T06:44:10.000Z</time>
      </trkpt>
      <trkpt lat="45.2474" lon="5.7841">
        <ele>1353.8000488281</ele>
        <time>2021-06-26T06:44:13.000Z</time>
      </trkpt>
      <trkpt lat="45.24738" lon="5.7841">
        <ele>1354.5999755859</ele>
        <time>2021-06-26T06:44:16.000Z</time>
      </trkpt>
      <trkpt lat="45.24737" lon="5.78409">
        <ele>1355.1999511719</ele>
        <time>2021-06-26T06:44:17.000Z</time>
      </trkpt>
      <trkpt lat="45.24737" lon="5.78409">
        <ele>1355.1999511719</ele>
        <time>2021-06-26T06:44:18.000Z</time>
      </trkpt>
      <trkpt lat="45.24736" lon="5.78409">
        <ele>1355.4000244141</ele>
        <time>2021-06-26T06:44:19.000Z</time>
      </trkpt>
      <trkpt lat="45.24735" lon="5.7841">
        <ele>1356.1999511719</ele>
        <time>2021-06-26T06:44:21.000Z</time>
      </trkpt>
      <trkpt lat="45.24734" lon="5.78411">
        <ele>1356.1999511719</ele>
        <time>2021-06-26T06:44:22.000Z</time>
      </trkpt>
      <trkpt lat="45.24733" lon="5.78411">
        <ele>1357.4000244141</ele>
        <time>2021-06-26T06:44:25.000Z</time>
      </trkpt>
      <trkpt lat="45.2473" lon="5.78412">
        <ele>1357.8000488281</ele>
        <time>2021-06-26T06:44:27.000Z</time>
      </trkpt>
      <trkpt lat="45.24728" lon="5.78411">
        <ele>1358.4000244141</ele>
        <time>2021-06-26T06:44:29.000Z</time>
      </trkpt>
      <trkpt lat="45.24725" lon="5.7841">
        <ele>1359.4000244141</ele>
        <time>2021-06-26T06:44:32.000Z</time>
      </trkpt>
      <trkpt lat="45.24724" lon="5.7841">
        <ele>1359.4000244141</ele>
        <time>2021-06-26T06:44:33.000Z</time>
      </trkpt>
      <trkpt lat="45.24722" lon="5.78407">
        <ele>1359.5999755859</ele>
        <time>2021-06-26T06:44:36.000Z</time>
      </trkpt>
      <trkpt lat="45.24721" lon="5.78407">
        <ele>1360</ele>
        <time>2021-06-26T06:44:37.000Z</time>
      </trkpt>
      <trkpt lat="45.2472" lon="5.78407">
        <ele>1360.4000244141</ele>
        <time>2021-06-26T06:44:38.000Z</time>
      </trkpt>
      <trkpt lat="45.24718" lon="5.78408">
        <ele>1360.5999755859</ele>
        <time>2021-06-26T06:44:40.000Z</time>
      </trkpt>
      <trkpt lat="45.24718" lon="5.78409">
        <ele>1361.1999511719</ele>
        <time>2021-06-26T06:44:42.000Z</time>
      </trkpt>
      <trkpt lat="45.24716" lon="5.78408">
        <ele>1361.8000488281</ele>
        <time>2021-06-26T06:44:44.000Z</time>
      </trkpt>
      <trkpt lat="45.24714" lon="5.7841">
        <ele>1363</ele>
        <time>2021-06-26T06:44:48.000Z</time>
      </trkpt>
      <trkpt lat="45.24713" lon="5.78412">
        <ele>1363.4000244141</ele>
        <time>2021-06-26T06:44:50.000Z</time>
      </trkpt>
      <trkpt lat="45.24713" lon="5.78412">
        <ele>1363.5999755859</ele>
        <time>2021-06-26T06:44:52.000Z</time>
      </trkpt>
      <trkpt lat="45.24712" lon="5.78412">
        <ele>1364</ele>
        <time>2021-06-26T06:44:54.000Z</time>
      </trkpt>
      <trkpt lat="45.2471" lon="5.78412">
        <ele>1365.4000244141</ele>
        <time>2021-06-26T06:44:56.000Z</time>
      </trkpt>
      <trkpt lat="45.24709" lon="5.78412">
        <ele>1365.4000244141</ele>
        <time>2021-06-26T06:44:57.000Z</time>
      </trkpt>
      <trkpt lat="45.24708" lon="5.78412">
        <ele>1365.5999755859</ele>
        <time>2021-06-26T06:44:58.000Z</time>
      </trkpt>
      <trkpt lat="45.24707" lon="5.78412">
        <ele>1365.5999755859</ele>
        <time>2021-06-26T06:44:59.000Z</time>
      </trkpt>
      <trkpt lat="45.24704" lon="5.78413">
        <ele>1366.1999511719</ele>
        <time>2021-06-26T06:45:01.000Z</time>
      </trkpt>
      <trkpt lat="45.24703" lon="5.78413">
        <ele>1367</ele>
        <time>2021-06-26T06:45:02.000Z</time>
      </trkpt>
      <trkpt lat="45.24701" lon="5.78413">
        <ele>1367</ele>
        <time>2021-06-26T06:45:03.000Z</time>
      </trkpt>
      <trkpt lat="45.247" lon="5.78413">
        <ele>1367</ele>
        <time>2021-06-26T06:45:04.000Z</time>
      </trkpt>
      <trkpt lat="45.24695" lon="5.78412">
        <ele>1367.5999755859</ele>
        <time>2021-06-26T06:45:08.000Z</time>
      </trkpt>
      <trkpt lat="45.24694" lon="5.78414">
        <ele>1368.5999755859</ele>
        <time>2021-06-26T06:45:10.000Z</time>
      </trkpt>
      <trkpt lat="45.24693" lon="5.78414">
        <ele>1368.8000488281</ele>
        <time>2021-06-26T06:45:12.000Z</time>
      </trkpt>
      <trkpt lat="45.2469" lon="5.78412">
        <ele>1368.8000488281</ele>
        <time>2021-06-26T06:45:14.000Z</time>
      </trkpt>
      <trkpt lat="45.24682" lon="5.78407">
        <ele>1369.4000244141</ele>
        <time>2021-06-26T06:45:19.000Z</time>
      </trkpt>
      <trkpt lat="45.24681" lon="5.78407">
        <ele>1369.8000488281</ele>
        <time>2021-06-26T06:45:21.000Z</time>
      </trkpt>
      <trkpt lat="45.2468" lon="5.78407">
        <ele>1370</ele>
        <time>2021-06-26T06:45:22.000Z</time>
      </trkpt>
      <trkpt lat="45.24678" lon="5.78407">
        <ele>1371</ele>
        <time>2021-06-26T06:45:25.000Z</time>
      </trkpt>
      <trkpt lat="45.24675" lon="5.78407">
        <ele>1372.1999511719</ele>
        <time>2021-06-26T06:45:29.000Z</time>
      </trkpt>
      <trkpt lat="45.24674" lon="5.78408">
        <ele>1372.5999755859</ele>
        <time>2021-06-26T06:45:32.000Z</time>
      </trkpt>
      <trkpt lat="45.24672" lon="5.78409">
        <ele>1373.8000488281</ele>
        <time>2021-06-26T06:45:34.000Z</time>
      </trkpt>
      <trkpt lat="45.24672" lon="5.78409">
        <ele>1374</ele>
        <time>2021-06-26T06:45:35.000Z</time>
      </trkpt>
      <trkpt lat="45.24671" lon="5.78409">
        <ele>1374.4000244141</ele>
        <time>2021-06-26T06:45:37.000Z</time>
      </trkpt>
      <trkpt lat="45.2467" lon="5.78409">
        <ele>1374.5999755859</ele>
        <time>2021-06-26T06:45:38.000Z</time>
      </trkpt>
      <trkpt lat="45.24667" lon="5.78408">
        <ele>1375</ele>
        <time>2021-06-26T06:45:40.000Z</time>
      </trkpt>
      <trkpt lat="45.24666" lon="5.78407">
        <ele>1375.4000244141</ele>
        <time>2021-06-26T06:45:41.000Z</time>
      </trkpt>
      <trkpt lat="45.24663" lon="5.78407">
        <ele>1375.8000488281</ele>
        <time>2021-06-26T06:45:44.000Z</time>
      </trkpt>
      <trkpt lat="45.24658" lon="5.78406">
        <ele>1376.1999511719</ele>
        <time>2021-06-26T06:45:48.000Z</time>
      </trkpt>
      <trkpt lat="45.24657" lon="5.78404">
        <ele>1376.1999511719</ele>
        <time>2021-06-26T06:45:50.000Z</time>
      </trkpt>
      <trkpt lat="45.24655" lon="5.78404">
        <ele>1376.5999755859</ele>
        <time>2021-06-26T06:45:52.000Z</time>
      </trkpt>
      <trkpt lat="45.24654" lon="5.78404">
        <ele>1377.1999511719</ele>
        <time>2021-06-26T06:45:54.000Z</time>
      </trkpt>
      <trkpt lat="45.2465" lon="5.78404">
        <ele>1378.4000244141</ele>
        <time>2021-06-26T06:45:57.000Z</time>
      </trkpt>
      <trkpt lat="45.24645" lon="5.78403">
        <ele>1378.5999755859</ele>
        <time>2021-06-26T06:46:01.000Z</time>
      </trkpt>
      <trkpt lat="45.24643" lon="5.78402">
        <ele>1378.8000488281</ele>
        <time>2021-06-26T06:46:03.000Z</time>
      </trkpt>
      <trkpt lat="45.24641" lon="5.784">
        <ele>1379</ele>
        <time>2021-06-26T06:46:05.000Z</time>
      </trkpt>
      <trkpt lat="45.24638" lon="5.78398">
        <ele>1379</ele>
        <time>2021-06-26T06:46:07.000Z</time>
      </trkpt>
      <trkpt lat="45.24636" lon="5.78398">
        <ele>1379.1999511719</ele>
        <time>2021-06-26T06:46:09.000Z</time>
      </trkpt>
      <trkpt lat="45.24634" lon="5.78397">
        <ele>1379.4000244141</ele>
        <time>2021-06-26T06:46:11.000Z</time>
      </trkpt>
      <trkpt lat="45.24629" lon="5.78391">
        <ele>1379.4000244141</ele>
        <time>2021-06-26T06:46:16.000Z</time>
      </trkpt>
      <trkpt lat="45.24621" lon="5.78384">
        <ele>1379.1999511719</ele>
        <time>2021-06-26T06:46:24.000Z</time>
      </trkpt>
      <trkpt lat="45.24611" lon="5.78377">
        <ele>1379.4000244141</ele>
        <time>2021-06-26T06:46:31.000Z</time>
      </trkpt>
      <trkpt lat="45.24602" lon="5.78368">
        <ele>1378.5999755859</ele>
        <time>2021-06-26T06:46:37.000Z</time>
      </trkpt>
      <trkpt lat="45.24601" lon="5.78367">
        <ele>1378.5999755859</ele>
        <time>2021-06-26T06:46:38.000Z</time>
      </trkpt>
      <trkpt lat="45.24598" lon="5.78365">
        <ele>1378.8000488281</ele>
        <time>2021-06-26T06:46:41.000Z</time>
      </trkpt>
      <trkpt lat="45.24597" lon="5.78362">
        <ele>1378.8000488281</ele>
        <time>2021-06-26T06:46:42.000Z</time>
      </trkpt>
      <trkpt lat="45.2459" lon="5.78355">
        <ele>1378.1999511719</ele>
        <time>2021-06-26T06:46:46.000Z</time>
      </trkpt>
      <trkpt lat="45.24588" lon="5.78354">
        <ele>1378.1999511719</ele>
        <time>2021-06-26T06:46:47.000Z</time>
      </trkpt>
      <trkpt lat="45.24588" lon="5.78352">
        <ele>1377.8000488281</ele>
        <time>2021-06-26T06:46:48.000Z</time>
      </trkpt>
      <trkpt lat="45.24585" lon="5.78349">
        <ele>1377.8000488281</ele>
        <time>2021-06-26T06:46:50.000Z</time>
      </trkpt>
      <trkpt lat="45.24582" lon="5.78346">
        <ele>1377.5999755859</ele>
        <time>2021-06-26T06:46:52.000Z</time>
      </trkpt>
      <trkpt lat="45.24581" lon="5.78342">
        <ele>1377</ele>
        <time>2021-06-26T06:46:54.000Z</time>
      </trkpt>
      <trkpt lat="45.24579" lon="5.78337">
        <ele>1376.5999755859</ele>
        <time>2021-06-26T06:46:57.000Z</time>
      </trkpt>
      <trkpt lat="45.24576" lon="5.78331">
        <ele>1375.4000244141</ele>
        <time>2021-06-26T06:47:01.000Z</time>
      </trkpt>
      <trkpt lat="45.24574" lon="5.78329">
        <ele>1374.4000244141</ele>
        <time>2021-06-26T06:47:03.000Z</time>
      </trkpt>
      <trkpt lat="45.24574" lon="5.78328">
        <ele>1374.4000244141</ele>
        <time>2021-06-26T06:47:04.000Z</time>
      </trkpt>
      <trkpt lat="45.24573" lon="5.78326">
        <ele>1374.1999511719</ele>
        <time>2021-06-26T06:47:05.000Z</time>
      </trkpt>
      <trkpt lat="45.24571" lon="5.78321">
        <ele>1373.5999755859</ele>
        <time>2021-06-26T06:47:08.000Z</time>
      </trkpt>
      <trkpt lat="45.24569" lon="5.78319">
        <ele>1373.1999511719</ele>
        <time>2021-06-26T06:47:09.000Z</time>
      </trkpt>
      <trkpt lat="45.24566" lon="5.78314">
        <ele>1372.8000488281</ele>
        <time>2021-06-26T06:47:12.000Z</time>
      </trkpt>
      <trkpt lat="45.24565" lon="5.7831">
        <ele>1371.5999755859</ele>
        <time>2021-06-26T06:47:14.000Z</time>
      </trkpt>
      <trkpt lat="45.24564" lon="5.78309">
        <ele>1371.4000244141</ele>
        <time>2021-06-26T06:47:15.000Z</time>
      </trkpt>
      <trkpt lat="45.24561" lon="5.78305">
        <ele>1371</ele>
        <time>2021-06-26T06:47:18.000Z</time>
      </trkpt>
      <trkpt lat="45.2456" lon="5.78305">
        <ele>1370.5999755859</ele>
        <time>2021-06-26T06:47:19.000Z</time>
      </trkpt>
      <trkpt lat="45.24559" lon="5.78303">
        <ele>1369.8000488281</ele>
        <time>2021-06-26T06:47:20.000Z</time>
      </trkpt>
      <trkpt lat="45.24558" lon="5.783">
        <ele>1369.5999755859</ele>
        <time>2021-06-26T06:47:22.000Z</time>
      </trkpt>
      <trkpt lat="45.24555" lon="5.78298">
        <ele>1369.5999755859</ele>
        <time>2021-06-26T06:47:24.000Z</time>
      </trkpt>
      <trkpt lat="45.24553" lon="5.78296">
        <ele>1369.5999755859</ele>
        <time>2021-06-26T06:47:25.000Z</time>
      </trkpt>
      <trkpt lat="45.24551" lon="5.78295">
        <ele>1369.5999755859</ele>
        <time>2021-06-26T06:47:26.000Z</time>
      </trkpt>
      <trkpt lat="45.24548" lon="5.7829">
        <ele>1369.1999511719</ele>
        <time>2021-06-26T06:47:28.000Z</time>
      </trkpt>
      <trkpt lat="45.24539" lon="5.78283">
        <ele>1369.1999511719</ele>
        <time>2021-06-26T06:47:34.000Z</time>
      </trkpt>
      <trkpt lat="45.24533" lon="5.78274">
        <ele>1369.8000488281</ele>
        <time>2021-06-26T06:47:40.000Z</time>
      </trkpt>
      <trkpt lat="45.24531" lon="5.78274">
        <ele>1370.1999511719</ele>
        <time>2021-06-26T06:47:41.000Z</time>
      </trkpt>
      <trkpt lat="45.24528" lon="5.78271">
        <ele>1370.1999511719</ele>
        <time>2021-06-26T06:47:44.000Z</time>
      </trkpt>
      <trkpt lat="45.24526" lon="5.78267">
        <ele>1370.1999511719</ele>
        <time>2021-06-26T06:47:46.000Z</time>
      </trkpt>
      <trkpt lat="45.24525" lon="5.78266">
        <ele>1370.1999511719</ele>
        <time>2021-06-26T06:47:47.000Z</time>
      </trkpt>
      <trkpt lat="45.24524" lon="5.7826">
        <ele>1368.4000244141</ele>
        <time>2021-06-26T06:47:50.000Z</time>
      </trkpt>
      <trkpt lat="45.24521" lon="5.78253">
        <ele>1367.1999511719</ele>
        <time>2021-06-26T06:47:54.000Z</time>
      </trkpt>
      <trkpt lat="45.24517" lon="5.78245">
        <ele>1366.4000244141</ele>
        <time>2021-06-26T06:47:59.000Z</time>
      </trkpt>
      <trkpt lat="45.24516" lon="5.78244">
        <ele>1366.4000244141</ele>
        <time>2021-06-26T06:48:00.000Z</time>
      </trkpt>
      <trkpt lat="45.24515" lon="5.78243">
        <ele>1365.5999755859</ele>
        <time>2021-06-26T06:48:01.000Z</time>
      </trkpt>
      <trkpt lat="45.24513" lon="5.7824">
        <ele>1365.4000244141</ele>
        <time>2021-06-26T06:48:03.000Z</time>
      </trkpt>
      <trkpt lat="45.24512" lon="5.78239">
        <ele>1365.4000244141</ele>
        <time>2021-06-26T06:48:04.000Z</time>
      </trkpt>
      <trkpt lat="45.24511" lon="5.78237">
        <ele>1365.4000244141</ele>
        <time>2021-06-26T06:48:05.000Z</time>
      </trkpt>
      <trkpt lat="45.24508" lon="5.78231">
        <ele>1365.1999511719</ele>
        <time>2021-06-26T06:48:08.000Z</time>
      </trkpt>
      <trkpt lat="45.24504" lon="5.78224">
        <ele>1364.4000244141</ele>
        <time>2021-06-26T06:48:12.000Z</time>
      </trkpt>
      <trkpt lat="45.24504" lon="5.78223">
        <ele>1363.8000488281</ele>
        <time>2021-06-26T06:48:13.000Z</time>
      </trkpt>
      <trkpt lat="45.24504" lon="5.78221">
        <ele>1363.8000488281</ele>
        <time>2021-06-26T06:48:14.000Z</time>
      </trkpt>
      <trkpt lat="45.24503" lon="5.78218">
        <ele>1363.5999755859</ele>
        <time>2021-06-26T06:48:16.000Z</time>
      </trkpt>
      <trkpt lat="45.24503" lon="5.78216">
        <ele>1362.8000488281</ele>
        <time>2021-06-26T06:48:17.000Z</time>
      </trkpt>
      <trkpt lat="45.24502" lon="5.78212">
        <ele>1362</ele>
        <time>2021-06-26T06:48:19.000Z</time>
      </trkpt>
      <trkpt lat="45.24499" lon="5.78209">
        <ele>1361.8000488281</ele>
        <time>2021-06-26T06:48:21.000Z</time>
      </trkpt>
      <trkpt lat="45.24497" lon="5.78207">
        <ele>1361.1999511719</ele>
        <time>2021-06-26T06:48:22.000Z</time>
      </trkpt>
      <trkpt lat="45.24493" lon="5.782">
        <ele>1360.8000488281</ele>
        <time>2021-06-26T06:48:25.000Z</time>
      </trkpt>
      <trkpt lat="45.24492" lon="5.78194">
        <ele>1360.8000488281</ele>
        <time>2021-06-26T06:48:28.000Z</time>
      </trkpt>
      <trkpt lat="45.2449" lon="5.78191">
        <ele>1360.8000488281</ele>
        <time>2021-06-26T06:48:30.000Z</time>
      </trkpt>
      <trkpt lat="45.24489" lon="5.78187">
        <ele>1361</ele>
        <time>2021-06-26T06:48:32.000Z</time>
      </trkpt>
      <trkpt lat="45.2449" lon="5.78185">
        <ele>1361</ele>
        <time>2021-06-26T06:48:33.000Z</time>
      </trkpt>
      <trkpt lat="45.2449" lon="5.78184">
        <ele>1360.5999755859</ele>
        <time>2021-06-26T06:48:34.000Z</time>
      </trkpt>
      <trkpt lat="45.24488" lon="5.78182">
        <ele>1360.1999511719</ele>
        <time>2021-06-26T06:48:36.000Z</time>
      </trkpt>
      <trkpt lat="45.24484" lon="5.78178">
        <ele>1360</ele>
        <time>2021-06-26T06:48:38.000Z</time>
      </trkpt>
      <trkpt lat="45.24482" lon="5.78176">
        <ele>1359.4000244141</ele>
        <time>2021-06-26T06:48:39.000Z</time>
      </trkpt>
      <trkpt lat="45.24473" lon="5.78168">
        <ele>1358.8000488281</ele>
        <time>2021-06-26T06:48:44.000Z</time>
      </trkpt>
      <trkpt lat="45.24469" lon="5.78163">
        <ele>1358.1999511719</ele>
        <time>2021-06-26T06:48:48.000Z</time>
      </trkpt>
      <trkpt lat="45.24469" lon="5.78161">
        <ele>1357.8000488281</ele>
        <time>2021-06-26T06:48:49.000Z</time>
      </trkpt>
      <trkpt lat="45.24468" lon="5.78159">
        <ele>1357.4000244141</ele>
        <time>2021-06-26T06:48:51.000Z</time>
      </trkpt>
      <trkpt lat="45.24467" lon="5.78154">
        <ele>1357.4000244141</ele>
        <time>2021-06-26T06:48:54.000Z</time>
      </trkpt>
      <trkpt lat="45.24466" lon="5.78153">
        <ele>1357.1999511719</ele>
        <time>2021-06-26T06:48:55.000Z</time>
      </trkpt>
      <trkpt lat="45.24465" lon="5.78152">
        <ele>1356.8000488281</ele>
        <time>2021-06-26T06:48:56.000Z</time>
      </trkpt>
      <trkpt lat="45.24465" lon="5.7815">
        <ele>1356.5999755859</ele>
        <time>2021-06-26T06:48:58.000Z</time>
      </trkpt>
      <trkpt lat="45.24465" lon="5.78149">
        <ele>1356.4000244141</ele>
        <time>2021-06-26T06:48:59.000Z</time>
      </trkpt>
      <trkpt lat="45.24463" lon="5.78143">
        <ele>1356</ele>
        <time>2021-06-26T06:49:04.000Z</time>
      </trkpt>
      <trkpt lat="45.24461" lon="5.78142">
        <ele>1355.8000488281</ele>
        <time>2021-06-26T06:49:06.000Z</time>
      </trkpt>
      <trkpt lat="45.24456" lon="5.78134">
        <ele>1354.4000244141</ele>
        <time>2021-06-26T06:49:13.000Z</time>
      </trkpt>
      <trkpt lat="45.24454" lon="5.78128">
        <ele>1353</ele>
        <time>2021-06-26T06:49:18.000Z</time>
      </trkpt>
      <trkpt lat="45.24451" lon="5.78123">
        <ele>1352.4000244141</ele>
        <time>2021-06-26T06:49:21.000Z</time>
      </trkpt>
      <trkpt lat="45.2445" lon="5.78122">
        <ele>1351.8000488281</ele>
        <time>2021-06-26T06:49:23.000Z</time>
      </trkpt>
      <trkpt lat="45.2445" lon="5.7812">
        <ele>1351.5999755859</ele>
        <time>2021-06-26T06:49:24.000Z</time>
      </trkpt>
      <trkpt lat="45.24449" lon="5.78114">
        <ele>1350.8000488281</ele>
        <time>2021-06-26T06:49:27.000Z</time>
      </trkpt>
      <trkpt lat="45.24449" lon="5.78112">
        <ele>1350.5999755859</ele>
        <time>2021-06-26T06:49:28.000Z</time>
      </trkpt>
      <trkpt lat="45.24448" lon="5.78108">
        <ele>1350</ele>
        <time>2021-06-26T06:49:30.000Z</time>
      </trkpt>
      <trkpt lat="45.24448" lon="5.78106">
        <ele>1349.4000244141</ele>
        <time>2021-06-26T06:49:32.000Z</time>
      </trkpt>
      <trkpt lat="45.24445" lon="5.78103">
        <ele>1349.1999511719</ele>
        <time>2021-06-26T06:49:35.000Z</time>
      </trkpt>
      <trkpt lat="45.24444" lon="5.78102">
        <ele>1349.1999511719</ele>
        <time>2021-06-26T06:49:36.000Z</time>
      </trkpt>
      <trkpt lat="45.24442" lon="5.78099">
        <ele>1348.8000488281</ele>
        <time>2021-06-26T06:49:39.000Z</time>
      </trkpt>
      <trkpt lat="45.24442" lon="5.78098">
        <ele>1348.5999755859</ele>
        <time>2021-06-26T06:49:40.000Z</time>
      </trkpt>
      <trkpt lat="45.24442" lon="5.78097">
        <ele>1348.8000488281</ele>
        <time>2021-06-26T06:49:42.000Z</time>
      </trkpt>
      <trkpt lat="45.24442" lon="5.78096">
        <ele>1348.8000488281</ele>
        <time>2021-06-26T06:49:44.000Z</time>
      </trkpt>
      <trkpt lat="45.24439" lon="5.78096">
        <ele>1349.4000244141</ele>
        <time>2021-06-26T06:49:49.000Z</time>
      </trkpt>
      <trkpt lat="45.24434" lon="5.78093">
        <ele>1349.8000488281</ele>
        <time>2021-06-26T06:49:52.000Z</time>
      </trkpt>
      <trkpt lat="45.24432" lon="5.78088">
        <ele>1350</ele>
        <time>2021-06-26T06:49:55.000Z</time>
      </trkpt>
      <trkpt lat="45.2443" lon="5.78086">
        <ele>1349.5999755859</ele>
        <time>2021-06-26T06:49:58.000Z</time>
      </trkpt>
      <trkpt lat="45.24424" lon="5.78077">
        <ele>1348.8000488281</ele>
        <time>2021-06-26T06:50:05.000Z</time>
      </trkpt>
      <trkpt lat="45.24423" lon="5.78074">
        <ele>1348.1999511719</ele>
        <time>2021-06-26T06:50:07.000Z</time>
      </trkpt>
      <trkpt lat="45.24421" lon="5.7807">
        <ele>1348</ele>
        <time>2021-06-26T06:50:10.000Z</time>
      </trkpt>
      <trkpt lat="45.2442" lon="5.78069">
        <ele>1348</ele>
        <time>2021-06-26T06:50:11.000Z</time>
      </trkpt>
      <trkpt lat="45.24417" lon="5.78067">
        <ele>1348.1999511719</ele>
        <time>2021-06-26T06:50:14.000Z</time>
      </trkpt>
      <trkpt lat="45.24414" lon="5.78065">
        <ele>1348.5999755859</ele>
        <time>2021-06-26T06:50:16.000Z</time>
      </trkpt>
      <trkpt lat="45.24412" lon="5.78064">
        <ele>1348.5999755859</ele>
        <time>2021-06-26T06:50:17.000Z</time>
      </trkpt>
      <trkpt lat="45.24409" lon="5.78061">
        <ele>1349.4000244141</ele>
        <time>2021-06-26T06:50:19.000Z</time>
      </trkpt>
      <trkpt lat="45.24409" lon="5.7806">
        <ele>1350.1999511719</ele>
        <time>2021-06-26T06:50:21.000Z</time>
      </trkpt>
      <trkpt lat="45.24408" lon="5.78059">
        <ele>1350.4000244141</ele>
        <time>2021-06-26T06:50:23.000Z</time>
      </trkpt>
      <trkpt lat="45.24407" lon="5.78059">
        <ele>1350.5999755859</ele>
        <time>2021-06-26T06:50:26.000Z</time>
      </trkpt>
      <trkpt lat="45.24406" lon="5.78059">
        <ele>1351.8000488281</ele>
        <time>2021-06-26T06:50:27.000Z</time>
      </trkpt>
      <trkpt lat="45.24404" lon="5.78055">
        <ele>1352.1999511719</ele>
        <time>2021-06-26T06:50:30.000Z</time>
      </trkpt>
      <trkpt lat="45.24404" lon="5.78055">
        <ele>1352.1999511719</ele>
        <time>2021-06-26T06:50:31.000Z</time>
      </trkpt>
      <trkpt lat="45.24403" lon="5.78053">
        <ele>1352.4000244141</ele>
        <time>2021-06-26T06:50:33.000Z</time>
      </trkpt>
      <trkpt lat="45.24403" lon="5.78052">
        <ele>1353</ele>
        <time>2021-06-26T06:50:35.000Z</time>
      </trkpt>
      <trkpt lat="45.24404" lon="5.78053">
        <ele>1353.4000244141</ele>
        <time>2021-06-26T06:50:37.000Z</time>
      </trkpt>
      <trkpt lat="45.24403" lon="5.78053">
        <ele>1353.5999755859</ele>
        <time>2021-06-26T06:50:38.000Z</time>
      </trkpt>
      <trkpt lat="45.24402" lon="5.78053">
        <ele>1354.1999511719</ele>
        <time>2021-06-26T06:50:39.000Z</time>
      </trkpt>
      <trkpt lat="45.24401" lon="5.78053">
        <ele>1354.8000488281</ele>
        <time>2021-06-26T06:50:40.000Z</time>
      </trkpt>
      <trkpt lat="45.24401" lon="5.78053">
        <ele>1355</ele>
        <time>2021-06-26T06:50:41.000Z</time>
      </trkpt>
      <trkpt lat="45.24401" lon="5.78053">
        <ele>1355.1999511719</ele>
        <time>2021-06-26T06:50:42.000Z</time>
      </trkpt>
      <trkpt lat="45.244" lon="5.78053">
        <ele>1355.5999755859</ele>
        <time>2021-06-26T06:50:43.000Z</time>
      </trkpt>
      <trkpt lat="45.244" lon="5.78053">
        <ele>1356.1999511719</ele>
        <time>2021-06-26T06:50:45.000Z</time>
      </trkpt>
      <trkpt lat="45.24399" lon="5.78053">
        <ele>1356.8000488281</ele>
        <time>2021-06-26T06:50:46.000Z</time>
      </trkpt>
      <trkpt lat="45.24397" lon="5.78053">
        <ele>1357</ele>
        <time>2021-06-26T06:50:48.000Z</time>
      </trkpt>
      <trkpt lat="45.24396" lon="5.78053">
        <ele>1357</ele>
        <time>2021-06-26T06:50:49.000Z</time>
      </trkpt>
      <trkpt lat="45.24395" lon="5.78054">
        <ele>1358</ele>
        <time>2021-06-26T06:50:50.000Z</time>
      </trkpt>
      <trkpt lat="45.24395" lon="5.78055">
        <ele>1358.4000244141</ele>
        <time>2021-06-26T06:50:51.000Z</time>
      </trkpt>
      <trkpt lat="45.24394" lon="5.78055">
        <ele>1358.8000488281</ele>
        <time>2021-06-26T06:50:53.000Z</time>
      </trkpt>
      <trkpt lat="45.24393" lon="5.78055">
        <ele>1359.4000244141</ele>
        <time>2021-06-26T06:50:54.000Z</time>
      </trkpt>
      <trkpt lat="45.24391" lon="5.78055">
        <ele>1359.5999755859</ele>
        <time>2021-06-26T06:50:56.000Z</time>
      </trkpt>
      <trkpt lat="45.24387" lon="5.78053">
        <ele>1360.8000488281</ele>
        <time>2021-06-26T06:50:59.000Z</time>
      </trkpt>
      <trkpt lat="45.24384" lon="5.78053">
        <ele>1361.5999755859</ele>
        <time>2021-06-26T06:51:02.000Z</time>
      </trkpt>
      <trkpt lat="45.24382" lon="5.78052">
        <ele>1362</ele>
        <time>2021-06-26T06:51:04.000Z</time>
      </trkpt>
      <trkpt lat="45.24381" lon="5.78051">
        <ele>1362.4000244141</ele>
        <time>2021-06-26T06:51:06.000Z</time>
      </trkpt>
      <trkpt lat="45.2438" lon="5.7805">
        <ele>1363.1999511719</ele>
        <time>2021-06-26T06:51:07.000Z</time>
      </trkpt>
      <trkpt lat="45.24378" lon="5.78048">
        <ele>1363.1999511719</ele>
        <time>2021-06-26T06:51:08.000Z</time>
      </trkpt>
      <trkpt lat="45.24377" lon="5.78047">
        <ele>1363.4000244141</ele>
        <time>2021-06-26T06:51:09.000Z</time>
      </trkpt>
      <trkpt lat="45.24374" lon="5.78041">
        <ele>1363.8000488281</ele>
        <time>2021-06-26T06:51:14.000Z</time>
      </trkpt>
      <trkpt lat="45.24373" lon="5.78037">
        <ele>1364.1999511719</ele>
        <time>2021-06-26T06:51:16.000Z</time>
      </trkpt>
      <trkpt lat="45.24372" lon="5.78035">
        <ele>1364.5999755859</ele>
        <time>2021-06-26T06:51:17.000Z</time>
      </trkpt>
      <trkpt lat="45.2437" lon="5.78033">
        <ele>1364.5999755859</ele>
        <time>2021-06-26T06:51:19.000Z</time>
      </trkpt>
      <trkpt lat="45.24369" lon="5.78032">
        <ele>1364.5999755859</ele>
        <time>2021-06-26T06:51:20.000Z</time>
      </trkpt>
      <trkpt lat="45.24366" lon="5.78027">
        <ele>1364.5999755859</ele>
        <time>2021-06-26T06:51:24.000Z</time>
      </trkpt>
      <trkpt lat="45.24366" lon="5.78026">
        <ele>1364.1999511719</ele>
        <time>2021-06-26T06:51:25.000Z</time>
      </trkpt>
      <trkpt lat="45.24364" lon="5.78022">
        <ele>1364.5999755859</ele>
        <time>2021-06-26T06:51:28.000Z</time>
      </trkpt>
      <trkpt lat="45.24361" lon="5.7802">
        <ele>1364.5999755859</ele>
        <time>2021-06-26T06:51:30.000Z</time>
      </trkpt>
      <trkpt lat="45.24359" lon="5.78014">
        <ele>1365</ele>
        <time>2021-06-26T06:51:33.000Z</time>
      </trkpt>
      <trkpt lat="45.24356" lon="5.7801">
        <ele>1365</ele>
        <time>2021-06-26T06:51:36.000Z</time>
      </trkpt>
      <trkpt lat="45.24352" lon="5.78008">
        <ele>1365.4000244141</ele>
        <time>2021-06-26T06:51:40.000Z</time>
      </trkpt>
      <trkpt lat="45.24351" lon="5.78006">
        <ele>1366</ele>
        <time>2021-06-26T06:51:42.000Z</time>
      </trkpt>
      <trkpt lat="45.24351" lon="5.77997">
        <ele>1365.4000244141</ele>
        <time>2021-06-26T06:51:47.000Z</time>
      </trkpt>
      <trkpt lat="45.2435" lon="5.77995">
        <ele>1365.4000244141</ele>
        <time>2021-06-26T06:51:48.000Z</time>
      </trkpt>
      <trkpt lat="45.24349" lon="5.77992">
        <ele>1364.8000488281</ele>
        <time>2021-06-26T06:51:50.000Z</time>
      </trkpt>
      <trkpt lat="45.24348" lon="5.7799">
        <ele>1364.4000244141</ele>
        <time>2021-06-26T06:51:51.000Z</time>
      </trkpt>
      <trkpt lat="45.24348" lon="5.77985">
        <ele>1364.1999511719</ele>
        <time>2021-06-26T06:51:53.000Z</time>
      </trkpt>
      <trkpt lat="45.24346" lon="5.77983">
        <ele>1364.1999511719</ele>
        <time>2021-06-26T06:51:54.000Z</time>
      </trkpt>
      <trkpt lat="45.24344" lon="5.7798">
        <ele>1363.1999511719</ele>
        <time>2021-06-26T06:51:55.000Z</time>
      </trkpt>
      <trkpt lat="45.24337" lon="5.77973">
        <ele>1363.8000488281</ele>
        <time>2021-06-26T06:52:00.000Z</time>
      </trkpt>
      <trkpt lat="45.24333" lon="5.77968">
        <ele>1364.4000244141</ele>
        <time>2021-06-26T06:52:03.000Z</time>
      </trkpt>
      <trkpt lat="45.24327" lon="5.77964">
        <ele>1365.1999511719</ele>
        <time>2021-06-26T06:52:07.000Z</time>
      </trkpt>
      <trkpt lat="45.24325" lon="5.77964">
        <ele>1365.5999755859</ele>
        <time>2021-06-26T06:52:08.000Z</time>
      </trkpt>
      <trkpt lat="45.24322" lon="5.77964">
        <ele>1366.5999755859</ele>
        <time>2021-06-26T06:52:10.000Z</time>
      </trkpt>
      <trkpt lat="45.24315" lon="5.7796">
        <ele>1367.4000244141</ele>
        <time>2021-06-26T06:52:14.000Z</time>
      </trkpt>
      <trkpt lat="45.24313" lon="5.77958">
        <ele>1367.4000244141</ele>
        <time>2021-06-26T06:52:15.000Z</time>
      </trkpt>
      <trkpt lat="45.24312" lon="5.77958">
        <ele>1367.4000244141</ele>
        <time>2021-06-26T06:52:16.000Z</time>
      </trkpt>
      <trkpt lat="45.2431" lon="5.77957">
        <ele>1367.4000244141</ele>
        <time>2021-06-26T06:52:17.000Z</time>
      </trkpt>
      <trkpt lat="45.24308" lon="5.77955">
        <ele>1367.4000244141</ele>
        <time>2021-06-26T06:52:19.000Z</time>
      </trkpt>
      <trkpt lat="45.24307" lon="5.77953">
        <ele>1367.4000244141</ele>
        <time>2021-06-26T06:52:20.000Z</time>
      </trkpt>
      <trkpt lat="45.24294" lon="5.77942">
        <ele>1366.8000488281</ele>
        <time>2021-06-26T06:52:26.000Z</time>
      </trkpt>
      <trkpt lat="45.24293" lon="5.7794">
        <ele>1367.1999511719</ele>
        <time>2021-06-26T06:52:27.000Z</time>
      </trkpt>
      <trkpt lat="45.24292" lon="5.77937">
        <ele>1366.1999511719</ele>
        <time>2021-06-26T06:52:29.000Z</time>
      </trkpt>
      <trkpt lat="45.24292" lon="5.77935">
        <ele>1366.1999511719</ele>
        <time>2021-06-26T06:52:30.000Z</time>
      </trkpt>
      <trkpt lat="45.24292" lon="5.77933">
        <ele>1365.5999755859</ele>
        <time>2021-06-26T06:52:31.000Z</time>
      </trkpt>
      <trkpt lat="45.24287" lon="5.77926">
        <ele>1364.8000488281</ele>
        <time>2021-06-26T06:52:34.000Z</time>
      </trkpt>
      <trkpt lat="45.2428" lon="5.77919">
        <ele>1364.4000244141</ele>
        <time>2021-06-26T06:52:38.000Z</time>
      </trkpt>
      <trkpt lat="45.24278" lon="5.77918">
        <ele>1364.5999755859</ele>
        <time>2021-06-26T06:52:39.000Z</time>
      </trkpt>
      <trkpt lat="45.24277" lon="5.77915">
        <ele>1364.8000488281</ele>
        <time>2021-06-26T06:52:40.000Z</time>
      </trkpt>
      <trkpt lat="45.24271" lon="5.77906">
        <ele>1364.1999511719</ele>
        <time>2021-06-26T06:52:44.000Z</time>
      </trkpt>
      <trkpt lat="45.24267" lon="5.779">
        <ele>1364.1999511719</ele>
        <time>2021-06-26T06:52:47.000Z</time>
      </trkpt>
      <trkpt lat="45.24262" lon="5.77894">
        <ele>1363.1999511719</ele>
        <time>2021-06-26T06:52:50.000Z</time>
      </trkpt>
      <trkpt lat="45.24255" lon="5.77886">
        <ele>1364</ele>
        <time>2021-06-26T06:52:54.000Z</time>
      </trkpt>
      <trkpt lat="45.24253" lon="5.77884">
        <ele>1364.4000244141</ele>
        <time>2021-06-26T06:52:55.000Z</time>
      </trkpt>
      <trkpt lat="45.24245" lon="5.77878">
        <ele>1364.1999511719</ele>
        <time>2021-06-26T06:52:59.000Z</time>
      </trkpt>
      <trkpt lat="45.24245" lon="5.77876">
        <ele>1364.1999511719</ele>
        <time>2021-06-26T06:53:00.000Z</time>
      </trkpt>
      <trkpt lat="45.24243" lon="5.77872">
        <ele>1363.4000244141</ele>
        <time>2021-06-26T06:53:02.000Z</time>
      </trkpt>
      <trkpt lat="45.24241" lon="5.77868">
        <ele>1362.5999755859</ele>
        <time>2021-06-26T06:53:05.000Z</time>
      </trkpt>
      <trkpt lat="45.2424" lon="5.77867">
        <ele>1361.8000488281</ele>
        <time>2021-06-26T06:53:06.000Z</time>
      </trkpt>
      <trkpt lat="45.24238" lon="5.77861">
        <ele>1361.1999511719</ele>
        <time>2021-06-26T06:53:11.000Z</time>
      </trkpt>
      <trkpt lat="45.24238" lon="5.7786">
        <ele>1360.1999511719</ele>
        <time>2021-06-26T06:53:13.000Z</time>
      </trkpt>
      <trkpt lat="45.24237" lon="5.77857">
        <ele>1359.4000244141</ele>
        <time>2021-06-26T06:53:15.000Z</time>
      </trkpt>
      <trkpt lat="45.24236" lon="5.77855">
        <ele>1359</ele>
        <time>2021-06-26T06:53:16.000Z</time>
      </trkpt>
      <trkpt lat="45.24234" lon="5.77851">
        <ele>1358.5999755859</ele>
        <time>2021-06-26T06:53:19.000Z</time>
      </trkpt>
      <trkpt lat="45.2423" lon="5.77847">
        <ele>1358.4000244141</ele>
        <time>2021-06-26T06:53:22.000Z</time>
      </trkpt>
      <trkpt lat="45.24228" lon="5.77845">
        <ele>1357.5999755859</ele>
        <time>2021-06-26T06:53:23.000Z</time>
      </trkpt>
      <trkpt lat="45.24223" lon="5.77837">
        <ele>1357.1999511719</ele>
        <time>2021-06-26T06:53:26.000Z</time>
      </trkpt>
      <trkpt lat="45.24222" lon="5.77834">
        <ele>1357.1999511719</ele>
        <time>2021-06-26T06:53:27.000Z</time>
      </trkpt>
      <trkpt lat="45.24212" lon="5.77824">
        <ele>1356.1999511719</ele>
        <time>2021-06-26T06:53:33.000Z</time>
      </trkpt>
      <trkpt lat="45.24207" lon="5.77814">
        <ele>1355.1999511719</ele>
        <time>2021-06-26T06:53:38.000Z</time>
      </trkpt>
      <trkpt lat="45.24206" lon="5.77812">
        <ele>1355.4000244141</ele>
        <time>2021-06-26T06:53:39.000Z</time>
      </trkpt>
      <trkpt lat="45.24199" lon="5.77805">
        <ele>1353.8000488281</ele>
        <time>2021-06-26T06:53:43.000Z</time>
      </trkpt>
      <trkpt lat="45.24196" lon="5.77804">
        <ele>1353.5999755859</ele>
        <time>2021-06-26T06:53:45.000Z</time>
      </trkpt>
      <trkpt lat="45.24195" lon="5.77803">
        <ele>1353.5999755859</ele>
        <time>2021-06-26T06:53:46.000Z</time>
      </trkpt>
      <trkpt lat="45.24194" lon="5.77802">
        <ele>1353.4000244141</ele>
        <time>2021-06-26T06:53:47.000Z</time>
      </trkpt>
      <trkpt lat="45.24193" lon="5.778">
        <ele>1352.8000488281</ele>
        <time>2021-06-26T06:53:48.000Z</time>
      </trkpt>
      <trkpt lat="45.24191" lon="5.77796">
        <ele>1352.4000244141</ele>
        <time>2021-06-26T06:53:51.000Z</time>
      </trkpt>
      <trkpt lat="45.2419" lon="5.77792">
        <ele>1352.1999511719</ele>
        <time>2021-06-26T06:53:54.000Z</time>
      </trkpt>
      <trkpt lat="45.24185" lon="5.77788">
        <ele>1351.8000488281</ele>
        <time>2021-06-26T06:53:57.000Z</time>
      </trkpt>
      <trkpt lat="45.24183" lon="5.77786">
        <ele>1351.5999755859</ele>
        <time>2021-06-26T06:53:59.000Z</time>
      </trkpt>
      <trkpt lat="45.24181" lon="5.77784">
        <ele>1351.4000244141</ele>
        <time>2021-06-26T06:54:03.000Z</time>
      </trkpt>
      <trkpt lat="45.24178" lon="5.7778">
        <ele>1351.8000488281</ele>
        <time>2021-06-26T06:54:08.000Z</time>
      </trkpt>
      <trkpt lat="45.24177" lon="5.77779">
        <ele>1351.8000488281</ele>
        <time>2021-06-26T06:54:09.000Z</time>
      </trkpt>
      <trkpt lat="45.24176" lon="5.77778">
        <ele>1351.8000488281</ele>
        <time>2021-06-26T06:54:10.000Z</time>
      </trkpt>
      <trkpt lat="45.24175" lon="5.77772">
        <ele>1351</ele>
        <time>2021-06-26T06:54:14.000Z</time>
      </trkpt>
      <trkpt lat="45.24174" lon="5.77771">
        <ele>1350.8000488281</ele>
        <time>2021-06-26T06:54:16.000Z</time>
      </trkpt>
      <trkpt lat="45.24173" lon="5.77769">
        <ele>1351</ele>
        <time>2021-06-26T06:54:17.000Z</time>
      </trkpt>
      <trkpt lat="45.24171" lon="5.77766">
        <ele>1351</ele>
        <time>2021-06-26T06:54:19.000Z</time>
      </trkpt>
      <trkpt lat="45.2417" lon="5.77763">
        <ele>1350.8000488281</ele>
        <time>2021-06-26T06:54:21.000Z</time>
      </trkpt>
      <trkpt lat="45.2417" lon="5.77761">
        <ele>1350.8000488281</ele>
        <time>2021-06-26T06:54:22.000Z</time>
      </trkpt>
      <trkpt lat="45.2417" lon="5.77761">
        <ele>1350.4000244141</ele>
        <time>2021-06-26T06:54:23.000Z</time>
      </trkpt>
      <trkpt lat="45.24166" lon="5.77753">
        <ele>1349.4000244141</ele>
        <time>2021-06-26T06:54:27.000Z</time>
      </trkpt>
      <trkpt lat="45.24166" lon="5.77752">
        <ele>1349.4000244141</ele>
        <time>2021-06-26T06:54:28.000Z</time>
      </trkpt>
      <trkpt lat="45.24164" lon="5.77749">
        <ele>1349.1999511719</ele>
        <time>2021-06-26T06:54:30.000Z</time>
      </trkpt>
      <trkpt lat="45.24162" lon="5.77741">
        <ele>1348</ele>
        <time>2021-06-26T06:54:35.000Z</time>
      </trkpt>
      <trkpt lat="45.2416" lon="5.77739">
        <ele>1347.8000488281</ele>
        <time>2021-06-26T06:54:36.000Z</time>
      </trkpt>
      <trkpt lat="45.24159" lon="5.77738">
        <ele>1347</ele>
        <time>2021-06-26T06:54:38.000Z</time>
      </trkpt>
      <trkpt lat="45.24158" lon="5.77737">
        <ele>1346.8000488281</ele>
        <time>2021-06-26T06:54:39.000Z</time>
      </trkpt>
      <trkpt lat="45.24158" lon="5.77736">
        <ele>1346.8000488281</ele>
        <time>2021-06-26T06:54:40.000Z</time>
      </trkpt>
      <trkpt lat="45.24156" lon="5.77736">
        <ele>1346.8000488281</ele>
        <time>2021-06-26T06:54:41.000Z</time>
      </trkpt>
      <trkpt lat="45.24152" lon="5.77734">
        <ele>1346.8000488281</ele>
        <time>2021-06-26T06:54:44.000Z</time>
      </trkpt>
      <trkpt lat="45.24151" lon="5.77731">
        <ele>1346.8000488281</ele>
        <time>2021-06-26T06:54:46.000Z</time>
      </trkpt>
      <trkpt lat="45.2415" lon="5.7773">
        <ele>1345.8000488281</ele>
        <time>2021-06-26T06:54:47.000Z</time>
      </trkpt>
      <trkpt lat="45.24147" lon="5.77725">
        <ele>1345</ele>
        <time>2021-06-26T06:54:51.000Z</time>
      </trkpt>
      <trkpt lat="45.24146" lon="5.77723">
        <ele>1344.5999755859</ele>
        <time>2021-06-26T06:54:52.000Z</time>
      </trkpt>
      <trkpt lat="45.2414" lon="5.77713">
        <ele>1343.1999511719</ele>
        <time>2021-06-26T06:54:56.000Z</time>
      </trkpt>
      <trkpt lat="45.24137" lon="5.77708">
        <ele>1342.8000488281</ele>
        <time>2021-06-26T06:54:58.000Z</time>
      </trkpt>
      <trkpt lat="45.24133" lon="5.77702">
        <ele>1342.1999511719</ele>
        <time>2021-06-26T06:55:00.000Z</time>
      </trkpt>
      <trkpt lat="45.24131" lon="5.77698">
        <ele>1341.8000488281</ele>
        <time>2021-06-26T06:55:02.000Z</time>
      </trkpt>
      <trkpt lat="45.24129" lon="5.77697">
        <ele>1341.1999511719</ele>
        <time>2021-06-26T06:55:03.000Z</time>
      </trkpt>
      <trkpt lat="45.24129" lon="5.77696">
        <ele>1341.1999511719</ele>
        <time>2021-06-26T06:55:04.000Z</time>
      </trkpt>
      <trkpt lat="45.24127" lon="5.77696">
        <ele>1341.1999511719</ele>
        <time>2021-06-26T06:55:06.000Z</time>
      </trkpt>
      <trkpt lat="45.24125" lon="5.77695">
        <ele>1341.5999755859</ele>
        <time>2021-06-26T06:55:08.000Z</time>
      </trkpt>
      <trkpt lat="45.2412" lon="5.77689">
        <ele>1342.4000244141</ele>
        <time>2021-06-26T06:55:12.000Z</time>
      </trkpt>
      <trkpt lat="45.24118" lon="5.77687">
        <ele>1342.4000244141</ele>
        <time>2021-06-26T06:55:13.000Z</time>
      </trkpt>
      <trkpt lat="45.24116" lon="5.77684">
        <ele>1342.5999755859</ele>
        <time>2021-06-26T06:55:15.000Z</time>
      </trkpt>
      <trkpt lat="45.24108" lon="5.77679">
        <ele>1343.1999511719</ele>
        <time>2021-06-26T06:55:18.000Z</time>
      </trkpt>
      <trkpt lat="45.24103" lon="5.77673">
        <ele>1343.4000244141</ele>
        <time>2021-06-26T06:55:22.000Z</time>
      </trkpt>
      <trkpt lat="45.24098" lon="5.77664">
        <ele>1343.1999511719</ele>
        <time>2021-06-26T06:55:27.000Z</time>
      </trkpt>
      <trkpt lat="45.24095" lon="5.77659">
        <ele>1343.1999511719</ele>
        <time>2021-06-26T06:55:29.000Z</time>
      </trkpt>
      <trkpt lat="45.24086" lon="5.77649">
        <ele>1342.5999755859</ele>
        <time>2021-06-26T06:55:33.000Z</time>
      </trkpt>
      <trkpt lat="45.24085" lon="5.77649">
        <ele>1342.5999755859</ele>
        <time>2021-06-26T06:55:34.000Z</time>
      </trkpt>
      <trkpt lat="45.24076" lon="5.77637">
        <ele>1342</ele>
        <time>2021-06-26T06:55:40.000Z</time>
      </trkpt>
      <trkpt lat="45.24074" lon="5.77632">
        <ele>1341.1999511719</ele>
        <time>2021-06-26T06:55:43.000Z</time>
      </trkpt>
      <trkpt lat="45.24073" lon="5.7763">
        <ele>1341</ele>
        <time>2021-06-26T06:55:44.000Z</time>
      </trkpt>
      <trkpt lat="45.24072" lon="5.77628">
        <ele>1340.8000488281</ele>
        <time>2021-06-26T06:55:45.000Z</time>
      </trkpt>
      <trkpt lat="45.24068" lon="5.77619">
        <ele>1339.4000244141</ele>
        <time>2021-06-26T06:55:49.000Z</time>
      </trkpt>
      <trkpt lat="45.24068" lon="5.77617">
        <ele>1339.1999511719</ele>
        <time>2021-06-26T06:55:50.000Z</time>
      </trkpt>
      <trkpt lat="45.24067" lon="5.77616">
        <ele>1338.5999755859</ele>
        <time>2021-06-26T06:55:51.000Z</time>
      </trkpt>
      <trkpt lat="45.24066" lon="5.77614">
        <ele>1338.4000244141</ele>
        <time>2021-06-26T06:55:52.000Z</time>
      </trkpt>
      <trkpt lat="45.24064" lon="5.77611">
        <ele>1337.8000488281</ele>
        <time>2021-06-26T06:55:54.000Z</time>
      </trkpt>
      <trkpt lat="45.24063" lon="5.77606">
        <ele>1336.8000488281</ele>
        <time>2021-06-26T06:55:56.000Z</time>
      </trkpt>
      <trkpt lat="45.24062" lon="5.77603">
        <ele>1336.8000488281</ele>
        <time>2021-06-26T06:55:57.000Z</time>
      </trkpt>
      <trkpt lat="45.24054" lon="5.77593">
        <ele>1336.4000244141</ele>
        <time>2021-06-26T06:56:02.000Z</time>
      </trkpt>
      <trkpt lat="45.24051" lon="5.7759">
        <ele>1336.5999755859</ele>
        <time>2021-06-26T06:56:04.000Z</time>
      </trkpt>
      <trkpt lat="45.24047" lon="5.77588">
        <ele>1337</ele>
        <time>2021-06-26T06:56:07.000Z</time>
      </trkpt>
      <trkpt lat="45.24043" lon="5.77587">
        <ele>1337.8000488281</ele>
        <time>2021-06-26T06:56:09.000Z</time>
      </trkpt>
      <trkpt lat="45.24041" lon="5.77584">
        <ele>1338</ele>
        <time>2021-06-26T06:56:11.000Z</time>
      </trkpt>
      <trkpt lat="45.2404" lon="5.77583">
        <ele>1338</ele>
        <time>2021-06-26T06:56:12.000Z</time>
      </trkpt>
      <trkpt lat="45.24039" lon="5.77581">
        <ele>1339</ele>
        <time>2021-06-26T06:56:14.000Z</time>
      </trkpt>
      <trkpt lat="45.24037" lon="5.77578">
        <ele>1339</ele>
        <time>2021-06-26T06:56:16.000Z</time>
      </trkpt>
      <trkpt lat="45.24031" lon="5.77575">
        <ele>1339.5999755859</ele>
        <time>2021-06-26T06:56:22.000Z</time>
      </trkpt>
      <trkpt lat="45.2403" lon="5.77575">
        <ele>1339.5999755859</ele>
        <time>2021-06-26T06:56:23.000Z</time>
      </trkpt>
      <trkpt lat="45.24027" lon="5.77572">
        <ele>1340</ele>
        <time>2021-06-26T06:56:26.000Z</time>
      </trkpt>
      <trkpt lat="45.24026" lon="5.7757">
        <ele>1340.5999755859</ele>
        <time>2021-06-26T06:56:28.000Z</time>
      </trkpt>
      <trkpt lat="45.24024" lon="5.7757">
        <ele>1340.8000488281</ele>
        <time>2021-06-26T06:56:31.000Z</time>
      </trkpt>
      <trkpt lat="45.24023" lon="5.77569">
        <ele>1340.8000488281</ele>
        <time>2021-06-26T06:56:33.000Z</time>
      </trkpt>
      <trkpt lat="45.24021" lon="5.77564">
        <ele>1340.5999755859</ele>
        <time>2021-06-26T06:56:37.000Z</time>
      </trkpt>
      <trkpt lat="45.24018" lon="5.77561">
        <ele>1340</ele>
        <time>2021-06-26T06:56:40.000Z</time>
      </trkpt>
      <trkpt lat="45.24015" lon="5.77559">
        <ele>1340.4000244141</ele>
        <time>2021-06-26T06:56:44.000Z</time>
      </trkpt>
      <trkpt lat="45.24013" lon="5.77558">
        <ele>1340.4000244141</ele>
        <time>2021-06-26T06:56:46.000Z</time>
      </trkpt>
      <trkpt lat="45.24011" lon="5.77557">
        <ele>1340.8000488281</ele>
        <time>2021-06-26T06:56:48.000Z</time>
      </trkpt>
      <trkpt lat="45.24007" lon="5.77554">
        <ele>1341.1999511719</ele>
        <time>2021-06-26T06:56:52.000Z</time>
      </trkpt>
      <trkpt lat="45.24002" lon="5.77548">
        <ele>1341.8000488281</ele>
        <time>2021-06-26T06:56:57.000Z</time>
      </trkpt>
      <trkpt lat="45.23999" lon="5.77544">
        <ele>1342</ele>
        <time>2021-06-26T06:56:59.000Z</time>
      </trkpt>
      <trkpt lat="45.23998" lon="5.77543">
        <ele>1342.5999755859</ele>
        <time>2021-06-26T06:57:00.000Z</time>
      </trkpt>
      <trkpt lat="45.23991" lon="5.77538">
        <ele>1343.1999511719</ele>
        <time>2021-06-26T06:57:04.000Z</time>
      </trkpt>
      <trkpt lat="45.23984" lon="5.77532">
        <ele>1344</ele>
        <time>2021-06-26T06:57:08.000Z</time>
      </trkpt>
      <trkpt lat="45.23983" lon="5.77528">
        <ele>1344.4000244141</ele>
        <time>2021-06-26T06:57:10.000Z</time>
      </trkpt>
      <trkpt lat="45.23981" lon="5.77523">
        <ele>1344</ele>
        <time>2021-06-26T06:57:12.000Z</time>
      </trkpt>
      <trkpt lat="45.2398" lon="5.77519">
        <ele>1343.1999511719</ele>
        <time>2021-06-26T06:57:14.000Z</time>
      </trkpt>
      <trkpt lat="45.23977" lon="5.77516">
        <ele>1342.8000488281</ele>
        <time>2021-06-26T06:57:16.000Z</time>
      </trkpt>
      <trkpt lat="45.2397" lon="5.77502">
        <ele>1342.1999511719</ele>
        <time>2021-06-26T06:57:22.000Z</time>
      </trkpt>
      <trkpt lat="45.23966" lon="5.77497">
        <ele>1341.8000488281</ele>
        <time>2021-06-26T06:57:25.000Z</time>
      </trkpt>
      <trkpt lat="45.23964" lon="5.77496">
        <ele>1341.5999755859</ele>
        <time>2021-06-26T06:57:26.000Z</time>
      </trkpt>
      <trkpt lat="45.23962" lon="5.77493">
        <ele>1341.5999755859</ele>
        <time>2021-06-26T06:57:28.000Z</time>
      </trkpt>
      <trkpt lat="45.23958" lon="5.77484">
        <ele>1341.4000244141</ele>
        <time>2021-06-26T06:57:33.000Z</time>
      </trkpt>
      <trkpt lat="45.23952" lon="5.77471">
        <ele>1341.1999511719</ele>
        <time>2021-06-26T06:57:38.000Z</time>
      </trkpt>
      <trkpt lat="45.23951" lon="5.7747">
        <ele>1341.1999511719</ele>
        <time>2021-06-26T06:57:39.000Z</time>
      </trkpt>
      <trkpt lat="45.23947" lon="5.77465">
        <ele>1340.8000488281</ele>
        <time>2021-06-26T06:57:42.000Z</time>
      </trkpt>
      <trkpt lat="45.23945" lon="5.77456">
        <ele>1340.8000488281</ele>
        <time>2021-06-26T06:57:46.000Z</time>
      </trkpt>
      <trkpt lat="45.23945" lon="5.77454">
        <ele>1340.5999755859</ele>
        <time>2021-06-26T06:57:47.000Z</time>
      </trkpt>
      <trkpt lat="45.23943" lon="5.77448">
        <ele>1339.8000488281</ele>
        <time>2021-06-26T06:57:50.000Z</time>
      </trkpt>
      <trkpt lat="45.23942" lon="5.77446">
        <ele>1339</ele>
        <time>2021-06-26T06:57:51.000Z</time>
      </trkpt>
      <trkpt lat="45.23942" lon="5.77445">
        <ele>1339</ele>
        <time>2021-06-26T06:57:52.000Z</time>
      </trkpt>
      <trkpt lat="45.23941" lon="5.77443">
        <ele>1338</ele>
        <time>2021-06-26T06:57:54.000Z</time>
      </trkpt>
      <trkpt lat="45.2394" lon="5.77442">
        <ele>1337.8000488281</ele>
        <time>2021-06-26T06:57:56.000Z</time>
      </trkpt>
      <trkpt lat="45.23939" lon="5.77441">
        <ele>1337.8000488281</ele>
        <time>2021-06-26T06:57:57.000Z</time>
      </trkpt>
      <trkpt lat="45.23939" lon="5.77437">
        <ele>1337.5999755859</ele>
        <time>2021-06-26T06:58:00.000Z</time>
      </trkpt>
      <trkpt lat="45.23938" lon="5.77435">
        <ele>1337.4000244141</ele>
        <time>2021-06-26T06:58:01.000Z</time>
      </trkpt>
      <trkpt lat="45.23937" lon="5.77432">
        <ele>1336.8000488281</ele>
        <time>2021-06-26T06:58:02.000Z</time>
      </trkpt>
      <trkpt lat="45.23936" lon="5.7743">
        <ele>1336.1999511719</ele>
        <time>2021-06-26T06:58:03.000Z</time>
      </trkpt>
      <trkpt lat="45.23936" lon="5.77428">
        <ele>1336.1999511719</ele>
        <time>2021-06-26T06:58:04.000Z</time>
      </trkpt>
      <trkpt lat="45.23935" lon="5.77426">
        <ele>1335.5999755859</ele>
        <time>2021-06-26T06:58:05.000Z</time>
      </trkpt>
      <trkpt lat="45.23934" lon="5.77422">
        <ele>1334.8000488281</ele>
        <time>2021-06-26T06:58:08.000Z</time>
      </trkpt>
      <trkpt lat="45.23934" lon="5.77421">
        <ele>1334.4000244141</ele>
        <time>2021-06-26T06:58:10.000Z</time>
      </trkpt>
      <trkpt lat="45.23934" lon="5.7742">
        <ele>1334.4000244141</ele>
        <time>2021-06-26T06:58:11.000Z</time>
      </trkpt>
      <trkpt lat="45.23933" lon="5.77416">
        <ele>1334</ele>
        <time>2021-06-26T06:58:14.000Z</time>
      </trkpt>
      <trkpt lat="45.23931" lon="5.77414">
        <ele>1334</ele>
        <time>2021-06-26T06:58:16.000Z</time>
      </trkpt>
      <trkpt lat="45.23929" lon="5.77412">
        <ele>1334</ele>
        <time>2021-06-26T06:58:18.000Z</time>
      </trkpt>
      <trkpt lat="45.23927" lon="5.7741">
        <ele>1333.8000488281</ele>
        <time>2021-06-26T06:58:20.000Z</time>
      </trkpt>
      <trkpt lat="45.23924" lon="5.7741">
        <ele>1333.4000244141</ele>
        <time>2021-06-26T06:58:23.000Z</time>
      </trkpt>
      <trkpt lat="45.23923" lon="5.77409">
        <ele>1333.1999511719</ele>
        <time>2021-06-26T06:58:24.000Z</time>
      </trkpt>
      <trkpt lat="45.23923" lon="5.77407">
        <ele>1332</ele>
        <time>2021-06-26T06:58:25.000Z</time>
      </trkpt>
      <trkpt lat="45.23922" lon="5.77406">
        <ele>1332</ele>
        <time>2021-06-26T06:58:26.000Z</time>
      </trkpt>
      <trkpt lat="45.23914" lon="5.77402">
        <ele>1331.5999755859</ele>
        <time>2021-06-26T06:58:32.000Z</time>
      </trkpt>
      <trkpt lat="45.23913" lon="5.774">
        <ele>1331.4000244141</ele>
        <time>2021-06-26T06:58:33.000Z</time>
      </trkpt>
      <trkpt lat="45.23911" lon="5.77396">
        <ele>1330.8000488281</ele>
        <time>2021-06-26T06:58:35.000Z</time>
      </trkpt>
      <trkpt lat="45.2391" lon="5.77395">
        <ele>1330.1999511719</ele>
        <time>2021-06-26T06:58:36.000Z</time>
      </trkpt>
      <trkpt lat="45.23909" lon="5.77393">
        <ele>1329.5999755859</ele>
        <time>2021-06-26T06:58:39.000Z</time>
      </trkpt>
      <trkpt lat="45.23901" lon="5.77384">
        <ele>1330</ele>
        <time>2021-06-26T06:58:43.000Z</time>
      </trkpt>
      <trkpt lat="45.23896" lon="5.77381">
        <ele>1330</ele>
        <time>2021-06-26T06:58:45.000Z</time>
      </trkpt>
      <trkpt lat="45.23894" lon="5.7738">
        <ele>1330.1999511719</ele>
        <time>2021-06-26T06:58:46.000Z</time>
      </trkpt>
      <trkpt lat="45.23894" lon="5.77379">
        <ele>1330.1999511719</ele>
        <time>2021-06-26T06:58:47.000Z</time>
      </trkpt>
      <trkpt lat="45.23893" lon="5.77379">
        <ele>1330.8000488281</ele>
        <time>2021-06-26T06:58:48.000Z</time>
      </trkpt>
      <trkpt lat="45.23893" lon="5.77378">
        <ele>1331.4000244141</ele>
        <time>2021-06-26T06:58:49.000Z</time>
      </trkpt>
      <trkpt lat="45.23893" lon="5.77376">
        <ele>1332</ele>
        <time>2021-06-26T06:58:50.000Z</time>
      </trkpt>
      <trkpt lat="45.23892" lon="5.77372">
        <ele>1332.5999755859</ele>
        <time>2021-06-26T06:58:52.000Z</time>
      </trkpt>
      <trkpt lat="45.23889" lon="5.77368">
        <ele>1332.5999755859</ele>
        <time>2021-06-26T06:58:54.000Z</time>
      </trkpt>
      <trkpt lat="45.23889" lon="5.77368">
        <ele>1333</ele>
        <time>2021-06-26T06:58:55.000Z</time>
      </trkpt>
      <trkpt lat="45.23887" lon="5.77366">
        <ele>1334.1999511719</ele>
        <time>2021-06-26T06:58:58.000Z</time>
      </trkpt>
      <trkpt lat="45.23886" lon="5.77364">
        <ele>1334.4000244141</ele>
        <time>2021-06-26T06:58:59.000Z</time>
      </trkpt>
      <trkpt lat="45.23885" lon="5.77362">
        <ele>1334.8000488281</ele>
        <time>2021-06-26T06:59:00.000Z</time>
      </trkpt>
      <trkpt lat="45.23884" lon="5.77358">
        <ele>1335.1999511719</ele>
        <time>2021-06-26T06:59:02.000Z</time>
      </trkpt>
      <trkpt lat="45.23883" lon="5.77353">
        <ele>1335.1999511719</ele>
        <time>2021-06-26T06:59:04.000Z</time>
      </trkpt>
      <trkpt lat="45.23882" lon="5.77349">
        <ele>1334</ele>
        <time>2021-06-26T06:59:08.000Z</time>
      </trkpt>
      <trkpt lat="45.23882" lon="5.77346">
        <ele>1333.5999755859</ele>
        <time>2021-06-26T06:59:10.000Z</time>
      </trkpt>
      <trkpt lat="45.23882" lon="5.77342">
        <ele>1332.8000488281</ele>
        <time>2021-06-26T06:59:12.000Z</time>
      </trkpt>
      <trkpt lat="45.23882" lon="5.77342">
        <ele>1331.4000244141</ele>
        <time>2021-06-26T06:59:16.000Z</time>
      </trkpt>
      <trkpt lat="45.2388" lon="5.7734">
        <ele>1330.8000488281</ele>
        <time>2021-06-26T06:59:20.000Z</time>
      </trkpt>
      <trkpt lat="45.23878" lon="5.77339">
        <ele>1330.4000244141</ele>
        <time>2021-06-26T06:59:22.000Z</time>
      </trkpt>
      <trkpt lat="45.23878" lon="5.77339">
        <ele>1330</ele>
        <time>2021-06-26T06:59:23.000Z</time>
      </trkpt>
      <trkpt lat="45.23875" lon="5.77339">
        <ele>1329.8000488281</ele>
        <time>2021-06-26T06:59:27.000Z</time>
      </trkpt>
      <trkpt lat="45.23873" lon="5.77338">
        <ele>1329.5999755859</ele>
        <time>2021-06-26T06:59:29.000Z</time>
      </trkpt>
      <trkpt lat="45.23872" lon="5.77337">
        <ele>1329</ele>
        <time>2021-06-26T06:59:30.000Z</time>
      </trkpt>
      <trkpt lat="45.23871" lon="5.77337">
        <ele>1328.1999511719</ele>
        <time>2021-06-26T06:59:31.000Z</time>
      </trkpt>
      <trkpt lat="45.23866" lon="5.77334">
        <ele>1327.4000244141</ele>
        <time>2021-06-26T06:59:34.000Z</time>
      </trkpt>
      <trkpt lat="45.23865" lon="5.77333">
        <ele>1326.4000244141</ele>
        <time>2021-06-26T06:59:35.000Z</time>
      </trkpt>
      <trkpt lat="45.23863" lon="5.77331">
        <ele>1326</ele>
        <time>2021-06-26T06:59:36.000Z</time>
      </trkpt>
      <trkpt lat="45.23858" lon="5.77325">
        <ele>1325.4000244141</ele>
        <time>2021-06-26T06:59:40.000Z</time>
      </trkpt>
      <trkpt lat="45.23857" lon="5.77324">
        <ele>1325.1999511719</ele>
        <time>2021-06-26T06:59:41.000Z</time>
      </trkpt>
      <trkpt lat="45.23855" lon="5.77322">
        <ele>1324.5999755859</ele>
        <time>2021-06-26T06:59:42.000Z</time>
      </trkpt>
      <trkpt lat="45.23853" lon="5.7732">
        <ele>1324.5999755859</ele>
        <time>2021-06-26T06:59:43.000Z</time>
      </trkpt>
      <trkpt lat="45.23852" lon="5.77318">
        <ele>1324.1999511719</ele>
        <time>2021-06-26T06:59:44.000Z</time>
      </trkpt>
      <trkpt lat="45.2385" lon="5.77312">
        <ele>1324.1999511719</ele>
        <time>2021-06-26T06:59:46.000Z</time>
      </trkpt>
      <trkpt lat="45.23849" lon="5.7731">
        <ele>1324.1999511719</ele>
        <time>2021-06-26T06:59:47.000Z</time>
      </trkpt>
      <trkpt lat="45.23844" lon="5.77302">
        <ele>1323.5999755859</ele>
        <time>2021-06-26T06:59:51.000Z</time>
      </trkpt>
      <trkpt lat="45.23838" lon="5.77295">
        <ele>1324.4000244141</ele>
        <time>2021-06-26T06:59:57.000Z</time>
      </trkpt>
      <trkpt lat="45.23837" lon="5.77294">
        <ele>1324.4000244141</ele>
        <time>2021-06-26T06:59:58.000Z</time>
      </trkpt>
      <trkpt lat="45.23834" lon="5.77292">
        <ele>1324.4000244141</ele>
        <time>2021-06-26T07:00:01.000Z</time>
      </trkpt>
      <trkpt lat="45.23833" lon="5.77286">
        <ele>1324</ele>
        <time>2021-06-26T07:00:04.000Z</time>
      </trkpt>
      <trkpt lat="45.23832" lon="5.77278">
        <ele>1323.8000488281</ele>
        <time>2021-06-26T07:00:07.000Z</time>
      </trkpt>
      <trkpt lat="45.23831" lon="5.77275">
        <ele>1323.1999511719</ele>
        <time>2021-06-26T07:00:08.000Z</time>
      </trkpt>
      <trkpt lat="45.2383" lon="5.77269">
        <ele>1323.1999511719</ele>
        <time>2021-06-26T07:00:10.000Z</time>
      </trkpt>
      <trkpt lat="45.23823" lon="5.7726">
        <ele>1322.1999511719</ele>
        <time>2021-06-26T07:00:14.000Z</time>
      </trkpt>
      <trkpt lat="45.23817" lon="5.77253">
        <ele>1322.8000488281</ele>
        <time>2021-06-26T07:00:17.000Z</time>
      </trkpt>
      <trkpt lat="45.23813" lon="5.77249">
        <ele>1322.8000488281</ele>
        <time>2021-06-26T07:00:19.000Z</time>
      </trkpt>
      <trkpt lat="45.23811" lon="5.77247">
        <ele>1322.8000488281</ele>
        <time>2021-06-26T07:00:21.000Z</time>
      </trkpt>
      <trkpt lat="45.23808" lon="5.77243">
        <ele>1322.4000244141</ele>
        <time>2021-06-26T07:00:23.000Z</time>
      </trkpt>
      <trkpt lat="45.23805" lon="5.77238">
        <ele>1322.8000488281</ele>
        <time>2021-06-26T07:00:25.000Z</time>
      </trkpt>
      <trkpt lat="45.23803" lon="5.77232">
        <ele>1322.5999755859</ele>
        <time>2021-06-26T07:00:27.000Z</time>
      </trkpt>
      <trkpt lat="45.23802" lon="5.77227">
        <ele>1322.4000244141</ele>
        <time>2021-06-26T07:00:29.000Z</time>
      </trkpt>
      <trkpt lat="45.23794" lon="5.77212">
        <ele>1322.8000488281</ele>
        <time>2021-06-26T07:00:36.000Z</time>
      </trkpt>
      <trkpt lat="45.23792" lon="5.77207">
        <ele>1322.8000488281</ele>
        <time>2021-06-26T07:00:39.000Z</time>
      </trkpt>
      <trkpt lat="45.2379" lon="5.772">
        <ele>1323.5999755859</ele>
        <time>2021-06-26T07:00:42.000Z</time>
      </trkpt>
      <trkpt lat="45.23785" lon="5.77192">
        <ele>1323.8000488281</ele>
        <time>2021-06-26T07:00:45.000Z</time>
      </trkpt>
      <trkpt lat="45.23779" lon="5.77187">
        <ele>1324.5999755859</ele>
        <time>2021-06-26T07:00:47.000Z</time>
      </trkpt>
      <trkpt lat="45.23777" lon="5.77185">
        <ele>1325</ele>
        <time>2021-06-26T07:00:49.000Z</time>
      </trkpt>
      <trkpt lat="45.23777" lon="5.77185">
        <ele>1325.8000488281</ele>
        <time>2021-06-26T07:00:51.000Z</time>
      </trkpt>
      <trkpt lat="45.23776" lon="5.77185">
        <ele>1325.8000488281</ele>
        <time>2021-06-26T07:00:52.000Z</time>
      </trkpt>
      <trkpt lat="45.23776" lon="5.77185">
        <ele>1325.8000488281</ele>
        <time>2021-06-26T07:00:53.000Z</time>
      </trkpt>
      <trkpt lat="45.23774" lon="5.77183">
        <ele>1326.8000488281</ele>
        <time>2021-06-26T07:00:55.000Z</time>
      </trkpt>
      <trkpt lat="45.2377" lon="5.7718">
        <ele>1327.4000244141</ele>
        <time>2021-06-26T07:00:58.000Z</time>
      </trkpt>
      <trkpt lat="45.23768" lon="5.77175">
        <ele>1328.1999511719</ele>
        <time>2021-06-26T07:01:01.000Z</time>
      </trkpt>
      <trkpt lat="45.23767" lon="5.77174">
        <ele>1328.5999755859</ele>
        <time>2021-06-26T07:01:03.000Z</time>
      </trkpt>
      <trkpt lat="45.23766" lon="5.77173">
        <ele>1328.5999755859</ele>
        <time>2021-06-26T07:01:04.000Z</time>
      </trkpt>
      <trkpt lat="45.23762" lon="5.77171">
        <ele>1329.8000488281</ele>
        <time>2021-06-26T07:01:07.000Z</time>
      </trkpt>
      <trkpt lat="45.23759" lon="5.77169">
        <ele>1330.4000244141</ele>
        <time>2021-06-26T07:01:09.000Z</time>
      </trkpt>
      <trkpt lat="45.23757" lon="5.77167">
        <ele>1330.5999755859</ele>
        <time>2021-06-26T07:01:10.000Z</time>
      </trkpt>
      <trkpt lat="45.23756" lon="5.77163">
        <ele>1331.4000244141</ele>
        <time>2021-06-26T07:01:12.000Z</time>
      </trkpt>
      <trkpt lat="45.23753" lon="5.7716">
        <ele>1332</ele>
        <time>2021-06-26T07:01:14.000Z</time>
      </trkpt>
      <trkpt lat="45.23751" lon="5.77157">
        <ele>1332</ele>
        <time>2021-06-26T07:01:16.000Z</time>
      </trkpt>
      <trkpt lat="45.23749" lon="5.77156">
        <ele>1332.8000488281</ele>
        <time>2021-06-26T07:01:17.000Z</time>
      </trkpt>
      <trkpt lat="45.23748" lon="5.77152">
        <ele>1332.8000488281</ele>
        <time>2021-06-26T07:01:19.000Z</time>
      </trkpt>
      <trkpt lat="45.23747" lon="5.77149">
        <ele>1333</ele>
        <time>2021-06-26T07:01:21.000Z</time>
      </trkpt>
      <trkpt lat="45.23742" lon="5.77137">
        <ele>1333.8000488281</ele>
        <time>2021-06-26T07:01:28.000Z</time>
      </trkpt>
      <trkpt lat="45.23742" lon="5.77135">
        <ele>1334</ele>
        <time>2021-06-26T07:01:29.000Z</time>
      </trkpt>
      <trkpt lat="45.23741" lon="5.77134">
        <ele>1334.1999511719</ele>
        <time>2021-06-26T07:01:30.000Z</time>
      </trkpt>
      <trkpt lat="45.23735" lon="5.77128">
        <ele>1335</ele>
        <time>2021-06-26T07:01:34.000Z</time>
      </trkpt>
      <trkpt lat="45.23732" lon="5.77126">
        <ele>1335.4000244141</ele>
        <time>2021-06-26T07:01:36.000Z</time>
      </trkpt>
      <trkpt lat="45.2373" lon="5.77124">
        <ele>1335.8000488281</ele>
        <time>2021-06-26T07:01:38.000Z</time>
      </trkpt>
      <trkpt lat="45.2373" lon="5.77124">
        <ele>1335.8000488281</ele>
        <time>2021-06-26T07:01:39.000Z</time>
      </trkpt>
      <trkpt lat="45.23729" lon="5.77123">
        <ele>1335.8000488281</ele>
        <time>2021-06-26T07:01:40.000Z</time>
      </trkpt>
      <trkpt lat="45.23729" lon="5.77123">
        <ele>1336.5999755859</ele>
        <time>2021-06-26T07:01:41.000Z</time>
      </trkpt>
      <trkpt lat="45.23728" lon="5.77123">
        <ele>1336.8000488281</ele>
        <time>2021-06-26T07:01:42.000Z</time>
      </trkpt>
      <trkpt lat="45.23724" lon="5.77122">
        <ele>1337.8000488281</ele>
        <time>2021-06-26T07:01:45.000Z</time>
      </trkpt>
      <trkpt lat="45.23723" lon="5.77121">
        <ele>1337.8000488281</ele>
        <time>2021-06-26T07:01:46.000Z</time>
      </trkpt>
      <trkpt lat="45.2372" lon="5.77116">
        <ele>1338</ele>
        <time>2021-06-26T07:01:49.000Z</time>
      </trkpt>
      <trkpt lat="45.23718" lon="5.77113">
        <ele>1338.4000244141</ele>
        <time>2021-06-26T07:01:52.000Z</time>
      </trkpt>
      <trkpt lat="45.23713" lon="5.77102">
        <ele>1337.5999755859</ele>
        <time>2021-06-26T07:01:58.000Z</time>
      </trkpt>
      <trkpt lat="45.23709" lon="5.77093">
        <ele>1337.1999511719</ele>
        <time>2021-06-26T07:02:01.000Z</time>
      </trkpt>
      <trkpt lat="45.23702" lon="5.77083">
        <ele>1337.4000244141</ele>
        <time>2021-06-26T07:02:05.000Z</time>
      </trkpt>
      <trkpt lat="45.23696" lon="5.77074">
        <ele>1337.5999755859</ele>
        <time>2021-06-26T07:02:10.000Z</time>
      </trkpt>
      <trkpt lat="45.23692" lon="5.7707">
        <ele>1338.8000488281</ele>
        <time>2021-06-26T07:02:13.000Z</time>
      </trkpt>
      <trkpt lat="45.23691" lon="5.77069">
        <ele>1338.8000488281</ele>
        <time>2021-06-26T07:02:14.000Z</time>
      </trkpt>
      <trkpt lat="45.23685" lon="5.77057">
        <ele>1340</ele>
        <time>2021-06-26T07:02:20.000Z</time>
      </trkpt>
      <trkpt lat="45.2368" lon="5.7705">
        <ele>1340.5999755859</ele>
        <time>2021-06-26T07:02:23.000Z</time>
      </trkpt>
      <trkpt lat="45.23678" lon="5.77048">
        <ele>1341</ele>
        <time>2021-06-26T07:02:24.000Z</time>
      </trkpt>
      <trkpt lat="45.23676" lon="5.77048">
        <ele>1341</ele>
        <time>2021-06-26T07:02:26.000Z</time>
      </trkpt>
      <trkpt lat="45.23674" lon="5.77047">
        <ele>1341.5999755859</ele>
        <time>2021-06-26T07:02:27.000Z</time>
      </trkpt>
      <trkpt lat="45.23669" lon="5.77041">
        <ele>1342</ele>
        <time>2021-06-26T07:02:30.000Z</time>
      </trkpt>
      <trkpt lat="45.23667" lon="5.77034">
        <ele>1342.8000488281</ele>
        <time>2021-06-26T07:02:33.000Z</time>
      </trkpt>
      <trkpt lat="45.23666" lon="5.77032">
        <ele>1342.5999755859</ele>
        <time>2021-06-26T07:02:34.000Z</time>
      </trkpt>
      <trkpt lat="45.23664" lon="5.77015">
        <ele>1341.8000488281</ele>
        <time>2021-06-26T07:02:40.000Z</time>
      </trkpt>
      <trkpt lat="45.23662" lon="5.77006">
        <ele>1341</ele>
        <time>2021-06-26T07:02:44.000Z</time>
      </trkpt>
      <trkpt lat="45.2366" lon="5.77001">
        <ele>1340.8000488281</ele>
        <time>2021-06-26T07:02:46.000Z</time>
      </trkpt>
      <trkpt lat="45.23659" lon="5.76999">
        <ele>1340.8000488281</ele>
        <time>2021-06-26T07:02:47.000Z</time>
      </trkpt>
      <trkpt lat="45.23656" lon="5.76989">
        <ele>1340.8000488281</ele>
        <time>2021-06-26T07:02:51.000Z</time>
      </trkpt>
      <trkpt lat="45.23652" lon="5.76984">
        <ele>1340.8000488281</ele>
        <time>2021-06-26T07:02:54.000Z</time>
      </trkpt>
      <trkpt lat="45.23651" lon="5.76984">
        <ele>1341.1999511719</ele>
        <time>2021-06-26T07:02:55.000Z</time>
      </trkpt>
      <trkpt lat="45.2365" lon="5.76982">
        <ele>1341.1999511719</ele>
        <time>2021-06-26T07:02:57.000Z</time>
      </trkpt>
      <trkpt lat="45.2365" lon="5.76981">
        <ele>1341.1999511719</ele>
        <time>2021-06-26T07:02:58.000Z</time>
      </trkpt>
      <trkpt lat="45.23648" lon="5.76977">
        <ele>1341.4000244141</ele>
        <time>2021-06-26T07:03:00.000Z</time>
      </trkpt>
      <trkpt lat="45.23645" lon="5.76971">
        <ele>1341.4000244141</ele>
        <time>2021-06-26T07:03:03.000Z</time>
      </trkpt>
      <trkpt lat="45.23644" lon="5.76965">
        <ele>1341.4000244141</ele>
        <time>2021-06-26T07:03:06.000Z</time>
      </trkpt>
      <trkpt lat="45.23638" lon="5.76953">
        <ele>1340.4000244141</ele>
        <time>2021-06-26T07:03:11.000Z</time>
      </trkpt>
      <trkpt lat="45.23636" lon="5.7695">
        <ele>1340.1999511719</ele>
        <time>2021-06-26T07:03:13.000Z</time>
      </trkpt>
      <trkpt lat="45.23634" lon="5.76946">
        <ele>1340.1999511719</ele>
        <time>2021-06-26T07:03:15.000Z</time>
      </trkpt>
      <trkpt lat="45.23635" lon="5.76943">
        <ele>1340</ele>
        <time>2021-06-26T07:03:17.000Z</time>
      </trkpt>
      <trkpt lat="45.23635" lon="5.76942">
        <ele>1339.5999755859</ele>
        <time>2021-06-26T07:03:18.000Z</time>
      </trkpt>
      <trkpt lat="45.23635" lon="5.76938">
        <ele>1338.1999511719</ele>
        <time>2021-06-26T07:03:20.000Z</time>
      </trkpt>
      <trkpt lat="45.23636" lon="5.76936">
        <ele>1338</ele>
        <time>2021-06-26T07:03:21.000Z</time>
      </trkpt>
      <trkpt lat="45.23636" lon="5.7693">
        <ele>1337.5999755859</ele>
        <time>2021-06-26T07:03:23.000Z</time>
      </trkpt>
      <trkpt lat="45.23635" lon="5.76927">
        <ele>1337.1999511719</ele>
        <time>2021-06-26T07:03:24.000Z</time>
      </trkpt>
      <trkpt lat="45.2363" lon="5.76918">
        <ele>1337.1999511719</ele>
        <time>2021-06-26T07:03:29.000Z</time>
      </trkpt>
      <trkpt lat="45.23628" lon="5.76915">
        <ele>1337.4000244141</ele>
        <time>2021-06-26T07:03:30.000Z</time>
      </trkpt>
      <trkpt lat="45.23627" lon="5.76905">
        <ele>1337.5999755859</ele>
        <time>2021-06-26T07:03:33.000Z</time>
      </trkpt>
      <trkpt lat="45.23627" lon="5.76899">
        <ele>1338</ele>
        <time>2021-06-26T07:03:35.000Z</time>
      </trkpt>
      <trkpt lat="45.23626" lon="5.76897">
        <ele>1338</ele>
        <time>2021-06-26T07:03:36.000Z</time>
      </trkpt>
      <trkpt lat="45.23626" lon="5.76896">
        <ele>1338.4000244141</ele>
        <time>2021-06-26T07:03:37.000Z</time>
      </trkpt>
      <trkpt lat="45.23624" lon="5.76891">
        <ele>1338.5999755859</ele>
        <time>2021-06-26T07:03:41.000Z</time>
      </trkpt>
      <trkpt lat="45.23624" lon="5.76889">
        <ele>1338.4000244141</ele>
        <time>2021-06-26T07:03:42.000Z</time>
      </trkpt>
      <trkpt lat="45.23624" lon="5.76888">
        <ele>1338.4000244141</ele>
        <time>2021-06-26T07:03:43.000Z</time>
      </trkpt>
      <trkpt lat="45.23622" lon="5.76883">
        <ele>1338.5999755859</ele>
        <time>2021-06-26T07:03:45.000Z</time>
      </trkpt>
      <trkpt lat="45.23618" lon="5.76878">
        <ele>1338.5999755859</ele>
        <time>2021-06-26T07:03:47.000Z</time>
      </trkpt>
      <trkpt lat="45.23614" lon="5.76866">
        <ele>1338.8000488281</ele>
        <time>2021-06-26T07:03:52.000Z</time>
      </trkpt>
      <trkpt lat="45.23613" lon="5.76855">
        <ele>1338.4000244141</ele>
        <time>2021-06-26T07:03:57.000Z</time>
      </trkpt>
      <trkpt lat="45.23608" lon="5.76848">
        <ele>1338.1999511719</ele>
        <time>2021-06-26T07:04:00.000Z</time>
      </trkpt>
      <trkpt lat="45.23606" lon="5.76845">
        <ele>1338.1999511719</ele>
        <time>2021-06-26T07:04:01.000Z</time>
      </trkpt>
      <trkpt lat="45.23605" lon="5.76834">
        <ele>1338.1999511719</ele>
        <time>2021-06-26T07:04:05.000Z</time>
      </trkpt>
      <trkpt lat="45.23604" lon="5.76829">
        <ele>1338.4000244141</ele>
        <time>2021-06-26T07:04:07.000Z</time>
      </trkpt>
      <trkpt lat="45.23603" lon="5.76825">
        <ele>1337.8000488281</ele>
        <time>2021-06-26T07:04:09.000Z</time>
      </trkpt>
      <trkpt lat="45.23603" lon="5.76821">
        <ele>1337.4000244141</ele>
        <time>2021-06-26T07:04:11.000Z</time>
      </trkpt>
      <trkpt lat="45.23603" lon="5.76819">
        <ele>1337.4000244141</ele>
        <time>2021-06-26T07:04:12.000Z</time>
      </trkpt>
      <trkpt lat="45.23602" lon="5.76817">
        <ele>1337.4000244141</ele>
        <time>2021-06-26T07:04:13.000Z</time>
      </trkpt>
      <trkpt lat="45.23602" lon="5.76814">
        <ele>1337.4000244141</ele>
        <time>2021-06-26T07:04:14.000Z</time>
      </trkpt>
      <trkpt lat="45.23601" lon="5.76808">
        <ele>1336.1999511719</ele>
        <time>2021-06-26T07:04:16.000Z</time>
      </trkpt>
      <trkpt lat="45.23601" lon="5.76805">
        <ele>1335.5999755859</ele>
        <time>2021-06-26T07:04:17.000Z</time>
      </trkpt>
      <trkpt lat="45.23601" lon="5.76792">
        <ele>1335</ele>
        <time>2021-06-26T07:04:23.000Z</time>
      </trkpt>
      <trkpt lat="45.23597" lon="5.7679">
        <ele>1334.5999755859</ele>
        <time>2021-06-26T07:04:25.000Z</time>
      </trkpt>
      <trkpt lat="45.23591" lon="5.76787">
        <ele>1334</ele>
        <time>2021-06-26T07:04:29.000Z</time>
      </trkpt>
      <trkpt lat="45.23589" lon="5.76786">
        <ele>1333.5999755859</ele>
        <time>2021-06-26T07:04:30.000Z</time>
      </trkpt>
      <trkpt lat="45.23588" lon="5.76784">
        <ele>1333.5999755859</ele>
        <time>2021-06-26T07:04:31.000Z</time>
      </trkpt>
      <trkpt lat="45.23583" lon="5.76774">
        <ele>1333.5999755859</ele>
        <time>2021-06-26T07:04:34.000Z</time>
      </trkpt>
      <trkpt lat="45.23582" lon="5.76769">
        <ele>1333.1999511719</ele>
        <time>2021-06-26T07:04:36.000Z</time>
      </trkpt>
      <trkpt lat="45.23581" lon="5.76767">
        <ele>1333</ele>
        <time>2021-06-26T07:04:38.000Z</time>
      </trkpt>
      <trkpt lat="45.23584" lon="5.76769">
        <ele>1333</ele>
        <time>2021-06-26T07:04:40.000Z</time>
      </trkpt>
      <trkpt lat="45.23587" lon="5.76774">
        <ele>1333</ele>
        <time>2021-06-26T07:04:43.000Z</time>
      </trkpt>
      <trkpt lat="45.23588" lon="5.76778">
        <ele>1333</ele>
        <time>2021-06-26T07:04:46.000Z</time>
      </trkpt>
      <trkpt lat="45.23588" lon="5.7678">
        <ele>1333</ele>
        <time>2021-06-26T07:04:48.000Z</time>
      </trkpt>
      <trkpt lat="45.23588" lon="5.7678">
        <ele>1333</ele>
        <time>2021-06-26T07:04:49.000Z</time>
      </trkpt>
      <trkpt lat="45.23588" lon="5.7678">
        <ele>1333</ele>
        <time>2021-06-26T07:04:51.000Z</time>
      </trkpt>
      <trkpt lat="45.23588" lon="5.7678">
        <ele>1333</ele>
        <time>2021-06-26T07:04:53.000Z</time>
      </trkpt>
      <trkpt lat="45.23588" lon="5.7678">
        <ele>1333.1999511719</ele>
        <time>2021-06-26T07:04:59.000Z</time>
      </trkpt>
      <trkpt lat="45.23588" lon="5.7678">
        <ele>1333.1999511719</ele>
        <time>2021-06-26T07:05:02.000Z</time>
      </trkpt>
      <trkpt lat="45.23588" lon="5.7678">
        <ele>1333</ele>
        <time>2021-06-26T07:05:05.000Z</time>
      </trkpt>
      <trkpt lat="45.23588" lon="5.7678">
        <ele>1333</ele>
        <time>2021-06-26T07:05:07.000Z</time>
      </trkpt>
      <trkpt lat="45.23588" lon="5.7678">
        <ele>1333</ele>
        <time>2021-06-26T07:05:12.000Z</time>
      </trkpt>
      <trkpt lat="45.23588" lon="5.7678">
        <ele>1333</ele>
        <time>2021-06-26T07:05:18.000Z</time>
      </trkpt>
      <trkpt lat="45.23588" lon="5.7678">
        <ele>1333</ele>
        <time>2021-06-26T07:05:22.000Z</time>
      </trkpt>
      <trkpt lat="45.23588" lon="5.76779">
        <ele>1333</ele>
        <time>2021-06-26T07:05:26.000Z</time>
      </trkpt>
      <trkpt lat="45.23587" lon="5.76778">
        <ele>1332.8000488281</ele>
        <time>2021-06-26T07:05:44.000Z</time>
      </trkpt>
      <trkpt lat="45.23587" lon="5.76778">
        <ele>1332.8000488281</ele>
        <time>2021-06-26T07:05:45.000Z</time>
      </trkpt>
      <trkpt lat="45.23582" lon="5.76767">
        <ele>1333</ele>
        <time>2021-06-26T07:06:07.000Z</time>
      </trkpt>
      <trkpt lat="45.2358" lon="5.7676">
        <ele>1333</ele>
        <time>2021-06-26T07:06:09.000Z</time>
      </trkpt>
      <trkpt lat="45.23574" lon="5.76743">
        <ele>1333.1999511719</ele>
        <time>2021-06-26T07:06:14.000Z</time>
      </trkpt>
      <trkpt lat="45.23573" lon="5.76737">
        <ele>1333.4000244141</ele>
        <time>2021-06-26T07:06:16.000Z</time>
      </trkpt>
      <trkpt lat="45.23569" lon="5.76728">
        <ele>1333.4000244141</ele>
        <time>2021-06-26T07:06:19.000Z</time>
      </trkpt>
      <trkpt lat="45.23567" lon="5.76723">
        <ele>1333.5999755859</ele>
        <time>2021-06-26T07:06:21.000Z</time>
      </trkpt>
      <trkpt lat="45.23563" lon="5.76713">
        <ele>1334</ele>
        <time>2021-06-26T07:06:24.000Z</time>
      </trkpt>
      <trkpt lat="45.23558" lon="5.76696">
        <ele>1334.4000244141</ele>
        <time>2021-06-26T07:06:29.000Z</time>
      </trkpt>
      <trkpt lat="45.23552" lon="5.76679">
        <ele>1334.1999511719</ele>
        <time>2021-06-26T07:06:34.000Z</time>
      </trkpt>
      <trkpt lat="45.23549" lon="5.76674">
        <ele>1334.1999511719</ele>
        <time>2021-06-26T07:06:36.000Z</time>
      </trkpt>
      <trkpt lat="45.23539" lon="5.76651">
        <ele>1333.4000244141</ele>
        <time>2021-06-26T07:06:43.000Z</time>
      </trkpt>
      <trkpt lat="45.23537" lon="5.76643">
        <ele>1332.8000488281</ele>
        <time>2021-06-26T07:06:45.000Z</time>
      </trkpt>
      <trkpt lat="45.23531" lon="5.76625">
        <ele>1332.4000244141</ele>
        <time>2021-06-26T07:06:50.000Z</time>
      </trkpt>
      <trkpt lat="45.2353" lon="5.76617">
        <ele>1333</ele>
        <time>2021-06-26T07:06:52.000Z</time>
      </trkpt>
      <trkpt lat="45.2353" lon="5.76596">
        <ele>1333.1999511719</ele>
        <time>2021-06-26T07:06:57.000Z</time>
      </trkpt>
      <trkpt lat="45.2353" lon="5.76592">
        <ele>1333.8000488281</ele>
        <time>2021-06-26T07:06:58.000Z</time>
      </trkpt>
      <trkpt lat="45.23513" lon="5.76473">
        <ele>1346.1999511719</ele>
        <time>2021-06-26T07:07:46.000Z</time>
      </trkpt>
      <trkpt lat="45.23517" lon="5.76479">
        <ele>1347</ele>
        <time>2021-06-26T07:07:47.000Z</time>
      </trkpt>
      <trkpt lat="45.23512" lon="5.76478">
        <ele>1347</ele>
        <time>2021-06-26T07:07:48.000Z</time>
      </trkpt>
      <trkpt lat="45.23513" lon="5.76475">
        <ele>1347.1999511719</ele>
        <time>2021-06-26T07:07:49.000Z</time>
      </trkpt>
      <trkpt lat="45.23512" lon="5.76467">
        <ele>1348.1999511719</ele>
        <time>2021-06-26T07:07:52.000Z</time>
      </trkpt>
      <trkpt lat="45.23514" lon="5.76464">
        <ele>1348.1999511719</ele>
        <time>2021-06-26T07:07:53.000Z</time>
      </trkpt>
      <trkpt lat="45.23514" lon="5.76461">
        <ele>1348.8000488281</ele>
        <time>2021-06-26T07:07:54.000Z</time>
      </trkpt>
      <trkpt lat="45.23511" lon="5.76457">
        <ele>1349</ele>
        <time>2021-06-26T07:07:55.000Z</time>
      </trkpt>
      <trkpt lat="45.23509" lon="5.76455">
        <ele>1349.1999511719</ele>
        <time>2021-06-26T07:07:56.000Z</time>
      </trkpt>
      <trkpt lat="45.23509" lon="5.76452">
        <ele>1349.1999511719</ele>
        <time>2021-06-26T07:07:57.000Z</time>
      </trkpt>
      <trkpt lat="45.23508" lon="5.76449">
        <ele>1349.5999755859</ele>
        <time>2021-06-26T07:07:58.000Z</time>
      </trkpt>
      <trkpt lat="45.23508" lon="5.76447">
        <ele>1349.5999755859</ele>
        <time>2021-06-26T07:07:59.000Z</time>
      </trkpt>
      <trkpt lat="45.23504" lon="5.76442">
        <ele>1350.5999755859</ele>
        <time>2021-06-26T07:08:01.000Z</time>
      </trkpt>
      <trkpt lat="45.23503" lon="5.76439">
        <ele>1350.5999755859</ele>
        <time>2021-06-26T07:08:02.000Z</time>
      </trkpt>
      <trkpt lat="45.235" lon="5.76429">
        <ele>1350.5999755859</ele>
        <time>2021-06-26T07:08:05.000Z</time>
      </trkpt>
      <trkpt lat="45.23493" lon="5.76417">
        <ele>1351.5999755859</ele>
        <time>2021-06-26T07:08:10.000Z</time>
      </trkpt>
      <trkpt lat="45.23492" lon="5.76415">
        <ele>1351.8000488281</ele>
        <time>2021-06-26T07:08:11.000Z</time>
      </trkpt>
      <trkpt lat="45.23491" lon="5.76408">
        <ele>1351.8000488281</ele>
        <time>2021-06-26T07:08:14.000Z</time>
      </trkpt>
      <trkpt lat="45.23493" lon="5.76405">
        <ele>1351.8000488281</ele>
        <time>2021-06-26T07:08:15.000Z</time>
      </trkpt>
      <trkpt lat="45.23496" lon="5.76402">
        <ele>1351.5999755859</ele>
        <time>2021-06-26T07:08:17.000Z</time>
      </trkpt>
      <trkpt lat="45.23498" lon="5.76402">
        <ele>1351.4000244141</ele>
        <time>2021-06-26T07:08:18.000Z</time>
      </trkpt>
      <trkpt lat="45.23499" lon="5.76402">
        <ele>1351.1999511719</ele>
        <time>2021-06-26T07:08:19.000Z</time>
      </trkpt>
      <trkpt lat="45.235" lon="5.76403">
        <ele>1350.8000488281</ele>
        <time>2021-06-26T07:08:20.000Z</time>
      </trkpt>
      <trkpt lat="45.23502" lon="5.76402">
        <ele>1350</ele>
        <time>2021-06-26T07:08:22.000Z</time>
      </trkpt>
      <trkpt lat="45.23504" lon="5.76402">
        <ele>1349.1999511719</ele>
        <time>2021-06-26T07:08:24.000Z</time>
      </trkpt>
      <trkpt lat="45.23506" lon="5.76402">
        <ele>1348.8000488281</ele>
        <time>2021-06-26T07:08:26.000Z</time>
      </trkpt>
      <trkpt lat="45.23506" lon="5.76401">
        <ele>1348</ele>
        <time>2021-06-26T07:08:27.000Z</time>
      </trkpt>
      <trkpt lat="45.23506" lon="5.764">
        <ele>1348</ele>
        <time>2021-06-26T07:08:28.000Z</time>
      </trkpt>
      <trkpt lat="45.23508" lon="5.76398">
        <ele>1347</ele>
        <time>2021-06-26T07:08:30.000Z</time>
      </trkpt>
      <trkpt lat="45.23511" lon="5.76393">
        <ele>1346.4000244141</ele>
        <time>2021-06-26T07:08:33.000Z</time>
      </trkpt>
      <trkpt lat="45.23512" lon="5.76392">
        <ele>1345.8000488281</ele>
        <time>2021-06-26T07:08:34.000Z</time>
      </trkpt>
      <trkpt lat="45.23516" lon="5.7639">
        <ele>1344.5999755859</ele>
        <time>2021-06-26T07:08:36.000Z</time>
      </trkpt>
      <trkpt lat="45.23523" lon="5.76386">
        <ele>1343.5999755859</ele>
        <time>2021-06-26T07:08:40.000Z</time>
      </trkpt>
      <trkpt lat="45.23527" lon="5.76382">
        <ele>1342.4000244141</ele>
        <time>2021-06-26T07:08:42.000Z</time>
      </trkpt>
      <trkpt lat="45.23534" lon="5.76374">
        <ele>1341.4000244141</ele>
        <time>2021-06-26T07:08:46.000Z</time>
      </trkpt>
      <trkpt lat="45.23535" lon="5.76373">
        <ele>1341</ele>
        <time>2021-06-26T07:08:47.000Z</time>
      </trkpt>
      <trkpt lat="45.23537" lon="5.7637">
        <ele>1340.5999755859</ele>
        <time>2021-06-26T07:08:49.000Z</time>
      </trkpt>
      <trkpt lat="45.23537" lon="5.76365">
        <ele>1340.1999511719</ele>
        <time>2021-06-26T07:08:52.000Z</time>
      </trkpt>
      <trkpt lat="45.23535" lon="5.76345">
        <ele>1341.1999511719</ele>
        <time>2021-06-26T07:08:59.000Z</time>
      </trkpt>
      <trkpt lat="45.23536" lon="5.76332">
        <ele>1342</ele>
        <time>2021-06-26T07:09:03.000Z</time>
      </trkpt>
      <trkpt lat="45.23536" lon="5.76328">
        <ele>1342.1999511719</ele>
        <time>2021-06-26T07:09:04.000Z</time>
      </trkpt>
      <trkpt lat="45.23534" lon="5.76316">
        <ele>1343.5999755859</ele>
        <time>2021-06-26T07:09:08.000Z</time>
      </trkpt>
      <trkpt lat="45.23533" lon="5.7631">
        <ele>1343.5999755859</ele>
        <time>2021-06-26T07:09:10.000Z</time>
      </trkpt>
      <trkpt lat="45.23531" lon="5.763">
        <ele>1345</ele>
        <time>2021-06-26T07:09:15.000Z</time>
      </trkpt>
      <trkpt lat="45.23531" lon="5.76293">
        <ele>1345.4000244141</ele>
        <time>2021-06-26T07:09:17.000Z</time>
      </trkpt>
      <trkpt lat="45.2353" lon="5.76281">
        <ele>1346.4000244141</ele>
        <time>2021-06-26T07:09:22.000Z</time>
      </trkpt>
      <trkpt lat="45.23529" lon="5.76272">
        <ele>1346.5999755859</ele>
        <time>2021-06-26T07:09:25.000Z</time>
      </trkpt>
      <trkpt lat="45.23528" lon="5.76268">
        <ele>1346.5999755859</ele>
        <time>2021-06-26T07:09:26.000Z</time>
      </trkpt>
      <trkpt lat="45.23533" lon="5.76259">
        <ele>1346.4000244141</ele>
        <time>2021-06-26T07:09:29.000Z</time>
      </trkpt>
      <trkpt lat="45.23543" lon="5.7625">
        <ele>1345.4000244141</ele>
        <time>2021-06-26T07:09:33.000Z</time>
      </trkpt>
      <trkpt lat="45.23545" lon="5.76248">
        <ele>1345.1999511719</ele>
        <time>2021-06-26T07:09:34.000Z</time>
      </trkpt>
      <trkpt lat="45.23558" lon="5.76234">
        <ele>1344.5999755859</ele>
        <time>2021-06-26T07:09:40.000Z</time>
      </trkpt>
      <trkpt lat="45.23562" lon="5.76228">
        <ele>1344.4000244141</ele>
        <time>2021-06-26T07:09:42.000Z</time>
      </trkpt>
      <trkpt lat="45.23575" lon="5.76211">
        <ele>1344</ele>
        <time>2021-06-26T07:09:49.000Z</time>
      </trkpt>
      <trkpt lat="45.23576" lon="5.76209">
        <ele>1344.1999511719</ele>
        <time>2021-06-26T07:09:50.000Z</time>
      </trkpt>
      <trkpt lat="45.2358" lon="5.76199">
        <ele>1345.4000244141</ele>
        <time>2021-06-26T07:09:56.000Z</time>
      </trkpt>
      <trkpt lat="45.23581" lon="5.76198">
        <ele>1346.4000244141</ele>
        <time>2021-06-26T07:09:58.000Z</time>
      </trkpt>
      <trkpt lat="45.2358" lon="5.76195">
        <ele>1346.5999755859</ele>
        <time>2021-06-26T07:10:00.000Z</time>
      </trkpt>
      <trkpt lat="45.23576" lon="5.76194">
        <ele>1346.5999755859</ele>
        <time>2021-06-26T07:10:02.000Z</time>
      </trkpt>
      <trkpt lat="45.23576" lon="5.76192">
        <ele>1347.4000244141</ele>
        <time>2021-06-26T07:10:04.000Z</time>
      </trkpt>
      <trkpt lat="45.23575" lon="5.76192">
        <ele>1348</ele>
        <time>2021-06-26T07:10:05.000Z</time>
      </trkpt>
      <trkpt lat="45.23575" lon="5.76191">
        <ele>1348.1999511719</ele>
        <time>2021-06-26T07:10:06.000Z</time>
      </trkpt>
      <trkpt lat="45.23574" lon="5.76192">
        <ele>1348.5999755859</ele>
        <time>2021-06-26T07:10:08.000Z</time>
      </trkpt>
      <trkpt lat="45.23573" lon="5.76191">
        <ele>1349</ele>
        <time>2021-06-26T07:10:09.000Z</time>
      </trkpt>
      <trkpt lat="45.23573" lon="5.7619">
        <ele>1349.5999755859</ele>
        <time>2021-06-26T07:10:11.000Z</time>
      </trkpt>
      <trkpt lat="45.23573" lon="5.76191">
        <ele>1350.1999511719</ele>
        <time>2021-06-26T07:10:13.000Z</time>
      </trkpt>
      <trkpt lat="45.2357" lon="5.76191">
        <ele>1350.8000488281</ele>
        <time>2021-06-26T07:10:16.000Z</time>
      </trkpt>
      <trkpt lat="45.2357" lon="5.76191">
        <ele>1351.4000244141</ele>
        <time>2021-06-26T07:10:17.000Z</time>
      </trkpt>
      <trkpt lat="45.2357" lon="5.76188">
        <ele>1351.5999755859</ele>
        <time>2021-06-26T07:10:18.000Z</time>
      </trkpt>
      <trkpt lat="45.2357" lon="5.76181">
        <ele>1353.4000244141</ele>
        <time>2021-06-26T07:10:22.000Z</time>
      </trkpt>
      <trkpt lat="45.2357" lon="5.76181">
        <ele>1353.4000244141</ele>
        <time>2021-06-26T07:10:23.000Z</time>
      </trkpt>
      <trkpt lat="45.23569" lon="5.76182">
        <ele>1353.5999755859</ele>
        <time>2021-06-26T07:10:25.000Z</time>
      </trkpt>
      <trkpt lat="45.23567" lon="5.76184">
        <ele>1354.8000488281</ele>
        <time>2021-06-26T07:10:28.000Z</time>
      </trkpt>
      <trkpt lat="45.23566" lon="5.76183">
        <ele>1355</ele>
        <time>2021-06-26T07:10:30.000Z</time>
      </trkpt>
      <trkpt lat="45.23566" lon="5.76177">
        <ele>1355.8000488281</ele>
        <time>2021-06-26T07:10:33.000Z</time>
      </trkpt>
      <trkpt lat="45.23565" lon="5.76176">
        <ele>1355.8000488281</ele>
        <time>2021-06-26T07:10:34.000Z</time>
      </trkpt>
      <trkpt lat="45.23565" lon="5.76175">
        <ele>1356.4000244141</ele>
        <time>2021-06-26T07:10:35.000Z</time>
      </trkpt>
      <trkpt lat="45.23564" lon="5.76175">
        <ele>1357.5999755859</ele>
        <time>2021-06-26T07:10:36.000Z</time>
      </trkpt>
      <trkpt lat="45.23562" lon="5.76174">
        <ele>1357.5999755859</ele>
        <time>2021-06-26T07:10:38.000Z</time>
      </trkpt>
      <trkpt lat="45.23561" lon="5.76173">
        <ele>1358.1999511719</ele>
        <time>2021-06-26T07:10:40.000Z</time>
      </trkpt>
      <trkpt lat="45.23561" lon="5.76173">
        <ele>1358.5999755859</ele>
        <time>2021-06-26T07:10:41.000Z</time>
      </trkpt>
      <trkpt lat="45.2356" lon="5.76172">
        <ele>1358.5999755859</ele>
        <time>2021-06-26T07:10:42.000Z</time>
      </trkpt>
      <trkpt lat="45.23558" lon="5.76169">
        <ele>1359.8000488281</ele>
        <time>2021-06-26T07:10:45.000Z</time>
      </trkpt>
      <trkpt lat="45.23558" lon="5.76168">
        <ele>1359.8000488281</ele>
        <time>2021-06-26T07:10:46.000Z</time>
      </trkpt>
      <trkpt lat="45.23557" lon="5.76166">
        <ele>1360.4000244141</ele>
        <time>2021-06-26T07:10:49.000Z</time>
      </trkpt>
      <trkpt lat="45.23556" lon="5.76166">
        <ele>1360.8000488281</ele>
        <time>2021-06-26T07:10:50.000Z</time>
      </trkpt>
      <trkpt lat="45.23555" lon="5.76166">
        <ele>1361.4000244141</ele>
        <time>2021-06-26T07:10:51.000Z</time>
      </trkpt>
      <trkpt lat="45.23554" lon="5.76166">
        <ele>1362.4000244141</ele>
        <time>2021-06-26T07:10:52.000Z</time>
      </trkpt>
      <trkpt lat="45.23552" lon="5.76164">
        <ele>1362.4000244141</ele>
        <time>2021-06-26T07:10:54.000Z</time>
      </trkpt>
      <trkpt lat="45.23549" lon="5.76161">
        <ele>1363.5999755859</ele>
        <time>2021-06-26T07:10:57.000Z</time>
      </trkpt>
      <trkpt lat="45.23548" lon="5.7616">
        <ele>1363.5999755859</ele>
        <time>2021-06-26T07:10:58.000Z</time>
      </trkpt>
      <trkpt lat="45.23547" lon="5.76157">
        <ele>1365.1999511719</ele>
        <time>2021-06-26T07:11:00.000Z</time>
      </trkpt>
      <trkpt lat="45.23549" lon="5.76151">
        <ele>1365.1999511719</ele>
        <time>2021-06-26T07:11:03.000Z</time>
      </trkpt>
      <trkpt lat="45.23551" lon="5.76149">
        <ele>1365.1999511719</ele>
        <time>2021-06-26T07:11:04.000Z</time>
      </trkpt>
      <trkpt lat="45.23554" lon="5.76144">
        <ele>1364.5999755859</ele>
        <time>2021-06-26T07:11:10.000Z</time>
      </trkpt>
      <trkpt lat="45.23556" lon="5.76142">
        <ele>1363.4000244141</ele>
        <time>2021-06-26T07:11:13.000Z</time>
      </trkpt>
      <trkpt lat="45.23556" lon="5.76141">
        <ele>1362.4000244141</ele>
        <time>2021-06-26T07:11:14.000Z</time>
      </trkpt>
      <trkpt lat="45.23559" lon="5.76139">
        <ele>1361</ele>
        <time>2021-06-26T07:11:17.000Z</time>
      </trkpt>
      <trkpt lat="45.23559" lon="5.76139">
        <ele>1360.5999755859</ele>
        <time>2021-06-26T07:11:18.000Z</time>
      </trkpt>
      <trkpt lat="45.23554" lon="5.76141">
        <ele>1360.1999511719</ele>
        <time>2021-06-26T07:11:21.000Z</time>
      </trkpt>
      <trkpt lat="45.2355" lon="5.76143">
        <ele>1359.8000488281</ele>
        <time>2021-06-26T07:11:24.000Z</time>
      </trkpt>
      <trkpt lat="45.23547" lon="5.76142">
        <ele>1357.8000488281</ele>
        <time>2021-06-26T07:11:27.000Z</time>
      </trkpt>
      <trkpt lat="45.23545" lon="5.76142">
        <ele>1356.4000244141</ele>
        <time>2021-06-26T07:11:30.000Z</time>
      </trkpt>
      <trkpt lat="45.23543" lon="5.76142">
        <ele>1354.4000244141</ele>
        <time>2021-06-26T07:11:33.000Z</time>
      </trkpt>
      <trkpt lat="45.23542" lon="5.76143">
        <ele>1354.4000244141</ele>
        <time>2021-06-26T07:11:34.000Z</time>
      </trkpt>
      <trkpt lat="45.23542" lon="5.76143">
        <ele>1354</ele>
        <time>2021-06-26T07:11:37.000Z</time>
      </trkpt>
      <trkpt lat="45.23544" lon="5.76141">
        <ele>1353.4000244141</ele>
        <time>2021-06-26T07:11:39.000Z</time>
      </trkpt>
      <trkpt lat="45.23547" lon="5.76137">
        <ele>1352.5999755859</ele>
        <time>2021-06-26T07:11:42.000Z</time>
      </trkpt>
      <trkpt lat="45.23548" lon="5.76136">
        <ele>1351.5999755859</ele>
        <time>2021-06-26T07:11:43.000Z</time>
      </trkpt>
      <trkpt lat="45.23556" lon="5.76132">
        <ele>1351</ele>
        <time>2021-06-26T07:11:49.000Z</time>
      </trkpt>
      <trkpt lat="45.23559" lon="5.76129">
        <ele>1349.8000488281</ele>
        <time>2021-06-26T07:11:51.000Z</time>
      </trkpt>
      <trkpt lat="45.23562" lon="5.76123">
        <ele>1348.4000244141</ele>
        <time>2021-06-26T07:11:54.000Z</time>
      </trkpt>
      <trkpt lat="45.23563" lon="5.76122">
        <ele>1348</ele>
        <time>2021-06-26T07:11:55.000Z</time>
      </trkpt>
      <trkpt lat="45.23566" lon="5.76118">
        <ele>1347.4000244141</ele>
        <time>2021-06-26T07:11:58.000Z</time>
      </trkpt>
      <trkpt lat="45.23568" lon="5.76115">
        <ele>1346.1999511719</ele>
        <time>2021-06-26T07:12:00.000Z</time>
      </trkpt>
      <trkpt lat="45.23572" lon="5.76111">
        <ele>1345.8000488281</ele>
        <time>2021-06-26T07:12:03.000Z</time>
      </trkpt>
      <trkpt lat="45.23572" lon="5.76109">
        <ele>1345.4000244141</ele>
        <time>2021-06-26T07:12:04.000Z</time>
      </trkpt>
      <trkpt lat="45.23572" lon="5.76108">
        <ele>1344.8000488281</ele>
        <time>2021-06-26T07:12:05.000Z</time>
      </trkpt>
      <trkpt lat="45.23578" lon="5.76099">
        <ele>1343.4000244141</ele>
        <time>2021-06-26T07:12:10.000Z</time>
      </trkpt>
      <trkpt lat="45.23578" lon="5.76097">
        <ele>1343</ele>
        <time>2021-06-26T07:12:14.000Z</time>
      </trkpt>
      <trkpt lat="45.23578" lon="5.76098">
        <ele>1342.5999755859</ele>
        <time>2021-06-26T07:12:15.000Z</time>
      </trkpt>
      <trkpt lat="45.23578" lon="5.76099">
        <ele>1341.8000488281</ele>
        <time>2021-06-26T07:12:16.000Z</time>
      </trkpt>
      <trkpt lat="45.23576" lon="5.76103">
        <ele>1341</ele>
        <time>2021-06-26T07:12:19.000Z</time>
      </trkpt>
      <trkpt lat="45.23574" lon="5.76103">
        <ele>1339</ele>
        <time>2021-06-26T07:12:21.000Z</time>
      </trkpt>
      <trkpt lat="45.23573" lon="5.76103">
        <ele>1339</ele>
        <time>2021-06-26T07:12:22.000Z</time>
      </trkpt>
      <trkpt lat="45.23571" lon="5.76104">
        <ele>1339</ele>
        <time>2021-06-26T07:12:23.000Z</time>
      </trkpt>
      <trkpt lat="45.23567" lon="5.76108">
        <ele>1337.4000244141</ele>
        <time>2021-06-26T07:12:26.000Z</time>
      </trkpt>
      <trkpt lat="45.23564" lon="5.76109">
        <ele>1336.8000488281</ele>
        <time>2021-06-26T07:12:29.000Z</time>
      </trkpt>
      <trkpt lat="45.23562" lon="5.76109">
        <ele>1336.4000244141</ele>
        <time>2021-06-26T07:12:30.000Z</time>
      </trkpt>
      <trkpt lat="45.23559" lon="5.7611">
        <ele>1335.5999755859</ele>
        <time>2021-06-26T07:12:32.000Z</time>
      </trkpt>
      <trkpt lat="45.23556" lon="5.76108">
        <ele>1335.5999755859</ele>
        <time>2021-06-26T07:12:33.000Z</time>
      </trkpt>
      <trkpt lat="45.23556" lon="5.76106">
        <ele>1334.8000488281</ele>
        <time>2021-06-26T07:12:34.000Z</time>
      </trkpt>
      <trkpt lat="45.23556" lon="5.76105">
        <ele>1334.8000488281</ele>
        <time>2021-06-26T07:12:35.000Z</time>
      </trkpt>
      <trkpt lat="45.23557" lon="5.76102">
        <ele>1334.1999511719</ele>
        <time>2021-06-26T07:12:37.000Z</time>
      </trkpt>
      <trkpt lat="45.23559" lon="5.76098">
        <ele>1333.4000244141</ele>
        <time>2021-06-26T07:12:39.000Z</time>
      </trkpt>
      <trkpt lat="45.2356" lon="5.76095">
        <ele>1332.8000488281</ele>
        <time>2021-06-26T07:12:40.000Z</time>
      </trkpt>
      <trkpt lat="45.23562" lon="5.76092">
        <ele>1332.5999755859</ele>
        <time>2021-06-26T07:12:42.000Z</time>
      </trkpt>
      <trkpt lat="45.23563" lon="5.76089">
        <ele>1331.5999755859</ele>
        <time>2021-06-26T07:12:44.000Z</time>
      </trkpt>
      <trkpt lat="45.23566" lon="5.76082">
        <ele>1330.4000244141</ele>
        <time>2021-06-26T07:12:48.000Z</time>
      </trkpt>
      <trkpt lat="45.23568" lon="5.76078">
        <ele>1329.8000488281</ele>
        <time>2021-06-26T07:12:50.000Z</time>
      </trkpt>
      <trkpt lat="45.2357" lon="5.76076">
        <ele>1329.1999511719</ele>
        <time>2021-06-26T07:12:51.000Z</time>
      </trkpt>
      <trkpt lat="45.23572" lon="5.76073">
        <ele>1328</ele>
        <time>2021-06-26T07:12:53.000Z</time>
      </trkpt>
      <trkpt lat="45.23573" lon="5.76072">
        <ele>1328</ele>
        <time>2021-06-26T07:12:54.000Z</time>
      </trkpt>
      <trkpt lat="45.23574" lon="5.76071">
        <ele>1327.8000488281</ele>
        <time>2021-06-26T07:12:56.000Z</time>
      </trkpt>
      <trkpt lat="45.23576" lon="5.7607">
        <ele>1327</ele>
        <time>2021-06-26T07:12:58.000Z</time>
      </trkpt>
      <trkpt lat="45.23577" lon="5.76068">
        <ele>1326.8000488281</ele>
        <time>2021-06-26T07:12:59.000Z</time>
      </trkpt>
      <trkpt lat="45.23578" lon="5.76067">
        <ele>1326.8000488281</ele>
        <time>2021-06-26T07:13:01.000Z</time>
      </trkpt>
      <trkpt lat="45.23578" lon="5.76065">
        <ele>1326.4000244141</ele>
        <time>2021-06-26T07:13:02.000Z</time>
      </trkpt>
      <trkpt lat="45.23579" lon="5.76062">
        <ele>1325.5999755859</ele>
        <time>2021-06-26T07:13:04.000Z</time>
      </trkpt>
      <trkpt lat="45.23581" lon="5.76056">
        <ele>1324.1999511719</ele>
        <time>2021-06-26T07:13:08.000Z</time>
      </trkpt>
      <trkpt lat="45.2358" lon="5.76057">
        <ele>1323.4000244141</ele>
        <time>2021-06-26T07:13:10.000Z</time>
      </trkpt>
      <trkpt lat="45.23579" lon="5.76057">
        <ele>1323.1999511719</ele>
        <time>2021-06-26T07:13:11.000Z</time>
      </trkpt>
      <trkpt lat="45.23578" lon="5.76059">
        <ele>1322</ele>
        <time>2021-06-26T07:13:14.000Z</time>
      </trkpt>
      <trkpt lat="45.23574" lon="5.76061">
        <ele>1321.1999511719</ele>
        <time>2021-06-26T07:13:18.000Z</time>
      </trkpt>
      <trkpt lat="45.23573" lon="5.76062">
        <ele>1320.4000244141</ele>
        <time>2021-06-26T07:13:19.000Z</time>
      </trkpt>
      <trkpt lat="45.23572" lon="5.76062">
        <ele>1319.8000488281</ele>
        <time>2021-06-26T07:13:20.000Z</time>
      </trkpt>
      <trkpt lat="45.23571" lon="5.76062">
        <ele>1318.5999755859</ele>
        <time>2021-06-26T07:13:21.000Z</time>
      </trkpt>
      <trkpt lat="45.23569" lon="5.76061">
        <ele>1318.4000244141</ele>
        <time>2021-06-26T07:13:23.000Z</time>
      </trkpt>
      <trkpt lat="45.23567" lon="5.76059">
        <ele>1317.8000488281</ele>
        <time>2021-06-26T07:13:25.000Z</time>
      </trkpt>
      <trkpt lat="45.23567" lon="5.76059">
        <ele>1317.4000244141</ele>
        <time>2021-06-26T07:13:26.000Z</time>
      </trkpt>
      <trkpt lat="45.23566" lon="5.76061">
        <ele>1316.4000244141</ele>
        <time>2021-06-26T07:13:28.000Z</time>
      </trkpt>
      <trkpt lat="45.23565" lon="5.76062">
        <ele>1316.1999511719</ele>
        <time>2021-06-26T07:13:29.000Z</time>
      </trkpt>
      <trkpt lat="45.23564" lon="5.76064">
        <ele>1315.8000488281</ele>
        <time>2021-06-26T07:13:30.000Z</time>
      </trkpt>
      <trkpt lat="45.23563" lon="5.76066">
        <ele>1315.4000244141</ele>
        <time>2021-06-26T07:13:32.000Z</time>
      </trkpt>
      <trkpt lat="45.23561" lon="5.76067">
        <ele>1313.8000488281</ele>
        <time>2021-06-26T07:13:33.000Z</time>
      </trkpt>
      <trkpt lat="45.23559" lon="5.76069">
        <ele>1313.1999511719</ele>
        <time>2021-06-26T07:13:35.000Z</time>
      </trkpt>
      <trkpt lat="45.23558" lon="5.76068">
        <ele>1312.5999755859</ele>
        <time>2021-06-26T07:13:37.000Z</time>
      </trkpt>
      <trkpt lat="45.23558" lon="5.76066">
        <ele>1312.5999755859</ele>
        <time>2021-06-26T07:13:38.000Z</time>
      </trkpt>
      <trkpt lat="45.23558" lon="5.76061">
        <ele>1311.4000244141</ele>
        <time>2021-06-26T07:13:41.000Z</time>
      </trkpt>
      <trkpt lat="45.23559" lon="5.7606">
        <ele>1310.8000488281</ele>
        <time>2021-06-26T07:13:43.000Z</time>
      </trkpt>
      <trkpt lat="45.23559" lon="5.76059">
        <ele>1310</ele>
        <time>2021-06-26T07:13:45.000Z</time>
      </trkpt>
      <trkpt lat="45.23561" lon="5.76055">
        <ele>1308.4000244141</ele>
        <time>2021-06-26T07:13:48.000Z</time>
      </trkpt>
      <trkpt lat="45.23563" lon="5.76052">
        <ele>1307.5999755859</ele>
        <time>2021-06-26T07:13:51.000Z</time>
      </trkpt>
      <trkpt lat="45.23564" lon="5.76047">
        <ele>1307.1999511719</ele>
        <time>2021-06-26T07:13:53.000Z</time>
      </trkpt>
      <trkpt lat="45.23565" lon="5.76042">
        <ele>1306.1999511719</ele>
        <time>2021-06-26T07:13:56.000Z</time>
      </trkpt>
      <trkpt lat="45.23566" lon="5.7604">
        <ele>1306</ele>
        <time>2021-06-26T07:13:57.000Z</time>
      </trkpt>
      <trkpt lat="45.23568" lon="5.76035">
        <ele>1305</ele>
        <time>2021-06-26T07:14:00.000Z</time>
      </trkpt>
      <trkpt lat="45.23569" lon="5.76032">
        <ele>1304</ele>
        <time>2021-06-26T07:14:01.000Z</time>
      </trkpt>
      <trkpt lat="45.23571" lon="5.76031">
        <ele>1303.8000488281</ele>
        <time>2021-06-26T07:14:02.000Z</time>
      </trkpt>
      <trkpt lat="45.23572" lon="5.7603">
        <ele>1303.8000488281</ele>
        <time>2021-06-26T07:14:03.000Z</time>
      </trkpt>
      <trkpt lat="45.23577" lon="5.76026">
        <ele>1301.5999755859</ele>
        <time>2021-06-26T07:14:06.000Z</time>
      </trkpt>
      <trkpt lat="45.23577" lon="5.76023">
        <ele>1301.1999511719</ele>
        <time>2021-06-26T07:14:08.000Z</time>
      </trkpt>
      <trkpt lat="45.23577" lon="5.76021">
        <ele>1301</ele>
        <time>2021-06-26T07:14:09.000Z</time>
      </trkpt>
      <trkpt lat="45.23578" lon="5.76021">
        <ele>1299.8000488281</ele>
        <time>2021-06-26T07:14:10.000Z</time>
      </trkpt>
      <trkpt lat="45.23578" lon="5.7602">
        <ele>1299.5999755859</ele>
        <time>2021-06-26T07:14:11.000Z</time>
      </trkpt>
      <trkpt lat="45.2358" lon="5.76017">
        <ele>1299.1999511719</ele>
        <time>2021-06-26T07:14:13.000Z</time>
      </trkpt>
      <trkpt lat="45.23579" lon="5.76013">
        <ele>1298.4000244141</ele>
        <time>2021-06-26T07:14:15.000Z</time>
      </trkpt>
      <trkpt lat="45.2358" lon="5.76008">
        <ele>1297.1999511719</ele>
        <time>2021-06-26T07:14:17.000Z</time>
      </trkpt>
      <trkpt lat="45.23581" lon="5.76">
        <ele>1296</ele>
        <time>2021-06-26T07:14:20.000Z</time>
      </trkpt>
      <trkpt lat="45.23582" lon="5.75998">
        <ele>1295.8000488281</ele>
        <time>2021-06-26T07:14:21.000Z</time>
      </trkpt>
      <trkpt lat="45.23586" lon="5.75991">
        <ele>1294.5999755859</ele>
        <time>2021-06-26T07:14:25.000Z</time>
      </trkpt>
      <trkpt lat="45.23588" lon="5.75986">
        <ele>1293</ele>
        <time>2021-06-26T07:14:28.000Z</time>
      </trkpt>
      <trkpt lat="45.2359" lon="5.75985">
        <ele>1292.5999755859</ele>
        <time>2021-06-26T07:14:29.000Z</time>
      </trkpt>
      <trkpt lat="45.23592" lon="5.75984">
        <ele>1292</ele>
        <time>2021-06-26T07:14:31.000Z</time>
      </trkpt>
      <trkpt lat="45.23593" lon="5.75984">
        <ele>1291.8000488281</ele>
        <time>2021-06-26T07:14:32.000Z</time>
      </trkpt>
      <trkpt lat="45.23598" lon="5.75978">
        <ele>1291.1999511719</ele>
        <time>2021-06-26T07:14:35.000Z</time>
      </trkpt>
      <trkpt lat="45.236" lon="5.75975">
        <ele>1290.8000488281</ele>
        <time>2021-06-26T07:14:36.000Z</time>
      </trkpt>
      <trkpt lat="45.23602" lon="5.75971">
        <ele>1289.5999755859</ele>
        <time>2021-06-26T07:14:38.000Z</time>
      </trkpt>
      <trkpt lat="45.23603" lon="5.7597">
        <ele>1289.4000244141</ele>
        <time>2021-06-26T07:14:39.000Z</time>
      </trkpt>
      <trkpt lat="45.23604" lon="5.75969">
        <ele>1288.1999511719</ele>
        <time>2021-06-26T07:14:40.000Z</time>
      </trkpt>
      <trkpt lat="45.23605" lon="5.75967">
        <ele>1288</ele>
        <time>2021-06-26T07:14:41.000Z</time>
      </trkpt>
      <trkpt lat="45.23607" lon="5.75964">
        <ele>1287.5999755859</ele>
        <time>2021-06-26T07:14:43.000Z</time>
      </trkpt>
      <trkpt lat="45.23608" lon="5.75961">
        <ele>1287.1999511719</ele>
        <time>2021-06-26T07:14:44.000Z</time>
      </trkpt>
      <trkpt lat="45.23609" lon="5.7596">
        <ele>1286.8000488281</ele>
        <time>2021-06-26T07:14:45.000Z</time>
      </trkpt>
      <trkpt lat="45.23617" lon="5.75952">
        <ele>1285.4000244141</ele>
        <time>2021-06-26T07:14:50.000Z</time>
      </trkpt>
      <trkpt lat="45.2362" lon="5.75948">
        <ele>1284.8000488281</ele>
        <time>2021-06-26T07:14:52.000Z</time>
      </trkpt>
      <trkpt lat="45.23623" lon="5.75945">
        <ele>1284.1999511719</ele>
        <time>2021-06-26T07:14:55.000Z</time>
      </trkpt>
      <trkpt lat="45.23623" lon="5.75945">
        <ele>1283.8000488281</ele>
        <time>2021-06-26T07:14:56.000Z</time>
      </trkpt>
      <trkpt lat="45.23622" lon="5.75946">
        <ele>1283.5999755859</ele>
        <time>2021-06-26T07:14:57.000Z</time>
      </trkpt>
      <trkpt lat="45.23622" lon="5.75946">
        <ele>1283</ele>
        <time>2021-06-26T07:14:58.000Z</time>
      </trkpt>
      <trkpt lat="45.23621" lon="5.75947">
        <ele>1283</ele>
        <time>2021-06-26T07:14:59.000Z</time>
      </trkpt>
      <trkpt lat="45.23621" lon="5.75947">
        <ele>1282.5999755859</ele>
        <time>2021-06-26T07:15:00.000Z</time>
      </trkpt>
      <trkpt lat="45.2362" lon="5.75947">
        <ele>1281.1999511719</ele>
        <time>2021-06-26T07:15:02.000Z</time>
      </trkpt>
      <trkpt lat="45.23619" lon="5.75948">
        <ele>1280.8000488281</ele>
        <time>2021-06-26T07:15:04.000Z</time>
      </trkpt>
      <trkpt lat="45.23617" lon="5.7595">
        <ele>1279.5999755859</ele>
        <time>2021-06-26T07:15:06.000Z</time>
      </trkpt>
      <trkpt lat="45.23615" lon="5.7595">
        <ele>1279.4000244141</ele>
        <time>2021-06-26T07:15:07.000Z</time>
      </trkpt>
      <trkpt lat="45.23614" lon="5.75951">
        <ele>1279</ele>
        <time>2021-06-26T07:15:08.000Z</time>
      </trkpt>
      <trkpt lat="45.23613" lon="5.75952">
        <ele>1278.1999511719</ele>
        <time>2021-06-26T07:15:09.000Z</time>
      </trkpt>
      <trkpt lat="45.2361" lon="5.75952">
        <ele>1277.8000488281</ele>
        <time>2021-06-26T07:15:12.000Z</time>
      </trkpt>
      <trkpt lat="45.23609" lon="5.75952">
        <ele>1276.5999755859</ele>
        <time>2021-06-26T07:15:13.000Z</time>
      </trkpt>
      <trkpt lat="45.23608" lon="5.75953">
        <ele>1276.1999511719</ele>
        <time>2021-06-26T07:15:14.000Z</time>
      </trkpt>
      <trkpt lat="45.23604" lon="5.75956">
        <ele>1275</ele>
        <time>2021-06-26T07:15:17.000Z</time>
      </trkpt>
      <trkpt lat="45.23601" lon="5.75957">
        <ele>1274.5999755859</ele>
        <time>2021-06-26T07:15:19.000Z</time>
      </trkpt>
      <trkpt lat="45.23597" lon="5.75959">
        <ele>1273.5999755859</ele>
        <time>2021-06-26T07:15:22.000Z</time>
      </trkpt>
      <trkpt lat="45.23594" lon="5.75963">
        <ele>1272.8000488281</ele>
        <time>2021-06-26T07:15:24.000Z</time>
      </trkpt>
      <trkpt lat="45.23592" lon="5.75964">
        <ele>1272.1999511719</ele>
        <time>2021-06-26T07:15:25.000Z</time>
      </trkpt>
      <trkpt lat="45.23592" lon="5.75965">
        <ele>1271.4000244141</ele>
        <time>2021-06-26T07:15:26.000Z</time>
      </trkpt>
      <trkpt lat="45.2359" lon="5.75967">
        <ele>1271.1999511719</ele>
        <time>2021-06-26T07:15:28.000Z</time>
      </trkpt>
      <trkpt lat="45.23588" lon="5.75972">
        <ele>1269.5999755859</ele>
        <time>2021-06-26T07:15:31.000Z</time>
      </trkpt>
      <trkpt lat="45.23586" lon="5.75973">
        <ele>1269</ele>
        <time>2021-06-26T07:15:33.000Z</time>
      </trkpt>
      <trkpt lat="45.23583" lon="5.75974">
        <ele>1268.4000244141</ele>
        <time>2021-06-26T07:15:35.000Z</time>
      </trkpt>
      <trkpt lat="45.2358" lon="5.75977">
        <ele>1267</ele>
        <time>2021-06-26T07:15:38.000Z</time>
      </trkpt>
      <trkpt lat="45.23579" lon="5.75978">
        <ele>1266.8000488281</ele>
        <time>2021-06-26T07:15:39.000Z</time>
      </trkpt>
      <trkpt lat="45.23578" lon="5.7598">
        <ele>1266</ele>
        <time>2021-06-26T07:15:41.000Z</time>
      </trkpt>
      <trkpt lat="45.23575" lon="5.75981">
        <ele>1265.1999511719</ele>
        <time>2021-06-26T07:15:43.000Z</time>
      </trkpt>
      <trkpt lat="45.23574" lon="5.75982">
        <ele>1264.8000488281</ele>
        <time>2021-06-26T07:15:44.000Z</time>
      </trkpt>
      <trkpt lat="45.23572" lon="5.75983">
        <ele>1264.4000244141</ele>
        <time>2021-06-26T07:15:45.000Z</time>
      </trkpt>
      <trkpt lat="45.23571" lon="5.75983">
        <ele>1264.1999511719</ele>
        <time>2021-06-26T07:15:46.000Z</time>
      </trkpt>
      <trkpt lat="45.2357" lon="5.75984">
        <ele>1263.4000244141</ele>
        <time>2021-06-26T07:15:47.000Z</time>
      </trkpt>
      <trkpt lat="45.23563" lon="5.75987">
        <ele>1262.4000244141</ele>
        <time>2021-06-26T07:15:51.000Z</time>
      </trkpt>
      <trkpt lat="45.23559" lon="5.7599">
        <ele>1261.1999511719</ele>
        <time>2021-06-26T07:15:53.000Z</time>
      </trkpt>
      <trkpt lat="45.23556" lon="5.75994">
        <ele>1259.5999755859</ele>
        <time>2021-06-26T07:15:56.000Z</time>
      </trkpt>
      <trkpt lat="45.23553" lon="5.75996">
        <ele>1259.4000244141</ele>
        <time>2021-06-26T07:15:58.000Z</time>
      </trkpt>
      <trkpt lat="45.23545" lon="5.76">
        <ele>1258.4000244141</ele>
        <time>2021-06-26T07:16:01.000Z</time>
      </trkpt>
      <trkpt lat="45.23542" lon="5.76001">
        <ele>1257.8000488281</ele>
        <time>2021-06-26T07:16:03.000Z</time>
      </trkpt>
      <trkpt lat="45.2354" lon="5.76003">
        <ele>1257</ele>
        <time>2021-06-26T07:16:04.000Z</time>
      </trkpt>
      <trkpt lat="45.23535" lon="5.7601">
        <ele>1256.4000244141</ele>
        <time>2021-06-26T07:16:08.000Z</time>
      </trkpt>
      <trkpt lat="45.23533" lon="5.76012">
        <ele>1256</ele>
        <time>2021-06-26T07:16:09.000Z</time>
      </trkpt>
      <trkpt lat="45.2353" lon="5.76017">
        <ele>1255</ele>
        <time>2021-06-26T07:16:11.000Z</time>
      </trkpt>
      <trkpt lat="45.23528" lon="5.76018">
        <ele>1254.1999511719</ele>
        <time>2021-06-26T07:16:12.000Z</time>
      </trkpt>
      <trkpt lat="45.23524" lon="5.76019">
        <ele>1254</ele>
        <time>2021-06-26T07:16:13.000Z</time>
      </trkpt>
      <trkpt lat="45.23521" lon="5.76017">
        <ele>1254</ele>
        <time>2021-06-26T07:16:14.000Z</time>
      </trkpt>
      <trkpt lat="45.23519" lon="5.76015">
        <ele>1253.1999511719</ele>
        <time>2021-06-26T07:16:15.000Z</time>
      </trkpt>
      <trkpt lat="45.23518" lon="5.76005">
        <ele>1252.4000244141</ele>
        <time>2021-06-26T07:16:18.000Z</time>
      </trkpt>
      <trkpt lat="45.23518" lon="5.76002">
        <ele>1251.5999755859</ele>
        <time>2021-06-26T07:16:19.000Z</time>
      </trkpt>
      <trkpt lat="45.23522" lon="5.75993">
        <ele>1249.8000488281</ele>
        <time>2021-06-26T07:16:23.000Z</time>
      </trkpt>
      <trkpt lat="45.23522" lon="5.75991">
        <ele>1249.4000244141</ele>
        <time>2021-06-26T07:16:24.000Z</time>
      </trkpt>
      <trkpt lat="45.23523" lon="5.75982">
        <ele>1247.8000488281</ele>
        <time>2021-06-26T07:16:28.000Z</time>
      </trkpt>
      <trkpt lat="45.23525" lon="5.75979">
        <ele>1247.1999511719</ele>
        <time>2021-06-26T07:16:30.000Z</time>
      </trkpt>
      <trkpt lat="45.23526" lon="5.75977">
        <ele>1246.8000488281</ele>
        <time>2021-06-26T07:16:31.000Z</time>
      </trkpt>
      <trkpt lat="45.23528" lon="5.75974">
        <ele>1246</ele>
        <time>2021-06-26T07:16:33.000Z</time>
      </trkpt>
      <trkpt lat="45.2353" lon="5.75972">
        <ele>1245.4000244141</ele>
        <time>2021-06-26T07:16:34.000Z</time>
      </trkpt>
      <trkpt lat="45.23532" lon="5.75968">
        <ele>1245</ele>
        <time>2021-06-26T07:16:36.000Z</time>
      </trkpt>
      <trkpt lat="45.23534" lon="5.75964">
        <ele>1244</ele>
        <time>2021-06-26T07:16:38.000Z</time>
      </trkpt>
      <trkpt lat="45.23536" lon="5.75962">
        <ele>1243.8000488281</ele>
        <time>2021-06-26T07:16:39.000Z</time>
      </trkpt>
      <trkpt lat="45.23536" lon="5.75961">
        <ele>1243.8000488281</ele>
        <time>2021-06-26T07:16:40.000Z</time>
      </trkpt>
      <trkpt lat="45.23536" lon="5.75958">
        <ele>1242.8000488281</ele>
        <time>2021-06-26T07:16:41.000Z</time>
      </trkpt>
      <trkpt lat="45.23536" lon="5.75952">
        <ele>1241.4000244141</ele>
        <time>2021-06-26T07:16:44.000Z</time>
      </trkpt>
      <trkpt lat="45.23534" lon="5.7595">
        <ele>1241.1999511719</ele>
        <time>2021-06-26T07:16:46.000Z</time>
      </trkpt>
      <trkpt lat="45.2353" lon="5.75944">
        <ele>1239</ele>
        <time>2021-06-26T07:16:49.000Z</time>
      </trkpt>
      <trkpt lat="45.23532" lon="5.75939">
        <ele>1238.5999755859</ele>
        <time>2021-06-26T07:16:51.000Z</time>
      </trkpt>
      <trkpt lat="45.23532" lon="5.75938">
        <ele>1238.5999755859</ele>
        <time>2021-06-26T07:16:52.000Z</time>
      </trkpt>
      <trkpt lat="45.23531" lon="5.75936">
        <ele>1238.4000244141</ele>
        <time>2021-06-26T07:16:53.000Z</time>
      </trkpt>
      <trkpt lat="45.23531" lon="5.75933">
        <ele>1237.8000488281</ele>
        <time>2021-06-26T07:16:55.000Z</time>
      </trkpt>
      <trkpt lat="45.23532" lon="5.75929">
        <ele>1236.8000488281</ele>
        <time>2021-06-26T07:16:57.000Z</time>
      </trkpt>
      <trkpt lat="45.23532" lon="5.75928">
        <ele>1236.1999511719</ele>
        <time>2021-06-26T07:16:58.000Z</time>
      </trkpt>
      <trkpt lat="45.23535" lon="5.75923">
        <ele>1235.5999755859</ele>
        <time>2021-06-26T07:17:01.000Z</time>
      </trkpt>
      <trkpt lat="45.23536" lon="5.75921">
        <ele>1235.1999511719</ele>
        <time>2021-06-26T07:17:02.000Z</time>
      </trkpt>
      <trkpt lat="45.23537" lon="5.75918">
        <ele>1234.1999511719</ele>
        <time>2021-06-26T07:17:03.000Z</time>
      </trkpt>
      <trkpt lat="45.23539" lon="5.75907">
        <ele>1233.1999511719</ele>
        <time>2021-06-26T07:17:06.000Z</time>
      </trkpt>
      <trkpt lat="45.2354" lon="5.75903">
        <ele>1232.8000488281</ele>
        <time>2021-06-26T07:17:07.000Z</time>
      </trkpt>
      <trkpt lat="45.2354" lon="5.759">
        <ele>1232</ele>
        <time>2021-06-26T07:17:08.000Z</time>
      </trkpt>
      <trkpt lat="45.23544" lon="5.75892">
        <ele>1231.4000244141</ele>
        <time>2021-06-26T07:17:11.000Z</time>
      </trkpt>
      <trkpt lat="45.23547" lon="5.75887">
        <ele>1230</ele>
        <time>2021-06-26T07:17:13.000Z</time>
      </trkpt>
      <trkpt lat="45.23548" lon="5.75884">
        <ele>1229.8000488281</ele>
        <time>2021-06-26T07:17:14.000Z</time>
      </trkpt>
      <trkpt lat="45.23549" lon="5.75878">
        <ele>1228.8000488281</ele>
        <time>2021-06-26T07:17:16.000Z</time>
      </trkpt>
      <trkpt lat="45.23551" lon="5.75872">
        <ele>1228.4000244141</ele>
        <time>2021-06-26T07:17:18.000Z</time>
      </trkpt>
      <trkpt lat="45.23553" lon="5.75865">
        <ele>1227.8000488281</ele>
        <time>2021-06-26T07:17:20.000Z</time>
      </trkpt>
      <trkpt lat="45.23554" lon="5.75861">
        <ele>1226.4000244141</ele>
        <time>2021-06-26T07:17:21.000Z</time>
      </trkpt>
      <trkpt lat="45.23556" lon="5.75855">
        <ele>1226.1999511719</ele>
        <time>2021-06-26T07:17:23.000Z</time>
      </trkpt>
      <trkpt lat="45.23559" lon="5.75849">
        <ele>1225.4000244141</ele>
        <time>2021-06-26T07:17:25.000Z</time>
      </trkpt>
      <trkpt lat="45.23561" lon="5.75846">
        <ele>1224.1999511719</ele>
        <time>2021-06-26T07:17:26.000Z</time>
      </trkpt>
      <trkpt lat="45.23562" lon="5.75844">
        <ele>1224</ele>
        <time>2021-06-26T07:17:27.000Z</time>
      </trkpt>
      <trkpt lat="45.23563" lon="5.75839">
        <ele>1223.8000488281</ele>
        <time>2021-06-26T07:17:29.000Z</time>
      </trkpt>
      <trkpt lat="45.23564" lon="5.75834">
        <ele>1222.1999511719</ele>
        <time>2021-06-26T07:17:31.000Z</time>
      </trkpt>
      <trkpt lat="45.23565" lon="5.75833">
        <ele>1222.1999511719</ele>
        <time>2021-06-26T07:17:32.000Z</time>
      </trkpt>
      <trkpt lat="45.23566" lon="5.75832">
        <ele>1221.8000488281</ele>
        <time>2021-06-26T07:17:33.000Z</time>
      </trkpt>
      <trkpt lat="45.23568" lon="5.75829">
        <ele>1221</ele>
        <time>2021-06-26T07:17:35.000Z</time>
      </trkpt>
      <trkpt lat="45.23569" lon="5.75825">
        <ele>1220</ele>
        <time>2021-06-26T07:17:37.000Z</time>
      </trkpt>
      <trkpt lat="45.2357" lon="5.75818">
        <ele>1218.8000488281</ele>
        <time>2021-06-26T07:17:39.000Z</time>
      </trkpt>
      <trkpt lat="45.23571" lon="5.75814">
        <ele>1218.8000488281</ele>
        <time>2021-06-26T07:17:40.000Z</time>
      </trkpt>
      <trkpt lat="45.23573" lon="5.75812">
        <ele>1218.8000488281</ele>
        <time>2021-06-26T07:17:41.000Z</time>
      </trkpt>
      <trkpt lat="45.23576" lon="5.75808">
        <ele>1217.5999755859</ele>
        <time>2021-06-26T07:17:43.000Z</time>
      </trkpt>
      <trkpt lat="45.23578" lon="5.75806">
        <ele>1217.4000244141</ele>
        <time>2021-06-26T07:17:44.000Z</time>
      </trkpt>
      <trkpt lat="45.23581" lon="5.75801">
        <ele>1216.4000244141</ele>
        <time>2021-06-26T07:17:46.000Z</time>
      </trkpt>
      <trkpt lat="45.23586" lon="5.75795">
        <ele>1215.1999511719</ele>
        <time>2021-06-26T07:17:49.000Z</time>
      </trkpt>
      <trkpt lat="45.23587" lon="5.75793">
        <ele>1214.8000488281</ele>
        <time>2021-06-26T07:17:50.000Z</time>
      </trkpt>
      <trkpt lat="45.23589" lon="5.75792">
        <ele>1214.4000244141</ele>
        <time>2021-06-26T07:17:51.000Z</time>
      </trkpt>
      <trkpt lat="45.23591" lon="5.7579">
        <ele>1213.4000244141</ele>
        <time>2021-06-26T07:17:53.000Z</time>
      </trkpt>
      <trkpt lat="45.23591" lon="5.75789">
        <ele>1212.5999755859</ele>
        <time>2021-06-26T07:17:55.000Z</time>
      </trkpt>
      <trkpt lat="45.23591" lon="5.75789">
        <ele>1212.1999511719</ele>
        <time>2021-06-26T07:17:57.000Z</time>
      </trkpt>
      <trkpt lat="45.23592" lon="5.75791">
        <ele>1211</ele>
        <time>2021-06-26T07:17:59.000Z</time>
      </trkpt>
      <trkpt lat="45.2359" lon="5.75793">
        <ele>1210.5999755859</ele>
        <time>2021-06-26T07:18:02.000Z</time>
      </trkpt>
      <trkpt lat="45.2359" lon="5.75793">
        <ele>1210.4000244141</ele>
        <time>2021-06-26T07:18:03.000Z</time>
      </trkpt>
      <trkpt lat="45.23589" lon="5.75794">
        <ele>1209.5999755859</ele>
        <time>2021-06-26T07:18:04.000Z</time>
      </trkpt>
      <trkpt lat="45.23586" lon="5.75794">
        <ele>1208</ele>
        <time>2021-06-26T07:18:06.000Z</time>
      </trkpt>
      <trkpt lat="45.23585" lon="5.75794">
        <ele>1207.5999755859</ele>
        <time>2021-06-26T07:18:08.000Z</time>
      </trkpt>
      <trkpt lat="45.23583" lon="5.75796">
        <ele>1207</ele>
        <time>2021-06-26T07:18:10.000Z</time>
      </trkpt>
      <trkpt lat="45.23582" lon="5.75797">
        <ele>1207</ele>
        <time>2021-06-26T07:18:11.000Z</time>
      </trkpt>
      <trkpt lat="45.23581" lon="5.75798">
        <ele>1206.1999511719</ele>
        <time>2021-06-26T07:18:12.000Z</time>
      </trkpt>
      <trkpt lat="45.2358" lon="5.75799">
        <ele>1205.8000488281</ele>
        <time>2021-06-26T07:18:13.000Z</time>
      </trkpt>
      <trkpt lat="45.23579" lon="5.75802">
        <ele>1204.8000488281</ele>
        <time>2021-06-26T07:18:14.000Z</time>
      </trkpt>
      <trkpt lat="45.23578" lon="5.75803">
        <ele>1203.5999755859</ele>
        <time>2021-06-26T07:18:16.000Z</time>
      </trkpt>
      <trkpt lat="45.23577" lon="5.75803">
        <ele>1203.1999511719</ele>
        <time>2021-06-26T07:18:17.000Z</time>
      </trkpt>
      <trkpt lat="45.23576" lon="5.75805">
        <ele>1202.1999511719</ele>
        <time>2021-06-26T07:18:19.000Z</time>
      </trkpt>
      <trkpt lat="45.23574" lon="5.75806">
        <ele>1201.8000488281</ele>
        <time>2021-06-26T07:18:21.000Z</time>
      </trkpt>
      <trkpt lat="45.2357" lon="5.75808">
        <ele>1201.4000244141</ele>
        <time>2021-06-26T07:18:23.000Z</time>
      </trkpt>
      <trkpt lat="45.23567" lon="5.75808">
        <ele>1201.4000244141</ele>
        <time>2021-06-26T07:18:24.000Z</time>
      </trkpt>
      <trkpt lat="45.23567" lon="5.7581">
        <ele>1200.5999755859</ele>
        <time>2021-06-26T07:18:25.000Z</time>
      </trkpt>
      <trkpt lat="45.23566" lon="5.75811">
        <ele>1199.5999755859</ele>
        <time>2021-06-26T07:18:26.000Z</time>
      </trkpt>
      <trkpt lat="45.23565" lon="5.75812">
        <ele>1198.5999755859</ele>
        <time>2021-06-26T07:18:28.000Z</time>
      </trkpt>
      <trkpt lat="45.23564" lon="5.75812">
        <ele>1198.4000244141</ele>
        <time>2021-06-26T07:18:29.000Z</time>
      </trkpt>
      <trkpt lat="45.23563" lon="5.75813">
        <ele>1198.1999511719</ele>
        <time>2021-06-26T07:18:30.000Z</time>
      </trkpt>
      <trkpt lat="45.23561" lon="5.75816">
        <ele>1197</ele>
        <time>2021-06-26T07:18:34.000Z</time>
      </trkpt>
      <trkpt lat="45.23558" lon="5.75817">
        <ele>1195.8000488281</ele>
        <time>2021-06-26T07:18:36.000Z</time>
      </trkpt>
      <trkpt lat="45.23554" lon="5.75821">
        <ele>1194.4000244141</ele>
        <time>2021-06-26T07:18:40.000Z</time>
      </trkpt>
      <trkpt lat="45.23552" lon="5.75821">
        <ele>1194.1999511719</ele>
        <time>2021-06-26T07:18:41.000Z</time>
      </trkpt>
      <trkpt lat="45.23551" lon="5.75822">
        <ele>1194</ele>
        <time>2021-06-26T07:18:42.000Z</time>
      </trkpt>
      <trkpt lat="45.23549" lon="5.75823">
        <ele>1193.4000244141</ele>
        <time>2021-06-26T07:18:43.000Z</time>
      </trkpt>
      <trkpt lat="45.23546" lon="5.75824">
        <ele>1191.5999755859</ele>
        <time>2021-06-26T07:18:45.000Z</time>
      </trkpt>
      <trkpt lat="45.23545" lon="5.75824">
        <ele>1191.1999511719</ele>
        <time>2021-06-26T07:18:47.000Z</time>
      </trkpt>
      <trkpt lat="45.23542" lon="5.75828">
        <ele>1190.5999755859</ele>
        <time>2021-06-26T07:18:50.000Z</time>
      </trkpt>
      <trkpt lat="45.2354" lon="5.7583">
        <ele>1190.1999511719</ele>
        <time>2021-06-26T07:18:51.000Z</time>
      </trkpt>
      <trkpt lat="45.23538" lon="5.75831">
        <ele>1189.8000488281</ele>
        <time>2021-06-26T07:18:53.000Z</time>
      </trkpt>
      <trkpt lat="45.23537" lon="5.75832">
        <ele>1189.4000244141</ele>
        <time>2021-06-26T07:18:54.000Z</time>
      </trkpt>
      <trkpt lat="45.23535" lon="5.75833">
        <ele>1188</ele>
        <time>2021-06-26T07:18:55.000Z</time>
      </trkpt>
      <trkpt lat="45.2353" lon="5.75835">
        <ele>1187</ele>
        <time>2021-06-26T07:18:59.000Z</time>
      </trkpt>
      <trkpt lat="45.2353" lon="5.75836">
        <ele>1186.5999755859</ele>
        <time>2021-06-26T07:19:00.000Z</time>
      </trkpt>
      <trkpt lat="45.23527" lon="5.75836">
        <ele>1185.1999511719</ele>
        <time>2021-06-26T07:19:02.000Z</time>
      </trkpt>
      <trkpt lat="45.23526" lon="5.75836">
        <ele>1184.5999755859</ele>
        <time>2021-06-26T07:19:03.000Z</time>
      </trkpt>
      <trkpt lat="45.23522" lon="5.75839">
        <ele>1184</ele>
        <time>2021-06-26T07:19:05.000Z</time>
      </trkpt>
      <trkpt lat="45.23518" lon="5.75841">
        <ele>1183</ele>
        <time>2021-06-26T07:19:08.000Z</time>
      </trkpt>
      <trkpt lat="45.23516" lon="5.75842">
        <ele>1183</ele>
        <time>2021-06-26T07:19:09.000Z</time>
      </trkpt>
      <trkpt lat="45.23515" lon="5.75843">
        <ele>1182.4000244141</ele>
        <time>2021-06-26T07:19:10.000Z</time>
      </trkpt>
      <trkpt lat="45.23513" lon="5.75844">
        <ele>1181.8000488281</ele>
        <time>2021-06-26T07:19:12.000Z</time>
      </trkpt>
      <trkpt lat="45.23512" lon="5.75846">
        <ele>1180.1999511719</ele>
        <time>2021-06-26T07:19:14.000Z</time>
      </trkpt>
      <trkpt lat="45.23511" lon="5.75848">
        <ele>1180</ele>
        <time>2021-06-26T07:19:15.000Z</time>
      </trkpt>
      <trkpt lat="45.23508" lon="5.75848">
        <ele>1179.5999755859</ele>
        <time>2021-06-26T07:19:17.000Z</time>
      </trkpt>
      <trkpt lat="45.23503" lon="5.7585">
        <ele>1179.1999511719</ele>
        <time>2021-06-26T07:19:20.000Z</time>
      </trkpt>
      <trkpt lat="45.23501" lon="5.75851">
        <ele>1177.8000488281</ele>
        <time>2021-06-26T07:19:21.000Z</time>
      </trkpt>
      <trkpt lat="45.23495" lon="5.75856">
        <ele>1176.8000488281</ele>
        <time>2021-06-26T07:19:24.000Z</time>
      </trkpt>
      <trkpt lat="45.23494" lon="5.75857">
        <ele>1176.5999755859</ele>
        <time>2021-06-26T07:19:25.000Z</time>
      </trkpt>
      <trkpt lat="45.23493" lon="5.75858">
        <ele>1175.5999755859</ele>
        <time>2021-06-26T07:19:26.000Z</time>
      </trkpt>
      <trkpt lat="45.23488" lon="5.7586">
        <ele>1174.5999755859</ele>
        <time>2021-06-26T07:19:31.000Z</time>
      </trkpt>
      <trkpt lat="45.23487" lon="5.75861">
        <ele>1174.1999511719</ele>
        <time>2021-06-26T07:19:32.000Z</time>
      </trkpt>
      <trkpt lat="45.23485" lon="5.75862">
        <ele>1174</ele>
        <time>2021-06-26T07:19:33.000Z</time>
      </trkpt>
      <trkpt lat="45.23483" lon="5.75863">
        <ele>1172.8000488281</ele>
        <time>2021-06-26T07:19:35.000Z</time>
      </trkpt>
      <trkpt lat="45.23475" lon="5.75866">
        <ele>1172</ele>
        <time>2021-06-26T07:19:40.000Z</time>
      </trkpt>
      <trkpt lat="45.23474" lon="5.75866">
        <ele>1171</ele>
        <time>2021-06-26T07:19:41.000Z</time>
      </trkpt>
      <trkpt lat="45.23465" lon="5.75871">
        <ele>1169.1999511719</ele>
        <time>2021-06-26T07:19:45.000Z</time>
      </trkpt>
      <trkpt lat="45.23463" lon="5.75874">
        <ele>1168.8000488281</ele>
        <time>2021-06-26T07:19:47.000Z</time>
      </trkpt>
      <trkpt lat="45.23461" lon="5.75877">
        <ele>1168.1999511719</ele>
        <time>2021-06-26T07:19:49.000Z</time>
      </trkpt>
      <trkpt lat="45.23457" lon="5.75879">
        <ele>1167.1999511719</ele>
        <time>2021-06-26T07:19:51.000Z</time>
      </trkpt>
      <trkpt lat="45.23456" lon="5.75881">
        <ele>1167</ele>
        <time>2021-06-26T07:19:52.000Z</time>
      </trkpt>
      <trkpt lat="45.23454" lon="5.75884">
        <ele>1166</ele>
        <time>2021-06-26T07:19:54.000Z</time>
      </trkpt>
      <trkpt lat="45.23452" lon="5.75885">
        <ele>1164.5999755859</ele>
        <time>2021-06-26T07:19:55.000Z</time>
      </trkpt>
      <trkpt lat="45.2345" lon="5.75887">
        <ele>1164.5999755859</ele>
        <time>2021-06-26T07:19:57.000Z</time>
      </trkpt>
      <trkpt lat="45.2345" lon="5.75887">
        <ele>1164.4000244141</ele>
        <time>2021-06-26T07:19:58.000Z</time>
      </trkpt>
      <trkpt lat="45.23449" lon="5.75888">
        <ele>1163.1999511719</ele>
        <time>2021-06-26T07:19:59.000Z</time>
      </trkpt>
      <trkpt lat="45.23448" lon="5.75888">
        <ele>1162.8000488281</ele>
        <time>2021-06-26T07:20:00.000Z</time>
      </trkpt>
      <trkpt lat="45.23445" lon="5.7589">
        <ele>1162.5999755859</ele>
        <time>2021-06-26T07:20:02.000Z</time>
      </trkpt>
      <trkpt lat="45.23443" lon="5.7589">
        <ele>1162.1999511719</ele>
        <time>2021-06-26T07:20:03.000Z</time>
      </trkpt>
      <trkpt lat="45.23441" lon="5.75891">
        <ele>1162</ele>
        <time>2021-06-26T07:20:04.000Z</time>
      </trkpt>
      <trkpt lat="45.23439" lon="5.75892">
        <ele>1160.8000488281</ele>
        <time>2021-06-26T07:20:05.000Z</time>
      </trkpt>
      <trkpt lat="45.23433" lon="5.75892">
        <ele>1160.1999511719</ele>
        <time>2021-06-26T07:20:08.000Z</time>
      </trkpt>
      <trkpt lat="45.23431" lon="5.75892">
        <ele>1159.4000244141</ele>
        <time>2021-06-26T07:20:09.000Z</time>
      </trkpt>
      <trkpt lat="45.23428" lon="5.75891">
        <ele>1159.4000244141</ele>
        <time>2021-06-26T07:20:10.000Z</time>
      </trkpt>
      <trkpt lat="45.23419" lon="5.75889">
        <ele>1157.4000244141</ele>
        <time>2021-06-26T07:20:13.000Z</time>
      </trkpt>
      <trkpt lat="45.23414" lon="5.75891">
        <ele>1157.1999511719</ele>
        <time>2021-06-26T07:20:15.000Z</time>
      </trkpt>
      <trkpt lat="45.2341" lon="5.75894">
        <ele>1156.5999755859</ele>
        <time>2021-06-26T07:20:17.000Z</time>
      </trkpt>
      <trkpt lat="45.23408" lon="5.75895">
        <ele>1156</ele>
        <time>2021-06-26T07:20:18.000Z</time>
      </trkpt>
      <trkpt lat="45.23407" lon="5.75896">
        <ele>1155.4000244141</ele>
        <time>2021-06-26T07:20:19.000Z</time>
      </trkpt>
      <trkpt lat="45.23406" lon="5.75897">
        <ele>1155</ele>
        <time>2021-06-26T07:20:20.000Z</time>
      </trkpt>
      <trkpt lat="45.23405" lon="5.75899">
        <ele>1154.4000244141</ele>
        <time>2021-06-26T07:20:21.000Z</time>
      </trkpt>
      <trkpt lat="45.23404" lon="5.75901">
        <ele>1154</ele>
        <time>2021-06-26T07:20:22.000Z</time>
      </trkpt>
      <trkpt lat="45.23403" lon="5.75903">
        <ele>1153.1999511719</ele>
        <time>2021-06-26T07:20:23.000Z</time>
      </trkpt>
      <trkpt lat="45.23396" lon="5.75912">
        <ele>1152</ele>
        <time>2021-06-26T07:20:27.000Z</time>
      </trkpt>
      <trkpt lat="45.23395" lon="5.75915">
        <ele>1150.5999755859</ele>
        <time>2021-06-26T07:20:28.000Z</time>
      </trkpt>
      <trkpt lat="45.23393" lon="5.75917">
        <ele>1150.5999755859</ele>
        <time>2021-06-26T07:20:29.000Z</time>
      </trkpt>
      <trkpt lat="45.23391" lon="5.75921">
        <ele>1150.1999511719</ele>
        <time>2021-06-26T07:20:31.000Z</time>
      </trkpt>
      <trkpt lat="45.23389" lon="5.75926">
        <ele>1148.8000488281</ele>
        <time>2021-06-26T07:20:33.000Z</time>
      </trkpt>
      <trkpt lat="45.23388" lon="5.75936">
        <ele>1147.5999755859</ele>
        <time>2021-06-26T07:20:37.000Z</time>
      </trkpt>
      <trkpt lat="45.23386" lon="5.75938">
        <ele>1147.1999511719</ele>
        <time>2021-06-26T07:20:38.000Z</time>
      </trkpt>
      <trkpt lat="45.23384" lon="5.75939">
        <ele>1147</ele>
        <time>2021-06-26T07:20:39.000Z</time>
      </trkpt>
      <trkpt lat="45.23379" lon="5.75937">
        <ele>1146.4000244141</ele>
        <time>2021-06-26T07:20:41.000Z</time>
      </trkpt>
      <trkpt lat="45.23376" lon="5.75934">
        <ele>1145.5999755859</ele>
        <time>2021-06-26T07:20:43.000Z</time>
      </trkpt>
      <trkpt lat="45.23374" lon="5.75934">
        <ele>1145.5999755859</ele>
        <time>2021-06-26T07:20:44.000Z</time>
      </trkpt>
      <trkpt lat="45.23373" lon="5.75934">
        <ele>1145.1999511719</ele>
        <time>2021-06-26T07:20:45.000Z</time>
      </trkpt>
      <trkpt lat="45.23371" lon="5.75932">
        <ele>1143.8000488281</ele>
        <time>2021-06-26T07:20:47.000Z</time>
      </trkpt>
      <trkpt lat="45.23369" lon="5.7593">
        <ele>1143.1999511719</ele>
        <time>2021-06-26T07:20:50.000Z</time>
      </trkpt>
      <trkpt lat="45.23368" lon="5.75929">
        <ele>1142.1999511719</ele>
        <time>2021-06-26T07:20:51.000Z</time>
      </trkpt>
      <trkpt lat="45.23368" lon="5.75927">
        <ele>1142.1999511719</ele>
        <time>2021-06-26T07:20:52.000Z</time>
      </trkpt>
      <trkpt lat="45.23366" lon="5.75924">
        <ele>1141.5999755859</ele>
        <time>2021-06-26T07:20:54.000Z</time>
      </trkpt>
      <trkpt lat="45.23364" lon="5.75922">
        <ele>1141</ele>
        <time>2021-06-26T07:20:55.000Z</time>
      </trkpt>
      <trkpt lat="45.23358" lon="5.75915">
        <ele>1139.8000488281</ele>
        <time>2021-06-26T07:21:00.000Z</time>
      </trkpt>
      <trkpt lat="45.23357" lon="5.75914">
        <ele>1139.4000244141</ele>
        <time>2021-06-26T07:21:01.000Z</time>
      </trkpt>
      <trkpt lat="45.23352" lon="5.75909">
        <ele>1138.4000244141</ele>
        <time>2021-06-26T07:21:04.000Z</time>
      </trkpt>
      <trkpt lat="45.23348" lon="5.75905">
        <ele>1137.1999511719</ele>
        <time>2021-06-26T07:21:06.000Z</time>
      </trkpt>
      <trkpt lat="45.23345" lon="5.75902">
        <ele>1136.1999511719</ele>
        <time>2021-06-26T07:21:09.000Z</time>
      </trkpt>
      <trkpt lat="45.23343" lon="5.75894">
        <ele>1135.8000488281</ele>
        <time>2021-06-26T07:21:12.000Z</time>
      </trkpt>
      <trkpt lat="45.23344" lon="5.75886">
        <ele>1135.1999511719</ele>
        <time>2021-06-26T07:21:14.000Z</time>
      </trkpt>
      <trkpt lat="45.23347" lon="5.75873">
        <ele>1134</ele>
        <time>2021-06-26T07:21:18.000Z</time>
      </trkpt>
      <trkpt lat="45.23352" lon="5.75863">
        <ele>1133</ele>
        <time>2021-06-26T07:21:21.000Z</time>
      </trkpt>
      <trkpt lat="45.23353" lon="5.7586">
        <ele>1132.8000488281</ele>
        <time>2021-06-26T07:21:22.000Z</time>
      </trkpt>
      <trkpt lat="45.23358" lon="5.75849">
        <ele>1131.8000488281</ele>
        <time>2021-06-26T07:21:26.000Z</time>
      </trkpt>
      <trkpt lat="45.23361" lon="5.75845">
        <ele>1131.1999511719</ele>
        <time>2021-06-26T07:21:28.000Z</time>
      </trkpt>
      <trkpt lat="45.23362" lon="5.75843">
        <ele>1130.1999511719</ele>
        <time>2021-06-26T07:21:29.000Z</time>
      </trkpt>
      <trkpt lat="45.23366" lon="5.75838">
        <ele>1130</ele>
        <time>2021-06-26T07:21:32.000Z</time>
      </trkpt>
      <trkpt lat="45.23368" lon="5.75838">
        <ele>1129.5999755859</ele>
        <time>2021-06-26T07:21:33.000Z</time>
      </trkpt>
      <trkpt lat="45.2337" lon="5.75838">
        <ele>1128.4000244141</ele>
        <time>2021-06-26T07:21:34.000Z</time>
      </trkpt>
      <trkpt lat="45.23372" lon="5.75834">
        <ele>1127.8000488281</ele>
        <time>2021-06-26T07:21:37.000Z</time>
      </trkpt>
      <trkpt lat="45.23373" lon="5.75833">
        <ele>1127.8000488281</ele>
        <time>2021-06-26T07:21:38.000Z</time>
      </trkpt>
      <trkpt lat="45.23375" lon="5.75832">
        <ele>1127</ele>
        <time>2021-06-26T07:21:39.000Z</time>
      </trkpt>
      <trkpt lat="45.23382" lon="5.75825">
        <ele>1125.8000488281</ele>
        <time>2021-06-26T07:21:44.000Z</time>
      </trkpt>
      <trkpt lat="45.23383" lon="5.75822">
        <ele>1125.5999755859</ele>
        <time>2021-06-26T07:21:45.000Z</time>
      </trkpt>
      <trkpt lat="45.23385" lon="5.7582">
        <ele>1124.1999511719</ele>
        <time>2021-06-26T07:21:46.000Z</time>
      </trkpt>
      <trkpt lat="45.23388" lon="5.75815">
        <ele>1124</ele>
        <time>2021-06-26T07:21:48.000Z</time>
      </trkpt>
      <trkpt lat="45.2339" lon="5.75809">
        <ele>1123</ele>
        <time>2021-06-26T07:21:51.000Z</time>
      </trkpt>
      <trkpt lat="45.2339" lon="5.75802">
        <ele>1121.1999511719</ele>
        <time>2021-06-26T07:21:55.000Z</time>
      </trkpt>
      <trkpt lat="45.23391" lon="5.75799">
        <ele>1120.5999755859</ele>
        <time>2021-06-26T07:21:57.000Z</time>
      </trkpt>
      <trkpt lat="45.23391" lon="5.75797">
        <ele>1120.5999755859</ele>
        <time>2021-06-26T07:21:58.000Z</time>
      </trkpt>
      <trkpt lat="45.23391" lon="5.75795">
        <ele>1120</ele>
        <time>2021-06-26T07:21:59.000Z</time>
      </trkpt>
      <trkpt lat="45.23392" lon="5.75792">
        <ele>1119</ele>
        <time>2021-06-26T07:22:01.000Z</time>
      </trkpt>
      <trkpt lat="45.23397" lon="5.75784">
        <ele>1118.1999511719</ele>
        <time>2021-06-26T07:22:05.000Z</time>
      </trkpt>
      <trkpt lat="45.23398" lon="5.75781">
        <ele>1117.5999755859</ele>
        <time>2021-06-26T07:22:06.000Z</time>
      </trkpt>
      <trkpt lat="45.23399" lon="5.75775">
        <ele>1116.5999755859</ele>
        <time>2021-06-26T07:22:08.000Z</time>
      </trkpt>
      <trkpt lat="45.234" lon="5.75773">
        <ele>1116.4000244141</ele>
        <time>2021-06-26T07:22:09.000Z</time>
      </trkpt>
      <trkpt lat="45.23401" lon="5.7577">
        <ele>1115.8000488281</ele>
        <time>2021-06-26T07:22:11.000Z</time>
      </trkpt>
      <trkpt lat="45.23402" lon="5.75767">
        <ele>1115.4000244141</ele>
        <time>2021-06-26T07:22:13.000Z</time>
      </trkpt>
      <trkpt lat="45.23405" lon="5.75765">
        <ele>1114.5999755859</ele>
        <time>2021-06-26T07:22:16.000Z</time>
      </trkpt>
      <trkpt lat="45.23406" lon="5.75764">
        <ele>1114.4000244141</ele>
        <time>2021-06-26T07:22:17.000Z</time>
      </trkpt>
      <trkpt lat="45.23407" lon="5.75763">
        <ele>1114.1999511719</ele>
        <time>2021-06-26T07:22:18.000Z</time>
      </trkpt>
      <trkpt lat="45.23408" lon="5.75759">
        <ele>1112.5999755859</ele>
        <time>2021-06-26T07:22:20.000Z</time>
      </trkpt>
      <trkpt lat="45.23409" lon="5.75755">
        <ele>1112</ele>
        <time>2021-06-26T07:22:22.000Z</time>
      </trkpt>
      <trkpt lat="45.23409" lon="5.75753">
        <ele>1111.8000488281</ele>
        <time>2021-06-26T07:22:23.000Z</time>
      </trkpt>
      <trkpt lat="45.23411" lon="5.75748">
        <ele>1111.1999511719</ele>
        <time>2021-06-26T07:22:25.000Z</time>
      </trkpt>
      <trkpt lat="45.23411" lon="5.75746">
        <ele>1110.1999511719</ele>
        <time>2021-06-26T07:22:26.000Z</time>
      </trkpt>
      <trkpt lat="45.23412" lon="5.75739">
        <ele>1109.1999511719</ele>
        <time>2021-06-26T07:22:29.000Z</time>
      </trkpt>
      <trkpt lat="45.23412" lon="5.75737">
        <ele>1108.5999755859</ele>
        <time>2021-06-26T07:22:30.000Z</time>
      </trkpt>
      <trkpt lat="45.23414" lon="5.75732">
        <ele>1108.1999511719</ele>
        <time>2021-06-26T07:22:33.000Z</time>
      </trkpt>
      <trkpt lat="45.23415" lon="5.7573">
        <ele>1107.5999755859</ele>
        <time>2021-06-26T07:22:34.000Z</time>
      </trkpt>
      <trkpt lat="45.23416" lon="5.75726">
        <ele>1107</ele>
        <time>2021-06-26T07:22:36.000Z</time>
      </trkpt>
      <trkpt lat="45.23417" lon="5.75721">
        <ele>1106</ele>
        <time>2021-06-26T07:22:38.000Z</time>
      </trkpt>
      <trkpt lat="45.23419" lon="5.75713">
        <ele>1104.5999755859</ele>
        <time>2021-06-26T07:22:42.000Z</time>
      </trkpt>
      <trkpt lat="45.23421" lon="5.75707">
        <ele>1103.1999511719</ele>
        <time>2021-06-26T07:22:45.000Z</time>
      </trkpt>
      <trkpt lat="45.23422" lon="5.75705">
        <ele>1103.1999511719</ele>
        <time>2021-06-26T07:22:46.000Z</time>
      </trkpt>
      <trkpt lat="45.23423" lon="5.757">
        <ele>1102.1999511719</ele>
        <time>2021-06-26T07:22:49.000Z</time>
      </trkpt>
      <trkpt lat="45.23423" lon="5.757">
        <ele>1101.8000488281</ele>
        <time>2021-06-26T07:22:50.000Z</time>
      </trkpt>
      <trkpt lat="45.23423" lon="5.75701">
        <ele>1101.5999755859</ele>
        <time>2021-06-26T07:22:51.000Z</time>
      </trkpt>
      <trkpt lat="45.23425" lon="5.75707">
        <ele>1100.5999755859</ele>
        <time>2021-06-26T07:22:55.000Z</time>
      </trkpt>
      <trkpt lat="45.23424" lon="5.75707">
        <ele>1100</ele>
        <time>2021-06-26T07:22:56.000Z</time>
      </trkpt>
      <trkpt lat="45.23423" lon="5.75709">
        <ele>1099.5999755859</ele>
        <time>2021-06-26T07:22:58.000Z</time>
      </trkpt>
      <trkpt lat="45.23422" lon="5.75711">
        <ele>1099</ele>
        <time>2021-06-26T07:23:00.000Z</time>
      </trkpt>
      <trkpt lat="45.23422" lon="5.75712">
        <ele>1098.8000488281</ele>
        <time>2021-06-26T07:23:01.000Z</time>
      </trkpt>
      <trkpt lat="45.23422" lon="5.75713">
        <ele>1098</ele>
        <time>2021-06-26T07:23:02.000Z</time>
      </trkpt>
      <trkpt lat="45.23422" lon="5.75714">
        <ele>1097</ele>
        <time>2021-06-26T07:23:03.000Z</time>
      </trkpt>
      <trkpt lat="45.2342" lon="5.75718">
        <ele>1095.5999755859</ele>
        <time>2021-06-26T07:23:07.000Z</time>
      </trkpt>
      <trkpt lat="45.23419" lon="5.7572">
        <ele>1095.5999755859</ele>
        <time>2021-06-26T07:23:08.000Z</time>
      </trkpt>
      <trkpt lat="45.23418" lon="5.75721">
        <ele>1094.5999755859</ele>
        <time>2021-06-26T07:23:09.000Z</time>
      </trkpt>
      <trkpt lat="45.23416" lon="5.75721">
        <ele>1094.4000244141</ele>
        <time>2021-06-26T07:23:10.000Z</time>
      </trkpt>
      <trkpt lat="45.23407" lon="5.75727">
        <ele>1092.8000488281</ele>
        <time>2021-06-26T07:23:14.000Z</time>
      </trkpt>
      <trkpt lat="45.23406" lon="5.75728">
        <ele>1092.8000488281</ele>
        <time>2021-06-26T07:23:15.000Z</time>
      </trkpt>
      <trkpt lat="45.23403" lon="5.7573">
        <ele>1092.5999755859</ele>
        <time>2021-06-26T07:23:16.000Z</time>
      </trkpt>
      <trkpt lat="45.234" lon="5.75728">
        <ele>1091.5999755859</ele>
        <time>2021-06-26T07:23:18.000Z</time>
      </trkpt>
      <trkpt lat="45.23401" lon="5.75721">
        <ele>1090.8000488281</ele>
        <time>2021-06-26T07:23:21.000Z</time>
      </trkpt>
      <trkpt lat="45.23402" lon="5.75716">
        <ele>1089.4000244141</ele>
        <time>2021-06-26T07:23:23.000Z</time>
      </trkpt>
      <trkpt lat="45.23403" lon="5.75712">
        <ele>1089.4000244141</ele>
        <time>2021-06-26T07:23:25.000Z</time>
      </trkpt>
      <trkpt lat="45.23402" lon="5.75709">
        <ele>1087.8000488281</ele>
        <time>2021-06-26T07:23:28.000Z</time>
      </trkpt>
      <trkpt lat="45.23402" lon="5.75706">
        <ele>1087.4000244141</ele>
        <time>2021-06-26T07:23:30.000Z</time>
      </trkpt>
      <trkpt lat="45.23401" lon="5.75702">
        <ele>1086.5999755859</ele>
        <time>2021-06-26T07:23:32.000Z</time>
      </trkpt>
      <trkpt lat="45.23401" lon="5.757">
        <ele>1085.8000488281</ele>
        <time>2021-06-26T07:23:33.000Z</time>
      </trkpt>
      <trkpt lat="45.23402" lon="5.75698">
        <ele>1085.5999755859</ele>
        <time>2021-06-26T07:23:34.000Z</time>
      </trkpt>
      <trkpt lat="45.23403" lon="5.75692">
        <ele>1085</ele>
        <time>2021-06-26T07:23:36.000Z</time>
      </trkpt>
      <trkpt lat="45.23403" lon="5.7569">
        <ele>1084.5999755859</ele>
        <time>2021-06-26T07:23:37.000Z</time>
      </trkpt>
      <trkpt lat="45.23405" lon="5.75682">
        <ele>1084</ele>
        <time>2021-06-26T07:23:39.000Z</time>
      </trkpt>
      <trkpt lat="45.23406" lon="5.75676">
        <ele>1083.1999511719</ele>
        <time>2021-06-26T07:23:41.000Z</time>
      </trkpt>
      <trkpt lat="45.23406" lon="5.75674">
        <ele>1083</ele>
        <time>2021-06-26T07:23:42.000Z</time>
      </trkpt>
      <trkpt lat="45.23406" lon="5.75672">
        <ele>1082</ele>
        <time>2021-06-26T07:23:44.000Z</time>
      </trkpt>
      <trkpt lat="45.23406" lon="5.75672">
        <ele>1081.8000488281</ele>
        <time>2021-06-26T07:23:45.000Z</time>
      </trkpt>
      <trkpt lat="45.23407" lon="5.75669">
        <ele>1081.1999511719</ele>
        <time>2021-06-26T07:23:47.000Z</time>
      </trkpt>
      <trkpt lat="45.23408" lon="5.75665">
        <ele>1080.8000488281</ele>
        <time>2021-06-26T07:23:49.000Z</time>
      </trkpt>
      <trkpt lat="45.23409" lon="5.75663">
        <ele>1080.1999511719</ele>
        <time>2021-06-26T07:23:50.000Z</time>
      </trkpt>
      <trkpt lat="45.23409" lon="5.75662">
        <ele>1079.4000244141</ele>
        <time>2021-06-26T07:23:51.000Z</time>
      </trkpt>
      <trkpt lat="45.23411" lon="5.75657">
        <ele>1078.5999755859</ele>
        <time>2021-06-26T07:23:54.000Z</time>
      </trkpt>
      <trkpt lat="45.23413" lon="5.75654">
        <ele>1078.4000244141</ele>
        <time>2021-06-26T07:23:56.000Z</time>
      </trkpt>
      <trkpt lat="45.23414" lon="5.75651">
        <ele>1077.5999755859</ele>
        <time>2021-06-26T07:23:57.000Z</time>
      </trkpt>
      <trkpt lat="45.23419" lon="5.75645">
        <ele>1076.4000244141</ele>
        <time>2021-06-26T07:24:00.000Z</time>
      </trkpt>
      <trkpt lat="45.23422" lon="5.75641">
        <ele>1075.8000488281</ele>
        <time>2021-06-26T07:24:02.000Z</time>
      </trkpt>
      <trkpt lat="45.23426" lon="5.75638">
        <ele>1075.4000244141</ele>
        <time>2021-06-26T07:24:04.000Z</time>
      </trkpt>
      <trkpt lat="45.23427" lon="5.75633">
        <ele>1074.1999511719</ele>
        <time>2021-06-26T07:24:06.000Z</time>
      </trkpt>
      <trkpt lat="45.23429" lon="5.75629">
        <ele>1074</ele>
        <time>2021-06-26T07:24:08.000Z</time>
      </trkpt>
      <trkpt lat="45.23432" lon="5.75626">
        <ele>1072</ele>
        <time>2021-06-26T07:24:10.000Z</time>
      </trkpt>
      <trkpt lat="45.23435" lon="5.75622">
        <ele>1071.1999511719</ele>
        <time>2021-06-26T07:24:12.000Z</time>
      </trkpt>
      <trkpt lat="45.23437" lon="5.7562">
        <ele>1070.8000488281</ele>
        <time>2021-06-26T07:24:13.000Z</time>
      </trkpt>
      <trkpt lat="45.23439" lon="5.7562">
        <ele>1070.5999755859</ele>
        <time>2021-06-26T07:24:14.000Z</time>
      </trkpt>
      <trkpt lat="45.23445" lon="5.75618">
        <ele>1069.8000488281</ele>
        <time>2021-06-26T07:24:17.000Z</time>
      </trkpt>
      <trkpt lat="45.23447" lon="5.75617">
        <ele>1068.4000244141</ele>
        <time>2021-06-26T07:24:18.000Z</time>
      </trkpt>
      <trkpt lat="45.23453" lon="5.75615">
        <ele>1067.8000488281</ele>
        <time>2021-06-26T07:24:21.000Z</time>
      </trkpt>
      <trkpt lat="45.23455" lon="5.75614">
        <ele>1067.5999755859</ele>
        <time>2021-06-26T07:24:22.000Z</time>
      </trkpt>
      <trkpt lat="45.23457" lon="5.75614">
        <ele>1067</ele>
        <time>2021-06-26T07:24:23.000Z</time>
      </trkpt>
      <trkpt lat="45.23465" lon="5.75611">
        <ele>1064.5999755859</ele>
        <time>2021-06-26T07:24:27.000Z</time>
      </trkpt>
      <trkpt lat="45.23467" lon="5.7561">
        <ele>1064.5999755859</ele>
        <time>2021-06-26T07:24:28.000Z</time>
      </trkpt>
      <trkpt lat="45.23471" lon="5.75605">
        <ele>1064</ele>
        <time>2021-06-26T07:24:30.000Z</time>
      </trkpt>
      <trkpt lat="45.23473" lon="5.75602">
        <ele>1063.4000244141</ele>
        <time>2021-06-26T07:24:31.000Z</time>
      </trkpt>
      <trkpt lat="45.23476" lon="5.75601">
        <ele>1063.1999511719</ele>
        <time>2021-06-26T07:24:32.000Z</time>
      </trkpt>
      <trkpt lat="45.23479" lon="5.75601">
        <ele>1062.4000244141</ele>
        <time>2021-06-26T07:24:33.000Z</time>
      </trkpt>
      <trkpt lat="45.23481" lon="5.75599">
        <ele>1062.1999511719</ele>
        <time>2021-06-26T07:24:34.000Z</time>
      </trkpt>
      <trkpt lat="45.23485" lon="5.75597">
        <ele>1061</ele>
        <time>2021-06-26T07:24:36.000Z</time>
      </trkpt>
      <trkpt lat="45.2349" lon="5.75598">
        <ele>1060.8000488281</ele>
        <time>2021-06-26T07:24:38.000Z</time>
      </trkpt>
      <trkpt lat="45.23493" lon="5.75599">
        <ele>1059.8000488281</ele>
        <time>2021-06-26T07:24:39.000Z</time>
      </trkpt>
      <trkpt lat="45.23495" lon="5.75599">
        <ele>1059.1999511719</ele>
        <time>2021-06-26T07:24:40.000Z</time>
      </trkpt>
      <trkpt lat="45.23499" lon="5.756">
        <ele>1058.4000244141</ele>
        <time>2021-06-26T07:24:42.000Z</time>
      </trkpt>
      <trkpt lat="45.235" lon="5.75599">
        <ele>1058.4000244141</ele>
        <time>2021-06-26T07:24:43.000Z</time>
      </trkpt>
      <trkpt lat="45.23503" lon="5.75597">
        <ele>1057.1999511719</ele>
        <time>2021-06-26T07:24:45.000Z</time>
      </trkpt>
      <trkpt lat="45.23508" lon="5.75597">
        <ele>1056.8000488281</ele>
        <time>2021-06-26T07:24:47.000Z</time>
      </trkpt>
      <trkpt lat="45.23509" lon="5.75597">
        <ele>1056.4000244141</ele>
        <time>2021-06-26T07:24:48.000Z</time>
      </trkpt>
      <trkpt lat="45.2351" lon="5.75596">
        <ele>1055.4000244141</ele>
        <time>2021-06-26T07:24:49.000Z</time>
      </trkpt>
      <trkpt lat="45.23512" lon="5.75596">
        <ele>1055.4000244141</ele>
        <time>2021-06-26T07:24:50.000Z</time>
      </trkpt>
      <trkpt lat="45.23517" lon="5.75595">
        <ele>1054.1999511719</ele>
        <time>2021-06-26T07:24:53.000Z</time>
      </trkpt>
      <trkpt lat="45.23519" lon="5.75594">
        <ele>1053.1999511719</ele>
        <time>2021-06-26T07:24:54.000Z</time>
      </trkpt>
      <trkpt lat="45.23519" lon="5.75595">
        <ele>1052.4000244141</ele>
        <time>2021-06-26T07:24:57.000Z</time>
      </trkpt>
      <trkpt lat="45.23519" lon="5.75595">
        <ele>1051.4000244141</ele>
        <time>2021-06-26T07:24:59.000Z</time>
      </trkpt>
      <trkpt lat="45.23521" lon="5.75595">
        <ele>1051</ele>
        <time>2021-06-26T07:25:01.000Z</time>
      </trkpt>
      <trkpt lat="45.23521" lon="5.75595">
        <ele>1050.8000488281</ele>
        <time>2021-06-26T07:25:02.000Z</time>
      </trkpt>
      <trkpt lat="45.23521" lon="5.75595">
        <ele>1049.5999755859</ele>
        <time>2021-06-26T07:25:03.000Z</time>
      </trkpt>
      <trkpt lat="45.23519" lon="5.75597">
        <ele>1049.5999755859</ele>
        <time>2021-06-26T07:25:06.000Z</time>
      </trkpt>
      <trkpt lat="45.23518" lon="5.75597">
        <ele>1048.8000488281</ele>
        <time>2021-06-26T07:25:07.000Z</time>
      </trkpt>
      <trkpt lat="45.23518" lon="5.75597">
        <ele>1048.5999755859</ele>
        <time>2021-06-26T07:25:08.000Z</time>
      </trkpt>
      <trkpt lat="45.23515" lon="5.75595">
        <ele>1047.5999755859</ele>
        <time>2021-06-26T07:25:11.000Z</time>
      </trkpt>
      <trkpt lat="45.23513" lon="5.75595">
        <ele>1046.8000488281</ele>
        <time>2021-06-26T07:25:12.000Z</time>
      </trkpt>
      <trkpt lat="45.23509" lon="5.75591">
        <ele>1045.8000488281</ele>
        <time>2021-06-26T07:25:15.000Z</time>
      </trkpt>
      <trkpt lat="45.23506" lon="5.75589">
        <ele>1044</ele>
        <time>2021-06-26T07:25:18.000Z</time>
      </trkpt>
      <trkpt lat="45.23502" lon="5.75587">
        <ele>1042.8000488281</ele>
        <time>2021-06-26T07:25:21.000Z</time>
      </trkpt>
      <trkpt lat="45.23501" lon="5.75588">
        <ele>1042.5999755859</ele>
        <time>2021-06-26T07:25:23.000Z</time>
      </trkpt>
      <trkpt lat="45.235" lon="5.75589">
        <ele>1041.8000488281</ele>
        <time>2021-06-26T07:25:24.000Z</time>
      </trkpt>
      <trkpt lat="45.23498" lon="5.75589">
        <ele>1041.5999755859</ele>
        <time>2021-06-26T07:25:25.000Z</time>
      </trkpt>
      <trkpt lat="45.23494" lon="5.7559">
        <ele>1040.5999755859</ele>
        <time>2021-06-26T07:25:27.000Z</time>
      </trkpt>
      <trkpt lat="45.23492" lon="5.7559">
        <ele>1039.4000244141</ele>
        <time>2021-06-26T07:25:28.000Z</time>
      </trkpt>
      <trkpt lat="45.23485" lon="5.75585">
        <ele>1038</ele>
        <time>2021-06-26T07:25:32.000Z</time>
      </trkpt>
      <trkpt lat="45.23478" lon="5.75582">
        <ele>1037.4000244141</ele>
        <time>2021-06-26T07:25:35.000Z</time>
      </trkpt>
      <trkpt lat="45.23476" lon="5.75581">
        <ele>1036.8000488281</ele>
        <time>2021-06-26T07:25:36.000Z</time>
      </trkpt>
      <trkpt lat="45.23473" lon="5.75579">
        <ele>1035.4000244141</ele>
        <time>2021-06-26T07:25:37.000Z</time>
      </trkpt>
      <trkpt lat="45.2347" lon="5.75579">
        <ele>1035.4000244141</ele>
        <time>2021-06-26T07:25:38.000Z</time>
      </trkpt>
      <trkpt lat="45.23469" lon="5.7558">
        <ele>1035.1999511719</ele>
        <time>2021-06-26T07:25:39.000Z</time>
      </trkpt>
      <trkpt lat="45.23467" lon="5.75581">
        <ele>1034.1999511719</ele>
        <time>2021-06-26T07:25:40.000Z</time>
      </trkpt>
      <trkpt lat="45.23461" lon="5.75584">
        <ele>1033.1999511719</ele>
        <time>2021-06-26T07:25:44.000Z</time>
      </trkpt>
      <trkpt lat="45.2346" lon="5.75585">
        <ele>1033</ele>
        <time>2021-06-26T07:25:45.000Z</time>
      </trkpt>
      <trkpt lat="45.23458" lon="5.75585">
        <ele>1032.8000488281</ele>
        <time>2021-06-26T07:25:46.000Z</time>
      </trkpt>
      <trkpt lat="45.23455" lon="5.75585">
        <ele>1031.5999755859</ele>
        <time>2021-06-26T07:25:47.000Z</time>
      </trkpt>
      <trkpt lat="45.23449" lon="5.75584">
        <ele>1030.1999511719</ele>
        <time>2021-06-26T07:25:51.000Z</time>
      </trkpt>
      <trkpt lat="45.23446" lon="5.75584">
        <ele>1029.8000488281</ele>
        <time>2021-06-26T07:25:53.000Z</time>
      </trkpt>
      <trkpt lat="45.23444" lon="5.75584">
        <ele>1029.1999511719</ele>
        <time>2021-06-26T07:25:54.000Z</time>
      </trkpt>
      <trkpt lat="45.23436" lon="5.75584">
        <ele>1028.5999755859</ele>
        <time>2021-06-26T07:25:56.000Z</time>
      </trkpt>
      <trkpt lat="45.23432" lon="5.75582">
        <ele>1028</ele>
        <time>2021-06-26T07:25:58.000Z</time>
      </trkpt>
      <trkpt lat="45.23425" lon="5.7558">
        <ele>1026.4000244141</ele>
        <time>2021-06-26T07:26:01.000Z</time>
      </trkpt>
      <trkpt lat="45.23423" lon="5.75579">
        <ele>1026.1999511719</ele>
        <time>2021-06-26T07:26:02.000Z</time>
      </trkpt>
      <trkpt lat="45.23421" lon="5.75578">
        <ele>1025</ele>
        <time>2021-06-26T07:26:03.000Z</time>
      </trkpt>
      <trkpt lat="45.23415" lon="5.75576">
        <ele>1024</ele>
        <time>2021-06-26T07:26:05.000Z</time>
      </trkpt>
      <trkpt lat="45.23412" lon="5.75575">
        <ele>1024</ele>
        <time>2021-06-26T07:26:06.000Z</time>
      </trkpt>
      <trkpt lat="45.23406" lon="5.75574">
        <ele>1023.200012207</ele>
        <time>2021-06-26T07:26:08.000Z</time>
      </trkpt>
      <trkpt lat="45.23404" lon="5.75572">
        <ele>1023</ele>
        <time>2021-06-26T07:26:09.000Z</time>
      </trkpt>
      <trkpt lat="45.234" lon="5.75571">
        <ele>1022.799987793</ele>
        <time>2021-06-26T07:26:11.000Z</time>
      </trkpt>
      <trkpt lat="45.23396" lon="5.75573">
        <ele>1021.200012207</ele>
        <time>2021-06-26T07:26:13.000Z</time>
      </trkpt>
      <trkpt lat="45.2339" lon="5.75579">
        <ele>1019.4000244141</ele>
        <time>2021-06-26T07:26:16.000Z</time>
      </trkpt>
      <trkpt lat="45.23386" lon="5.75581">
        <ele>1018.4000244141</ele>
        <time>2021-06-26T07:26:18.000Z</time>
      </trkpt>
      <trkpt lat="45.23382" lon="5.75581">
        <ele>1017.200012207</ele>
        <time>2021-06-26T07:26:20.000Z</time>
      </trkpt>
      <trkpt lat="45.23379" lon="5.75582">
        <ele>1016.799987793</ele>
        <time>2021-06-26T07:26:22.000Z</time>
      </trkpt>
      <trkpt lat="45.23375" lon="5.75582">
        <ele>1015.799987793</ele>
        <time>2021-06-26T07:26:24.000Z</time>
      </trkpt>
      <trkpt lat="45.23374" lon="5.75582">
        <ele>1014.5999755859</ele>
        <time>2021-06-26T07:26:25.000Z</time>
      </trkpt>
      <trkpt lat="45.2337" lon="5.75583">
        <ele>1013.4000244141</ele>
        <time>2021-06-26T07:26:27.000Z</time>
      </trkpt>
      <trkpt lat="45.23368" lon="5.75584">
        <ele>1013.200012207</ele>
        <time>2021-06-26T07:26:28.000Z</time>
      </trkpt>
      <trkpt lat="45.23363" lon="5.75586">
        <ele>1012.4000244141</ele>
        <time>2021-06-26T07:26:30.000Z</time>
      </trkpt>
      <trkpt lat="45.23358" lon="5.75589">
        <ele>1011.200012207</ele>
        <time>2021-06-26T07:26:32.000Z</time>
      </trkpt>
      <trkpt lat="45.23355" lon="5.75591">
        <ele>1010.5999755859</ele>
        <time>2021-06-26T07:26:34.000Z</time>
      </trkpt>
      <trkpt lat="45.23353" lon="5.75592">
        <ele>1010.200012207</ele>
        <time>2021-06-26T07:26:35.000Z</time>
      </trkpt>
      <trkpt lat="45.2335" lon="5.75593">
        <ele>1009.4000244141</ele>
        <time>2021-06-26T07:26:37.000Z</time>
      </trkpt>
      <trkpt lat="45.23349" lon="5.75594">
        <ele>1009</ele>
        <time>2021-06-26T07:26:38.000Z</time>
      </trkpt>
      <trkpt lat="45.23345" lon="5.75595">
        <ele>1008.200012207</ele>
        <time>2021-06-26T07:26:41.000Z</time>
      </trkpt>
      <trkpt lat="45.23343" lon="5.75595">
        <ele>1007.799987793</ele>
        <time>2021-06-26T07:26:42.000Z</time>
      </trkpt>
      <trkpt lat="45.23342" lon="5.75595">
        <ele>1007.4000244141</ele>
        <time>2021-06-26T07:26:43.000Z</time>
      </trkpt>
      <trkpt lat="45.23342" lon="5.75593">
        <ele>1006.5999755859</ele>
        <time>2021-06-26T07:26:45.000Z</time>
      </trkpt>
      <trkpt lat="45.23342" lon="5.75592">
        <ele>1006</ele>
        <time>2021-06-26T07:26:46.000Z</time>
      </trkpt>
      <trkpt lat="45.23344" lon="5.75591">
        <ele>1006</ele>
        <time>2021-06-26T07:26:47.000Z</time>
      </trkpt>
      <trkpt lat="45.23346" lon="5.75588">
        <ele>1005.799987793</ele>
        <time>2021-06-26T07:26:49.000Z</time>
      </trkpt>
      <trkpt lat="45.23346" lon="5.75587">
        <ele>1005.5999755859</ele>
        <time>2021-06-26T07:26:50.000Z</time>
      </trkpt>
      <trkpt lat="45.23346" lon="5.75585">
        <ele>1005</ele>
        <time>2021-06-26T07:26:51.000Z</time>
      </trkpt>
      <trkpt lat="45.23346" lon="5.7558">
        <ele>1004</ele>
        <time>2021-06-26T07:26:53.000Z</time>
      </trkpt>
      <trkpt lat="45.23347" lon="5.75575">
        <ele>1003.4000244141</ele>
        <time>2021-06-26T07:26:55.000Z</time>
      </trkpt>
      <trkpt lat="45.23347" lon="5.75572">
        <ele>1002</ele>
        <time>2021-06-26T07:26:57.000Z</time>
      </trkpt>
      <trkpt lat="45.23348" lon="5.75569">
        <ele>1001.799987793</ele>
        <time>2021-06-26T07:26:58.000Z</time>
      </trkpt>
      <trkpt lat="45.23351" lon="5.75563">
        <ele>1000.799987793</ele>
        <time>2021-06-26T07:27:01.000Z</time>
      </trkpt>
      <trkpt lat="45.23353" lon="5.75559">
        <ele>1000.5999755859</ele>
        <time>2021-06-26T07:27:03.000Z</time>
      </trkpt>
      <trkpt lat="45.23354" lon="5.75557">
        <ele>1000.4000244141</ele>
        <time>2021-06-26T07:27:04.000Z</time>
      </trkpt>
      <trkpt lat="45.23355" lon="5.75555">
        <ele>999</ele>
        <time>2021-06-26T07:27:05.000Z</time>
      </trkpt>
      <trkpt lat="45.23358" lon="5.7555">
        <ele>997.59997558594</ele>
        <time>2021-06-26T07:27:08.000Z</time>
      </trkpt>
      <trkpt lat="45.23359" lon="5.75549">
        <ele>996.79998779297</ele>
        <time>2021-06-26T07:27:09.000Z</time>
      </trkpt>
      <trkpt lat="45.23362" lon="5.75546">
        <ele>996.40002441406</ele>
        <time>2021-06-26T07:27:11.000Z</time>
      </trkpt>
      <trkpt lat="45.23369" lon="5.75541">
        <ele>995.40002441406</ele>
        <time>2021-06-26T07:27:15.000Z</time>
      </trkpt>
      <trkpt lat="45.23372" lon="5.75538">
        <ele>993.40002441406</ele>
        <time>2021-06-26T07:27:17.000Z</time>
      </trkpt>
      <trkpt lat="45.23378" lon="5.75529">
        <ele>991.59997558594</ele>
        <time>2021-06-26T07:27:22.000Z</time>
      </trkpt>
      <trkpt lat="45.23381" lon="5.75524">
        <ele>990.40002441406</ele>
        <time>2021-06-26T07:27:25.000Z</time>
      </trkpt>
      <trkpt lat="45.23387" lon="5.75513">
        <ele>989.20001220703</ele>
        <time>2021-06-26T07:27:29.000Z</time>
      </trkpt>
      <trkpt lat="45.23391" lon="5.75506">
        <ele>988</ele>
        <time>2021-06-26T07:27:32.000Z</time>
      </trkpt>
      <trkpt lat="45.23393" lon="5.75503">
        <ele>987.59997558594</ele>
        <time>2021-06-26T07:27:33.000Z</time>
      </trkpt>
      <trkpt lat="45.23395" lon="5.75502">
        <ele>987.40002441406</ele>
        <time>2021-06-26T07:27:34.000Z</time>
      </trkpt>
      <trkpt lat="45.234" lon="5.755">
        <ele>986.79998779297</ele>
        <time>2021-06-26T07:27:36.000Z</time>
      </trkpt>
      <trkpt lat="45.23404" lon="5.75498">
        <ele>984.59997558594</ele>
        <time>2021-06-26T07:27:38.000Z</time>
      </trkpt>
      <trkpt lat="45.2341" lon="5.75495">
        <ele>984</ele>
        <time>2021-06-26T07:27:40.000Z</time>
      </trkpt>
      <trkpt lat="45.23414" lon="5.75492">
        <ele>982.59997558594</ele>
        <time>2021-06-26T07:27:43.000Z</time>
      </trkpt>
      <trkpt lat="45.23415" lon="5.75491">
        <ele>982.40002441406</ele>
        <time>2021-06-26T07:27:44.000Z</time>
      </trkpt>
      <trkpt lat="45.23423" lon="5.7549">
        <ele>980</ele>
        <time>2021-06-26T07:27:48.000Z</time>
      </trkpt>
      <trkpt lat="45.23425" lon="5.75489">
        <ele>979.79998779297</ele>
        <time>2021-06-26T07:27:49.000Z</time>
      </trkpt>
      <trkpt lat="45.23432" lon="5.75487">
        <ele>979</ele>
        <time>2021-06-26T07:27:52.000Z</time>
      </trkpt>
      <trkpt lat="45.23434" lon="5.75487">
        <ele>977.79998779297</ele>
        <time>2021-06-26T07:27:53.000Z</time>
      </trkpt>
      <trkpt lat="45.23439" lon="5.75488">
        <ele>977.40002441406</ele>
        <time>2021-06-26T07:27:55.000Z</time>
      </trkpt>
      <trkpt lat="45.23443" lon="5.75487">
        <ele>977.20001220703</ele>
        <time>2021-06-26T07:27:57.000Z</time>
      </trkpt>
      <trkpt lat="45.23444" lon="5.75486">
        <ele>976.79998779297</ele>
        <time>2021-06-26T07:27:58.000Z</time>
      </trkpt>
      <trkpt lat="45.23446" lon="5.75485">
        <ele>975.40002441406</ele>
        <time>2021-06-26T07:28:00.000Z</time>
      </trkpt>
      <trkpt lat="45.2345" lon="5.75483">
        <ele>974.40002441406</ele>
        <time>2021-06-26T07:28:02.000Z</time>
      </trkpt>
      <trkpt lat="45.23452" lon="5.75483">
        <ele>974.40002441406</ele>
        <time>2021-06-26T07:28:03.000Z</time>
      </trkpt>
      <trkpt lat="45.23455" lon="5.75482">
        <ele>974.20001220703</ele>
        <time>2021-06-26T07:28:04.000Z</time>
      </trkpt>
      <trkpt lat="45.23457" lon="5.75482">
        <ele>973.40002441406</ele>
        <time>2021-06-26T07:28:05.000Z</time>
      </trkpt>
      <trkpt lat="45.23459" lon="5.75481">
        <ele>973</ele>
        <time>2021-06-26T07:28:06.000Z</time>
      </trkpt>
      <trkpt lat="45.23464" lon="5.75479">
        <ele>972</ele>
        <time>2021-06-26T07:28:08.000Z</time>
      </trkpt>
      <trkpt lat="45.23471" lon="5.75474">
        <ele>970.79998779297</ele>
        <time>2021-06-26T07:28:11.000Z</time>
      </trkpt>
      <trkpt lat="45.23473" lon="5.75474">
        <ele>970.59997558594</ele>
        <time>2021-06-26T07:28:12.000Z</time>
      </trkpt>
      <trkpt lat="45.23474" lon="5.75474">
        <ele>969.20001220703</ele>
        <time>2021-06-26T07:28:13.000Z</time>
      </trkpt>
      <trkpt lat="45.23472" lon="5.75473">
        <ele>968.79998779297</ele>
        <time>2021-06-26T07:28:16.000Z</time>
      </trkpt>
      <trkpt lat="45.23472" lon="5.75475">
        <ele>967.79998779297</ele>
        <time>2021-06-26T07:28:18.000Z</time>
      </trkpt>
      <trkpt lat="45.2347" lon="5.75476">
        <ele>966.40002441406</ele>
        <time>2021-06-26T07:28:20.000Z</time>
      </trkpt>
      <trkpt lat="45.2347" lon="5.75476">
        <ele>966.40002441406</ele>
        <time>2021-06-26T07:28:21.000Z</time>
      </trkpt>
      <trkpt lat="45.23469" lon="5.75476">
        <ele>965.40002441406</ele>
        <time>2021-06-26T07:28:22.000Z</time>
      </trkpt>
      <trkpt lat="45.23468" lon="5.75477">
        <ele>964.79998779297</ele>
        <time>2021-06-26T07:28:23.000Z</time>
      </trkpt>
      <trkpt lat="45.23467" lon="5.75477">
        <ele>964</ele>
        <time>2021-06-26T07:28:24.000Z</time>
      </trkpt>
      <trkpt lat="45.23463" lon="5.75477">
        <ele>962.79998779297</ele>
        <time>2021-06-26T07:28:27.000Z</time>
      </trkpt>
      <trkpt lat="45.23459" lon="5.75479">
        <ele>962</ele>
        <time>2021-06-26T07:28:31.000Z</time>
      </trkpt>
      <trkpt lat="45.23459" lon="5.75479">
        <ele>961.20001220703</ele>
        <time>2021-06-26T07:28:32.000Z</time>
      </trkpt>
      <trkpt lat="45.23457" lon="5.75479">
        <ele>960</ele>
        <time>2021-06-26T07:28:35.000Z</time>
      </trkpt>
      <trkpt lat="45.23455" lon="5.75478">
        <ele>959.40002441406</ele>
        <time>2021-06-26T07:28:37.000Z</time>
      </trkpt>
      <trkpt lat="45.23452" lon="5.75477">
        <ele>958.59997558594</ele>
        <time>2021-06-26T07:28:39.000Z</time>
      </trkpt>
      <trkpt lat="45.23447" lon="5.75474">
        <ele>956.79998779297</ele>
        <time>2021-06-26T07:28:41.000Z</time>
      </trkpt>
      <trkpt lat="45.23445" lon="5.75474">
        <ele>956.59997558594</ele>
        <time>2021-06-26T07:28:42.000Z</time>
      </trkpt>
      <trkpt lat="45.23441" lon="5.75473">
        <ele>955.79998779297</ele>
        <time>2021-06-26T07:28:44.000Z</time>
      </trkpt>
      <trkpt lat="45.2344" lon="5.75473">
        <ele>954.20001220703</ele>
        <time>2021-06-26T07:28:46.000Z</time>
      </trkpt>
      <trkpt lat="45.23439" lon="5.75473">
        <ele>954.20001220703</ele>
        <time>2021-06-26T07:28:47.000Z</time>
      </trkpt>
      <trkpt lat="45.23437" lon="5.75472">
        <ele>952.40002441406</ele>
        <time>2021-06-26T07:28:49.000Z</time>
      </trkpt>
      <trkpt lat="45.23433" lon="5.75471">
        <ele>952.20001220703</ele>
        <time>2021-06-26T07:28:51.000Z</time>
      </trkpt>
      <trkpt lat="45.23431" lon="5.75471">
        <ele>952</ele>
        <time>2021-06-26T07:28:52.000Z</time>
      </trkpt>
      <trkpt lat="45.23424" lon="5.7547">
        <ele>950.59997558594</ele>
        <time>2021-06-26T07:28:54.000Z</time>
      </trkpt>
      <trkpt lat="45.23417" lon="5.75468">
        <ele>950.40002441406</ele>
        <time>2021-06-26T07:28:56.000Z</time>
      </trkpt>
      <trkpt lat="45.2341" lon="5.75464">
        <ele>949.40002441406</ele>
        <time>2021-06-26T07:28:58.000Z</time>
      </trkpt>
      <trkpt lat="45.23406" lon="5.75461">
        <ele>947.79998779297</ele>
        <time>2021-06-26T07:29:00.000Z</time>
      </trkpt>
      <trkpt lat="45.23405" lon="5.75461">
        <ele>947.79998779297</ele>
        <time>2021-06-26T07:29:01.000Z</time>
      </trkpt>
      <trkpt lat="45.23402" lon="5.75462">
        <ele>947.20001220703</ele>
        <time>2021-06-26T07:29:03.000Z</time>
      </trkpt>
      <trkpt lat="45.23397" lon="5.75462">
        <ele>946.20001220703</ele>
        <time>2021-06-26T07:29:05.000Z</time>
      </trkpt>
      <trkpt lat="45.23396" lon="5.75462">
        <ele>946</ele>
        <time>2021-06-26T07:29:06.000Z</time>
      </trkpt>
      <trkpt lat="45.23395" lon="5.75462">
        <ele>945.20001220703</ele>
        <time>2021-06-26T07:29:07.000Z</time>
      </trkpt>
      <trkpt lat="45.2339" lon="5.75463">
        <ele>944.59997558594</ele>
        <time>2021-06-26T07:29:09.000Z</time>
      </trkpt>
      <trkpt lat="45.23385" lon="5.75464">
        <ele>943.79998779297</ele>
        <time>2021-06-26T07:29:11.000Z</time>
      </trkpt>
      <trkpt lat="45.23374" lon="5.75463">
        <ele>942.40002441406</ele>
        <time>2021-06-26T07:29:15.000Z</time>
      </trkpt>
      <trkpt lat="45.23371" lon="5.75463">
        <ele>942</ele>
        <time>2021-06-26T07:29:16.000Z</time>
      </trkpt>
      <trkpt lat="45.23368" lon="5.75463">
        <ele>941.40002441406</ele>
        <time>2021-06-26T07:29:17.000Z</time>
      </trkpt>
      <trkpt lat="45.23365" lon="5.75462">
        <ele>940.40002441406</ele>
        <time>2021-06-26T07:29:18.000Z</time>
      </trkpt>
      <trkpt lat="45.2336" lon="5.75462">
        <ele>939.79998779297</ele>
        <time>2021-06-26T07:29:21.000Z</time>
      </trkpt>
      <trkpt lat="45.23354" lon="5.75464">
        <ele>938.40002441406</ele>
        <time>2021-06-26T07:29:24.000Z</time>
      </trkpt>
      <trkpt lat="45.2335" lon="5.75467">
        <ele>937</ele>
        <time>2021-06-26T07:29:26.000Z</time>
      </trkpt>
      <trkpt lat="45.23347" lon="5.75469">
        <ele>935.59997558594</ele>
        <time>2021-06-26T07:29:28.000Z</time>
      </trkpt>
      <trkpt lat="45.23346" lon="5.7547">
        <ele>935.59997558594</ele>
        <time>2021-06-26T07:29:29.000Z</time>
      </trkpt>
      <trkpt lat="45.23341" lon="5.75471">
        <ele>935.59997558594</ele>
        <time>2021-06-26T07:29:31.000Z</time>
      </trkpt>
      <trkpt lat="45.23336" lon="5.75472">
        <ele>934.59997558594</ele>
        <time>2021-06-26T07:29:33.000Z</time>
      </trkpt>
      <trkpt lat="45.23335" lon="5.75472">
        <ele>934.40002441406</ele>
        <time>2021-06-26T07:29:34.000Z</time>
      </trkpt>
      <trkpt lat="45.23332" lon="5.75474">
        <ele>932.79998779297</ele>
        <time>2021-06-26T07:29:36.000Z</time>
      </trkpt>
      <trkpt lat="45.23319" lon="5.75473">
        <ele>931</ele>
        <time>2021-06-26T07:29:41.000Z</time>
      </trkpt>
      <trkpt lat="45.23315" lon="5.75474">
        <ele>929.20001220703</ele>
        <time>2021-06-26T07:29:43.000Z</time>
      </trkpt>
      <trkpt lat="45.23307" lon="5.7548">
        <ele>927.79998779297</ele>
        <time>2021-06-26T07:29:48.000Z</time>
      </trkpt>
      <trkpt lat="45.23306" lon="5.75481">
        <ele>927</ele>
        <time>2021-06-26T07:29:49.000Z</time>
      </trkpt>
      <trkpt lat="45.23306" lon="5.75483">
        <ele>927</ele>
        <time>2021-06-26T07:29:50.000Z</time>
      </trkpt>
      <trkpt lat="45.23305" lon="5.75484">
        <ele>926.20001220703</ele>
        <time>2021-06-26T07:29:51.000Z</time>
      </trkpt>
      <trkpt lat="45.23306" lon="5.75485">
        <ele>926.20001220703</ele>
        <time>2021-06-26T07:29:52.000Z</time>
      </trkpt>
      <trkpt lat="45.23303" lon="5.75487">
        <ele>925.59997558594</ele>
        <time>2021-06-26T07:29:54.000Z</time>
      </trkpt>
      <trkpt lat="45.233" lon="5.75487">
        <ele>924.79998779297</ele>
        <time>2021-06-26T07:29:55.000Z</time>
      </trkpt>
      <trkpt lat="45.23295" lon="5.7549">
        <ele>924.20001220703</ele>
        <time>2021-06-26T07:29:58.000Z</time>
      </trkpt>
      <trkpt lat="45.23293" lon="5.75491">
        <ele>923.40002441406</ele>
        <time>2021-06-26T07:29:59.000Z</time>
      </trkpt>
      <trkpt lat="45.23289" lon="5.75491">
        <ele>922.40002441406</ele>
        <time>2021-06-26T07:30:01.000Z</time>
      </trkpt>
      <trkpt lat="45.23281" lon="5.75491">
        <ele>920.79998779297</ele>
        <time>2021-06-26T07:30:05.000Z</time>
      </trkpt>
      <trkpt lat="45.2328" lon="5.75491">
        <ele>920.40002441406</ele>
        <time>2021-06-26T07:30:06.000Z</time>
      </trkpt>
      <trkpt lat="45.23276" lon="5.75492">
        <ele>919.59997558594</ele>
        <time>2021-06-26T07:30:08.000Z</time>
      </trkpt>
      <trkpt lat="45.2327" lon="5.75493">
        <ele>919.20001220703</ele>
        <time>2021-06-26T07:30:11.000Z</time>
      </trkpt>
      <trkpt lat="45.23267" lon="5.75492">
        <ele>918.20001220703</ele>
        <time>2021-06-26T07:30:12.000Z</time>
      </trkpt>
      <trkpt lat="45.23266" lon="5.75483">
        <ele>917.40002441406</ele>
        <time>2021-06-26T07:30:15.000Z</time>
      </trkpt>
      <trkpt lat="45.23267" lon="5.75481">
        <ele>917</ele>
        <time>2021-06-26T07:30:16.000Z</time>
      </trkpt>
      <trkpt lat="45.23269" lon="5.75474">
        <ele>915.79998779297</ele>
        <time>2021-06-26T07:30:19.000Z</time>
      </trkpt>
      <trkpt lat="45.23273" lon="5.7547">
        <ele>915</ele>
        <time>2021-06-26T07:30:22.000Z</time>
      </trkpt>
      <trkpt lat="45.23274" lon="5.75469">
        <ele>914.59997558594</ele>
        <time>2021-06-26T07:30:23.000Z</time>
      </trkpt>
      <trkpt lat="45.23277" lon="5.75465">
        <ele>913.20001220703</ele>
        <time>2021-06-26T07:30:27.000Z</time>
      </trkpt>
      <trkpt lat="45.2328" lon="5.75462">
        <ele>912.79998779297</ele>
        <time>2021-06-26T07:30:29.000Z</time>
      </trkpt>
      <trkpt lat="45.23281" lon="5.7546">
        <ele>912.40002441406</ele>
        <time>2021-06-26T07:30:30.000Z</time>
      </trkpt>
      <trkpt lat="45.23281" lon="5.75459">
        <ele>912</ele>
        <time>2021-06-26T07:30:31.000Z</time>
      </trkpt>
      <trkpt lat="45.23284" lon="5.75449">
        <ele>910.59997558594</ele>
        <time>2021-06-26T07:30:35.000Z</time>
      </trkpt>
      <trkpt lat="45.2329" lon="5.75444">
        <ele>909.40002441406</ele>
        <time>2021-06-26T07:30:39.000Z</time>
      </trkpt>
      <trkpt lat="45.23293" lon="5.75437">
        <ele>908</ele>
        <time>2021-06-26T07:30:43.000Z</time>
      </trkpt>
      <trkpt lat="45.23294" lon="5.75434">
        <ele>907.79998779297</ele>
        <time>2021-06-26T07:30:44.000Z</time>
      </trkpt>
      <trkpt lat="45.23295" lon="5.75433">
        <ele>907.59997558594</ele>
        <time>2021-06-26T07:30:45.000Z</time>
      </trkpt>
      <trkpt lat="45.23296" lon="5.7543">
        <ele>906.79998779297</ele>
        <time>2021-06-26T07:30:47.000Z</time>
      </trkpt>
      <trkpt lat="45.23298" lon="5.75425">
        <ele>905.79998779297</ele>
        <time>2021-06-26T07:30:50.000Z</time>
      </trkpt>
      <trkpt lat="45.233" lon="5.75424">
        <ele>905.20001220703</ele>
        <time>2021-06-26T07:30:51.000Z</time>
      </trkpt>
      <trkpt lat="45.23304" lon="5.75417">
        <ele>904.20001220703</ele>
        <time>2021-06-26T07:30:55.000Z</time>
      </trkpt>
      <trkpt lat="45.23306" lon="5.75414">
        <ele>903.79998779297</ele>
        <time>2021-06-26T07:30:57.000Z</time>
      </trkpt>
      <trkpt lat="45.23309" lon="5.7541">
        <ele>901.79998779297</ele>
        <time>2021-06-26T07:30:59.000Z</time>
      </trkpt>
      <trkpt lat="45.23311" lon="5.75407">
        <ele>901.20001220703</ele>
        <time>2021-06-26T07:31:01.000Z</time>
      </trkpt>
      <trkpt lat="45.23313" lon="5.75402">
        <ele>901</ele>
        <time>2021-06-26T07:31:03.000Z</time>
      </trkpt>
      <trkpt lat="45.23313" lon="5.75399">
        <ele>900.79998779297</ele>
        <time>2021-06-26T07:31:04.000Z</time>
      </trkpt>
      <trkpt lat="45.23315" lon="5.75395">
        <ele>899.20001220703</ele>
        <time>2021-06-26T07:31:06.000Z</time>
      </trkpt>
      <trkpt lat="45.23316" lon="5.75394">
        <ele>899.20001220703</ele>
        <time>2021-06-26T07:31:07.000Z</time>
      </trkpt>
      <trkpt lat="45.23318" lon="5.75389">
        <ele>898.20001220703</ele>
        <time>2021-06-26T07:31:09.000Z</time>
      </trkpt>
      <trkpt lat="45.23322" lon="5.75378">
        <ele>896.79998779297</ele>
        <time>2021-06-26T07:31:13.000Z</time>
      </trkpt>
      <trkpt lat="45.23323" lon="5.75376">
        <ele>896.59997558594</ele>
        <time>2021-06-26T07:31:14.000Z</time>
      </trkpt>
      <trkpt lat="45.23326" lon="5.75375">
        <ele>895.20001220703</ele>
        <time>2021-06-26T07:31:16.000Z</time>
      </trkpt>
      <trkpt lat="45.23329" lon="5.75369">
        <ele>894</ele>
        <time>2021-06-26T07:31:19.000Z</time>
      </trkpt>
      <trkpt lat="45.23334" lon="5.75361">
        <ele>893.20001220703</ele>
        <time>2021-06-26T07:31:23.000Z</time>
      </trkpt>
      <trkpt lat="45.23337" lon="5.7536">
        <ele>892.59997558594</ele>
        <time>2021-06-26T07:31:25.000Z</time>
      </trkpt>
      <trkpt lat="45.23338" lon="5.75358">
        <ele>892.40002441406</ele>
        <time>2021-06-26T07:31:26.000Z</time>
      </trkpt>
      <trkpt lat="45.2334" lon="5.75358">
        <ele>892</ele>
        <time>2021-06-26T07:31:27.000Z</time>
      </trkpt>
      <trkpt lat="45.23341" lon="5.75358">
        <ele>891.40002441406</ele>
        <time>2021-06-26T07:31:28.000Z</time>
      </trkpt>
      <trkpt lat="45.23345" lon="5.75355">
        <ele>891</ele>
        <time>2021-06-26T07:31:30.000Z</time>
      </trkpt>
      <trkpt lat="45.23347" lon="5.75354">
        <ele>890.79998779297</ele>
        <time>2021-06-26T07:31:32.000Z</time>
      </trkpt>
      <trkpt lat="45.23349" lon="5.75354">
        <ele>889.79998779297</ele>
        <time>2021-06-26T07:31:33.000Z</time>
      </trkpt>
      <trkpt lat="45.2335" lon="5.75352">
        <ele>889.40002441406</ele>
        <time>2021-06-26T07:31:34.000Z</time>
      </trkpt>
      <trkpt lat="45.2335" lon="5.75351">
        <ele>889.40002441406</ele>
        <time>2021-06-26T07:31:35.000Z</time>
      </trkpt>
      <trkpt lat="45.23351" lon="5.7535">
        <ele>888.79998779297</ele>
        <time>2021-06-26T07:31:36.000Z</time>
      </trkpt>
      <trkpt lat="45.23353" lon="5.7535">
        <ele>888.20001220703</ele>
        <time>2021-06-26T07:31:37.000Z</time>
      </trkpt>
      <trkpt lat="45.23355" lon="5.75347">
        <ele>887.59997558594</ele>
        <time>2021-06-26T07:31:39.000Z</time>
      </trkpt>
      <trkpt lat="45.23358" lon="5.75344">
        <ele>887.40002441406</ele>
        <time>2021-06-26T07:31:41.000Z</time>
      </trkpt>
      <trkpt lat="45.23359" lon="5.75343">
        <ele>886.20001220703</ele>
        <time>2021-06-26T07:31:42.000Z</time>
      </trkpt>
      <trkpt lat="45.23363" lon="5.75343">
        <ele>885.79998779297</ele>
        <time>2021-06-26T07:31:44.000Z</time>
      </trkpt>
      <trkpt lat="45.23366" lon="5.75345">
        <ele>885.40002441406</ele>
        <time>2021-06-26T07:31:46.000Z</time>
      </trkpt>
      <trkpt lat="45.23367" lon="5.75344">
        <ele>884.40002441406</ele>
        <time>2021-06-26T07:31:47.000Z</time>
      </trkpt>
      <trkpt lat="45.2337" lon="5.75341">
        <ele>883.40002441406</ele>
        <time>2021-06-26T07:31:50.000Z</time>
      </trkpt>
      <trkpt lat="45.23373" lon="5.75338">
        <ele>882.20001220703</ele>
        <time>2021-06-26T07:31:53.000Z</time>
      </trkpt>
      <trkpt lat="45.23375" lon="5.75337">
        <ele>882</ele>
        <time>2021-06-26T07:31:54.000Z</time>
      </trkpt>
      <trkpt lat="45.23379" lon="5.75334">
        <ele>880.59997558594</ele>
        <time>2021-06-26T07:31:57.000Z</time>
      </trkpt>
      <trkpt lat="45.23383" lon="5.7533">
        <ele>880.20001220703</ele>
        <time>2021-06-26T07:32:00.000Z</time>
      </trkpt>
      <trkpt lat="45.23385" lon="5.75329">
        <ele>879.79998779297</ele>
        <time>2021-06-26T07:32:01.000Z</time>
      </trkpt>
      <trkpt lat="45.23386" lon="5.75328">
        <ele>879.79998779297</ele>
        <time>2021-06-26T07:32:02.000Z</time>
      </trkpt>
      <trkpt lat="45.23387" lon="5.75327">
        <ele>879.40002441406</ele>
        <time>2021-06-26T07:32:03.000Z</time>
      </trkpt>
      <trkpt lat="45.23389" lon="5.75327">
        <ele>879.20001220703</ele>
        <time>2021-06-26T07:32:04.000Z</time>
      </trkpt>
      <trkpt lat="45.23392" lon="5.75325">
        <ele>878.20001220703</ele>
        <time>2021-06-26T07:32:05.000Z</time>
      </trkpt>
      <trkpt lat="45.23398" lon="5.75323">
        <ele>877.20001220703</ele>
        <time>2021-06-26T07:32:08.000Z</time>
      </trkpt>
      <trkpt lat="45.23398" lon="5.75322">
        <ele>876.59997558594</ele>
        <time>2021-06-26T07:32:09.000Z</time>
      </trkpt>
      <trkpt lat="45.23399" lon="5.75321">
        <ele>876.59997558594</ele>
        <time>2021-06-26T07:32:10.000Z</time>
      </trkpt>
      <trkpt lat="45.23399" lon="5.75319">
        <ele>875.20001220703</ele>
        <time>2021-06-26T07:32:12.000Z</time>
      </trkpt>
      <trkpt lat="45.23397" lon="5.75316">
        <ele>873.59997558594</ele>
        <time>2021-06-26T07:32:16.000Z</time>
      </trkpt>
      <trkpt lat="45.23397" lon="5.75314">
        <ele>873.59997558594</ele>
        <time>2021-06-26T07:32:17.000Z</time>
      </trkpt>
      <trkpt lat="45.23396" lon="5.7531">
        <ele>872.59997558594</ele>
        <time>2021-06-26T07:32:19.000Z</time>
      </trkpt>
      <trkpt lat="45.23398" lon="5.75304">
        <ele>872.20001220703</ele>
        <time>2021-06-26T07:32:21.000Z</time>
      </trkpt>
      <trkpt lat="45.234" lon="5.75298">
        <ele>870.40002441406</ele>
        <time>2021-06-26T07:32:23.000Z</time>
      </trkpt>
      <trkpt lat="45.23405" lon="5.75291">
        <ele>869.40002441406</ele>
        <time>2021-06-26T07:32:26.000Z</time>
      </trkpt>
      <trkpt lat="45.23409" lon="5.75283">
        <ele>868.59997558594</ele>
        <time>2021-06-26T07:32:29.000Z</time>
      </trkpt>
      <trkpt lat="45.2341" lon="5.7528">
        <ele>867.40002441406</ele>
        <time>2021-06-26T07:32:30.000Z</time>
      </trkpt>
      <trkpt lat="45.23415" lon="5.75271">
        <ele>866.20001220703</ele>
        <time>2021-06-26T07:32:33.000Z</time>
      </trkpt>
      <trkpt lat="45.23419" lon="5.75264">
        <ele>864</ele>
        <time>2021-06-26T07:32:36.000Z</time>
      </trkpt>
      <trkpt lat="45.23421" lon="5.75263">
        <ele>863.79998779297</ele>
        <time>2021-06-26T07:32:37.000Z</time>
      </trkpt>
      <trkpt lat="45.23424" lon="5.75257">
        <ele>863</ele>
        <time>2021-06-26T07:32:39.000Z</time>
      </trkpt>
      <trkpt lat="45.23425" lon="5.75255">
        <ele>863</ele>
        <time>2021-06-26T07:32:40.000Z</time>
      </trkpt>
      <trkpt lat="45.23426" lon="5.75252">
        <ele>862</ele>
        <time>2021-06-26T07:32:41.000Z</time>
      </trkpt>
      <trkpt lat="45.23426" lon="5.7525">
        <ele>861.59997558594</ele>
        <time>2021-06-26T07:32:42.000Z</time>
      </trkpt>
      <trkpt lat="45.2343" lon="5.75245">
        <ele>860.59997558594</ele>
        <time>2021-06-26T07:32:45.000Z</time>
      </trkpt>
      <trkpt lat="45.2343" lon="5.75242">
        <ele>859.40002441406</ele>
        <time>2021-06-26T07:32:46.000Z</time>
      </trkpt>
      <trkpt lat="45.23432" lon="5.75239">
        <ele>859.20001220703</ele>
        <time>2021-06-26T07:32:47.000Z</time>
      </trkpt>
      <trkpt lat="45.23435" lon="5.75234">
        <ele>858.20001220703</ele>
        <time>2021-06-26T07:32:50.000Z</time>
      </trkpt>
      <trkpt lat="45.23439" lon="5.7523">
        <ele>858</ele>
        <time>2021-06-26T07:32:52.000Z</time>
      </trkpt>
      <trkpt lat="45.23443" lon="5.75226">
        <ele>856.79998779297</ele>
        <time>2021-06-26T07:32:54.000Z</time>
      </trkpt>
      <trkpt lat="45.23447" lon="5.75223">
        <ele>855</ele>
        <time>2021-06-26T07:32:56.000Z</time>
      </trkpt>
      <trkpt lat="45.23455" lon="5.75215">
        <ele>853.79998779297</ele>
        <time>2021-06-26T07:33:00.000Z</time>
      </trkpt>
      <trkpt lat="45.23456" lon="5.75213">
        <ele>852.79998779297</ele>
        <time>2021-06-26T07:33:01.000Z</time>
      </trkpt>
      <trkpt lat="45.23464" lon="5.75202">
        <ele>851.40002441406</ele>
        <time>2021-06-26T07:33:05.000Z</time>
      </trkpt>
      <trkpt lat="45.23466" lon="5.752">
        <ele>850.79998779297</ele>
        <time>2021-06-26T07:33:06.000Z</time>
      </trkpt>
      <trkpt lat="45.23469" lon="5.75198">
        <ele>850</ele>
        <time>2021-06-26T07:33:08.000Z</time>
      </trkpt>
      <trkpt lat="45.23472" lon="5.75194">
        <ele>848.59997558594</ele>
        <time>2021-06-26T07:33:10.000Z</time>
      </trkpt>
      <trkpt lat="45.23475" lon="5.75189">
        <ele>848.20001220703</ele>
        <time>2021-06-26T07:33:12.000Z</time>
      </trkpt>
      <trkpt lat="45.23477" lon="5.75186">
        <ele>847.59997558594</ele>
        <time>2021-06-26T07:33:14.000Z</time>
      </trkpt>
      <trkpt lat="45.23481" lon="5.75179">
        <ele>846.20001220703</ele>
        <time>2021-06-26T07:33:17.000Z</time>
      </trkpt>
      <trkpt lat="45.23482" lon="5.75176">
        <ele>845.79998779297</ele>
        <time>2021-06-26T07:33:18.000Z</time>
      </trkpt>
      <trkpt lat="45.23484" lon="5.75175">
        <ele>845.59997558594</ele>
        <time>2021-06-26T07:33:19.000Z</time>
      </trkpt>
      <trkpt lat="45.23485" lon="5.75173">
        <ele>845.20001220703</ele>
        <time>2021-06-26T07:33:20.000Z</time>
      </trkpt>
      <trkpt lat="45.23488" lon="5.75169">
        <ele>844.20001220703</ele>
        <time>2021-06-26T07:33:22.000Z</time>
      </trkpt>
      <trkpt lat="45.23491" lon="5.75167">
        <ele>843.20001220703</ele>
        <time>2021-06-26T07:33:24.000Z</time>
      </trkpt>
      <trkpt lat="45.23493" lon="5.75166">
        <ele>843</ele>
        <time>2021-06-26T07:33:25.000Z</time>
      </trkpt>
      <trkpt lat="45.23496" lon="5.75162">
        <ele>842</ele>
        <time>2021-06-26T07:33:27.000Z</time>
      </trkpt>
      <trkpt lat="45.23498" lon="5.75157">
        <ele>841</ele>
        <time>2021-06-26T07:33:30.000Z</time>
      </trkpt>
      <trkpt lat="45.23499" lon="5.75157">
        <ele>840.59997558594</ele>
        <time>2021-06-26T07:33:31.000Z</time>
      </trkpt>
      <trkpt lat="45.23502" lon="5.75155">
        <ele>839.59997558594</ele>
        <time>2021-06-26T07:33:34.000Z</time>
      </trkpt>
      <trkpt lat="45.23505" lon="5.75152">
        <ele>838.79998779297</ele>
        <time>2021-06-26T07:33:37.000Z</time>
      </trkpt>
      <trkpt lat="45.23508" lon="5.7515">
        <ele>838.20001220703</ele>
        <time>2021-06-26T07:33:39.000Z</time>
      </trkpt>
      <trkpt lat="45.23512" lon="5.75147">
        <ele>837</ele>
        <time>2021-06-26T07:33:41.000Z</time>
      </trkpt>
      <trkpt lat="45.23515" lon="5.75145">
        <ele>836.40002441406</ele>
        <time>2021-06-26T07:33:43.000Z</time>
      </trkpt>
      <trkpt lat="45.23517" lon="5.75144">
        <ele>835.59997558594</ele>
        <time>2021-06-26T07:33:44.000Z</time>
      </trkpt>
      <trkpt lat="45.2352" lon="5.75141">
        <ele>835.59997558594</ele>
        <time>2021-06-26T07:33:46.000Z</time>
      </trkpt>
      <trkpt lat="45.23527" lon="5.75136">
        <ele>833.79998779297</ele>
        <time>2021-06-26T07:33:49.000Z</time>
      </trkpt>
      <trkpt lat="45.23534" lon="5.75132">
        <ele>832.59997558594</ele>
        <time>2021-06-26T07:33:52.000Z</time>
      </trkpt>
      <trkpt lat="45.23539" lon="5.7513">
        <ele>831.20001220703</ele>
        <time>2021-06-26T07:33:55.000Z</time>
      </trkpt>
      <trkpt lat="45.23546" lon="5.75128">
        <ele>830.40002441406</ele>
        <time>2021-06-26T07:33:58.000Z</time>
      </trkpt>
      <trkpt lat="45.23548" lon="5.75128">
        <ele>829.59997558594</ele>
        <time>2021-06-26T07:33:59.000Z</time>
      </trkpt>
      <trkpt lat="45.23552" lon="5.75126">
        <ele>828.20001220703</ele>
        <time>2021-06-26T07:34:01.000Z</time>
      </trkpt>
      <trkpt lat="45.23556" lon="5.75125">
        <ele>827.59997558594</ele>
        <time>2021-06-26T07:34:03.000Z</time>
      </trkpt>
      <trkpt lat="45.23558" lon="5.75124">
        <ele>827.40002441406</ele>
        <time>2021-06-26T07:34:04.000Z</time>
      </trkpt>
      <trkpt lat="45.2356" lon="5.75125">
        <ele>826.59997558594</ele>
        <time>2021-06-26T07:34:05.000Z</time>
      </trkpt>
      <trkpt lat="45.23567" lon="5.75124">
        <ele>825.40002441406</ele>
        <time>2021-06-26T07:34:09.000Z</time>
      </trkpt>
      <trkpt lat="45.23567" lon="5.75124">
        <ele>824.40002441406</ele>
        <time>2021-06-26T07:34:11.000Z</time>
      </trkpt>
      <trkpt lat="45.23566" lon="5.75124">
        <ele>824.20001220703</ele>
        <time>2021-06-26T07:34:12.000Z</time>
      </trkpt>
      <trkpt lat="45.23563" lon="5.75123">
        <ele>823.40002441406</ele>
        <time>2021-06-26T07:34:14.000Z</time>
      </trkpt>
      <trkpt lat="45.2356" lon="5.75122">
        <ele>822.40002441406</ele>
        <time>2021-06-26T07:34:16.000Z</time>
      </trkpt>
      <trkpt lat="45.23558" lon="5.75121">
        <ele>822.20001220703</ele>
        <time>2021-06-26T07:34:17.000Z</time>
      </trkpt>
      <trkpt lat="45.23555" lon="5.75119">
        <ele>821.20001220703</ele>
        <time>2021-06-26T07:34:19.000Z</time>
      </trkpt>
      <trkpt lat="45.23551" lon="5.75116">
        <ele>819.79998779297</ele>
        <time>2021-06-26T07:34:22.000Z</time>
      </trkpt>
      <trkpt lat="45.23549" lon="5.75115">
        <ele>818.79998779297</ele>
        <time>2021-06-26T07:34:23.000Z</time>
      </trkpt>
      <trkpt lat="45.23547" lon="5.75114">
        <ele>818.79998779297</ele>
        <time>2021-06-26T07:34:24.000Z</time>
      </trkpt>
      <trkpt lat="45.23546" lon="5.75112">
        <ele>818.20001220703</ele>
        <time>2021-06-26T07:34:25.000Z</time>
      </trkpt>
      <trkpt lat="45.23544" lon="5.7511">
        <ele>817.79998779297</ele>
        <time>2021-06-26T07:34:26.000Z</time>
      </trkpt>
      <trkpt lat="45.23543" lon="5.75106">
        <ele>816.79998779297</ele>
        <time>2021-06-26T07:34:29.000Z</time>
      </trkpt>
      <trkpt lat="45.23543" lon="5.75104">
        <ele>816.59997558594</ele>
        <time>2021-06-26T07:34:30.000Z</time>
      </trkpt>
      <trkpt lat="45.23541" lon="5.75102">
        <ele>815.79998779297</ele>
        <time>2021-06-26T07:34:31.000Z</time>
      </trkpt>
      <trkpt lat="45.2354" lon="5.75101">
        <ele>815.40002441406</ele>
        <time>2021-06-26T07:34:32.000Z</time>
      </trkpt>
      <trkpt lat="45.23537" lon="5.75097">
        <ele>815</ele>
        <time>2021-06-26T07:34:34.000Z</time>
      </trkpt>
      <trkpt lat="45.23528" lon="5.75091">
        <ele>813.79998779297</ele>
        <time>2021-06-26T07:34:37.000Z</time>
      </trkpt>
      <trkpt lat="45.23522" lon="5.75089">
        <ele>813.40002441406</ele>
        <time>2021-06-26T07:34:39.000Z</time>
      </trkpt>
      <trkpt lat="45.23508" lon="5.75087">
        <ele>813</ele>
        <time>2021-06-26T07:34:44.000Z</time>
      </trkpt>
      <trkpt lat="45.23503" lon="5.75088">
        <ele>812.40002441406</ele>
        <time>2021-06-26T07:34:46.000Z</time>
      </trkpt>
      <trkpt lat="45.23491" lon="5.7509">
        <ele>811.40002441406</ele>
        <time>2021-06-26T07:34:51.000Z</time>
      </trkpt>
      <trkpt lat="45.23486" lon="5.7509">
        <ele>811.20001220703</ele>
        <time>2021-06-26T07:34:53.000Z</time>
      </trkpt>
      <trkpt lat="45.23474" lon="5.75094">
        <ele>810.40002441406</ele>
        <time>2021-06-26T07:34:58.000Z</time>
      </trkpt>
      <trkpt lat="45.23471" lon="5.75096">
        <ele>810.20001220703</ele>
        <time>2021-06-26T07:34:59.000Z</time>
      </trkpt>
      <trkpt lat="45.23456" lon="5.75096">
        <ele>809.40002441406</ele>
        <time>2021-06-26T07:35:05.000Z</time>
      </trkpt>
      <trkpt lat="45.23453" lon="5.75096">
        <ele>808.59997558594</ele>
        <time>2021-06-26T07:35:06.000Z</time>
      </trkpt>
      <trkpt lat="45.23441" lon="5.75097">
        <ele>807.20001220703</ele>
        <time>2021-06-26T07:35:10.000Z</time>
      </trkpt>
      <trkpt lat="45.23433" lon="5.75098">
        <ele>806.20001220703</ele>
        <time>2021-06-26T07:35:13.000Z</time>
      </trkpt>
      <trkpt lat="45.23417" lon="5.75099">
        <ele>805</ele>
        <time>2021-06-26T07:35:19.000Z</time>
      </trkpt>
      <trkpt lat="45.23415" lon="5.751">
        <ele>805</ele>
        <time>2021-06-26T07:35:20.000Z</time>
      </trkpt>
      <trkpt lat="45.23402" lon="5.75103">
        <ele>804.59997558594</ele>
        <time>2021-06-26T07:35:25.000Z</time>
      </trkpt>
      <trkpt lat="45.234" lon="5.75104">
        <ele>804.40002441406</ele>
        <time>2021-06-26T07:35:26.000Z</time>
      </trkpt>
      <trkpt lat="45.23389" lon="5.75107">
        <ele>804</ele>
        <time>2021-06-26T07:35:30.000Z</time>
      </trkpt>
      <trkpt lat="45.23385" lon="5.75109">
        <ele>804.20001220703</ele>
        <time>2021-06-26T07:35:32.000Z</time>
      </trkpt>
      <trkpt lat="45.23366" lon="5.75113">
        <ele>802.79998779297</ele>
        <time>2021-06-26T07:35:39.000Z</time>
      </trkpt>
      <trkpt lat="45.2336" lon="5.75114">
        <ele>802.40002441406</ele>
        <time>2021-06-26T07:35:41.000Z</time>
      </trkpt>
      <trkpt lat="45.23352" lon="5.75113">
        <ele>801.79998779297</ele>
        <time>2021-06-26T07:35:44.000Z</time>
      </trkpt>
      <trkpt lat="45.23349" lon="5.75113">
        <ele>801.59997558594</ele>
        <time>2021-06-26T07:35:45.000Z</time>
      </trkpt>
      <trkpt lat="45.2334" lon="5.75114">
        <ele>800.59997558594</ele>
        <time>2021-06-26T07:35:49.000Z</time>
      </trkpt>
      <trkpt lat="45.23337" lon="5.75114">
        <ele>800.40002441406</ele>
        <time>2021-06-26T07:35:50.000Z</time>
      </trkpt>
      <trkpt lat="45.23334" lon="5.75115">
        <ele>799.59997558594</ele>
        <time>2021-06-26T07:35:51.000Z</time>
      </trkpt>
      <trkpt lat="45.23324" lon="5.75116">
        <ele>798.59997558594</ele>
        <time>2021-06-26T07:35:55.000Z</time>
      </trkpt>
      <trkpt lat="45.23322" lon="5.75114">
        <ele>798.59997558594</ele>
        <time>2021-06-26T07:35:56.000Z</time>
      </trkpt>
      <trkpt lat="45.23322" lon="5.75111">
        <ele>798.40002441406</ele>
        <time>2021-06-26T07:35:57.000Z</time>
      </trkpt>
      <trkpt lat="45.23323" lon="5.751">
        <ele>797.79998779297</ele>
        <time>2021-06-26T07:36:00.000Z</time>
      </trkpt>
      <trkpt lat="45.23325" lon="5.75092">
        <ele>797.79998779297</ele>
        <time>2021-06-26T07:36:02.000Z</time>
      </trkpt>
      <trkpt lat="45.23326" lon="5.75089">
        <ele>798.20001220703</ele>
        <time>2021-06-26T07:36:03.000Z</time>
      </trkpt>
      <trkpt lat="45.23327" lon="5.75078">
        <ele>798.79998779297</ele>
        <time>2021-06-26T07:36:06.000Z</time>
      </trkpt>
      <trkpt lat="45.23327" lon="5.75067">
        <ele>799.40002441406</ele>
        <time>2021-06-26T07:36:09.000Z</time>
      </trkpt>
      <trkpt lat="45.23324" lon="5.75054">
        <ele>800.20001220703</ele>
        <time>2021-06-26T07:36:13.000Z</time>
      </trkpt>
      <trkpt lat="45.23323" lon="5.7505">
        <ele>800.79998779297</ele>
        <time>2021-06-26T07:36:14.000Z</time>
      </trkpt>
      <trkpt lat="45.23318" lon="5.75039">
        <ele>802</ele>
        <time>2021-06-26T07:36:18.000Z</time>
      </trkpt>
      <trkpt lat="45.23316" lon="5.75037">
        <ele>802.40002441406</ele>
        <time>2021-06-26T07:36:19.000Z</time>
      </trkpt>
      <trkpt lat="45.2331" lon="5.75026">
        <ele>803.20001220703</ele>
        <time>2021-06-26T07:36:24.000Z</time>
      </trkpt>
      <trkpt lat="45.23308" lon="5.75024">
        <ele>803.20001220703</ele>
        <time>2021-06-26T07:36:25.000Z</time>
      </trkpt>
      <trkpt lat="45.23305" lon="5.75018">
        <ele>803.79998779297</ele>
        <time>2021-06-26T07:36:27.000Z</time>
      </trkpt>
      <trkpt lat="45.23299" lon="5.75013">
        <ele>804.59997558594</ele>
        <time>2021-06-26T07:36:30.000Z</time>
      </trkpt>
      <trkpt lat="45.23294" lon="5.75003">
        <ele>805.20001220703</ele>
        <time>2021-06-26T07:36:34.000Z</time>
      </trkpt>
      <trkpt lat="45.23292" lon="5.74998">
        <ele>805.79998779297</ele>
        <time>2021-06-26T07:36:36.000Z</time>
      </trkpt>
      <trkpt lat="45.23289" lon="5.74988">
        <ele>806.40002441406</ele>
        <time>2021-06-26T07:36:40.000Z</time>
      </trkpt>
      <trkpt lat="45.23287" lon="5.74986">
        <ele>806.79998779297</ele>
        <time>2021-06-26T07:36:41.000Z</time>
      </trkpt>
      <trkpt lat="45.23283" lon="5.74977">
        <ele>807.40002441406</ele>
        <time>2021-06-26T07:36:46.000Z</time>
      </trkpt>
      <trkpt lat="45.23279" lon="5.74972">
        <ele>808.20001220703</ele>
        <time>2021-06-26T07:36:49.000Z</time>
      </trkpt>
      <trkpt lat="45.23277" lon="5.74968">
        <ele>808.59997558594</ele>
        <time>2021-06-26T07:36:51.000Z</time>
      </trkpt>
      <trkpt lat="45.23274" lon="5.74959">
        <ele>809.59997558594</ele>
        <time>2021-06-26T07:36:56.000Z</time>
      </trkpt>
      <trkpt lat="45.23272" lon="5.74958">
        <ele>809.59997558594</ele>
        <time>2021-06-26T07:36:57.000Z</time>
      </trkpt>
      <trkpt lat="45.23265" lon="5.74951">
        <ele>810.20001220703</ele>
        <time>2021-06-26T07:37:01.000Z</time>
      </trkpt>
      <trkpt lat="45.23262" lon="5.74949">
        <ele>810.79998779297</ele>
        <time>2021-06-26T07:37:03.000Z</time>
      </trkpt>
      <trkpt lat="45.23253" lon="5.74935">
        <ele>812.20001220703</ele>
        <time>2021-06-26T07:37:10.000Z</time>
      </trkpt>
      <trkpt lat="45.23251" lon="5.74933">
        <ele>812.40002441406</ele>
        <time>2021-06-26T07:37:11.000Z</time>
      </trkpt>
      <trkpt lat="45.23244" lon="5.74923">
        <ele>813.40002441406</ele>
        <time>2021-06-26T07:37:17.000Z</time>
      </trkpt>
      <trkpt lat="45.23241" lon="5.74918">
        <ele>813.79998779297</ele>
        <time>2021-06-26T07:37:20.000Z</time>
      </trkpt>
      <trkpt lat="45.23239" lon="5.74916">
        <ele>814.40002441406</ele>
        <time>2021-06-26T07:37:21.000Z</time>
      </trkpt>
      <trkpt lat="45.23237" lon="5.74915">
        <ele>814.40002441406</ele>
        <time>2021-06-26T07:37:22.000Z</time>
      </trkpt>
      <trkpt lat="45.23236" lon="5.74914">
        <ele>814.40002441406</ele>
        <time>2021-06-26T07:37:23.000Z</time>
      </trkpt>
      <trkpt lat="45.23232" lon="5.74912">
        <ele>814.59997558594</ele>
        <time>2021-06-26T07:37:25.000Z</time>
      </trkpt>
      <trkpt lat="45.2323" lon="5.74911">
        <ele>815.20001220703</ele>
        <time>2021-06-26T07:37:27.000Z</time>
      </trkpt>
      <trkpt lat="45.23229" lon="5.7491">
        <ele>815.40002441406</ele>
        <time>2021-06-26T07:37:28.000Z</time>
      </trkpt>
      <trkpt lat="45.23228" lon="5.74909">
        <ele>815.40002441406</ele>
        <time>2021-06-26T07:37:29.000Z</time>
      </trkpt>
      <trkpt lat="45.23228" lon="5.74907">
        <ele>815.59997558594</ele>
        <time>2021-06-26T07:37:30.000Z</time>
      </trkpt>
      <trkpt lat="45.23226" lon="5.74904">
        <ele>816</ele>
        <time>2021-06-26T07:37:31.000Z</time>
      </trkpt>
      <trkpt lat="45.23225" lon="5.74902">
        <ele>816</ele>
        <time>2021-06-26T07:37:32.000Z</time>
      </trkpt>
      <trkpt lat="45.23221" lon="5.74893">
        <ele>816.40002441406</ele>
        <time>2021-06-26T07:37:35.000Z</time>
      </trkpt>
      <trkpt lat="45.23218" lon="5.74891">
        <ele>817.20001220703</ele>
        <time>2021-06-26T07:37:37.000Z</time>
      </trkpt>
      <trkpt lat="45.23216" lon="5.74888">
        <ele>817.40002441406</ele>
        <time>2021-06-26T07:37:39.000Z</time>
      </trkpt>
      <trkpt lat="45.23215" lon="5.74883">
        <ele>818.20001220703</ele>
        <time>2021-06-26T07:37:41.000Z</time>
      </trkpt>
      <trkpt lat="45.23213" lon="5.74877">
        <ele>818.20001220703</ele>
        <time>2021-06-26T07:37:44.000Z</time>
      </trkpt>
      <trkpt lat="45.23211" lon="5.74875">
        <ele>818.40002441406</ele>
        <time>2021-06-26T07:37:45.000Z</time>
      </trkpt>
      <trkpt lat="45.23205" lon="5.7487">
        <ele>819.40002441406</ele>
        <time>2021-06-26T07:37:50.000Z</time>
      </trkpt>
      <trkpt lat="45.23204" lon="5.74869">
        <ele>819.59997558594</ele>
        <time>2021-06-26T07:37:52.000Z</time>
      </trkpt>
      <trkpt lat="45.23202" lon="5.74867">
        <ele>820.79998779297</ele>
        <time>2021-06-26T07:37:54.000Z</time>
      </trkpt>
      <trkpt lat="45.23201" lon="5.74866">
        <ele>820.79998779297</ele>
        <time>2021-06-26T07:37:55.000Z</time>
      </trkpt>
      <trkpt lat="45.23194" lon="5.74861">
        <ele>821.59997558594</ele>
        <time>2021-06-26T07:38:00.000Z</time>
      </trkpt>
      <trkpt lat="45.23191" lon="5.74859">
        <ele>821.79998779297</ele>
        <time>2021-06-26T07:38:01.000Z</time>
      </trkpt>
      <trkpt lat="45.23177" lon="5.74844">
        <ele>822.79998779297</ele>
        <time>2021-06-26T07:38:07.000Z</time>
      </trkpt>
      <trkpt lat="45.23176" lon="5.74842">
        <ele>822.79998779297</ele>
        <time>2021-06-26T07:38:08.000Z</time>
      </trkpt>
      <trkpt lat="45.23175" lon="5.7484">
        <ele>823</ele>
        <time>2021-06-26T07:38:09.000Z</time>
      </trkpt>
      <trkpt lat="45.23172" lon="5.74834">
        <ele>824.20001220703</ele>
        <time>2021-06-26T07:38:12.000Z</time>
      </trkpt>
      <trkpt lat="45.2317" lon="5.7483">
        <ele>824.20001220703</ele>
        <time>2021-06-26T07:38:14.000Z</time>
      </trkpt>
      <trkpt lat="45.23168" lon="5.74824">
        <ele>825</ele>
        <time>2021-06-26T07:38:17.000Z</time>
      </trkpt>
      <trkpt lat="45.23166" lon="5.7482">
        <ele>825.20001220703</ele>
        <time>2021-06-26T07:38:19.000Z</time>
      </trkpt>
      <trkpt lat="45.23164" lon="5.74819">
        <ele>825.20001220703</ele>
        <time>2021-06-26T07:38:20.000Z</time>
      </trkpt>
      <trkpt lat="45.23161" lon="5.74814">
        <ele>826.20001220703</ele>
        <time>2021-06-26T07:38:23.000Z</time>
      </trkpt>
      <trkpt lat="45.23159" lon="5.7481">
        <ele>826.20001220703</ele>
        <time>2021-06-26T07:38:25.000Z</time>
      </trkpt>
      <trkpt lat="45.23158" lon="5.74807">
        <ele>826.20001220703</ele>
        <time>2021-06-26T07:38:26.000Z</time>
      </trkpt>
      <trkpt lat="45.23156" lon="5.74804">
        <ele>826.79998779297</ele>
        <time>2021-06-26T07:38:27.000Z</time>
      </trkpt>
      <trkpt lat="45.23152" lon="5.74795">
        <ele>827</ele>
        <time>2021-06-26T07:38:31.000Z</time>
      </trkpt>
      <trkpt lat="45.23151" lon="5.74794">
        <ele>827.40002441406</ele>
        <time>2021-06-26T07:38:32.000Z</time>
      </trkpt>
      <trkpt lat="45.23147" lon="5.74786">
        <ele>828.40002441406</ele>
        <time>2021-06-26T07:38:36.000Z</time>
      </trkpt>
      <trkpt lat="45.23147" lon="5.74783">
        <ele>828.40002441406</ele>
        <time>2021-06-26T07:38:37.000Z</time>
      </trkpt>
      <trkpt lat="45.23146" lon="5.74781">
        <ele>828.59997558594</ele>
        <time>2021-06-26T07:38:38.000Z</time>
      </trkpt>
      <trkpt lat="45.23142" lon="5.74774">
        <ele>829.40002441406</ele>
        <time>2021-06-26T07:38:42.000Z</time>
      </trkpt>
      <trkpt lat="45.23141" lon="5.7477">
        <ele>829.79998779297</ele>
        <time>2021-06-26T07:38:43.000Z</time>
      </trkpt>
      <trkpt lat="45.23139" lon="5.74765">
        <ele>830.59997558594</ele>
        <time>2021-06-26T07:38:45.000Z</time>
      </trkpt>
      <trkpt lat="45.23136" lon="5.7476">
        <ele>830.59997558594</ele>
        <time>2021-06-26T07:38:48.000Z</time>
      </trkpt>
      <trkpt lat="45.23133" lon="5.74757">
        <ele>831</ele>
        <time>2021-06-26T07:38:50.000Z</time>
      </trkpt>
      <trkpt lat="45.23129" lon="5.74752">
        <ele>831.79998779297</ele>
        <time>2021-06-26T07:38:53.000Z</time>
      </trkpt>
      <trkpt lat="45.23129" lon="5.7475">
        <ele>832</ele>
        <time>2021-06-26T07:38:54.000Z</time>
      </trkpt>
      <trkpt lat="45.23124" lon="5.74736">
        <ele>833</ele>
        <time>2021-06-26T07:39:01.000Z</time>
      </trkpt>
      <trkpt lat="45.23122" lon="5.74734">
        <ele>833.20001220703</ele>
        <time>2021-06-26T07:39:02.000Z</time>
      </trkpt>
      <trkpt lat="45.23121" lon="5.74734">
        <ele>833.79998779297</ele>
        <time>2021-06-26T07:39:03.000Z</time>
      </trkpt>
      <trkpt lat="45.23114" lon="5.74728">
        <ele>834</ele>
        <time>2021-06-26T07:39:06.000Z</time>
      </trkpt>
      <trkpt lat="45.23112" lon="5.74724">
        <ele>834.40002441406</ele>
        <time>2021-06-26T07:39:08.000Z</time>
      </trkpt>
      <trkpt lat="45.23111" lon="5.7472">
        <ele>835.40002441406</ele>
        <time>2021-06-26T07:39:10.000Z</time>
      </trkpt>
      <trkpt lat="45.23109" lon="5.74717">
        <ele>835.40002441406</ele>
        <time>2021-06-26T07:39:12.000Z</time>
      </trkpt>
      <trkpt lat="45.23108" lon="5.74716">
        <ele>835.40002441406</ele>
        <time>2021-06-26T07:39:13.000Z</time>
      </trkpt>
      <trkpt lat="45.23105" lon="5.74713">
        <ele>836</ele>
        <time>2021-06-26T07:39:15.000Z</time>
      </trkpt>
      <trkpt lat="45.23096" lon="5.74707">
        <ele>836.79998779297</ele>
        <time>2021-06-26T07:39:20.000Z</time>
      </trkpt>
      <trkpt lat="45.23095" lon="5.74705">
        <ele>837.20001220703</ele>
        <time>2021-06-26T07:39:21.000Z</time>
      </trkpt>
      <trkpt lat="45.23086" lon="5.74696">
        <ele>838.40002441406</ele>
        <time>2021-06-26T07:39:26.000Z</time>
      </trkpt>
      <trkpt lat="45.23084" lon="5.74695">
        <ele>838.40002441406</ele>
        <time>2021-06-26T07:39:27.000Z</time>
      </trkpt>
      <trkpt lat="45.23084" lon="5.74692">
        <ele>838.59997558594</ele>
        <time>2021-06-26T07:39:28.000Z</time>
      </trkpt>
      <trkpt lat="45.23081" lon="5.74686">
        <ele>839.20001220703</ele>
        <time>2021-06-26T07:39:31.000Z</time>
      </trkpt>
      <trkpt lat="45.23079" lon="5.74685">
        <ele>839.59997558594</ele>
        <time>2021-06-26T07:39:32.000Z</time>
      </trkpt>
      <trkpt lat="45.23072" lon="5.74678">
        <ele>840.40002441406</ele>
        <time>2021-06-26T07:39:37.000Z</time>
      </trkpt>
      <trkpt lat="45.2307" lon="5.74677">
        <ele>840.79998779297</ele>
        <time>2021-06-26T07:39:38.000Z</time>
      </trkpt>
      <trkpt lat="45.23069" lon="5.74675">
        <ele>841</ele>
        <time>2021-06-26T07:39:39.000Z</time>
      </trkpt>
      <trkpt lat="45.23068" lon="5.74673">
        <ele>841</ele>
        <time>2021-06-26T07:39:40.000Z</time>
      </trkpt>
      <trkpt lat="45.23066" lon="5.7467">
        <ele>841.40002441406</ele>
        <time>2021-06-26T07:39:42.000Z</time>
      </trkpt>
      <trkpt lat="45.23064" lon="5.74669">
        <ele>841.40002441406</ele>
        <time>2021-06-26T07:39:43.000Z</time>
      </trkpt>
      <trkpt lat="45.23063" lon="5.74667">
        <ele>841.79998779297</ele>
        <time>2021-06-26T07:39:44.000Z</time>
      </trkpt>
      <trkpt lat="45.23057" lon="5.74655">
        <ele>843.20001220703</ele>
        <time>2021-06-26T07:39:50.000Z</time>
      </trkpt>
      <trkpt lat="45.23056" lon="5.74653">
        <ele>843.20001220703</ele>
        <time>2021-06-26T07:39:51.000Z</time>
      </trkpt>
      <trkpt lat="45.23053" lon="5.74647">
        <ele>843.59997558594</ele>
        <time>2021-06-26T07:39:54.000Z</time>
      </trkpt>
      <trkpt lat="45.23051" lon="5.74646">
        <ele>843.59997558594</ele>
        <time>2021-06-26T07:39:55.000Z</time>
      </trkpt>
      <trkpt lat="45.23048" lon="5.74642">
        <ele>844.20001220703</ele>
        <time>2021-06-26T07:39:57.000Z</time>
      </trkpt>
      <trkpt lat="45.23045" lon="5.74638">
        <ele>844.40002441406</ele>
        <time>2021-06-26T07:40:00.000Z</time>
      </trkpt>
      <trkpt lat="45.23042" lon="5.74633">
        <ele>845</ele>
        <time>2021-06-26T07:40:03.000Z</time>
      </trkpt>
      <trkpt lat="45.23041" lon="5.7463">
        <ele>845</ele>
        <time>2021-06-26T07:40:05.000Z</time>
      </trkpt>
      <trkpt lat="45.23039" lon="5.74628">
        <ele>845.40002441406</ele>
        <time>2021-06-26T07:40:06.000Z</time>
      </trkpt>
      <trkpt lat="45.23038" lon="5.74626">
        <ele>845.59997558594</ele>
        <time>2021-06-26T07:40:07.000Z</time>
      </trkpt>
      <trkpt lat="45.23031" lon="5.74622">
        <ele>846.40002441406</ele>
        <time>2021-06-26T07:40:11.000Z</time>
      </trkpt>
      <trkpt lat="45.23028" lon="5.74617">
        <ele>847</ele>
        <time>2021-06-26T07:40:14.000Z</time>
      </trkpt>
      <trkpt lat="45.23026" lon="5.74616">
        <ele>847.20001220703</ele>
        <time>2021-06-26T07:40:15.000Z</time>
      </trkpt>
      <trkpt lat="45.23025" lon="5.74615">
        <ele>847.40002441406</ele>
        <time>2021-06-26T07:40:16.000Z</time>
      </trkpt>
      <trkpt lat="45.23019" lon="5.74608">
        <ele>848.40002441406</ele>
        <time>2021-06-26T07:40:20.000Z</time>
      </trkpt>
      <trkpt lat="45.23018" lon="5.74607">
        <ele>848.59997558594</ele>
        <time>2021-06-26T07:40:21.000Z</time>
      </trkpt>
      <trkpt lat="45.23017" lon="5.74607">
        <ele>848.79998779297</ele>
        <time>2021-06-26T07:40:22.000Z</time>
      </trkpt>
      <trkpt lat="45.23011" lon="5.74605">
        <ele>849.20001220703</ele>
        <time>2021-06-26T07:40:26.000Z</time>
      </trkpt>
      <trkpt lat="45.23008" lon="5.74601">
        <ele>849.59997558594</ele>
        <time>2021-06-26T07:40:28.000Z</time>
      </trkpt>
      <trkpt lat="45.23004" lon="5.7459">
        <ele>850.59997558594</ele>
        <time>2021-06-26T07:40:33.000Z</time>
      </trkpt>
      <trkpt lat="45.23003" lon="5.74588">
        <ele>851</ele>
        <time>2021-06-26T07:40:34.000Z</time>
      </trkpt>
      <trkpt lat="45.22999" lon="5.74578">
        <ele>851.79998779297</ele>
        <time>2021-06-26T07:40:39.000Z</time>
      </trkpt>
      <trkpt lat="45.22998" lon="5.74576">
        <ele>852</ele>
        <time>2021-06-26T07:40:40.000Z</time>
      </trkpt>
      <trkpt lat="45.22997" lon="5.74575">
        <ele>852</ele>
        <time>2021-06-26T07:40:41.000Z</time>
      </trkpt>
      <trkpt lat="45.22995" lon="5.74573">
        <ele>852.59997558594</ele>
        <time>2021-06-26T07:40:43.000Z</time>
      </trkpt>
      <trkpt lat="45.22991" lon="5.7457">
        <ele>853.20001220703</ele>
        <time>2021-06-26T07:40:45.000Z</time>
      </trkpt>
      <trkpt lat="45.22985" lon="5.74565">
        <ele>853.40002441406</ele>
        <time>2021-06-26T07:40:48.000Z</time>
      </trkpt>
      <trkpt lat="45.22984" lon="5.74563">
        <ele>854.20001220703</ele>
        <time>2021-06-26T07:40:49.000Z</time>
      </trkpt>
      <trkpt lat="45.2298" lon="5.7456">
        <ele>854.20001220703</ele>
        <time>2021-06-26T07:40:51.000Z</time>
      </trkpt>
      <trkpt lat="45.22979" lon="5.74558">
        <ele>854.20001220703</ele>
        <time>2021-06-26T07:40:52.000Z</time>
      </trkpt>
      <trkpt lat="45.22977" lon="5.74557">
        <ele>855.20001220703</ele>
        <time>2021-06-26T07:40:53.000Z</time>
      </trkpt>
      <trkpt lat="45.22971" lon="5.74553">
        <ele>855.59997558594</ele>
        <time>2021-06-26T07:40:58.000Z</time>
      </trkpt>
      <trkpt lat="45.22967" lon="5.74549">
        <ele>856.40002441406</ele>
        <time>2021-06-26T07:41:00.000Z</time>
      </trkpt>
      <trkpt lat="45.22966" lon="5.74547">
        <ele>856.40002441406</ele>
        <time>2021-06-26T07:41:01.000Z</time>
      </trkpt>
      <trkpt lat="45.2296" lon="5.74541">
        <ele>857.20001220703</ele>
        <time>2021-06-26T07:41:05.000Z</time>
      </trkpt>
      <trkpt lat="45.22959" lon="5.7454">
        <ele>857.40002441406</ele>
        <time>2021-06-26T07:41:06.000Z</time>
      </trkpt>
      <trkpt lat="45.22958" lon="5.74538">
        <ele>857.59997558594</ele>
        <time>2021-06-26T07:41:08.000Z</time>
      </trkpt>
      <trkpt lat="45.22953" lon="5.74534">
        <ele>858.59997558594</ele>
        <time>2021-06-26T07:41:11.000Z</time>
      </trkpt>
      <trkpt lat="45.22951" lon="5.74533">
        <ele>858.59997558594</ele>
        <time>2021-06-26T07:41:12.000Z</time>
      </trkpt>
      <trkpt lat="45.22949" lon="5.74531">
        <ele>858.79998779297</ele>
        <time>2021-06-26T07:41:14.000Z</time>
      </trkpt>
      <trkpt lat="45.22947" lon="5.74528">
        <ele>859.59997558594</ele>
        <time>2021-06-26T07:41:16.000Z</time>
      </trkpt>
      <trkpt lat="45.22945" lon="5.74525">
        <ele>859.79998779297</ele>
        <time>2021-06-26T07:41:18.000Z</time>
      </trkpt>
      <trkpt lat="45.22939" lon="5.7452">
        <ele>860.59997558594</ele>
        <time>2021-06-26T07:41:21.000Z</time>
      </trkpt>
      <trkpt lat="45.22938" lon="5.74518">
        <ele>860.79998779297</ele>
        <time>2021-06-26T07:41:22.000Z</time>
      </trkpt>
      <trkpt lat="45.22938" lon="5.74516">
        <ele>860.79998779297</ele>
        <time>2021-06-26T07:41:23.000Z</time>
      </trkpt>
      <trkpt lat="45.22936" lon="5.74513">
        <ele>861</ele>
        <time>2021-06-26T07:41:25.000Z</time>
      </trkpt>
      <trkpt lat="45.22934" lon="5.74512">
        <ele>861.40002441406</ele>
        <time>2021-06-26T07:41:26.000Z</time>
      </trkpt>
      <trkpt lat="45.22929" lon="5.74506">
        <ele>862.20001220703</ele>
        <time>2021-06-26T07:41:29.000Z</time>
      </trkpt>
      <trkpt lat="45.22922" lon="5.74499">
        <ele>863.20001220703</ele>
        <time>2021-06-26T07:41:34.000Z</time>
      </trkpt>
      <trkpt lat="45.22919" lon="5.74499">
        <ele>863.79998779297</ele>
        <time>2021-06-26T07:41:36.000Z</time>
      </trkpt>
      <trkpt lat="45.2291" lon="5.74494">
        <ele>864.59997558594</ele>
        <time>2021-06-26T07:41:40.000Z</time>
      </trkpt>
      <trkpt lat="45.22909" lon="5.7449">
        <ele>864.79998779297</ele>
        <time>2021-06-26T07:41:42.000Z</time>
      </trkpt>
      <trkpt lat="45.22908" lon="5.74487">
        <ele>864.79998779297</ele>
        <time>2021-06-26T07:41:44.000Z</time>
      </trkpt>
      <trkpt lat="45.22903" lon="5.74482">
        <ele>865.79998779297</ele>
        <time>2021-06-26T07:41:47.000Z</time>
      </trkpt>
      <trkpt lat="45.229" lon="5.7448">
        <ele>866</ele>
        <time>2021-06-26T07:41:49.000Z</time>
      </trkpt>
      <trkpt lat="45.22895" lon="5.74476">
        <ele>866.59997558594</ele>
        <time>2021-06-26T07:41:52.000Z</time>
      </trkpt>
      <trkpt lat="45.22893" lon="5.74475">
        <ele>866.79998779297</ele>
        <time>2021-06-26T07:41:53.000Z</time>
      </trkpt>
      <trkpt lat="45.22891" lon="5.74474">
        <ele>867</ele>
        <time>2021-06-26T07:41:54.000Z</time>
      </trkpt>
      <trkpt lat="45.2289" lon="5.74472">
        <ele>867.40002441406</ele>
        <time>2021-06-26T07:41:55.000Z</time>
      </trkpt>
      <trkpt lat="45.22888" lon="5.7447">
        <ele>867.40002441406</ele>
        <time>2021-06-26T07:41:56.000Z</time>
      </trkpt>
      <trkpt lat="45.22887" lon="5.74468">
        <ele>867.40002441406</ele>
        <time>2021-06-26T07:41:57.000Z</time>
      </trkpt>
      <trkpt lat="45.22884" lon="5.74466">
        <ele>868.20001220703</ele>
        <time>2021-06-26T07:41:58.000Z</time>
      </trkpt>
      <trkpt lat="45.2288" lon="5.74461">
        <ele>868.40002441406</ele>
        <time>2021-06-26T07:42:01.000Z</time>
      </trkpt>
      <trkpt lat="45.22875" lon="5.74453">
        <ele>869.40002441406</ele>
        <time>2021-06-26T07:42:06.000Z</time>
      </trkpt>
      <trkpt lat="45.22873" lon="5.74452">
        <ele>869.59997558594</ele>
        <time>2021-06-26T07:42:07.000Z</time>
      </trkpt>
      <trkpt lat="45.22868" lon="5.74449">
        <ele>869.59997558594</ele>
        <time>2021-06-26T07:42:12.000Z</time>
      </trkpt>
      <trkpt lat="45.22866" lon="5.74446">
        <ele>869.20001220703</ele>
        <time>2021-06-26T07:42:14.000Z</time>
      </trkpt>
      <trkpt lat="45.22865" lon="5.74445">
        <ele>869</ele>
        <time>2021-06-26T07:42:15.000Z</time>
      </trkpt>
      <trkpt lat="45.22865" lon="5.74445">
        <ele>868.20001220703</ele>
        <time>2021-06-26T07:42:17.000Z</time>
      </trkpt>
      <trkpt lat="45.22863" lon="5.74445">
        <ele>868</ele>
        <time>2021-06-26T07:42:19.000Z</time>
      </trkpt>
      <trkpt lat="45.22863" lon="5.74444">
        <ele>866.79998779297</ele>
        <time>2021-06-26T07:42:20.000Z</time>
      </trkpt>
      <trkpt lat="45.22862" lon="5.74443">
        <ele>866.40002441406</ele>
        <time>2021-06-26T07:42:21.000Z</time>
      </trkpt>
      <trkpt lat="45.22859" lon="5.74441">
        <ele>866</ele>
        <time>2021-06-26T07:42:23.000Z</time>
      </trkpt>
      <trkpt lat="45.22857" lon="5.7444">
        <ele>865.59997558594</ele>
        <time>2021-06-26T07:42:24.000Z</time>
      </trkpt>
      <trkpt lat="45.22854" lon="5.7444">
        <ele>865</ele>
        <time>2021-06-26T07:42:27.000Z</time>
      </trkpt>
      <trkpt lat="45.22854" lon="5.7444">
        <ele>863.79998779297</ele>
        <time>2021-06-26T07:42:29.000Z</time>
      </trkpt>
      <trkpt lat="45.22852" lon="5.74438">
        <ele>862.79998779297</ele>
        <time>2021-06-26T07:42:31.000Z</time>
      </trkpt>
      <trkpt lat="45.22851" lon="5.74438">
        <ele>862.40002441406</ele>
        <time>2021-06-26T07:42:32.000Z</time>
      </trkpt>
      <trkpt lat="45.22851" lon="5.74438">
        <ele>862</ele>
        <time>2021-06-26T07:42:33.000Z</time>
      </trkpt>
      <trkpt lat="45.22848" lon="5.74439">
        <ele>861.20001220703</ele>
        <time>2021-06-26T07:42:35.000Z</time>
      </trkpt>
      <trkpt lat="45.22847" lon="5.74437">
        <ele>861</ele>
        <time>2021-06-26T07:42:37.000Z</time>
      </trkpt>
      <trkpt lat="45.22845" lon="5.74438">
        <ele>861</ele>
        <time>2021-06-26T07:42:38.000Z</time>
      </trkpt>
      <trkpt lat="45.22843" lon="5.7444">
        <ele>860.79998779297</ele>
        <time>2021-06-26T07:42:40.000Z</time>
      </trkpt>
      <trkpt lat="45.22842" lon="5.74441">
        <ele>859.40002441406</ele>
        <time>2021-06-26T07:42:41.000Z</time>
      </trkpt>
      <trkpt lat="45.22841" lon="5.74441">
        <ele>859.40002441406</ele>
        <time>2021-06-26T07:42:42.000Z</time>
      </trkpt>
      <trkpt lat="45.22839" lon="5.74442">
        <ele>859.20001220703</ele>
        <time>2021-06-26T07:42:43.000Z</time>
      </trkpt>
      <trkpt lat="45.22838" lon="5.74444">
        <ele>858.40002441406</ele>
        <time>2021-06-26T07:42:44.000Z</time>
      </trkpt>
      <trkpt lat="45.22835" lon="5.74445">
        <ele>856.79998779297</ele>
        <time>2021-06-26T07:42:46.000Z</time>
      </trkpt>
      <trkpt lat="45.22833" lon="5.74447">
        <ele>856</ele>
        <time>2021-06-26T07:42:48.000Z</time>
      </trkpt>
      <trkpt lat="45.22832" lon="5.74448">
        <ele>855.59997558594</ele>
        <time>2021-06-26T07:42:49.000Z</time>
      </trkpt>
      <trkpt lat="45.22829" lon="5.74449">
        <ele>855</ele>
        <time>2021-06-26T07:42:52.000Z</time>
      </trkpt>
      <trkpt lat="45.22829" lon="5.7445">
        <ele>855</ele>
        <time>2021-06-26T07:42:53.000Z</time>
      </trkpt>
      <trkpt lat="45.22828" lon="5.74451">
        <ele>854</ele>
        <time>2021-06-26T07:42:54.000Z</time>
      </trkpt>
      <trkpt lat="45.22824" lon="5.74454">
        <ele>853</ele>
        <time>2021-06-26T07:42:57.000Z</time>
      </trkpt>
      <trkpt lat="45.22821" lon="5.74455">
        <ele>851.79998779297</ele>
        <time>2021-06-26T07:42:59.000Z</time>
      </trkpt>
      <trkpt lat="45.22821" lon="5.74456">
        <ele>851.79998779297</ele>
        <time>2021-06-26T07:43:00.000Z</time>
      </trkpt>
      <trkpt lat="45.22817" lon="5.74457">
        <ele>850.40002441406</ele>
        <time>2021-06-26T07:43:03.000Z</time>
      </trkpt>
      <trkpt lat="45.22815" lon="5.74457">
        <ele>850.40002441406</ele>
        <time>2021-06-26T07:43:04.000Z</time>
      </trkpt>
      <trkpt lat="45.22814" lon="5.74457">
        <ele>849.79998779297</ele>
        <time>2021-06-26T07:43:05.000Z</time>
      </trkpt>
      <trkpt lat="45.22813" lon="5.74458">
        <ele>849.40002441406</ele>
        <time>2021-06-26T07:43:06.000Z</time>
      </trkpt>
      <trkpt lat="45.22812" lon="5.74459">
        <ele>848.79998779297</ele>
        <time>2021-06-26T07:43:07.000Z</time>
      </trkpt>
      <trkpt lat="45.22811" lon="5.7446">
        <ele>848.40002441406</ele>
        <time>2021-06-26T07:43:09.000Z</time>
      </trkpt>
      <trkpt lat="45.22809" lon="5.74462">
        <ele>847.79998779297</ele>
        <time>2021-06-26T07:43:11.000Z</time>
      </trkpt>
      <trkpt lat="45.22808" lon="5.74463">
        <ele>847.59997558594</ele>
        <time>2021-06-26T07:43:12.000Z</time>
      </trkpt>
      <trkpt lat="45.22807" lon="5.74464">
        <ele>846.20001220703</ele>
        <time>2021-06-26T07:43:13.000Z</time>
      </trkpt>
      <trkpt lat="45.22803" lon="5.74466">
        <ele>845</ele>
        <time>2021-06-26T07:43:17.000Z</time>
      </trkpt>
      <trkpt lat="45.228" lon="5.74466">
        <ele>843.40002441406</ele>
        <time>2021-06-26T07:43:19.000Z</time>
      </trkpt>
      <trkpt lat="45.22794" lon="5.74468">
        <ele>843.20001220703</ele>
        <time>2021-06-26T07:43:23.000Z</time>
      </trkpt>
      <trkpt lat="45.22791" lon="5.7447">
        <ele>841.40002441406</ele>
        <time>2021-06-26T07:43:25.000Z</time>
      </trkpt>
      <trkpt lat="45.22786" lon="5.74471">
        <ele>840.40002441406</ele>
        <time>2021-06-26T07:43:28.000Z</time>
      </trkpt>
      <trkpt lat="45.22779" lon="5.74476">
        <ele>838</ele>
        <time>2021-06-26T07:43:32.000Z</time>
      </trkpt>
      <trkpt lat="45.22776" lon="5.74478">
        <ele>837</ele>
        <time>2021-06-26T07:43:35.000Z</time>
      </trkpt>
      <trkpt lat="45.22776" lon="5.74478">
        <ele>837</ele>
        <time>2021-06-26T07:43:36.000Z</time>
      </trkpt>
      <trkpt lat="45.22775" lon="5.74479">
        <ele>836.79998779297</ele>
        <time>2021-06-26T07:43:37.000Z</time>
      </trkpt>
      <trkpt lat="45.22773" lon="5.7448">
        <ele>835.40002441406</ele>
        <time>2021-06-26T07:43:39.000Z</time>
      </trkpt>
      <trkpt lat="45.22771" lon="5.7448">
        <ele>834.20001220703</ele>
        <time>2021-06-26T07:43:41.000Z</time>
      </trkpt>
      <trkpt lat="45.22767" lon="5.74483">
        <ele>834</ele>
        <time>2021-06-26T07:43:44.000Z</time>
      </trkpt>
      <trkpt lat="45.22766" lon="5.74485">
        <ele>832.59997558594</ele>
        <time>2021-06-26T07:43:45.000Z</time>
      </trkpt>
      <trkpt lat="45.22761" lon="5.74485">
        <ele>832.20001220703</ele>
        <time>2021-06-26T07:43:47.000Z</time>
      </trkpt>
      <trkpt lat="45.22758" lon="5.74486">
        <ele>831</ele>
        <time>2021-06-26T07:43:49.000Z</time>
      </trkpt>
      <trkpt lat="45.22752" lon="5.74486">
        <ele>830</ele>
        <time>2021-06-26T07:43:53.000Z</time>
      </trkpt>
      <trkpt lat="45.22751" lon="5.74487">
        <ele>828.79998779297</ele>
        <time>2021-06-26T07:43:54.000Z</time>
      </trkpt>
      <trkpt lat="45.22747" lon="5.74489">
        <ele>827.79998779297</ele>
        <time>2021-06-26T07:43:58.000Z</time>
      </trkpt>
      <trkpt lat="45.22743" lon="5.74491">
        <ele>827</ele>
        <time>2021-06-26T07:44:00.000Z</time>
      </trkpt>
      <trkpt lat="45.2274" lon="5.74491">
        <ele>826.40002441406</ele>
        <time>2021-06-26T07:44:03.000Z</time>
      </trkpt>
      <trkpt lat="45.22738" lon="5.74492">
        <ele>825</ele>
        <time>2021-06-26T07:44:04.000Z</time>
      </trkpt>
      <trkpt lat="45.22735" lon="5.7449">
        <ele>824.79998779297</ele>
        <time>2021-06-26T07:44:05.000Z</time>
      </trkpt>
      <trkpt lat="45.22733" lon="5.7449">
        <ele>824.79998779297</ele>
        <time>2021-06-26T07:44:06.000Z</time>
      </trkpt>
      <trkpt lat="45.22727" lon="5.74489">
        <ele>822.40002441406</ele>
        <time>2021-06-26T07:44:10.000Z</time>
      </trkpt>
      <trkpt lat="45.22726" lon="5.7449">
        <ele>822.20001220703</ele>
        <time>2021-06-26T07:44:11.000Z</time>
      </trkpt>
      <trkpt lat="45.22724" lon="5.74491">
        <ele>822</ele>
        <time>2021-06-26T07:44:12.000Z</time>
      </trkpt>
      <trkpt lat="45.22721" lon="5.74491">
        <ele>820.40002441406</ele>
        <time>2021-06-26T07:44:14.000Z</time>
      </trkpt>
      <trkpt lat="45.22715" lon="5.74492">
        <ele>819.79998779297</ele>
        <time>2021-06-26T07:44:17.000Z</time>
      </trkpt>
      <trkpt lat="45.2271" lon="5.74493">
        <ele>819.20001220703</ele>
        <time>2021-06-26T07:44:19.000Z</time>
      </trkpt>
      <trkpt lat="45.22706" lon="5.74492">
        <ele>817.40002441406</ele>
        <time>2021-06-26T07:44:21.000Z</time>
      </trkpt>
      <trkpt lat="45.22704" lon="5.74491">
        <ele>817.20001220703</ele>
        <time>2021-06-26T07:44:23.000Z</time>
      </trkpt>
      <trkpt lat="45.22702" lon="5.74491">
        <ele>817</ele>
        <time>2021-06-26T07:44:24.000Z</time>
      </trkpt>
      <trkpt lat="45.22699" lon="5.74491">
        <ele>815.59997558594</ele>
        <time>2021-06-26T07:44:26.000Z</time>
      </trkpt>
      <trkpt lat="45.22697" lon="5.74491">
        <ele>815.59997558594</ele>
        <time>2021-06-26T07:44:27.000Z</time>
      </trkpt>
      <trkpt lat="45.22692" lon="5.74492">
        <ele>815.20001220703</ele>
        <time>2021-06-26T07:44:30.000Z</time>
      </trkpt>
      <trkpt lat="45.22691" lon="5.74492">
        <ele>814.20001220703</ele>
        <time>2021-06-26T07:44:31.000Z</time>
      </trkpt>
      <trkpt lat="45.22689" lon="5.74492">
        <ele>814.20001220703</ele>
        <time>2021-06-26T07:44:32.000Z</time>
      </trkpt>
      <trkpt lat="45.22683" lon="5.7449">
        <ele>812.40002441406</ele>
        <time>2021-06-26T07:44:36.000Z</time>
      </trkpt>
      <trkpt lat="45.2268" lon="5.74488">
        <ele>811.79998779297</ele>
        <time>2021-06-26T07:44:38.000Z</time>
      </trkpt>
      <trkpt lat="45.22675" lon="5.74488">
        <ele>811</ele>
        <time>2021-06-26T07:44:40.000Z</time>
      </trkpt>
      <trkpt lat="45.22674" lon="5.74487">
        <ele>811</ele>
        <time>2021-06-26T07:44:41.000Z</time>
      </trkpt>
      <trkpt lat="45.2267" lon="5.74486">
        <ele>810.59997558594</ele>
        <time>2021-06-26T07:44:43.000Z</time>
      </trkpt>
      <trkpt lat="45.22669" lon="5.74486">
        <ele>810</ele>
        <time>2021-06-26T07:44:45.000Z</time>
      </trkpt>
      <trkpt lat="45.22668" lon="5.74486">
        <ele>809</ele>
        <time>2021-06-26T07:44:46.000Z</time>
      </trkpt>
      <trkpt lat="45.22666" lon="5.74486">
        <ele>807.59997558594</ele>
        <time>2021-06-26T07:44:48.000Z</time>
      </trkpt>
      <trkpt lat="45.22665" lon="5.74486">
        <ele>807.59997558594</ele>
        <time>2021-06-26T07:44:49.000Z</time>
      </trkpt>
      <trkpt lat="45.22664" lon="5.74487">
        <ele>807.20001220703</ele>
        <time>2021-06-26T07:44:50.000Z</time>
      </trkpt>
      <trkpt lat="45.22661" lon="5.74488">
        <ele>806.59997558594</ele>
        <time>2021-06-26T07:44:52.000Z</time>
      </trkpt>
      <trkpt lat="45.22659" lon="5.74491">
        <ele>805.59997558594</ele>
        <time>2021-06-26T07:44:54.000Z</time>
      </trkpt>
      <trkpt lat="45.22657" lon="5.74492">
        <ele>805.40002441406</ele>
        <time>2021-06-26T07:44:55.000Z</time>
      </trkpt>
      <trkpt lat="45.22655" lon="5.74494">
        <ele>803.40002441406</ele>
        <time>2021-06-26T07:44:57.000Z</time>
      </trkpt>
      <trkpt lat="45.2265" lon="5.74496">
        <ele>803.20001220703</ele>
        <time>2021-06-26T07:45:01.000Z</time>
      </trkpt>
      <trkpt lat="45.22647" lon="5.74498">
        <ele>801.79998779297</ele>
        <time>2021-06-26T07:45:03.000Z</time>
      </trkpt>
      <trkpt lat="45.22641" lon="5.74501">
        <ele>800.40002441406</ele>
        <time>2021-06-26T07:45:07.000Z</time>
      </trkpt>
      <trkpt lat="45.22639" lon="5.74501">
        <ele>800</ele>
        <time>2021-06-26T07:45:09.000Z</time>
      </trkpt>
      <trkpt lat="45.22635" lon="5.74501">
        <ele>799</ele>
        <time>2021-06-26T07:45:11.000Z</time>
      </trkpt>
      <trkpt lat="45.22631" lon="5.745">
        <ele>798.59997558594</ele>
        <time>2021-06-26T07:45:13.000Z</time>
      </trkpt>
      <trkpt lat="45.22629" lon="5.745">
        <ele>798</ele>
        <time>2021-06-26T07:45:14.000Z</time>
      </trkpt>
      <trkpt lat="45.22628" lon="5.745">
        <ele>797.59997558594</ele>
        <time>2021-06-26T07:45:15.000Z</time>
      </trkpt>
      <trkpt lat="45.22619" lon="5.74501">
        <ele>796.59997558594</ele>
        <time>2021-06-26T07:45:20.000Z</time>
      </trkpt>
      <trkpt lat="45.22617" lon="5.74501">
        <ele>796</ele>
        <time>2021-06-26T07:45:21.000Z</time>
      </trkpt>
      <trkpt lat="45.22616" lon="5.74502">
        <ele>795</ele>
        <time>2021-06-26T07:45:22.000Z</time>
      </trkpt>
      <trkpt lat="45.22615" lon="5.74502">
        <ele>794.59997558594</ele>
        <time>2021-06-26T07:45:24.000Z</time>
      </trkpt>
      <trkpt lat="45.22612" lon="5.74503">
        <ele>793.59997558594</ele>
        <time>2021-06-26T07:45:27.000Z</time>
      </trkpt>
      <trkpt lat="45.2261" lon="5.74505">
        <ele>792</ele>
        <time>2021-06-26T07:45:28.000Z</time>
      </trkpt>
      <trkpt lat="45.22608" lon="5.74507">
        <ele>791.59997558594</ele>
        <time>2021-06-26T07:45:30.000Z</time>
      </trkpt>
      <trkpt lat="45.22606" lon="5.74508">
        <ele>791</ele>
        <time>2021-06-26T07:45:32.000Z</time>
      </trkpt>
      <trkpt lat="45.22606" lon="5.7451">
        <ele>789.79998779297</ele>
        <time>2021-06-26T07:45:34.000Z</time>
      </trkpt>
      <trkpt lat="45.22605" lon="5.74514">
        <ele>789.20001220703</ele>
        <time>2021-06-26T07:45:37.000Z</time>
      </trkpt>
      <trkpt lat="45.22604" lon="5.74514">
        <ele>788.79998779297</ele>
        <time>2021-06-26T07:45:38.000Z</time>
      </trkpt>
      <trkpt lat="45.22602" lon="5.74517">
        <ele>788.59997558594</ele>
        <time>2021-06-26T07:45:40.000Z</time>
      </trkpt>
      <trkpt lat="45.226" lon="5.74518">
        <ele>787.20001220703</ele>
        <time>2021-06-26T07:45:41.000Z</time>
      </trkpt>
      <trkpt lat="45.22598" lon="5.74519">
        <ele>786.79998779297</ele>
        <time>2021-06-26T07:45:42.000Z</time>
      </trkpt>
      <trkpt lat="45.22598" lon="5.74521">
        <ele>786.20001220703</ele>
        <time>2021-06-26T07:45:44.000Z</time>
      </trkpt>
      <trkpt lat="45.22596" lon="5.74524">
        <ele>785.40002441406</ele>
        <time>2021-06-26T07:45:47.000Z</time>
      </trkpt>
      <trkpt lat="45.22595" lon="5.74525">
        <ele>784.79998779297</ele>
        <time>2021-06-26T07:45:48.000Z</time>
      </trkpt>
      <trkpt lat="45.22593" lon="5.74526">
        <ele>784</ele>
        <time>2021-06-26T07:45:50.000Z</time>
      </trkpt>
      <trkpt lat="45.22593" lon="5.74527">
        <ele>783.40002441406</ele>
        <time>2021-06-26T07:45:51.000Z</time>
      </trkpt>
      <trkpt lat="45.22592" lon="5.74528">
        <ele>783.20001220703</ele>
        <time>2021-06-26T07:45:52.000Z</time>
      </trkpt>
      <trkpt lat="45.22591" lon="5.74534">
        <ele>781.40002441406</ele>
        <time>2021-06-26T07:45:55.000Z</time>
      </trkpt>
      <trkpt lat="45.2259" lon="5.74537">
        <ele>781</ele>
        <time>2021-06-26T07:45:57.000Z</time>
      </trkpt>
      <trkpt lat="45.2259" lon="5.74537">
        <ele>780.79998779297</ele>
        <time>2021-06-26T07:45:58.000Z</time>
      </trkpt>
      <trkpt lat="45.2259" lon="5.74538">
        <ele>780</ele>
        <time>2021-06-26T07:45:59.000Z</time>
      </trkpt>
      <trkpt lat="45.2259" lon="5.7454">
        <ele>778.79998779297</ele>
        <time>2021-06-26T07:46:00.000Z</time>
      </trkpt>
      <trkpt lat="45.22589" lon="5.74544">
        <ele>778.20001220703</ele>
        <time>2021-06-26T07:46:02.000Z</time>
      </trkpt>
      <trkpt lat="45.22589" lon="5.74552">
        <ele>777.59997558594</ele>
        <time>2021-06-26T07:46:05.000Z</time>
      </trkpt>
      <trkpt lat="45.22589" lon="5.74556">
        <ele>776.40002441406</ele>
        <time>2021-06-26T07:46:07.000Z</time>
      </trkpt>
      <trkpt lat="45.22588" lon="5.7456">
        <ele>775.59997558594</ele>
        <time>2021-06-26T07:46:09.000Z</time>
      </trkpt>
      <trkpt lat="45.22588" lon="5.74564">
        <ele>774.79998779297</ele>
        <time>2021-06-26T07:46:11.000Z</time>
      </trkpt>
      <trkpt lat="45.22588" lon="5.74567">
        <ele>774.40002441406</ele>
        <time>2021-06-26T07:46:13.000Z</time>
      </trkpt>
      <trkpt lat="45.22586" lon="5.7457">
        <ele>773.20001220703</ele>
        <time>2021-06-26T07:46:15.000Z</time>
      </trkpt>
      <trkpt lat="45.22586" lon="5.74573">
        <ele>772.79998779297</ele>
        <time>2021-06-26T07:46:17.000Z</time>
      </trkpt>
      <trkpt lat="45.22586" lon="5.74574">
        <ele>772</ele>
        <time>2021-06-26T07:46:18.000Z</time>
      </trkpt>
      <trkpt lat="45.22585" lon="5.74576">
        <ele>771.79998779297</ele>
        <time>2021-06-26T07:46:19.000Z</time>
      </trkpt>
      <trkpt lat="45.22582" lon="5.7458">
        <ele>771</ele>
        <time>2021-06-26T07:46:21.000Z</time>
      </trkpt>
      <trkpt lat="45.22581" lon="5.74582">
        <ele>770.59997558594</ele>
        <time>2021-06-26T07:46:22.000Z</time>
      </trkpt>
      <trkpt lat="45.2258" lon="5.74586">
        <ele>770</ele>
        <time>2021-06-26T07:46:23.000Z</time>
      </trkpt>
      <trkpt lat="45.2258" lon="5.74588">
        <ele>769.59997558594</ele>
        <time>2021-06-26T07:46:24.000Z</time>
      </trkpt>
      <trkpt lat="45.2258" lon="5.74589">
        <ele>769.20001220703</ele>
        <time>2021-06-26T07:46:25.000Z</time>
      </trkpt>
      <trkpt lat="45.2258" lon="5.74592">
        <ele>768.59997558594</ele>
        <time>2021-06-26T07:46:27.000Z</time>
      </trkpt>
      <trkpt lat="45.22578" lon="5.74597">
        <ele>768</ele>
        <time>2021-06-26T07:46:29.000Z</time>
      </trkpt>
      <trkpt lat="45.22575" lon="5.74602">
        <ele>766.79998779297</ele>
        <time>2021-06-26T07:46:34.000Z</time>
      </trkpt>
      <trkpt lat="45.22573" lon="5.74605">
        <ele>766.40002441406</ele>
        <time>2021-06-26T07:46:36.000Z</time>
      </trkpt>
      <trkpt lat="45.22573" lon="5.74607">
        <ele>765.20001220703</ele>
        <time>2021-06-26T07:46:37.000Z</time>
      </trkpt>
      <trkpt lat="45.22573" lon="5.74609">
        <ele>764</ele>
        <time>2021-06-26T07:46:38.000Z</time>
      </trkpt>
      <trkpt lat="45.22573" lon="5.7461">
        <ele>764</ele>
        <time>2021-06-26T07:46:39.000Z</time>
      </trkpt>
      <trkpt lat="45.22573" lon="5.74612">
        <ele>763.79998779297</ele>
        <time>2021-06-26T07:46:40.000Z</time>
      </trkpt>
      <trkpt lat="45.22572" lon="5.74615">
        <ele>763.20001220703</ele>
        <time>2021-06-26T07:46:42.000Z</time>
      </trkpt>
      <trkpt lat="45.22572" lon="5.74616">
        <ele>762.79998779297</ele>
        <time>2021-06-26T07:46:43.000Z</time>
      </trkpt>
      <trkpt lat="45.22571" lon="5.74618">
        <ele>761</ele>
        <time>2021-06-26T07:46:45.000Z</time>
      </trkpt>
      <trkpt lat="45.2257" lon="5.7462">
        <ele>761</ele>
        <time>2021-06-26T07:46:46.000Z</time>
      </trkpt>
      <trkpt lat="45.22566" lon="5.74625">
        <ele>760.79998779297</ele>
        <time>2021-06-26T07:46:48.000Z</time>
      </trkpt>
      <trkpt lat="45.2256" lon="5.74627">
        <ele>760</ele>
        <time>2021-06-26T07:46:51.000Z</time>
      </trkpt>
      <trkpt lat="45.22559" lon="5.74628">
        <ele>759.59997558594</ele>
        <time>2021-06-26T07:46:52.000Z</time>
      </trkpt>
      <trkpt lat="45.22558" lon="5.74627">
        <ele>759.59997558594</ele>
        <time>2021-06-26T07:46:53.000Z</time>
      </trkpt>
      <trkpt lat="45.22557" lon="5.74627">
        <ele>760</ele>
        <time>2021-06-26T07:46:54.000Z</time>
      </trkpt>
      <trkpt lat="45.22556" lon="5.74625">
        <ele>760</ele>
        <time>2021-06-26T07:46:55.000Z</time>
      </trkpt>
      <trkpt lat="45.22556" lon="5.74624">
        <ele>760.20001220703</ele>
        <time>2021-06-26T07:46:56.000Z</time>
      </trkpt>
      <trkpt lat="45.22555" lon="5.74619">
        <ele>761.59997558594</ele>
        <time>2021-06-26T07:47:00.000Z</time>
      </trkpt>
      <trkpt lat="45.22554" lon="5.74617">
        <ele>761.79998779297</ele>
        <time>2021-06-26T07:47:02.000Z</time>
      </trkpt>
      <trkpt lat="45.22552" lon="5.74615">
        <ele>762.20001220703</ele>
        <time>2021-06-26T07:47:03.000Z</time>
      </trkpt>
      <trkpt lat="45.22551" lon="5.74614">
        <ele>762.40002441406</ele>
        <time>2021-06-26T07:47:05.000Z</time>
      </trkpt>
      <trkpt lat="45.22551" lon="5.74613">
        <ele>763.20001220703</ele>
        <time>2021-06-26T07:47:06.000Z</time>
      </trkpt>
      <trkpt lat="45.22551" lon="5.74609">
        <ele>763.59997558594</ele>
        <time>2021-06-26T07:47:09.000Z</time>
      </trkpt>
      <trkpt lat="45.22551" lon="5.74608">
        <ele>763.79998779297</ele>
        <time>2021-06-26T07:47:10.000Z</time>
      </trkpt>
      <trkpt lat="45.22551" lon="5.74607">
        <ele>764.20001220703</ele>
        <time>2021-06-26T07:47:11.000Z</time>
      </trkpt>
      <trkpt lat="45.22551" lon="5.74605">
        <ele>764.40002441406</ele>
        <time>2021-06-26T07:47:12.000Z</time>
      </trkpt>
      <trkpt lat="45.2255" lon="5.74604">
        <ele>765</ele>
        <time>2021-06-26T07:47:13.000Z</time>
      </trkpt>
      <trkpt lat="45.22549" lon="5.74603">
        <ele>765.40002441406</ele>
        <time>2021-06-26T07:47:14.000Z</time>
      </trkpt>
      <trkpt lat="45.22549" lon="5.74602">
        <ele>765.59997558594</ele>
        <time>2021-06-26T07:47:15.000Z</time>
      </trkpt>
      <trkpt lat="45.22548" lon="5.746">
        <ele>766</ele>
        <time>2021-06-26T07:47:17.000Z</time>
      </trkpt>
      <trkpt lat="45.22547" lon="5.74599">
        <ele>766</ele>
        <time>2021-06-26T07:47:18.000Z</time>
      </trkpt>
      <trkpt lat="45.22546" lon="5.74599">
        <ele>766.59997558594</ele>
        <time>2021-06-26T07:47:19.000Z</time>
      </trkpt>
      <trkpt lat="45.22545" lon="5.74598">
        <ele>767</ele>
        <time>2021-06-26T07:47:21.000Z</time>
      </trkpt>
      <trkpt lat="45.22544" lon="5.74597">
        <ele>767.59997558594</ele>
        <time>2021-06-26T07:47:23.000Z</time>
      </trkpt>
      <trkpt lat="45.22544" lon="5.74596">
        <ele>767.79998779297</ele>
        <time>2021-06-26T07:47:25.000Z</time>
      </trkpt>
      <trkpt lat="45.22543" lon="5.74596">
        <ele>767.79998779297</ele>
        <time>2021-06-26T07:47:26.000Z</time>
      </trkpt>
      <trkpt lat="45.22543" lon="5.74596">
        <ele>768.59997558594</ele>
        <time>2021-06-26T07:47:27.000Z</time>
      </trkpt>
      <trkpt lat="45.2254" lon="5.74593">
        <ele>769</ele>
        <time>2021-06-26T07:47:30.000Z</time>
      </trkpt>
      <trkpt lat="45.22538" lon="5.74591">
        <ele>769.59997558594</ele>
        <time>2021-06-26T07:47:33.000Z</time>
      </trkpt>
      <trkpt lat="45.22537" lon="5.7459">
        <ele>770</ele>
        <time>2021-06-26T07:47:34.000Z</time>
      </trkpt>
      <trkpt lat="45.22534" lon="5.74586">
        <ele>771.20001220703</ele>
        <time>2021-06-26T07:47:38.000Z</time>
      </trkpt>
      <trkpt lat="45.22532" lon="5.74585">
        <ele>771.40002441406</ele>
        <time>2021-06-26T07:47:39.000Z</time>
      </trkpt>
      <trkpt lat="45.2253" lon="5.74582">
        <ele>771.59997558594</ele>
        <time>2021-06-26T07:47:41.000Z</time>
      </trkpt>
      <trkpt lat="45.2253" lon="5.74582">
        <ele>772.20001220703</ele>
        <time>2021-06-26T07:47:42.000Z</time>
      </trkpt>
      <trkpt lat="45.22529" lon="5.74582">
        <ele>772.79998779297</ele>
        <time>2021-06-26T07:47:44.000Z</time>
      </trkpt>
      <trkpt lat="45.22529" lon="5.74582">
        <ele>772.79998779297</ele>
        <time>2021-06-26T07:47:45.000Z</time>
      </trkpt>
      <trkpt lat="45.22529" lon="5.7458">
        <ele>772.79998779297</ele>
        <time>2021-06-26T07:47:46.000Z</time>
      </trkpt>
      <trkpt lat="45.22528" lon="5.74579">
        <ele>773</ele>
        <time>2021-06-26T07:47:47.000Z</time>
      </trkpt>
      <trkpt lat="45.22528" lon="5.74579">
        <ele>773.20001220703</ele>
        <time>2021-06-26T07:47:48.000Z</time>
      </trkpt>
      <trkpt lat="45.22525" lon="5.74577">
        <ele>774</ele>
        <time>2021-06-26T07:47:51.000Z</time>
      </trkpt>
      <trkpt lat="45.22524" lon="5.74576">
        <ele>774.40002441406</ele>
        <time>2021-06-26T07:47:52.000Z</time>
      </trkpt>
      <trkpt lat="45.22523" lon="5.74574">
        <ele>774.59997558594</ele>
        <time>2021-06-26T07:47:54.000Z</time>
      </trkpt>
      <trkpt lat="45.22521" lon="5.74572">
        <ele>774.79998779297</ele>
        <time>2021-06-26T07:47:56.000Z</time>
      </trkpt>
      <trkpt lat="45.22519" lon="5.7457">
        <ele>775.40002441406</ele>
        <time>2021-06-26T07:47:57.000Z</time>
      </trkpt>
      <trkpt lat="45.22516" lon="5.74567">
        <ele>775.79998779297</ele>
        <time>2021-06-26T07:48:00.000Z</time>
      </trkpt>
      <trkpt lat="45.22514" lon="5.74565">
        <ele>776.40002441406</ele>
        <time>2021-06-26T07:48:03.000Z</time>
      </trkpt>
      <trkpt lat="45.22513" lon="5.74563">
        <ele>776.79998779297</ele>
        <time>2021-06-26T07:48:05.000Z</time>
      </trkpt>
      <trkpt lat="45.22511" lon="5.74561">
        <ele>777.20001220703</ele>
        <time>2021-06-26T07:48:07.000Z</time>
      </trkpt>
      <trkpt lat="45.22507" lon="5.74558">
        <ele>778.20001220703</ele>
        <time>2021-06-26T07:48:13.000Z</time>
      </trkpt>
      <trkpt lat="45.22505" lon="5.74553">
        <ele>778.59997558594</ele>
        <time>2021-06-26T07:48:16.000Z</time>
      </trkpt>
      <trkpt lat="45.22502" lon="5.7455">
        <ele>778.79998779297</ele>
        <time>2021-06-26T07:48:18.000Z</time>
      </trkpt>
      <trkpt lat="45.225" lon="5.74548">
        <ele>779.79998779297</ele>
        <time>2021-06-26T07:48:20.000Z</time>
      </trkpt>
      <trkpt lat="45.22498" lon="5.74542">
        <ele>779.79998779297</ele>
        <time>2021-06-26T07:48:23.000Z</time>
      </trkpt>
      <trkpt lat="45.22497" lon="5.74539">
        <ele>780.79998779297</ele>
        <time>2021-06-26T07:48:26.000Z</time>
      </trkpt>
      <trkpt lat="45.22493" lon="5.74535">
        <ele>781</ele>
        <time>2021-06-26T07:48:29.000Z</time>
      </trkpt>
      <trkpt lat="45.22492" lon="5.74533">
        <ele>782</ele>
        <time>2021-06-26T07:48:31.000Z</time>
      </trkpt>
      <trkpt lat="45.22489" lon="5.74531">
        <ele>782.40002441406</ele>
        <time>2021-06-26T07:48:34.000Z</time>
      </trkpt>
      <trkpt lat="45.22486" lon="5.7453">
        <ele>782.59997558594</ele>
        <time>2021-06-26T07:48:36.000Z</time>
      </trkpt>
      <trkpt lat="45.22484" lon="5.74527">
        <ele>783.20001220703</ele>
        <time>2021-06-26T07:48:38.000Z</time>
      </trkpt>
      <trkpt lat="45.22483" lon="5.74527">
        <ele>783.20001220703</ele>
        <time>2021-06-26T07:48:39.000Z</time>
      </trkpt>
      <trkpt lat="45.22479" lon="5.74524">
        <ele>784</ele>
        <time>2021-06-26T07:48:43.000Z</time>
      </trkpt>
      <trkpt lat="45.22478" lon="5.74524">
        <ele>784.40002441406</ele>
        <time>2021-06-26T07:48:44.000Z</time>
      </trkpt>
      <trkpt lat="45.22478" lon="5.74524">
        <ele>784.59997558594</ele>
        <time>2021-06-26T07:48:45.000Z</time>
      </trkpt>
      <trkpt lat="45.22474" lon="5.74525">
        <ele>785.20001220703</ele>
        <time>2021-06-26T07:48:48.000Z</time>
      </trkpt>
      <trkpt lat="45.22472" lon="5.74526">
        <ele>785.59997558594</ele>
        <time>2021-06-26T07:48:50.000Z</time>
      </trkpt>
      <trkpt lat="45.22469" lon="5.74524">
        <ele>786.40002441406</ele>
        <time>2021-06-26T07:48:53.000Z</time>
      </trkpt>
      <trkpt lat="45.22467" lon="5.74523">
        <ele>786.59997558594</ele>
        <time>2021-06-26T07:48:54.000Z</time>
      </trkpt>
      <trkpt lat="45.22465" lon="5.74522">
        <ele>787.20001220703</ele>
        <time>2021-06-26T07:48:57.000Z</time>
      </trkpt>
      <trkpt lat="45.22464" lon="5.74522">
        <ele>788.20001220703</ele>
        <time>2021-06-26T07:48:59.000Z</time>
      </trkpt>
      <trkpt lat="45.22463" lon="5.74521">
        <ele>788.40002441406</ele>
        <time>2021-06-26T07:49:00.000Z</time>
      </trkpt>
      <trkpt lat="45.22461" lon="5.74521">
        <ele>788.59997558594</ele>
        <time>2021-06-26T07:49:02.000Z</time>
      </trkpt>
      <trkpt lat="45.2246" lon="5.74519">
        <ele>789.20001220703</ele>
        <time>2021-06-26T07:49:05.000Z</time>
      </trkpt>
      <trkpt lat="45.22459" lon="5.74518">
        <ele>789.40002441406</ele>
        <time>2021-06-26T07:49:06.000Z</time>
      </trkpt>
      <trkpt lat="45.22458" lon="5.74517">
        <ele>789.59997558594</ele>
        <time>2021-06-26T07:49:07.000Z</time>
      </trkpt>
      <trkpt lat="45.22455" lon="5.74513">
        <ele>790.40002441406</ele>
        <time>2021-06-26T07:49:10.000Z</time>
      </trkpt>
      <trkpt lat="45.22455" lon="5.74513">
        <ele>790.40002441406</ele>
        <time>2021-06-26T07:49:11.000Z</time>
      </trkpt>
      <trkpt lat="45.22454" lon="5.74513">
        <ele>790.40002441406</ele>
        <time>2021-06-26T07:49:12.000Z</time>
      </trkpt>
      <trkpt lat="45.22453" lon="5.74512">
        <ele>790.79998779297</ele>
        <time>2021-06-26T07:49:13.000Z</time>
      </trkpt>
      <trkpt lat="45.2245" lon="5.7451">
        <ele>791.40002441406</ele>
        <time>2021-06-26T07:49:15.000Z</time>
      </trkpt>
      <trkpt lat="45.2245" lon="5.74509">
        <ele>791.59997558594</ele>
        <time>2021-06-26T07:49:16.000Z</time>
      </trkpt>
      <trkpt lat="45.22448" lon="5.74505">
        <ele>792</ele>
        <time>2021-06-26T07:49:19.000Z</time>
      </trkpt>
      <trkpt lat="45.22448" lon="5.745">
        <ele>792.40002441406</ele>
        <time>2021-06-26T07:49:21.000Z</time>
      </trkpt>
      <trkpt lat="45.22448" lon="5.74497">
        <ele>793.59997558594</ele>
        <time>2021-06-26T07:49:23.000Z</time>
      </trkpt>
      <trkpt lat="45.22447" lon="5.74497">
        <ele>793.59997558594</ele>
        <time>2021-06-26T07:49:24.000Z</time>
      </trkpt>
      <trkpt lat="45.22446" lon="5.74493">
        <ele>794.59997558594</ele>
        <time>2021-06-26T07:49:27.000Z</time>
      </trkpt>
      <trkpt lat="45.22445" lon="5.74485">
        <ele>795.40002441406</ele>
        <time>2021-06-26T07:49:32.000Z</time>
      </trkpt>
      <trkpt lat="45.22445" lon="5.74484">
        <ele>796</ele>
        <time>2021-06-26T07:49:33.000Z</time>
      </trkpt>
      <trkpt lat="45.22445" lon="5.74483">
        <ele>796</ele>
        <time>2021-06-26T07:49:34.000Z</time>
      </trkpt>
      <trkpt lat="45.22444" lon="5.7448">
        <ele>796.59997558594</ele>
        <time>2021-06-26T07:49:36.000Z</time>
      </trkpt>
      <trkpt lat="45.22443" lon="5.74476">
        <ele>797.59997558594</ele>
        <time>2021-06-26T07:49:39.000Z</time>
      </trkpt>
      <trkpt lat="45.22443" lon="5.74473">
        <ele>797.59997558594</ele>
        <time>2021-06-26T07:49:42.000Z</time>
      </trkpt>
      <trkpt lat="45.22443" lon="5.74471">
        <ele>797.79998779297</ele>
        <time>2021-06-26T07:49:44.000Z</time>
      </trkpt>
      <trkpt lat="45.22442" lon="5.74468">
        <ele>798.79998779297</ele>
        <time>2021-06-26T07:49:47.000Z</time>
      </trkpt>
      <trkpt lat="45.22441" lon="5.74466">
        <ele>798.79998779297</ele>
        <time>2021-06-26T07:49:48.000Z</time>
      </trkpt>
      <trkpt lat="45.22441" lon="5.74465">
        <ele>799.20001220703</ele>
        <time>2021-06-26T07:49:49.000Z</time>
      </trkpt>
      <trkpt lat="45.2244" lon="5.74459">
        <ele>800</ele>
        <time>2021-06-26T07:49:53.000Z</time>
      </trkpt>
      <trkpt lat="45.2244" lon="5.74458">
        <ele>800</ele>
        <time>2021-06-26T07:49:54.000Z</time>
      </trkpt>
      <trkpt lat="45.22438" lon="5.74456">
        <ele>801</ele>
        <time>2021-06-26T07:49:57.000Z</time>
      </trkpt>
      <trkpt lat="45.22436" lon="5.74453">
        <ele>801.59997558594</ele>
        <time>2021-06-26T07:49:59.000Z</time>
      </trkpt>
      <trkpt lat="45.22434" lon="5.74447">
        <ele>802.20001220703</ele>
        <time>2021-06-26T07:50:03.000Z</time>
      </trkpt>
      <trkpt lat="45.22432" lon="5.74444">
        <ele>803.20001220703</ele>
        <time>2021-06-26T07:50:06.000Z</time>
      </trkpt>
      <trkpt lat="45.22431" lon="5.74443">
        <ele>803.20001220703</ele>
        <time>2021-06-26T07:50:07.000Z</time>
      </trkpt>
      <trkpt lat="45.22431" lon="5.74442">
        <ele>803.59997558594</ele>
        <time>2021-06-26T07:50:08.000Z</time>
      </trkpt>
      <trkpt lat="45.22431" lon="5.74441">
        <ele>803.79998779297</ele>
        <time>2021-06-26T07:50:09.000Z</time>
      </trkpt>
      <trkpt lat="45.22429" lon="5.74438">
        <ele>804</ele>
        <time>2021-06-26T07:50:12.000Z</time>
      </trkpt>
      <trkpt lat="45.22428" lon="5.74436">
        <ele>804.40002441406</ele>
        <time>2021-06-26T07:50:13.000Z</time>
      </trkpt>
      <trkpt lat="45.22425" lon="5.74431">
        <ele>805</ele>
        <time>2021-06-26T07:50:17.000Z</time>
      </trkpt>
      <trkpt lat="45.22424" lon="5.74427">
        <ele>805.40002441406</ele>
        <time>2021-06-26T07:50:19.000Z</time>
      </trkpt>
      <trkpt lat="45.22424" lon="5.74424">
        <ele>805.59997558594</ele>
        <time>2021-06-26T07:50:21.000Z</time>
      </trkpt>
      <trkpt lat="45.22422" lon="5.74419">
        <ele>806.59997558594</ele>
        <time>2021-06-26T07:50:25.000Z</time>
      </trkpt>
      <trkpt lat="45.22419" lon="5.74411">
        <ele>807.59997558594</ele>
        <time>2021-06-26T07:50:31.000Z</time>
      </trkpt>
      <trkpt lat="45.22419" lon="5.74409">
        <ele>808</ele>
        <time>2021-06-26T07:50:32.000Z</time>
      </trkpt>
      <trkpt lat="45.22417" lon="5.74403">
        <ele>808.59997558594</ele>
        <time>2021-06-26T07:50:36.000Z</time>
      </trkpt>
      <trkpt lat="45.22416" lon="5.74399">
        <ele>809.40002441406</ele>
        <time>2021-06-26T07:50:38.000Z</time>
      </trkpt>
      <trkpt lat="45.22415" lon="5.74396">
        <ele>809.79998779297</ele>
        <time>2021-06-26T07:50:40.000Z</time>
      </trkpt>
      <trkpt lat="45.22414" lon="5.74387">
        <ele>811</ele>
        <time>2021-06-26T07:50:46.000Z</time>
      </trkpt>
      <trkpt lat="45.22412" lon="5.74383">
        <ele>812.20001220703</ele>
        <time>2021-06-26T07:50:50.000Z</time>
      </trkpt>
      <trkpt lat="45.22411" lon="5.74381">
        <ele>812.40002441406</ele>
        <time>2021-06-26T07:50:52.000Z</time>
      </trkpt>
      <trkpt lat="45.2241" lon="5.74374">
        <ele>813.40002441406</ele>
        <time>2021-06-26T07:50:56.000Z</time>
      </trkpt>
      <trkpt lat="45.22408" lon="5.74371">
        <ele>814.20001220703</ele>
        <time>2021-06-26T07:50:59.000Z</time>
      </trkpt>
      <trkpt lat="45.22407" lon="5.7437">
        <ele>814.40002441406</ele>
        <time>2021-06-26T07:51:00.000Z</time>
      </trkpt>
      <trkpt lat="45.22405" lon="5.74362">
        <ele>815</ele>
        <time>2021-06-26T07:51:05.000Z</time>
      </trkpt>
      <trkpt lat="45.22404" lon="5.7436">
        <ele>815.79998779297</ele>
        <time>2021-06-26T07:51:06.000Z</time>
      </trkpt>
      <trkpt lat="45.22402" lon="5.74355">
        <ele>816.59997558594</ele>
        <time>2021-06-26T07:51:10.000Z</time>
      </trkpt>
      <trkpt lat="45.22402" lon="5.74354">
        <ele>817</ele>
        <time>2021-06-26T07:51:11.000Z</time>
      </trkpt>
      <trkpt lat="45.22401" lon="5.74351">
        <ele>817.20001220703</ele>
        <time>2021-06-26T07:51:13.000Z</time>
      </trkpt>
      <trkpt lat="45.22397" lon="5.74343">
        <ele>818.59997558594</ele>
        <time>2021-06-26T07:51:18.000Z</time>
      </trkpt>
      <trkpt lat="45.22396" lon="5.74337">
        <ele>819.79998779297</ele>
        <time>2021-06-26T07:51:22.000Z</time>
      </trkpt>
      <trkpt lat="45.22396" lon="5.74335">
        <ele>819.79998779297</ele>
        <time>2021-06-26T07:51:24.000Z</time>
      </trkpt>
      <trkpt lat="45.22397" lon="5.74332">
        <ele>820</ele>
        <time>2021-06-26T07:51:26.000Z</time>
      </trkpt>
      <trkpt lat="45.22396" lon="5.74329">
        <ele>820.79998779297</ele>
        <time>2021-06-26T07:51:28.000Z</time>
      </trkpt>
      <trkpt lat="45.22396" lon="5.74328">
        <ele>821.20001220703</ele>
        <time>2021-06-26T07:51:29.000Z</time>
      </trkpt>
      <trkpt lat="45.22395" lon="5.74326">
        <ele>822</ele>
        <time>2021-06-26T07:51:31.000Z</time>
      </trkpt>
      <trkpt lat="45.22392" lon="5.74322">
        <ele>822.59997558594</ele>
        <time>2021-06-26T07:51:33.000Z</time>
      </trkpt>
      <trkpt lat="45.2239" lon="5.7432">
        <ele>822.79998779297</ele>
        <time>2021-06-26T07:51:35.000Z</time>
      </trkpt>
      <trkpt lat="45.22389" lon="5.74319">
        <ele>823</ele>
        <time>2021-06-26T07:51:36.000Z</time>
      </trkpt>
      <trkpt lat="45.22387" lon="5.74316">
        <ele>823.59997558594</ele>
        <time>2021-06-26T07:51:38.000Z</time>
      </trkpt>
      <trkpt lat="45.22384" lon="5.74311">
        <ele>824.59997558594</ele>
        <time>2021-06-26T07:51:42.000Z</time>
      </trkpt>
      <trkpt lat="45.22381" lon="5.74303">
        <ele>826.20001220703</ele>
        <time>2021-06-26T07:51:48.000Z</time>
      </trkpt>
      <trkpt lat="45.2238" lon="5.74301">
        <ele>826.40002441406</ele>
        <time>2021-06-26T07:51:49.000Z</time>
      </trkpt>
      <trkpt lat="45.2238" lon="5.74301">
        <ele>827</ele>
        <time>2021-06-26T07:51:50.000Z</time>
      </trkpt>
      <trkpt lat="45.22378" lon="5.74298">
        <ele>827.40002441406</ele>
        <time>2021-06-26T07:51:52.000Z</time>
      </trkpt>
      <trkpt lat="45.22377" lon="5.74298">
        <ele>827.59997558594</ele>
        <time>2021-06-26T07:51:53.000Z</time>
      </trkpt>
      <trkpt lat="45.22376" lon="5.74296">
        <ele>827.59997558594</ele>
        <time>2021-06-26T07:51:54.000Z</time>
      </trkpt>
      <trkpt lat="45.22375" lon="5.74292">
        <ele>828.20001220703</ele>
        <time>2021-06-26T07:51:58.000Z</time>
      </trkpt>
      <trkpt lat="45.22375" lon="5.7429">
        <ele>828.59997558594</ele>
        <time>2021-06-26T07:51:59.000Z</time>
      </trkpt>
      <trkpt lat="45.22375" lon="5.74289">
        <ele>828.79998779297</ele>
        <time>2021-06-26T07:52:00.000Z</time>
      </trkpt>
      <trkpt lat="45.22374" lon="5.74286">
        <ele>829.79998779297</ele>
        <time>2021-06-26T07:52:03.000Z</time>
      </trkpt>
      <trkpt lat="45.22373" lon="5.74284">
        <ele>830.59997558594</ele>
        <time>2021-06-26T07:52:05.000Z</time>
      </trkpt>
      <trkpt lat="45.22372" lon="5.74283">
        <ele>830.79998779297</ele>
        <time>2021-06-26T07:52:06.000Z</time>
      </trkpt>
      <trkpt lat="45.22371" lon="5.7428">
        <ele>831</ele>
        <time>2021-06-26T07:52:08.000Z</time>
      </trkpt>
      <trkpt lat="45.2237" lon="5.74275">
        <ele>831.59997558594</ele>
        <time>2021-06-26T07:52:11.000Z</time>
      </trkpt>
      <trkpt lat="45.22369" lon="5.74274">
        <ele>832</ele>
        <time>2021-06-26T07:52:12.000Z</time>
      </trkpt>
      <trkpt lat="45.22364" lon="5.74271">
        <ele>832.79998779297</ele>
        <time>2021-06-26T07:52:16.000Z</time>
      </trkpt>
      <trkpt lat="45.22363" lon="5.74267">
        <ele>833.40002441406</ele>
        <time>2021-06-26T07:52:18.000Z</time>
      </trkpt>
      <trkpt lat="45.22361" lon="5.74262">
        <ele>834.20001220703</ele>
        <time>2021-06-26T07:52:22.000Z</time>
      </trkpt>
      <trkpt lat="45.22359" lon="5.74259">
        <ele>834.40002441406</ele>
        <time>2021-06-26T07:52:24.000Z</time>
      </trkpt>
      <trkpt lat="45.22357" lon="5.74254">
        <ele>835.20001220703</ele>
        <time>2021-06-26T07:52:27.000Z</time>
      </trkpt>
      <trkpt lat="45.22356" lon="5.74253">
        <ele>835.40002441406</ele>
        <time>2021-06-26T07:52:28.000Z</time>
      </trkpt>
      <trkpt lat="45.22356" lon="5.74249">
        <ele>835.79998779297</ele>
        <time>2021-06-26T07:52:30.000Z</time>
      </trkpt>
      <trkpt lat="45.22354" lon="5.74244">
        <ele>836</ele>
        <time>2021-06-26T07:52:33.000Z</time>
      </trkpt>
      <trkpt lat="45.22353" lon="5.74242">
        <ele>836.40002441406</ele>
        <time>2021-06-26T07:52:34.000Z</time>
      </trkpt>
      <trkpt lat="45.22353" lon="5.7424">
        <ele>836.79998779297</ele>
        <time>2021-06-26T07:52:35.000Z</time>
      </trkpt>
      <trkpt lat="45.22353" lon="5.74239">
        <ele>837.20001220703</ele>
        <time>2021-06-26T07:52:37.000Z</time>
      </trkpt>
      <trkpt lat="45.22354" lon="5.74235">
        <ele>838.20001220703</ele>
        <time>2021-06-26T07:52:39.000Z</time>
      </trkpt>
      <trkpt lat="45.22354" lon="5.74233">
        <ele>838.40002441406</ele>
        <time>2021-06-26T07:52:41.000Z</time>
      </trkpt>
      <trkpt lat="45.22348" lon="5.74228">
        <ele>839</ele>
        <time>2021-06-26T07:52:45.000Z</time>
      </trkpt>
      <trkpt lat="45.22348" lon="5.74227">
        <ele>839.20001220703</ele>
        <time>2021-06-26T07:52:46.000Z</time>
      </trkpt>
      <trkpt lat="45.22346" lon="5.74226">
        <ele>840.20001220703</ele>
        <time>2021-06-26T07:52:49.000Z</time>
      </trkpt>
      <trkpt lat="45.22345" lon="5.74225">
        <ele>840.40002441406</ele>
        <time>2021-06-26T07:52:50.000Z</time>
      </trkpt>
      <trkpt lat="45.22344" lon="5.74224">
        <ele>840.40002441406</ele>
        <time>2021-06-26T07:52:51.000Z</time>
      </trkpt>
      <trkpt lat="45.2234" lon="5.74222">
        <ele>841.40002441406</ele>
        <time>2021-06-26T07:52:54.000Z</time>
      </trkpt>
      <trkpt lat="45.2234" lon="5.74221">
        <ele>841.59997558594</ele>
        <time>2021-06-26T07:52:55.000Z</time>
      </trkpt>
      <trkpt lat="45.22339" lon="5.7422">
        <ele>842.20001220703</ele>
        <time>2021-06-26T07:52:57.000Z</time>
      </trkpt>
      <trkpt lat="45.22339" lon="5.7422">
        <ele>842.59997558594</ele>
        <time>2021-06-26T07:52:58.000Z</time>
      </trkpt>
      <trkpt lat="45.22338" lon="5.7422">
        <ele>842.79998779297</ele>
        <time>2021-06-26T07:52:59.000Z</time>
      </trkpt>
      <trkpt lat="45.22337" lon="5.74219">
        <ele>843.20001220703</ele>
        <time>2021-06-26T07:53:01.000Z</time>
      </trkpt>
      <trkpt lat="45.22333" lon="5.74217">
        <ele>844</ele>
        <time>2021-06-26T07:53:05.000Z</time>
      </trkpt>
      <trkpt lat="45.22332" lon="5.74216">
        <ele>844.59997558594</ele>
        <time>2021-06-26T07:53:07.000Z</time>
      </trkpt>
      <trkpt lat="45.22332" lon="5.74215">
        <ele>844.79998779297</ele>
        <time>2021-06-26T07:53:08.000Z</time>
      </trkpt>
      <trkpt lat="45.2233" lon="5.74214">
        <ele>845</ele>
        <time>2021-06-26T07:53:09.000Z</time>
      </trkpt>
      <trkpt lat="45.22327" lon="5.74213">
        <ele>845.79998779297</ele>
        <time>2021-06-26T07:53:11.000Z</time>
      </trkpt>
      <trkpt lat="45.22324" lon="5.74212">
        <ele>846.20001220703</ele>
        <time>2021-06-26T07:53:13.000Z</time>
      </trkpt>
      <trkpt lat="45.2232" lon="5.7421">
        <ele>846.40002441406</ele>
        <time>2021-06-26T07:53:16.000Z</time>
      </trkpt>
      <trkpt lat="45.22319" lon="5.74209">
        <ele>846.40002441406</ele>
        <time>2021-06-26T07:53:17.000Z</time>
      </trkpt>
      <trkpt lat="45.22317" lon="5.74205">
        <ele>847.59997558594</ele>
        <time>2021-06-26T07:53:20.000Z</time>
      </trkpt>
      <trkpt lat="45.22316" lon="5.74203">
        <ele>847.79998779297</ele>
        <time>2021-06-26T07:53:22.000Z</time>
      </trkpt>
      <trkpt lat="45.22313" lon="5.742">
        <ele>848.59997558594</ele>
        <time>2021-06-26T07:53:25.000Z</time>
      </trkpt>
      <trkpt lat="45.22305" lon="5.74194">
        <ele>849.40002441406</ele>
        <time>2021-06-26T07:53:31.000Z</time>
      </trkpt>
      <trkpt lat="45.22304" lon="5.74191">
        <ele>849.40002441406</ele>
        <time>2021-06-26T07:53:33.000Z</time>
      </trkpt>
      <trkpt lat="45.223" lon="5.74186">
        <ele>849.59997558594</ele>
        <time>2021-06-26T07:53:36.000Z</time>
      </trkpt>
      <trkpt lat="45.22299" lon="5.74184">
        <ele>849.59997558594</ele>
        <time>2021-06-26T07:53:37.000Z</time>
      </trkpt>
      <trkpt lat="45.22293" lon="5.74174">
        <ele>850.59997558594</ele>
        <time>2021-06-26T07:53:43.000Z</time>
      </trkpt>
      <trkpt lat="45.22291" lon="5.74171">
        <ele>850.59997558594</ele>
        <time>2021-06-26T07:53:45.000Z</time>
      </trkpt>
      <trkpt lat="45.2229" lon="5.74169">
        <ele>850.79998779297</ele>
        <time>2021-06-26T07:53:46.000Z</time>
      </trkpt>
      <trkpt lat="45.22287" lon="5.74165">
        <ele>851.20001220703</ele>
        <time>2021-06-26T07:53:49.000Z</time>
      </trkpt>
      <trkpt lat="45.22283" lon="5.74159">
        <ele>852</ele>
        <time>2021-06-26T07:53:53.000Z</time>
      </trkpt>
      <trkpt lat="45.22282" lon="5.74157">
        <ele>852.40002441406</ele>
        <time>2021-06-26T07:53:55.000Z</time>
      </trkpt>
      <trkpt lat="45.22281" lon="5.74155">
        <ele>852.40002441406</ele>
        <time>2021-06-26T07:53:56.000Z</time>
      </trkpt>
      <trkpt lat="45.2228" lon="5.74153">
        <ele>852.79998779297</ele>
        <time>2021-06-26T07:53:58.000Z</time>
      </trkpt>
      <trkpt lat="45.2228" lon="5.74149">
        <ele>853.20001220703</ele>
        <time>2021-06-26T07:54:00.000Z</time>
      </trkpt>
      <trkpt lat="45.2228" lon="5.74147">
        <ele>853.40002441406</ele>
        <time>2021-06-26T07:54:01.000Z</time>
      </trkpt>
      <trkpt lat="45.22278" lon="5.74143">
        <ele>853.79998779297</ele>
        <time>2021-06-26T07:54:04.000Z</time>
      </trkpt>
      <trkpt lat="45.22277" lon="5.74141">
        <ele>854.20001220703</ele>
        <time>2021-06-26T07:54:06.000Z</time>
      </trkpt>
      <trkpt lat="45.22274" lon="5.74135">
        <ele>855</ele>
        <time>2021-06-26T07:54:09.000Z</time>
      </trkpt>
      <trkpt lat="45.22274" lon="5.74133">
        <ele>855.40002441406</ele>
        <time>2021-06-26T07:54:10.000Z</time>
      </trkpt>
      <trkpt lat="45.22272" lon="5.74131">
        <ele>855.59997558594</ele>
        <time>2021-06-26T07:54:11.000Z</time>
      </trkpt>
      <trkpt lat="45.22265" lon="5.74126">
        <ele>856.40002441406</ele>
        <time>2021-06-26T07:54:16.000Z</time>
      </trkpt>
      <trkpt lat="45.22264" lon="5.74125">
        <ele>857</ele>
        <time>2021-06-26T07:54:17.000Z</time>
      </trkpt>
      <trkpt lat="45.22264" lon="5.74124">
        <ele>857</ele>
        <time>2021-06-26T07:54:18.000Z</time>
      </trkpt>
      <trkpt lat="45.22262" lon="5.74122">
        <ele>857.20001220703</ele>
        <time>2021-06-26T07:54:20.000Z</time>
      </trkpt>
      <trkpt lat="45.22262" lon="5.74121">
        <ele>857.40002441406</ele>
        <time>2021-06-26T07:54:21.000Z</time>
      </trkpt>
      <trkpt lat="45.22261" lon="5.7412">
        <ele>858</ele>
        <time>2021-06-26T07:54:22.000Z</time>
      </trkpt>
      <trkpt lat="45.2226" lon="5.74118">
        <ele>858.40002441406</ele>
        <time>2021-06-26T07:54:25.000Z</time>
      </trkpt>
      <trkpt lat="45.2226" lon="5.74117">
        <ele>859.20001220703</ele>
        <time>2021-06-26T07:54:26.000Z</time>
      </trkpt>
      <trkpt lat="45.22258" lon="5.74116">
        <ele>859.20001220703</ele>
        <time>2021-06-26T07:54:28.000Z</time>
      </trkpt>
      <trkpt lat="45.22256" lon="5.74114">
        <ele>859.79998779297</ele>
        <time>2021-06-26T07:54:30.000Z</time>
      </trkpt>
      <trkpt lat="45.22255" lon="5.74113">
        <ele>860.20001220703</ele>
        <time>2021-06-26T07:54:31.000Z</time>
      </trkpt>
      <trkpt lat="45.2225" lon="5.7411">
        <ele>861.20001220703</ele>
        <time>2021-06-26T07:54:35.000Z</time>
      </trkpt>
      <trkpt lat="45.22249" lon="5.74108">
        <ele>861.20001220703</ele>
        <time>2021-06-26T07:54:36.000Z</time>
      </trkpt>
      <trkpt lat="45.22249" lon="5.74105">
        <ele>862.20001220703</ele>
        <time>2021-06-26T07:54:38.000Z</time>
      </trkpt>
      <trkpt lat="45.22244" lon="5.74098">
        <ele>863</ele>
        <time>2021-06-26T07:54:43.000Z</time>
      </trkpt>
      <trkpt lat="45.22243" lon="5.74097">
        <ele>863.40002441406</ele>
        <time>2021-06-26T07:54:44.000Z</time>
      </trkpt>
      <trkpt lat="45.22242" lon="5.74095">
        <ele>864.40002441406</ele>
        <time>2021-06-26T07:54:46.000Z</time>
      </trkpt>
      <trkpt lat="45.22241" lon="5.74095">
        <ele>864.40002441406</ele>
        <time>2021-06-26T07:54:47.000Z</time>
      </trkpt>
      <trkpt lat="45.2224" lon="5.74094">
        <ele>864.59997558594</ele>
        <time>2021-06-26T07:54:48.000Z</time>
      </trkpt>
      <trkpt lat="45.22237" lon="5.74092">
        <ele>865</ele>
        <time>2021-06-26T07:54:51.000Z</time>
      </trkpt>
      <trkpt lat="45.22235" lon="5.7409">
        <ele>865.79998779297</ele>
        <time>2021-06-26T07:54:53.000Z</time>
      </trkpt>
      <trkpt lat="45.22234" lon="5.74089">
        <ele>865.79998779297</ele>
        <time>2021-06-26T07:54:54.000Z</time>
      </trkpt>
      <trkpt lat="45.22232" lon="5.74086">
        <ele>865.79998779297</ele>
        <time>2021-06-26T07:54:56.000Z</time>
      </trkpt>
      <trkpt lat="45.22231" lon="5.74084">
        <ele>865.79998779297</ele>
        <time>2021-06-26T07:54:57.000Z</time>
      </trkpt>
      <trkpt lat="45.22228" lon="5.7408">
        <ele>866.40002441406</ele>
        <time>2021-06-26T07:55:00.000Z</time>
      </trkpt>
      <trkpt lat="45.22226" lon="5.74079">
        <ele>866.59997558594</ele>
        <time>2021-06-26T07:55:01.000Z</time>
      </trkpt>
      <trkpt lat="45.22225" lon="5.74077">
        <ele>867.20001220703</ele>
        <time>2021-06-26T07:55:02.000Z</time>
      </trkpt>
      <trkpt lat="45.22223" lon="5.74072">
        <ele>867.20001220703</ele>
        <time>2021-06-26T07:55:05.000Z</time>
      </trkpt>
      <trkpt lat="45.22218" lon="5.74062">
        <ele>868.20001220703</ele>
        <time>2021-06-26T07:55:11.000Z</time>
      </trkpt>
      <trkpt lat="45.22217" lon="5.74061">
        <ele>868.59997558594</ele>
        <time>2021-06-26T07:55:12.000Z</time>
      </trkpt>
      <trkpt lat="45.22217" lon="5.74059">
        <ele>869</ele>
        <time>2021-06-26T07:55:13.000Z</time>
      </trkpt>
      <trkpt lat="45.22213" lon="5.74053">
        <ele>869.40002441406</ele>
        <time>2021-06-26T07:55:17.000Z</time>
      </trkpt>
      <trkpt lat="45.22211" lon="5.74051">
        <ele>870</ele>
        <time>2021-06-26T07:55:19.000Z</time>
      </trkpt>
      <trkpt lat="45.22209" lon="5.74049">
        <ele>870.20001220703</ele>
        <time>2021-06-26T07:55:21.000Z</time>
      </trkpt>
      <trkpt lat="45.22207" lon="5.74048">
        <ele>870.59997558594</ele>
        <time>2021-06-26T07:55:23.000Z</time>
      </trkpt>
      <trkpt lat="45.22205" lon="5.74047">
        <ele>871.20001220703</ele>
        <time>2021-06-26T07:55:25.000Z</time>
      </trkpt>
      <trkpt lat="45.22203" lon="5.74047">
        <ele>871.40002441406</ele>
        <time>2021-06-26T07:55:27.000Z</time>
      </trkpt>
      <trkpt lat="45.222" lon="5.74045">
        <ele>871.79998779297</ele>
        <time>2021-06-26T07:55:29.000Z</time>
      </trkpt>
      <trkpt lat="45.22197" lon="5.74041">
        <ele>872.20001220703</ele>
        <time>2021-06-26T07:55:32.000Z</time>
      </trkpt>
      <trkpt lat="45.22196" lon="5.74039">
        <ele>872.59997558594</ele>
        <time>2021-06-26T07:55:33.000Z</time>
      </trkpt>
      <trkpt lat="45.22193" lon="5.74036">
        <ele>873.59997558594</ele>
        <time>2021-06-26T07:55:36.000Z</time>
      </trkpt>
      <trkpt lat="45.22188" lon="5.74032">
        <ele>874</ele>
        <time>2021-06-26T07:55:39.000Z</time>
      </trkpt>
      <trkpt lat="45.22189" lon="5.74027">
        <ele>875</ele>
        <time>2021-06-26T07:55:42.000Z</time>
      </trkpt>
      <trkpt lat="45.22189" lon="5.74026">
        <ele>875.40002441406</ele>
        <time>2021-06-26T07:55:43.000Z</time>
      </trkpt>
      <trkpt lat="45.22188" lon="5.74027">
        <ele>875.59997558594</ele>
        <time>2021-06-26T07:55:44.000Z</time>
      </trkpt>
      <trkpt lat="45.22188" lon="5.74026">
        <ele>876.20001220703</ele>
        <time>2021-06-26T07:55:46.000Z</time>
      </trkpt>
      <trkpt lat="45.22188" lon="5.74025">
        <ele>876.59997558594</ele>
        <time>2021-06-26T07:55:47.000Z</time>
      </trkpt>
      <trkpt lat="45.22187" lon="5.74025">
        <ele>877</ele>
        <time>2021-06-26T07:55:48.000Z</time>
      </trkpt>
      <trkpt lat="45.22185" lon="5.74024">
        <ele>877.20001220703</ele>
        <time>2021-06-26T07:55:50.000Z</time>
      </trkpt>
      <trkpt lat="45.22184" lon="5.74024">
        <ele>877.40002441406</ele>
        <time>2021-06-26T07:55:51.000Z</time>
      </trkpt>
      <trkpt lat="45.22182" lon="5.74019">
        <ele>878.20001220703</ele>
        <time>2021-06-26T07:55:54.000Z</time>
      </trkpt>
      <trkpt lat="45.22182" lon="5.74016">
        <ele>879</ele>
        <time>2021-06-26T07:55:56.000Z</time>
      </trkpt>
      <trkpt lat="45.22179" lon="5.74012">
        <ele>879.20001220703</ele>
        <time>2021-06-26T07:55:58.000Z</time>
      </trkpt>
      <trkpt lat="45.22175" lon="5.74009">
        <ele>879.79998779297</ele>
        <time>2021-06-26T07:56:01.000Z</time>
      </trkpt>
      <trkpt lat="45.22174" lon="5.74008">
        <ele>880</ele>
        <time>2021-06-26T07:56:02.000Z</time>
      </trkpt>
      <trkpt lat="45.22174" lon="5.74006">
        <ele>880.20001220703</ele>
        <time>2021-06-26T07:56:03.000Z</time>
      </trkpt>
      <trkpt lat="45.22172" lon="5.74002">
        <ele>881</ele>
        <time>2021-06-26T07:56:06.000Z</time>
      </trkpt>
      <trkpt lat="45.22171" lon="5.74001">
        <ele>881.20001220703</ele>
        <time>2021-06-26T07:56:08.000Z</time>
      </trkpt>
      <trkpt lat="45.22169" lon="5.73998">
        <ele>881.40002441406</ele>
        <time>2021-06-26T07:56:10.000Z</time>
      </trkpt>
      <trkpt lat="45.22168" lon="5.73997">
        <ele>881.40002441406</ele>
        <time>2021-06-26T07:56:11.000Z</time>
      </trkpt>
      <trkpt lat="45.22165" lon="5.7399">
        <ele>882.40002441406</ele>
        <time>2021-06-26T07:56:15.000Z</time>
      </trkpt>
      <trkpt lat="45.22165" lon="5.73988">
        <ele>882.59997558594</ele>
        <time>2021-06-26T07:56:17.000Z</time>
      </trkpt>
      <trkpt lat="45.22162" lon="5.73984">
        <ele>883.59997558594</ele>
        <time>2021-06-26T07:56:21.000Z</time>
      </trkpt>
      <trkpt lat="45.22159" lon="5.73984">
        <ele>883.59997558594</ele>
        <time>2021-06-26T07:56:22.000Z</time>
      </trkpt>
      <trkpt lat="45.22157" lon="5.73983">
        <ele>883.79998779297</ele>
        <time>2021-06-26T07:56:23.000Z</time>
      </trkpt>
      <trkpt lat="45.22152" lon="5.73977">
        <ele>884.59997558594</ele>
        <time>2021-06-26T07:56:27.000Z</time>
      </trkpt>
      <trkpt lat="45.22149" lon="5.73975">
        <ele>884.79998779297</ele>
        <time>2021-06-26T07:56:29.000Z</time>
      </trkpt>
      <trkpt lat="45.22145" lon="5.73968">
        <ele>885.40002441406</ele>
        <time>2021-06-26T07:56:33.000Z</time>
      </trkpt>
      <trkpt lat="45.22144" lon="5.73966">
        <ele>885.59997558594</ele>
        <time>2021-06-26T07:56:34.000Z</time>
      </trkpt>
      <trkpt lat="45.22142" lon="5.73964">
        <ele>885.79998779297</ele>
        <time>2021-06-26T07:56:36.000Z</time>
      </trkpt>
      <trkpt lat="45.2214" lon="5.73962">
        <ele>886.20001220703</ele>
        <time>2021-06-26T07:56:38.000Z</time>
      </trkpt>
      <trkpt lat="45.22138" lon="5.73959">
        <ele>887</ele>
        <time>2021-06-26T07:56:40.000Z</time>
      </trkpt>
      <trkpt lat="45.22137" lon="5.73957">
        <ele>887</ele>
        <time>2021-06-26T07:56:41.000Z</time>
      </trkpt>
      <trkpt lat="45.22136" lon="5.73955">
        <ele>887.40002441406</ele>
        <time>2021-06-26T07:56:43.000Z</time>
      </trkpt>
      <trkpt lat="45.22135" lon="5.73954">
        <ele>888.59997558594</ele>
        <time>2021-06-26T07:56:45.000Z</time>
      </trkpt>
      <trkpt lat="45.22135" lon="5.73954">
        <ele>888.79998779297</ele>
        <time>2021-06-26T07:56:46.000Z</time>
      </trkpt>
      <trkpt lat="45.22135" lon="5.73953">
        <ele>888.79998779297</ele>
        <time>2021-06-26T07:56:47.000Z</time>
      </trkpt>
      <trkpt lat="45.22134" lon="5.73951">
        <ele>889.40002441406</ele>
        <time>2021-06-26T07:56:49.000Z</time>
      </trkpt>
      <trkpt lat="45.22133" lon="5.73948">
        <ele>890.20001220703</ele>
        <time>2021-06-26T07:56:51.000Z</time>
      </trkpt>
      <trkpt lat="45.22132" lon="5.73946">
        <ele>890.20001220703</ele>
        <time>2021-06-26T07:56:52.000Z</time>
      </trkpt>
      <trkpt lat="45.22129" lon="5.73945">
        <ele>891.20001220703</ele>
        <time>2021-06-26T07:56:55.000Z</time>
      </trkpt>
      <trkpt lat="45.22126" lon="5.73942">
        <ele>891.79998779297</ele>
        <time>2021-06-26T07:56:58.000Z</time>
      </trkpt>
      <trkpt lat="45.22125" lon="5.73941">
        <ele>892.79998779297</ele>
        <time>2021-06-26T07:57:00.000Z</time>
      </trkpt>
      <trkpt lat="45.22123" lon="5.73937">
        <ele>893</ele>
        <time>2021-06-26T07:57:02.000Z</time>
      </trkpt>
      <trkpt lat="45.22119" lon="5.73932">
        <ele>893.79998779297</ele>
        <time>2021-06-26T07:57:06.000Z</time>
      </trkpt>
      <trkpt lat="45.22117" lon="5.73931">
        <ele>894.20001220703</ele>
        <time>2021-06-26T07:57:07.000Z</time>
      </trkpt>
      <trkpt lat="45.22114" lon="5.73929">
        <ele>894.40002441406</ele>
        <time>2021-06-26T07:57:11.000Z</time>
      </trkpt>
      <trkpt lat="45.22113" lon="5.73927">
        <ele>894.79998779297</ele>
        <time>2021-06-26T07:57:13.000Z</time>
      </trkpt>
      <trkpt lat="45.2211" lon="5.73921">
        <ele>895.20001220703</ele>
        <time>2021-06-26T07:57:18.000Z</time>
      </trkpt>
      <trkpt lat="45.22109" lon="5.7392">
        <ele>895.20001220703</ele>
        <time>2021-06-26T07:57:19.000Z</time>
      </trkpt>
      <trkpt lat="45.22103" lon="5.73916">
        <ele>896.20001220703</ele>
        <time>2021-06-26T07:57:23.000Z</time>
      </trkpt>
      <trkpt lat="45.221" lon="5.73914">
        <ele>896.20001220703</ele>
        <time>2021-06-26T07:57:26.000Z</time>
      </trkpt>
      <trkpt lat="45.22095" lon="5.73909">
        <ele>897.20001220703</ele>
        <time>2021-06-26T07:57:32.000Z</time>
      </trkpt>
      <trkpt lat="45.22094" lon="5.73908">
        <ele>897.20001220703</ele>
        <time>2021-06-26T07:57:34.000Z</time>
      </trkpt>
      <trkpt lat="45.22091" lon="5.73904">
        <ele>898.20001220703</ele>
        <time>2021-06-26T07:57:36.000Z</time>
      </trkpt>
      <trkpt lat="45.2209" lon="5.73902">
        <ele>898.40002441406</ele>
        <time>2021-06-26T07:57:37.000Z</time>
      </trkpt>
      <trkpt lat="45.22086" lon="5.73897">
        <ele>898.79998779297</ele>
        <time>2021-06-26T07:57:41.000Z</time>
      </trkpt>
      <trkpt lat="45.22084" lon="5.73895">
        <ele>899.59997558594</ele>
        <time>2021-06-26T07:57:43.000Z</time>
      </trkpt>
      <trkpt lat="45.22083" lon="5.73893">
        <ele>899.79998779297</ele>
        <time>2021-06-26T07:57:45.000Z</time>
      </trkpt>
      <trkpt lat="45.22084" lon="5.73889">
        <ele>900.40002441406</ele>
        <time>2021-06-26T07:57:47.000Z</time>
      </trkpt>
      <trkpt lat="45.22085" lon="5.73886">
        <ele>900.59997558594</ele>
        <time>2021-06-26T07:57:49.000Z</time>
      </trkpt>
      <trkpt lat="45.22086" lon="5.73886">
        <ele>901</ele>
        <time>2021-06-26T07:57:50.000Z</time>
      </trkpt>
      <trkpt lat="45.22087" lon="5.73886">
        <ele>901.40002441406</ele>
        <time>2021-06-26T07:57:51.000Z</time>
      </trkpt>
      <trkpt lat="45.22088" lon="5.73886">
        <ele>901.40002441406</ele>
        <time>2021-06-26T07:57:52.000Z</time>
      </trkpt>
      <trkpt lat="45.22089" lon="5.73886">
        <ele>901.79998779297</ele>
        <time>2021-06-26T07:57:53.000Z</time>
      </trkpt>
      <trkpt lat="45.22091" lon="5.73886">
        <ele>902</ele>
        <time>2021-06-26T07:57:55.000Z</time>
      </trkpt>
      <trkpt lat="45.22093" lon="5.73886">
        <ele>902</ele>
        <time>2021-06-26T07:57:56.000Z</time>
      </trkpt>
      <trkpt lat="45.22098" lon="5.73886">
        <ele>902.79998779297</ele>
        <time>2021-06-26T07:58:01.000Z</time>
      </trkpt>
      <trkpt lat="45.22099" lon="5.73886">
        <ele>903</ele>
        <time>2021-06-26T07:58:02.000Z</time>
      </trkpt>
      <trkpt lat="45.22101" lon="5.73887">
        <ele>903.40002441406</ele>
        <time>2021-06-26T07:58:04.000Z</time>
      </trkpt>
      <trkpt lat="45.22104" lon="5.73886">
        <ele>903.40002441406</ele>
        <time>2021-06-26T07:58:06.000Z</time>
      </trkpt>
      <trkpt lat="45.2211" lon="5.73885">
        <ele>904.20001220703</ele>
        <time>2021-06-26T07:58:09.000Z</time>
      </trkpt>
      <trkpt lat="45.22112" lon="5.73885">
        <ele>904.20001220703</ele>
        <time>2021-06-26T07:58:10.000Z</time>
      </trkpt>
      <trkpt lat="45.2212" lon="5.73886">
        <ele>905</ele>
        <time>2021-06-26T07:58:16.000Z</time>
      </trkpt>
      <trkpt lat="45.22122" lon="5.73886">
        <ele>905</ele>
        <time>2021-06-26T07:58:17.000Z</time>
      </trkpt>
      <trkpt lat="45.22127" lon="5.73886">
        <ele>905.20001220703</ele>
        <time>2021-06-26T07:58:20.000Z</time>
      </trkpt>
      <trkpt lat="45.22134" lon="5.73888">
        <ele>906.59997558594</ele>
        <time>2021-06-26T07:58:25.000Z</time>
      </trkpt>
      <trkpt lat="45.22135" lon="5.7389">
        <ele>906.79998779297</ele>
        <time>2021-06-26T07:58:27.000Z</time>
      </trkpt>
      <trkpt lat="45.22136" lon="5.73891">
        <ele>907.20001220703</ele>
        <time>2021-06-26T07:58:29.000Z</time>
      </trkpt>
      <trkpt lat="45.22141" lon="5.73892">
        <ele>907.59997558594</ele>
        <time>2021-06-26T07:58:31.000Z</time>
      </trkpt>
      <trkpt lat="45.22142" lon="5.73892">
        <ele>907.79998779297</ele>
        <time>2021-06-26T07:58:32.000Z</time>
      </trkpt>
      <trkpt lat="45.22147" lon="5.73894">
        <ele>908.40002441406</ele>
        <time>2021-06-26T07:58:36.000Z</time>
      </trkpt>
      <trkpt lat="45.22152" lon="5.73897">
        <ele>908.79998779297</ele>
        <time>2021-06-26T07:58:39.000Z</time>
      </trkpt>
      <trkpt lat="45.22153" lon="5.73897">
        <ele>908.79998779297</ele>
        <time>2021-06-26T07:58:40.000Z</time>
      </trkpt>
      <trkpt lat="45.22156" lon="5.73898">
        <ele>910</ele>
        <time>2021-06-26T07:58:42.000Z</time>
      </trkpt>
      <trkpt lat="45.22158" lon="5.73898">
        <ele>910</ele>
        <time>2021-06-26T07:58:43.000Z</time>
      </trkpt>
      <trkpt lat="45.22163" lon="5.73902">
        <ele>910</ele>
        <time>2021-06-26T07:58:45.000Z</time>
      </trkpt>
      <trkpt lat="45.22169" lon="5.73907">
        <ele>910.59997558594</ele>
        <time>2021-06-26T07:58:49.000Z</time>
      </trkpt>
      <trkpt lat="45.22172" lon="5.73907">
        <ele>911</ele>
        <time>2021-06-26T07:58:51.000Z</time>
      </trkpt>
      <trkpt lat="45.22178" lon="5.73911">
        <ele>911.79998779297</ele>
        <time>2021-06-26T07:58:55.000Z</time>
      </trkpt>
      <trkpt lat="45.22179" lon="5.73911">
        <ele>912</ele>
        <time>2021-06-26T07:58:56.000Z</time>
      </trkpt>
      <trkpt lat="45.22182" lon="5.73911">
        <ele>912.20001220703</ele>
        <time>2021-06-26T07:58:58.000Z</time>
      </trkpt>
      <trkpt lat="45.22183" lon="5.73912">
        <ele>912.20001220703</ele>
        <time>2021-06-26T07:58:59.000Z</time>
      </trkpt>
      <trkpt lat="45.22184" lon="5.73913">
        <ele>912.40002441406</ele>
        <time>2021-06-26T07:59:00.000Z</time>
      </trkpt>
      <trkpt lat="45.22185" lon="5.73915">
        <ele>912.40002441406</ele>
        <time>2021-06-26T07:59:01.000Z</time>
      </trkpt>
      <trkpt lat="45.22187" lon="5.73917">
        <ele>912.59997558594</ele>
        <time>2021-06-26T07:59:03.000Z</time>
      </trkpt>
      <trkpt lat="45.22191" lon="5.73919">
        <ele>913</ele>
        <time>2021-06-26T07:59:05.000Z</time>
      </trkpt>
      <trkpt lat="45.22192" lon="5.73921">
        <ele>913.40002441406</ele>
        <time>2021-06-26T07:59:06.000Z</time>
      </trkpt>
      <trkpt lat="45.22196" lon="5.73929">
        <ele>914.20001220703</ele>
        <time>2021-06-26T07:59:10.000Z</time>
      </trkpt>
      <trkpt lat="45.222" lon="5.73935">
        <ele>914.79998779297</ele>
        <time>2021-06-26T07:59:14.000Z</time>
      </trkpt>
      <trkpt lat="45.22204" lon="5.73939">
        <ele>915.20001220703</ele>
        <time>2021-06-26T07:59:17.000Z</time>
      </trkpt>
      <trkpt lat="45.22207" lon="5.73944">
        <ele>915.59997558594</ele>
        <time>2021-06-26T07:59:20.000Z</time>
      </trkpt>
      <trkpt lat="45.22212" lon="5.73947">
        <ele>916</ele>
        <time>2021-06-26T07:59:22.000Z</time>
      </trkpt>
      <trkpt lat="45.22214" lon="5.73948">
        <ele>916.20001220703</ele>
        <time>2021-06-26T07:59:23.000Z</time>
      </trkpt>
      <trkpt lat="45.22217" lon="5.73949">
        <ele>916.20001220703</ele>
        <time>2021-06-26T07:59:25.000Z</time>
      </trkpt>
      <trkpt lat="45.2222" lon="5.73954">
        <ele>916.79998779297</ele>
        <time>2021-06-26T07:59:28.000Z</time>
      </trkpt>
      <trkpt lat="45.22222" lon="5.73955">
        <ele>917.20001220703</ele>
        <time>2021-06-26T07:59:29.000Z</time>
      </trkpt>
      <trkpt lat="45.22223" lon="5.73957">
        <ele>917.20001220703</ele>
        <time>2021-06-26T07:59:30.000Z</time>
      </trkpt>
      <trkpt lat="45.22226" lon="5.7396">
        <ele>917.20001220703</ele>
        <time>2021-06-26T07:59:32.000Z</time>
      </trkpt>
      <trkpt lat="45.22228" lon="5.73961">
        <ele>917.40002441406</ele>
        <time>2021-06-26T07:59:33.000Z</time>
      </trkpt>
      <trkpt lat="45.22234" lon="5.73963">
        <ele>917.20001220703</ele>
        <time>2021-06-26T07:59:36.000Z</time>
      </trkpt>
      <trkpt lat="45.22237" lon="5.73964">
        <ele>917.79998779297</ele>
        <time>2021-06-26T07:59:38.000Z</time>
      </trkpt>
      <trkpt lat="45.22239" lon="5.73965">
        <ele>917.79998779297</ele>
        <time>2021-06-26T07:59:39.000Z</time>
      </trkpt>
      <trkpt lat="45.22242" lon="5.73968">
        <ele>918.59997558594</ele>
        <time>2021-06-26T07:59:42.000Z</time>
      </trkpt>
      <trkpt lat="45.22244" lon="5.73972">
        <ele>918.59997558594</ele>
        <time>2021-06-26T07:59:44.000Z</time>
      </trkpt>
      <trkpt lat="45.22255" lon="5.73977">
        <ele>919.59997558594</ele>
        <time>2021-06-26T07:59:50.000Z</time>
      </trkpt>
      <trkpt lat="45.22261" lon="5.73978">
        <ele>919.79998779297</ele>
        <time>2021-06-26T07:59:52.000Z</time>
      </trkpt>
      <trkpt lat="45.22269" lon="5.73983">
        <ele>920.40002441406</ele>
        <time>2021-06-26T07:59:56.000Z</time>
      </trkpt>
      <trkpt lat="45.22271" lon="5.73983">
        <ele>920.59997558594</ele>
        <time>2021-06-26T07:59:57.000Z</time>
      </trkpt>
      <trkpt lat="45.22272" lon="5.73984">
        <ele>921</ele>
        <time>2021-06-26T07:59:58.000Z</time>
      </trkpt>
      <trkpt lat="45.22274" lon="5.73987">
        <ele>921</ele>
        <time>2021-06-26T08:00:00.000Z</time>
      </trkpt>
      <trkpt lat="45.22276" lon="5.73989">
        <ele>921</ele>
        <time>2021-06-26T08:00:01.000Z</time>
      </trkpt>
      <trkpt lat="45.22278" lon="5.7399">
        <ele>921.59997558594</ele>
        <time>2021-06-26T08:00:02.000Z</time>
      </trkpt>
      <trkpt lat="45.2228" lon="5.73991">
        <ele>921.79998779297</ele>
        <time>2021-06-26T08:00:03.000Z</time>
      </trkpt>
      <trkpt lat="45.22282" lon="5.73993">
        <ele>921.79998779297</ele>
        <time>2021-06-26T08:00:05.000Z</time>
      </trkpt>
      <trkpt lat="45.22284" lon="5.73994">
        <ele>922.40002441406</ele>
        <time>2021-06-26T08:00:06.000Z</time>
      </trkpt>
      <trkpt lat="45.22291" lon="5.73999">
        <ele>923.40002441406</ele>
        <time>2021-06-26T08:00:10.000Z</time>
      </trkpt>
      <trkpt lat="45.22303" lon="5.74005">
        <ele>924.20001220703</ele>
        <time>2021-06-26T08:00:18.000Z</time>
      </trkpt>
      <trkpt lat="45.22307" lon="5.74005">
        <ele>924.79998779297</ele>
        <time>2021-06-26T08:00:20.000Z</time>
      </trkpt>
      <trkpt lat="45.22312" lon="5.74008">
        <ele>925.20001220703</ele>
        <time>2021-06-26T08:00:23.000Z</time>
      </trkpt>
      <trkpt lat="45.22314" lon="5.74008">
        <ele>925.79998779297</ele>
        <time>2021-06-26T08:00:24.000Z</time>
      </trkpt>
      <trkpt lat="45.22317" lon="5.74009">
        <ele>925.79998779297</ele>
        <time>2021-06-26T08:00:26.000Z</time>
      </trkpt>
      <trkpt lat="45.22322" lon="5.74011">
        <ele>926.20001220703</ele>
        <time>2021-06-26T08:00:29.000Z</time>
      </trkpt>
      <trkpt lat="45.22328" lon="5.74015">
        <ele>926.59997558594</ele>
        <time>2021-06-26T08:00:33.000Z</time>
      </trkpt>
      <trkpt lat="45.22332" lon="5.74017">
        <ele>927</ele>
        <time>2021-06-26T08:00:35.000Z</time>
      </trkpt>
      <trkpt lat="45.22333" lon="5.74017">
        <ele>927</ele>
        <time>2021-06-26T08:00:36.000Z</time>
      </trkpt>
      <trkpt lat="45.22337" lon="5.7402">
        <ele>927.59997558594</ele>
        <time>2021-06-26T08:00:39.000Z</time>
      </trkpt>
      <trkpt lat="45.22339" lon="5.74021">
        <ele>927.40002441406</ele>
        <time>2021-06-26T08:00:40.000Z</time>
      </trkpt>
      <trkpt lat="45.22343" lon="5.74025">
        <ele>928.20001220703</ele>
        <time>2021-06-26T08:00:43.000Z</time>
      </trkpt>
      <trkpt lat="45.22345" lon="5.74028">
        <ele>928.79998779297</ele>
        <time>2021-06-26T08:00:46.000Z</time>
      </trkpt>
      <trkpt lat="45.22346" lon="5.74029">
        <ele>929.20001220703</ele>
        <time>2021-06-26T08:00:47.000Z</time>
      </trkpt>
      <trkpt lat="45.22348" lon="5.74033">
        <ele>929.40002441406</ele>
        <time>2021-06-26T08:00:49.000Z</time>
      </trkpt>
      <trkpt lat="45.22353" lon="5.74039">
        <ele>929.40002441406</ele>
        <time>2021-06-26T08:00:52.000Z</time>
      </trkpt>
      <trkpt lat="45.22355" lon="5.74041">
        <ele>930</ele>
        <time>2021-06-26T08:00:53.000Z</time>
      </trkpt>
      <trkpt lat="45.22359" lon="5.74044">
        <ele>929.40002441406</ele>
        <time>2021-06-26T08:00:55.000Z</time>
      </trkpt>
      <trkpt lat="45.22364" lon="5.74048">
        <ele>929</ele>
        <time>2021-06-26T08:00:58.000Z</time>
      </trkpt>
      <trkpt lat="45.22371" lon="5.74056">
        <ele>928.59997558594</ele>
        <time>2021-06-26T08:01:03.000Z</time>
      </trkpt>
      <trkpt lat="45.22376" lon="5.74057">
        <ele>928.59997558594</ele>
        <time>2021-06-26T08:01:05.000Z</time>
      </trkpt>
      <trkpt lat="45.22379" lon="5.74058">
        <ele>928.59997558594</ele>
        <time>2021-06-26T08:01:07.000Z</time>
      </trkpt>
      <trkpt lat="45.22387" lon="5.74061">
        <ele>929.20001220703</ele>
        <time>2021-06-26T08:01:11.000Z</time>
      </trkpt>
      <trkpt lat="45.22405" lon="5.74065">
        <ele>930.20001220703</ele>
        <time>2021-06-26T08:01:17.000Z</time>
      </trkpt>
      <trkpt lat="45.22408" lon="5.74065">
        <ele>930.40002441406</ele>
        <time>2021-06-26T08:01:18.000Z</time>
      </trkpt>
      <trkpt lat="45.22419" lon="5.74069">
        <ele>931.40002441406</ele>
        <time>2021-06-26T08:01:23.000Z</time>
      </trkpt>
      <trkpt lat="45.22429" lon="5.74075">
        <ele>932</ele>
        <time>2021-06-26T08:01:28.000Z</time>
      </trkpt>
      <trkpt lat="45.22431" lon="5.74076">
        <ele>932.40002441406</ele>
        <time>2021-06-26T08:01:29.000Z</time>
      </trkpt>
      <trkpt lat="45.22433" lon="5.74076">
        <ele>932.59997558594</ele>
        <time>2021-06-26T08:01:30.000Z</time>
      </trkpt>
      <trkpt lat="45.22438" lon="5.74078">
        <ele>933.59997558594</ele>
        <time>2021-06-26T08:01:33.000Z</time>
      </trkpt>
      <trkpt lat="45.22439" lon="5.74078">
        <ele>933.59997558594</ele>
        <time>2021-06-26T08:01:34.000Z</time>
      </trkpt>
      <trkpt lat="45.22449" lon="5.74084">
        <ele>934.40002441406</ele>
        <time>2021-06-26T08:01:41.000Z</time>
      </trkpt>
      <trkpt lat="45.2245" lon="5.74085">
        <ele>934.79998779297</ele>
        <time>2021-06-26T08:01:42.000Z</time>
      </trkpt>
      <trkpt lat="45.22458" lon="5.7409">
        <ele>935.79998779297</ele>
        <time>2021-06-26T08:01:47.000Z</time>
      </trkpt>
      <trkpt lat="45.2246" lon="5.74091">
        <ele>936.40002441406</ele>
        <time>2021-06-26T08:01:48.000Z</time>
      </trkpt>
      <trkpt lat="45.22466" lon="5.74093">
        <ele>936.79998779297</ele>
        <time>2021-06-26T08:01:52.000Z</time>
      </trkpt>
      <trkpt lat="45.22469" lon="5.74094">
        <ele>937</ele>
        <time>2021-06-26T08:01:54.000Z</time>
      </trkpt>
      <trkpt lat="45.22473" lon="5.74094">
        <ele>938</ele>
        <time>2021-06-26T08:01:57.000Z</time>
      </trkpt>
      <trkpt lat="45.22478" lon="5.74096">
        <ele>938</ele>
        <time>2021-06-26T08:02:00.000Z</time>
      </trkpt>
      <trkpt lat="45.22481" lon="5.74097">
        <ele>938.59997558594</ele>
        <time>2021-06-26T08:02:02.000Z</time>
      </trkpt>
      <trkpt lat="45.22484" lon="5.74097">
        <ele>938.79998779297</ele>
        <time>2021-06-26T08:02:05.000Z</time>
      </trkpt>
      <trkpt lat="45.22488" lon="5.74097">
        <ele>939.20001220703</ele>
        <time>2021-06-26T08:02:07.000Z</time>
      </trkpt>
      <trkpt lat="45.22496" lon="5.74098">
        <ele>940.20001220703</ele>
        <time>2021-06-26T08:02:12.000Z</time>
      </trkpt>
      <trkpt lat="45.22503" lon="5.74101">
        <ele>940.79998779297</ele>
        <time>2021-06-26T08:02:16.000Z</time>
      </trkpt>
      <trkpt lat="45.22512" lon="5.74102">
        <ele>941.59997558594</ele>
        <time>2021-06-26T08:02:21.000Z</time>
      </trkpt>
      <trkpt lat="45.22518" lon="5.74101">
        <ele>942.40002441406</ele>
        <time>2021-06-26T08:02:25.000Z</time>
      </trkpt>
      <trkpt lat="45.22522" lon="5.74101">
        <ele>942.79998779297</ele>
        <time>2021-06-26T08:02:27.000Z</time>
      </trkpt>
      <trkpt lat="45.22532" lon="5.74099">
        <ele>943.59997558594</ele>
        <time>2021-06-26T08:02:33.000Z</time>
      </trkpt>
      <trkpt lat="45.22536" lon="5.74098">
        <ele>944.20001220703</ele>
        <time>2021-06-26T08:02:35.000Z</time>
      </trkpt>
      <trkpt lat="45.22549" lon="5.74095">
        <ele>945.20001220703</ele>
        <time>2021-06-26T08:02:42.000Z</time>
      </trkpt>
      <trkpt lat="45.22551" lon="5.74095">
        <ele>945.59997558594</ele>
        <time>2021-06-26T08:02:43.000Z</time>
      </trkpt>
      <trkpt lat="45.22561" lon="5.7409">
        <ele>946.40002441406</ele>
        <time>2021-06-26T08:02:49.000Z</time>
      </trkpt>
      <trkpt lat="45.22563" lon="5.7409">
        <ele>947.20001220703</ele>
        <time>2021-06-26T08:02:50.000Z</time>
      </trkpt>
      <trkpt lat="45.22573" lon="5.74086">
        <ele>947.59997558594</ele>
        <time>2021-06-26T08:02:57.000Z</time>
      </trkpt>
      <trkpt lat="45.22575" lon="5.74085">
        <ele>948.20001220703</ele>
        <time>2021-06-26T08:02:58.000Z</time>
      </trkpt>
      <trkpt lat="45.22587" lon="5.74084">
        <ele>949.20001220703</ele>
        <time>2021-06-26T08:03:05.000Z</time>
      </trkpt>
      <trkpt lat="45.22588" lon="5.74084">
        <ele>949.79998779297</ele>
        <time>2021-06-26T08:03:06.000Z</time>
      </trkpt>
      <trkpt lat="45.226" lon="5.74083">
        <ele>951</ele>
        <time>2021-06-26T08:03:13.000Z</time>
      </trkpt>
      <trkpt lat="45.22604" lon="5.74083">
        <ele>951</ele>
        <time>2021-06-26T08:03:15.000Z</time>
      </trkpt>
      <trkpt lat="45.22611" lon="5.74085">
        <ele>952.20001220703</ele>
        <time>2021-06-26T08:03:19.000Z</time>
      </trkpt>
      <trkpt lat="45.22617" lon="5.74086">
        <ele>952.79998779297</ele>
        <time>2021-06-26T08:03:23.000Z</time>
      </trkpt>
      <trkpt lat="45.22626" lon="5.74088">
        <ele>953.20001220703</ele>
        <time>2021-06-26T08:03:28.000Z</time>
      </trkpt>
      <trkpt lat="45.22629" lon="5.74088">
        <ele>953.79998779297</ele>
        <time>2021-06-26T08:03:30.000Z</time>
      </trkpt>
      <trkpt lat="45.22636" lon="5.7409">
        <ele>954.40002441406</ele>
        <time>2021-06-26T08:03:34.000Z</time>
      </trkpt>
      <trkpt lat="45.22642" lon="5.74091">
        <ele>954.59997558594</ele>
        <time>2021-06-26T08:03:37.000Z</time>
      </trkpt>
      <trkpt lat="45.22648" lon="5.74092">
        <ele>955.40002441406</ele>
        <time>2021-06-26T08:03:40.000Z</time>
      </trkpt>
      <trkpt lat="45.22657" lon="5.74094">
        <ele>956.20001220703</ele>
        <time>2021-06-26T08:03:46.000Z</time>
      </trkpt>
      <trkpt lat="45.22659" lon="5.74094">
        <ele>956.79998779297</ele>
        <time>2021-06-26T08:03:47.000Z</time>
      </trkpt>
      <trkpt lat="45.22664" lon="5.74096">
        <ele>956.79998779297</ele>
        <time>2021-06-26T08:03:50.000Z</time>
      </trkpt>
      <trkpt lat="45.22667" lon="5.74097">
        <ele>957.40002441406</ele>
        <time>2021-06-26T08:03:52.000Z</time>
      </trkpt>
      <trkpt lat="45.2267" lon="5.74099">
        <ele>957.79998779297</ele>
        <time>2021-06-26T08:03:54.000Z</time>
      </trkpt>
      <trkpt lat="45.22672" lon="5.74099">
        <ele>958.20001220703</ele>
        <time>2021-06-26T08:03:55.000Z</time>
      </trkpt>
      <trkpt lat="45.22674" lon="5.741">
        <ele>958.40002441406</ele>
        <time>2021-06-26T08:03:57.000Z</time>
      </trkpt>
      <trkpt lat="45.22678" lon="5.74101">
        <ele>958.40002441406</ele>
        <time>2021-06-26T08:04:00.000Z</time>
      </trkpt>
      <trkpt lat="45.22683" lon="5.74101">
        <ele>959.20001220703</ele>
        <time>2021-06-26T08:04:03.000Z</time>
      </trkpt>
      <trkpt lat="45.22684" lon="5.74102">
        <ele>959.59997558594</ele>
        <time>2021-06-26T08:04:04.000Z</time>
      </trkpt>
      <trkpt lat="45.22693" lon="5.74104">
        <ele>960.59997558594</ele>
        <time>2021-06-26T08:04:11.000Z</time>
      </trkpt>
      <trkpt lat="45.22699" lon="5.74105">
        <ele>961.20001220703</ele>
        <time>2021-06-26T08:04:14.000Z</time>
      </trkpt>
      <trkpt lat="45.22708" lon="5.74106">
        <ele>961.79998779297</ele>
        <time>2021-06-26T08:04:20.000Z</time>
      </trkpt>
      <trkpt lat="45.22714" lon="5.74108">
        <ele>962.40002441406</ele>
        <time>2021-06-26T08:04:23.000Z</time>
      </trkpt>
      <trkpt lat="45.22723" lon="5.74109">
        <ele>963.20001220703</ele>
        <time>2021-06-26T08:04:28.000Z</time>
      </trkpt>
      <trkpt lat="45.22725" lon="5.7411">
        <ele>963.40002441406</ele>
        <time>2021-06-26T08:04:29.000Z</time>
      </trkpt>
      <trkpt lat="45.22737" lon="5.74114">
        <ele>965</ele>
        <time>2021-06-26T08:04:36.000Z</time>
      </trkpt>
      <trkpt lat="45.22742" lon="5.74116">
        <ele>965</ele>
        <time>2021-06-26T08:04:39.000Z</time>
      </trkpt>
      <trkpt lat="45.22745" lon="5.74118">
        <ele>965.59997558594</ele>
        <time>2021-06-26T08:04:42.000Z</time>
      </trkpt>
      <trkpt lat="45.22748" lon="5.7412">
        <ele>966.20001220703</ele>
        <time>2021-06-26T08:04:44.000Z</time>
      </trkpt>
      <trkpt lat="45.22751" lon="5.74122">
        <ele>966.79998779297</ele>
        <time>2021-06-26T08:04:48.000Z</time>
      </trkpt>
      <trkpt lat="45.22756" lon="5.74125">
        <ele>967.20001220703</ele>
        <time>2021-06-26T08:04:51.000Z</time>
      </trkpt>
      <trkpt lat="45.22761" lon="5.74127">
        <ele>968</ele>
        <time>2021-06-26T08:04:53.000Z</time>
      </trkpt>
      <trkpt lat="45.22764" lon="5.74129">
        <ele>968.20001220703</ele>
        <time>2021-06-26T08:04:55.000Z</time>
      </trkpt>
      <trkpt lat="45.22766" lon="5.7413">
        <ele>968.20001220703</ele>
        <time>2021-06-26T08:04:56.000Z</time>
      </trkpt>
      <trkpt lat="45.22772" lon="5.74135">
        <ele>968.79998779297</ele>
        <time>2021-06-26T08:05:00.000Z</time>
      </trkpt>
      <trkpt lat="45.22774" lon="5.74136">
        <ele>969.40002441406</ele>
        <time>2021-06-26T08:05:01.000Z</time>
      </trkpt>
      <trkpt lat="45.22782" lon="5.74139">
        <ele>969.79998779297</ele>
        <time>2021-06-26T08:05:07.000Z</time>
      </trkpt>
      <trkpt lat="45.22787" lon="5.74139">
        <ele>971</ele>
        <time>2021-06-26T08:05:10.000Z</time>
      </trkpt>
      <trkpt lat="45.2279" lon="5.74139">
        <ele>971.20001220703</ele>
        <time>2021-06-26T08:05:12.000Z</time>
      </trkpt>
      <trkpt lat="45.22792" lon="5.74139">
        <ele>971.20001220703</ele>
        <time>2021-06-26T08:05:13.000Z</time>
      </trkpt>
      <trkpt lat="45.22801" lon="5.74141">
        <ele>972</ele>
        <time>2021-06-26T08:05:19.000Z</time>
      </trkpt>
      <trkpt lat="45.22803" lon="5.74141">
        <ele>972.40002441406</ele>
        <time>2021-06-26T08:05:20.000Z</time>
      </trkpt>
      <trkpt lat="45.22814" lon="5.74145">
        <ele>973.20001220703</ele>
        <time>2021-06-26T08:05:26.000Z</time>
      </trkpt>
      <trkpt lat="45.22818" lon="5.74146">
        <ele>973.79998779297</ele>
        <time>2021-06-26T08:05:28.000Z</time>
      </trkpt>
      <trkpt lat="45.22827" lon="5.7415">
        <ele>974.59997558594</ele>
        <time>2021-06-26T08:05:33.000Z</time>
      </trkpt>
      <trkpt lat="45.22828" lon="5.7415">
        <ele>974.59997558594</ele>
        <time>2021-06-26T08:05:34.000Z</time>
      </trkpt>
      <trkpt lat="45.22832" lon="5.74152">
        <ele>975</ele>
        <time>2021-06-26T08:05:36.000Z</time>
      </trkpt>
      <trkpt lat="45.22839" lon="5.74152">
        <ele>975.40002441406</ele>
        <time>2021-06-26T08:05:39.000Z</time>
      </trkpt>
      <trkpt lat="45.22841" lon="5.74153">
        <ele>976</ele>
        <time>2021-06-26T08:05:40.000Z</time>
      </trkpt>
      <trkpt lat="45.22847" lon="5.74155">
        <ele>976.79998779297</ele>
        <time>2021-06-26T08:05:44.000Z</time>
      </trkpt>
      <trkpt lat="45.22851" lon="5.74156">
        <ele>977</ele>
        <time>2021-06-26T08:05:46.000Z</time>
      </trkpt>
      <trkpt lat="45.22855" lon="5.74157">
        <ele>977.40002441406</ele>
        <time>2021-06-26T08:05:48.000Z</time>
      </trkpt>
      <trkpt lat="45.22864" lon="5.74162">
        <ele>978.40002441406</ele>
        <time>2021-06-26T08:05:53.000Z</time>
      </trkpt>
      <trkpt lat="45.22865" lon="5.74163">
        <ele>978.40002441406</ele>
        <time>2021-06-26T08:05:54.000Z</time>
      </trkpt>
      <trkpt lat="45.22873" lon="5.7417">
        <ele>979.59997558594</ele>
        <time>2021-06-26T08:06:01.000Z</time>
      </trkpt>
      <trkpt lat="45.22881" lon="5.74175">
        <ele>981</ele>
        <time>2021-06-26T08:06:07.000Z</time>
      </trkpt>
      <trkpt lat="45.22883" lon="5.74176">
        <ele>981</ele>
        <time>2021-06-26T08:06:08.000Z</time>
      </trkpt>
      <trkpt lat="45.22892" lon="5.74181">
        <ele>982.20001220703</ele>
        <time>2021-06-26T08:06:14.000Z</time>
      </trkpt>
      <trkpt lat="45.22896" lon="5.74184">
        <ele>982.59997558594</ele>
        <time>2021-06-26T08:06:17.000Z</time>
      </trkpt>
      <trkpt lat="45.22898" lon="5.74184">
        <ele>982.79998779297</ele>
        <time>2021-06-26T08:06:18.000Z</time>
      </trkpt>
      <trkpt lat="45.22902" lon="5.74185">
        <ele>983</ele>
        <time>2021-06-26T08:06:21.000Z</time>
      </trkpt>
      <trkpt lat="45.22905" lon="5.74186">
        <ele>983.40002441406</ele>
        <time>2021-06-26T08:06:22.000Z</time>
      </trkpt>
      <trkpt lat="45.22906" lon="5.74186">
        <ele>983.40002441406</ele>
        <time>2021-06-26T08:06:23.000Z</time>
      </trkpt>
      <trkpt lat="45.22915" lon="5.74189">
        <ele>984.40002441406</ele>
        <time>2021-06-26T08:06:29.000Z</time>
      </trkpt>
      <trkpt lat="45.22922" lon="5.74192">
        <ele>985.20001220703</ele>
        <time>2021-06-26T08:06:34.000Z</time>
      </trkpt>
      <trkpt lat="45.22924" lon="5.74193">
        <ele>985.40002441406</ele>
        <time>2021-06-26T08:06:35.000Z</time>
      </trkpt>
      <trkpt lat="45.22925" lon="5.74193">
        <ele>986</ele>
        <time>2021-06-26T08:06:36.000Z</time>
      </trkpt>
      <trkpt lat="45.22933" lon="5.74197">
        <ele>987.20001220703</ele>
        <time>2021-06-26T08:06:41.000Z</time>
      </trkpt>
      <trkpt lat="45.22935" lon="5.74198">
        <ele>987.20001220703</ele>
        <time>2021-06-26T08:06:42.000Z</time>
      </trkpt>
      <trkpt lat="45.2294" lon="5.742">
        <ele>987.79998779297</ele>
        <time>2021-06-26T08:06:45.000Z</time>
      </trkpt>
      <trkpt lat="45.22944" lon="5.74201">
        <ele>988.40002441406</ele>
        <time>2021-06-26T08:06:47.000Z</time>
      </trkpt>
      <trkpt lat="45.22953" lon="5.74206">
        <ele>988.59997558594</ele>
        <time>2021-06-26T08:06:52.000Z</time>
      </trkpt>
      <trkpt lat="45.22955" lon="5.74206">
        <ele>989</ele>
        <time>2021-06-26T08:06:53.000Z</time>
      </trkpt>
      <trkpt lat="45.22962" lon="5.7421">
        <ele>989.20001220703</ele>
        <time>2021-06-26T08:06:56.000Z</time>
      </trkpt>
      <trkpt lat="45.22966" lon="5.74212">
        <ele>989.79998779297</ele>
        <time>2021-06-26T08:06:58.000Z</time>
      </trkpt>
      <trkpt lat="45.22969" lon="5.74214">
        <ele>990.20001220703</ele>
        <time>2021-06-26T08:07:00.000Z</time>
      </trkpt>
      <trkpt lat="45.22971" lon="5.74215">
        <ele>990.59997558594</ele>
        <time>2021-06-26T08:07:02.000Z</time>
      </trkpt>
      <trkpt lat="45.22972" lon="5.74216">
        <ele>990.79998779297</ele>
        <time>2021-06-26T08:07:03.000Z</time>
      </trkpt>
      <trkpt lat="45.22974" lon="5.74218">
        <ele>991.20001220703</ele>
        <time>2021-06-26T08:07:05.000Z</time>
      </trkpt>
      <trkpt lat="45.22979" lon="5.7422">
        <ele>991.79998779297</ele>
        <time>2021-06-26T08:07:09.000Z</time>
      </trkpt>
      <trkpt lat="45.22984" lon="5.74222">
        <ele>992.40002441406</ele>
        <time>2021-06-26T08:07:12.000Z</time>
      </trkpt>
      <trkpt lat="45.22986" lon="5.74224">
        <ele>992.59997558594</ele>
        <time>2021-06-26T08:07:14.000Z</time>
      </trkpt>
      <trkpt lat="45.22987" lon="5.74225">
        <ele>993.40002441406</ele>
        <time>2021-06-26T08:07:15.000Z</time>
      </trkpt>
      <trkpt lat="45.22989" lon="5.74224">
        <ele>993.40002441406</ele>
        <time>2021-06-26T08:07:16.000Z</time>
      </trkpt>
      <trkpt lat="45.22991" lon="5.74224">
        <ele>993.40002441406</ele>
        <time>2021-06-26T08:07:17.000Z</time>
      </trkpt>
      <trkpt lat="45.22998" lon="5.74225">
        <ele>994.40002441406</ele>
        <time>2021-06-26T08:07:22.000Z</time>
      </trkpt>
      <trkpt lat="45.22998" lon="5.74226">
        <ele>994.40002441406</ele>
        <time>2021-06-26T08:07:23.000Z</time>
      </trkpt>
      <trkpt lat="45.23" lon="5.74226">
        <ele>994.59997558594</ele>
        <time>2021-06-26T08:07:24.000Z</time>
      </trkpt>
      <trkpt lat="45.23001" lon="5.74227">
        <ele>994.59997558594</ele>
        <time>2021-06-26T08:07:25.000Z</time>
      </trkpt>
      <trkpt lat="45.23006" lon="5.74229">
        <ele>995.40002441406</ele>
        <time>2021-06-26T08:07:28.000Z</time>
      </trkpt>
      <trkpt lat="45.23008" lon="5.74229">
        <ele>995.59997558594</ele>
        <time>2021-06-26T08:07:29.000Z</time>
      </trkpt>
      <trkpt lat="45.23018" lon="5.74232">
        <ele>996.40002441406</ele>
        <time>2021-06-26T08:07:33.000Z</time>
      </trkpt>
      <trkpt lat="45.2302" lon="5.74232">
        <ele>996.40002441406</ele>
        <time>2021-06-26T08:07:34.000Z</time>
      </trkpt>
      <trkpt lat="45.23026" lon="5.74235">
        <ele>996.59997558594</ele>
        <time>2021-06-26T08:07:37.000Z</time>
      </trkpt>
      <trkpt lat="45.2303" lon="5.74236">
        <ele>997.20001220703</ele>
        <time>2021-06-26T08:07:39.000Z</time>
      </trkpt>
      <trkpt lat="45.23031" lon="5.74236">
        <ele>997.20001220703</ele>
        <time>2021-06-26T08:07:40.000Z</time>
      </trkpt>
      <trkpt lat="45.23033" lon="5.74236">
        <ele>997.59997558594</ele>
        <time>2021-06-26T08:07:41.000Z</time>
      </trkpt>
      <trkpt lat="45.23037" lon="5.74238">
        <ele>998.20001220703</ele>
        <time>2021-06-26T08:07:44.000Z</time>
      </trkpt>
      <trkpt lat="45.2304" lon="5.7424">
        <ele>998.59997558594</ele>
        <time>2021-06-26T08:07:46.000Z</time>
      </trkpt>
      <trkpt lat="45.23046" lon="5.74243">
        <ele>999.40002441406</ele>
        <time>2021-06-26T08:07:50.000Z</time>
      </trkpt>
      <trkpt lat="45.23049" lon="5.74244">
        <ele>999.59997558594</ele>
        <time>2021-06-26T08:07:52.000Z</time>
      </trkpt>
      <trkpt lat="45.23052" lon="5.74244">
        <ele>999.59997558594</ele>
        <time>2021-06-26T08:07:53.000Z</time>
      </trkpt>
      <trkpt lat="45.23062" lon="5.74251">
        <ele>1000.5999755859</ele>
        <time>2021-06-26T08:07:58.000Z</time>
      </trkpt>
      <trkpt lat="45.23065" lon="5.74253">
        <ele>1000.799987793</ele>
        <time>2021-06-26T08:07:59.000Z</time>
      </trkpt>
      <trkpt lat="45.23071" lon="5.74257">
        <ele>1001.5999755859</ele>
        <time>2021-06-26T08:08:04.000Z</time>
      </trkpt>
      <trkpt lat="45.23074" lon="5.74259">
        <ele>1002</ele>
        <time>2021-06-26T08:08:06.000Z</time>
      </trkpt>
      <trkpt lat="45.23079" lon="5.74262">
        <ele>1002.5999755859</ele>
        <time>2021-06-26T08:08:09.000Z</time>
      </trkpt>
      <trkpt lat="45.2308" lon="5.74262">
        <ele>1002.799987793</ele>
        <time>2021-06-26T08:08:10.000Z</time>
      </trkpt>
      <trkpt lat="45.23082" lon="5.74262">
        <ele>1002.799987793</ele>
        <time>2021-06-26T08:08:11.000Z</time>
      </trkpt>
      <trkpt lat="45.23089" lon="5.74263">
        <ele>1003.5999755859</ele>
        <time>2021-06-26T08:08:14.000Z</time>
      </trkpt>
      <trkpt lat="45.23095" lon="5.74266">
        <ele>1003.799987793</ele>
        <time>2021-06-26T08:08:17.000Z</time>
      </trkpt>
      <trkpt lat="45.23099" lon="5.74268">
        <ele>1004.5999755859</ele>
        <time>2021-06-26T08:08:20.000Z</time>
      </trkpt>
      <trkpt lat="45.231" lon="5.74268">
        <ele>1005</ele>
        <time>2021-06-26T08:08:21.000Z</time>
      </trkpt>
      <trkpt lat="45.23101" lon="5.74269">
        <ele>1005.200012207</ele>
        <time>2021-06-26T08:08:22.000Z</time>
      </trkpt>
      <trkpt lat="45.23109" lon="5.74269">
        <ele>1006</ele>
        <time>2021-06-26T08:08:27.000Z</time>
      </trkpt>
      <trkpt lat="45.23112" lon="5.74269">
        <ele>1006.5999755859</ele>
        <time>2021-06-26T08:08:28.000Z</time>
      </trkpt>
      <trkpt lat="45.23116" lon="5.7427">
        <ele>1007</ele>
        <time>2021-06-26T08:08:31.000Z</time>
      </trkpt>
      <trkpt lat="45.23118" lon="5.7427">
        <ele>1007.200012207</ele>
        <time>2021-06-26T08:08:32.000Z</time>
      </trkpt>
      <trkpt lat="45.23125" lon="5.74271">
        <ele>1008</ele>
        <time>2021-06-26T08:08:37.000Z</time>
      </trkpt>
      <trkpt lat="45.23132" lon="5.74272">
        <ele>1008.4000244141</ele>
        <time>2021-06-26T08:08:40.000Z</time>
      </trkpt>
      <trkpt lat="45.23139" lon="5.74274">
        <ele>1009.4000244141</ele>
        <time>2021-06-26T08:08:45.000Z</time>
      </trkpt>
      <trkpt lat="45.2314" lon="5.74275">
        <ele>1009.799987793</ele>
        <time>2021-06-26T08:08:46.000Z</time>
      </trkpt>
      <trkpt lat="45.23148" lon="5.74278">
        <ele>1010.799987793</ele>
        <time>2021-06-26T08:08:51.000Z</time>
      </trkpt>
      <trkpt lat="45.23157" lon="5.74282">
        <ele>1012</ele>
        <time>2021-06-26T08:08:56.000Z</time>
      </trkpt>
      <trkpt lat="45.23164" lon="5.74285">
        <ele>1012.200012207</ele>
        <time>2021-06-26T08:08:59.000Z</time>
      </trkpt>
      <trkpt lat="45.23171" lon="5.74287">
        <ele>1013</ele>
        <time>2021-06-26T08:09:03.000Z</time>
      </trkpt>
      <trkpt lat="45.23177" lon="5.7429">
        <ele>1013.799987793</ele>
        <time>2021-06-26T08:09:07.000Z</time>
      </trkpt>
      <trkpt lat="45.23179" lon="5.7429">
        <ele>1014.4000244141</ele>
        <time>2021-06-26T08:09:08.000Z</time>
      </trkpt>
      <trkpt lat="45.2319" lon="5.74293">
        <ele>1015.4000244141</ele>
        <time>2021-06-26T08:09:14.000Z</time>
      </trkpt>
      <trkpt lat="45.23195" lon="5.74295">
        <ele>1015.5999755859</ele>
        <time>2021-06-26T08:09:17.000Z</time>
      </trkpt>
      <trkpt lat="45.23202" lon="5.74297">
        <ele>1016.200012207</ele>
        <time>2021-06-26T08:09:21.000Z</time>
      </trkpt>
      <trkpt lat="45.23204" lon="5.74297">
        <ele>1016.5999755859</ele>
        <time>2021-06-26T08:09:23.000Z</time>
      </trkpt>
      <trkpt lat="45.23206" lon="5.74297">
        <ele>1016.799987793</ele>
        <time>2021-06-26T08:09:24.000Z</time>
      </trkpt>
      <trkpt lat="45.2321" lon="5.74296">
        <ele>1017.799987793</ele>
        <time>2021-06-26T08:09:27.000Z</time>
      </trkpt>
      <trkpt lat="45.23216" lon="5.74297">
        <ele>1018</ele>
        <time>2021-06-26T08:09:30.000Z</time>
      </trkpt>
      <trkpt lat="45.23218" lon="5.74298">
        <ele>1018</ele>
        <time>2021-06-26T08:09:31.000Z</time>
      </trkpt>
      <trkpt lat="45.23228" lon="5.74302">
        <ele>1018.799987793</ele>
        <time>2021-06-26T08:09:36.000Z</time>
      </trkpt>
      <trkpt lat="45.23229" lon="5.74303">
        <ele>1019.200012207</ele>
        <time>2021-06-26T08:09:37.000Z</time>
      </trkpt>
      <trkpt lat="45.23238" lon="5.74306">
        <ele>1020</ele>
        <time>2021-06-26T08:09:42.000Z</time>
      </trkpt>
      <trkpt lat="45.23241" lon="5.74308">
        <ele>1020.4000244141</ele>
        <time>2021-06-26T08:09:44.000Z</time>
      </trkpt>
      <trkpt lat="45.23253" lon="5.74315">
        <ele>1021.5999755859</ele>
        <time>2021-06-26T08:09:49.000Z</time>
      </trkpt>
      <trkpt lat="45.23258" lon="5.74317">
        <ele>1022</ele>
        <time>2021-06-26T08:09:51.000Z</time>
      </trkpt>
      <trkpt lat="45.23264" lon="5.74323">
        <ele>1022.4000244141</ele>
        <time>2021-06-26T08:09:55.000Z</time>
      </trkpt>
      <trkpt lat="45.23266" lon="5.74327">
        <ele>1023</ele>
        <time>2021-06-26T08:09:57.000Z</time>
      </trkpt>
      <trkpt lat="45.23273" lon="5.74331">
        <ele>1023.5999755859</ele>
        <time>2021-06-26T08:10:02.000Z</time>
      </trkpt>
      <trkpt lat="45.23274" lon="5.74332">
        <ele>1024</ele>
        <time>2021-06-26T08:10:03.000Z</time>
      </trkpt>
      <trkpt lat="45.23284" lon="5.74339">
        <ele>1024.8000488281</ele>
        <time>2021-06-26T08:10:10.000Z</time>
      </trkpt>
      <trkpt lat="45.23287" lon="5.74342">
        <ele>1025.1999511719</ele>
        <time>2021-06-26T08:10:12.000Z</time>
      </trkpt>
      <trkpt lat="45.23295" lon="5.74352">
        <ele>1026.4000244141</ele>
        <time>2021-06-26T08:10:16.000Z</time>
      </trkpt>
      <trkpt lat="45.23304" lon="5.7436">
        <ele>1027.5999755859</ele>
        <time>2021-06-26T08:10:21.000Z</time>
      </trkpt>
      <trkpt lat="45.23312" lon="5.74365">
        <ele>1027.8000488281</ele>
        <time>2021-06-26T08:10:25.000Z</time>
      </trkpt>
      <trkpt lat="45.23316" lon="5.74369">
        <ele>1028.8000488281</ele>
        <time>2021-06-26T08:10:27.000Z</time>
      </trkpt>
      <trkpt lat="45.23321" lon="5.74369">
        <ele>1029.1999511719</ele>
        <time>2021-06-26T08:10:30.000Z</time>
      </trkpt>
      <trkpt lat="45.23329" lon="5.74369">
        <ele>1030</ele>
        <time>2021-06-26T08:10:34.000Z</time>
      </trkpt>
      <trkpt lat="45.23335" lon="5.7437">
        <ele>1031</ele>
        <time>2021-06-26T08:10:38.000Z</time>
      </trkpt>
      <trkpt lat="45.23339" lon="5.74371">
        <ele>1031.5999755859</ele>
        <time>2021-06-26T08:10:40.000Z</time>
      </trkpt>
      <trkpt lat="45.23351" lon="5.74369">
        <ele>1032.1999511719</ele>
        <time>2021-06-26T08:10:46.000Z</time>
      </trkpt>
      <trkpt lat="45.23356" lon="5.74369">
        <ele>1033.1999511719</ele>
        <time>2021-06-26T08:10:49.000Z</time>
      </trkpt>
      <trkpt lat="45.23358" lon="5.74368">
        <ele>1033.1999511719</ele>
        <time>2021-06-26T08:10:51.000Z</time>
      </trkpt>
      <trkpt lat="45.23365" lon="5.74366">
        <ele>1033.8000488281</ele>
        <time>2021-06-26T08:10:55.000Z</time>
      </trkpt>
      <trkpt lat="45.23368" lon="5.74366">
        <ele>1034</ele>
        <time>2021-06-26T08:10:57.000Z</time>
      </trkpt>
      <trkpt lat="45.2337" lon="5.74366">
        <ele>1034.4000244141</ele>
        <time>2021-06-26T08:10:58.000Z</time>
      </trkpt>
      <trkpt lat="45.23382" lon="5.74364">
        <ele>1035.1999511719</ele>
        <time>2021-06-26T08:11:04.000Z</time>
      </trkpt>
      <trkpt lat="45.23382" lon="5.74363">
        <ele>1035.5999755859</ele>
        <time>2021-06-26T08:11:05.000Z</time>
      </trkpt>
      <trkpt lat="45.23381" lon="5.74362">
        <ele>1035.8000488281</ele>
        <time>2021-06-26T08:11:06.000Z</time>
      </trkpt>
      <trkpt lat="45.2338" lon="5.74361">
        <ele>1035.8000488281</ele>
        <time>2021-06-26T08:11:07.000Z</time>
      </trkpt>
      <trkpt lat="45.2337" lon="5.74355">
        <ele>1037</ele>
        <time>2021-06-26T08:11:13.000Z</time>
      </trkpt>
      <trkpt lat="45.23369" lon="5.74353">
        <ele>1037</ele>
        <time>2021-06-26T08:11:14.000Z</time>
      </trkpt>
      <trkpt lat="45.23362" lon="5.74339">
        <ele>1038.1999511719</ele>
        <time>2021-06-26T08:11:21.000Z</time>
      </trkpt>
      <trkpt lat="45.23361" lon="5.74336">
        <ele>1038.4000244141</ele>
        <time>2021-06-26T08:11:22.000Z</time>
      </trkpt>
      <trkpt lat="45.23359" lon="5.74325">
        <ele>1038.8000488281</ele>
        <time>2021-06-26T08:11:26.000Z</time>
      </trkpt>
      <trkpt lat="45.2336" lon="5.7432">
        <ele>1039.1999511719</ele>
        <time>2021-06-26T08:11:28.000Z</time>
      </trkpt>
      <trkpt lat="45.23363" lon="5.74309">
        <ele>1039.8000488281</ele>
        <time>2021-06-26T08:11:32.000Z</time>
      </trkpt>
      <trkpt lat="45.23364" lon="5.74307">
        <ele>1039.8000488281</ele>
        <time>2021-06-26T08:11:33.000Z</time>
      </trkpt>
      <trkpt lat="45.23366" lon="5.74302">
        <ele>1040.5999755859</ele>
        <time>2021-06-26T08:11:35.000Z</time>
      </trkpt>
      <trkpt lat="45.23371" lon="5.74295">
        <ele>1040.8000488281</ele>
        <time>2021-06-26T08:11:38.000Z</time>
      </trkpt>
      <trkpt lat="45.23372" lon="5.74294">
        <ele>1041.5999755859</ele>
        <time>2021-06-26T08:11:39.000Z</time>
      </trkpt>
      <trkpt lat="45.23376" lon="5.74286">
        <ele>1042.5999755859</ele>
        <time>2021-06-26T08:11:43.000Z</time>
      </trkpt>
      <trkpt lat="45.23377" lon="5.74285">
        <ele>1043.4000244141</ele>
        <time>2021-06-26T08:11:44.000Z</time>
      </trkpt>
      <trkpt lat="45.23377" lon="5.74282">
        <ele>1043.4000244141</ele>
        <time>2021-06-26T08:11:46.000Z</time>
      </trkpt>
      <trkpt lat="45.23377" lon="5.74281">
        <ele>1043.8000488281</ele>
        <time>2021-06-26T08:11:47.000Z</time>
      </trkpt>
      <trkpt lat="45.23378" lon="5.7428">
        <ele>1044.5999755859</ele>
        <time>2021-06-26T08:11:48.000Z</time>
      </trkpt>
      <trkpt lat="45.23378" lon="5.74277">
        <ele>1045</ele>
        <time>2021-06-26T08:11:50.000Z</time>
      </trkpt>
      <trkpt lat="45.23378" lon="5.74273">
        <ele>1045.8000488281</ele>
        <time>2021-06-26T08:11:52.000Z</time>
      </trkpt>
      <trkpt lat="45.2338" lon="5.74264">
        <ele>1046.5999755859</ele>
        <time>2021-06-26T08:11:57.000Z</time>
      </trkpt>
      <trkpt lat="45.2338" lon="5.74262">
        <ele>1046.5999755859</ele>
        <time>2021-06-26T08:11:58.000Z</time>
      </trkpt>
      <trkpt lat="45.23374" lon="5.74255">
        <ele>1046.4000244141</ele>
        <time>2021-06-26T08:12:03.000Z</time>
      </trkpt>
      <trkpt lat="45.23366" lon="5.74244">
        <ele>1046.8000488281</ele>
        <time>2021-06-26T08:12:09.000Z</time>
      </trkpt>
      <trkpt lat="45.23365" lon="5.74242">
        <ele>1046.8000488281</ele>
        <time>2021-06-26T08:12:10.000Z</time>
      </trkpt>
      <trkpt lat="45.23359" lon="5.74235">
        <ele>1047.5999755859</ele>
        <time>2021-06-26T08:12:16.000Z</time>
      </trkpt>
      <trkpt lat="45.23358" lon="5.74233">
        <ele>1047.5999755859</ele>
        <time>2021-06-26T08:12:17.000Z</time>
      </trkpt>
      <trkpt lat="45.23352" lon="5.74228">
        <ele>1047.5999755859</ele>
        <time>2021-06-26T08:12:21.000Z</time>
      </trkpt>
      <trkpt lat="45.23346" lon="5.74223">
        <ele>1047.8000488281</ele>
        <time>2021-06-26T08:12:24.000Z</time>
      </trkpt>
      <trkpt lat="45.23339" lon="5.7422">
        <ele>1048</ele>
        <time>2021-06-26T08:12:28.000Z</time>
      </trkpt>
      <trkpt lat="45.23332" lon="5.74217">
        <ele>1048.4000244141</ele>
        <time>2021-06-26T08:12:32.000Z</time>
      </trkpt>
      <trkpt lat="45.23327" lon="5.74213">
        <ele>1048.4000244141</ele>
        <time>2021-06-26T08:12:35.000Z</time>
      </trkpt>
      <trkpt lat="45.23326" lon="5.74212">
        <ele>1048.1999511719</ele>
        <time>2021-06-26T08:12:36.000Z</time>
      </trkpt>
      <trkpt lat="45.23323" lon="5.7421">
        <ele>1048.1999511719</ele>
        <time>2021-06-26T08:12:38.000Z</time>
      </trkpt>
      <trkpt lat="45.23318" lon="5.74208">
        <ele>1048.1999511719</ele>
        <time>2021-06-26T08:12:41.000Z</time>
      </trkpt>
      <trkpt lat="45.23304" lon="5.742">
        <ele>1048.5999755859</ele>
        <time>2021-06-26T08:12:48.000Z</time>
      </trkpt>
      <trkpt lat="45.23297" lon="5.74196">
        <ele>1049.1999511719</ele>
        <time>2021-06-26T08:12:52.000Z</time>
      </trkpt>
      <trkpt lat="45.23294" lon="5.74195">
        <ele>1049.1999511719</ele>
        <time>2021-06-26T08:12:53.000Z</time>
      </trkpt>
      <trkpt lat="45.2328" lon="5.74183">
        <ele>1050.1999511719</ele>
        <time>2021-06-26T08:12:59.000Z</time>
      </trkpt>
      <trkpt lat="45.23278" lon="5.74181">
        <ele>1050.1999511719</ele>
        <time>2021-06-26T08:13:00.000Z</time>
      </trkpt>
      <trkpt lat="45.23276" lon="5.74179">
        <ele>1050.1999511719</ele>
        <time>2021-06-26T08:13:01.000Z</time>
      </trkpt>
      <trkpt lat="45.2327" lon="5.74172">
        <ele>1050.8000488281</ele>
        <time>2021-06-26T08:13:05.000Z</time>
      </trkpt>
      <trkpt lat="45.23266" lon="5.74168">
        <ele>1050.8000488281</ele>
        <time>2021-06-26T08:13:07.000Z</time>
      </trkpt>
      <trkpt lat="45.23265" lon="5.74166">
        <ele>1051.1999511719</ele>
        <time>2021-06-26T08:13:08.000Z</time>
      </trkpt>
      <trkpt lat="45.23256" lon="5.7416">
        <ele>1050.5999755859</ele>
        <time>2021-06-26T08:13:14.000Z</time>
      </trkpt>
      <trkpt lat="45.23249" lon="5.74157">
        <ele>1050.1999511719</ele>
        <time>2021-06-26T08:13:17.000Z</time>
      </trkpt>
      <trkpt lat="45.23242" lon="5.7415">
        <ele>1049.8000488281</ele>
        <time>2021-06-26T08:13:21.000Z</time>
      </trkpt>
      <trkpt lat="45.2323" lon="5.74144">
        <ele>1050</ele>
        <time>2021-06-26T08:13:26.000Z</time>
      </trkpt>
      <trkpt lat="45.23226" lon="5.74139">
        <ele>1050.1999511719</ele>
        <time>2021-06-26T08:13:29.000Z</time>
      </trkpt>
      <trkpt lat="45.23223" lon="5.7413">
        <ele>1050.5999755859</ele>
        <time>2021-06-26T08:13:32.000Z</time>
      </trkpt>
      <trkpt lat="45.23222" lon="5.74115">
        <ele>1051</ele>
        <time>2021-06-26T08:13:37.000Z</time>
      </trkpt>
      <trkpt lat="45.23222" lon="5.74111">
        <ele>1051</ele>
        <time>2021-06-26T08:13:38.000Z</time>
      </trkpt>
      <trkpt lat="45.2322" lon="5.741">
        <ele>1050.8000488281</ele>
        <time>2021-06-26T08:13:41.000Z</time>
      </trkpt>
      <trkpt lat="45.2322" lon="5.74093">
        <ele>1050.5999755859</ele>
        <time>2021-06-26T08:13:43.000Z</time>
      </trkpt>
      <trkpt lat="45.2322" lon="5.74089">
        <ele>1050.8000488281</ele>
        <time>2021-06-26T08:13:44.000Z</time>
      </trkpt>
      <trkpt lat="45.2322" lon="5.74085">
        <ele>1050.8000488281</ele>
        <time>2021-06-26T08:13:45.000Z</time>
      </trkpt>
      <trkpt lat="45.23222" lon="5.74063">
        <ele>1049</ele>
        <time>2021-06-26T08:13:52.000Z</time>
      </trkpt>
      <trkpt lat="45.23223" lon="5.74058">
        <ele>1048.8000488281</ele>
        <time>2021-06-26T08:13:54.000Z</time>
      </trkpt>
      <trkpt lat="45.23221" lon="5.74053">
        <ele>1048.1999511719</ele>
        <time>2021-06-26T08:13:56.000Z</time>
      </trkpt>
      <trkpt lat="45.2322" lon="5.74051">
        <ele>1048</ele>
        <time>2021-06-26T08:13:57.000Z</time>
      </trkpt>
      <trkpt lat="45.23209" lon="5.74042">
        <ele>1047.1999511719</ele>
        <time>2021-06-26T08:14:03.000Z</time>
      </trkpt>
      <trkpt lat="45.232" lon="5.74029">
        <ele>1047.5999755859</ele>
        <time>2021-06-26T08:14:08.000Z</time>
      </trkpt>
      <trkpt lat="45.23189" lon="5.74018">
        <ele>1048.5999755859</ele>
        <time>2021-06-26T08:14:15.000Z</time>
      </trkpt>
      <trkpt lat="45.23186" lon="5.74015">
        <ele>1049</ele>
        <time>2021-06-26T08:14:17.000Z</time>
      </trkpt>
      <trkpt lat="45.2318" lon="5.74012">
        <ele>1049.5999755859</ele>
        <time>2021-06-26T08:14:20.000Z</time>
      </trkpt>
      <trkpt lat="45.23178" lon="5.74011">
        <ele>1050</ele>
        <time>2021-06-26T08:14:21.000Z</time>
      </trkpt>
      <trkpt lat="45.23173" lon="5.74008">
        <ele>1050.4000244141</ele>
        <time>2021-06-26T08:14:23.000Z</time>
      </trkpt>
      <trkpt lat="45.23161" lon="5.74003">
        <ele>1051.1999511719</ele>
        <time>2021-06-26T08:14:30.000Z</time>
      </trkpt>
      <trkpt lat="45.2316" lon="5.74003">
        <ele>1051.4000244141</ele>
        <time>2021-06-26T08:14:31.000Z</time>
      </trkpt>
      <trkpt lat="45.23156" lon="5.74001">
        <ele>1052.1999511719</ele>
        <time>2021-06-26T08:14:34.000Z</time>
      </trkpt>
      <trkpt lat="45.23148" lon="5.73997">
        <ele>1052.1999511719</ele>
        <time>2021-06-26T08:14:38.000Z</time>
      </trkpt>
      <trkpt lat="45.23136" lon="5.73994">
        <ele>1051.5999755859</ele>
        <time>2021-06-26T08:14:43.000Z</time>
      </trkpt>
      <trkpt lat="45.2313" lon="5.73993">
        <ele>1051.1999511719</ele>
        <time>2021-06-26T08:14:45.000Z</time>
      </trkpt>
      <trkpt lat="45.23113" lon="5.73987">
        <ele>1050.8000488281</ele>
        <time>2021-06-26T08:14:52.000Z</time>
      </trkpt>
      <trkpt lat="45.23106" lon="5.73988">
        <ele>1050.5999755859</ele>
        <time>2021-06-26T08:14:55.000Z</time>
      </trkpt>
      <trkpt lat="45.23101" lon="5.73987">
        <ele>1050.4000244141</ele>
        <time>2021-06-26T08:14:57.000Z</time>
      </trkpt>
      <trkpt lat="45.23099" lon="5.73988">
        <ele>1050.4000244141</ele>
        <time>2021-06-26T08:14:58.000Z</time>
      </trkpt>
      <trkpt lat="45.23093" lon="5.73986">
        <ele>1050.1999511719</ele>
        <time>2021-06-26T08:15:01.000Z</time>
      </trkpt>
      <trkpt lat="45.23088" lon="5.73982">
        <ele>1050</ele>
        <time>2021-06-26T08:15:04.000Z</time>
      </trkpt>
      <trkpt lat="45.23079" lon="5.73976">
        <ele>1049.1999511719</ele>
        <time>2021-06-26T08:15:08.000Z</time>
      </trkpt>
      <trkpt lat="45.23068" lon="5.73973">
        <ele>1047.4000244141</ele>
        <time>2021-06-26T08:15:12.000Z</time>
      </trkpt>
      <trkpt lat="45.23063" lon="5.73973">
        <ele>1046.4000244141</ele>
        <time>2021-06-26T08:15:14.000Z</time>
      </trkpt>
      <trkpt lat="45.2306" lon="5.73974">
        <ele>1046.1999511719</ele>
        <time>2021-06-26T08:15:15.000Z</time>
      </trkpt>
      <trkpt lat="45.23053" lon="5.73976">
        <ele>1045.1999511719</ele>
        <time>2021-06-26T08:15:18.000Z</time>
      </trkpt>
      <trkpt lat="45.2305" lon="5.73977">
        <ele>1044.8000488281</ele>
        <time>2021-06-26T08:15:19.000Z</time>
      </trkpt>
      <trkpt lat="45.23041" lon="5.73979">
        <ele>1044.4000244141</ele>
        <time>2021-06-26T08:15:23.000Z</time>
      </trkpt>
      <trkpt lat="45.23029" lon="5.7398">
        <ele>1044.4000244141</ele>
        <time>2021-06-26T08:15:27.000Z</time>
      </trkpt>
      <trkpt lat="45.23026" lon="5.7398">
        <ele>1044.1999511719</ele>
        <time>2021-06-26T08:15:28.000Z</time>
      </trkpt>
      <trkpt lat="45.2301" lon="5.73976">
        <ele>1043.8000488281</ele>
        <time>2021-06-26T08:15:34.000Z</time>
      </trkpt>
      <trkpt lat="45.22995" lon="5.73975">
        <ele>1043.8000488281</ele>
        <time>2021-06-26T08:15:40.000Z</time>
      </trkpt>
      <trkpt lat="45.22976" lon="5.73978">
        <ele>1043.4000244141</ele>
        <time>2021-06-26T08:15:46.000Z</time>
      </trkpt>
      <trkpt lat="45.22974" lon="5.73978">
        <ele>1043.1999511719</ele>
        <time>2021-06-26T08:15:47.000Z</time>
      </trkpt>
      <trkpt lat="45.22971" lon="5.73978">
        <ele>1043.1999511719</ele>
        <time>2021-06-26T08:15:48.000Z</time>
      </trkpt>
      <trkpt lat="45.22958" lon="5.73966">
        <ele>1042.5999755859</ele>
        <time>2021-06-26T08:15:54.000Z</time>
      </trkpt>
      <trkpt lat="45.22953" lon="5.73961">
        <ele>1042.1999511719</ele>
        <time>2021-06-26T08:15:56.000Z</time>
      </trkpt>
      <trkpt lat="45.22941" lon="5.73944">
        <ele>1041.5999755859</ele>
        <time>2021-06-26T08:16:02.000Z</time>
      </trkpt>
      <trkpt lat="45.22938" lon="5.73929">
        <ele>1041.5999755859</ele>
        <time>2021-06-26T08:16:06.000Z</time>
      </trkpt>
      <trkpt lat="45.22938" lon="5.73926">
        <ele>1041.4000244141</ele>
        <time>2021-06-26T08:16:07.000Z</time>
      </trkpt>
      <trkpt lat="45.22937" lon="5.73897">
        <ele>1042.8000488281</ele>
        <time>2021-06-26T08:16:15.000Z</time>
      </trkpt>
      <trkpt lat="45.22937" lon="5.73892">
        <ele>1043.8000488281</ele>
        <time>2021-06-26T08:16:17.000Z</time>
      </trkpt>
      <trkpt lat="45.22936" lon="5.73889">
        <ele>1044</ele>
        <time>2021-06-26T08:16:18.000Z</time>
      </trkpt>
      <trkpt lat="45.22936" lon="5.73885">
        <ele>1045.1999511719</ele>
        <time>2021-06-26T08:16:20.000Z</time>
      </trkpt>
      <trkpt lat="45.22937" lon="5.73878">
        <ele>1046.5999755859</ele>
        <time>2021-06-26T08:16:23.000Z</time>
      </trkpt>
      <trkpt lat="45.22938" lon="5.73874">
        <ele>1046.8000488281</ele>
        <time>2021-06-26T08:16:25.000Z</time>
      </trkpt>
      <trkpt lat="45.22939" lon="5.73872">
        <ele>1047.4000244141</ele>
        <time>2021-06-26T08:16:26.000Z</time>
      </trkpt>
      <trkpt lat="45.22938" lon="5.73872">
        <ele>1047.4000244141</ele>
        <time>2021-06-26T08:16:27.000Z</time>
      </trkpt>
      <trkpt lat="45.22936" lon="5.73872">
        <ele>1047.5999755859</ele>
        <time>2021-06-26T08:16:29.000Z</time>
      </trkpt>
      <trkpt lat="45.22935" lon="5.73872">
        <ele>1047.5999755859</ele>
        <time>2021-06-26T08:16:30.000Z</time>
      </trkpt>
      <trkpt lat="45.22929" lon="5.73872">
        <ele>1048.5999755859</ele>
        <time>2021-06-26T08:16:35.000Z</time>
      </trkpt>
      <trkpt lat="45.22926" lon="5.73871">
        <ele>1048.8000488281</ele>
        <time>2021-06-26T08:16:37.000Z</time>
      </trkpt>
      <trkpt lat="45.22916" lon="5.73872">
        <ele>1049.8000488281</ele>
        <time>2021-06-26T08:16:43.000Z</time>
      </trkpt>
      <trkpt lat="45.22912" lon="5.73874">
        <ele>1049.8000488281</ele>
        <time>2021-06-26T08:16:46.000Z</time>
      </trkpt>
      <trkpt lat="45.22898" lon="5.73873">
        <ele>1050.5999755859</ele>
        <time>2021-06-26T08:16:53.000Z</time>
      </trkpt>
      <trkpt lat="45.22893" lon="5.73875">
        <ele>1050.8000488281</ele>
        <time>2021-06-26T08:16:55.000Z</time>
      </trkpt>
      <trkpt lat="45.22888" lon="5.7388">
        <ele>1051</ele>
        <time>2021-06-26T08:16:59.000Z</time>
      </trkpt>
      <trkpt lat="45.22873" lon="5.73889">
        <ele>1051</ele>
        <time>2021-06-26T08:17:04.000Z</time>
      </trkpt>
      <trkpt lat="45.2287" lon="5.7389">
        <ele>1051</ele>
        <time>2021-06-26T08:17:05.000Z</time>
      </trkpt>
      <trkpt lat="45.22867" lon="5.73891">
        <ele>1051</ele>
        <time>2021-06-26T08:17:06.000Z</time>
      </trkpt>
      <trkpt lat="45.22858" lon="5.73892">
        <ele>1051.5999755859</ele>
        <time>2021-06-26T08:17:10.000Z</time>
      </trkpt>
      <trkpt lat="45.22855" lon="5.73891">
        <ele>1052</ele>
        <time>2021-06-26T08:17:11.000Z</time>
      </trkpt>
      <trkpt lat="45.22844" lon="5.73887">
        <ele>1052.5999755859</ele>
        <time>2021-06-26T08:17:17.000Z</time>
      </trkpt>
      <trkpt lat="45.22838" lon="5.73887">
        <ele>1052.5999755859</ele>
        <time>2021-06-26T08:17:20.000Z</time>
      </trkpt>
      <trkpt lat="45.22833" lon="5.73886">
        <ele>1053.1999511719</ele>
        <time>2021-06-26T08:17:23.000Z</time>
      </trkpt>
      <trkpt lat="45.22831" lon="5.73885">
        <ele>1053.1999511719</ele>
        <time>2021-06-26T08:17:24.000Z</time>
      </trkpt>
      <trkpt lat="45.22829" lon="5.73885">
        <ele>1053.4000244141</ele>
        <time>2021-06-26T08:17:25.000Z</time>
      </trkpt>
      <trkpt lat="45.22821" lon="5.73884">
        <ele>1054.1999511719</ele>
        <time>2021-06-26T08:17:29.000Z</time>
      </trkpt>
      <trkpt lat="45.22819" lon="5.73883">
        <ele>1054.4000244141</ele>
        <time>2021-06-26T08:17:30.000Z</time>
      </trkpt>
      <trkpt lat="45.22808" lon="5.73878">
        <ele>1056</ele>
        <time>2021-06-26T08:17:36.000Z</time>
      </trkpt>
      <trkpt lat="45.22797" lon="5.7387">
        <ele>1057</ele>
        <time>2021-06-26T08:17:42.000Z</time>
      </trkpt>
      <trkpt lat="45.22791" lon="5.73867">
        <ele>1057.1999511719</ele>
        <time>2021-06-26T08:17:45.000Z</time>
      </trkpt>
      <trkpt lat="45.22783" lon="5.73862">
        <ele>1057.8000488281</ele>
        <time>2021-06-26T08:17:49.000Z</time>
      </trkpt>
      <trkpt lat="45.22777" lon="5.7386">
        <ele>1058.4000244141</ele>
        <time>2021-06-26T08:17:52.000Z</time>
      </trkpt>
      <trkpt lat="45.22772" lon="5.73855">
        <ele>1058.1999511719</ele>
        <time>2021-06-26T08:17:55.000Z</time>
      </trkpt>
      <trkpt lat="45.22761" lon="5.73848">
        <ele>1057.5999755859</ele>
        <time>2021-06-26T08:18:02.000Z</time>
      </trkpt>
      <trkpt lat="45.22759" lon="5.73847">
        <ele>1057.5999755859</ele>
        <time>2021-06-26T08:18:03.000Z</time>
      </trkpt>
      <trkpt lat="45.22755" lon="5.73845">
        <ele>1057.8000488281</ele>
        <time>2021-06-26T08:18:04.000Z</time>
      </trkpt>
      <trkpt lat="45.22744" lon="5.73841">
        <ele>1058.1999511719</ele>
        <time>2021-06-26T08:18:09.000Z</time>
      </trkpt>
      <trkpt lat="45.22741" lon="5.7384">
        <ele>1058.1999511719</ele>
        <time>2021-06-26T08:18:10.000Z</time>
      </trkpt>
      <trkpt lat="45.22727" lon="5.73834">
        <ele>1058.8000488281</ele>
        <time>2021-06-26T08:18:16.000Z</time>
      </trkpt>
      <trkpt lat="45.22722" lon="5.73832">
        <ele>1058.8000488281</ele>
        <time>2021-06-26T08:18:18.000Z</time>
      </trkpt>
      <trkpt lat="45.22716" lon="5.73829">
        <ele>1059.5999755859</ele>
        <time>2021-06-26T08:18:22.000Z</time>
      </trkpt>
      <trkpt lat="45.22709" lon="5.73826">
        <ele>1059</ele>
        <time>2021-06-26T08:18:27.000Z</time>
      </trkpt>
      <trkpt lat="45.22707" lon="5.73825">
        <ele>1058.8000488281</ele>
        <time>2021-06-26T08:18:28.000Z</time>
      </trkpt>
      <trkpt lat="45.22705" lon="5.73824">
        <ele>1058.4000244141</ele>
        <time>2021-06-26T08:18:29.000Z</time>
      </trkpt>
      <trkpt lat="45.22686" lon="5.73813">
        <ele>1057.4000244141</ele>
        <time>2021-06-26T08:18:35.000Z</time>
      </trkpt>
      <trkpt lat="45.22679" lon="5.73808">
        <ele>1057.1999511719</ele>
        <time>2021-06-26T08:18:38.000Z</time>
      </trkpt>
      <trkpt lat="45.22673" lon="5.73802">
        <ele>1057.1999511719</ele>
        <time>2021-06-26T08:18:42.000Z</time>
      </trkpt>
      <trkpt lat="45.22666" lon="5.73796">
        <ele>1056.1999511719</ele>
        <time>2021-06-26T08:18:46.000Z</time>
      </trkpt>
      <trkpt lat="45.22665" lon="5.73796">
        <ele>1055.1999511719</ele>
        <time>2021-06-26T08:18:47.000Z</time>
      </trkpt>
      <trkpt lat="45.22661" lon="5.73796">
        <ele>1054.5999755859</ele>
        <time>2021-06-26T08:18:50.000Z</time>
      </trkpt>
      <trkpt lat="45.22659" lon="5.73795">
        <ele>1054.1999511719</ele>
        <time>2021-06-26T08:18:51.000Z</time>
      </trkpt>
      <trkpt lat="45.22652" lon="5.7379">
        <ele>1053.1999511719</ele>
        <time>2021-06-26T08:18:55.000Z</time>
      </trkpt>
      <trkpt lat="45.22648" lon="5.73786">
        <ele>1053.1999511719</ele>
        <time>2021-06-26T08:18:57.000Z</time>
      </trkpt>
      <trkpt lat="45.22646" lon="5.73778">
        <ele>1053</ele>
        <time>2021-06-26T08:19:01.000Z</time>
      </trkpt>
      <trkpt lat="45.22644" lon="5.73776">
        <ele>1053</ele>
        <time>2021-06-26T08:19:02.000Z</time>
      </trkpt>
      <trkpt lat="45.22633" lon="5.73767">
        <ele>1053.5999755859</ele>
        <time>2021-06-26T08:19:07.000Z</time>
      </trkpt>
      <trkpt lat="45.22631" lon="5.73765">
        <ele>1054</ele>
        <time>2021-06-26T08:19:08.000Z</time>
      </trkpt>
      <trkpt lat="45.22627" lon="5.73763">
        <ele>1053.5999755859</ele>
        <time>2021-06-26T08:19:10.000Z</time>
      </trkpt>
      <trkpt lat="45.22621" lon="5.73759">
        <ele>1053</ele>
        <time>2021-06-26T08:19:13.000Z</time>
      </trkpt>
      <trkpt lat="45.22611" lon="5.73751">
        <ele>1052.1999511719</ele>
        <time>2021-06-26T08:19:18.000Z</time>
      </trkpt>
      <trkpt lat="45.22607" lon="5.73747">
        <ele>1051</ele>
        <time>2021-06-26T08:19:21.000Z</time>
      </trkpt>
      <trkpt lat="45.22606" lon="5.73745">
        <ele>1050.1999511719</ele>
        <time>2021-06-26T08:19:22.000Z</time>
      </trkpt>
      <trkpt lat="45.22604" lon="5.73742">
        <ele>1049.8000488281</ele>
        <time>2021-06-26T08:19:25.000Z</time>
      </trkpt>
      <trkpt lat="45.22601" lon="5.73741">
        <ele>1048.8000488281</ele>
        <time>2021-06-26T08:19:27.000Z</time>
      </trkpt>
      <trkpt lat="45.22597" lon="5.73739">
        <ele>1047.5999755859</ele>
        <time>2021-06-26T08:19:30.000Z</time>
      </trkpt>
      <trkpt lat="45.22592" lon="5.73734">
        <ele>1047.4000244141</ele>
        <time>2021-06-26T08:19:32.000Z</time>
      </trkpt>
      <trkpt lat="45.22587" lon="5.73731">
        <ele>1047</ele>
        <time>2021-06-26T08:19:34.000Z</time>
      </trkpt>
      <trkpt lat="45.22584" lon="5.7373">
        <ele>1046.5999755859</ele>
        <time>2021-06-26T08:19:35.000Z</time>
      </trkpt>
      <trkpt lat="45.22577" lon="5.7373">
        <ele>1046.1999511719</ele>
        <time>2021-06-26T08:19:37.000Z</time>
      </trkpt>
      <trkpt lat="45.22566" lon="5.73727">
        <ele>1045.8000488281</ele>
        <time>2021-06-26T08:19:41.000Z</time>
      </trkpt>
      <trkpt lat="45.22559" lon="5.73718">
        <ele>1044.8000488281</ele>
        <time>2021-06-26T08:19:45.000Z</time>
      </trkpt>
      <trkpt lat="45.22558" lon="5.73716">
        <ele>1044.5999755859</ele>
        <time>2021-06-26T08:19:46.000Z</time>
      </trkpt>
      <trkpt lat="45.22556" lon="5.73715">
        <ele>1043.5999755859</ele>
        <time>2021-06-26T08:19:47.000Z</time>
      </trkpt>
      <trkpt lat="45.22549" lon="5.73713">
        <ele>1042</ele>
        <time>2021-06-26T08:19:53.000Z</time>
      </trkpt>
      <trkpt lat="45.22544" lon="5.73711">
        <ele>1040.8000488281</ele>
        <time>2021-06-26T08:19:57.000Z</time>
      </trkpt>
      <trkpt lat="45.22538" lon="5.73709">
        <ele>1039.1999511719</ele>
        <time>2021-06-26T08:20:00.000Z</time>
      </trkpt>
      <trkpt lat="45.22535" lon="5.73708">
        <ele>1039</ele>
        <time>2021-06-26T08:20:02.000Z</time>
      </trkpt>
      <trkpt lat="45.22531" lon="5.73706">
        <ele>1038</ele>
        <time>2021-06-26T08:20:05.000Z</time>
      </trkpt>
      <trkpt lat="45.22528" lon="5.73705">
        <ele>1037.1999511719</ele>
        <time>2021-06-26T08:20:08.000Z</time>
      </trkpt>
      <trkpt lat="45.22526" lon="5.73704">
        <ele>1036.5999755859</ele>
        <time>2021-06-26T08:20:10.000Z</time>
      </trkpt>
      <trkpt lat="45.22525" lon="5.73703">
        <ele>1035.4000244141</ele>
        <time>2021-06-26T08:20:11.000Z</time>
      </trkpt>
      <trkpt lat="45.22521" lon="5.73702">
        <ele>1034.1999511719</ele>
        <time>2021-06-26T08:20:14.000Z</time>
      </trkpt>
      <trkpt lat="45.22519" lon="5.73701">
        <ele>1034.1999511719</ele>
        <time>2021-06-26T08:20:15.000Z</time>
      </trkpt>
      <trkpt lat="45.22517" lon="5.737">
        <ele>1034</ele>
        <time>2021-06-26T08:20:16.000Z</time>
      </trkpt>
      <trkpt lat="45.22511" lon="5.73696">
        <ele>1033.1999511719</ele>
        <time>2021-06-26T08:20:20.000Z</time>
      </trkpt>
      <trkpt lat="45.22508" lon="5.73695">
        <ele>1032.1999511719</ele>
        <time>2021-06-26T08:20:22.000Z</time>
      </trkpt>
      <trkpt lat="45.22507" lon="5.73696">
        <ele>1032</ele>
        <time>2021-06-26T08:20:23.000Z</time>
      </trkpt>
      <trkpt lat="45.22505" lon="5.73698">
        <ele>1031.4000244141</ele>
        <time>2021-06-26T08:20:25.000Z</time>
      </trkpt>
      <trkpt lat="45.22503" lon="5.73699">
        <ele>1031</ele>
        <time>2021-06-26T08:20:26.000Z</time>
      </trkpt>
      <trkpt lat="45.22499" lon="5.737">
        <ele>1029.4000244141</ele>
        <time>2021-06-26T08:20:28.000Z</time>
      </trkpt>
      <trkpt lat="45.22496" lon="5.737">
        <ele>1028.5999755859</ele>
        <time>2021-06-26T08:20:30.000Z</time>
      </trkpt>
      <trkpt lat="45.22494" lon="5.737">
        <ele>1028.1999511719</ele>
        <time>2021-06-26T08:20:32.000Z</time>
      </trkpt>
      <trkpt lat="45.22493" lon="5.737">
        <ele>1028.1999511719</ele>
        <time>2021-06-26T08:20:33.000Z</time>
      </trkpt>
      <trkpt lat="45.22492" lon="5.737">
        <ele>1027.8000488281</ele>
        <time>2021-06-26T08:20:34.000Z</time>
      </trkpt>
      <trkpt lat="45.22492" lon="5.73702">
        <ele>1027</ele>
        <time>2021-06-26T08:20:36.000Z</time>
      </trkpt>
      <trkpt lat="45.2249" lon="5.73704">
        <ele>1026.1999511719</ele>
        <time>2021-06-26T08:20:38.000Z</time>
      </trkpt>
      <trkpt lat="45.22489" lon="5.73705">
        <ele>1025.8000488281</ele>
        <time>2021-06-26T08:20:39.000Z</time>
      </trkpt>
      <trkpt lat="45.22487" lon="5.73706">
        <ele>1025.1999511719</ele>
        <time>2021-06-26T08:20:41.000Z</time>
      </trkpt>
      <trkpt lat="45.22485" lon="5.73706">
        <ele>1024.5999755859</ele>
        <time>2021-06-26T08:20:43.000Z</time>
      </trkpt>
      <trkpt lat="45.2248" lon="5.73706">
        <ele>1023.4000244141</ele>
        <time>2021-06-26T08:20:45.000Z</time>
      </trkpt>
      <trkpt lat="45.22477" lon="5.73706">
        <ele>1023</ele>
        <time>2021-06-26T08:20:47.000Z</time>
      </trkpt>
      <trkpt lat="45.22473" lon="5.73708">
        <ele>1022.200012207</ele>
        <time>2021-06-26T08:20:49.000Z</time>
      </trkpt>
      <trkpt lat="45.22466" lon="5.73708">
        <ele>1022.200012207</ele>
        <time>2021-06-26T08:20:53.000Z</time>
      </trkpt>
      <trkpt lat="45.22464" lon="5.73708">
        <ele>1022.200012207</ele>
        <time>2021-06-26T08:20:54.000Z</time>
      </trkpt>
      <trkpt lat="45.2245" lon="5.73703">
        <ele>1021.5999755859</ele>
        <time>2021-06-26T08:21:01.000Z</time>
      </trkpt>
      <trkpt lat="45.22446" lon="5.73701">
        <ele>1021.200012207</ele>
        <time>2021-06-26T08:21:03.000Z</time>
      </trkpt>
      <trkpt lat="45.22444" lon="5.73701">
        <ele>1021</ele>
        <time>2021-06-26T08:21:04.000Z</time>
      </trkpt>
      <trkpt lat="45.22438" lon="5.737">
        <ele>1019.799987793</ele>
        <time>2021-06-26T08:21:07.000Z</time>
      </trkpt>
      <trkpt lat="45.22432" lon="5.73703">
        <ele>1018.4000244141</ele>
        <time>2021-06-26T08:21:11.000Z</time>
      </trkpt>
      <trkpt lat="45.22431" lon="5.73704">
        <ele>1018.4000244141</ele>
        <time>2021-06-26T08:21:12.000Z</time>
      </trkpt>
      <trkpt lat="45.22429" lon="5.73704">
        <ele>1017.5999755859</ele>
        <time>2021-06-26T08:21:15.000Z</time>
      </trkpt>
      <trkpt lat="45.22428" lon="5.73705">
        <ele>1017.200012207</ele>
        <time>2021-06-26T08:21:16.000Z</time>
      </trkpt>
      <trkpt lat="45.22426" lon="5.73705">
        <ele>1017</ele>
        <time>2021-06-26T08:21:17.000Z</time>
      </trkpt>
      <trkpt lat="45.22424" lon="5.73706">
        <ele>1016.200012207</ele>
        <time>2021-06-26T08:21:19.000Z</time>
      </trkpt>
      <trkpt lat="45.22423" lon="5.73705">
        <ele>1016</ele>
        <time>2021-06-26T08:21:20.000Z</time>
      </trkpt>
      <trkpt lat="45.22418" lon="5.73704">
        <ele>1014.799987793</ele>
        <time>2021-06-26T08:21:23.000Z</time>
      </trkpt>
      <trkpt lat="45.22417" lon="5.73701">
        <ele>1013.200012207</ele>
        <time>2021-06-26T08:21:27.000Z</time>
      </trkpt>
      <trkpt lat="45.22414" lon="5.73702">
        <ele>1012.5999755859</ele>
        <time>2021-06-26T08:21:30.000Z</time>
      </trkpt>
      <trkpt lat="45.22412" lon="5.73701">
        <ele>1012.5999755859</ele>
        <time>2021-06-26T08:21:31.000Z</time>
      </trkpt>
      <trkpt lat="45.22411" lon="5.73701">
        <ele>1011.5999755859</ele>
        <time>2021-06-26T08:21:32.000Z</time>
      </trkpt>
      <trkpt lat="45.22406" lon="5.737">
        <ele>1010.799987793</ele>
        <time>2021-06-26T08:21:35.000Z</time>
      </trkpt>
      <trkpt lat="45.22404" lon="5.73699">
        <ele>1010.5999755859</ele>
        <time>2021-06-26T08:21:36.000Z</time>
      </trkpt>
      <trkpt lat="45.224" lon="5.73699">
        <ele>1010.4000244141</ele>
        <time>2021-06-26T08:21:38.000Z</time>
      </trkpt>
      <trkpt lat="45.22396" lon="5.73699">
        <ele>1010</ele>
        <time>2021-06-26T08:21:40.000Z</time>
      </trkpt>
      <trkpt lat="45.22394" lon="5.73698">
        <ele>1009.5999755859</ele>
        <time>2021-06-26T08:21:41.000Z</time>
      </trkpt>
      <trkpt lat="45.22393" lon="5.73697">
        <ele>1009.200012207</ele>
        <time>2021-06-26T08:21:42.000Z</time>
      </trkpt>
      <trkpt lat="45.22381" lon="5.73692">
        <ele>1008.4000244141</ele>
        <time>2021-06-26T08:21:48.000Z</time>
      </trkpt>
      <trkpt lat="45.22377" lon="5.73688">
        <ele>1008.4000244141</ele>
        <time>2021-06-26T08:21:53.000Z</time>
      </trkpt>
      <trkpt lat="45.22376" lon="5.73687">
        <ele>1008.5999755859</ele>
        <time>2021-06-26T08:21:54.000Z</time>
      </trkpt>
      <trkpt lat="45.22372" lon="5.73685">
        <ele>1009.4000244141</ele>
        <time>2021-06-26T08:21:57.000Z</time>
      </trkpt>
      <trkpt lat="45.22367" lon="5.73684">
        <ele>1010</ele>
        <time>2021-06-26T08:21:59.000Z</time>
      </trkpt>
      <trkpt lat="45.22362" lon="5.73682">
        <ele>1010.4000244141</ele>
        <time>2021-06-26T08:22:02.000Z</time>
      </trkpt>
      <trkpt lat="45.22353" lon="5.73679">
        <ele>1010.5999755859</ele>
        <time>2021-06-26T08:22:07.000Z</time>
      </trkpt>
      <trkpt lat="45.22347" lon="5.73681">
        <ele>1011.200012207</ele>
        <time>2021-06-26T08:22:11.000Z</time>
      </trkpt>
      <trkpt lat="45.22345" lon="5.73681">
        <ele>1011.4000244141</ele>
        <time>2021-06-26T08:22:12.000Z</time>
      </trkpt>
      <trkpt lat="45.22342" lon="5.7368">
        <ele>1011.4000244141</ele>
        <time>2021-06-26T08:22:13.000Z</time>
      </trkpt>
      <trkpt lat="45.22339" lon="5.73679">
        <ele>1012.200012207</ele>
        <time>2021-06-26T08:22:15.000Z</time>
      </trkpt>
      <trkpt lat="45.22337" lon="5.73679">
        <ele>1012.5999755859</ele>
        <time>2021-06-26T08:22:16.000Z</time>
      </trkpt>
      <trkpt lat="45.22333" lon="5.73678">
        <ele>1013.4000244141</ele>
        <time>2021-06-26T08:22:18.000Z</time>
      </trkpt>
      <trkpt lat="45.2233" lon="5.73678">
        <ele>1013.5999755859</ele>
        <time>2021-06-26T08:22:20.000Z</time>
      </trkpt>
      <trkpt lat="45.22329" lon="5.73678">
        <ele>1014</ele>
        <time>2021-06-26T08:22:21.000Z</time>
      </trkpt>
      <trkpt lat="45.22326" lon="5.73676">
        <ele>1014.5999755859</ele>
        <time>2021-06-26T08:22:23.000Z</time>
      </trkpt>
      <trkpt lat="45.22323" lon="5.73674">
        <ele>1015.4000244141</ele>
        <time>2021-06-26T08:22:25.000Z</time>
      </trkpt>
      <trkpt lat="45.22318" lon="5.73672">
        <ele>1015.5999755859</ele>
        <time>2021-06-26T08:22:28.000Z</time>
      </trkpt>
      <trkpt lat="45.22314" lon="5.73673">
        <ele>1016.4000244141</ele>
        <time>2021-06-26T08:22:31.000Z</time>
      </trkpt>
      <trkpt lat="45.22309" lon="5.73673">
        <ele>1017.5999755859</ele>
        <time>2021-06-26T08:22:35.000Z</time>
      </trkpt>
      <trkpt lat="45.22307" lon="5.73672">
        <ele>1017.5999755859</ele>
        <time>2021-06-26T08:22:36.000Z</time>
      </trkpt>
      <trkpt lat="45.223" lon="5.7367">
        <ele>1019</ele>
        <time>2021-06-26T08:22:40.000Z</time>
      </trkpt>
      <trkpt lat="45.22297" lon="5.73668">
        <ele>1019.4000244141</ele>
        <time>2021-06-26T08:22:43.000Z</time>
      </trkpt>
      <trkpt lat="45.22293" lon="5.73666">
        <ele>1020.200012207</ele>
        <time>2021-06-26T08:22:46.000Z</time>
      </trkpt>
      <trkpt lat="45.22289" lon="5.73665">
        <ele>1021</ele>
        <time>2021-06-26T08:22:49.000Z</time>
      </trkpt>
      <trkpt lat="45.22288" lon="5.73665">
        <ele>1021.4000244141</ele>
        <time>2021-06-26T08:22:50.000Z</time>
      </trkpt>
      <trkpt lat="45.22286" lon="5.73665">
        <ele>1021.799987793</ele>
        <time>2021-06-26T08:22:53.000Z</time>
      </trkpt>
      <trkpt lat="45.22285" lon="5.73664">
        <ele>1022.799987793</ele>
        <time>2021-06-26T08:22:54.000Z</time>
      </trkpt>
      <trkpt lat="45.22283" lon="5.73663">
        <ele>1023</ele>
        <time>2021-06-26T08:22:56.000Z</time>
      </trkpt>
      <trkpt lat="45.22279" lon="5.73662">
        <ele>1023.799987793</ele>
        <time>2021-06-26T08:23:00.000Z</time>
      </trkpt>
      <trkpt lat="45.22278" lon="5.73661">
        <ele>1023.799987793</ele>
        <time>2021-06-26T08:23:01.000Z</time>
      </trkpt>
      <trkpt lat="45.22277" lon="5.73662">
        <ele>1024.1999511719</ele>
        <time>2021-06-26T08:23:03.000Z</time>
      </trkpt>
      <trkpt lat="45.22276" lon="5.73662">
        <ele>1024.4000244141</ele>
        <time>2021-06-26T08:23:04.000Z</time>
      </trkpt>
      <trkpt lat="45.22273" lon="5.73664">
        <ele>1025</ele>
        <time>2021-06-26T08:23:07.000Z</time>
      </trkpt>
      <trkpt lat="45.22269" lon="5.73664">
        <ele>1025.5999755859</ele>
        <time>2021-06-26T08:23:10.000Z</time>
      </trkpt>
      <trkpt lat="45.22265" lon="5.73661">
        <ele>1026.4000244141</ele>
        <time>2021-06-26T08:23:14.000Z</time>
      </trkpt>
      <trkpt lat="45.22255" lon="5.73658">
        <ele>1027.1999511719</ele>
        <time>2021-06-26T08:23:20.000Z</time>
      </trkpt>
      <trkpt lat="45.22253" lon="5.73658">
        <ele>1027.5999755859</ele>
        <time>2021-06-26T08:23:21.000Z</time>
      </trkpt>
      <trkpt lat="45.2225" lon="5.73656">
        <ele>1028.1999511719</ele>
        <time>2021-06-26T08:23:24.000Z</time>
      </trkpt>
      <trkpt lat="45.22245" lon="5.73653">
        <ele>1028.8000488281</ele>
        <time>2021-06-26T08:23:27.000Z</time>
      </trkpt>
      <trkpt lat="45.22241" lon="5.7365">
        <ele>1029.8000488281</ele>
        <time>2021-06-26T08:23:33.000Z</time>
      </trkpt>
      <trkpt lat="45.22239" lon="5.73649">
        <ele>1030</ele>
        <time>2021-06-26T08:23:34.000Z</time>
      </trkpt>
      <trkpt lat="45.22238" lon="5.73647">
        <ele>1030</ele>
        <time>2021-06-26T08:23:35.000Z</time>
      </trkpt>
      <trkpt lat="45.22234" lon="5.73642">
        <ele>1030.1999511719</ele>
        <time>2021-06-26T08:23:39.000Z</time>
      </trkpt>
      <trkpt lat="45.22233" lon="5.73642">
        <ele>1030.4000244141</ele>
        <time>2021-06-26T08:23:40.000Z</time>
      </trkpt>
      <trkpt lat="45.22231" lon="5.73641">
        <ele>1030.5999755859</ele>
        <time>2021-06-26T08:23:41.000Z</time>
      </trkpt>
      <trkpt lat="45.22223" lon="5.73636">
        <ele>1031</ele>
        <time>2021-06-26T08:23:45.000Z</time>
      </trkpt>
      <trkpt lat="45.22222" lon="5.73634">
        <ele>1031</ele>
        <time>2021-06-26T08:23:46.000Z</time>
      </trkpt>
      <trkpt lat="45.22213" lon="5.73625">
        <ele>1031.5999755859</ele>
        <time>2021-06-26T08:23:51.000Z</time>
      </trkpt>
      <trkpt lat="45.22209" lon="5.73622">
        <ele>1032.1999511719</ele>
        <time>2021-06-26T08:23:54.000Z</time>
      </trkpt>
      <trkpt lat="45.22201" lon="5.73615">
        <ele>1032.8000488281</ele>
        <time>2021-06-26T08:23:59.000Z</time>
      </trkpt>
      <trkpt lat="45.22197" lon="5.73613">
        <ele>1033.1999511719</ele>
        <time>2021-06-26T08:24:02.000Z</time>
      </trkpt>
      <trkpt lat="45.22191" lon="5.73606">
        <ele>1034</ele>
        <time>2021-06-26T08:24:06.000Z</time>
      </trkpt>
      <trkpt lat="45.22187" lon="5.73602">
        <ele>1034.4000244141</ele>
        <time>2021-06-26T08:24:08.000Z</time>
      </trkpt>
      <trkpt lat="45.2218" lon="5.73594">
        <ele>1035.4000244141</ele>
        <time>2021-06-26T08:24:12.000Z</time>
      </trkpt>
      <trkpt lat="45.22178" lon="5.73589">
        <ele>1035.5999755859</ele>
        <time>2021-06-26T08:24:14.000Z</time>
      </trkpt>
      <trkpt lat="45.22176" lon="5.73586">
        <ele>1036.8000488281</ele>
        <time>2021-06-26T08:24:17.000Z</time>
      </trkpt>
      <trkpt lat="45.22173" lon="5.73582">
        <ele>1037.1999511719</ele>
        <time>2021-06-26T08:24:20.000Z</time>
      </trkpt>
      <trkpt lat="45.22173" lon="5.73581">
        <ele>1037.1999511719</ele>
        <time>2021-06-26T08:24:21.000Z</time>
      </trkpt>
      <trkpt lat="45.2217" lon="5.73576">
        <ele>1038</ele>
        <time>2021-06-26T08:24:24.000Z</time>
      </trkpt>
      <trkpt lat="45.22168" lon="5.73571">
        <ele>1038.8000488281</ele>
        <time>2021-06-26T08:24:27.000Z</time>
      </trkpt>
      <trkpt lat="45.22167" lon="5.73569">
        <ele>1039</ele>
        <time>2021-06-26T08:24:28.000Z</time>
      </trkpt>
      <trkpt lat="45.22164" lon="5.73565">
        <ele>1039.8000488281</ele>
        <time>2021-06-26T08:24:33.000Z</time>
      </trkpt>
      <trkpt lat="45.22164" lon="5.73565">
        <ele>1040.1999511719</ele>
        <time>2021-06-26T08:24:34.000Z</time>
      </trkpt>
      <trkpt lat="45.22158" lon="5.73564">
        <ele>1041.4000244141</ele>
        <time>2021-06-26T08:24:38.000Z</time>
      </trkpt>
      <trkpt lat="45.22156" lon="5.73561">
        <ele>1041.5999755859</ele>
        <time>2021-06-26T08:24:40.000Z</time>
      </trkpt>
      <trkpt lat="45.22154" lon="5.73559">
        <ele>1041.8000488281</ele>
        <time>2021-06-26T08:24:42.000Z</time>
      </trkpt>
      <trkpt lat="45.22152" lon="5.73558">
        <ele>1042.8000488281</ele>
        <time>2021-06-26T08:24:44.000Z</time>
      </trkpt>
      <trkpt lat="45.22149" lon="5.73558">
        <ele>1043.4000244141</ele>
        <time>2021-06-26T08:24:48.000Z</time>
      </trkpt>
      <trkpt lat="45.22145" lon="5.73556">
        <ele>1044</ele>
        <time>2021-06-26T08:24:51.000Z</time>
      </trkpt>
      <trkpt lat="45.22143" lon="5.73557">
        <ele>1045.1999511719</ele>
        <time>2021-06-26T08:24:54.000Z</time>
      </trkpt>
      <trkpt lat="45.22139" lon="5.73555">
        <ele>1046.5999755859</ele>
        <time>2021-06-26T08:24:59.000Z</time>
      </trkpt>
      <trkpt lat="45.22136" lon="5.73555">
        <ele>1047.1999511719</ele>
        <time>2021-06-26T08:25:01.000Z</time>
      </trkpt>
      <trkpt lat="45.22133" lon="5.73554">
        <ele>1048.1999511719</ele>
        <time>2021-06-26T08:25:04.000Z</time>
      </trkpt>
      <trkpt lat="45.22132" lon="5.73554">
        <ele>1048.4000244141</ele>
        <time>2021-06-26T08:25:05.000Z</time>
      </trkpt>
      <trkpt lat="45.22128" lon="5.73552">
        <ele>1048.8000488281</ele>
        <time>2021-06-26T08:25:07.000Z</time>
      </trkpt>
      <trkpt lat="45.22123" lon="5.7355">
        <ele>1049.8000488281</ele>
        <time>2021-06-26T08:25:10.000Z</time>
      </trkpt>
      <trkpt lat="45.2212" lon="5.73548">
        <ele>1050.1999511719</ele>
        <time>2021-06-26T08:25:12.000Z</time>
      </trkpt>
      <trkpt lat="45.22119" lon="5.7354">
        <ele>1051.1999511719</ele>
        <time>2021-06-26T08:25:16.000Z</time>
      </trkpt>
      <trkpt lat="45.22118" lon="5.73531">
        <ele>1051.8000488281</ele>
        <time>2021-06-26T08:25:20.000Z</time>
      </trkpt>
      <trkpt lat="45.22116" lon="5.73529">
        <ele>1052.5999755859</ele>
        <time>2021-06-26T08:25:23.000Z</time>
      </trkpt>
      <trkpt lat="45.22115" lon="5.73529">
        <ele>1052.5999755859</ele>
        <time>2021-06-26T08:25:24.000Z</time>
      </trkpt>
      <trkpt lat="45.22114" lon="5.73529">
        <ele>1053</ele>
        <time>2021-06-26T08:25:25.000Z</time>
      </trkpt>
      <trkpt lat="45.22113" lon="5.73529">
        <ele>1053.5999755859</ele>
        <time>2021-06-26T08:25:27.000Z</time>
      </trkpt>
      <trkpt lat="45.22113" lon="5.73529">
        <ele>1053.5999755859</ele>
        <time>2021-06-26T08:25:28.000Z</time>
      </trkpt>
      <trkpt lat="45.22112" lon="5.73529">
        <ele>1054.5999755859</ele>
        <time>2021-06-26T08:25:31.000Z</time>
      </trkpt>
      <trkpt lat="45.22111" lon="5.73528">
        <ele>1055</ele>
        <time>2021-06-26T08:25:32.000Z</time>
      </trkpt>
      <trkpt lat="45.22111" lon="5.73527">
        <ele>1055.4000244141</ele>
        <time>2021-06-26T08:25:34.000Z</time>
      </trkpt>
      <trkpt lat="45.2211" lon="5.73528">
        <ele>1057</ele>
        <time>2021-06-26T08:25:38.000Z</time>
      </trkpt>
      <trkpt lat="45.22108" lon="5.73527">
        <ele>1058</ele>
        <time>2021-06-26T08:25:42.000Z</time>
      </trkpt>
      <trkpt lat="45.22107" lon="5.73526">
        <ele>1058.1999511719</ele>
        <time>2021-06-26T08:25:43.000Z</time>
      </trkpt>
      <trkpt lat="45.22107" lon="5.73525">
        <ele>1058.1999511719</ele>
        <time>2021-06-26T08:25:44.000Z</time>
      </trkpt>
      <trkpt lat="45.22106" lon="5.73524">
        <ele>1058.4000244141</ele>
        <time>2021-06-26T08:25:45.000Z</time>
      </trkpt>
      <trkpt lat="45.22104" lon="5.73522">
        <ele>1058.5999755859</ele>
        <time>2021-06-26T08:25:48.000Z</time>
      </trkpt>
      <trkpt lat="45.22103" lon="5.73522">
        <ele>1059.5999755859</ele>
        <time>2021-06-26T08:25:50.000Z</time>
      </trkpt>
      <trkpt lat="45.22102" lon="5.73521">
        <ele>1059.5999755859</ele>
        <time>2021-06-26T08:25:51.000Z</time>
      </trkpt>
      <trkpt lat="45.221" lon="5.73519">
        <ele>1060</ele>
        <time>2021-06-26T08:25:53.000Z</time>
      </trkpt>
      <trkpt lat="45.22098" lon="5.73519">
        <ele>1060.1999511719</ele>
        <time>2021-06-26T08:25:54.000Z</time>
      </trkpt>
      <trkpt lat="45.22095" lon="5.73518">
        <ele>1060.8000488281</ele>
        <time>2021-06-26T08:25:56.000Z</time>
      </trkpt>
      <trkpt lat="45.22091" lon="5.73516">
        <ele>1061.8000488281</ele>
        <time>2021-06-26T08:25:59.000Z</time>
      </trkpt>
      <trkpt lat="45.2209" lon="5.73515">
        <ele>1062.1999511719</ele>
        <time>2021-06-26T08:26:00.000Z</time>
      </trkpt>
      <trkpt lat="45.2208" lon="5.7351">
        <ele>1063</ele>
        <time>2021-06-26T08:26:06.000Z</time>
      </trkpt>
      <trkpt lat="45.22072" lon="5.73506">
        <ele>1064.4000244141</ele>
        <time>2021-06-26T08:26:11.000Z</time>
      </trkpt>
      <trkpt lat="45.22065" lon="5.73501">
        <ele>1064.5999755859</ele>
        <time>2021-06-26T08:26:14.000Z</time>
      </trkpt>
      <trkpt lat="45.22057" lon="5.73494">
        <ele>1065.4000244141</ele>
        <time>2021-06-26T08:26:18.000Z</time>
      </trkpt>
      <trkpt lat="45.22053" lon="5.73492">
        <ele>1065.5999755859</ele>
        <time>2021-06-26T08:26:20.000Z</time>
      </trkpt>
      <trkpt lat="45.22049" lon="5.73487">
        <ele>1066.5999755859</ele>
        <time>2021-06-26T08:26:23.000Z</time>
      </trkpt>
      <trkpt lat="45.22043" lon="5.73482">
        <ele>1067.4000244141</ele>
        <time>2021-06-26T08:26:27.000Z</time>
      </trkpt>
      <trkpt lat="45.2204" lon="5.7348">
        <ele>1068.1999511719</ele>
        <time>2021-06-26T08:26:30.000Z</time>
      </trkpt>
      <trkpt lat="45.22034" lon="5.73476">
        <ele>1069.1999511719</ele>
        <time>2021-06-26T08:26:34.000Z</time>
      </trkpt>
      <trkpt lat="45.22033" lon="5.73475">
        <ele>1069.5999755859</ele>
        <time>2021-06-26T08:26:35.000Z</time>
      </trkpt>
      <trkpt lat="45.22028" lon="5.73472">
        <ele>1070.5999755859</ele>
        <time>2021-06-26T08:26:39.000Z</time>
      </trkpt>
      <trkpt lat="45.22026" lon="5.73465">
        <ele>1070.8000488281</ele>
        <time>2021-06-26T08:26:42.000Z</time>
      </trkpt>
      <trkpt lat="45.22022" lon="5.73459">
        <ele>1072.5999755859</ele>
        <time>2021-06-26T08:26:47.000Z</time>
      </trkpt>
      <trkpt lat="45.22019" lon="5.73457">
        <ele>1072.5999755859</ele>
        <time>2021-06-26T08:26:49.000Z</time>
      </trkpt>
      <trkpt lat="45.2201" lon="5.73449">
        <ele>1073.5999755859</ele>
        <time>2021-06-26T08:26:56.000Z</time>
      </trkpt>
      <trkpt lat="45.22005" lon="5.73447">
        <ele>1074.1999511719</ele>
        <time>2021-06-26T08:26:59.000Z</time>
      </trkpt>
      <trkpt lat="45.22" lon="5.73447">
        <ele>1074.4000244141</ele>
        <time>2021-06-26T08:27:03.000Z</time>
      </trkpt>
      <trkpt lat="45.21989" lon="5.73447">
        <ele>1073.4000244141</ele>
        <time>2021-06-26T08:27:10.000Z</time>
      </trkpt>
      <trkpt lat="45.21986" lon="5.73446">
        <ele>1073</ele>
        <time>2021-06-26T08:27:12.000Z</time>
      </trkpt>
      <trkpt lat="45.2198" lon="5.73443">
        <ele>1071.8000488281</ele>
        <time>2021-06-26T08:27:16.000Z</time>
      </trkpt>
      <trkpt lat="45.21974" lon="5.73438">
        <ele>1070.5999755859</ele>
        <time>2021-06-26T08:27:20.000Z</time>
      </trkpt>
      <trkpt lat="45.21969" lon="5.73436">
        <ele>1070.4000244141</ele>
        <time>2021-06-26T08:27:23.000Z</time>
      </trkpt>
      <trkpt lat="45.21967" lon="5.73435">
        <ele>1070.1999511719</ele>
        <time>2021-06-26T08:27:24.000Z</time>
      </trkpt>
      <trkpt lat="45.21953" lon="5.73436">
        <ele>1069.5999755859</ele>
        <time>2021-06-26T08:27:30.000Z</time>
      </trkpt>
      <trkpt lat="45.21951" lon="5.73436">
        <ele>1069.5999755859</ele>
        <time>2021-06-26T08:27:31.000Z</time>
      </trkpt>
      <trkpt lat="45.21945" lon="5.73433">
        <ele>1068.8000488281</ele>
        <time>2021-06-26T08:27:35.000Z</time>
      </trkpt>
      <trkpt lat="45.21944" lon="5.73432">
        <ele>1068.8000488281</ele>
        <time>2021-06-26T08:27:36.000Z</time>
      </trkpt>
      <trkpt lat="45.21943" lon="5.73431">
        <ele>1068.4000244141</ele>
        <time>2021-06-26T08:27:37.000Z</time>
      </trkpt>
      <trkpt lat="45.21941" lon="5.7343">
        <ele>1068.4000244141</ele>
        <time>2021-06-26T08:27:39.000Z</time>
      </trkpt>
      <trkpt lat="45.21938" lon="5.73425">
        <ele>1067.4000244141</ele>
        <time>2021-06-26T08:27:42.000Z</time>
      </trkpt>
      <trkpt lat="45.21936" lon="5.73422">
        <ele>1067.4000244141</ele>
        <time>2021-06-26T08:27:43.000Z</time>
      </trkpt>
      <trkpt lat="45.21935" lon="5.7342">
        <ele>1067.4000244141</ele>
        <time>2021-06-26T08:27:44.000Z</time>
      </trkpt>
      <trkpt lat="45.21929" lon="5.7341">
        <ele>1066.5999755859</ele>
        <time>2021-06-26T08:27:50.000Z</time>
      </trkpt>
      <trkpt lat="45.21926" lon="5.73407">
        <ele>1066</ele>
        <time>2021-06-26T08:27:52.000Z</time>
      </trkpt>
      <trkpt lat="45.21919" lon="5.73397">
        <ele>1066.4000244141</ele>
        <time>2021-06-26T08:27:56.000Z</time>
      </trkpt>
      <trkpt lat="45.21916" lon="5.73396">
        <ele>1067.1999511719</ele>
        <time>2021-06-26T08:27:59.000Z</time>
      </trkpt>
      <trkpt lat="45.21909" lon="5.73392">
        <ele>1067.1999511719</ele>
        <time>2021-06-26T08:28:03.000Z</time>
      </trkpt>
      <trkpt lat="45.21903" lon="5.73388">
        <ele>1067.4000244141</ele>
        <time>2021-06-26T08:28:06.000Z</time>
      </trkpt>
      <trkpt lat="45.21897" lon="5.73384">
        <ele>1067.1999511719</ele>
        <time>2021-06-26T08:28:11.000Z</time>
      </trkpt>
      <trkpt lat="45.21892" lon="5.7338">
        <ele>1067</ele>
        <time>2021-06-26T08:28:14.000Z</time>
      </trkpt>
      <trkpt lat="45.2189" lon="5.73379">
        <ele>1066.5999755859</ele>
        <time>2021-06-26T08:28:16.000Z</time>
      </trkpt>
      <trkpt lat="45.21888" lon="5.73374">
        <ele>1066.4000244141</ele>
        <time>2021-06-26T08:28:19.000Z</time>
      </trkpt>
      <trkpt lat="45.21882" lon="5.73371">
        <ele>1066.5999755859</ele>
        <time>2021-06-26T08:28:22.000Z</time>
      </trkpt>
      <trkpt lat="45.21872" lon="5.73367">
        <ele>1067.4000244141</ele>
        <time>2021-06-26T08:28:29.000Z</time>
      </trkpt>
      <trkpt lat="45.21869" lon="5.73364">
        <ele>1068.1999511719</ele>
        <time>2021-06-26T08:28:32.000Z</time>
      </trkpt>
      <trkpt lat="45.21863" lon="5.73358">
        <ele>1069.4000244141</ele>
        <time>2021-06-26T08:28:37.000Z</time>
      </trkpt>
      <trkpt lat="45.21861" lon="5.73358">
        <ele>1070</ele>
        <time>2021-06-26T08:28:38.000Z</time>
      </trkpt>
      <trkpt lat="45.21858" lon="5.73356">
        <ele>1070.5999755859</ele>
        <time>2021-06-26T08:28:40.000Z</time>
      </trkpt>
      <trkpt lat="45.21852" lon="5.73353">
        <ele>1071.5999755859</ele>
        <time>2021-06-26T08:28:45.000Z</time>
      </trkpt>
      <trkpt lat="45.2185" lon="5.73351">
        <ele>1073</ele>
        <time>2021-06-26T08:28:47.000Z</time>
      </trkpt>
      <trkpt lat="45.21843" lon="5.73346">
        <ele>1073.5999755859</ele>
        <time>2021-06-26T08:28:53.000Z</time>
      </trkpt>
      <trkpt lat="45.21842" lon="5.73345">
        <ele>1073.8000488281</ele>
        <time>2021-06-26T08:28:54.000Z</time>
      </trkpt>
      <trkpt lat="45.21833" lon="5.73337">
        <ele>1073.4000244141</ele>
        <time>2021-06-26T08:28:59.000Z</time>
      </trkpt>
      <trkpt lat="45.21828" lon="5.73332">
        <ele>1073</ele>
        <time>2021-06-26T08:29:03.000Z</time>
      </trkpt>
      <trkpt lat="45.21825" lon="5.73328">
        <ele>1072.1999511719</ele>
        <time>2021-06-26T08:29:06.000Z</time>
      </trkpt>
      <trkpt lat="45.21824" lon="5.73327">
        <ele>1072</ele>
        <time>2021-06-26T08:29:07.000Z</time>
      </trkpt>
      <trkpt lat="45.21822" lon="5.73324">
        <ele>1070.8000488281</ele>
        <time>2021-06-26T08:29:10.000Z</time>
      </trkpt>
      <trkpt lat="45.2182" lon="5.73321">
        <ele>1070</ele>
        <time>2021-06-26T08:29:13.000Z</time>
      </trkpt>
      <trkpt lat="45.21819" lon="5.73319">
        <ele>1069.5999755859</ele>
        <time>2021-06-26T08:29:15.000Z</time>
      </trkpt>
      <trkpt lat="45.21814" lon="5.73316">
        <ele>1068.5999755859</ele>
        <time>2021-06-26T08:29:18.000Z</time>
      </trkpt>
      <trkpt lat="45.21812" lon="5.73315">
        <ele>1068.5999755859</ele>
        <time>2021-06-26T08:29:19.000Z</time>
      </trkpt>
      <trkpt lat="45.21808" lon="5.73307">
        <ele>1067.5999755859</ele>
        <time>2021-06-26T08:29:23.000Z</time>
      </trkpt>
      <trkpt lat="45.21805" lon="5.73304">
        <ele>1067.4000244141</ele>
        <time>2021-06-26T08:29:25.000Z</time>
      </trkpt>
      <trkpt lat="45.21803" lon="5.73303">
        <ele>1067</ele>
        <time>2021-06-26T08:29:26.000Z</time>
      </trkpt>
      <trkpt lat="45.218" lon="5.73301">
        <ele>1066.4000244141</ele>
        <time>2021-06-26T08:29:28.000Z</time>
      </trkpt>
      <trkpt lat="45.21798" lon="5.73299">
        <ele>1066.1999511719</ele>
        <time>2021-06-26T08:29:29.000Z</time>
      </trkpt>
      <trkpt lat="45.21795" lon="5.73294">
        <ele>1065.8000488281</ele>
        <time>2021-06-26T08:29:32.000Z</time>
      </trkpt>
      <trkpt lat="45.21791" lon="5.73291">
        <ele>1065.5999755859</ele>
        <time>2021-06-26T08:29:34.000Z</time>
      </trkpt>
      <trkpt lat="45.2179" lon="5.7329">
        <ele>1064.5999755859</ele>
        <time>2021-06-26T08:29:35.000Z</time>
      </trkpt>
      <trkpt lat="45.21785" lon="5.73282">
        <ele>1063.1999511719</ele>
        <time>2021-06-26T08:29:41.000Z</time>
      </trkpt>
      <trkpt lat="45.2178" lon="5.73278">
        <ele>1062</ele>
        <time>2021-06-26T08:29:46.000Z</time>
      </trkpt>
      <trkpt lat="45.21779" lon="5.73277">
        <ele>1062</ele>
        <time>2021-06-26T08:29:47.000Z</time>
      </trkpt>
      <trkpt lat="45.21781" lon="5.73271">
        <ele>1061.4000244141</ele>
        <time>2021-06-26T08:29:51.000Z</time>
      </trkpt>
      <trkpt lat="45.21782" lon="5.73269">
        <ele>1061</ele>
        <time>2021-06-26T08:29:52.000Z</time>
      </trkpt>
      <trkpt lat="45.21782" lon="5.73268">
        <ele>1060.8000488281</ele>
        <time>2021-06-26T08:29:53.000Z</time>
      </trkpt>
      <trkpt lat="45.21781" lon="5.73264">
        <ele>1060.1999511719</ele>
        <time>2021-06-26T08:29:56.000Z</time>
      </trkpt>
      <trkpt lat="45.21781" lon="5.73263">
        <ele>1059.8000488281</ele>
        <time>2021-06-26T08:29:57.000Z</time>
      </trkpt>
      <trkpt lat="45.21779" lon="5.7326">
        <ele>1059.1999511719</ele>
        <time>2021-06-26T08:29:59.000Z</time>
      </trkpt>
      <trkpt lat="45.21777" lon="5.73255">
        <ele>1058.5999755859</ele>
        <time>2021-06-26T08:30:01.000Z</time>
      </trkpt>
      <trkpt lat="45.21777" lon="5.73253">
        <ele>1057.8000488281</ele>
        <time>2021-06-26T08:30:02.000Z</time>
      </trkpt>
      <trkpt lat="45.21777" lon="5.73251">
        <ele>1057.5999755859</ele>
        <time>2021-06-26T08:30:03.000Z</time>
      </trkpt>
      <trkpt lat="45.21773" lon="5.73244">
        <ele>1057</ele>
        <time>2021-06-26T08:30:09.000Z</time>
      </trkpt>
      <trkpt lat="45.21764" lon="5.73235">
        <ele>1056.5999755859</ele>
        <time>2021-06-26T08:30:16.000Z</time>
      </trkpt>
      <trkpt lat="45.21763" lon="5.73233">
        <ele>1056.5999755859</ele>
        <time>2021-06-26T08:30:18.000Z</time>
      </trkpt>
      <trkpt lat="45.2176" lon="5.7323">
        <ele>1055.5999755859</ele>
        <time>2021-06-26T08:30:24.000Z</time>
      </trkpt>
      <trkpt lat="45.2176" lon="5.73227">
        <ele>1055</ele>
        <time>2021-06-26T08:30:26.000Z</time>
      </trkpt>
      <trkpt lat="45.21759" lon="5.73226">
        <ele>1054.4000244141</ele>
        <time>2021-06-26T08:30:27.000Z</time>
      </trkpt>
      <trkpt lat="45.21759" lon="5.73224">
        <ele>1054</ele>
        <time>2021-06-26T08:30:29.000Z</time>
      </trkpt>
      <trkpt lat="45.21757" lon="5.73222">
        <ele>1054</ele>
        <time>2021-06-26T08:30:30.000Z</time>
      </trkpt>
      <trkpt lat="45.21755" lon="5.73218">
        <ele>1053.4000244141</ele>
        <time>2021-06-26T08:30:32.000Z</time>
      </trkpt>
      <trkpt lat="45.21753" lon="5.73215">
        <ele>1052.5999755859</ele>
        <time>2021-06-26T08:30:34.000Z</time>
      </trkpt>
      <trkpt lat="45.21751" lon="5.73214">
        <ele>1052.5999755859</ele>
        <time>2021-06-26T08:30:35.000Z</time>
      </trkpt>
      <trkpt lat="45.21749" lon="5.73211">
        <ele>1053</ele>
        <time>2021-06-26T08:30:37.000Z</time>
      </trkpt>
      <trkpt lat="45.21746" lon="5.7321">
        <ele>1053.5999755859</ele>
        <time>2021-06-26T08:30:40.000Z</time>
      </trkpt>
      <trkpt lat="45.21745" lon="5.73212">
        <ele>1053.8000488281</ele>
        <time>2021-06-26T08:30:42.000Z</time>
      </trkpt>
      <trkpt lat="45.21738" lon="5.73214">
        <ele>1054</ele>
        <time>2021-06-26T08:30:47.000Z</time>
      </trkpt>
      <trkpt lat="45.21737" lon="5.73216">
        <ele>1054</ele>
        <time>2021-06-26T08:30:48.000Z</time>
      </trkpt>
      <trkpt lat="45.21733" lon="5.73217">
        <ele>1053.5999755859</ele>
        <time>2021-06-26T08:30:52.000Z</time>
      </trkpt>
      <trkpt lat="45.21732" lon="5.73217">
        <ele>1053.4000244141</ele>
        <time>2021-06-26T08:30:53.000Z</time>
      </trkpt>
      <trkpt lat="45.21731" lon="5.73217">
        <ele>1052.4000244141</ele>
        <time>2021-06-26T08:30:57.000Z</time>
      </trkpt>
      <trkpt lat="45.2173" lon="5.73218">
        <ele>1052</ele>
        <time>2021-06-26T08:30:59.000Z</time>
      </trkpt>
      <trkpt lat="45.21727" lon="5.73219">
        <ele>1051.1999511719</ele>
        <time>2021-06-26T08:31:02.000Z</time>
      </trkpt>
      <trkpt lat="45.21727" lon="5.7322">
        <ele>1050.5999755859</ele>
        <time>2021-06-26T08:31:03.000Z</time>
      </trkpt>
      <trkpt lat="45.21724" lon="5.73221">
        <ele>1050.4000244141</ele>
        <time>2021-06-26T08:31:06.000Z</time>
      </trkpt>
      <trkpt lat="45.21723" lon="5.7322">
        <ele>1050.4000244141</ele>
        <time>2021-06-26T08:31:07.000Z</time>
      </trkpt>
      <trkpt lat="45.21721" lon="5.73219">
        <ele>1050.1999511719</ele>
        <time>2021-06-26T08:31:08.000Z</time>
      </trkpt>
      <trkpt lat="45.21717" lon="5.73216">
        <ele>1048.8000488281</ele>
        <time>2021-06-26T08:31:10.000Z</time>
      </trkpt>
      <trkpt lat="45.21715" lon="5.73215">
        <ele>1048.1999511719</ele>
        <time>2021-06-26T08:31:11.000Z</time>
      </trkpt>
      <trkpt lat="45.21706" lon="5.73205">
        <ele>1047.8000488281</ele>
        <time>2021-06-26T08:31:17.000Z</time>
      </trkpt>
      <trkpt lat="45.21704" lon="5.73202">
        <ele>1047.8000488281</ele>
        <time>2021-06-26T08:31:18.000Z</time>
      </trkpt>
      <trkpt lat="45.21698" lon="5.73194">
        <ele>1047.1999511719</ele>
        <time>2021-06-26T08:31:21.000Z</time>
      </trkpt>
      <trkpt lat="45.21695" lon="5.7319">
        <ele>1047</ele>
        <time>2021-06-26T08:31:23.000Z</time>
      </trkpt>
      <trkpt lat="45.21693" lon="5.73186">
        <ele>1046.5999755859</ele>
        <time>2021-06-26T08:31:25.000Z</time>
      </trkpt>
      <trkpt lat="45.2169" lon="5.7318">
        <ele>1046.1999511719</ele>
        <time>2021-06-26T08:31:29.000Z</time>
      </trkpt>
      <trkpt lat="45.21689" lon="5.73179">
        <ele>1045.8000488281</ele>
        <time>2021-06-26T08:31:30.000Z</time>
      </trkpt>
      <trkpt lat="45.21688" lon="5.73178">
        <ele>1045.4000244141</ele>
        <time>2021-06-26T08:31:31.000Z</time>
      </trkpt>
      <trkpt lat="45.21684" lon="5.73175">
        <ele>1044.1999511719</ele>
        <time>2021-06-26T08:31:34.000Z</time>
      </trkpt>
      <trkpt lat="45.21683" lon="5.73172">
        <ele>1043.1999511719</ele>
        <time>2021-06-26T08:31:36.000Z</time>
      </trkpt>
      <trkpt lat="45.21683" lon="5.73171">
        <ele>1043.1999511719</ele>
        <time>2021-06-26T08:31:37.000Z</time>
      </trkpt>
      <trkpt lat="45.2168" lon="5.73168">
        <ele>1042.1999511719</ele>
        <time>2021-06-26T08:31:41.000Z</time>
      </trkpt>
      <trkpt lat="45.21677" lon="5.73163">
        <ele>1040.8000488281</ele>
        <time>2021-06-26T08:31:45.000Z</time>
      </trkpt>
      <trkpt lat="45.21674" lon="5.73156">
        <ele>1039.4000244141</ele>
        <time>2021-06-26T08:31:49.000Z</time>
      </trkpt>
      <trkpt lat="45.21673" lon="5.73152">
        <ele>1038.1999511719</ele>
        <time>2021-06-26T08:31:52.000Z</time>
      </trkpt>
      <trkpt lat="45.21673" lon="5.7315">
        <ele>1037.8000488281</ele>
        <time>2021-06-26T08:31:53.000Z</time>
      </trkpt>
      <trkpt lat="45.21673" lon="5.73148">
        <ele>1037.4000244141</ele>
        <time>2021-06-26T08:31:55.000Z</time>
      </trkpt>
      <trkpt lat="45.21673" lon="5.73147">
        <ele>1036.4000244141</ele>
        <time>2021-06-26T08:31:56.000Z</time>
      </trkpt>
      <trkpt lat="45.2167" lon="5.73146">
        <ele>1035.4000244141</ele>
        <time>2021-06-26T08:32:00.000Z</time>
      </trkpt>
      <trkpt lat="45.21669" lon="5.73145">
        <ele>1034.4000244141</ele>
        <time>2021-06-26T08:32:01.000Z</time>
      </trkpt>
      <trkpt lat="45.21667" lon="5.73145">
        <ele>1034</ele>
        <time>2021-06-26T08:32:02.000Z</time>
      </trkpt>
      <trkpt lat="45.21664" lon="5.73142">
        <ele>1032.5999755859</ele>
        <time>2021-06-26T08:32:05.000Z</time>
      </trkpt>
      <trkpt lat="45.21663" lon="5.73141">
        <ele>1032.1999511719</ele>
        <time>2021-06-26T08:32:06.000Z</time>
      </trkpt>
      <trkpt lat="45.21657" lon="5.7314">
        <ele>1030.1999511719</ele>
        <time>2021-06-26T08:32:11.000Z</time>
      </trkpt>
      <trkpt lat="45.21654" lon="5.73139">
        <ele>1029.4000244141</ele>
        <time>2021-06-26T08:32:13.000Z</time>
      </trkpt>
      <trkpt lat="45.21652" lon="5.73138">
        <ele>1029.1999511719</ele>
        <time>2021-06-26T08:32:14.000Z</time>
      </trkpt>
      <trkpt lat="45.21645" lon="5.73136">
        <ele>1027.8000488281</ele>
        <time>2021-06-26T08:32:17.000Z</time>
      </trkpt>
      <trkpt lat="45.2164" lon="5.73137">
        <ele>1026.8000488281</ele>
        <time>2021-06-26T08:32:20.000Z</time>
      </trkpt>
      <trkpt lat="45.21638" lon="5.73138">
        <ele>1026.5999755859</ele>
        <time>2021-06-26T08:32:21.000Z</time>
      </trkpt>
      <trkpt lat="45.21634" lon="5.7314">
        <ele>1025.1999511719</ele>
        <time>2021-06-26T08:32:24.000Z</time>
      </trkpt>
      <trkpt lat="45.2163" lon="5.7314">
        <ele>1023.799987793</ele>
        <time>2021-06-26T08:32:26.000Z</time>
      </trkpt>
      <trkpt lat="45.21625" lon="5.73141">
        <ele>1023.4000244141</ele>
        <time>2021-06-26T08:32:28.000Z</time>
      </trkpt>
      <trkpt lat="45.21622" lon="5.7314">
        <ele>1022</ele>
        <time>2021-06-26T08:32:30.000Z</time>
      </trkpt>
      <trkpt lat="45.21614" lon="5.73136">
        <ele>1021</ele>
        <time>2021-06-26T08:32:34.000Z</time>
      </trkpt>
      <trkpt lat="45.21612" lon="5.73134">
        <ele>1021</ele>
        <time>2021-06-26T08:32:35.000Z</time>
      </trkpt>
      <trkpt lat="45.2161" lon="5.73133">
        <ele>1019.799987793</ele>
        <time>2021-06-26T08:32:36.000Z</time>
      </trkpt>
      <trkpt lat="45.21603" lon="5.7313">
        <ele>1018.200012207</ele>
        <time>2021-06-26T08:32:39.000Z</time>
      </trkpt>
      <trkpt lat="45.21594" lon="5.73125">
        <ele>1017</ele>
        <time>2021-06-26T08:32:43.000Z</time>
      </trkpt>
      <trkpt lat="45.2159" lon="5.73122">
        <ele>1016.200012207</ele>
        <time>2021-06-26T08:32:45.000Z</time>
      </trkpt>
      <trkpt lat="45.21588" lon="5.73122">
        <ele>1016</ele>
        <time>2021-06-26T08:32:46.000Z</time>
      </trkpt>
      <trkpt lat="45.21586" lon="5.73123">
        <ele>1014.5999755859</ele>
        <time>2021-06-26T08:32:48.000Z</time>
      </trkpt>
      <trkpt lat="45.21585" lon="5.73124">
        <ele>1014.4000244141</ele>
        <time>2021-06-26T08:32:49.000Z</time>
      </trkpt>
      <trkpt lat="45.21583" lon="5.73126">
        <ele>1013.4000244141</ele>
        <time>2021-06-26T08:32:51.000Z</time>
      </trkpt>
      <trkpt lat="45.21581" lon="5.73128">
        <ele>1012.5999755859</ele>
        <time>2021-06-26T08:32:54.000Z</time>
      </trkpt>
      <trkpt lat="45.2158" lon="5.73129">
        <ele>1012.200012207</ele>
        <time>2021-06-26T08:32:55.000Z</time>
      </trkpt>
      <trkpt lat="45.21583" lon="5.73132">
        <ele>1011</ele>
        <time>2021-06-26T08:32:58.000Z</time>
      </trkpt>
      <trkpt lat="45.21582" lon="5.73134">
        <ele>1010.799987793</ele>
        <time>2021-06-26T08:33:00.000Z</time>
      </trkpt>
      <trkpt lat="45.21583" lon="5.73138">
        <ele>1009.799987793</ele>
        <time>2021-06-26T08:33:03.000Z</time>
      </trkpt>
      <trkpt lat="45.21581" lon="5.73139">
        <ele>1008.5999755859</ele>
        <time>2021-06-26T08:33:05.000Z</time>
      </trkpt>
      <trkpt lat="45.21581" lon="5.73139">
        <ele>1008.5999755859</ele>
        <time>2021-06-26T08:33:06.000Z</time>
      </trkpt>
      <trkpt lat="45.21581" lon="5.7314">
        <ele>1008</ele>
        <time>2021-06-26T08:33:07.000Z</time>
      </trkpt>
      <trkpt lat="45.2158" lon="5.7314">
        <ele>1008</ele>
        <time>2021-06-26T08:33:08.000Z</time>
      </trkpt>
      <trkpt lat="45.2158" lon="5.73141">
        <ele>1007.200012207</ele>
        <time>2021-06-26T08:33:09.000Z</time>
      </trkpt>
      <trkpt lat="45.21578" lon="5.73143">
        <ele>1006.200012207</ele>
        <time>2021-06-26T08:33:12.000Z</time>
      </trkpt>
      <trkpt lat="45.21576" lon="5.73147">
        <ele>1005</ele>
        <time>2021-06-26T08:33:15.000Z</time>
      </trkpt>
      <trkpt lat="45.21576" lon="5.73148">
        <ele>1004.799987793</ele>
        <time>2021-06-26T08:33:16.000Z</time>
      </trkpt>
      <trkpt lat="45.21576" lon="5.73148">
        <ele>1004.5999755859</ele>
        <time>2021-06-26T08:33:17.000Z</time>
      </trkpt>
      <trkpt lat="45.21576" lon="5.73149">
        <ele>1003.799987793</ele>
        <time>2021-06-26T08:33:18.000Z</time>
      </trkpt>
      <trkpt lat="45.21576" lon="5.73151">
        <ele>1003.200012207</ele>
        <time>2021-06-26T08:33:19.000Z</time>
      </trkpt>
      <trkpt lat="45.21576" lon="5.73154">
        <ele>1003</ele>
        <time>2021-06-26T08:33:21.000Z</time>
      </trkpt>
      <trkpt lat="45.21575" lon="5.73155">
        <ele>1002.5999755859</ele>
        <time>2021-06-26T08:33:22.000Z</time>
      </trkpt>
      <trkpt lat="45.21575" lon="5.73156">
        <ele>1001.4000244141</ele>
        <time>2021-06-26T08:33:23.000Z</time>
      </trkpt>
      <trkpt lat="45.21573" lon="5.73157">
        <ele>1001.200012207</ele>
        <time>2021-06-26T08:33:25.000Z</time>
      </trkpt>
      <trkpt lat="45.21573" lon="5.73159">
        <ele>1000.5999755859</ele>
        <time>2021-06-26T08:33:28.000Z</time>
      </trkpt>
      <trkpt lat="45.21572" lon="5.73161">
        <ele>1000.4000244141</ele>
        <time>2021-06-26T08:33:30.000Z</time>
      </trkpt>
      <trkpt lat="45.21571" lon="5.73163">
        <ele>998.59997558594</ele>
        <time>2021-06-26T08:33:31.000Z</time>
      </trkpt>
      <trkpt lat="45.21571" lon="5.73168">
        <ele>997.40002441406</ele>
        <time>2021-06-26T08:33:34.000Z</time>
      </trkpt>
      <trkpt lat="45.21571" lon="5.73172">
        <ele>996.79998779297</ele>
        <time>2021-06-26T08:33:38.000Z</time>
      </trkpt>
      <trkpt lat="45.21571" lon="5.73174">
        <ele>996.20001220703</ele>
        <time>2021-06-26T08:33:39.000Z</time>
      </trkpt>
      <trkpt lat="45.21572" lon="5.73175">
        <ele>996</ele>
        <time>2021-06-26T08:33:40.000Z</time>
      </trkpt>
      <trkpt lat="45.21572" lon="5.73176">
        <ele>994</ele>
        <time>2021-06-26T08:33:41.000Z</time>
      </trkpt>
      <trkpt lat="45.21574" lon="5.73179">
        <ele>993.40002441406</ele>
        <time>2021-06-26T08:33:44.000Z</time>
      </trkpt>
      <trkpt lat="45.21575" lon="5.73181">
        <ele>993.20001220703</ele>
        <time>2021-06-26T08:33:45.000Z</time>
      </trkpt>
      <trkpt lat="45.21575" lon="5.73182">
        <ele>992.79998779297</ele>
        <time>2021-06-26T08:33:46.000Z</time>
      </trkpt>
      <trkpt lat="45.21577" lon="5.73186">
        <ele>992.59997558594</ele>
        <time>2021-06-26T08:33:48.000Z</time>
      </trkpt>
      <trkpt lat="45.21579" lon="5.73189">
        <ele>992</ele>
        <time>2021-06-26T08:33:50.000Z</time>
      </trkpt>
      <trkpt lat="45.21581" lon="5.73191">
        <ele>991.40002441406</ele>
        <time>2021-06-26T08:33:51.000Z</time>
      </trkpt>
      <trkpt lat="45.21588" lon="5.73198">
        <ele>990.59997558594</ele>
        <time>2021-06-26T08:33:54.000Z</time>
      </trkpt>
      <trkpt lat="45.2159" lon="5.73199">
        <ele>990</ele>
        <time>2021-06-26T08:33:55.000Z</time>
      </trkpt>
      <trkpt lat="45.21591" lon="5.73201">
        <ele>989.59997558594</ele>
        <time>2021-06-26T08:33:56.000Z</time>
      </trkpt>
      <trkpt lat="45.21596" lon="5.7321">
        <ele>988.59997558594</ele>
        <time>2021-06-26T08:34:00.000Z</time>
      </trkpt>
      <trkpt lat="45.21597" lon="5.73212">
        <ele>988.40002441406</ele>
        <time>2021-06-26T08:34:01.000Z</time>
      </trkpt>
      <trkpt lat="45.21603" lon="5.73221">
        <ele>987</ele>
        <time>2021-06-26T08:34:05.000Z</time>
      </trkpt>
      <trkpt lat="45.21604" lon="5.73226">
        <ele>986.20001220703</ele>
        <time>2021-06-26T08:34:08.000Z</time>
      </trkpt>
      <trkpt lat="45.21606" lon="5.7323">
        <ele>985</ele>
        <time>2021-06-26T08:34:10.000Z</time>
      </trkpt>
      <trkpt lat="45.21607" lon="5.7323">
        <ele>984.20001220703</ele>
        <time>2021-06-26T08:34:11.000Z</time>
      </trkpt>
      <trkpt lat="45.2161" lon="5.73234">
        <ele>983.79998779297</ele>
        <time>2021-06-26T08:34:14.000Z</time>
      </trkpt>
      <trkpt lat="45.21612" lon="5.7324">
        <ele>982.20001220703</ele>
        <time>2021-06-26T08:34:17.000Z</time>
      </trkpt>
      <trkpt lat="45.21614" lon="5.73245">
        <ele>981</ele>
        <time>2021-06-26T08:34:20.000Z</time>
      </trkpt>
      <trkpt lat="45.21615" lon="5.73246">
        <ele>980.59997558594</ele>
        <time>2021-06-26T08:34:21.000Z</time>
      </trkpt>
      <trkpt lat="45.2162" lon="5.73253">
        <ele>979.79998779297</ele>
        <time>2021-06-26T08:34:25.000Z</time>
      </trkpt>
      <trkpt lat="45.21623" lon="5.73257">
        <ele>978.79998779297</ele>
        <time>2021-06-26T08:34:27.000Z</time>
      </trkpt>
      <trkpt lat="45.21624" lon="5.7326">
        <ele>978.59997558594</ele>
        <time>2021-06-26T08:34:28.000Z</time>
      </trkpt>
      <trkpt lat="45.2163" lon="5.73268">
        <ele>977.59997558594</ele>
        <time>2021-06-26T08:34:31.000Z</time>
      </trkpt>
      <trkpt lat="45.21633" lon="5.73271">
        <ele>977.20001220703</ele>
        <time>2021-06-26T08:34:33.000Z</time>
      </trkpt>
      <trkpt lat="45.21635" lon="5.73274">
        <ele>976.20001220703</ele>
        <time>2021-06-26T08:34:34.000Z</time>
      </trkpt>
      <trkpt lat="45.21639" lon="5.73283">
        <ele>975.40002441406</ele>
        <time>2021-06-26T08:34:37.000Z</time>
      </trkpt>
      <trkpt lat="45.2164" lon="5.73288">
        <ele>974.79998779297</ele>
        <time>2021-06-26T08:34:39.000Z</time>
      </trkpt>
      <trkpt lat="45.21641" lon="5.73291">
        <ele>974.40002441406</ele>
        <time>2021-06-26T08:34:40.000Z</time>
      </trkpt>
      <trkpt lat="45.21642" lon="5.73296">
        <ele>973.79998779297</ele>
        <time>2021-06-26T08:34:42.000Z</time>
      </trkpt>
      <trkpt lat="45.21643" lon="5.73304">
        <ele>972.40002441406</ele>
        <time>2021-06-26T08:34:45.000Z</time>
      </trkpt>
      <trkpt lat="45.21645" lon="5.73308">
        <ele>971.79998779297</ele>
        <time>2021-06-26T08:34:47.000Z</time>
      </trkpt>
      <trkpt lat="45.21645" lon="5.7331">
        <ele>971.40002441406</ele>
        <time>2021-06-26T08:34:48.000Z</time>
      </trkpt>
      <trkpt lat="45.21647" lon="5.73317">
        <ele>970.20001220703</ele>
        <time>2021-06-26T08:34:51.000Z</time>
      </trkpt>
      <trkpt lat="45.21649" lon="5.7332">
        <ele>969.59997558594</ele>
        <time>2021-06-26T08:34:53.000Z</time>
      </trkpt>
      <trkpt lat="45.2165" lon="5.73323">
        <ele>969</ele>
        <time>2021-06-26T08:34:55.000Z</time>
      </trkpt>
      <trkpt lat="45.21651" lon="5.73326">
        <ele>968.40002441406</ele>
        <time>2021-06-26T08:34:58.000Z</time>
      </trkpt>
      <trkpt lat="45.21651" lon="5.73328">
        <ele>968.20001220703</ele>
        <time>2021-06-26T08:34:59.000Z</time>
      </trkpt>
      <trkpt lat="45.21651" lon="5.7333">
        <ele>967.40002441406</ele>
        <time>2021-06-26T08:35:00.000Z</time>
      </trkpt>
      <trkpt lat="45.2165" lon="5.73332">
        <ele>966</ele>
        <time>2021-06-26T08:35:01.000Z</time>
      </trkpt>
      <trkpt lat="45.21647" lon="5.73332">
        <ele>965.79998779297</ele>
        <time>2021-06-26T08:35:03.000Z</time>
      </trkpt>
      <trkpt lat="45.21641" lon="5.73326">
        <ele>964.40002441406</ele>
        <time>2021-06-26T08:35:08.000Z</time>
      </trkpt>
      <trkpt lat="45.21639" lon="5.73325">
        <ele>964.20001220703</ele>
        <time>2021-06-26T08:35:09.000Z</time>
      </trkpt>
      <trkpt lat="45.21633" lon="5.7332">
        <ele>963.20001220703</ele>
        <time>2021-06-26T08:35:13.000Z</time>
      </trkpt>
      <trkpt lat="45.21629" lon="5.73318">
        <ele>962.20001220703</ele>
        <time>2021-06-26T08:35:16.000Z</time>
      </trkpt>
      <trkpt lat="45.21628" lon="5.73316">
        <ele>962.20001220703</ele>
        <time>2021-06-26T08:35:17.000Z</time>
      </trkpt>
      <trkpt lat="45.2162" lon="5.73309">
        <ele>961.40002441406</ele>
        <time>2021-06-26T08:35:21.000Z</time>
      </trkpt>
      <trkpt lat="45.21617" lon="5.73306">
        <ele>960.59997558594</ele>
        <time>2021-06-26T08:35:23.000Z</time>
      </trkpt>
      <trkpt lat="45.21611" lon="5.73302">
        <ele>959.20001220703</ele>
        <time>2021-06-26T08:35:27.000Z</time>
      </trkpt>
      <trkpt lat="45.21609" lon="5.73301">
        <ele>959.20001220703</ele>
        <time>2021-06-26T08:35:28.000Z</time>
      </trkpt>
      <trkpt lat="45.21604" lon="5.73298">
        <ele>958</ele>
        <time>2021-06-26T08:35:31.000Z</time>
      </trkpt>
      <trkpt lat="45.21598" lon="5.73296">
        <ele>956.79998779297</ele>
        <time>2021-06-26T08:35:35.000Z</time>
      </trkpt>
      <trkpt lat="45.21591" lon="5.73292">
        <ele>955.79998779297</ele>
        <time>2021-06-26T08:35:40.000Z</time>
      </trkpt>
      <trkpt lat="45.21582" lon="5.73289">
        <ele>954.79998779297</ele>
        <time>2021-06-26T08:35:45.000Z</time>
      </trkpt>
      <trkpt lat="45.21581" lon="5.73288">
        <ele>954.40002441406</ele>
        <time>2021-06-26T08:35:46.000Z</time>
      </trkpt>
      <trkpt lat="45.21578" lon="5.73285">
        <ele>953.40002441406</ele>
        <time>2021-06-26T08:35:48.000Z</time>
      </trkpt>
      <trkpt lat="45.21577" lon="5.73283">
        <ele>953</ele>
        <time>2021-06-26T08:35:50.000Z</time>
      </trkpt>
      <trkpt lat="45.21574" lon="5.73282">
        <ele>952.59997558594</ele>
        <time>2021-06-26T08:35:52.000Z</time>
      </trkpt>
      <trkpt lat="45.21571" lon="5.73283">
        <ele>951</ele>
        <time>2021-06-26T08:35:54.000Z</time>
      </trkpt>
      <trkpt lat="45.21566" lon="5.7328">
        <ele>950.20001220703</ele>
        <time>2021-06-26T08:35:58.000Z</time>
      </trkpt>
      <trkpt lat="45.21564" lon="5.73281">
        <ele>949.79998779297</ele>
        <time>2021-06-26T08:36:00.000Z</time>
      </trkpt>
      <trkpt lat="45.21562" lon="5.73281">
        <ele>948.79998779297</ele>
        <time>2021-06-26T08:36:02.000Z</time>
      </trkpt>
      <trkpt lat="45.21557" lon="5.73279">
        <ele>948</ele>
        <time>2021-06-26T08:36:05.000Z</time>
      </trkpt>
      <trkpt lat="45.21555" lon="5.7328">
        <ele>947</ele>
        <time>2021-06-26T08:36:06.000Z</time>
      </trkpt>
      <trkpt lat="45.21549" lon="5.73282">
        <ele>946</ele>
        <time>2021-06-26T08:36:10.000Z</time>
      </trkpt>
      <trkpt lat="45.21545" lon="5.73281">
        <ele>945</ele>
        <time>2021-06-26T08:36:12.000Z</time>
      </trkpt>
      <trkpt lat="45.21541" lon="5.73279">
        <ele>943.59997558594</ele>
        <time>2021-06-26T08:36:14.000Z</time>
      </trkpt>
      <trkpt lat="45.21539" lon="5.7328">
        <ele>942.59997558594</ele>
        <time>2021-06-26T08:36:16.000Z</time>
      </trkpt>
      <trkpt lat="45.21539" lon="5.73279">
        <ele>942.40002441406</ele>
        <time>2021-06-26T08:36:17.000Z</time>
      </trkpt>
      <trkpt lat="45.21541" lon="5.73282">
        <ele>941.20001220703</ele>
        <time>2021-06-26T08:36:21.000Z</time>
      </trkpt>
      <trkpt lat="45.21542" lon="5.73285">
        <ele>941</ele>
        <time>2021-06-26T08:36:23.000Z</time>
      </trkpt>
      <trkpt lat="45.21542" lon="5.73288">
        <ele>939.59997558594</ele>
        <time>2021-06-26T08:36:26.000Z</time>
      </trkpt>
      <trkpt lat="45.21543" lon="5.7329">
        <ele>937.59997558594</ele>
        <time>2021-06-26T08:36:28.000Z</time>
      </trkpt>
      <trkpt lat="45.21547" lon="5.73293">
        <ele>936.79998779297</ele>
        <time>2021-06-26T08:36:31.000Z</time>
      </trkpt>
      <trkpt lat="45.21548" lon="5.73295">
        <ele>936.59997558594</ele>
        <time>2021-06-26T08:36:32.000Z</time>
      </trkpt>
      <trkpt lat="45.21549" lon="5.73296">
        <ele>936.59997558594</ele>
        <time>2021-06-26T08:36:33.000Z</time>
      </trkpt>
      <trkpt lat="45.2155" lon="5.73297">
        <ele>936.59997558594</ele>
        <time>2021-06-26T08:36:34.000Z</time>
      </trkpt>
      <trkpt lat="45.21551" lon="5.73298">
        <ele>935.59997558594</ele>
        <time>2021-06-26T08:36:35.000Z</time>
      </trkpt>
      <trkpt lat="45.21552" lon="5.73297">
        <ele>934.20001220703</ele>
        <time>2021-06-26T08:36:36.000Z</time>
      </trkpt>
      <trkpt lat="45.21552" lon="5.733">
        <ele>933.40002441406</ele>
        <time>2021-06-26T08:36:40.000Z</time>
      </trkpt>
      <trkpt lat="45.21553" lon="5.733">
        <ele>932.79998779297</ele>
        <time>2021-06-26T08:36:41.000Z</time>
      </trkpt>
      <trkpt lat="45.21554" lon="5.733">
        <ele>932.79998779297</ele>
        <time>2021-06-26T08:36:42.000Z</time>
      </trkpt>
      <trkpt lat="45.21557" lon="5.73302">
        <ele>931.59997558594</ele>
        <time>2021-06-26T08:36:45.000Z</time>
      </trkpt>
      <trkpt lat="45.2156" lon="5.73307">
        <ele>930.20001220703</ele>
        <time>2021-06-26T08:36:48.000Z</time>
      </trkpt>
      <trkpt lat="45.21561" lon="5.73308">
        <ele>930.20001220703</ele>
        <time>2021-06-26T08:36:49.000Z</time>
      </trkpt>
      <trkpt lat="45.21562" lon="5.7331">
        <ele>928.59997558594</ele>
        <time>2021-06-26T08:36:51.000Z</time>
      </trkpt>
      <trkpt lat="45.21563" lon="5.73313">
        <ele>927.79998779297</ele>
        <time>2021-06-26T08:36:53.000Z</time>
      </trkpt>
      <trkpt lat="45.21564" lon="5.73314">
        <ele>927.59997558594</ele>
        <time>2021-06-26T08:36:54.000Z</time>
      </trkpt>
      <trkpt lat="45.21565" lon="5.73315">
        <ele>927.40002441406</ele>
        <time>2021-06-26T08:36:55.000Z</time>
      </trkpt>
      <trkpt lat="45.21567" lon="5.73317">
        <ele>927.20001220703</ele>
        <time>2021-06-26T08:36:57.000Z</time>
      </trkpt>
      <trkpt lat="45.21568" lon="5.73318">
        <ele>927</ele>
        <time>2021-06-26T08:36:58.000Z</time>
      </trkpt>
      <trkpt lat="45.21577" lon="5.73325">
        <ele>926.40002441406</ele>
        <time>2021-06-26T08:37:04.000Z</time>
      </trkpt>
      <trkpt lat="45.21578" lon="5.73327">
        <ele>926.40002441406</ele>
        <time>2021-06-26T08:37:06.000Z</time>
      </trkpt>
      <trkpt lat="45.21579" lon="5.73329">
        <ele>926.20001220703</ele>
        <time>2021-06-26T08:37:07.000Z</time>
      </trkpt>
      <trkpt lat="45.21581" lon="5.73332">
        <ele>926.20001220703</ele>
        <time>2021-06-26T08:37:10.000Z</time>
      </trkpt>
      <trkpt lat="45.21586" lon="5.73339">
        <ele>927</ele>
        <time>2021-06-26T08:37:13.000Z</time>
      </trkpt>
      <trkpt lat="45.21588" lon="5.7334">
        <ele>927.20001220703</ele>
        <time>2021-06-26T08:37:14.000Z</time>
      </trkpt>
      <trkpt lat="45.21593" lon="5.73343">
        <ele>928.40002441406</ele>
        <time>2021-06-26T08:37:17.000Z</time>
      </trkpt>
      <trkpt lat="45.21597" lon="5.7335">
        <ele>928.79998779297</ele>
        <time>2021-06-26T08:37:20.000Z</time>
      </trkpt>
      <trkpt lat="45.21601" lon="5.73355">
        <ele>929.40002441406</ele>
        <time>2021-06-26T08:37:23.000Z</time>
      </trkpt>
      <trkpt lat="45.21602" lon="5.73356">
        <ele>929.79998779297</ele>
        <time>2021-06-26T08:37:24.000Z</time>
      </trkpt>
      <trkpt lat="45.21605" lon="5.73359">
        <ele>930.79998779297</ele>
        <time>2021-06-26T08:37:26.000Z</time>
      </trkpt>
      <trkpt lat="45.2161" lon="5.73364">
        <ele>931.40002441406</ele>
        <time>2021-06-26T08:37:30.000Z</time>
      </trkpt>
      <trkpt lat="45.21612" lon="5.73364">
        <ele>932.20001220703</ele>
        <time>2021-06-26T08:37:31.000Z</time>
      </trkpt>
      <trkpt lat="45.21615" lon="5.73366">
        <ele>932.20001220703</ele>
        <time>2021-06-26T08:37:33.000Z</time>
      </trkpt>
      <trkpt lat="45.21618" lon="5.73368">
        <ele>933.20001220703</ele>
        <time>2021-06-26T08:37:35.000Z</time>
      </trkpt>
      <trkpt lat="45.21626" lon="5.73374">
        <ele>934.20001220703</ele>
        <time>2021-06-26T08:37:41.000Z</time>
      </trkpt>
      <trkpt lat="45.21629" lon="5.73376">
        <ele>935</ele>
        <time>2021-06-26T08:37:43.000Z</time>
      </trkpt>
      <trkpt lat="45.21638" lon="5.73384">
        <ele>935.79998779297</ele>
        <time>2021-06-26T08:37:49.000Z</time>
      </trkpt>
      <trkpt lat="45.21644" lon="5.73391">
        <ele>936.59997558594</ele>
        <time>2021-06-26T08:37:53.000Z</time>
      </trkpt>
      <trkpt lat="45.21647" lon="5.73395">
        <ele>937</ele>
        <time>2021-06-26T08:37:55.000Z</time>
      </trkpt>
      <trkpt lat="45.21651" lon="5.73402">
        <ele>937.20001220703</ele>
        <time>2021-06-26T08:37:58.000Z</time>
      </trkpt>
      <trkpt lat="45.21653" lon="5.7341">
        <ele>937.40002441406</ele>
        <time>2021-06-26T08:38:01.000Z</time>
      </trkpt>
      <trkpt lat="45.21655" lon="5.73415">
        <ele>937.40002441406</ele>
        <time>2021-06-26T08:38:03.000Z</time>
      </trkpt>
      <trkpt lat="45.21657" lon="5.73422">
        <ele>937.79998779297</ele>
        <time>2021-06-26T08:38:06.000Z</time>
      </trkpt>
      <trkpt lat="45.21658" lon="5.73425">
        <ele>938</ele>
        <time>2021-06-26T08:38:07.000Z</time>
      </trkpt>
      <trkpt lat="45.21661" lon="5.73436">
        <ele>938.59997558594</ele>
        <time>2021-06-26T08:38:11.000Z</time>
      </trkpt>
      <trkpt lat="45.21663" lon="5.73444">
        <ele>939.20001220703</ele>
        <time>2021-06-26T08:38:14.000Z</time>
      </trkpt>
      <trkpt lat="45.21666" lon="5.7345">
        <ele>939.79998779297</ele>
        <time>2021-06-26T08:38:17.000Z</time>
      </trkpt>
      <trkpt lat="45.21668" lon="5.73462">
        <ele>940.59997558594</ele>
        <time>2021-06-26T08:38:21.000Z</time>
      </trkpt>
      <trkpt lat="45.21669" lon="5.73472">
        <ele>941</ele>
        <time>2021-06-26T08:38:24.000Z</time>
      </trkpt>
      <trkpt lat="45.21672" lon="5.73478">
        <ele>941.59997558594</ele>
        <time>2021-06-26T08:38:27.000Z</time>
      </trkpt>
      <trkpt lat="45.21673" lon="5.73479">
        <ele>942.40002441406</ele>
        <time>2021-06-26T08:38:29.000Z</time>
      </trkpt>
      <trkpt lat="45.21673" lon="5.73478">
        <ele>942.59997558594</ele>
        <time>2021-06-26T08:38:30.000Z</time>
      </trkpt>
      <trkpt lat="45.21672" lon="5.73477">
        <ele>942.59997558594</ele>
        <time>2021-06-26T08:38:31.000Z</time>
      </trkpt>
      <trkpt lat="45.21671" lon="5.73475">
        <ele>943.79998779297</ele>
        <time>2021-06-26T08:38:33.000Z</time>
      </trkpt>
      <trkpt lat="45.21669" lon="5.73468">
        <ele>944.40002441406</ele>
        <time>2021-06-26T08:38:37.000Z</time>
      </trkpt>
      <trkpt lat="45.21669" lon="5.73463">
        <ele>944.79998779297</ele>
        <time>2021-06-26T08:38:39.000Z</time>
      </trkpt>
      <trkpt lat="45.21669" lon="5.73461">
        <ele>944.79998779297</ele>
        <time>2021-06-26T08:38:40.000Z</time>
      </trkpt>
      <trkpt lat="45.2167" lon="5.73451">
        <ele>946</ele>
        <time>2021-06-26T08:38:45.000Z</time>
      </trkpt>
      <trkpt lat="45.2167" lon="5.73442">
        <ele>947</ele>
        <time>2021-06-26T08:38:49.000Z</time>
      </trkpt>
      <trkpt lat="45.2167" lon="5.73436">
        <ele>948.20001220703</ele>
        <time>2021-06-26T08:38:53.000Z</time>
      </trkpt>
      <trkpt lat="45.2167" lon="5.73435">
        <ele>948.20001220703</ele>
        <time>2021-06-26T08:38:54.000Z</time>
      </trkpt>
      <trkpt lat="45.2167" lon="5.73433">
        <ele>948.40002441406</ele>
        <time>2021-06-26T08:38:55.000Z</time>
      </trkpt>
      <trkpt lat="45.2167" lon="5.73432">
        <ele>949.20001220703</ele>
        <time>2021-06-26T08:38:56.000Z</time>
      </trkpt>
      <trkpt lat="45.2167" lon="5.73422">
        <ele>950.79998779297</ele>
        <time>2021-06-26T08:39:01.000Z</time>
      </trkpt>
      <trkpt lat="45.2167" lon="5.73416">
        <ele>951.59997558594</ele>
        <time>2021-06-26T08:39:04.000Z</time>
      </trkpt>
      <trkpt lat="45.2167" lon="5.73414">
        <ele>952.20001220703</ele>
        <time>2021-06-26T08:39:05.000Z</time>
      </trkpt>
      <trkpt lat="45.21668" lon="5.73408">
        <ele>953</ele>
        <time>2021-06-26T08:39:08.000Z</time>
      </trkpt>
      <trkpt lat="45.21668" lon="5.73406">
        <ele>953.79998779297</ele>
        <time>2021-06-26T08:39:10.000Z</time>
      </trkpt>
      <trkpt lat="45.21666" lon="5.73403">
        <ele>954.20001220703</ele>
        <time>2021-06-26T08:39:12.000Z</time>
      </trkpt>
      <trkpt lat="45.21665" lon="5.73396">
        <ele>955.59997558594</ele>
        <time>2021-06-26T08:39:16.000Z</time>
      </trkpt>
      <trkpt lat="45.21665" lon="5.73394">
        <ele>955.79998779297</ele>
        <time>2021-06-26T08:39:17.000Z</time>
      </trkpt>
      <trkpt lat="45.21665" lon="5.73386">
        <ele>957.40002441406</ele>
        <time>2021-06-26T08:39:21.000Z</time>
      </trkpt>
      <trkpt lat="45.21665" lon="5.73384">
        <ele>957.40002441406</ele>
        <time>2021-06-26T08:39:22.000Z</time>
      </trkpt>
      <trkpt lat="45.21664" lon="5.73382">
        <ele>957.79998779297</ele>
        <time>2021-06-26T08:39:23.000Z</time>
      </trkpt>
      <trkpt lat="45.21661" lon="5.73378">
        <ele>958.40002441406</ele>
        <time>2021-06-26T08:39:25.000Z</time>
      </trkpt>
      <trkpt lat="45.21659" lon="5.73375">
        <ele>959.20001220703</ele>
        <time>2021-06-26T08:39:27.000Z</time>
      </trkpt>
      <trkpt lat="45.21658" lon="5.73371">
        <ele>959.79998779297</ele>
        <time>2021-06-26T08:39:29.000Z</time>
      </trkpt>
      <trkpt lat="45.21656" lon="5.73366">
        <ele>960.40002441406</ele>
        <time>2021-06-26T08:39:31.000Z</time>
      </trkpt>
      <trkpt lat="45.21655" lon="5.73363">
        <ele>961</ele>
        <time>2021-06-26T08:39:32.000Z</time>
      </trkpt>
      <trkpt lat="45.21653" lon="5.73357">
        <ele>962.20001220703</ele>
        <time>2021-06-26T08:39:35.000Z</time>
      </trkpt>
      <trkpt lat="45.21652" lon="5.73355">
        <ele>962.40002441406</ele>
        <time>2021-06-26T08:39:36.000Z</time>
      </trkpt>
      <trkpt lat="45.21652" lon="5.73352">
        <ele>963.20001220703</ele>
        <time>2021-06-26T08:39:38.000Z</time>
      </trkpt>
      <trkpt lat="45.21651" lon="5.73351">
        <ele>963.20001220703</ele>
        <time>2021-06-26T08:39:39.000Z</time>
      </trkpt>
      <trkpt lat="45.21649" lon="5.73348">
        <ele>964.40002441406</ele>
        <time>2021-06-26T08:39:41.000Z</time>
      </trkpt>
      <trkpt lat="45.21646" lon="5.73346">
        <ele>965</ele>
        <time>2021-06-26T08:39:44.000Z</time>
      </trkpt>
      <trkpt lat="45.21641" lon="5.73341">
        <ele>964.59997558594</ele>
        <time>2021-06-26T08:39:48.000Z</time>
      </trkpt>
      <trkpt lat="45.2164" lon="5.73336">
        <ele>963.79998779297</ele>
        <time>2021-06-26T08:39:51.000Z</time>
      </trkpt>
      <trkpt lat="45.21632" lon="5.73329">
        <ele>963.40002441406</ele>
        <time>2021-06-26T08:39:55.000Z</time>
      </trkpt>
      <trkpt lat="45.2163" lon="5.73328">
        <ele>962.59997558594</ele>
        <time>2021-06-26T08:39:56.000Z</time>
      </trkpt>
      <trkpt lat="45.21628" lon="5.73323">
        <ele>962.59997558594</ele>
        <time>2021-06-26T08:39:58.000Z</time>
      </trkpt>
      <trkpt lat="45.21626" lon="5.73321">
        <ele>962.40002441406</ele>
        <time>2021-06-26T08:39:59.000Z</time>
      </trkpt>
      <trkpt lat="45.21623" lon="5.73318">
        <ele>961.59997558594</ele>
        <time>2021-06-26T08:40:01.000Z</time>
      </trkpt>
      <trkpt lat="45.2162" lon="5.73313">
        <ele>960.40002441406</ele>
        <time>2021-06-26T08:40:04.000Z</time>
      </trkpt>
      <trkpt lat="45.21615" lon="5.73306">
        <ele>960</ele>
        <time>2021-06-26T08:40:08.000Z</time>
      </trkpt>
      <trkpt lat="45.21614" lon="5.73304">
        <ele>959.40002441406</ele>
        <time>2021-06-26T08:40:09.000Z</time>
      </trkpt>
      <trkpt lat="45.21606" lon="5.73296">
        <ele>958.40002441406</ele>
        <time>2021-06-26T08:40:14.000Z</time>
      </trkpt>
      <trkpt lat="45.21604" lon="5.73294">
        <ele>958.20001220703</ele>
        <time>2021-06-26T08:40:15.000Z</time>
      </trkpt>
      <trkpt lat="45.21598" lon="5.7329">
        <ele>956.59997558594</ele>
        <time>2021-06-26T08:40:20.000Z</time>
      </trkpt>
      <trkpt lat="45.21595" lon="5.73288">
        <ele>955.79998779297</ele>
        <time>2021-06-26T08:40:22.000Z</time>
      </trkpt>
      <trkpt lat="45.21593" lon="5.73287">
        <ele>955.79998779297</ele>
        <time>2021-06-26T08:40:23.000Z</time>
      </trkpt>
      <trkpt lat="45.21592" lon="5.73288">
        <ele>955.59997558594</ele>
        <time>2021-06-26T08:40:24.000Z</time>
      </trkpt>
      <trkpt lat="45.21587" lon="5.73286">
        <ele>955</ele>
        <time>2021-06-26T08:40:27.000Z</time>
      </trkpt>
      <trkpt lat="45.21585" lon="5.73287">
        <ele>954.40002441406</ele>
        <time>2021-06-26T08:40:29.000Z</time>
      </trkpt>
      <trkpt lat="45.21581" lon="5.73286">
        <ele>954</ele>
        <time>2021-06-26T08:40:31.000Z</time>
      </trkpt>
      <trkpt lat="45.21579" lon="5.73286">
        <ele>953.40002441406</ele>
        <time>2021-06-26T08:40:33.000Z</time>
      </trkpt>
      <trkpt lat="45.21575" lon="5.73285">
        <ele>952.20001220703</ele>
        <time>2021-06-26T08:40:36.000Z</time>
      </trkpt>
      <trkpt lat="45.21571" lon="5.73284">
        <ele>950.79998779297</ele>
        <time>2021-06-26T08:40:39.000Z</time>
      </trkpt>
      <trkpt lat="45.21567" lon="5.73283">
        <ele>950</ele>
        <time>2021-06-26T08:40:42.000Z</time>
      </trkpt>
      <trkpt lat="45.21566" lon="5.73283">
        <ele>949.79998779297</ele>
        <time>2021-06-26T08:40:43.000Z</time>
      </trkpt>
      <trkpt lat="45.21565" lon="5.73284">
        <ele>949.40002441406</ele>
        <time>2021-06-26T08:40:44.000Z</time>
      </trkpt>
      <trkpt lat="45.21563" lon="5.73284">
        <ele>948.40002441406</ele>
        <time>2021-06-26T08:40:46.000Z</time>
      </trkpt>
      <trkpt lat="45.21562" lon="5.73284">
        <ele>948.20001220703</ele>
        <time>2021-06-26T08:40:47.000Z</time>
      </trkpt>
      <trkpt lat="45.21557" lon="5.73282">
        <ele>946.79998779297</ele>
        <time>2021-06-26T08:40:50.000Z</time>
      </trkpt>
      <trkpt lat="45.21556" lon="5.73282">
        <ele>946.79998779297</ele>
        <time>2021-06-26T08:40:51.000Z</time>
      </trkpt>
      <trkpt lat="45.21549" lon="5.73284">
        <ele>945.40002441406</ele>
        <time>2021-06-26T08:40:54.000Z</time>
      </trkpt>
      <trkpt lat="45.21545" lon="5.73284">
        <ele>945</ele>
        <time>2021-06-26T08:40:56.000Z</time>
      </trkpt>
      <trkpt lat="45.21543" lon="5.73283">
        <ele>944.20001220703</ele>
        <time>2021-06-26T08:40:57.000Z</time>
      </trkpt>
      <trkpt lat="45.21537" lon="5.73285">
        <ele>942.59997558594</ele>
        <time>2021-06-26T08:41:00.000Z</time>
      </trkpt>
      <trkpt lat="45.21537" lon="5.73283">
        <ele>942.40002441406</ele>
        <time>2021-06-26T08:41:01.000Z</time>
      </trkpt>
      <trkpt lat="45.21536" lon="5.73282">
        <ele>942</ele>
        <time>2021-06-26T08:41:02.000Z</time>
      </trkpt>
      <trkpt lat="45.21536" lon="5.73283">
        <ele>941</ele>
        <time>2021-06-26T08:41:05.000Z</time>
      </trkpt>
      <trkpt lat="45.21538" lon="5.73283">
        <ele>940.79998779297</ele>
        <time>2021-06-26T08:41:06.000Z</time>
      </trkpt>
      <trkpt lat="45.2154" lon="5.73286">
        <ele>939.59997558594</ele>
        <time>2021-06-26T08:41:08.000Z</time>
      </trkpt>
      <trkpt lat="45.21541" lon="5.73287">
        <ele>939.40002441406</ele>
        <time>2021-06-26T08:41:09.000Z</time>
      </trkpt>
      <trkpt lat="45.21542" lon="5.73288">
        <ele>938.59997558594</ele>
        <time>2021-06-26T08:41:10.000Z</time>
      </trkpt>
      <trkpt lat="45.21543" lon="5.73289">
        <ele>938.20001220703</ele>
        <time>2021-06-26T08:41:11.000Z</time>
      </trkpt>
      <trkpt lat="45.21544" lon="5.7329">
        <ele>938.20001220703</ele>
        <time>2021-06-26T08:41:12.000Z</time>
      </trkpt>
      <trkpt lat="45.21546" lon="5.7329">
        <ele>937.59997558594</ele>
        <time>2021-06-26T08:41:14.000Z</time>
      </trkpt>
      <trkpt lat="45.21547" lon="5.73291">
        <ele>936.79998779297</ele>
        <time>2021-06-26T08:41:15.000Z</time>
      </trkpt>
      <trkpt lat="45.21548" lon="5.73292">
        <ele>936.20001220703</ele>
        <time>2021-06-26T08:41:16.000Z</time>
      </trkpt>
      <trkpt lat="45.2155" lon="5.73294">
        <ele>935.79998779297</ele>
        <time>2021-06-26T08:41:18.000Z</time>
      </trkpt>
      <trkpt lat="45.21551" lon="5.73294">
        <ele>934.59997558594</ele>
        <time>2021-06-26T08:41:19.000Z</time>
      </trkpt>
      <trkpt lat="45.21552" lon="5.73295">
        <ele>934</ele>
        <time>2021-06-26T08:41:20.000Z</time>
      </trkpt>
      <trkpt lat="45.21555" lon="5.733">
        <ele>933.40002441406</ele>
        <time>2021-06-26T08:41:23.000Z</time>
      </trkpt>
      <trkpt lat="45.21558" lon="5.73304">
        <ele>932.40002441406</ele>
        <time>2021-06-26T08:41:26.000Z</time>
      </trkpt>
      <trkpt lat="45.2156" lon="5.73304">
        <ele>932</ele>
        <time>2021-06-26T08:41:27.000Z</time>
      </trkpt>
      <trkpt lat="45.21561" lon="5.73305">
        <ele>930.59997558594</ele>
        <time>2021-06-26T08:41:28.000Z</time>
      </trkpt>
      <trkpt lat="45.21563" lon="5.7331">
        <ele>929.79998779297</ele>
        <time>2021-06-26T08:41:31.000Z</time>
      </trkpt>
      <trkpt lat="45.21564" lon="5.73312">
        <ele>928.20001220703</ele>
        <time>2021-06-26T08:41:33.000Z</time>
      </trkpt>
      <trkpt lat="45.21567" lon="5.7332">
        <ele>927</ele>
        <time>2021-06-26T08:41:39.000Z</time>
      </trkpt>
      <trkpt lat="45.2157" lon="5.73323">
        <ele>926.79998779297</ele>
        <time>2021-06-26T08:41:41.000Z</time>
      </trkpt>
      <trkpt lat="45.21573" lon="5.73328">
        <ele>926.40002441406</ele>
        <time>2021-06-26T08:41:44.000Z</time>
      </trkpt>
      <trkpt lat="45.21574" lon="5.73329">
        <ele>926</ele>
        <time>2021-06-26T08:41:45.000Z</time>
      </trkpt>
      <trkpt lat="45.21576" lon="5.73332">
        <ele>926.20001220703</ele>
        <time>2021-06-26T08:41:47.000Z</time>
      </trkpt>
      <trkpt lat="45.21577" lon="5.73336">
        <ele>926.20001220703</ele>
        <time>2021-06-26T08:41:49.000Z</time>
      </trkpt>
      <trkpt lat="45.21578" lon="5.73337">
        <ele>926.20001220703</ele>
        <time>2021-06-26T08:41:50.000Z</time>
      </trkpt>
      <trkpt lat="45.21581" lon="5.73342">
        <ele>927.20001220703</ele>
        <time>2021-06-26T08:41:53.000Z</time>
      </trkpt>
      <trkpt lat="45.21587" lon="5.73348">
        <ele>927.59997558594</ele>
        <time>2021-06-26T08:41:56.000Z</time>
      </trkpt>
      <trkpt lat="45.21589" lon="5.73349">
        <ele>928.40002441406</ele>
        <time>2021-06-26T08:41:57.000Z</time>
      </trkpt>
      <trkpt lat="45.21601" lon="5.73358">
        <ele>929</ele>
        <time>2021-06-26T08:42:03.000Z</time>
      </trkpt>
      <trkpt lat="45.21602" lon="5.73359">
        <ele>930.20001220703</ele>
        <time>2021-06-26T08:42:04.000Z</time>
      </trkpt>
      <trkpt lat="45.21606" lon="5.73361">
        <ele>930.59997558594</ele>
        <time>2021-06-26T08:42:07.000Z</time>
      </trkpt>
      <trkpt lat="45.21608" lon="5.73363">
        <ele>931.59997558594</ele>
        <time>2021-06-26T08:42:09.000Z</time>
      </trkpt>
      <trkpt lat="45.21616" lon="5.73365">
        <ele>932.79998779297</ele>
        <time>2021-06-26T08:42:14.000Z</time>
      </trkpt>
      <trkpt lat="45.21622" lon="5.73369">
        <ele>933.59997558594</ele>
        <time>2021-06-26T08:42:18.000Z</time>
      </trkpt>
      <trkpt lat="45.21624" lon="5.7337">
        <ele>934</ele>
        <time>2021-06-26T08:42:19.000Z</time>
      </trkpt>
      <trkpt lat="45.2163" lon="5.73376">
        <ele>935.20001220703</ele>
        <time>2021-06-26T08:42:23.000Z</time>
      </trkpt>
      <trkpt lat="45.21632" lon="5.73378">
        <ele>935.20001220703</ele>
        <time>2021-06-26T08:42:25.000Z</time>
      </trkpt>
      <trkpt lat="45.21634" lon="5.73379">
        <ele>935.20001220703</ele>
        <time>2021-06-26T08:42:26.000Z</time>
      </trkpt>
      <trkpt lat="45.21637" lon="5.73381">
        <ele>935.79998779297</ele>
        <time>2021-06-26T08:42:28.000Z</time>
      </trkpt>
      <trkpt lat="45.2164" lon="5.73383">
        <ele>936.20001220703</ele>
        <time>2021-06-26T08:42:30.000Z</time>
      </trkpt>
      <trkpt lat="45.21648" lon="5.73393">
        <ele>937.20001220703</ele>
        <time>2021-06-26T08:42:35.000Z</time>
      </trkpt>
      <trkpt lat="45.21649" lon="5.73395">
        <ele>937.20001220703</ele>
        <time>2021-06-26T08:42:36.000Z</time>
      </trkpt>
      <trkpt lat="45.21657" lon="5.73414">
        <ele>938</ele>
        <time>2021-06-26T08:42:43.000Z</time>
      </trkpt>
      <trkpt lat="45.2166" lon="5.7342">
        <ele>938.59997558594</ele>
        <time>2021-06-26T08:42:45.000Z</time>
      </trkpt>
      <trkpt lat="45.21662" lon="5.73431">
        <ele>938.79998779297</ele>
        <time>2021-06-26T08:42:48.000Z</time>
      </trkpt>
      <trkpt lat="45.21663" lon="5.73437">
        <ele>939.20001220703</ele>
        <time>2021-06-26T08:42:50.000Z</time>
      </trkpt>
      <trkpt lat="45.21664" lon="5.73444">
        <ele>939.79998779297</ele>
        <time>2021-06-26T08:42:52.000Z</time>
      </trkpt>
      <trkpt lat="45.21668" lon="5.73463">
        <ele>940.40002441406</ele>
        <time>2021-06-26T08:42:58.000Z</time>
      </trkpt>
      <trkpt lat="45.21669" lon="5.73466">
        <ele>941.20001220703</ele>
        <time>2021-06-26T08:42:59.000Z</time>
      </trkpt>
      <trkpt lat="45.21672" lon="5.73475">
        <ele>941.59997558594</ele>
        <time>2021-06-26T08:43:03.000Z</time>
      </trkpt>
      <trkpt lat="45.21678" lon="5.73482">
        <ele>942.40002441406</ele>
        <time>2021-06-26T08:43:07.000Z</time>
      </trkpt>
      <trkpt lat="45.21685" lon="5.73488">
        <ele>942.79998779297</ele>
        <time>2021-06-26T08:43:11.000Z</time>
      </trkpt>
      <trkpt lat="45.21687" lon="5.73489">
        <ele>942.79998779297</ele>
        <time>2021-06-26T08:43:12.000Z</time>
      </trkpt>
      <trkpt lat="45.21693" lon="5.73489">
        <ele>943.40002441406</ele>
        <time>2021-06-26T08:43:15.000Z</time>
      </trkpt>
      <trkpt lat="45.21695" lon="5.73489">
        <ele>943.59997558594</ele>
        <time>2021-06-26T08:43:16.000Z</time>
      </trkpt>
      <trkpt lat="45.21706" lon="5.73492">
        <ele>944.20001220703</ele>
        <time>2021-06-26T08:43:22.000Z</time>
      </trkpt>
      <trkpt lat="45.21709" lon="5.73494">
        <ele>944.20001220703</ele>
        <time>2021-06-26T08:43:24.000Z</time>
      </trkpt>
      <trkpt lat="45.21713" lon="5.73497">
        <ele>944.40002441406</ele>
        <time>2021-06-26T08:43:26.000Z</time>
      </trkpt>
      <trkpt lat="45.21721" lon="5.73505">
        <ele>945</ele>
        <time>2021-06-26T08:43:32.000Z</time>
      </trkpt>
      <trkpt lat="45.21733" lon="5.73518">
        <ele>945.20001220703</ele>
        <time>2021-06-26T08:43:38.000Z</time>
      </trkpt>
      <trkpt lat="45.21749" lon="5.73519">
        <ele>945.59997558594</ele>
        <time>2021-06-26T08:43:45.000Z</time>
      </trkpt>
      <trkpt lat="45.21757" lon="5.73519">
        <ele>946</ele>
        <time>2021-06-26T08:43:49.000Z</time>
      </trkpt>
      <trkpt lat="45.21759" lon="5.73521">
        <ele>946</ele>
        <time>2021-06-26T08:43:50.000Z</time>
      </trkpt>
      <trkpt lat="45.21764" lon="5.73524">
        <ele>946</ele>
        <time>2021-06-26T08:43:52.000Z</time>
      </trkpt>
      <trkpt lat="45.21771" lon="5.7353">
        <ele>944.79998779297</ele>
        <time>2021-06-26T08:43:55.000Z</time>
      </trkpt>
      <trkpt lat="45.21776" lon="5.73534">
        <ele>943.79998779297</ele>
        <time>2021-06-26T08:43:57.000Z</time>
      </trkpt>
      <trkpt lat="45.21778" lon="5.73539">
        <ele>942.59997558594</ele>
        <time>2021-06-26T08:43:59.000Z</time>
      </trkpt>
      <trkpt lat="45.21783" lon="5.73549">
        <ele>941.20001220703</ele>
        <time>2021-06-26T08:44:02.000Z</time>
      </trkpt>
      <trkpt lat="45.21784" lon="5.73552">
        <ele>940.59997558594</ele>
        <time>2021-06-26T08:44:03.000Z</time>
      </trkpt>
      <trkpt lat="45.21785" lon="5.73555">
        <ele>940</ele>
        <time>2021-06-26T08:44:04.000Z</time>
      </trkpt>
      <trkpt lat="45.21792" lon="5.73567">
        <ele>938.79998779297</ele>
        <time>2021-06-26T08:44:08.000Z</time>
      </trkpt>
      <trkpt lat="45.21796" lon="5.73572">
        <ele>937.59997558594</ele>
        <time>2021-06-26T08:44:10.000Z</time>
      </trkpt>
      <trkpt lat="45.21801" lon="5.73577">
        <ele>936</ele>
        <time>2021-06-26T08:44:12.000Z</time>
      </trkpt>
      <trkpt lat="45.21806" lon="5.73584">
        <ele>935.40002441406</ele>
        <time>2021-06-26T08:44:15.000Z</time>
      </trkpt>
      <trkpt lat="45.21809" lon="5.73586">
        <ele>934.79998779297</ele>
        <time>2021-06-26T08:44:16.000Z</time>
      </trkpt>
      <trkpt lat="45.2181" lon="5.73588">
        <ele>934.59997558594</ele>
        <time>2021-06-26T08:44:17.000Z</time>
      </trkpt>
      <trkpt lat="45.21813" lon="5.73593">
        <ele>933.59997558594</ele>
        <time>2021-06-26T08:44:20.000Z</time>
      </trkpt>
      <trkpt lat="45.21815" lon="5.73598">
        <ele>933.20001220703</ele>
        <time>2021-06-26T08:44:22.000Z</time>
      </trkpt>
      <trkpt lat="45.21822" lon="5.73607">
        <ele>932.40002441406</ele>
        <time>2021-06-26T08:44:25.000Z</time>
      </trkpt>
      <trkpt lat="45.21826" lon="5.73615">
        <ele>932</ele>
        <time>2021-06-26T08:44:27.000Z</time>
      </trkpt>
      <trkpt lat="45.21826" lon="5.73619">
        <ele>931.40002441406</ele>
        <time>2021-06-26T08:44:29.000Z</time>
      </trkpt>
      <trkpt lat="45.21826" lon="5.73619">
        <ele>931</ele>
        <time>2021-06-26T08:44:30.000Z</time>
      </trkpt>
      <trkpt lat="45.21821" lon="5.73616">
        <ele>929.59997558594</ele>
        <time>2021-06-26T08:44:33.000Z</time>
      </trkpt>
      <trkpt lat="45.21818" lon="5.73613">
        <ele>929</ele>
        <time>2021-06-26T08:44:36.000Z</time>
      </trkpt>
      <trkpt lat="45.21817" lon="5.73612">
        <ele>929</ele>
        <time>2021-06-26T08:44:37.000Z</time>
      </trkpt>
      <trkpt lat="45.21814" lon="5.73608">
        <ele>928.40002441406</ele>
        <time>2021-06-26T08:44:39.000Z</time>
      </trkpt>
      <trkpt lat="45.21807" lon="5.73604">
        <ele>928.20001220703</ele>
        <time>2021-06-26T08:44:43.000Z</time>
      </trkpt>
      <trkpt lat="45.21794" lon="5.736">
        <ele>928</ele>
        <time>2021-06-26T08:44:49.000Z</time>
      </trkpt>
      <trkpt lat="45.21778" lon="5.73584">
        <ele>927.59997558594</ele>
        <time>2021-06-26T08:44:56.000Z</time>
      </trkpt>
      <trkpt lat="45.21771" lon="5.73576">
        <ele>928.79998779297</ele>
        <time>2021-06-26T08:45:02.000Z</time>
      </trkpt>
      <trkpt lat="45.2177" lon="5.73574">
        <ele>928.59997558594</ele>
        <time>2021-06-26T08:45:04.000Z</time>
      </trkpt>
      <trkpt lat="45.2177" lon="5.73572">
        <ele>928.59997558594</ele>
        <time>2021-06-26T08:45:06.000Z</time>
      </trkpt>
      <trkpt lat="45.21771" lon="5.7357">
        <ele>928.59997558594</ele>
        <time>2021-06-26T08:45:07.000Z</time>
      </trkpt>
      <trkpt lat="45.2177" lon="5.73565">
        <ele>928.40002441406</ele>
        <time>2021-06-26T08:45:10.000Z</time>
      </trkpt>
      <trkpt lat="45.21769" lon="5.73564">
        <ele>928.59997558594</ele>
        <time>2021-06-26T08:45:12.000Z</time>
      </trkpt>
      <trkpt lat="45.21769" lon="5.73562">
        <ele>928.40002441406</ele>
        <time>2021-06-26T08:45:14.000Z</time>
      </trkpt>
      <trkpt lat="45.21769" lon="5.73559">
        <ele>928.40002441406</ele>
        <time>2021-06-26T08:45:16.000Z</time>
      </trkpt>
      <trkpt lat="45.21768" lon="5.73558">
        <ele>928.40002441406</ele>
        <time>2021-06-26T08:45:17.000Z</time>
      </trkpt>
      <trkpt lat="45.21766" lon="5.73556">
        <ele>928.40002441406</ele>
        <time>2021-06-26T08:45:20.000Z</time>
      </trkpt>
      <trkpt lat="45.21766" lon="5.73555">
        <ele>928.40002441406</ele>
        <time>2021-06-26T08:45:22.000Z</time>
      </trkpt>
      <trkpt lat="45.21765" lon="5.73555">
        <ele>928.40002441406</ele>
        <time>2021-06-26T08:45:23.000Z</time>
      </trkpt>
      <trkpt lat="45.21765" lon="5.73555">
        <ele>928.40002441406</ele>
        <time>2021-06-26T08:45:25.000Z</time>
      </trkpt>
      <trkpt lat="45.21764" lon="5.73554">
        <ele>928.40002441406</ele>
        <time>2021-06-26T08:45:33.000Z</time>
      </trkpt>
      <trkpt lat="45.21763" lon="5.73554">
        <ele>928.40002441406</ele>
        <time>2021-06-26T08:45:35.000Z</time>
      </trkpt>
      <trkpt lat="45.21762" lon="5.73555">
        <ele>928.40002441406</ele>
        <time>2021-06-26T08:45:36.000Z</time>
      </trkpt>
      <trkpt lat="45.2176" lon="5.73555">
        <ele>928.20001220703</ele>
        <time>2021-06-26T08:45:40.000Z</time>
      </trkpt>
      <trkpt lat="45.2176" lon="5.73555">
        <ele>928.20001220703</ele>
        <time>2021-06-26T08:45:42.000Z</time>
      </trkpt>
      <trkpt lat="45.2176" lon="5.73555">
        <ele>928.20001220703</ele>
        <time>2021-06-26T08:45:43.000Z</time>
      </trkpt>
      <trkpt lat="45.2176" lon="5.73555">
        <ele>928.40002441406</ele>
        <time>2021-06-26T08:45:48.000Z</time>
      </trkpt>
      <trkpt lat="45.2176" lon="5.73555">
        <ele>928.40002441406</ele>
        <time>2021-06-26T08:45:49.000Z</time>
      </trkpt>
      <trkpt lat="45.21761" lon="5.73555">
        <ele>928.40002441406</ele>
        <time>2021-06-26T08:45:51.000Z</time>
      </trkpt>
      <trkpt lat="45.21761" lon="5.73554">
        <ele>928.40002441406</ele>
        <time>2021-06-26T08:45:53.000Z</time>
      </trkpt>
      <trkpt lat="45.21759" lon="5.73553">
        <ele>928.40002441406</ele>
        <time>2021-06-26T08:45:58.000Z</time>
      </trkpt>
      <trkpt lat="45.21758" lon="5.73552">
        <ele>928.59997558594</ele>
        <time>2021-06-26T08:45:59.000Z</time>
      </trkpt>
      <trkpt lat="45.21756" lon="5.73551">
        <ele>928.79998779297</ele>
        <time>2021-06-26T08:46:01.000Z</time>
      </trkpt>
      <trkpt lat="45.21754" lon="5.73551">
        <ele>928.79998779297</ele>
        <time>2021-06-26T08:46:02.000Z</time>
      </trkpt>
      <trkpt lat="45.21752" lon="5.73548">
        <ele>929.20001220703</ele>
        <time>2021-06-26T08:46:04.000Z</time>
      </trkpt>
      <trkpt lat="45.21751" lon="5.73548">
        <ele>930</ele>
        <time>2021-06-26T08:46:05.000Z</time>
      </trkpt>
      <trkpt lat="45.21745" lon="5.73546">
        <ele>930.59997558594</ele>
        <time>2021-06-26T08:46:10.000Z</time>
      </trkpt>
      <trkpt lat="45.21743" lon="5.73546">
        <ele>930.79998779297</ele>
        <time>2021-06-26T08:46:11.000Z</time>
      </trkpt>
      <trkpt lat="45.2174" lon="5.73547">
        <ele>931</ele>
        <time>2021-06-26T08:46:13.000Z</time>
      </trkpt>
      <trkpt lat="45.21739" lon="5.73548">
        <ele>931.59997558594</ele>
        <time>2021-06-26T08:46:14.000Z</time>
      </trkpt>
      <trkpt lat="45.21738" lon="5.73548">
        <ele>931.79998779297</ele>
        <time>2021-06-26T08:46:16.000Z</time>
      </trkpt>
      <trkpt lat="45.21736" lon="5.7355">
        <ele>932</ele>
        <time>2021-06-26T08:46:18.000Z</time>
      </trkpt>
      <trkpt lat="45.21733" lon="5.73554">
        <ele>932</ele>
        <time>2021-06-26T08:46:20.000Z</time>
      </trkpt>
      <trkpt lat="45.21729" lon="5.73555">
        <ele>931.79998779297</ele>
        <time>2021-06-26T08:46:22.000Z</time>
      </trkpt>
      <trkpt lat="45.21726" lon="5.73556">
        <ele>931.79998779297</ele>
        <time>2021-06-26T08:46:23.000Z</time>
      </trkpt>
      <trkpt lat="45.21724" lon="5.73555">
        <ele>931.79998779297</ele>
        <time>2021-06-26T08:46:24.000Z</time>
      </trkpt>
      <trkpt lat="45.2172" lon="5.73552">
        <ele>931.59997558594</ele>
        <time>2021-06-26T08:46:27.000Z</time>
      </trkpt>
      <trkpt lat="45.21718" lon="5.73549">
        <ele>931.40002441406</ele>
        <time>2021-06-26T08:46:29.000Z</time>
      </trkpt>
      <trkpt lat="45.21706" lon="5.73545">
        <ele>929</ele>
        <time>2021-06-26T08:46:36.000Z</time>
      </trkpt>
      <trkpt lat="45.21704" lon="5.73545">
        <ele>929</ele>
        <time>2021-06-26T08:46:37.000Z</time>
      </trkpt>
      <trkpt lat="45.21698" lon="5.73544">
        <ele>927.59997558594</ele>
        <time>2021-06-26T08:46:41.000Z</time>
      </trkpt>
      <trkpt lat="45.21696" lon="5.73542">
        <ele>927.40002441406</ele>
        <time>2021-06-26T08:46:43.000Z</time>
      </trkpt>
      <trkpt lat="45.21695" lon="5.73542">
        <ele>926.40002441406</ele>
        <time>2021-06-26T08:46:44.000Z</time>
      </trkpt>
      <trkpt lat="45.21687" lon="5.73542">
        <ele>925.59997558594</ele>
        <time>2021-06-26T08:46:49.000Z</time>
      </trkpt>
      <trkpt lat="45.21683" lon="5.73542">
        <ele>925</ele>
        <time>2021-06-26T08:46:51.000Z</time>
      </trkpt>
      <trkpt lat="45.21679" lon="5.73541">
        <ele>924.20001220703</ele>
        <time>2021-06-26T08:46:54.000Z</time>
      </trkpt>
      <trkpt lat="45.21675" lon="5.7354">
        <ele>924</ele>
        <time>2021-06-26T08:46:56.000Z</time>
      </trkpt>
      <trkpt lat="45.21673" lon="5.73541">
        <ele>923.40002441406</ele>
        <time>2021-06-26T08:46:57.000Z</time>
      </trkpt>
      <trkpt lat="45.21666" lon="5.73542">
        <ele>922.40002441406</ele>
        <time>2021-06-26T08:47:00.000Z</time>
      </trkpt>
      <trkpt lat="45.21664" lon="5.73542">
        <ele>922</ele>
        <time>2021-06-26T08:47:02.000Z</time>
      </trkpt>
      <trkpt lat="45.21663" lon="5.73541">
        <ele>921.79998779297</ele>
        <time>2021-06-26T08:47:03.000Z</time>
      </trkpt>
      <trkpt lat="45.21662" lon="5.73541">
        <ele>921</ele>
        <time>2021-06-26T08:47:05.000Z</time>
      </trkpt>
      <trkpt lat="45.21663" lon="5.73542">
        <ele>921</ele>
        <time>2021-06-26T08:47:06.000Z</time>
      </trkpt>
      <trkpt lat="45.21666" lon="5.73542">
        <ele>919.79998779297</ele>
        <time>2021-06-26T08:47:09.000Z</time>
      </trkpt>
      <trkpt lat="45.21668" lon="5.73542">
        <ele>919.40002441406</ele>
        <time>2021-06-26T08:47:11.000Z</time>
      </trkpt>
      <trkpt lat="45.21669" lon="5.73541">
        <ele>918.59997558594</ele>
        <time>2021-06-26T08:47:12.000Z</time>
      </trkpt>
      <trkpt lat="45.21671" lon="5.7354">
        <ele>917.40002441406</ele>
        <time>2021-06-26T08:47:14.000Z</time>
      </trkpt>
      <trkpt lat="45.21672" lon="5.7354">
        <ele>917</ele>
        <time>2021-06-26T08:47:15.000Z</time>
      </trkpt>
      <trkpt lat="45.21674" lon="5.7354">
        <ele>916.79998779297</ele>
        <time>2021-06-26T08:47:17.000Z</time>
      </trkpt>
      <trkpt lat="45.21677" lon="5.73541">
        <ele>916</ele>
        <time>2021-06-26T08:47:19.000Z</time>
      </trkpt>
      <trkpt lat="45.21682" lon="5.73544">
        <ele>915.20001220703</ele>
        <time>2021-06-26T08:47:22.000Z</time>
      </trkpt>
      <trkpt lat="45.21684" lon="5.73545">
        <ele>914.79998779297</ele>
        <time>2021-06-26T08:47:23.000Z</time>
      </trkpt>
      <trkpt lat="45.2169" lon="5.7355">
        <ele>913.20001220703</ele>
        <time>2021-06-26T08:47:27.000Z</time>
      </trkpt>
      <trkpt lat="45.21694" lon="5.73552">
        <ele>912.59997558594</ele>
        <time>2021-06-26T08:47:29.000Z</time>
      </trkpt>
      <trkpt lat="45.21695" lon="5.73552">
        <ele>912.59997558594</ele>
        <time>2021-06-26T08:47:30.000Z</time>
      </trkpt>
      <trkpt lat="45.21697" lon="5.73552">
        <ele>912.20001220703</ele>
        <time>2021-06-26T08:47:31.000Z</time>
      </trkpt>
      <trkpt lat="45.21698" lon="5.73553">
        <ele>911.79998779297</ele>
        <time>2021-06-26T08:47:32.000Z</time>
      </trkpt>
      <trkpt lat="45.21698" lon="5.73553">
        <ele>911.59997558594</ele>
        <time>2021-06-26T08:47:33.000Z</time>
      </trkpt>
      <trkpt lat="45.21699" lon="5.73555">
        <ele>911</ele>
        <time>2021-06-26T08:47:35.000Z</time>
      </trkpt>
      <trkpt lat="45.21697" lon="5.73557">
        <ele>910.20001220703</ele>
        <time>2021-06-26T08:47:37.000Z</time>
      </trkpt>
      <trkpt lat="45.21695" lon="5.7356">
        <ele>909.59997558594</ele>
        <time>2021-06-26T08:47:39.000Z</time>
      </trkpt>
      <trkpt lat="45.21693" lon="5.73561">
        <ele>909</ele>
        <time>2021-06-26T08:47:40.000Z</time>
      </trkpt>
      <trkpt lat="45.21692" lon="5.73561">
        <ele>909</ele>
        <time>2021-06-26T08:47:41.000Z</time>
      </trkpt>
      <trkpt lat="45.21691" lon="5.73563">
        <ele>908.59997558594</ele>
        <time>2021-06-26T08:47:42.000Z</time>
      </trkpt>
      <trkpt lat="45.21686" lon="5.73566">
        <ele>908.40002441406</ele>
        <time>2021-06-26T08:47:45.000Z</time>
      </trkpt>
      <trkpt lat="45.21685" lon="5.73566">
        <ele>907.59997558594</ele>
        <time>2021-06-26T08:47:46.000Z</time>
      </trkpt>
      <trkpt lat="45.21683" lon="5.73566">
        <ele>907.40002441406</ele>
        <time>2021-06-26T08:47:47.000Z</time>
      </trkpt>
      <trkpt lat="45.21679" lon="5.73566">
        <ele>906.20001220703</ele>
        <time>2021-06-26T08:47:49.000Z</time>
      </trkpt>
      <trkpt lat="45.2167" lon="5.73566">
        <ele>905.20001220703</ele>
        <time>2021-06-26T08:47:55.000Z</time>
      </trkpt>
      <trkpt lat="45.21666" lon="5.73565">
        <ele>905</ele>
        <time>2021-06-26T08:47:57.000Z</time>
      </trkpt>
      <trkpt lat="45.21665" lon="5.73566">
        <ele>905</ele>
        <time>2021-06-26T08:47:58.000Z</time>
      </trkpt>
      <trkpt lat="45.21662" lon="5.73567">
        <ele>903.59997558594</ele>
        <time>2021-06-26T08:48:00.000Z</time>
      </trkpt>
      <trkpt lat="45.21659" lon="5.73568">
        <ele>902.79998779297</ele>
        <time>2021-06-26T08:48:02.000Z</time>
      </trkpt>
      <trkpt lat="45.21657" lon="5.7357">
        <ele>902.40002441406</ele>
        <time>2021-06-26T08:48:03.000Z</time>
      </trkpt>
      <trkpt lat="45.21654" lon="5.73573">
        <ele>901.20001220703</ele>
        <time>2021-06-26T08:48:06.000Z</time>
      </trkpt>
      <trkpt lat="45.21651" lon="5.73574">
        <ele>900.79998779297</ele>
        <time>2021-06-26T08:48:09.000Z</time>
      </trkpt>
      <trkpt lat="45.21645" lon="5.73571">
        <ele>900</ele>
        <time>2021-06-26T08:48:12.000Z</time>
      </trkpt>
      <trkpt lat="45.2164" lon="5.73569">
        <ele>899</ele>
        <time>2021-06-26T08:48:15.000Z</time>
      </trkpt>
      <trkpt lat="45.21639" lon="5.73568">
        <ele>898.79998779297</ele>
        <time>2021-06-26T08:48:16.000Z</time>
      </trkpt>
      <trkpt lat="45.21638" lon="5.73567">
        <ele>898.40002441406</ele>
        <time>2021-06-26T08:48:17.000Z</time>
      </trkpt>
      <trkpt lat="45.21632" lon="5.73562">
        <ele>897.79998779297</ele>
        <time>2021-06-26T08:48:21.000Z</time>
      </trkpt>
      <trkpt lat="45.21627" lon="5.73558">
        <ele>896.40002441406</ele>
        <time>2021-06-26T08:48:24.000Z</time>
      </trkpt>
      <trkpt lat="45.21626" lon="5.73557">
        <ele>896.40002441406</ele>
        <time>2021-06-26T08:48:25.000Z</time>
      </trkpt>
      <trkpt lat="45.21625" lon="5.73556">
        <ele>896</ele>
        <time>2021-06-26T08:48:26.000Z</time>
      </trkpt>
      <trkpt lat="45.21622" lon="5.73554">
        <ele>895.40002441406</ele>
        <time>2021-06-26T08:48:29.000Z</time>
      </trkpt>
      <trkpt lat="45.21619" lon="5.7355">
        <ele>894.20001220703</ele>
        <time>2021-06-26T08:48:31.000Z</time>
      </trkpt>
      <trkpt lat="45.21615" lon="5.73545">
        <ele>894</ele>
        <time>2021-06-26T08:48:33.000Z</time>
      </trkpt>
      <trkpt lat="45.21611" lon="5.73539">
        <ele>892.59997558594</ele>
        <time>2021-06-26T08:48:36.000Z</time>
      </trkpt>
      <trkpt lat="45.21611" lon="5.73537">
        <ele>892.59997558594</ele>
        <time>2021-06-26T08:48:39.000Z</time>
      </trkpt>
      <trkpt lat="45.21612" lon="5.73537">
        <ele>892.40002441406</ele>
        <time>2021-06-26T08:48:40.000Z</time>
      </trkpt>
      <trkpt lat="45.21614" lon="5.7354">
        <ele>891.40002441406</ele>
        <time>2021-06-26T08:48:42.000Z</time>
      </trkpt>
      <trkpt lat="45.21614" lon="5.73542">
        <ele>890.59997558594</ele>
        <time>2021-06-26T08:48:43.000Z</time>
      </trkpt>
      <trkpt lat="45.21614" lon="5.73544">
        <ele>890.59997558594</ele>
        <time>2021-06-26T08:48:44.000Z</time>
      </trkpt>
      <trkpt lat="45.21614" lon="5.73545">
        <ele>890</ele>
        <time>2021-06-26T08:48:45.000Z</time>
      </trkpt>
      <trkpt lat="45.21615" lon="5.7355">
        <ele>889.20001220703</ele>
        <time>2021-06-26T08:48:48.000Z</time>
      </trkpt>
      <trkpt lat="45.21616" lon="5.73552">
        <ele>888.59997558594</ele>
        <time>2021-06-26T08:48:49.000Z</time>
      </trkpt>
      <trkpt lat="45.21618" lon="5.73557">
        <ele>887.79998779297</ele>
        <time>2021-06-26T08:48:52.000Z</time>
      </trkpt>
      <trkpt lat="45.21618" lon="5.7356">
        <ele>887.59997558594</ele>
        <time>2021-06-26T08:48:54.000Z</time>
      </trkpt>
      <trkpt lat="45.21621" lon="5.73565">
        <ele>886.20001220703</ele>
        <time>2021-06-26T08:48:57.000Z</time>
      </trkpt>
      <trkpt lat="45.21623" lon="5.73567">
        <ele>885.40002441406</ele>
        <time>2021-06-26T08:48:59.000Z</time>
      </trkpt>
      <trkpt lat="45.21624" lon="5.73568">
        <ele>884.79998779297</ele>
        <time>2021-06-26T08:49:00.000Z</time>
      </trkpt>
      <trkpt lat="45.21623" lon="5.73572">
        <ele>884</ele>
        <time>2021-06-26T08:49:04.000Z</time>
      </trkpt>
      <trkpt lat="45.21622" lon="5.73571">
        <ele>884</ele>
        <time>2021-06-26T08:49:05.000Z</time>
      </trkpt>
      <trkpt lat="45.21621" lon="5.7357">
        <ele>883.59997558594</ele>
        <time>2021-06-26T08:49:06.000Z</time>
      </trkpt>
      <trkpt lat="45.21619" lon="5.7357">
        <ele>882.79998779297</ele>
        <time>2021-06-26T08:49:07.000Z</time>
      </trkpt>
      <trkpt lat="45.21617" lon="5.73571">
        <ele>882.40002441406</ele>
        <time>2021-06-26T08:49:09.000Z</time>
      </trkpt>
      <trkpt lat="45.21611" lon="5.7357">
        <ele>881.20001220703</ele>
        <time>2021-06-26T08:49:12.000Z</time>
      </trkpt>
      <trkpt lat="45.21604" lon="5.73566">
        <ele>880.20001220703</ele>
        <time>2021-06-26T08:49:16.000Z</time>
      </trkpt>
      <trkpt lat="45.21602" lon="5.73564">
        <ele>879</ele>
        <time>2021-06-26T08:49:18.000Z</time>
      </trkpt>
      <trkpt lat="45.21597" lon="5.7356">
        <ele>877.59997558594</ele>
        <time>2021-06-26T08:49:21.000Z</time>
      </trkpt>
      <trkpt lat="45.2159" lon="5.73552">
        <ele>876</ele>
        <time>2021-06-26T08:49:26.000Z</time>
      </trkpt>
      <trkpt lat="45.21589" lon="5.73549">
        <ele>876</ele>
        <time>2021-06-26T08:49:27.000Z</time>
      </trkpt>
      <trkpt lat="45.21587" lon="5.73543">
        <ele>875.40002441406</ele>
        <time>2021-06-26T08:49:30.000Z</time>
      </trkpt>
      <trkpt lat="45.21586" lon="5.7354">
        <ele>874.59997558594</ele>
        <time>2021-06-26T08:49:31.000Z</time>
      </trkpt>
      <trkpt lat="45.21585" lon="5.73536">
        <ele>873.40002441406</ele>
        <time>2021-06-26T08:49:33.000Z</time>
      </trkpt>
      <trkpt lat="45.21581" lon="5.7353">
        <ele>872.40002441406</ele>
        <time>2021-06-26T08:49:36.000Z</time>
      </trkpt>
      <trkpt lat="45.21577" lon="5.73518">
        <ele>871.20001220703</ele>
        <time>2021-06-26T08:49:40.000Z</time>
      </trkpt>
      <trkpt lat="45.21573" lon="5.73511">
        <ele>869.79998779297</ele>
        <time>2021-06-26T08:49:43.000Z</time>
      </trkpt>
      <trkpt lat="45.21572" lon="5.73508">
        <ele>869.40002441406</ele>
        <time>2021-06-26T08:49:44.000Z</time>
      </trkpt>
      <trkpt lat="45.21568" lon="5.73497">
        <ele>868</ele>
        <time>2021-06-26T08:49:48.000Z</time>
      </trkpt>
      <trkpt lat="45.21564" lon="5.73493">
        <ele>867</ele>
        <time>2021-06-26T08:49:51.000Z</time>
      </trkpt>
      <trkpt lat="45.21563" lon="5.73491">
        <ele>866.59997558594</ele>
        <time>2021-06-26T08:49:52.000Z</time>
      </trkpt>
      <trkpt lat="45.21557" lon="5.73485">
        <ele>865.40002441406</ele>
        <time>2021-06-26T08:49:56.000Z</time>
      </trkpt>
      <trkpt lat="45.21556" lon="5.73484">
        <ele>864.79998779297</ele>
        <time>2021-06-26T08:49:57.000Z</time>
      </trkpt>
      <trkpt lat="45.21551" lon="5.73483">
        <ele>864</ele>
        <time>2021-06-26T08:50:00.000Z</time>
      </trkpt>
      <trkpt lat="45.2155" lon="5.73484">
        <ele>863.79998779297</ele>
        <time>2021-06-26T08:50:01.000Z</time>
      </trkpt>
      <trkpt lat="45.21546" lon="5.73483">
        <ele>863</ele>
        <time>2021-06-26T08:50:04.000Z</time>
      </trkpt>
      <trkpt lat="45.21543" lon="5.73483">
        <ele>861.59997558594</ele>
        <time>2021-06-26T08:50:07.000Z</time>
      </trkpt>
      <trkpt lat="45.21539" lon="5.73481">
        <ele>861.40002441406</ele>
        <time>2021-06-26T08:50:10.000Z</time>
      </trkpt>
      <trkpt lat="45.21536" lon="5.73481">
        <ele>860.40002441406</ele>
        <time>2021-06-26T08:50:14.000Z</time>
      </trkpt>
      <trkpt lat="45.21536" lon="5.73481">
        <ele>860</ele>
        <time>2021-06-26T08:50:15.000Z</time>
      </trkpt>
      <trkpt lat="45.21536" lon="5.73482">
        <ele>859.59997558594</ele>
        <time>2021-06-26T08:50:16.000Z</time>
      </trkpt>
      <trkpt lat="45.21538" lon="5.73483">
        <ele>859.20001220703</ele>
        <time>2021-06-26T08:50:17.000Z</time>
      </trkpt>
      <trkpt lat="45.21541" lon="5.73484">
        <ele>858.20001220703</ele>
        <time>2021-06-26T08:50:19.000Z</time>
      </trkpt>
      <trkpt lat="45.21545" lon="5.73487">
        <ele>857</ele>
        <time>2021-06-26T08:50:23.000Z</time>
      </trkpt>
      <trkpt lat="45.21547" lon="5.73489">
        <ele>856.20001220703</ele>
        <time>2021-06-26T08:50:25.000Z</time>
      </trkpt>
      <trkpt lat="45.21549" lon="5.73491">
        <ele>856</ele>
        <time>2021-06-26T08:50:27.000Z</time>
      </trkpt>
      <trkpt lat="45.21551" lon="5.73493">
        <ele>856</ele>
        <time>2021-06-26T08:50:29.000Z</time>
      </trkpt>
      <trkpt lat="45.21554" lon="5.73498">
        <ele>854.59997558594</ele>
        <time>2021-06-26T08:50:33.000Z</time>
      </trkpt>
      <trkpt lat="45.21554" lon="5.73501">
        <ele>854.20001220703</ele>
        <time>2021-06-26T08:50:35.000Z</time>
      </trkpt>
      <trkpt lat="45.21554" lon="5.73503">
        <ele>854</ele>
        <time>2021-06-26T08:50:36.000Z</time>
      </trkpt>
      <trkpt lat="45.21555" lon="5.73507">
        <ele>853.59997558594</ele>
        <time>2021-06-26T08:50:38.000Z</time>
      </trkpt>
      <trkpt lat="45.21556" lon="5.73515">
        <ele>853.40002441406</ele>
        <time>2021-06-26T08:50:41.000Z</time>
      </trkpt>
      <trkpt lat="45.21556" lon="5.73522">
        <ele>852</ele>
        <time>2021-06-26T08:50:44.000Z</time>
      </trkpt>
      <trkpt lat="45.21556" lon="5.73523">
        <ele>851.79998779297</ele>
        <time>2021-06-26T08:50:45.000Z</time>
      </trkpt>
      <trkpt lat="45.21555" lon="5.73526">
        <ele>851.20001220703</ele>
        <time>2021-06-26T08:50:47.000Z</time>
      </trkpt>
      <trkpt lat="45.21555" lon="5.73528">
        <ele>851</ele>
        <time>2021-06-26T08:50:48.000Z</time>
      </trkpt>
      <trkpt lat="45.21556" lon="5.73538">
        <ele>849.40002441406</ele>
        <time>2021-06-26T08:50:52.000Z</time>
      </trkpt>
      <trkpt lat="45.21555" lon="5.73545">
        <ele>848.59997558594</ele>
        <time>2021-06-26T08:50:55.000Z</time>
      </trkpt>
      <trkpt lat="45.21556" lon="5.73547">
        <ele>848.40002441406</ele>
        <time>2021-06-26T08:50:56.000Z</time>
      </trkpt>
      <trkpt lat="45.21556" lon="5.7355">
        <ele>847.59997558594</ele>
        <time>2021-06-26T08:50:57.000Z</time>
      </trkpt>
      <trkpt lat="45.21557" lon="5.73558">
        <ele>846.59997558594</ele>
        <time>2021-06-26T08:51:00.000Z</time>
      </trkpt>
      <trkpt lat="45.21557" lon="5.7356">
        <ele>846.40002441406</ele>
        <time>2021-06-26T08:51:01.000Z</time>
      </trkpt>
      <trkpt lat="45.21558" lon="5.73564">
        <ele>845.59997558594</ele>
        <time>2021-06-26T08:51:03.000Z</time>
      </trkpt>
      <trkpt lat="45.2156" lon="5.73569">
        <ele>845.20001220703</ele>
        <time>2021-06-26T08:51:05.000Z</time>
      </trkpt>
      <trkpt lat="45.21561" lon="5.73571">
        <ele>844.40002441406</ele>
        <time>2021-06-26T08:51:06.000Z</time>
      </trkpt>
      <trkpt lat="45.21561" lon="5.73575">
        <ele>843.79998779297</ele>
        <time>2021-06-26T08:51:08.000Z</time>
      </trkpt>
      <trkpt lat="45.2156" lon="5.73578">
        <ele>843.20001220703</ele>
        <time>2021-06-26T08:51:10.000Z</time>
      </trkpt>
      <trkpt lat="45.21559" lon="5.73578">
        <ele>842.59997558594</ele>
        <time>2021-06-26T08:51:11.000Z</time>
      </trkpt>
      <trkpt lat="45.21553" lon="5.73577">
        <ele>841.40002441406</ele>
        <time>2021-06-26T08:51:15.000Z</time>
      </trkpt>
      <trkpt lat="45.2155" lon="5.73577">
        <ele>840.40002441406</ele>
        <time>2021-06-26T08:51:17.000Z</time>
      </trkpt>
      <trkpt lat="45.21549" lon="5.73577">
        <ele>840.40002441406</ele>
        <time>2021-06-26T08:51:18.000Z</time>
      </trkpt>
      <trkpt lat="45.21547" lon="5.73576">
        <ele>840</ele>
        <time>2021-06-26T08:51:19.000Z</time>
      </trkpt>
      <trkpt lat="45.21544" lon="5.73574">
        <ele>838.59997558594</ele>
        <time>2021-06-26T08:51:21.000Z</time>
      </trkpt>
      <trkpt lat="45.21542" lon="5.73572">
        <ele>838.59997558594</ele>
        <time>2021-06-26T08:51:22.000Z</time>
      </trkpt>
      <trkpt lat="45.21538" lon="5.73569">
        <ele>837.59997558594</ele>
        <time>2021-06-26T08:51:24.000Z</time>
      </trkpt>
      <trkpt lat="45.21537" lon="5.73568">
        <ele>837.59997558594</ele>
        <time>2021-06-26T08:51:25.000Z</time>
      </trkpt>
      <trkpt lat="45.21536" lon="5.73565">
        <ele>837.59997558594</ele>
        <time>2021-06-26T08:51:27.000Z</time>
      </trkpt>
      <trkpt lat="45.21536" lon="5.73559">
        <ele>836.20001220703</ele>
        <time>2021-06-26T08:51:29.000Z</time>
      </trkpt>
      <trkpt lat="45.21535" lon="5.73557">
        <ele>836.20001220703</ele>
        <time>2021-06-26T08:51:30.000Z</time>
      </trkpt>
      <trkpt lat="45.21535" lon="5.73555">
        <ele>836.20001220703</ele>
        <time>2021-06-26T08:51:31.000Z</time>
      </trkpt>
      <trkpt lat="45.21535" lon="5.73554">
        <ele>834.79998779297</ele>
        <time>2021-06-26T08:51:32.000Z</time>
      </trkpt>
      <trkpt lat="45.21534" lon="5.73551">
        <ele>834.59997558594</ele>
        <time>2021-06-26T08:51:34.000Z</time>
      </trkpt>
      <trkpt lat="45.21534" lon="5.73551">
        <ele>834.40002441406</ele>
        <time>2021-06-26T08:51:37.000Z</time>
      </trkpt>
      <trkpt lat="45.21534" lon="5.73553">
        <ele>834</ele>
        <time>2021-06-26T08:51:38.000Z</time>
      </trkpt>
      <trkpt lat="45.21534" lon="5.73556">
        <ele>833.20001220703</ele>
        <time>2021-06-26T08:51:40.000Z</time>
      </trkpt>
      <trkpt lat="45.21534" lon="5.7356">
        <ele>831.59997558594</ele>
        <time>2021-06-26T08:51:43.000Z</time>
      </trkpt>
      <trkpt lat="45.21534" lon="5.73562">
        <ele>831.40002441406</ele>
        <time>2021-06-26T08:51:44.000Z</time>
      </trkpt>
      <trkpt lat="45.21534" lon="5.73564">
        <ele>831.40002441406</ele>
        <time>2021-06-26T08:51:45.000Z</time>
      </trkpt>
      <trkpt lat="45.21534" lon="5.73566">
        <ele>831.20001220703</ele>
        <time>2021-06-26T08:51:46.000Z</time>
      </trkpt>
      <trkpt lat="45.21534" lon="5.73569">
        <ele>830.59997558594</ele>
        <time>2021-06-26T08:51:47.000Z</time>
      </trkpt>
      <trkpt lat="45.21535" lon="5.73574">
        <ele>829.20001220703</ele>
        <time>2021-06-26T08:51:49.000Z</time>
      </trkpt>
      <trkpt lat="45.21535" lon="5.73577">
        <ele>829.20001220703</ele>
        <time>2021-06-26T08:51:50.000Z</time>
      </trkpt>
      <trkpt lat="45.21537" lon="5.73584">
        <ele>828.20001220703</ele>
        <time>2021-06-26T08:51:53.000Z</time>
      </trkpt>
      <trkpt lat="45.21539" lon="5.73592">
        <ele>827.40002441406</ele>
        <time>2021-06-26T08:51:57.000Z</time>
      </trkpt>
      <trkpt lat="45.21539" lon="5.73594">
        <ele>825.79998779297</ele>
        <time>2021-06-26T08:51:58.000Z</time>
      </trkpt>
      <trkpt lat="45.2154" lon="5.73599">
        <ele>825.20001220703</ele>
        <time>2021-06-26T08:52:01.000Z</time>
      </trkpt>
      <trkpt lat="45.2154" lon="5.736">
        <ele>825</ele>
        <time>2021-06-26T08:52:02.000Z</time>
      </trkpt>
      <trkpt lat="45.21539" lon="5.73601">
        <ele>824.40002441406</ele>
        <time>2021-06-26T08:52:03.000Z</time>
      </trkpt>
      <trkpt lat="45.21538" lon="5.73599">
        <ele>823.40002441406</ele>
        <time>2021-06-26T08:52:05.000Z</time>
      </trkpt>
      <trkpt lat="45.21534" lon="5.73594">
        <ele>822</ele>
        <time>2021-06-26T08:52:09.000Z</time>
      </trkpt>
      <trkpt lat="45.21533" lon="5.73593">
        <ele>821.40002441406</ele>
        <time>2021-06-26T08:52:11.000Z</time>
      </trkpt>
      <trkpt lat="45.21532" lon="5.73593">
        <ele>821</ele>
        <time>2021-06-26T08:52:12.000Z</time>
      </trkpt>
      <trkpt lat="45.21532" lon="5.73596">
        <ele>820</ele>
        <time>2021-06-26T08:52:15.000Z</time>
      </trkpt>
      <trkpt lat="45.21532" lon="5.73598">
        <ele>820</ele>
        <time>2021-06-26T08:52:16.000Z</time>
      </trkpt>
      <trkpt lat="45.21533" lon="5.73607">
        <ele>819.40002441406</ele>
        <time>2021-06-26T08:52:21.000Z</time>
      </trkpt>
      <trkpt lat="45.21533" lon="5.73609">
        <ele>818</ele>
        <time>2021-06-26T08:52:22.000Z</time>
      </trkpt>
      <trkpt lat="45.21533" lon="5.73611">
        <ele>817.79998779297</ele>
        <time>2021-06-26T08:52:23.000Z</time>
      </trkpt>
      <trkpt lat="45.21533" lon="5.73613">
        <ele>816.79998779297</ele>
        <time>2021-06-26T08:52:26.000Z</time>
      </trkpt>
      <trkpt lat="45.2153" lon="5.73609">
        <ele>816</ele>
        <time>2021-06-26T08:52:30.000Z</time>
      </trkpt>
      <trkpt lat="45.2153" lon="5.73607">
        <ele>815.59997558594</ele>
        <time>2021-06-26T08:52:31.000Z</time>
      </trkpt>
      <trkpt lat="45.21526" lon="5.73603">
        <ele>814.59997558594</ele>
        <time>2021-06-26T08:52:34.000Z</time>
      </trkpt>
      <trkpt lat="45.21524" lon="5.73601">
        <ele>814.20001220703</ele>
        <time>2021-06-26T08:52:35.000Z</time>
      </trkpt>
      <trkpt lat="45.2152" lon="5.736">
        <ele>813.59997558594</ele>
        <time>2021-06-26T08:52:37.000Z</time>
      </trkpt>
      <trkpt lat="45.21519" lon="5.73599">
        <ele>813.40002441406</ele>
        <time>2021-06-26T08:52:38.000Z</time>
      </trkpt>
      <trkpt lat="45.21515" lon="5.73596">
        <ele>812.40002441406</ele>
        <time>2021-06-26T08:52:40.000Z</time>
      </trkpt>
      <trkpt lat="45.21515" lon="5.73596">
        <ele>812.40002441406</ele>
        <time>2021-06-26T08:52:41.000Z</time>
      </trkpt>
      <trkpt lat="45.21511" lon="5.73591">
        <ele>811.20001220703</ele>
        <time>2021-06-26T08:52:44.000Z</time>
      </trkpt>
      <trkpt lat="45.2151" lon="5.73588">
        <ele>810.79998779297</ele>
        <time>2021-06-26T08:52:45.000Z</time>
      </trkpt>
      <trkpt lat="45.21509" lon="5.73584">
        <ele>810.59997558594</ele>
        <time>2021-06-26T08:52:47.000Z</time>
      </trkpt>
      <trkpt lat="45.21509" lon="5.7358">
        <ele>809.79998779297</ele>
        <time>2021-06-26T08:52:50.000Z</time>
      </trkpt>
      <trkpt lat="45.21508" lon="5.73579">
        <ele>809.20001220703</ele>
        <time>2021-06-26T08:52:52.000Z</time>
      </trkpt>
      <trkpt lat="45.21508" lon="5.73581">
        <ele>808.79998779297</ele>
        <time>2021-06-26T08:52:53.000Z</time>
      </trkpt>
      <trkpt lat="45.21507" lon="5.73583">
        <ele>808.59997558594</ele>
        <time>2021-06-26T08:52:54.000Z</time>
      </trkpt>
      <trkpt lat="45.21506" lon="5.73587">
        <ele>807.79998779297</ele>
        <time>2021-06-26T08:52:56.000Z</time>
      </trkpt>
      <trkpt lat="45.21507" lon="5.73592">
        <ele>807.20001220703</ele>
        <time>2021-06-26T08:52:59.000Z</time>
      </trkpt>
      <trkpt lat="45.21507" lon="5.73594">
        <ele>806</ele>
        <time>2021-06-26T08:53:00.000Z</time>
      </trkpt>
      <trkpt lat="45.21508" lon="5.73596">
        <ele>805.79998779297</ele>
        <time>2021-06-26T08:53:01.000Z</time>
      </trkpt>
      <trkpt lat="45.21507" lon="5.73597">
        <ele>805.40002441406</ele>
        <time>2021-06-26T08:53:03.000Z</time>
      </trkpt>
      <trkpt lat="45.21506" lon="5.73596">
        <ele>804.79998779297</ele>
        <time>2021-06-26T08:53:04.000Z</time>
      </trkpt>
      <trkpt lat="45.21504" lon="5.73595">
        <ele>804.59997558594</ele>
        <time>2021-06-26T08:53:05.000Z</time>
      </trkpt>
      <trkpt lat="45.21503" lon="5.73591">
        <ele>803.79998779297</ele>
        <time>2021-06-26T08:53:07.000Z</time>
      </trkpt>
      <trkpt lat="45.21503" lon="5.7359">
        <ele>803.40002441406</ele>
        <time>2021-06-26T08:53:08.000Z</time>
      </trkpt>
      <trkpt lat="45.21502" lon="5.73586">
        <ele>803</ele>
        <time>2021-06-26T08:53:11.000Z</time>
      </trkpt>
      <trkpt lat="45.21502" lon="5.73582">
        <ele>802.20001220703</ele>
        <time>2021-06-26T08:53:13.000Z</time>
      </trkpt>
      <trkpt lat="45.21502" lon="5.73577">
        <ele>801.79998779297</ele>
        <time>2021-06-26T08:53:15.000Z</time>
      </trkpt>
      <trkpt lat="45.21502" lon="5.73572">
        <ele>801</ele>
        <time>2021-06-26T08:53:17.000Z</time>
      </trkpt>
      <trkpt lat="45.21503" lon="5.7357">
        <ele>800.59997558594</ele>
        <time>2021-06-26T08:53:18.000Z</time>
      </trkpt>
      <trkpt lat="45.21502" lon="5.73566">
        <ele>800.40002441406</ele>
        <time>2021-06-26T08:53:20.000Z</time>
      </trkpt>
      <trkpt lat="45.21499" lon="5.73562">
        <ele>799.59997558594</ele>
        <time>2021-06-26T08:53:22.000Z</time>
      </trkpt>
      <trkpt lat="45.21498" lon="5.73561">
        <ele>799</ele>
        <time>2021-06-26T08:53:23.000Z</time>
      </trkpt>
      <trkpt lat="45.21495" lon="5.7356">
        <ele>798.59997558594</ele>
        <time>2021-06-26T08:53:25.000Z</time>
      </trkpt>
      <trkpt lat="45.21488" lon="5.73555">
        <ele>797.20001220703</ele>
        <time>2021-06-26T08:53:30.000Z</time>
      </trkpt>
      <trkpt lat="45.21481" lon="5.73554">
        <ele>795.79998779297</ele>
        <time>2021-06-26T08:53:33.000Z</time>
      </trkpt>
      <trkpt lat="45.2148" lon="5.73553">
        <ele>795.59997558594</ele>
        <time>2021-06-26T08:53:34.000Z</time>
      </trkpt>
      <trkpt lat="45.21479" lon="5.73552">
        <ele>795.20001220703</ele>
        <time>2021-06-26T08:53:36.000Z</time>
      </trkpt>
      <trkpt lat="45.21479" lon="5.73551">
        <ele>795.20001220703</ele>
        <time>2021-06-26T08:53:37.000Z</time>
      </trkpt>
      <trkpt lat="45.21477" lon="5.73546">
        <ele>794.79998779297</ele>
        <time>2021-06-26T08:53:39.000Z</time>
      </trkpt>
      <trkpt lat="45.21475" lon="5.73541">
        <ele>793.79998779297</ele>
        <time>2021-06-26T08:53:42.000Z</time>
      </trkpt>
      <trkpt lat="45.21473" lon="5.73538">
        <ele>793.59997558594</ele>
        <time>2021-06-26T08:53:44.000Z</time>
      </trkpt>
      <trkpt lat="45.21468" lon="5.7353">
        <ele>792.40002441406</ele>
        <time>2021-06-26T08:53:48.000Z</time>
      </trkpt>
      <trkpt lat="45.21466" lon="5.73529">
        <ele>791.79998779297</ele>
        <time>2021-06-26T08:53:49.000Z</time>
      </trkpt>
      <trkpt lat="45.21464" lon="5.73526">
        <ele>791</ele>
        <time>2021-06-26T08:53:51.000Z</time>
      </trkpt>
      <trkpt lat="45.21464" lon="5.73516">
        <ele>790</ele>
        <time>2021-06-26T08:53:56.000Z</time>
      </trkpt>
      <trkpt lat="45.21462" lon="5.73502">
        <ele>788.79998779297</ele>
        <time>2021-06-26T08:54:01.000Z</time>
      </trkpt>
      <trkpt lat="45.21461" lon="5.73499">
        <ele>787.79998779297</ele>
        <time>2021-06-26T08:54:02.000Z</time>
      </trkpt>
      <trkpt lat="45.2146" lon="5.73497">
        <ele>787.40002441406</ele>
        <time>2021-06-26T08:54:03.000Z</time>
      </trkpt>
      <trkpt lat="45.21455" lon="5.73494">
        <ele>786</ele>
        <time>2021-06-26T08:54:06.000Z</time>
      </trkpt>
      <trkpt lat="45.21451" lon="5.73491">
        <ele>785</ele>
        <time>2021-06-26T08:54:09.000Z</time>
      </trkpt>
      <trkpt lat="45.21449" lon="5.73491">
        <ele>785</ele>
        <time>2021-06-26T08:54:10.000Z</time>
      </trkpt>
      <trkpt lat="45.21447" lon="5.7349">
        <ele>784.40002441406</ele>
        <time>2021-06-26T08:54:12.000Z</time>
      </trkpt>
      <trkpt lat="45.21445" lon="5.73488">
        <ele>783.79998779297</ele>
        <time>2021-06-26T08:54:13.000Z</time>
      </trkpt>
      <trkpt lat="45.21443" lon="5.73485">
        <ele>783.20001220703</ele>
        <time>2021-06-26T08:54:15.000Z</time>
      </trkpt>
      <trkpt lat="45.21442" lon="5.73483">
        <ele>782.79998779297</ele>
        <time>2021-06-26T08:54:16.000Z</time>
      </trkpt>
      <trkpt lat="45.2144" lon="5.73479">
        <ele>782.40002441406</ele>
        <time>2021-06-26T08:54:18.000Z</time>
      </trkpt>
      <trkpt lat="45.21439" lon="5.73475">
        <ele>781.40002441406</ele>
        <time>2021-06-26T08:54:20.000Z</time>
      </trkpt>
      <trkpt lat="45.21437" lon="5.73473">
        <ele>781.20001220703</ele>
        <time>2021-06-26T08:54:21.000Z</time>
      </trkpt>
      <trkpt lat="45.21434" lon="5.7347">
        <ele>779.79998779297</ele>
        <time>2021-06-26T08:54:23.000Z</time>
      </trkpt>
      <trkpt lat="45.21431" lon="5.73458">
        <ele>778.59997558594</ele>
        <time>2021-06-26T08:54:27.000Z</time>
      </trkpt>
      <trkpt lat="45.2143" lon="5.73456">
        <ele>778.59997558594</ele>
        <time>2021-06-26T08:54:29.000Z</time>
      </trkpt>
      <trkpt lat="45.21427" lon="5.73455">
        <ele>777.40002441406</ele>
        <time>2021-06-26T08:54:31.000Z</time>
      </trkpt>
      <trkpt lat="45.21422" lon="5.73452">
        <ele>776.20001220703</ele>
        <time>2021-06-26T08:54:34.000Z</time>
      </trkpt>
      <trkpt lat="45.2142" lon="5.73451">
        <ele>775.40002441406</ele>
        <time>2021-06-26T08:54:36.000Z</time>
      </trkpt>
      <trkpt lat="45.21419" lon="5.73449">
        <ele>775.40002441406</ele>
        <time>2021-06-26T08:54:37.000Z</time>
      </trkpt>
      <trkpt lat="45.21416" lon="5.73443">
        <ele>775.20001220703</ele>
        <time>2021-06-26T08:54:39.000Z</time>
      </trkpt>
      <trkpt lat="45.21415" lon="5.7344">
        <ele>774.20001220703</ele>
        <time>2021-06-26T08:54:41.000Z</time>
      </trkpt>
      <trkpt lat="45.21414" lon="5.73439">
        <ele>773.79998779297</ele>
        <time>2021-06-26T08:54:42.000Z</time>
      </trkpt>
      <trkpt lat="45.21414" lon="5.73438">
        <ele>773.59997558594</ele>
        <time>2021-06-26T08:54:43.000Z</time>
      </trkpt>
      <trkpt lat="45.21413" lon="5.73436">
        <ele>773.59997558594</ele>
        <time>2021-06-26T08:54:44.000Z</time>
      </trkpt>
      <trkpt lat="45.21412" lon="5.73431">
        <ele>773</ele>
        <time>2021-06-26T08:54:46.000Z</time>
      </trkpt>
      <trkpt lat="45.21411" lon="5.73428">
        <ele>772.40002441406</ele>
        <time>2021-06-26T08:54:47.000Z</time>
      </trkpt>
      <trkpt lat="45.2141" lon="5.73426">
        <ele>772</ele>
        <time>2021-06-26T08:54:48.000Z</time>
      </trkpt>
      <trkpt lat="45.21406" lon="5.73419">
        <ele>771.20001220703</ele>
        <time>2021-06-26T08:54:51.000Z</time>
      </trkpt>
      <trkpt lat="45.21403" lon="5.73416">
        <ele>770</ele>
        <time>2021-06-26T08:54:53.000Z</time>
      </trkpt>
      <trkpt lat="45.21401" lon="5.73413">
        <ele>769.79998779297</ele>
        <time>2021-06-26T08:54:54.000Z</time>
      </trkpt>
      <trkpt lat="45.21399" lon="5.73406">
        <ele>769.40002441406</ele>
        <time>2021-06-26T08:54:56.000Z</time>
      </trkpt>
      <trkpt lat="45.21397" lon="5.734">
        <ele>768.59997558594</ele>
        <time>2021-06-26T08:54:58.000Z</time>
      </trkpt>
      <trkpt lat="45.21394" lon="5.73393">
        <ele>767.40002441406</ele>
        <time>2021-06-26T08:55:01.000Z</time>
      </trkpt>
      <trkpt lat="45.21394" lon="5.73392">
        <ele>767.20001220703</ele>
        <time>2021-06-26T08:55:02.000Z</time>
      </trkpt>
      <trkpt lat="45.21392" lon="5.73392">
        <ele>766.20001220703</ele>
        <time>2021-06-26T08:55:03.000Z</time>
      </trkpt>
      <trkpt lat="45.21387" lon="5.7339">
        <ele>765.20001220703</ele>
        <time>2021-06-26T08:55:06.000Z</time>
      </trkpt>
      <trkpt lat="45.21386" lon="5.73389">
        <ele>764.79998779297</ele>
        <time>2021-06-26T08:55:07.000Z</time>
      </trkpt>
      <trkpt lat="45.21382" lon="5.73379">
        <ele>764.40002441406</ele>
        <time>2021-06-26T08:55:11.000Z</time>
      </trkpt>
      <trkpt lat="45.21381" lon="5.73377">
        <ele>764.40002441406</ele>
        <time>2021-06-26T08:55:12.000Z</time>
      </trkpt>
      <trkpt lat="45.21379" lon="5.73376">
        <ele>763.79998779297</ele>
        <time>2021-06-26T08:55:14.000Z</time>
      </trkpt>
      <trkpt lat="45.21374" lon="5.73373">
        <ele>762</ele>
        <time>2021-06-26T08:55:18.000Z</time>
      </trkpt>
      <trkpt lat="45.21373" lon="5.73371">
        <ele>761</ele>
        <time>2021-06-26T08:55:19.000Z</time>
      </trkpt>
      <trkpt lat="45.21372" lon="5.73369">
        <ele>761</ele>
        <time>2021-06-26T08:55:20.000Z</time>
      </trkpt>
      <trkpt lat="45.2137" lon="5.73366">
        <ele>759.79998779297</ele>
        <time>2021-06-26T08:55:21.000Z</time>
      </trkpt>
      <trkpt lat="45.21369" lon="5.73364">
        <ele>759.79998779297</ele>
        <time>2021-06-26T08:55:22.000Z</time>
      </trkpt>
      <trkpt lat="45.21368" lon="5.73354">
        <ele>759.40002441406</ele>
        <time>2021-06-26T08:55:26.000Z</time>
      </trkpt>
      <trkpt lat="45.21367" lon="5.73354">
        <ele>759</ele>
        <time>2021-06-26T08:55:27.000Z</time>
      </trkpt>
      <trkpt lat="45.21366" lon="5.73354">
        <ele>758.79998779297</ele>
        <time>2021-06-26T08:55:28.000Z</time>
      </trkpt>
      <trkpt lat="45.21365" lon="5.73352">
        <ele>758</ele>
        <time>2021-06-26T08:55:29.000Z</time>
      </trkpt>
      <trkpt lat="45.21363" lon="5.7335">
        <ele>757.40002441406</ele>
        <time>2021-06-26T08:55:31.000Z</time>
      </trkpt>
      <trkpt lat="45.21361" lon="5.73346">
        <ele>756.79998779297</ele>
        <time>2021-06-26T08:55:33.000Z</time>
      </trkpt>
      <trkpt lat="45.21357" lon="5.73341">
        <ele>756.59997558594</ele>
        <time>2021-06-26T08:55:35.000Z</time>
      </trkpt>
      <trkpt lat="45.21355" lon="5.7334">
        <ele>756</ele>
        <time>2021-06-26T08:55:36.000Z</time>
      </trkpt>
      <trkpt lat="45.2135" lon="5.73334">
        <ele>755.20001220703</ele>
        <time>2021-06-26T08:55:39.000Z</time>
      </trkpt>
      <trkpt lat="45.21348" lon="5.73332">
        <ele>754.59997558594</ele>
        <time>2021-06-26T08:55:40.000Z</time>
      </trkpt>
      <trkpt lat="45.21345" lon="5.73329">
        <ele>754.40002441406</ele>
        <time>2021-06-26T08:55:42.000Z</time>
      </trkpt>
      <trkpt lat="45.21339" lon="5.73326">
        <ele>752.40002441406</ele>
        <time>2021-06-26T08:55:45.000Z</time>
      </trkpt>
      <trkpt lat="45.21333" lon="5.73323">
        <ele>751.40002441406</ele>
        <time>2021-06-26T08:55:49.000Z</time>
      </trkpt>
      <trkpt lat="45.21331" lon="5.7332">
        <ele>750.59997558594</ele>
        <time>2021-06-26T08:55:51.000Z</time>
      </trkpt>
      <trkpt lat="45.2133" lon="5.73316">
        <ele>750.59997558594</ele>
        <time>2021-06-26T08:55:52.000Z</time>
      </trkpt>
      <trkpt lat="45.21329" lon="5.73309">
        <ele>750.20001220703</ele>
        <time>2021-06-26T08:55:55.000Z</time>
      </trkpt>
      <trkpt lat="45.21327" lon="5.73305">
        <ele>749.79998779297</ele>
        <time>2021-06-26T08:55:58.000Z</time>
      </trkpt>
      <trkpt lat="45.21327" lon="5.73306">
        <ele>749.40002441406</ele>
        <time>2021-06-26T08:55:59.000Z</time>
      </trkpt>
      <trkpt lat="45.21323" lon="5.73307">
        <ele>748.40002441406</ele>
        <time>2021-06-26T08:56:02.000Z</time>
      </trkpt>
      <trkpt lat="45.21321" lon="5.73307">
        <ele>748.20001220703</ele>
        <time>2021-06-26T08:56:03.000Z</time>
      </trkpt>
      <trkpt lat="45.21316" lon="5.73308">
        <ele>747.79998779297</ele>
        <time>2021-06-26T08:56:06.000Z</time>
      </trkpt>
      <trkpt lat="45.21315" lon="5.73308">
        <ele>747.20001220703</ele>
        <time>2021-06-26T08:56:07.000Z</time>
      </trkpt>
      <trkpt lat="45.21313" lon="5.73308">
        <ele>747</ele>
        <time>2021-06-26T08:56:08.000Z</time>
      </trkpt>
      <trkpt lat="45.21311" lon="5.73309">
        <ele>746</ele>
        <time>2021-06-26T08:56:09.000Z</time>
      </trkpt>
      <trkpt lat="45.21306" lon="5.73313">
        <ele>745</ele>
        <time>2021-06-26T08:56:12.000Z</time>
      </trkpt>
      <trkpt lat="45.21305" lon="5.73314">
        <ele>743.79998779297</ele>
        <time>2021-06-26T08:56:13.000Z</time>
      </trkpt>
      <trkpt lat="45.21304" lon="5.73314">
        <ele>743.79998779297</ele>
        <time>2021-06-26T08:56:14.000Z</time>
      </trkpt>
      <trkpt lat="45.21303" lon="5.73314">
        <ele>743.59997558594</ele>
        <time>2021-06-26T08:56:15.000Z</time>
      </trkpt>
      <trkpt lat="45.21301" lon="5.73313">
        <ele>743.59997558594</ele>
        <time>2021-06-26T08:56:16.000Z</time>
      </trkpt>
      <trkpt lat="45.213" lon="5.73312">
        <ele>742.79998779297</ele>
        <time>2021-06-26T08:56:17.000Z</time>
      </trkpt>
      <trkpt lat="45.21296" lon="5.73306">
        <ele>742.20001220703</ele>
        <time>2021-06-26T08:56:19.000Z</time>
      </trkpt>
      <trkpt lat="45.21294" lon="5.73303">
        <ele>742.20001220703</ele>
        <time>2021-06-26T08:56:20.000Z</time>
      </trkpt>
      <trkpt lat="45.21293" lon="5.73298">
        <ele>740.79998779297</ele>
        <time>2021-06-26T08:56:22.000Z</time>
      </trkpt>
      <trkpt lat="45.21292" lon="5.73292">
        <ele>740.20001220703</ele>
        <time>2021-06-26T08:56:25.000Z</time>
      </trkpt>
      <trkpt lat="45.21291" lon="5.73291">
        <ele>740.20001220703</ele>
        <time>2021-06-26T08:56:26.000Z</time>
      </trkpt>
      <trkpt lat="45.21289" lon="5.73291">
        <ele>739.59997558594</ele>
        <time>2021-06-26T08:56:27.000Z</time>
      </trkpt>
      <trkpt lat="45.21284" lon="5.73292">
        <ele>738.40002441406</ele>
        <time>2021-06-26T08:56:30.000Z</time>
      </trkpt>
      <trkpt lat="45.21282" lon="5.73291">
        <ele>738.40002441406</ele>
        <time>2021-06-26T08:56:31.000Z</time>
      </trkpt>
      <trkpt lat="45.21278" lon="5.73289">
        <ele>737.79998779297</ele>
        <time>2021-06-26T08:56:33.000Z</time>
      </trkpt>
      <trkpt lat="45.21275" lon="5.73288">
        <ele>737.40002441406</ele>
        <time>2021-06-26T08:56:35.000Z</time>
      </trkpt>
      <trkpt lat="45.21274" lon="5.73286">
        <ele>737.40002441406</ele>
        <time>2021-06-26T08:56:36.000Z</time>
      </trkpt>
      <trkpt lat="45.21272" lon="5.73285">
        <ele>737.20001220703</ele>
        <time>2021-06-26T08:56:37.000Z</time>
      </trkpt>
      <trkpt lat="45.2127" lon="5.73286">
        <ele>736</ele>
        <time>2021-06-26T08:56:39.000Z</time>
      </trkpt>
      <trkpt lat="45.21266" lon="5.73286">
        <ele>735.20001220703</ele>
        <time>2021-06-26T08:56:41.000Z</time>
      </trkpt>
      <trkpt lat="45.21264" lon="5.73286">
        <ele>734.59997558594</ele>
        <time>2021-06-26T08:56:42.000Z</time>
      </trkpt>
      <trkpt lat="45.21256" lon="5.73276">
        <ele>733.40002441406</ele>
        <time>2021-06-26T08:56:47.000Z</time>
      </trkpt>
      <trkpt lat="45.21256" lon="5.73272">
        <ele>732.59997558594</ele>
        <time>2021-06-26T08:56:48.000Z</time>
      </trkpt>
      <trkpt lat="45.21253" lon="5.73266">
        <ele>732.20001220703</ele>
        <time>2021-06-26T08:56:50.000Z</time>
      </trkpt>
      <trkpt lat="45.21249" lon="5.73256">
        <ele>731</ele>
        <time>2021-06-26T08:56:54.000Z</time>
      </trkpt>
      <trkpt lat="45.21247" lon="5.73252">
        <ele>730.40002441406</ele>
        <time>2021-06-26T08:56:56.000Z</time>
      </trkpt>
      <trkpt lat="45.21245" lon="5.73248">
        <ele>730</ele>
        <time>2021-06-26T08:56:58.000Z</time>
      </trkpt>
      <trkpt lat="45.21244" lon="5.73247">
        <ele>729.20001220703</ele>
        <time>2021-06-26T08:56:59.000Z</time>
      </trkpt>
      <trkpt lat="45.21242" lon="5.73245">
        <ele>728.59997558594</ele>
        <time>2021-06-26T08:57:02.000Z</time>
      </trkpt>
      <trkpt lat="45.21241" lon="5.73244">
        <ele>727.79998779297</ele>
        <time>2021-06-26T08:57:03.000Z</time>
      </trkpt>
      <trkpt lat="45.21238" lon="5.73242">
        <ele>726.59997558594</ele>
        <time>2021-06-26T08:57:05.000Z</time>
      </trkpt>
      <trkpt lat="45.21232" lon="5.7324">
        <ele>726.40002441406</ele>
        <time>2021-06-26T08:57:08.000Z</time>
      </trkpt>
      <trkpt lat="45.21231" lon="5.73239">
        <ele>725.59997558594</ele>
        <time>2021-06-26T08:57:09.000Z</time>
      </trkpt>
      <trkpt lat="45.2123" lon="5.73238">
        <ele>725.40002441406</ele>
        <time>2021-06-26T08:57:10.000Z</time>
      </trkpt>
      <trkpt lat="45.21227" lon="5.73234">
        <ele>724.40002441406</ele>
        <time>2021-06-26T08:57:12.000Z</time>
      </trkpt>
      <trkpt lat="45.21222" lon="5.7323">
        <ele>723.59997558594</ele>
        <time>2021-06-26T08:57:14.000Z</time>
      </trkpt>
      <trkpt lat="45.2122" lon="5.73229">
        <ele>723.40002441406</ele>
        <time>2021-06-26T08:57:15.000Z</time>
      </trkpt>
      <trkpt lat="45.21215" lon="5.73219">
        <ele>722.40002441406</ele>
        <time>2021-06-26T08:57:18.000Z</time>
      </trkpt>
      <trkpt lat="45.21214" lon="5.73213">
        <ele>721.40002441406</ele>
        <time>2021-06-26T08:57:20.000Z</time>
      </trkpt>
      <trkpt lat="45.21212" lon="5.73211">
        <ele>720.20001220703</ele>
        <time>2021-06-26T08:57:21.000Z</time>
      </trkpt>
      <trkpt lat="45.21207" lon="5.73208">
        <ele>719.59997558594</ele>
        <time>2021-06-26T08:57:24.000Z</time>
      </trkpt>
      <trkpt lat="45.21206" lon="5.73207">
        <ele>719.20001220703</ele>
        <time>2021-06-26T08:57:25.000Z</time>
      </trkpt>
      <trkpt lat="45.21205" lon="5.73206">
        <ele>718.59997558594</ele>
        <time>2021-06-26T08:57:26.000Z</time>
      </trkpt>
      <trkpt lat="45.21199" lon="5.73204">
        <ele>718</ele>
        <time>2021-06-26T08:57:29.000Z</time>
      </trkpt>
      <trkpt lat="45.21192" lon="5.73199">
        <ele>716</ele>
        <time>2021-06-26T08:57:33.000Z</time>
      </trkpt>
      <trkpt lat="45.21189" lon="5.73193">
        <ele>715.59997558594</ele>
        <time>2021-06-26T08:57:35.000Z</time>
      </trkpt>
      <trkpt lat="45.21186" lon="5.7319">
        <ele>715</ele>
        <time>2021-06-26T08:57:37.000Z</time>
      </trkpt>
      <trkpt lat="45.21183" lon="5.73187">
        <ele>714.59997558594</ele>
        <time>2021-06-26T08:57:39.000Z</time>
      </trkpt>
      <trkpt lat="45.21181" lon="5.73184">
        <ele>714.40002441406</ele>
        <time>2021-06-26T08:57:40.000Z</time>
      </trkpt>
      <trkpt lat="45.2118" lon="5.73182">
        <ele>714.40002441406</ele>
        <time>2021-06-26T08:57:41.000Z</time>
      </trkpt>
      <trkpt lat="45.21179" lon="5.7318">
        <ele>713</ele>
        <time>2021-06-26T08:57:42.000Z</time>
      </trkpt>
      <trkpt lat="45.21177" lon="5.73175">
        <ele>712</ele>
        <time>2021-06-26T08:57:44.000Z</time>
      </trkpt>
      <trkpt lat="45.21176" lon="5.73174">
        <ele>712</ele>
        <time>2021-06-26T08:57:45.000Z</time>
      </trkpt>
      <trkpt lat="45.21173" lon="5.7317">
        <ele>711.20001220703</ele>
        <time>2021-06-26T08:57:47.000Z</time>
      </trkpt>
      <trkpt lat="45.21169" lon="5.73165">
        <ele>710.79998779297</ele>
        <time>2021-06-26T08:57:50.000Z</time>
      </trkpt>
      <trkpt lat="45.21165" lon="5.73163">
        <ele>709.79998779297</ele>
        <time>2021-06-26T08:57:52.000Z</time>
      </trkpt>
      <trkpt lat="45.2116" lon="5.73159">
        <ele>709.20001220703</ele>
        <time>2021-06-26T08:57:55.000Z</time>
      </trkpt>
      <trkpt lat="45.21158" lon="5.73157">
        <ele>708.59997558594</ele>
        <time>2021-06-26T08:57:56.000Z</time>
      </trkpt>
      <trkpt lat="45.21157" lon="5.73155">
        <ele>708.40002441406</ele>
        <time>2021-06-26T08:57:57.000Z</time>
      </trkpt>
      <trkpt lat="45.21156" lon="5.7315">
        <ele>707.20001220703</ele>
        <time>2021-06-26T08:58:00.000Z</time>
      </trkpt>
      <trkpt lat="45.21154" lon="5.73149">
        <ele>706.59997558594</ele>
        <time>2021-06-26T08:58:01.000Z</time>
      </trkpt>
      <trkpt lat="45.21153" lon="5.73149">
        <ele>706.59997558594</ele>
        <time>2021-06-26T08:58:02.000Z</time>
      </trkpt>
      <trkpt lat="45.21151" lon="5.73148">
        <ele>706</ele>
        <time>2021-06-26T08:58:03.000Z</time>
      </trkpt>
      <trkpt lat="45.2115" lon="5.73147">
        <ele>705.79998779297</ele>
        <time>2021-06-26T08:58:04.000Z</time>
      </trkpt>
      <trkpt lat="45.21149" lon="5.73145">
        <ele>705.79998779297</ele>
        <time>2021-06-26T08:58:05.000Z</time>
      </trkpt>
      <trkpt lat="45.21147" lon="5.73143">
        <ele>705.40002441406</ele>
        <time>2021-06-26T08:58:06.000Z</time>
      </trkpt>
      <trkpt lat="45.21145" lon="5.73139">
        <ele>704.79998779297</ele>
        <time>2021-06-26T08:58:08.000Z</time>
      </trkpt>
      <trkpt lat="45.21143" lon="5.73137">
        <ele>704.20001220703</ele>
        <time>2021-06-26T08:58:10.000Z</time>
      </trkpt>
      <trkpt lat="45.21143" lon="5.73136">
        <ele>703.79998779297</ele>
        <time>2021-06-26T08:58:11.000Z</time>
      </trkpt>
      <trkpt lat="45.21137" lon="5.73134">
        <ele>702.40002441406</ele>
        <time>2021-06-26T08:58:16.000Z</time>
      </trkpt>
      <trkpt lat="45.21136" lon="5.73135">
        <ele>702</ele>
        <time>2021-06-26T08:58:18.000Z</time>
      </trkpt>
      <trkpt lat="45.21135" lon="5.73136">
        <ele>701.20001220703</ele>
        <time>2021-06-26T08:58:19.000Z</time>
      </trkpt>
      <trkpt lat="45.21129" lon="5.73139">
        <ele>700.20001220703</ele>
        <time>2021-06-26T08:58:22.000Z</time>
      </trkpt>
      <trkpt lat="45.21124" lon="5.73139">
        <ele>699.40002441406</ele>
        <time>2021-06-26T08:58:24.000Z</time>
      </trkpt>
      <trkpt lat="45.21121" lon="5.73138">
        <ele>699.40002441406</ele>
        <time>2021-06-26T08:58:25.000Z</time>
      </trkpt>
      <trkpt lat="45.21119" lon="5.73138">
        <ele>698.59997558594</ele>
        <time>2021-06-26T08:58:26.000Z</time>
      </trkpt>
      <trkpt lat="45.21117" lon="5.73139">
        <ele>698.20001220703</ele>
        <time>2021-06-26T08:58:27.000Z</time>
      </trkpt>
      <trkpt lat="45.21116" lon="5.73139">
        <ele>697.59997558594</ele>
        <time>2021-06-26T08:58:28.000Z</time>
      </trkpt>
      <trkpt lat="45.21115" lon="5.7314">
        <ele>697.20001220703</ele>
        <time>2021-06-26T08:58:29.000Z</time>
      </trkpt>
      <trkpt lat="45.21112" lon="5.73143">
        <ele>696.20001220703</ele>
        <time>2021-06-26T08:58:31.000Z</time>
      </trkpt>
      <trkpt lat="45.21111" lon="5.73144">
        <ele>695.79998779297</ele>
        <time>2021-06-26T08:58:33.000Z</time>
      </trkpt>
      <trkpt lat="45.21111" lon="5.73144">
        <ele>695.79998779297</ele>
        <time>2021-06-26T08:58:35.000Z</time>
      </trkpt>
      <trkpt lat="45.21113" lon="5.73144">
        <ele>694</ele>
        <time>2021-06-26T08:58:38.000Z</time>
      </trkpt>
      <trkpt lat="45.21114" lon="5.73144">
        <ele>693</ele>
        <time>2021-06-26T08:58:40.000Z</time>
      </trkpt>
      <trkpt lat="45.21121" lon="5.7314">
        <ele>691.79998779297</ele>
        <time>2021-06-26T08:58:43.000Z</time>
      </trkpt>
      <trkpt lat="45.21123" lon="5.73139">
        <ele>691.59997558594</ele>
        <time>2021-06-26T08:58:44.000Z</time>
      </trkpt>
      <trkpt lat="45.21127" lon="5.7314">
        <ele>690.59997558594</ele>
        <time>2021-06-26T08:58:47.000Z</time>
      </trkpt>
      <trkpt lat="45.21129" lon="5.7314">
        <ele>688.79998779297</ele>
        <time>2021-06-26T08:58:49.000Z</time>
      </trkpt>
      <trkpt lat="45.21129" lon="5.7314">
        <ele>688.79998779297</ele>
        <time>2021-06-26T08:58:50.000Z</time>
      </trkpt>
      <trkpt lat="45.21129" lon="5.73141">
        <ele>688.40002441406</ele>
        <time>2021-06-26T08:58:51.000Z</time>
      </trkpt>
      <trkpt lat="45.21128" lon="5.73142">
        <ele>687.59997558594</ele>
        <time>2021-06-26T08:58:53.000Z</time>
      </trkpt>
      <trkpt lat="45.21121" lon="5.73146">
        <ele>686.20001220703</ele>
        <time>2021-06-26T08:58:57.000Z</time>
      </trkpt>
      <trkpt lat="45.21114" lon="5.73153">
        <ele>685.40002441406</ele>
        <time>2021-06-26T08:59:01.000Z</time>
      </trkpt>
      <trkpt lat="45.21112" lon="5.73154">
        <ele>685</ele>
        <time>2021-06-26T08:59:02.000Z</time>
      </trkpt>
      <trkpt lat="45.21111" lon="5.73155">
        <ele>684.79998779297</ele>
        <time>2021-06-26T08:59:03.000Z</time>
      </trkpt>
      <trkpt lat="45.21108" lon="5.73159">
        <ele>683.59997558594</ele>
        <time>2021-06-26T08:59:06.000Z</time>
      </trkpt>
      <trkpt lat="45.21105" lon="5.73161">
        <ele>683</ele>
        <time>2021-06-26T08:59:08.000Z</time>
      </trkpt>
      <trkpt lat="45.21104" lon="5.7316">
        <ele>683</ele>
        <time>2021-06-26T08:59:09.000Z</time>
      </trkpt>
      <trkpt lat="45.21103" lon="5.73159">
        <ele>682.20001220703</ele>
        <time>2021-06-26T08:59:10.000Z</time>
      </trkpt>
      <trkpt lat="45.21091" lon="5.73151">
        <ele>680.59997558594</ele>
        <time>2021-06-26T08:59:16.000Z</time>
      </trkpt>
      <trkpt lat="45.21089" lon="5.73148">
        <ele>680</ele>
        <time>2021-06-26T08:59:17.000Z</time>
      </trkpt>
      <trkpt lat="45.21086" lon="5.73143">
        <ele>679</ele>
        <time>2021-06-26T08:59:19.000Z</time>
      </trkpt>
      <trkpt lat="45.2108" lon="5.73141">
        <ele>678.59997558594</ele>
        <time>2021-06-26T08:59:22.000Z</time>
      </trkpt>
      <trkpt lat="45.21076" lon="5.7314">
        <ele>678</ele>
        <time>2021-06-26T08:59:24.000Z</time>
      </trkpt>
      <trkpt lat="45.21073" lon="5.73137">
        <ele>677.59997558594</ele>
        <time>2021-06-26T08:59:26.000Z</time>
      </trkpt>
      <trkpt lat="45.21072" lon="5.73134">
        <ele>676.59997558594</ele>
        <time>2021-06-26T08:59:27.000Z</time>
      </trkpt>
      <trkpt lat="45.21071" lon="5.73133">
        <ele>676.59997558594</ele>
        <time>2021-06-26T08:59:28.000Z</time>
      </trkpt>
      <trkpt lat="45.21069" lon="5.73133">
        <ele>675.79998779297</ele>
        <time>2021-06-26T08:59:32.000Z</time>
      </trkpt>
      <trkpt lat="45.21068" lon="5.73134">
        <ele>675.79998779297</ele>
        <time>2021-06-26T08:59:33.000Z</time>
      </trkpt>
      <trkpt lat="45.21068" lon="5.73134">
        <ele>675.40002441406</ele>
        <time>2021-06-26T08:59:34.000Z</time>
      </trkpt>
      <trkpt lat="45.21062" lon="5.73139">
        <ele>674.20001220703</ele>
        <time>2021-06-26T08:59:37.000Z</time>
      </trkpt>
      <trkpt lat="45.21056" lon="5.73141">
        <ele>673.40002441406</ele>
        <time>2021-06-26T08:59:40.000Z</time>
      </trkpt>
      <trkpt lat="45.21054" lon="5.73141">
        <ele>672.59997558594</ele>
        <time>2021-06-26T08:59:41.000Z</time>
      </trkpt>
      <trkpt lat="45.2105" lon="5.73141">
        <ele>672.40002441406</ele>
        <time>2021-06-26T08:59:43.000Z</time>
      </trkpt>
      <trkpt lat="45.21043" lon="5.7314">
        <ele>671.40002441406</ele>
        <time>2021-06-26T08:59:46.000Z</time>
      </trkpt>
      <trkpt lat="45.21041" lon="5.7314">
        <ele>671.20001220703</ele>
        <time>2021-06-26T08:59:47.000Z</time>
      </trkpt>
      <trkpt lat="45.21039" lon="5.73139">
        <ele>670.40002441406</ele>
        <time>2021-06-26T08:59:48.000Z</time>
      </trkpt>
      <trkpt lat="45.21033" lon="5.73135">
        <ele>670</ele>
        <time>2021-06-26T08:59:50.000Z</time>
      </trkpt>
      <trkpt lat="45.21031" lon="5.73134">
        <ele>670</ele>
        <time>2021-06-26T08:59:51.000Z</time>
      </trkpt>
      <trkpt lat="45.21026" lon="5.73131">
        <ele>669.20001220703</ele>
        <time>2021-06-26T08:59:53.000Z</time>
      </trkpt>
      <trkpt lat="45.21025" lon="5.7313">
        <ele>669.20001220703</ele>
        <time>2021-06-26T08:59:54.000Z</time>
      </trkpt>
      <trkpt lat="45.21022" lon="5.73129">
        <ele>668.40002441406</ele>
        <time>2021-06-26T08:59:56.000Z</time>
      </trkpt>
      <trkpt lat="45.2102" lon="5.73127">
        <ele>667.79998779297</ele>
        <time>2021-06-26T08:59:57.000Z</time>
      </trkpt>
      <trkpt lat="45.21016" lon="5.73122">
        <ele>667.40002441406</ele>
        <time>2021-06-26T09:00:01.000Z</time>
      </trkpt>
      <trkpt lat="45.21015" lon="5.73121">
        <ele>667</ele>
        <time>2021-06-26T09:00:02.000Z</time>
      </trkpt>
      <trkpt lat="45.21013" lon="5.73122">
        <ele>666.79998779297</ele>
        <time>2021-06-26T09:00:06.000Z</time>
      </trkpt>
      <trkpt lat="45.21012" lon="5.73124">
        <ele>666.59997558594</ele>
        <time>2021-06-26T09:00:07.000Z</time>
      </trkpt>
      <trkpt lat="45.21009" lon="5.73126">
        <ele>665.59997558594</ele>
        <time>2021-06-26T09:00:09.000Z</time>
      </trkpt>
      <trkpt lat="45.21006" lon="5.73127">
        <ele>665.59997558594</ele>
        <time>2021-06-26T09:00:10.000Z</time>
      </trkpt>
      <trkpt lat="45.21004" lon="5.73128">
        <ele>665.20001220703</ele>
        <time>2021-06-26T09:00:12.000Z</time>
      </trkpt>
      <trkpt lat="45.21005" lon="5.73127">
        <ele>664.20001220703</ele>
        <time>2021-06-26T09:00:14.000Z</time>
      </trkpt>
      <trkpt lat="45.21005" lon="5.73128">
        <ele>664.20001220703</ele>
        <time>2021-06-26T09:00:16.000Z</time>
      </trkpt>
      <trkpt lat="45.21005" lon="5.73129">
        <ele>662.79998779297</ele>
        <time>2021-06-26T09:00:17.000Z</time>
      </trkpt>
      <trkpt lat="45.21002" lon="5.73132">
        <ele>662.40002441406</ele>
        <time>2021-06-26T09:00:19.000Z</time>
      </trkpt>
      <trkpt lat="45.21" lon="5.73134">
        <ele>661.59997558594</ele>
        <time>2021-06-26T09:00:21.000Z</time>
      </trkpt>
      <trkpt lat="45.20999" lon="5.73137">
        <ele>660.79998779297</ele>
        <time>2021-06-26T09:00:23.000Z</time>
      </trkpt>
      <trkpt lat="45.20998" lon="5.73138">
        <ele>660.40002441406</ele>
        <time>2021-06-26T09:00:24.000Z</time>
      </trkpt>
      <trkpt lat="45.20993" lon="5.73141">
        <ele>658.59997558594</ele>
        <time>2021-06-26T09:00:30.000Z</time>
      </trkpt>
      <trkpt lat="45.20996" lon="5.73139">
        <ele>657.40002441406</ele>
        <time>2021-06-26T09:00:34.000Z</time>
      </trkpt>
      <trkpt lat="45.21" lon="5.73135">
        <ele>656.59997558594</ele>
        <time>2021-06-26T09:00:37.000Z</time>
      </trkpt>
      <trkpt lat="45.21002" lon="5.73132">
        <ele>656</ele>
        <time>2021-06-26T09:00:39.000Z</time>
      </trkpt>
      <trkpt lat="45.21005" lon="5.7313">
        <ele>654.79998779297</ele>
        <time>2021-06-26T09:00:41.000Z</time>
      </trkpt>
      <trkpt lat="45.21006" lon="5.7313">
        <ele>654.59997558594</ele>
        <time>2021-06-26T09:00:42.000Z</time>
      </trkpt>
      <trkpt lat="45.21007" lon="5.7313">
        <ele>654.59997558594</ele>
        <time>2021-06-26T09:00:43.000Z</time>
      </trkpt>
      <trkpt lat="45.21011" lon="5.73128">
        <ele>653.40002441406</ele>
        <time>2021-06-26T09:00:47.000Z</time>
      </trkpt>
      <trkpt lat="45.21011" lon="5.73128">
        <ele>653</ele>
        <time>2021-06-26T09:00:48.000Z</time>
      </trkpt>
      <trkpt lat="45.21011" lon="5.73127">
        <ele>653</ele>
        <time>2021-06-26T09:00:49.000Z</time>
      </trkpt>
      <trkpt lat="45.21014" lon="5.73126">
        <ele>652</ele>
        <time>2021-06-26T09:00:52.000Z</time>
      </trkpt>
      <trkpt lat="45.21015" lon="5.73125">
        <ele>652</ele>
        <time>2021-06-26T09:00:54.000Z</time>
      </trkpt>
      <trkpt lat="45.21016" lon="5.73125">
        <ele>651.20001220703</ele>
        <time>2021-06-26T09:00:58.000Z</time>
      </trkpt>
      <trkpt lat="45.21017" lon="5.73127">
        <ele>650.59997558594</ele>
        <time>2021-06-26T09:00:59.000Z</time>
      </trkpt>
      <trkpt lat="45.21018" lon="5.73128">
        <ele>650.40002441406</ele>
        <time>2021-06-26T09:01:00.000Z</time>
      </trkpt>
      <trkpt lat="45.21018" lon="5.7313">
        <ele>649.40002441406</ele>
        <time>2021-06-26T09:01:03.000Z</time>
      </trkpt>
      <trkpt lat="45.21019" lon="5.73131">
        <ele>648.79998779297</ele>
        <time>2021-06-26T09:01:04.000Z</time>
      </trkpt>
      <trkpt lat="45.21021" lon="5.73135">
        <ele>648.40002441406</ele>
        <time>2021-06-26T09:01:06.000Z</time>
      </trkpt>
      <trkpt lat="45.21022" lon="5.73135">
        <ele>648.20001220703</ele>
        <time>2021-06-26T09:01:07.000Z</time>
      </trkpt>
      <trkpt lat="45.21023" lon="5.73135">
        <ele>647.20001220703</ele>
        <time>2021-06-26T09:01:08.000Z</time>
      </trkpt>
      <trkpt lat="45.21026" lon="5.73138">
        <ele>646.40002441406</ele>
        <time>2021-06-26T09:01:10.000Z</time>
      </trkpt>
      <trkpt lat="45.2103" lon="5.73141">
        <ele>645.79998779297</ele>
        <time>2021-06-26T09:01:12.000Z</time>
      </trkpt>
      <trkpt lat="45.21031" lon="5.73143">
        <ele>645.79998779297</ele>
        <time>2021-06-26T09:01:13.000Z</time>
      </trkpt>
      <trkpt lat="45.21034" lon="5.73145">
        <ele>644.59997558594</ele>
        <time>2021-06-26T09:01:15.000Z</time>
      </trkpt>
      <trkpt lat="45.21035" lon="5.73146">
        <ele>644.40002441406</ele>
        <time>2021-06-26T09:01:16.000Z</time>
      </trkpt>
      <trkpt lat="45.21036" lon="5.73146">
        <ele>644.40002441406</ele>
        <time>2021-06-26T09:01:17.000Z</time>
      </trkpt>
      <trkpt lat="45.21038" lon="5.73147">
        <ele>644.40002441406</ele>
        <time>2021-06-26T09:01:18.000Z</time>
      </trkpt>
      <trkpt lat="45.21039" lon="5.73147">
        <ele>643.59997558594</ele>
        <time>2021-06-26T09:01:19.000Z</time>
      </trkpt>
      <trkpt lat="45.2104" lon="5.73147">
        <ele>643.40002441406</ele>
        <time>2021-06-26T09:01:20.000Z</time>
      </trkpt>
      <trkpt lat="45.21041" lon="5.73148">
        <ele>643</ele>
        <time>2021-06-26T09:01:22.000Z</time>
      </trkpt>
      <trkpt lat="45.21042" lon="5.73149">
        <ele>643</ele>
        <time>2021-06-26T09:01:23.000Z</time>
      </trkpt>
      <trkpt lat="45.21042" lon="5.7315">
        <ele>642</ele>
        <time>2021-06-26T09:01:24.000Z</time>
      </trkpt>
      <trkpt lat="45.21042" lon="5.73151">
        <ele>641.79998779297</ele>
        <time>2021-06-26T09:01:25.000Z</time>
      </trkpt>
      <trkpt lat="45.21047" lon="5.73157">
        <ele>640.59997558594</ele>
        <time>2021-06-26T09:01:29.000Z</time>
      </trkpt>
      <trkpt lat="45.2105" lon="5.73159">
        <ele>640.20001220703</ele>
        <time>2021-06-26T09:01:30.000Z</time>
      </trkpt>
      <trkpt lat="45.21053" lon="5.73163">
        <ele>639.20001220703</ele>
        <time>2021-06-26T09:01:32.000Z</time>
      </trkpt>
      <trkpt lat="45.21057" lon="5.73169">
        <ele>638.59997558594</ele>
        <time>2021-06-26T09:01:35.000Z</time>
      </trkpt>
      <trkpt lat="45.2106" lon="5.73175">
        <ele>638.20001220703</ele>
        <time>2021-06-26T09:01:37.000Z</time>
      </trkpt>
      <trkpt lat="45.21062" lon="5.73177">
        <ele>638</ele>
        <time>2021-06-26T09:01:38.000Z</time>
      </trkpt>
      <trkpt lat="45.21066" lon="5.73184">
        <ele>636.59997558594</ele>
        <time>2021-06-26T09:01:41.000Z</time>
      </trkpt>
      <trkpt lat="45.21068" lon="5.73188">
        <ele>636.40002441406</ele>
        <time>2021-06-26T09:01:43.000Z</time>
      </trkpt>
      <trkpt lat="45.21072" lon="5.73196">
        <ele>635.20001220703</ele>
        <time>2021-06-26T09:01:47.000Z</time>
      </trkpt>
      <trkpt lat="45.21072" lon="5.73199">
        <ele>634.59997558594</ele>
        <time>2021-06-26T09:01:49.000Z</time>
      </trkpt>
      <trkpt lat="45.21071" lon="5.732">
        <ele>634.20001220703</ele>
        <time>2021-06-26T09:01:50.000Z</time>
      </trkpt>
      <trkpt lat="45.21069" lon="5.73201">
        <ele>634</ele>
        <time>2021-06-26T09:01:51.000Z</time>
      </trkpt>
      <trkpt lat="45.21066" lon="5.73201">
        <ele>632.79998779297</ele>
        <time>2021-06-26T09:01:53.000Z</time>
      </trkpt>
      <trkpt lat="45.21066" lon="5.73201">
        <ele>632.79998779297</ele>
        <time>2021-06-26T09:01:54.000Z</time>
      </trkpt>
      <trkpt lat="45.21065" lon="5.732">
        <ele>632.40002441406</ele>
        <time>2021-06-26T09:01:55.000Z</time>
      </trkpt>
      <trkpt lat="45.21061" lon="5.732">
        <ele>631.79998779297</ele>
        <time>2021-06-26T09:01:58.000Z</time>
      </trkpt>
      <trkpt lat="45.21057" lon="5.73199">
        <ele>630.79998779297</ele>
        <time>2021-06-26T09:02:01.000Z</time>
      </trkpt>
      <trkpt lat="45.21051" lon="5.73196">
        <ele>629.79998779297</ele>
        <time>2021-06-26T09:02:05.000Z</time>
      </trkpt>
      <trkpt lat="45.21049" lon="5.73196">
        <ele>629</ele>
        <time>2021-06-26T09:02:06.000Z</time>
      </trkpt>
      <trkpt lat="45.21048" lon="5.73195">
        <ele>628.79998779297</ele>
        <time>2021-06-26T09:02:07.000Z</time>
      </trkpt>
      <trkpt lat="45.21046" lon="5.73195">
        <ele>628.59997558594</ele>
        <time>2021-06-26T09:02:09.000Z</time>
      </trkpt>
      <trkpt lat="45.21044" lon="5.73195">
        <ele>628</ele>
        <time>2021-06-26T09:02:12.000Z</time>
      </trkpt>
      <trkpt lat="45.21043" lon="5.73196">
        <ele>627.59997558594</ele>
        <time>2021-06-26T09:02:13.000Z</time>
      </trkpt>
      <trkpt lat="45.21034" lon="5.732">
        <ele>626.20001220703</ele>
        <time>2021-06-26T09:02:17.000Z</time>
      </trkpt>
      <trkpt lat="45.21032" lon="5.732">
        <ele>625.79998779297</ele>
        <time>2021-06-26T09:02:18.000Z</time>
      </trkpt>
      <trkpt lat="45.21026" lon="5.73199">
        <ele>625.59997558594</ele>
        <time>2021-06-26T09:02:20.000Z</time>
      </trkpt>
      <trkpt lat="45.21024" lon="5.73198">
        <ele>625.20001220703</ele>
        <time>2021-06-26T09:02:21.000Z</time>
      </trkpt>
      <trkpt lat="45.2102" lon="5.73197">
        <ele>623.79998779297</ele>
        <time>2021-06-26T09:02:23.000Z</time>
      </trkpt>
      <trkpt lat="45.21018" lon="5.73195">
        <ele>623.79998779297</ele>
        <time>2021-06-26T09:02:24.000Z</time>
      </trkpt>
      <trkpt lat="45.21017" lon="5.73193">
        <ele>623.59997558594</ele>
        <time>2021-06-26T09:02:25.000Z</time>
      </trkpt>
      <trkpt lat="45.21015" lon="5.73189">
        <ele>623.20001220703</ele>
        <time>2021-06-26T09:02:27.000Z</time>
      </trkpt>
      <trkpt lat="45.21011" lon="5.73183">
        <ele>622.40002441406</ele>
        <time>2021-06-26T09:02:30.000Z</time>
      </trkpt>
      <trkpt lat="45.21007" lon="5.73184">
        <ele>621.59997558594</ele>
        <time>2021-06-26T09:02:34.000Z</time>
      </trkpt>
      <trkpt lat="45.21007" lon="5.73184">
        <ele>621</ele>
        <time>2021-06-26T09:02:35.000Z</time>
      </trkpt>
      <trkpt lat="45.21005" lon="5.73185">
        <ele>620.79998779297</ele>
        <time>2021-06-26T09:02:37.000Z</time>
      </trkpt>
      <trkpt lat="45.21004" lon="5.73188">
        <ele>620.79998779297</ele>
        <time>2021-06-26T09:02:39.000Z</time>
      </trkpt>
      <trkpt lat="45.21002" lon="5.73191">
        <ele>619.59997558594</ele>
        <time>2021-06-26T09:02:41.000Z</time>
      </trkpt>
      <trkpt lat="45.21" lon="5.73193">
        <ele>618.79998779297</ele>
        <time>2021-06-26T09:02:43.000Z</time>
      </trkpt>
      <trkpt lat="45.20999" lon="5.73193">
        <ele>618.20001220703</ele>
        <time>2021-06-26T09:02:44.000Z</time>
      </trkpt>
      <trkpt lat="45.20995" lon="5.73196">
        <ele>618</ele>
        <time>2021-06-26T09:02:46.000Z</time>
      </trkpt>
      <trkpt lat="45.20991" lon="5.73199">
        <ele>617.40002441406</ele>
        <time>2021-06-26T09:02:48.000Z</time>
      </trkpt>
      <trkpt lat="45.2099" lon="5.732">
        <ele>616.79998779297</ele>
        <time>2021-06-26T09:02:49.000Z</time>
      </trkpt>
      <trkpt lat="45.2099" lon="5.73202">
        <ele>616.59997558594</ele>
        <time>2021-06-26T09:02:50.000Z</time>
      </trkpt>
      <trkpt lat="45.20988" lon="5.73206">
        <ele>615.59997558594</ele>
        <time>2021-06-26T09:02:53.000Z</time>
      </trkpt>
      <trkpt lat="45.20981" lon="5.7321">
        <ele>614.59997558594</ele>
        <time>2021-06-26T09:02:56.000Z</time>
      </trkpt>
      <trkpt lat="45.20975" lon="5.73213">
        <ele>613.79998779297</ele>
        <time>2021-06-26T09:02:59.000Z</time>
      </trkpt>
      <trkpt lat="45.20974" lon="5.73213">
        <ele>612.59997558594</ele>
        <time>2021-06-26T09:03:00.000Z</time>
      </trkpt>
      <trkpt lat="45.20975" lon="5.73214">
        <ele>612</ele>
        <time>2021-06-26T09:03:03.000Z</time>
      </trkpt>
      <trkpt lat="45.20976" lon="5.73213">
        <ele>611.20001220703</ele>
        <time>2021-06-26T09:03:04.000Z</time>
      </trkpt>
      <trkpt lat="45.20979" lon="5.73211">
        <ele>611</ele>
        <time>2021-06-26T09:03:06.000Z</time>
      </trkpt>
      <trkpt lat="45.20981" lon="5.73209">
        <ele>610.79998779297</ele>
        <time>2021-06-26T09:03:08.000Z</time>
      </trkpt>
      <trkpt lat="45.20983" lon="5.73209">
        <ele>609.59997558594</ele>
        <time>2021-06-26T09:03:10.000Z</time>
      </trkpt>
      <trkpt lat="45.20981" lon="5.7321">
        <ele>609.59997558594</ele>
        <time>2021-06-26T09:03:12.000Z</time>
      </trkpt>
      <trkpt lat="45.20974" lon="5.73212">
        <ele>608</ele>
        <time>2021-06-26T09:03:16.000Z</time>
      </trkpt>
      <trkpt lat="45.2097" lon="5.73213">
        <ele>607.20001220703</ele>
        <time>2021-06-26T09:03:18.000Z</time>
      </trkpt>
      <trkpt lat="45.20965" lon="5.73213">
        <ele>606.79998779297</ele>
        <time>2021-06-26T09:03:20.000Z</time>
      </trkpt>
      <trkpt lat="45.20964" lon="5.73219">
        <ele>606.20001220703</ele>
        <time>2021-06-26T09:03:22.000Z</time>
      </trkpt>
      <trkpt lat="45.20961" lon="5.73222">
        <ele>605</ele>
        <time>2021-06-26T09:03:24.000Z</time>
      </trkpt>
      <trkpt lat="45.20955" lon="5.73226">
        <ele>604</ele>
        <time>2021-06-26T09:03:28.000Z</time>
      </trkpt>
      <trkpt lat="45.20948" lon="5.7323">
        <ele>602.79998779297</ele>
        <time>2021-06-26T09:03:32.000Z</time>
      </trkpt>
      <trkpt lat="45.20943" lon="5.73232">
        <ele>601.79998779297</ele>
        <time>2021-06-26T09:03:35.000Z</time>
      </trkpt>
      <trkpt lat="45.20941" lon="5.73233">
        <ele>601.20001220703</ele>
        <time>2021-06-26T09:03:36.000Z</time>
      </trkpt>
      <trkpt lat="45.20939" lon="5.73233">
        <ele>601.20001220703</ele>
        <time>2021-06-26T09:03:37.000Z</time>
      </trkpt>
      <trkpt lat="45.20934" lon="5.73229">
        <ele>600.20001220703</ele>
        <time>2021-06-26T09:03:40.000Z</time>
      </trkpt>
      <trkpt lat="45.20932" lon="5.73228">
        <ele>600</ele>
        <time>2021-06-26T09:03:41.000Z</time>
      </trkpt>
      <trkpt lat="45.20927" lon="5.73227">
        <ele>598.79998779297</ele>
        <time>2021-06-26T09:03:44.000Z</time>
      </trkpt>
      <trkpt lat="45.20928" lon="5.73227">
        <ele>598</ele>
        <time>2021-06-26T09:03:46.000Z</time>
      </trkpt>
      <trkpt lat="45.20933" lon="5.73228">
        <ele>597.59997558594</ele>
        <time>2021-06-26T09:03:49.000Z</time>
      </trkpt>
      <trkpt lat="45.20937" lon="5.73228">
        <ele>596.59997558594</ele>
        <time>2021-06-26T09:03:51.000Z</time>
      </trkpt>
      <trkpt lat="45.20939" lon="5.73228">
        <ele>596.59997558594</ele>
        <time>2021-06-26T09:03:52.000Z</time>
      </trkpt>
      <trkpt lat="45.2094" lon="5.73229">
        <ele>596.59997558594</ele>
        <time>2021-06-26T09:03:53.000Z</time>
      </trkpt>
      <trkpt lat="45.20944" lon="5.73231">
        <ele>595.59997558594</ele>
        <time>2021-06-26T09:03:55.000Z</time>
      </trkpt>
      <trkpt lat="45.20948" lon="5.73231">
        <ele>594.79998779297</ele>
        <time>2021-06-26T09:03:57.000Z</time>
      </trkpt>
      <trkpt lat="45.2095" lon="5.73231">
        <ele>594.40002441406</ele>
        <time>2021-06-26T09:03:58.000Z</time>
      </trkpt>
      <trkpt lat="45.20957" lon="5.73232">
        <ele>593.40002441406</ele>
        <time>2021-06-26T09:04:02.000Z</time>
      </trkpt>
      <trkpt lat="45.20959" lon="5.73233">
        <ele>593</ele>
        <time>2021-06-26T09:04:03.000Z</time>
      </trkpt>
      <trkpt lat="45.2096" lon="5.73233">
        <ele>592.59997558594</ele>
        <time>2021-06-26T09:04:04.000Z</time>
      </trkpt>
      <trkpt lat="45.20961" lon="5.73233">
        <ele>591.79998779297</ele>
        <time>2021-06-26T09:04:05.000Z</time>
      </trkpt>
      <trkpt lat="45.20966" lon="5.73234">
        <ele>590.59997558594</ele>
        <time>2021-06-26T09:04:08.000Z</time>
      </trkpt>
      <trkpt lat="45.20973" lon="5.73238">
        <ele>589.20001220703</ele>
        <time>2021-06-26T09:04:13.000Z</time>
      </trkpt>
      <trkpt lat="45.20975" lon="5.73239">
        <ele>588.59997558594</ele>
        <time>2021-06-26T09:04:14.000Z</time>
      </trkpt>
      <trkpt lat="45.20977" lon="5.7324">
        <ele>588.59997558594</ele>
        <time>2021-06-26T09:04:16.000Z</time>
      </trkpt>
      <trkpt lat="45.20977" lon="5.73241">
        <ele>588.20001220703</ele>
        <time>2021-06-26T09:04:17.000Z</time>
      </trkpt>
      <trkpt lat="45.20972" lon="5.73246">
        <ele>587.20001220703</ele>
        <time>2021-06-26T09:04:21.000Z</time>
      </trkpt>
      <trkpt lat="45.20971" lon="5.73249">
        <ele>586</ele>
        <time>2021-06-26T09:04:22.000Z</time>
      </trkpt>
      <trkpt lat="45.20971" lon="5.73249">
        <ele>585.79998779297</ele>
        <time>2021-06-26T09:04:23.000Z</time>
      </trkpt>
      <trkpt lat="45.20968" lon="5.73251">
        <ele>585.40002441406</ele>
        <time>2021-06-26T09:04:25.000Z</time>
      </trkpt>
      <trkpt lat="45.20965" lon="5.73251">
        <ele>584.59997558594</ele>
        <time>2021-06-26T09:04:27.000Z</time>
      </trkpt>
      <trkpt lat="45.20964" lon="5.73253">
        <ele>584.40002441406</ele>
        <time>2021-06-26T09:04:28.000Z</time>
      </trkpt>
      <trkpt lat="45.20961" lon="5.73255">
        <ele>583.79998779297</ele>
        <time>2021-06-26T09:04:30.000Z</time>
      </trkpt>
      <trkpt lat="45.20959" lon="5.73255">
        <ele>583.40002441406</ele>
        <time>2021-06-26T09:04:31.000Z</time>
      </trkpt>
      <trkpt lat="45.20956" lon="5.73256">
        <ele>582.59997558594</ele>
        <time>2021-06-26T09:04:33.000Z</time>
      </trkpt>
      <trkpt lat="45.20954" lon="5.73259">
        <ele>582.20001220703</ele>
        <time>2021-06-26T09:04:35.000Z</time>
      </trkpt>
      <trkpt lat="45.20951" lon="5.73261">
        <ele>581.20001220703</ele>
        <time>2021-06-26T09:04:37.000Z</time>
      </trkpt>
      <trkpt lat="45.20946" lon="5.73262">
        <ele>580</ele>
        <time>2021-06-26T09:04:41.000Z</time>
      </trkpt>
      <trkpt lat="45.20944" lon="5.73262">
        <ele>580</ele>
        <time>2021-06-26T09:04:42.000Z</time>
      </trkpt>
      <trkpt lat="45.2094" lon="5.73263">
        <ele>579.20001220703</ele>
        <time>2021-06-26T09:04:44.000Z</time>
      </trkpt>
      <trkpt lat="45.20938" lon="5.73263">
        <ele>578.59997558594</ele>
        <time>2021-06-26T09:04:45.000Z</time>
      </trkpt>
      <trkpt lat="45.20935" lon="5.73262">
        <ele>577.79998779297</ele>
        <time>2021-06-26T09:04:47.000Z</time>
      </trkpt>
      <trkpt lat="45.20934" lon="5.73261">
        <ele>577.79998779297</ele>
        <time>2021-06-26T09:04:48.000Z</time>
      </trkpt>
      <trkpt lat="45.20931" lon="5.7326">
        <ele>577.20001220703</ele>
        <time>2021-06-26T09:04:50.000Z</time>
      </trkpt>
      <trkpt lat="45.20926" lon="5.73257">
        <ele>576</ele>
        <time>2021-06-26T09:04:54.000Z</time>
      </trkpt>
      <trkpt lat="45.20925" lon="5.73257">
        <ele>576</ele>
        <time>2021-06-26T09:04:55.000Z</time>
      </trkpt>
      <trkpt lat="45.20919" lon="5.73254">
        <ele>575</ele>
        <time>2021-06-26T09:04:59.000Z</time>
      </trkpt>
      <trkpt lat="45.20915" lon="5.73254">
        <ele>574</ele>
        <time>2021-06-26T09:05:01.000Z</time>
      </trkpt>
      <trkpt lat="45.20913" lon="5.73253">
        <ele>573.79998779297</ele>
        <time>2021-06-26T09:05:03.000Z</time>
      </trkpt>
      <trkpt lat="45.20909" lon="5.73253">
        <ele>573.40002441406</ele>
        <time>2021-06-26T09:05:06.000Z</time>
      </trkpt>
      <trkpt lat="45.20909" lon="5.73254">
        <ele>572.79998779297</ele>
        <time>2021-06-26T09:05:07.000Z</time>
      </trkpt>
      <trkpt lat="45.20912" lon="5.73257">
        <ele>572</ele>
        <time>2021-06-26T09:05:10.000Z</time>
      </trkpt>
      <trkpt lat="45.20913" lon="5.7326">
        <ele>571.40002441406</ele>
        <time>2021-06-26T09:05:12.000Z</time>
      </trkpt>
      <trkpt lat="45.20914" lon="5.7326">
        <ele>571.20001220703</ele>
        <time>2021-06-26T09:05:13.000Z</time>
      </trkpt>
      <trkpt lat="45.20917" lon="5.73263">
        <ele>570.40002441406</ele>
        <time>2021-06-26T09:05:16.000Z</time>
      </trkpt>
      <trkpt lat="45.20922" lon="5.73268">
        <ele>569.20001220703</ele>
        <time>2021-06-26T09:05:21.000Z</time>
      </trkpt>
      <trkpt lat="45.20923" lon="5.73269">
        <ele>568.59997558594</ele>
        <time>2021-06-26T09:05:22.000Z</time>
      </trkpt>
      <trkpt lat="45.20926" lon="5.73271">
        <ele>568.20001220703</ele>
        <time>2021-06-26T09:05:24.000Z</time>
      </trkpt>
      <trkpt lat="45.20931" lon="5.73275">
        <ele>567</ele>
        <time>2021-06-26T09:05:27.000Z</time>
      </trkpt>
      <trkpt lat="45.20932" lon="5.73277">
        <ele>566.59997558594</ele>
        <time>2021-06-26T09:05:28.000Z</time>
      </trkpt>
      <trkpt lat="45.20935" lon="5.73281">
        <ele>566</ele>
        <time>2021-06-26T09:05:30.000Z</time>
      </trkpt>
      <trkpt lat="45.20937" lon="5.73282">
        <ele>565.20001220703</ele>
        <time>2021-06-26T09:05:32.000Z</time>
      </trkpt>
      <trkpt lat="45.2094" lon="5.7328">
        <ele>565</ele>
        <time>2021-06-26T09:05:34.000Z</time>
      </trkpt>
      <trkpt lat="45.20947" lon="5.73277">
        <ele>563.40002441406</ele>
        <time>2021-06-26T09:05:38.000Z</time>
      </trkpt>
      <trkpt lat="45.20951" lon="5.73277">
        <ele>562.59997558594</ele>
        <time>2021-06-26T09:05:40.000Z</time>
      </trkpt>
      <trkpt lat="45.20953" lon="5.73278">
        <ele>562.40002441406</ele>
        <time>2021-06-26T09:05:41.000Z</time>
      </trkpt>
      <trkpt lat="45.20955" lon="5.73279">
        <ele>562.40002441406</ele>
        <time>2021-06-26T09:05:42.000Z</time>
      </trkpt>
      <trkpt lat="45.2096" lon="5.73281">
        <ele>560.79998779297</ele>
        <time>2021-06-26T09:05:45.000Z</time>
      </trkpt>
      <trkpt lat="45.20963" lon="5.73281">
        <ele>560.79998779297</ele>
        <time>2021-06-26T09:05:47.000Z</time>
      </trkpt>
      <trkpt lat="45.20967" lon="5.73281">
        <ele>560.40002441406</ele>
        <time>2021-06-26T09:05:49.000Z</time>
      </trkpt>
      <trkpt lat="45.2097" lon="5.73282">
        <ele>560</ele>
        <time>2021-06-26T09:05:52.000Z</time>
      </trkpt>
      <trkpt lat="45.20972" lon="5.73283">
        <ele>559.20001220703</ele>
        <time>2021-06-26T09:05:53.000Z</time>
      </trkpt>
      <trkpt lat="45.20974" lon="5.73284">
        <ele>558.20001220703</ele>
        <time>2021-06-26T09:05:55.000Z</time>
      </trkpt>
      <trkpt lat="45.20979" lon="5.73286">
        <ele>557.20001220703</ele>
        <time>2021-06-26T09:05:59.000Z</time>
      </trkpt>
      <trkpt lat="45.20982" lon="5.73286">
        <ele>557</ele>
        <time>2021-06-26T09:06:01.000Z</time>
      </trkpt>
      <trkpt lat="45.20983" lon="5.73287">
        <ele>557</ele>
        <time>2021-06-26T09:06:02.000Z</time>
      </trkpt>
      <trkpt lat="45.20984" lon="5.73286">
        <ele>557</ele>
        <time>2021-06-26T09:06:08.000Z</time>
      </trkpt>
      <trkpt lat="45.20987" lon="5.73286">
        <ele>557</ele>
        <time>2021-06-26T09:06:17.000Z</time>
      </trkpt>
      <trkpt lat="45.20987" lon="5.73286">
        <ele>557</ele>
        <time>2021-06-26T09:06:20.000Z</time>
      </trkpt>
      <trkpt lat="45.20987" lon="5.73286">
        <ele>557</ele>
        <time>2021-06-26T09:06:22.000Z</time>
      </trkpt>
      <trkpt lat="45.20987" lon="5.73286">
        <ele>557</ele>
        <time>2021-06-26T09:06:27.000Z</time>
      </trkpt>
      <trkpt lat="45.20983" lon="5.7329">
        <ele>556.20001220703</ele>
        <time>2021-06-26T09:06:33.000Z</time>
      </trkpt>
      <trkpt lat="45.20982" lon="5.73291">
        <ele>556</ele>
        <time>2021-06-26T09:06:34.000Z</time>
      </trkpt>
      <trkpt lat="45.20979" lon="5.73292">
        <ele>555.20001220703</ele>
        <time>2021-06-26T09:06:36.000Z</time>
      </trkpt>
      <trkpt lat="45.20977" lon="5.73291">
        <ele>554.79998779297</ele>
        <time>2021-06-26T09:06:38.000Z</time>
      </trkpt>
      <trkpt lat="45.20974" lon="5.7329">
        <ele>554.20001220703</ele>
        <time>2021-06-26T09:06:40.000Z</time>
      </trkpt>
      <trkpt lat="45.20972" lon="5.73291">
        <ele>554</ele>
        <time>2021-06-26T09:06:41.000Z</time>
      </trkpt>
      <trkpt lat="45.2097" lon="5.73293">
        <ele>553.59997558594</ele>
        <time>2021-06-26T09:06:42.000Z</time>
      </trkpt>
      <trkpt lat="45.20963" lon="5.73295">
        <ele>552.40002441406</ele>
        <time>2021-06-26T09:06:46.000Z</time>
      </trkpt>
      <trkpt lat="45.20961" lon="5.73296">
        <ele>551.59997558594</ele>
        <time>2021-06-26T09:06:47.000Z</time>
      </trkpt>
      <trkpt lat="45.20958" lon="5.73299">
        <ele>551.20001220703</ele>
        <time>2021-06-26T09:06:50.000Z</time>
      </trkpt>
      <trkpt lat="45.20957" lon="5.733">
        <ele>550.79998779297</ele>
        <time>2021-06-26T09:06:51.000Z</time>
      </trkpt>
      <trkpt lat="45.2095" lon="5.73307">
        <ele>550</ele>
        <time>2021-06-26T09:06:55.000Z</time>
      </trkpt>
      <trkpt lat="45.20948" lon="5.73308">
        <ele>549.40002441406</ele>
        <time>2021-06-26T09:06:57.000Z</time>
      </trkpt>
      <trkpt lat="45.20947" lon="5.73307">
        <ele>549.20001220703</ele>
        <time>2021-06-26T09:06:58.000Z</time>
      </trkpt>
      <trkpt lat="45.2094" lon="5.73309">
        <ele>548.59997558594</ele>
        <time>2021-06-26T09:07:02.000Z</time>
      </trkpt>
      <trkpt lat="45.20935" lon="5.73311">
        <ele>548.20001220703</ele>
        <time>2021-06-26T09:07:04.000Z</time>
      </trkpt>
      <trkpt lat="45.20929" lon="5.73312">
        <ele>547.20001220703</ele>
        <time>2021-06-26T09:07:06.000Z</time>
      </trkpt>
      <trkpt lat="45.20923" lon="5.73311">
        <ele>546.20001220703</ele>
        <time>2021-06-26T09:07:09.000Z</time>
      </trkpt>
      <trkpt lat="45.2092" lon="5.73312">
        <ele>546.20001220703</ele>
        <time>2021-06-26T09:07:10.000Z</time>
      </trkpt>
      <trkpt lat="45.20918" lon="5.73313">
        <ele>545</ele>
        <time>2021-06-26T09:07:11.000Z</time>
      </trkpt>
      <trkpt lat="45.20911" lon="5.73313">
        <ele>543.59997558594</ele>
        <time>2021-06-26T09:07:16.000Z</time>
      </trkpt>
      <trkpt lat="45.20906" lon="5.73314">
        <ele>543.40002441406</ele>
        <time>2021-06-26T09:07:18.000Z</time>
      </trkpt>
      <trkpt lat="45.20903" lon="5.73314">
        <ele>542.40002441406</ele>
        <time>2021-06-26T09:07:20.000Z</time>
      </trkpt>
      <trkpt lat="45.20899" lon="5.73317">
        <ele>541.59997558594</ele>
        <time>2021-06-26T09:07:22.000Z</time>
      </trkpt>
      <trkpt lat="45.20897" lon="5.73318">
        <ele>541.40002441406</ele>
        <time>2021-06-26T09:07:23.000Z</time>
      </trkpt>
      <trkpt lat="45.20889" lon="5.73322">
        <ele>540.59997558594</ele>
        <time>2021-06-26T09:07:27.000Z</time>
      </trkpt>
      <trkpt lat="45.20886" lon="5.73324">
        <ele>540</ele>
        <time>2021-06-26T09:07:29.000Z</time>
      </trkpt>
      <trkpt lat="45.2088" lon="5.73325">
        <ele>539</ele>
        <time>2021-06-26T09:07:32.000Z</time>
      </trkpt>
      <trkpt lat="45.20874" lon="5.73327">
        <ele>538</ele>
        <time>2021-06-26T09:07:35.000Z</time>
      </trkpt>
      <trkpt lat="45.20872" lon="5.73328">
        <ele>537.79998779297</ele>
        <time>2021-06-26T09:07:36.000Z</time>
      </trkpt>
      <trkpt lat="45.20864" lon="5.73324">
        <ele>536</ele>
        <time>2021-06-26T09:07:41.000Z</time>
      </trkpt>
      <trkpt lat="45.20862" lon="5.73324">
        <ele>535.79998779297</ele>
        <time>2021-06-26T09:07:42.000Z</time>
      </trkpt>
      <trkpt lat="45.20861" lon="5.73323">
        <ele>535.40002441406</ele>
        <time>2021-06-26T09:07:43.000Z</time>
      </trkpt>
      <trkpt lat="45.20858" lon="5.7332">
        <ele>534.40002441406</ele>
        <time>2021-06-26T09:07:46.000Z</time>
      </trkpt>
      <trkpt lat="45.20857" lon="5.73319">
        <ele>533.79998779297</ele>
        <time>2021-06-26T09:07:47.000Z</time>
      </trkpt>
      <trkpt lat="45.20856" lon="5.73317">
        <ele>533.79998779297</ele>
        <time>2021-06-26T09:07:48.000Z</time>
      </trkpt>
      <trkpt lat="45.20854" lon="5.73312">
        <ele>533.79998779297</ele>
        <time>2021-06-26T09:07:50.000Z</time>
      </trkpt>
      <trkpt lat="45.20853" lon="5.7331">
        <ele>534</ele>
        <time>2021-06-26T09:07:51.000Z</time>
      </trkpt>
      <trkpt lat="45.20847" lon="5.73295">
        <ele>534.59997558594</ele>
        <time>2021-06-26T09:07:57.000Z</time>
      </trkpt>
      <trkpt lat="45.20841" lon="5.73287">
        <ele>534.79998779297</ele>
        <time>2021-06-26T09:08:01.000Z</time>
      </trkpt>
      <trkpt lat="45.20838" lon="5.73284">
        <ele>534.79998779297</ele>
        <time>2021-06-26T09:08:03.000Z</time>
      </trkpt>
      <trkpt lat="45.20833" lon="5.73273">
        <ele>535.20001220703</ele>
        <time>2021-06-26T09:08:08.000Z</time>
      </trkpt>
      <trkpt lat="45.20831" lon="5.73271">
        <ele>535.40002441406</ele>
        <time>2021-06-26T09:08:09.000Z</time>
      </trkpt>
      <trkpt lat="45.20829" lon="5.73269">
        <ele>535.40002441406</ele>
        <time>2021-06-26T09:08:10.000Z</time>
      </trkpt>
      <trkpt lat="45.20827" lon="5.73266">
        <ele>535.40002441406</ele>
        <time>2021-06-26T09:08:11.000Z</time>
      </trkpt>
      <trkpt lat="45.20824" lon="5.73255">
        <ele>536</ele>
        <time>2021-06-26T09:08:15.000Z</time>
      </trkpt>
      <trkpt lat="45.20823" lon="5.73252">
        <ele>536.79998779297</ele>
        <time>2021-06-26T09:08:17.000Z</time>
      </trkpt>
      <trkpt lat="45.20822" lon="5.73249">
        <ele>537.40002441406</ele>
        <time>2021-06-26T09:08:19.000Z</time>
      </trkpt>
      <trkpt lat="45.2082" lon="5.73245">
        <ele>537.59997558594</ele>
        <time>2021-06-26T09:08:21.000Z</time>
      </trkpt>
      <trkpt lat="45.20818" lon="5.73243">
        <ele>537.59997558594</ele>
        <time>2021-06-26T09:08:22.000Z</time>
      </trkpt>
      <trkpt lat="45.20817" lon="5.73242">
        <ele>538</ele>
        <time>2021-06-26T09:08:23.000Z</time>
      </trkpt>
      <trkpt lat="45.20817" lon="5.73241">
        <ele>538.40002441406</ele>
        <time>2021-06-26T09:08:24.000Z</time>
      </trkpt>
      <trkpt lat="45.20815" lon="5.73237">
        <ele>538.59997558594</ele>
        <time>2021-06-26T09:08:26.000Z</time>
      </trkpt>
      <trkpt lat="45.20813" lon="5.73232">
        <ele>539.20001220703</ele>
        <time>2021-06-26T09:08:29.000Z</time>
      </trkpt>
      <trkpt lat="45.20809" lon="5.73224">
        <ele>539.40002441406</ele>
        <time>2021-06-26T09:08:33.000Z</time>
      </trkpt>
      <trkpt lat="45.20805" lon="5.73214">
        <ele>540.40002441406</ele>
        <time>2021-06-26T09:08:38.000Z</time>
      </trkpt>
      <trkpt lat="45.20803" lon="5.73211">
        <ele>540.59997558594</ele>
        <time>2021-06-26T09:08:40.000Z</time>
      </trkpt>
      <trkpt lat="45.20798" lon="5.73205">
        <ele>541.20001220703</ele>
        <time>2021-06-26T09:08:45.000Z</time>
      </trkpt>
      <trkpt lat="45.20796" lon="5.73202">
        <ele>541.20001220703</ele>
        <time>2021-06-26T09:08:47.000Z</time>
      </trkpt>
      <trkpt lat="45.20795" lon="5.732">
        <ele>541.59997558594</ele>
        <time>2021-06-26T09:08:48.000Z</time>
      </trkpt>
      <trkpt lat="45.2079" lon="5.73191">
        <ele>543</ele>
        <time>2021-06-26T09:08:54.000Z</time>
      </trkpt>
      <trkpt lat="45.2079" lon="5.73189">
        <ele>543</ele>
        <time>2021-06-26T09:08:55.000Z</time>
      </trkpt>
      <trkpt lat="45.20789" lon="5.73187">
        <ele>543.20001220703</ele>
        <time>2021-06-26T09:08:56.000Z</time>
      </trkpt>
      <trkpt lat="45.20786" lon="5.73181">
        <ele>544.20001220703</ele>
        <time>2021-06-26T09:08:59.000Z</time>
      </trkpt>
      <trkpt lat="45.20784" lon="5.73178">
        <ele>544.59997558594</ele>
        <time>2021-06-26T09:09:01.000Z</time>
      </trkpt>
      <trkpt lat="45.20784" lon="5.73173">
        <ele>545.59997558594</ele>
        <time>2021-06-26T09:09:03.000Z</time>
      </trkpt>
      <trkpt lat="45.20784" lon="5.73171">
        <ele>545.79998779297</ele>
        <time>2021-06-26T09:09:04.000Z</time>
      </trkpt>
      <trkpt lat="45.20784" lon="5.73168">
        <ele>546.40002441406</ele>
        <time>2021-06-26T09:09:06.000Z</time>
      </trkpt>
      <trkpt lat="45.20785" lon="5.73166">
        <ele>546.59997558594</ele>
        <time>2021-06-26T09:09:07.000Z</time>
      </trkpt>
      <trkpt lat="45.20784" lon="5.73166">
        <ele>547</ele>
        <time>2021-06-26T09:09:08.000Z</time>
      </trkpt>
      <trkpt lat="45.20783" lon="5.73164">
        <ele>548</ele>
        <time>2021-06-26T09:09:10.000Z</time>
      </trkpt>
      <trkpt lat="45.20782" lon="5.73161">
        <ele>548.40002441406</ele>
        <time>2021-06-26T09:09:12.000Z</time>
      </trkpt>
      <trkpt lat="45.20781" lon="5.73159">
        <ele>549.79998779297</ele>
        <time>2021-06-26T09:09:14.000Z</time>
      </trkpt>
      <trkpt lat="45.20781" lon="5.73158">
        <ele>549.79998779297</ele>
        <time>2021-06-26T09:09:15.000Z</time>
      </trkpt>
      <trkpt lat="45.20779" lon="5.73154">
        <ele>549.79998779297</ele>
        <time>2021-06-26T09:09:17.000Z</time>
      </trkpt>
      <trkpt lat="45.20779" lon="5.73151">
        <ele>549.79998779297</ele>
        <time>2021-06-26T09:09:18.000Z</time>
      </trkpt>
      <trkpt lat="45.20777" lon="5.73148">
        <ele>550</ele>
        <time>2021-06-26T09:09:20.000Z</time>
      </trkpt>
      <trkpt lat="45.20774" lon="5.73144">
        <ele>550</ele>
        <time>2021-06-26T09:09:23.000Z</time>
      </trkpt>
      <trkpt lat="45.20772" lon="5.73142">
        <ele>551</ele>
        <time>2021-06-26T09:09:25.000Z</time>
      </trkpt>
      <trkpt lat="45.2077" lon="5.7314">
        <ele>551.40002441406</ele>
        <time>2021-06-26T09:09:27.000Z</time>
      </trkpt>
      <trkpt lat="45.20767" lon="5.73137">
        <ele>551.40002441406</ele>
        <time>2021-06-26T09:09:29.000Z</time>
      </trkpt>
      <trkpt lat="45.20765" lon="5.73132">
        <ele>552</ele>
        <time>2021-06-26T09:09:32.000Z</time>
      </trkpt>
      <trkpt lat="45.20762" lon="5.73131">
        <ele>552</ele>
        <time>2021-06-26T09:09:34.000Z</time>
      </trkpt>
      <trkpt lat="45.20761" lon="5.7313">
        <ele>552</ele>
        <time>2021-06-26T09:09:35.000Z</time>
      </trkpt>
      <trkpt lat="45.20759" lon="5.73128">
        <ele>552.20001220703</ele>
        <time>2021-06-26T09:09:37.000Z</time>
      </trkpt>
      <trkpt lat="45.20756" lon="5.73125">
        <ele>552.40002441406</ele>
        <time>2021-06-26T09:09:40.000Z</time>
      </trkpt>
      <trkpt lat="45.20754" lon="5.73123">
        <ele>552.79998779297</ele>
        <time>2021-06-26T09:09:42.000Z</time>
      </trkpt>
      <trkpt lat="45.20746" lon="5.73117">
        <ele>553</ele>
        <time>2021-06-26T09:09:48.000Z</time>
      </trkpt>
      <trkpt lat="45.20741" lon="5.73113">
        <ele>552.59997558594</ele>
        <time>2021-06-26T09:09:51.000Z</time>
      </trkpt>
      <trkpt lat="45.20739" lon="5.73105">
        <ele>552.20001220703</ele>
        <time>2021-06-26T09:09:54.000Z</time>
      </trkpt>
      <trkpt lat="45.20736" lon="5.73097">
        <ele>552.20001220703</ele>
        <time>2021-06-26T09:09:57.000Z</time>
      </trkpt>
      <trkpt lat="45.20732" lon="5.73089">
        <ele>552</ele>
        <time>2021-06-26T09:10:00.000Z</time>
      </trkpt>
      <trkpt lat="45.20727" lon="5.73078">
        <ele>552.40002441406</ele>
        <time>2021-06-26T09:10:06.000Z</time>
      </trkpt>
      <trkpt lat="45.20726" lon="5.73077">
        <ele>552.40002441406</ele>
        <time>2021-06-26T09:10:07.000Z</time>
      </trkpt>
      <trkpt lat="45.20717" lon="5.7307">
        <ele>552.79998779297</ele>
        <time>2021-06-26T09:10:13.000Z</time>
      </trkpt>
      <trkpt lat="45.20706" lon="5.73068">
        <ele>552.59997558594</ele>
        <time>2021-06-26T09:10:19.000Z</time>
      </trkpt>
      <trkpt lat="45.20705" lon="5.73068">
        <ele>552.59997558594</ele>
        <time>2021-06-26T09:10:20.000Z</time>
      </trkpt>
      <trkpt lat="45.20699" lon="5.73065">
        <ele>552.20001220703</ele>
        <time>2021-06-26T09:10:23.000Z</time>
      </trkpt>
      <trkpt lat="45.20694" lon="5.73062">
        <ele>552</ele>
        <time>2021-06-26T09:10:26.000Z</time>
      </trkpt>
      <trkpt lat="45.20694" lon="5.73061">
        <ele>551.79998779297</ele>
        <time>2021-06-26T09:10:27.000Z</time>
      </trkpt>
      <trkpt lat="45.20691" lon="5.73059">
        <ele>551.79998779297</ele>
        <time>2021-06-26T09:10:29.000Z</time>
      </trkpt>
      <trkpt lat="45.20682" lon="5.7305">
        <ele>551</ele>
        <time>2021-06-26T09:10:36.000Z</time>
      </trkpt>
      <trkpt lat="45.20674" lon="5.73037">
        <ele>550</ele>
        <time>2021-06-26T09:10:42.000Z</time>
      </trkpt>
      <trkpt lat="45.20672" lon="5.73034">
        <ele>549.79998779297</ele>
        <time>2021-06-26T09:10:43.000Z</time>
      </trkpt>
      <trkpt lat="45.20658" lon="5.73021">
        <ele>549.79998779297</ele>
        <time>2021-06-26T09:10:50.000Z</time>
      </trkpt>
      <trkpt lat="45.20641" lon="5.73005">
        <ele>549.79998779297</ele>
        <time>2021-06-26T09:10:58.000Z</time>
      </trkpt>
      <trkpt lat="45.20634" lon="5.72999">
        <ele>549.59997558594</ele>
        <time>2021-06-26T09:11:02.000Z</time>
      </trkpt>
      <trkpt lat="45.2063" lon="5.72994">
        <ele>549.79998779297</ele>
        <time>2021-06-26T09:11:05.000Z</time>
      </trkpt>
      <trkpt lat="45.20626" lon="5.7299">
        <ele>549.79998779297</ele>
        <time>2021-06-26T09:11:08.000Z</time>
      </trkpt>
      <trkpt lat="45.20623" lon="5.72987">
        <ele>549.79998779297</ele>
        <time>2021-06-26T09:11:10.000Z</time>
      </trkpt>
      <trkpt lat="45.20615" lon="5.7298">
        <ele>549.59997558594</ele>
        <time>2021-06-26T09:11:15.000Z</time>
      </trkpt>
      <trkpt lat="45.2061" lon="5.72975">
        <ele>549.20001220703</ele>
        <time>2021-06-26T09:11:19.000Z</time>
      </trkpt>
      <trkpt lat="45.20607" lon="5.72973">
        <ele>549</ele>
        <time>2021-06-26T09:11:21.000Z</time>
      </trkpt>
      <trkpt lat="45.20598" lon="5.72963">
        <ele>549.59997558594</ele>
        <time>2021-06-26T09:11:28.000Z</time>
      </trkpt>
      <trkpt lat="45.2059" lon="5.72958">
        <ele>549.40002441406</ele>
        <time>2021-06-26T09:11:32.000Z</time>
      </trkpt>
      <trkpt lat="45.20588" lon="5.72958">
        <ele>549.40002441406</ele>
        <time>2021-06-26T09:11:33.000Z</time>
      </trkpt>
      <trkpt lat="45.20581" lon="5.72954">
        <ele>549.79998779297</ele>
        <time>2021-06-26T09:11:37.000Z</time>
      </trkpt>
      <trkpt lat="45.20579" lon="5.72953">
        <ele>549.79998779297</ele>
        <time>2021-06-26T09:11:38.000Z</time>
      </trkpt>
      <trkpt lat="45.2057" lon="5.72947">
        <ele>550.20001220703</ele>
        <time>2021-06-26T09:11:44.000Z</time>
      </trkpt>
      <trkpt lat="45.20562" lon="5.7294">
        <ele>550.20001220703</ele>
        <time>2021-06-26T09:11:49.000Z</time>
      </trkpt>
      <trkpt lat="45.2056" lon="5.72939">
        <ele>550.20001220703</ele>
        <time>2021-06-26T09:11:50.000Z</time>
      </trkpt>
      <trkpt lat="45.20555" lon="5.72937">
        <ele>550.20001220703</ele>
        <time>2021-06-26T09:11:54.000Z</time>
      </trkpt>
      <trkpt lat="45.20552" lon="5.72937">
        <ele>550.40002441406</ele>
        <time>2021-06-26T09:11:55.000Z</time>
      </trkpt>
      <trkpt lat="45.20549" lon="5.72935">
        <ele>551</ele>
        <time>2021-06-26T09:11:57.000Z</time>
      </trkpt>
      <trkpt lat="45.20541" lon="5.72928">
        <ele>551</ele>
        <time>2021-06-26T09:12:02.000Z</time>
      </trkpt>
      <trkpt lat="45.2054" lon="5.72928">
        <ele>551</ele>
        <time>2021-06-26T09:12:03.000Z</time>
      </trkpt>
      <trkpt lat="45.20527" lon="5.72917">
        <ele>551.20001220703</ele>
        <time>2021-06-26T09:12:10.000Z</time>
      </trkpt>
      <trkpt lat="45.20525" lon="5.72916">
        <ele>551.40002441406</ele>
        <time>2021-06-26T09:12:11.000Z</time>
      </trkpt>
      <trkpt lat="45.20521" lon="5.72914">
        <ele>551.40002441406</ele>
        <time>2021-06-26T09:12:13.000Z</time>
      </trkpt>
      <trkpt lat="45.20518" lon="5.7291">
        <ele>551.40002441406</ele>
        <time>2021-06-26T09:12:15.000Z</time>
      </trkpt>
      <trkpt lat="45.20514" lon="5.72904">
        <ele>552.40002441406</ele>
        <time>2021-06-26T09:12:18.000Z</time>
      </trkpt>
      <trkpt lat="45.20512" lon="5.72901">
        <ele>553</ele>
        <time>2021-06-26T09:12:20.000Z</time>
      </trkpt>
      <trkpt lat="45.2051" lon="5.729">
        <ele>553.40002441406</ele>
        <time>2021-06-26T09:12:21.000Z</time>
      </trkpt>
      <trkpt lat="45.20508" lon="5.72899">
        <ele>553.59997558594</ele>
        <time>2021-06-26T09:12:23.000Z</time>
      </trkpt>
      <trkpt lat="45.20503" lon="5.72896">
        <ele>554.20001220703</ele>
        <time>2021-06-26T09:12:26.000Z</time>
      </trkpt>
      <trkpt lat="45.20501" lon="5.72893">
        <ele>554.20001220703</ele>
        <time>2021-06-26T09:12:28.000Z</time>
      </trkpt>
      <trkpt lat="45.205" lon="5.72893">
        <ele>554.59997558594</ele>
        <time>2021-06-26T09:12:29.000Z</time>
      </trkpt>
      <trkpt lat="45.20496" lon="5.72892">
        <ele>554.59997558594</ele>
        <time>2021-06-26T09:12:31.000Z</time>
      </trkpt>
      <trkpt lat="45.20486" lon="5.72886">
        <ele>555.40002441406</ele>
        <time>2021-06-26T09:12:38.000Z</time>
      </trkpt>
      <trkpt lat="45.20469" lon="5.72873">
        <ele>555.20001220703</ele>
        <time>2021-06-26T09:12:46.000Z</time>
      </trkpt>
      <trkpt lat="45.20468" lon="5.7287">
        <ele>555.20001220703</ele>
        <time>2021-06-26T09:12:47.000Z</time>
      </trkpt>
      <trkpt lat="45.20463" lon="5.72864">
        <ele>554.20001220703</ele>
        <time>2021-06-26T09:12:50.000Z</time>
      </trkpt>
      <trkpt lat="45.20459" lon="5.7286">
        <ele>554</ele>
        <time>2021-06-26T09:12:52.000Z</time>
      </trkpt>
      <trkpt lat="45.20456" lon="5.72856">
        <ele>553.40002441406</ele>
        <time>2021-06-26T09:12:54.000Z</time>
      </trkpt>
      <trkpt lat="45.20449" lon="5.72848">
        <ele>553.20001220703</ele>
        <time>2021-06-26T09:12:58.000Z</time>
      </trkpt>
      <trkpt lat="45.20436" lon="5.72834">
        <ele>552.40002441406</ele>
        <time>2021-06-26T09:13:06.000Z</time>
      </trkpt>
      <trkpt lat="45.20434" lon="5.72833">
        <ele>552.40002441406</ele>
        <time>2021-06-26T09:13:07.000Z</time>
      </trkpt>
      <trkpt lat="45.20426" lon="5.72827">
        <ele>551.79998779297</ele>
        <time>2021-06-26T09:13:11.000Z</time>
      </trkpt>
      <trkpt lat="45.20424" lon="5.72823">
        <ele>551.40002441406</ele>
        <time>2021-06-26T09:13:13.000Z</time>
      </trkpt>
      <trkpt lat="45.20423" lon="5.72822">
        <ele>550.59997558594</ele>
        <time>2021-06-26T09:13:14.000Z</time>
      </trkpt>
      <trkpt lat="45.20414" lon="5.72812">
        <ele>549.59997558594</ele>
        <time>2021-06-26T09:13:19.000Z</time>
      </trkpt>
      <trkpt lat="45.20412" lon="5.7281">
        <ele>549.20001220703</ele>
        <time>2021-06-26T09:13:20.000Z</time>
      </trkpt>
      <trkpt lat="45.2041" lon="5.72809">
        <ele>548.59997558594</ele>
        <time>2021-06-26T09:13:21.000Z</time>
      </trkpt>
      <trkpt lat="45.20397" lon="5.728">
        <ele>547.59997558594</ele>
        <time>2021-06-26T09:13:28.000Z</time>
      </trkpt>
      <trkpt lat="45.20394" lon="5.72799">
        <ele>547.20001220703</ele>
        <time>2021-06-26T09:13:29.000Z</time>
      </trkpt>
      <trkpt lat="45.20385" lon="5.7279">
        <ele>546</ele>
        <time>2021-06-26T09:13:33.000Z</time>
      </trkpt>
      <trkpt lat="45.20377" lon="5.72783">
        <ele>546</ele>
        <time>2021-06-26T09:13:37.000Z</time>
      </trkpt>
      <trkpt lat="45.20375" lon="5.72782">
        <ele>545.59997558594</ele>
        <time>2021-06-26T09:13:38.000Z</time>
      </trkpt>
      <trkpt lat="45.20372" lon="5.72778">
        <ele>545</ele>
        <time>2021-06-26T09:13:40.000Z</time>
      </trkpt>
      <trkpt lat="45.2037" lon="5.72776">
        <ele>544.59997558594</ele>
        <time>2021-06-26T09:13:41.000Z</time>
      </trkpt>
      <trkpt lat="45.20361" lon="5.72768">
        <ele>543.59997558594</ele>
        <time>2021-06-26T09:13:46.000Z</time>
      </trkpt>
      <trkpt lat="45.20359" lon="5.72765">
        <ele>543.59997558594</ele>
        <time>2021-06-26T09:13:47.000Z</time>
      </trkpt>
      <trkpt lat="45.20357" lon="5.72762">
        <ele>543.40002441406</ele>
        <time>2021-06-26T09:13:48.000Z</time>
      </trkpt>
      <trkpt lat="45.20355" lon="5.72759">
        <ele>542.79998779297</ele>
        <time>2021-06-26T09:13:49.000Z</time>
      </trkpt>
      <trkpt lat="45.20352" lon="5.72756">
        <ele>542.59997558594</ele>
        <time>2021-06-26T09:13:51.000Z</time>
      </trkpt>
      <trkpt lat="45.20346" lon="5.72753">
        <ele>541.59997558594</ele>
        <time>2021-06-26T09:13:54.000Z</time>
      </trkpt>
      <trkpt lat="45.20335" lon="5.72747">
        <ele>541</ele>
        <time>2021-06-26T09:14:00.000Z</time>
      </trkpt>
      <trkpt lat="45.20327" lon="5.72744">
        <ele>540.40002441406</ele>
        <time>2021-06-26T09:14:04.000Z</time>
      </trkpt>
      <trkpt lat="45.20323" lon="5.72743">
        <ele>540.40002441406</ele>
        <time>2021-06-26T09:14:06.000Z</time>
      </trkpt>
      <trkpt lat="45.20321" lon="5.72742">
        <ele>540.40002441406</ele>
        <time>2021-06-26T09:14:07.000Z</time>
      </trkpt>
      <trkpt lat="45.20313" lon="5.72738">
        <ele>540.20001220703</ele>
        <time>2021-06-26T09:14:11.000Z</time>
      </trkpt>
      <trkpt lat="45.20308" lon="5.72735">
        <ele>539.79998779297</ele>
        <time>2021-06-26T09:14:13.000Z</time>
      </trkpt>
      <trkpt lat="45.20298" lon="5.72727">
        <ele>539.40002441406</ele>
        <time>2021-06-26T09:14:17.000Z</time>
      </trkpt>
      <trkpt lat="45.20286" lon="5.72717">
        <ele>538.20001220703</ele>
        <time>2021-06-26T09:14:22.000Z</time>
      </trkpt>
      <trkpt lat="45.20283" lon="5.7271">
        <ele>538</ele>
        <time>2021-06-26T09:14:24.000Z</time>
      </trkpt>
      <trkpt lat="45.20273" lon="5.727">
        <ele>537</ele>
        <time>2021-06-26T09:14:29.000Z</time>
      </trkpt>
      <trkpt lat="45.20271" lon="5.72698">
        <ele>536.79998779297</ele>
        <time>2021-06-26T09:14:30.000Z</time>
      </trkpt>
      <trkpt lat="45.20264" lon="5.72688">
        <ele>536.79998779297</ele>
        <time>2021-06-26T09:14:36.000Z</time>
      </trkpt>
      <trkpt lat="45.20262" lon="5.72677">
        <ele>538.20001220703</ele>
        <time>2021-06-26T09:14:40.000Z</time>
      </trkpt>
      <trkpt lat="45.20258" lon="5.72671">
        <ele>539</ele>
        <time>2021-06-26T09:14:43.000Z</time>
      </trkpt>
      <trkpt lat="45.20257" lon="5.7267">
        <ele>539.20001220703</ele>
        <time>2021-06-26T09:14:44.000Z</time>
      </trkpt>
      <trkpt lat="45.20254" lon="5.72667">
        <ele>539.79998779297</ele>
        <time>2021-06-26T09:14:46.000Z</time>
      </trkpt>
      <trkpt lat="45.20252" lon="5.72664">
        <ele>540.40002441406</ele>
        <time>2021-06-26T09:14:48.000Z</time>
      </trkpt>
      <trkpt lat="45.20251" lon="5.72663">
        <ele>540.79998779297</ele>
        <time>2021-06-26T09:14:49.000Z</time>
      </trkpt>
      <trkpt lat="45.20248" lon="5.72659">
        <ele>541.59997558594</ele>
        <time>2021-06-26T09:14:52.000Z</time>
      </trkpt>
      <trkpt lat="45.20242" lon="5.72654">
        <ele>542.79998779297</ele>
        <time>2021-06-26T09:14:56.000Z</time>
      </trkpt>
      <trkpt lat="45.20241" lon="5.72653">
        <ele>543</ele>
        <time>2021-06-26T09:14:57.000Z</time>
      </trkpt>
      <trkpt lat="45.20235" lon="5.7265">
        <ele>544</ele>
        <time>2021-06-26T09:15:01.000Z</time>
      </trkpt>
      <trkpt lat="45.20229" lon="5.72645">
        <ele>544.40002441406</ele>
        <time>2021-06-26T09:15:05.000Z</time>
      </trkpt>
      <trkpt lat="45.20219" lon="5.72633">
        <ele>545</ele>
        <time>2021-06-26T09:15:13.000Z</time>
      </trkpt>
      <trkpt lat="45.20216" lon="5.72628">
        <ele>545</ele>
        <time>2021-06-26T09:15:16.000Z</time>
      </trkpt>
      <trkpt lat="45.20212" lon="5.72621">
        <ele>546.40002441406</ele>
        <time>2021-06-26T09:15:21.000Z</time>
      </trkpt>
      <trkpt lat="45.2021" lon="5.72618">
        <ele>546.40002441406</ele>
        <time>2021-06-26T09:15:23.000Z</time>
      </trkpt>
      <trkpt lat="45.20209" lon="5.72617">
        <ele>546.59997558594</ele>
        <time>2021-06-26T09:15:24.000Z</time>
      </trkpt>
      <trkpt lat="45.20207" lon="5.72616">
        <ele>547.40002441406</ele>
        <time>2021-06-26T09:15:25.000Z</time>
      </trkpt>
      <trkpt lat="45.202" lon="5.72609">
        <ele>548</ele>
        <time>2021-06-26T09:15:31.000Z</time>
      </trkpt>
      <trkpt lat="45.20195" lon="5.72606">
        <ele>548.59997558594</ele>
        <time>2021-06-26T09:15:35.000Z</time>
      </trkpt>
      <trkpt lat="45.20193" lon="5.72604">
        <ele>548.59997558594</ele>
        <time>2021-06-26T09:15:37.000Z</time>
      </trkpt>
      <trkpt lat="45.2019" lon="5.72598">
        <ele>549.20001220703</ele>
        <time>2021-06-26T09:15:42.000Z</time>
      </trkpt>
      <trkpt lat="45.20191" lon="5.72594">
        <ele>549.59997558594</ele>
        <time>2021-06-26T09:15:44.000Z</time>
      </trkpt>
      <trkpt lat="45.20188" lon="5.72587">
        <ele>549.79998779297</ele>
        <time>2021-06-26T09:15:48.000Z</time>
      </trkpt>
      <trkpt lat="45.20177" lon="5.72581">
        <ele>548.79998779297</ele>
        <time>2021-06-26T09:15:55.000Z</time>
      </trkpt>
      <trkpt lat="45.20175" lon="5.72579">
        <ele>548.59997558594</ele>
        <time>2021-06-26T09:15:56.000Z</time>
      </trkpt>
      <trkpt lat="45.20165" lon="5.72575">
        <ele>547</ele>
        <time>2021-06-26T09:16:01.000Z</time>
      </trkpt>
      <trkpt lat="45.20158" lon="5.72572">
        <ele>546</ele>
        <time>2021-06-26T09:16:04.000Z</time>
      </trkpt>
      <trkpt lat="45.20151" lon="5.72567">
        <ele>544.79998779297</ele>
        <time>2021-06-26T09:16:08.000Z</time>
      </trkpt>
      <trkpt lat="45.20144" lon="5.72561">
        <ele>543.79998779297</ele>
        <time>2021-06-26T09:16:13.000Z</time>
      </trkpt>
      <trkpt lat="45.20142" lon="5.7256">
        <ele>543.59997558594</ele>
        <time>2021-06-26T09:16:14.000Z</time>
      </trkpt>
      <trkpt lat="45.20134" lon="5.72556">
        <ele>542.79998779297</ele>
        <time>2021-06-26T09:16:19.000Z</time>
      </trkpt>
      <trkpt lat="45.20133" lon="5.72556">
        <ele>542.59997558594</ele>
        <time>2021-06-26T09:16:20.000Z</time>
      </trkpt>
      <trkpt lat="45.20132" lon="5.72555">
        <ele>542.40002441406</ele>
        <time>2021-06-26T09:16:21.000Z</time>
      </trkpt>
      <trkpt lat="45.20127" lon="5.72553">
        <ele>541.40002441406</ele>
        <time>2021-06-26T09:16:26.000Z</time>
      </trkpt>
      <trkpt lat="45.20126" lon="5.72551">
        <ele>541.20001220703</ele>
        <time>2021-06-26T09:16:28.000Z</time>
      </trkpt>
      <trkpt lat="45.20122" lon="5.72551">
        <ele>540.59997558594</ele>
        <time>2021-06-26T09:16:34.000Z</time>
      </trkpt>
      <trkpt lat="45.2012" lon="5.7255">
        <ele>540.40002441406</ele>
        <time>2021-06-26T09:16:36.000Z</time>
      </trkpt>
      <trkpt lat="45.20115" lon="5.7255">
        <ele>539.79998779297</ele>
        <time>2021-06-26T09:16:39.000Z</time>
      </trkpt>
      <trkpt lat="45.20114" lon="5.72551">
        <ele>539.79998779297</ele>
        <time>2021-06-26T09:16:40.000Z</time>
      </trkpt>
      <trkpt lat="45.20112" lon="5.72551">
        <ele>539.20001220703</ele>
        <time>2021-06-26T09:16:41.000Z</time>
      </trkpt>
      <trkpt lat="45.20111" lon="5.7255">
        <ele>539</ele>
        <time>2021-06-26T09:16:42.000Z</time>
      </trkpt>
      <trkpt lat="45.20108" lon="5.72549">
        <ele>538.59997558594</ele>
        <time>2021-06-26T09:16:44.000Z</time>
      </trkpt>
      <trkpt lat="45.20106" lon="5.72548">
        <ele>537.79998779297</ele>
        <time>2021-06-26T09:16:46.000Z</time>
      </trkpt>
      <trkpt lat="45.20103" lon="5.72549">
        <ele>537.20001220703</ele>
        <time>2021-06-26T09:16:49.000Z</time>
      </trkpt>
      <trkpt lat="45.201" lon="5.72549">
        <ele>537</ele>
        <time>2021-06-26T09:16:51.000Z</time>
      </trkpt>
      <trkpt lat="45.20098" lon="5.72549">
        <ele>536.59997558594</ele>
        <time>2021-06-26T09:16:53.000Z</time>
      </trkpt>
      <trkpt lat="45.20095" lon="5.72549">
        <ele>535.59997558594</ele>
        <time>2021-06-26T09:16:55.000Z</time>
      </trkpt>
      <trkpt lat="45.20093" lon="5.7255">
        <ele>534.59997558594</ele>
        <time>2021-06-26T09:16:57.000Z</time>
      </trkpt>
      <trkpt lat="45.20092" lon="5.72551">
        <ele>534.40002441406</ele>
        <time>2021-06-26T09:16:58.000Z</time>
      </trkpt>
      <trkpt lat="45.20089" lon="5.72551">
        <ele>533.20001220703</ele>
        <time>2021-06-26T09:17:00.000Z</time>
      </trkpt>
      <trkpt lat="45.20082" lon="5.72553">
        <ele>532.20001220703</ele>
        <time>2021-06-26T09:17:03.000Z</time>
      </trkpt>
      <trkpt lat="45.20075" lon="5.72557">
        <ele>531.59997558594</ele>
        <time>2021-06-26T09:17:07.000Z</time>
      </trkpt>
      <trkpt lat="45.20072" lon="5.72558">
        <ele>530.59997558594</ele>
        <time>2021-06-26T09:17:09.000Z</time>
      </trkpt>
      <trkpt lat="45.20071" lon="5.72559">
        <ele>530.20001220703</ele>
        <time>2021-06-26T09:17:10.000Z</time>
      </trkpt>
      <trkpt lat="45.20073" lon="5.72557">
        <ele>529.79998779297</ele>
        <time>2021-06-26T09:17:14.000Z</time>
      </trkpt>
      <trkpt lat="45.20073" lon="5.72557">
        <ele>529.79998779297</ele>
        <time>2021-06-26T09:17:17.000Z</time>
      </trkpt>
      <trkpt lat="45.20071" lon="5.72559">
        <ele>529.79998779297</ele>
        <time>2021-06-26T09:17:19.000Z</time>
      </trkpt>
      <trkpt lat="45.20071" lon="5.72559">
        <ele>529.79998779297</ele>
        <time>2021-06-26T09:17:21.000Z</time>
      </trkpt>
      <trkpt lat="45.20071" lon="5.72558">
        <ele>529.79998779297</ele>
        <time>2021-06-26T09:17:29.000Z</time>
      </trkpt>
      <trkpt lat="45.20071" lon="5.72557">
        <ele>530.40002441406</ele>
        <time>2021-06-26T09:17:34.000Z</time>
      </trkpt>
      <trkpt lat="45.20071" lon="5.72554">
        <ele>530.59997558594</ele>
        <time>2021-06-26T09:17:35.000Z</time>
      </trkpt>
      <trkpt lat="45.20067" lon="5.72539">
        <ele>531.40002441406</ele>
        <time>2021-06-26T09:17:40.000Z</time>
      </trkpt>
      <trkpt lat="45.20064" lon="5.72519">
        <ele>531</ele>
        <time>2021-06-26T09:17:45.000Z</time>
      </trkpt>
      <trkpt lat="45.20065" lon="5.72515">
        <ele>530.79998779297</ele>
        <time>2021-06-26T09:17:46.000Z</time>
      </trkpt>
      <trkpt lat="45.20068" lon="5.72504">
        <ele>530.40002441406</ele>
        <time>2021-06-26T09:17:49.000Z</time>
      </trkpt>
      <trkpt lat="45.20071" lon="5.72494">
        <ele>530.40002441406</ele>
        <time>2021-06-26T09:17:52.000Z</time>
      </trkpt>
      <trkpt lat="45.20072" lon="5.72487">
        <ele>530.20001220703</ele>
        <time>2021-06-26T09:17:54.000Z</time>
      </trkpt>
      <trkpt lat="45.20073" lon="5.72483">
        <ele>529.59997558594</ele>
        <time>2021-06-26T09:17:55.000Z</time>
      </trkpt>
      <trkpt lat="45.20073" lon="5.72477">
        <ele>529.40002441406</ele>
        <time>2021-06-26T09:17:57.000Z</time>
      </trkpt>
      <trkpt lat="45.20073" lon="5.72474">
        <ele>529.40002441406</ele>
        <time>2021-06-26T09:17:58.000Z</time>
      </trkpt>
      <trkpt lat="45.20073" lon="5.72469">
        <ele>528.79998779297</ele>
        <time>2021-06-26T09:18:00.000Z</time>
      </trkpt>
      <trkpt lat="45.20073" lon="5.72465">
        <ele>528.59997558594</ele>
        <time>2021-06-26T09:18:01.000Z</time>
      </trkpt>
      <trkpt lat="45.20073" lon="5.72461">
        <ele>528.59997558594</ele>
        <time>2021-06-26T09:18:02.000Z</time>
      </trkpt>
      <trkpt lat="45.2007" lon="5.72451">
        <ele>527.40002441406</ele>
        <time>2021-06-26T09:18:05.000Z</time>
      </trkpt>
      <trkpt lat="45.20069" lon="5.72447">
        <ele>527.20001220703</ele>
        <time>2021-06-26T09:18:06.000Z</time>
      </trkpt>
      <trkpt lat="45.20067" lon="5.72444">
        <ele>527</ele>
        <time>2021-06-26T09:18:07.000Z</time>
      </trkpt>
      <trkpt lat="45.20062" lon="5.72441">
        <ele>526.20001220703</ele>
        <time>2021-06-26T09:18:09.000Z</time>
      </trkpt>
      <trkpt lat="45.20057" lon="5.72438">
        <ele>525.59997558594</ele>
        <time>2021-06-26T09:18:11.000Z</time>
      </trkpt>
      <trkpt lat="45.2005" lon="5.72435">
        <ele>524.79998779297</ele>
        <time>2021-06-26T09:18:14.000Z</time>
      </trkpt>
      <trkpt lat="45.20041" lon="5.72434">
        <ele>524.20001220703</ele>
        <time>2021-06-26T09:18:18.000Z</time>
      </trkpt>
      <trkpt lat="45.20038" lon="5.72434">
        <ele>523.59997558594</ele>
        <time>2021-06-26T09:18:19.000Z</time>
      </trkpt>
      <trkpt lat="45.20027" lon="5.72433">
        <ele>522.59997558594</ele>
        <time>2021-06-26T09:18:23.000Z</time>
      </trkpt>
      <trkpt lat="45.20021" lon="5.72431">
        <ele>521.79998779297</ele>
        <time>2021-06-26T09:18:25.000Z</time>
      </trkpt>
      <trkpt lat="45.20013" lon="5.72429">
        <ele>521.59997558594</ele>
        <time>2021-06-26T09:18:28.000Z</time>
      </trkpt>
      <trkpt lat="45.20004" lon="5.72428">
        <ele>520.40002441406</ele>
        <time>2021-06-26T09:18:31.000Z</time>
      </trkpt>
      <trkpt lat="45.19995" lon="5.72427">
        <ele>519.79998779297</ele>
        <time>2021-06-26T09:18:34.000Z</time>
      </trkpt>
      <trkpt lat="45.19991" lon="5.72427">
        <ele>519</ele>
        <time>2021-06-26T09:18:35.000Z</time>
      </trkpt>
      <trkpt lat="45.19988" lon="5.72427">
        <ele>518.20001220703</ele>
        <time>2021-06-26T09:18:36.000Z</time>
      </trkpt>
      <trkpt lat="45.19981" lon="5.72427">
        <ele>518.20001220703</ele>
        <time>2021-06-26T09:18:38.000Z</time>
      </trkpt>
      <trkpt lat="45.19975" lon="5.72427">
        <ele>517.79998779297</ele>
        <time>2021-06-26T09:18:40.000Z</time>
      </trkpt>
      <trkpt lat="45.19972" lon="5.72427">
        <ele>516.59997558594</ele>
        <time>2021-06-26T09:18:41.000Z</time>
      </trkpt>
      <trkpt lat="45.19964" lon="5.72426">
        <ele>516.20001220703</ele>
        <time>2021-06-26T09:18:44.000Z</time>
      </trkpt>
      <trkpt lat="45.19961" lon="5.72425">
        <ele>516.20001220703</ele>
        <time>2021-06-26T09:18:45.000Z</time>
      </trkpt>
      <trkpt lat="45.19957" lon="5.72426">
        <ele>515.40002441406</ele>
        <time>2021-06-26T09:18:46.000Z</time>
      </trkpt>
      <trkpt lat="45.19943" lon="5.72426">
        <ele>514.20001220703</ele>
        <time>2021-06-26T09:18:51.000Z</time>
      </trkpt>
      <trkpt lat="45.19926" lon="5.72429">
        <ele>514</ele>
        <time>2021-06-26T09:18:58.000Z</time>
      </trkpt>
      <trkpt lat="45.1991" lon="5.72434">
        <ele>515.20001220703</ele>
        <time>2021-06-26T09:19:04.000Z</time>
      </trkpt>
      <trkpt lat="45.19907" lon="5.72435">
        <ele>515.40002441406</ele>
        <time>2021-06-26T09:19:05.000Z</time>
      </trkpt>
      <trkpt lat="45.19904" lon="5.72437">
        <ele>515.59997558594</ele>
        <time>2021-06-26T09:19:06.000Z</time>
      </trkpt>
      <trkpt lat="45.19898" lon="5.72438">
        <ele>516.79998779297</ele>
        <time>2021-06-26T09:19:08.000Z</time>
      </trkpt>
      <trkpt lat="45.19895" lon="5.72439">
        <ele>516.79998779297</ele>
        <time>2021-06-26T09:19:09.000Z</time>
      </trkpt>
      <trkpt lat="45.19893" lon="5.72439">
        <ele>517</ele>
        <time>2021-06-26T09:19:10.000Z</time>
      </trkpt>
      <trkpt lat="45.19893" lon="5.72441">
        <ele>517</ele>
        <time>2021-06-26T09:19:11.000Z</time>
      </trkpt>
      <trkpt lat="45.19892" lon="5.72444">
        <ele>517.40002441406</ele>
        <time>2021-06-26T09:19:12.000Z</time>
      </trkpt>
      <trkpt lat="45.19891" lon="5.72446">
        <ele>517.59997558594</ele>
        <time>2021-06-26T09:19:13.000Z</time>
      </trkpt>
      <trkpt lat="45.19889" lon="5.72453">
        <ele>517.79998779297</ele>
        <time>2021-06-26T09:19:15.000Z</time>
      </trkpt>
      <trkpt lat="45.19888" lon="5.72459">
        <ele>518.20001220703</ele>
        <time>2021-06-26T09:19:17.000Z</time>
      </trkpt>
      <trkpt lat="45.19888" lon="5.72462">
        <ele>518.20001220703</ele>
        <time>2021-06-26T09:19:18.000Z</time>
      </trkpt>
      <trkpt lat="45.19889" lon="5.72474">
        <ele>518.20001220703</ele>
        <time>2021-06-26T09:19:21.000Z</time>
      </trkpt>
      <trkpt lat="45.19889" lon="5.72482">
        <ele>518.79998779297</ele>
        <time>2021-06-26T09:19:24.000Z</time>
      </trkpt>
      <trkpt lat="45.19888" lon="5.72484">
        <ele>518.79998779297</ele>
        <time>2021-06-26T09:19:25.000Z</time>
      </trkpt>
      <trkpt lat="45.19881" lon="5.72488">
        <ele>518.59997558594</ele>
        <time>2021-06-26T09:19:28.000Z</time>
      </trkpt>
      <trkpt lat="45.19872" lon="5.72491">
        <ele>517.79998779297</ele>
        <time>2021-06-26T09:19:32.000Z</time>
      </trkpt>
      <trkpt lat="45.19872" lon="5.72495">
        <ele>517.59997558594</ele>
        <time>2021-06-26T09:19:33.000Z</time>
      </trkpt>
      <trkpt lat="45.19871" lon="5.72498">
        <ele>517.59997558594</ele>
        <time>2021-06-26T09:19:34.000Z</time>
      </trkpt>
      <trkpt lat="45.19869" lon="5.7251">
        <ele>517.59997558594</ele>
        <time>2021-06-26T09:19:37.000Z</time>
      </trkpt>
      <trkpt lat="45.19868" lon="5.72516">
        <ele>517</ele>
        <time>2021-06-26T09:19:39.000Z</time>
      </trkpt>
      <trkpt lat="45.19867" lon="5.72519">
        <ele>516.59997558594</ele>
        <time>2021-06-26T09:19:40.000Z</time>
      </trkpt>
      <trkpt lat="45.19863" lon="5.7254">
        <ele>515</ele>
        <time>2021-06-26T09:19:44.000Z</time>
      </trkpt>
      <trkpt lat="45.19862" lon="5.72544">
        <ele>515</ele>
        <time>2021-06-26T09:19:45.000Z</time>
      </trkpt>
      <trkpt lat="45.19861" lon="5.72552">
        <ele>514.59997558594</ele>
        <time>2021-06-26T09:19:47.000Z</time>
      </trkpt>
      <trkpt lat="45.19857" lon="5.72552">
        <ele>514.20001220703</ele>
        <time>2021-06-26T09:19:49.000Z</time>
      </trkpt>
      <trkpt lat="45.19857" lon="5.7255">
        <ele>513.59997558594</ele>
        <time>2021-06-26T09:19:50.000Z</time>
      </trkpt>
      <trkpt lat="45.19853" lon="5.72534">
        <ele>513</ele>
        <time>2021-06-26T09:19:55.000Z</time>
      </trkpt>
      <trkpt lat="45.19851" lon="5.72527">
        <ele>512.20001220703</ele>
        <time>2021-06-26T09:19:57.000Z</time>
      </trkpt>
      <trkpt lat="45.19846" lon="5.72507">
        <ele>511</ele>
        <time>2021-06-26T09:20:02.000Z</time>
      </trkpt>
      <trkpt lat="45.19845" lon="5.72493">
        <ele>509.79998779297</ele>
        <time>2021-06-26T09:20:06.000Z</time>
      </trkpt>
      <trkpt lat="45.19844" lon="5.72489">
        <ele>509.79998779297</ele>
        <time>2021-06-26T09:20:07.000Z</time>
      </trkpt>
      <trkpt lat="45.19843" lon="5.7248">
        <ele>508.79998779297</ele>
        <time>2021-06-26T09:20:09.000Z</time>
      </trkpt>
      <trkpt lat="45.19842" lon="5.72477">
        <ele>508.39999389648</ele>
        <time>2021-06-26T09:20:10.000Z</time>
      </trkpt>
      <trkpt lat="45.19841" lon="5.72465">
        <ele>507.39999389648</ele>
        <time>2021-06-26T09:20:13.000Z</time>
      </trkpt>
      <trkpt lat="45.19841" lon="5.72457">
        <ele>506.20001220703</ele>
        <time>2021-06-26T09:20:15.000Z</time>
      </trkpt>
      <trkpt lat="45.19839" lon="5.7245">
        <ele>506</ele>
        <time>2021-06-26T09:20:17.000Z</time>
      </trkpt>
      <trkpt lat="45.19836" lon="5.72449">
        <ele>505.39999389648</ele>
        <time>2021-06-26T09:20:19.000Z</time>
      </trkpt>
      <trkpt lat="45.19835" lon="5.72452">
        <ele>505</ele>
        <time>2021-06-26T09:20:21.000Z</time>
      </trkpt>
      <trkpt lat="45.19834" lon="5.72458">
        <ele>504.79998779297</ele>
        <time>2021-06-26T09:20:23.000Z</time>
      </trkpt>
      <trkpt lat="45.19834" lon="5.72466">
        <ele>504.39999389648</ele>
        <time>2021-06-26T09:20:25.000Z</time>
      </trkpt>
      <trkpt lat="45.19833" lon="5.72469">
        <ele>504.20001220703</ele>
        <time>2021-06-26T09:20:26.000Z</time>
      </trkpt>
      <trkpt lat="45.19834" lon="5.72482">
        <ele>503</ele>
        <time>2021-06-26T09:20:29.000Z</time>
      </trkpt>
      <trkpt lat="45.19835" lon="5.7249">
        <ele>502.79998779297</ele>
        <time>2021-06-26T09:20:31.000Z</time>
      </trkpt>
      <trkpt lat="45.19834" lon="5.72501">
        <ele>501.20001220703</ele>
        <time>2021-06-26T09:20:34.000Z</time>
      </trkpt>
      <trkpt lat="45.19833" lon="5.72508">
        <ele>500.79998779297</ele>
        <time>2021-06-26T09:20:36.000Z</time>
      </trkpt>
      <trkpt lat="45.19831" lon="5.72519">
        <ele>499.60000610352</ele>
        <time>2021-06-26T09:20:39.000Z</time>
      </trkpt>
      <trkpt lat="45.19829" lon="5.72527">
        <ele>499</ele>
        <time>2021-06-26T09:20:41.000Z</time>
      </trkpt>
      <trkpt lat="45.19829" lon="5.7253">
        <ele>499</ele>
        <time>2021-06-26T09:20:42.000Z</time>
      </trkpt>
      <trkpt lat="45.19829" lon="5.72541">
        <ele>498.20001220703</ele>
        <time>2021-06-26T09:20:45.000Z</time>
      </trkpt>
      <trkpt lat="45.19828" lon="5.72549">
        <ele>498</ele>
        <time>2021-06-26T09:20:47.000Z</time>
      </trkpt>
      <trkpt lat="45.19828" lon="5.72558">
        <ele>497.20001220703</ele>
        <time>2021-06-26T09:20:49.000Z</time>
      </trkpt>
      <trkpt lat="45.19829" lon="5.7257">
        <ele>496.60000610352</ele>
        <time>2021-06-26T09:20:52.000Z</time>
      </trkpt>
      <trkpt lat="45.19829" lon="5.72574">
        <ele>496.39999389648</ele>
        <time>2021-06-26T09:20:53.000Z</time>
      </trkpt>
      <trkpt lat="45.19829" lon="5.72578">
        <ele>496</ele>
        <time>2021-06-26T09:20:54.000Z</time>
      </trkpt>
      <trkpt lat="45.19828" lon="5.72587">
        <ele>494.79998779297</ele>
        <time>2021-06-26T09:20:57.000Z</time>
      </trkpt>
      <trkpt lat="45.19828" lon="5.72589">
        <ele>494.20001220703</ele>
        <time>2021-06-26T09:20:58.000Z</time>
      </trkpt>
      <trkpt lat="45.19828" lon="5.72594">
        <ele>493.60000610352</ele>
        <time>2021-06-26T09:21:00.000Z</time>
      </trkpt>
      <trkpt lat="45.1983" lon="5.72599">
        <ele>493.60000610352</ele>
        <time>2021-06-26T09:21:02.000Z</time>
      </trkpt>
      <trkpt lat="45.19831" lon="5.72603">
        <ele>493.39999389648</ele>
        <time>2021-06-26T09:21:03.000Z</time>
      </trkpt>
      <trkpt lat="45.19835" lon="5.72619">
        <ele>492.39999389648</ele>
        <time>2021-06-26T09:21:07.000Z</time>
      </trkpt>
      <trkpt lat="45.19836" lon="5.72621">
        <ele>492.39999389648</ele>
        <time>2021-06-26T09:21:08.000Z</time>
      </trkpt>
      <trkpt lat="45.19841" lon="5.72635">
        <ele>491.20001220703</ele>
        <time>2021-06-26T09:21:12.000Z</time>
      </trkpt>
      <trkpt lat="45.19843" lon="5.7264">
        <ele>491</ele>
        <time>2021-06-26T09:21:14.000Z</time>
      </trkpt>
      <trkpt lat="45.19846" lon="5.72647">
        <ele>489.79998779297</ele>
        <time>2021-06-26T09:21:17.000Z</time>
      </trkpt>
      <trkpt lat="45.19849" lon="5.72653">
        <ele>489.39999389648</ele>
        <time>2021-06-26T09:21:19.000Z</time>
      </trkpt>
      <trkpt lat="45.19852" lon="5.72663">
        <ele>488.79998779297</ele>
        <time>2021-06-26T09:21:22.000Z</time>
      </trkpt>
      <trkpt lat="45.19853" lon="5.72666">
        <ele>488</ele>
        <time>2021-06-26T09:21:23.000Z</time>
      </trkpt>
      <trkpt lat="45.19856" lon="5.72672">
        <ele>487.39999389648</ele>
        <time>2021-06-26T09:21:25.000Z</time>
      </trkpt>
      <trkpt lat="45.19859" lon="5.72678">
        <ele>487.39999389648</ele>
        <time>2021-06-26T09:21:27.000Z</time>
      </trkpt>
      <trkpt lat="45.19858" lon="5.7268">
        <ele>486.20001220703</ele>
        <time>2021-06-26T09:21:28.000Z</time>
      </trkpt>
      <trkpt lat="45.19857" lon="5.72681">
        <ele>486.20001220703</ele>
        <time>2021-06-26T09:21:29.000Z</time>
      </trkpt>
      <trkpt lat="45.19851" lon="5.72681">
        <ele>486.20001220703</ele>
        <time>2021-06-26T09:21:32.000Z</time>
      </trkpt>
      <trkpt lat="45.19845" lon="5.72681">
        <ele>485.60000610352</ele>
        <time>2021-06-26T09:21:34.000Z</time>
      </trkpt>
      <trkpt lat="45.19839" lon="5.72679">
        <ele>485</ele>
        <time>2021-06-26T09:21:36.000Z</time>
      </trkpt>
      <trkpt lat="45.19831" lon="5.72674">
        <ele>484.79998779297</ele>
        <time>2021-06-26T09:21:39.000Z</time>
      </trkpt>
      <trkpt lat="45.19824" lon="5.72669">
        <ele>483.39999389648</ele>
        <time>2021-06-26T09:21:42.000Z</time>
      </trkpt>
      <trkpt lat="45.19817" lon="5.72664">
        <ele>483</ele>
        <time>2021-06-26T09:21:45.000Z</time>
      </trkpt>
      <trkpt lat="45.19814" lon="5.72664">
        <ele>482.20001220703</ele>
        <time>2021-06-26T09:21:46.000Z</time>
      </trkpt>
      <trkpt lat="45.19799" lon="5.72653">
        <ele>481.20001220703</ele>
        <time>2021-06-26T09:21:52.000Z</time>
      </trkpt>
      <trkpt lat="45.19795" lon="5.72649">
        <ele>481.20001220703</ele>
        <time>2021-06-26T09:21:54.000Z</time>
      </trkpt>
      <trkpt lat="45.19793" lon="5.72646">
        <ele>479.60000610352</ele>
        <time>2021-06-26T09:21:55.000Z</time>
      </trkpt>
      <trkpt lat="45.19787" lon="5.72637">
        <ele>479.20001220703</ele>
        <time>2021-06-26T09:21:58.000Z</time>
      </trkpt>
      <trkpt lat="45.19782" lon="5.72626">
        <ele>478.60000610352</ele>
        <time>2021-06-26T09:22:01.000Z</time>
      </trkpt>
      <trkpt lat="45.19781" lon="5.72617">
        <ele>477.79998779297</ele>
        <time>2021-06-26T09:22:03.000Z</time>
      </trkpt>
      <trkpt lat="45.1978" lon="5.72604">
        <ele>477</ele>
        <time>2021-06-26T09:22:06.000Z</time>
      </trkpt>
      <trkpt lat="45.19779" lon="5.72592">
        <ele>476.60000610352</ele>
        <time>2021-06-26T09:22:09.000Z</time>
      </trkpt>
      <trkpt lat="45.19779" lon="5.72586">
        <ele>476</ele>
        <time>2021-06-26T09:22:10.000Z</time>
      </trkpt>
      <trkpt lat="45.19779" lon="5.72583">
        <ele>475.79998779297</ele>
        <time>2021-06-26T09:22:11.000Z</time>
      </trkpt>
      <trkpt lat="45.19778" lon="5.7257">
        <ele>474.79998779297</ele>
        <time>2021-06-26T09:22:14.000Z</time>
      </trkpt>
      <trkpt lat="45.19779" lon="5.72566">
        <ele>474.79998779297</ele>
        <time>2021-06-26T09:22:15.000Z</time>
      </trkpt>
      <trkpt lat="45.19779" lon="5.72562">
        <ele>474.60000610352</ele>
        <time>2021-06-26T09:22:16.000Z</time>
      </trkpt>
      <trkpt lat="45.1978" lon="5.7255">
        <ele>473.79998779297</ele>
        <time>2021-06-26T09:22:19.000Z</time>
      </trkpt>
      <trkpt lat="45.1978" lon="5.72544">
        <ele>472.60000610352</ele>
        <time>2021-06-26T09:22:21.000Z</time>
      </trkpt>
      <trkpt lat="45.1978" lon="5.72541">
        <ele>472.60000610352</ele>
        <time>2021-06-26T09:22:22.000Z</time>
      </trkpt>
      <trkpt lat="45.19779" lon="5.72538">
        <ele>472.39999389648</ele>
        <time>2021-06-26T09:22:23.000Z</time>
      </trkpt>
      <trkpt lat="45.19777" lon="5.72539">
        <ele>472</ele>
        <time>2021-06-26T09:22:25.000Z</time>
      </trkpt>
      <trkpt lat="45.19778" lon="5.72541">
        <ele>472.20001220703</ele>
        <time>2021-06-26T09:22:26.000Z</time>
      </trkpt>
      <trkpt lat="45.19778" lon="5.72546">
        <ele>471.60000610352</ele>
        <time>2021-06-26T09:22:28.000Z</time>
      </trkpt>
      <trkpt lat="45.19777" lon="5.72551">
        <ele>470.60000610352</ele>
        <time>2021-06-26T09:22:30.000Z</time>
      </trkpt>
      <trkpt lat="45.19772" lon="5.72571">
        <ele>468.60000610352</ele>
        <time>2021-06-26T09:22:36.000Z</time>
      </trkpt>
      <trkpt lat="45.1977" lon="5.72587">
        <ele>467.20001220703</ele>
        <time>2021-06-26T09:22:42.000Z</time>
      </trkpt>
      <trkpt lat="45.19768" lon="5.72586">
        <ele>466.79998779297</ele>
        <time>2021-06-26T09:22:43.000Z</time>
      </trkpt>
      <trkpt lat="45.19767" lon="5.72583">
        <ele>466.79998779297</ele>
        <time>2021-06-26T09:22:44.000Z</time>
      </trkpt>
      <trkpt lat="45.19766" lon="5.72574">
        <ele>466</ele>
        <time>2021-06-26T09:22:46.000Z</time>
      </trkpt>
      <trkpt lat="45.19765" lon="5.72572">
        <ele>466</ele>
        <time>2021-06-26T09:22:47.000Z</time>
      </trkpt>
      <trkpt lat="45.1976" lon="5.72557">
        <ele>464.79998779297</ele>
        <time>2021-06-26T09:22:51.000Z</time>
      </trkpt>
      <trkpt lat="45.19758" lon="5.72548">
        <ele>463.39999389648</ele>
        <time>2021-06-26T09:22:53.000Z</time>
      </trkpt>
      <trkpt lat="45.1976" lon="5.72528">
        <ele>462.20001220703</ele>
        <time>2021-06-26T09:22:58.000Z</time>
      </trkpt>
      <trkpt lat="45.19768" lon="5.7251">
        <ele>461</ele>
        <time>2021-06-26T09:23:03.000Z</time>
      </trkpt>
      <trkpt lat="45.1977" lon="5.72501">
        <ele>461</ele>
        <time>2021-06-26T09:23:05.000Z</time>
      </trkpt>
      <trkpt lat="45.19773" lon="5.72482">
        <ele>459.79998779297</ele>
        <time>2021-06-26T09:23:10.000Z</time>
      </trkpt>
      <trkpt lat="45.19773" lon="5.72479">
        <ele>459.60000610352</ele>
        <time>2021-06-26T09:23:11.000Z</time>
      </trkpt>
      <trkpt lat="45.1978" lon="5.72461">
        <ele>459.20001220703</ele>
        <time>2021-06-26T09:23:16.000Z</time>
      </trkpt>
      <trkpt lat="45.19782" lon="5.72454">
        <ele>459.20001220703</ele>
        <time>2021-06-26T09:23:18.000Z</time>
      </trkpt>
      <trkpt lat="45.19783" lon="5.72447">
        <ele>458.20001220703</ele>
        <time>2021-06-26T09:23:20.000Z</time>
      </trkpt>
      <trkpt lat="45.19784" lon="5.72435">
        <ele>458.20001220703</ele>
        <time>2021-06-26T09:23:23.000Z</time>
      </trkpt>
      <trkpt lat="45.19785" lon="5.72432">
        <ele>458.20001220703</ele>
        <time>2021-06-26T09:23:24.000Z</time>
      </trkpt>
      <trkpt lat="45.19788" lon="5.72424">
        <ele>459.39999389648</ele>
        <time>2021-06-26T09:23:27.000Z</time>
      </trkpt>
      <trkpt lat="45.19787" lon="5.72409">
        <ele>459.79998779297</ele>
        <time>2021-06-26T09:23:31.000Z</time>
      </trkpt>
      <trkpt lat="45.19791" lon="5.72383">
        <ele>459.20001220703</ele>
        <time>2021-06-26T09:23:37.000Z</time>
      </trkpt>
      <trkpt lat="45.19793" lon="5.7238">
        <ele>459.20001220703</ele>
        <time>2021-06-26T09:23:38.000Z</time>
      </trkpt>
      <trkpt lat="45.19806" lon="5.72356">
        <ele>460.20001220703</ele>
        <time>2021-06-26T09:23:44.000Z</time>
      </trkpt>
      <trkpt lat="45.19813" lon="5.72338">
        <ele>460.20001220703</ele>
        <time>2021-06-26T09:23:49.000Z</time>
      </trkpt>
      <trkpt lat="45.19818" lon="5.72323">
        <ele>459.39999389648</ele>
        <time>2021-06-26T09:23:53.000Z</time>
      </trkpt>
      <trkpt lat="45.19818" lon="5.72319">
        <ele>459.39999389648</ele>
        <time>2021-06-26T09:23:54.000Z</time>
      </trkpt>
      <trkpt lat="45.19821" lon="5.72306">
        <ele>459</ele>
        <time>2021-06-26T09:23:58.000Z</time>
      </trkpt>
      <trkpt lat="45.19821" lon="5.72304">
        <ele>459</ele>
        <time>2021-06-26T09:23:59.000Z</time>
      </trkpt>
      <trkpt lat="45.1982" lon="5.72305">
        <ele>459</ele>
        <time>2021-06-26T09:24:00.000Z</time>
      </trkpt>
      <trkpt lat="45.1982" lon="5.72308">
        <ele>459</ele>
        <time>2021-06-26T09:24:02.000Z</time>
      </trkpt>
      <trkpt lat="45.19818" lon="5.72311">
        <ele>459</ele>
        <time>2021-06-26T09:24:03.000Z</time>
      </trkpt>
      <trkpt lat="45.19817" lon="5.7232">
        <ele>459</ele>
        <time>2021-06-26T09:24:06.000Z</time>
      </trkpt>
      <trkpt lat="45.19813" lon="5.72339">
        <ele>459.39999389648</ele>
        <time>2021-06-26T09:24:11.000Z</time>
      </trkpt>
      <trkpt lat="45.19802" lon="5.7236">
        <ele>458.79998779297</ele>
        <time>2021-06-26T09:24:17.000Z</time>
      </trkpt>
      <trkpt lat="45.198" lon="5.72363">
        <ele>458.79998779297</ele>
        <time>2021-06-26T09:24:18.000Z</time>
      </trkpt>
      <trkpt lat="45.19794" lon="5.72379">
        <ele>459.20001220703</ele>
        <time>2021-06-26T09:24:23.000Z</time>
      </trkpt>
      <trkpt lat="45.19789" lon="5.72398">
        <ele>459.20001220703</ele>
        <time>2021-06-26T09:24:28.000Z</time>
      </trkpt>
      <trkpt lat="45.19789" lon="5.72402">
        <ele>459.20001220703</ele>
        <time>2021-06-26T09:24:29.000Z</time>
      </trkpt>
      <trkpt lat="45.19789" lon="5.72419">
        <ele>458.60000610352</ele>
        <time>2021-06-26T09:24:33.000Z</time>
      </trkpt>
      <trkpt lat="45.19789" lon="5.72434">
        <ele>458.39999389648</ele>
        <time>2021-06-26T09:24:37.000Z</time>
      </trkpt>
      <trkpt lat="45.19788" lon="5.72443">
        <ele>458.20001220703</ele>
        <time>2021-06-26T09:24:39.000Z</time>
      </trkpt>
      <trkpt lat="45.19779" lon="5.72466">
        <ele>458</ele>
        <time>2021-06-26T09:24:46.000Z</time>
      </trkpt>
      <trkpt lat="45.19777" lon="5.72469">
        <ele>457.79998779297</ele>
        <time>2021-06-26T09:24:47.000Z</time>
      </trkpt>
      <trkpt lat="45.19765" lon="5.72491">
        <ele>458.20001220703</ele>
        <time>2021-06-26T09:24:53.000Z</time>
      </trkpt>
      <trkpt lat="45.19763" lon="5.72495">
        <ele>458.20001220703</ele>
        <time>2021-06-26T09:24:54.000Z</time>
      </trkpt>
      <trkpt lat="45.19752" lon="5.72512">
        <ele>458</ele>
        <time>2021-06-26T09:25:00.000Z</time>
      </trkpt>
      <trkpt lat="45.19743" lon="5.72515">
        <ele>458</ele>
        <time>2021-06-26T09:25:03.000Z</time>
      </trkpt>
      <trkpt lat="45.19742" lon="5.72517">
        <ele>458</ele>
        <time>2021-06-26T09:25:04.000Z</time>
      </trkpt>
      <trkpt lat="45.1974" lon="5.72531">
        <ele>458.20001220703</ele>
        <time>2021-06-26T09:25:08.000Z</time>
      </trkpt>
      <trkpt lat="45.19747" lon="5.72535">
        <ele>458.20001220703</ele>
        <time>2021-06-26T09:25:12.000Z</time>
      </trkpt>
      <trkpt lat="45.19748" lon="5.72537">
        <ele>458.20001220703</ele>
        <time>2021-06-26T09:25:13.000Z</time>
      </trkpt>
      <trkpt lat="45.19748" lon="5.72544">
        <ele>458</ele>
        <time>2021-06-26T09:25:15.000Z</time>
      </trkpt>
      <trkpt lat="45.1975" lon="5.72548">
        <ele>458</ele>
        <time>2021-06-26T09:25:16.000Z</time>
      </trkpt>
      <trkpt lat="45.19752" lon="5.72559">
        <ele>457.79998779297</ele>
        <time>2021-06-26T09:25:19.000Z</time>
      </trkpt>
      <trkpt lat="45.19752" lon="5.72568">
        <ele>458</ele>
        <time>2021-06-26T09:25:21.000Z</time>
      </trkpt>
      <trkpt lat="45.19754" lon="5.72589">
        <ele>458.20001220703</ele>
        <time>2021-06-26T09:25:26.000Z</time>
      </trkpt>
      <trkpt lat="45.19755" lon="5.72606">
        <ele>458.20001220703</ele>
        <time>2021-06-26T09:25:30.000Z</time>
      </trkpt>
      <trkpt lat="45.19753" lon="5.72621">
        <ele>458.20001220703</ele>
        <time>2021-06-26T09:25:34.000Z</time>
      </trkpt>
      <trkpt lat="45.1975" lon="5.72635">
        <ele>458.60000610352</ele>
        <time>2021-06-26T09:25:38.000Z</time>
      </trkpt>
      <trkpt lat="45.19751" lon="5.72634">
        <ele>458.39999389648</ele>
        <time>2021-06-26T09:25:39.000Z</time>
      </trkpt>
      <trkpt lat="45.19755" lon="5.72633">
        <ele>458.20001220703</ele>
        <time>2021-06-26T09:25:42.000Z</time>
      </trkpt>
      <trkpt lat="45.19756" lon="5.72634">
        <ele>458.20001220703</ele>
        <time>2021-06-26T09:25:43.000Z</time>
      </trkpt>
      <trkpt lat="45.19764" lon="5.72642">
        <ele>458.39999389648</ele>
        <time>2021-06-26T09:25:48.000Z</time>
      </trkpt>
      <trkpt lat="45.19778" lon="5.72662">
        <ele>458.20001220703</ele>
        <time>2021-06-26T09:25:55.000Z</time>
      </trkpt>
      <trkpt lat="45.19784" lon="5.7267">
        <ele>458.20001220703</ele>
        <time>2021-06-26T09:25:58.000Z</time>
      </trkpt>
      <trkpt lat="45.19797" lon="5.72683">
        <ele>458.20001220703</ele>
        <time>2021-06-26T09:26:04.000Z</time>
      </trkpt>
      <trkpt lat="45.1981" lon="5.727">
        <ele>459</ele>
        <time>2021-06-26T09:26:11.000Z</time>
      </trkpt>
      <trkpt lat="45.19812" lon="5.72702">
        <ele>458.60000610352</ele>
        <time>2021-06-26T09:26:12.000Z</time>
      </trkpt>
      <trkpt lat="45.19821" lon="5.72711">
        <ele>459.60000610352</ele>
        <time>2021-06-26T09:26:16.000Z</time>
      </trkpt>
      <trkpt lat="45.19829" lon="5.72719">
        <ele>459.79998779297</ele>
        <time>2021-06-26T09:26:19.000Z</time>
      </trkpt>
      <trkpt lat="45.1984" lon="5.72738">
        <ele>459.60000610352</ele>
        <time>2021-06-26T09:26:24.000Z</time>
      </trkpt>
      <trkpt lat="45.19845" lon="5.72741">
        <ele>459.60000610352</ele>
        <time>2021-06-26T09:26:27.000Z</time>
      </trkpt>
      <trkpt lat="45.19859" lon="5.72749">
        <ele>455.39999389648</ele>
        <time>2021-06-26T09:26:43.000Z</time>
      </trkpt>
      <trkpt lat="45.19852" lon="5.72757">
        <ele>454.79998779297</ele>
        <time>2021-06-26T09:26:45.000Z</time>
      </trkpt>
      <trkpt lat="45.19853" lon="5.72767">
        <ele>454.60000610352</ele>
        <time>2021-06-26T09:26:49.000Z</time>
      </trkpt>
      <trkpt lat="45.19853" lon="5.72766">
        <ele>453.39999389648</ele>
        <time>2021-06-26T09:26:51.000Z</time>
      </trkpt>
      <trkpt lat="45.19852" lon="5.72763">
        <ele>452</ele>
        <time>2021-06-26T09:26:53.000Z</time>
      </trkpt>
      <trkpt lat="45.19851" lon="5.72759">
        <ele>451.20001220703</ele>
        <time>2021-06-26T09:26:55.000Z</time>
      </trkpt>
      <trkpt lat="45.19851" lon="5.72758">
        <ele>450.60000610352</ele>
        <time>2021-06-26T09:26:56.000Z</time>
      </trkpt>
      <trkpt lat="45.19852" lon="5.72758">
        <ele>449.39999389648</ele>
        <time>2021-06-26T09:26:57.000Z</time>
      </trkpt>
      <trkpt lat="45.19852" lon="5.72759">
        <ele>449.39999389648</ele>
        <time>2021-06-26T09:26:58.000Z</time>
      </trkpt>
      <trkpt lat="45.19848" lon="5.72759">
        <ele>449.20001220703</ele>
        <time>2021-06-26T09:27:00.000Z</time>
      </trkpt>
      <trkpt lat="45.1983" lon="5.72816">
        <ele>434.60000610352</ele>
        <time>2021-06-26T09:27:34.000Z</time>
      </trkpt>
      <trkpt lat="45.19833" lon="5.72807">
        <ele>434.20001220703</ele>
        <time>2021-06-26T09:27:35.000Z</time>
      </trkpt>
      <trkpt lat="45.19835" lon="5.72799">
        <ele>433.79998779297</ele>
        <time>2021-06-26T09:27:36.000Z</time>
      </trkpt>
      <trkpt lat="45.1983" lon="5.72805">
        <ele>432.60000610352</ele>
        <time>2021-06-26T09:27:37.000Z</time>
      </trkpt>
      <trkpt lat="45.19833" lon="5.72802">
        <ele>432.39999389648</ele>
        <time>2021-06-26T09:27:38.000Z</time>
      </trkpt>
      <trkpt lat="45.19836" lon="5.72802">
        <ele>431.39999389648</ele>
        <time>2021-06-26T09:27:40.000Z</time>
      </trkpt>
      <trkpt lat="45.19843" lon="5.72808">
        <ele>430.60000610352</ele>
        <time>2021-06-26T09:27:44.000Z</time>
      </trkpt>
      <trkpt lat="45.19842" lon="5.72803">
        <ele>430.20001220703</ele>
        <time>2021-06-26T09:27:45.000Z</time>
      </trkpt>
      <trkpt lat="45.19834" lon="5.72795">
        <ele>429.79998779297</ele>
        <time>2021-06-26T09:27:48.000Z</time>
      </trkpt>
      <trkpt lat="45.1983" lon="5.72789">
        <ele>429.20001220703</ele>
        <time>2021-06-26T09:27:50.000Z</time>
      </trkpt>
      <trkpt lat="45.19825" lon="5.72782">
        <ele>428</ele>
        <time>2021-06-26T09:27:52.000Z</time>
      </trkpt>
      <trkpt lat="45.19816" lon="5.72771">
        <ele>427.39999389648</ele>
        <time>2021-06-26T09:27:56.000Z</time>
      </trkpt>
      <trkpt lat="45.19813" lon="5.72769">
        <ele>426.79998779297</ele>
        <time>2021-06-26T09:27:57.000Z</time>
      </trkpt>
      <trkpt lat="45.19804" lon="5.7276">
        <ele>425.79998779297</ele>
        <time>2021-06-26T09:28:01.000Z</time>
      </trkpt>
      <trkpt lat="45.19789" lon="5.7275">
        <ele>425</ele>
        <time>2021-06-26T09:28:07.000Z</time>
      </trkpt>
      <trkpt lat="45.19787" lon="5.72748">
        <ele>424.39999389648</ele>
        <time>2021-06-26T09:28:08.000Z</time>
      </trkpt>
      <trkpt lat="45.19783" lon="5.72747">
        <ele>424</ele>
        <time>2021-06-26T09:28:10.000Z</time>
      </trkpt>
      <trkpt lat="45.19783" lon="5.72747">
        <ele>423.60000610352</ele>
        <time>2021-06-26T09:28:11.000Z</time>
      </trkpt>
      <trkpt lat="45.19785" lon="5.72749">
        <ele>423.39999389648</ele>
        <time>2021-06-26T09:28:13.000Z</time>
      </trkpt>
      <trkpt lat="45.19788" lon="5.72747">
        <ele>423.20001220703</ele>
        <time>2021-06-26T09:28:14.000Z</time>
      </trkpt>
      <trkpt lat="45.19792" lon="5.72749">
        <ele>422</ele>
        <time>2021-06-26T09:28:16.000Z</time>
      </trkpt>
      <trkpt lat="45.19796" lon="5.72751">
        <ele>421.79998779297</ele>
        <time>2021-06-26T09:28:18.000Z</time>
      </trkpt>
      <trkpt lat="45.19802" lon="5.72762">
        <ele>419.79998779297</ele>
        <time>2021-06-26T09:28:22.000Z</time>
      </trkpt>
      <trkpt lat="45.19805" lon="5.72768">
        <ele>419.79998779297</ele>
        <time>2021-06-26T09:28:24.000Z</time>
      </trkpt>
      <trkpt lat="45.19812" lon="5.72777">
        <ele>418.60000610352</ele>
        <time>2021-06-26T09:28:28.000Z</time>
      </trkpt>
      <trkpt lat="45.19816" lon="5.72782">
        <ele>418.20001220703</ele>
        <time>2021-06-26T09:28:30.000Z</time>
      </trkpt>
      <trkpt lat="45.19821" lon="5.72786">
        <ele>417.39999389648</ele>
        <time>2021-06-26T09:28:32.000Z</time>
      </trkpt>
      <trkpt lat="45.19832" lon="5.72795">
        <ele>416</ele>
        <time>2021-06-26T09:28:36.000Z</time>
      </trkpt>
      <trkpt lat="45.19835" lon="5.72797">
        <ele>415</ele>
        <time>2021-06-26T09:28:37.000Z</time>
      </trkpt>
      <trkpt lat="45.19836" lon="5.72799">
        <ele>414.60000610352</ele>
        <time>2021-06-26T09:28:38.000Z</time>
      </trkpt>
      <trkpt lat="45.19836" lon="5.72802">
        <ele>414.60000610352</ele>
        <time>2021-06-26T09:28:39.000Z</time>
      </trkpt>
      <trkpt lat="45.19833" lon="5.72802">
        <ele>414.20001220703</ele>
        <time>2021-06-26T09:28:41.000Z</time>
      </trkpt>
      <trkpt lat="45.1983" lon="5.72801">
        <ele>413.60000610352</ele>
        <time>2021-06-26T09:28:42.000Z</time>
      </trkpt>
      <trkpt lat="45.19821" lon="5.72794">
        <ele>412.39999389648</ele>
        <time>2021-06-26T09:28:46.000Z</time>
      </trkpt>
      <trkpt lat="45.19815" lon="5.7279">
        <ele>411.79998779297</ele>
        <time>2021-06-26T09:28:48.000Z</time>
      </trkpt>
      <trkpt lat="45.19811" lon="5.72788">
        <ele>410.79998779297</ele>
        <time>2021-06-26T09:28:50.000Z</time>
      </trkpt>
      <trkpt lat="45.19808" lon="5.72786">
        <ele>410.79998779297</ele>
        <time>2021-06-26T09:28:51.000Z</time>
      </trkpt>
      <trkpt lat="45.19803" lon="5.72783">
        <ele>409.60000610352</ele>
        <time>2021-06-26T09:28:53.000Z</time>
      </trkpt>
      <trkpt lat="45.19794" lon="5.72783">
        <ele>408.20001220703</ele>
        <time>2021-06-26T09:28:58.000Z</time>
      </trkpt>
      <trkpt lat="45.198" lon="5.72785">
        <ele>407.79998779297</ele>
        <time>2021-06-26T09:29:01.000Z</time>
      </trkpt>
      <trkpt lat="45.19803" lon="5.72789">
        <ele>407.39999389648</ele>
        <time>2021-06-26T09:29:03.000Z</time>
      </trkpt>
      <trkpt lat="45.19805" lon="5.72791">
        <ele>406.79998779297</ele>
        <time>2021-06-26T09:29:04.000Z</time>
      </trkpt>
      <trkpt lat="45.19817" lon="5.72805">
        <ele>405.60000610352</ele>
        <time>2021-06-26T09:29:10.000Z</time>
      </trkpt>
      <trkpt lat="45.19821" lon="5.72809">
        <ele>405.20001220703</ele>
        <time>2021-06-26T09:29:12.000Z</time>
      </trkpt>
      <trkpt lat="45.19822" lon="5.72812">
        <ele>404.60000610352</ele>
        <time>2021-06-26T09:29:13.000Z</time>
      </trkpt>
      <trkpt lat="45.19826" lon="5.72818">
        <ele>403.20001220703</ele>
        <time>2021-06-26T09:29:15.000Z</time>
      </trkpt>
      <trkpt lat="45.19829" lon="5.72822">
        <ele>402.20001220703</ele>
        <time>2021-06-26T09:29:17.000Z</time>
      </trkpt>
      <trkpt lat="45.19833" lon="5.72824">
        <ele>401.79998779297</ele>
        <time>2021-06-26T09:29:18.000Z</time>
      </trkpt>
      <trkpt lat="45.19839" lon="5.72827">
        <ele>401.20001220703</ele>
        <time>2021-06-26T09:29:20.000Z</time>
      </trkpt>
      <trkpt lat="45.19837" lon="5.72831">
        <ele>400.60000610352</ele>
        <time>2021-06-26T09:29:22.000Z</time>
      </trkpt>
      <trkpt lat="45.19825" lon="5.72824">
        <ele>399.60000610352</ele>
        <time>2021-06-26T09:29:27.000Z</time>
      </trkpt>
      <trkpt lat="45.19823" lon="5.72822">
        <ele>399.20001220703</ele>
        <time>2021-06-26T09:29:28.000Z</time>
      </trkpt>
      <trkpt lat="45.19813" lon="5.72818">
        <ele>398.39999389648</ele>
        <time>2021-06-26T09:29:32.000Z</time>
      </trkpt>
      <trkpt lat="45.19813" lon="5.72818">
        <ele>398.20001220703</ele>
        <time>2021-06-26T09:29:33.000Z</time>
      </trkpt>
      <trkpt lat="45.19814" lon="5.72819">
        <ele>398</ele>
        <time>2021-06-26T09:29:34.000Z</time>
      </trkpt>
      <trkpt lat="45.19815" lon="5.7282">
        <ele>396.79998779297</ele>
        <time>2021-06-26T09:29:35.000Z</time>
      </trkpt>
      <trkpt lat="45.19816" lon="5.72821">
        <ele>396.60000610352</ele>
        <time>2021-06-26T09:29:36.000Z</time>
      </trkpt>
      <trkpt lat="45.19823" lon="5.72826">
        <ele>396</ele>
        <time>2021-06-26T09:29:39.000Z</time>
      </trkpt>
      <trkpt lat="45.19825" lon="5.72828">
        <ele>395.60000610352</ele>
        <time>2021-06-26T09:29:40.000Z</time>
      </trkpt>
      <trkpt lat="45.19828" lon="5.72832">
        <ele>395.20001220703</ele>
        <time>2021-06-26T09:29:42.000Z</time>
      </trkpt>
      <trkpt lat="45.19828" lon="5.72833">
        <ele>394</ele>
        <time>2021-06-26T09:29:43.000Z</time>
      </trkpt>
      <trkpt lat="45.19827" lon="5.72834">
        <ele>394</ele>
        <time>2021-06-26T09:29:44.000Z</time>
      </trkpt>
      <trkpt lat="45.19818" lon="5.72831">
        <ele>393.60000610352</ele>
        <time>2021-06-26T09:29:48.000Z</time>
      </trkpt>
      <trkpt lat="45.19813" lon="5.72828">
        <ele>393</ele>
        <time>2021-06-26T09:29:50.000Z</time>
      </trkpt>
      <trkpt lat="45.19808" lon="5.72824">
        <ele>392</ele>
        <time>2021-06-26T09:29:52.000Z</time>
      </trkpt>
      <trkpt lat="45.19799" lon="5.72819">
        <ele>391</ele>
        <time>2021-06-26T09:29:55.000Z</time>
      </trkpt>
      <trkpt lat="45.19796" lon="5.72819">
        <ele>390.60000610352</ele>
        <time>2021-06-26T09:29:56.000Z</time>
      </trkpt>
      <trkpt lat="45.19789" lon="5.72817">
        <ele>389.79998779297</ele>
        <time>2021-06-26T09:29:59.000Z</time>
      </trkpt>
      <trkpt lat="45.19788" lon="5.72818">
        <ele>389.39999389648</ele>
        <time>2021-06-26T09:30:01.000Z</time>
      </trkpt>
      <trkpt lat="45.19789" lon="5.72819">
        <ele>389</ele>
        <time>2021-06-26T09:30:02.000Z</time>
      </trkpt>
      <trkpt lat="45.19791" lon="5.72819">
        <ele>388.60000610352</ele>
        <time>2021-06-26T09:30:03.000Z</time>
      </trkpt>
      <trkpt lat="45.19796" lon="5.72826">
        <ele>388.20001220703</ele>
        <time>2021-06-26T09:30:06.000Z</time>
      </trkpt>
      <trkpt lat="45.19797" lon="5.72828">
        <ele>387.39999389648</ele>
        <time>2021-06-26T09:30:07.000Z</time>
      </trkpt>
      <trkpt lat="45.19802" lon="5.72833">
        <ele>387.20001220703</ele>
        <time>2021-06-26T09:30:09.000Z</time>
      </trkpt>
      <trkpt lat="45.19814" lon="5.72842">
        <ele>386.79998779297</ele>
        <time>2021-06-26T09:30:14.000Z</time>
      </trkpt>
      <trkpt lat="45.19819" lon="5.72848">
        <ele>386</ele>
        <time>2021-06-26T09:30:17.000Z</time>
      </trkpt>
      <trkpt lat="45.19817" lon="5.72849">
        <ele>385.20001220703</ele>
        <time>2021-06-26T09:30:19.000Z</time>
      </trkpt>
      <trkpt lat="45.19807" lon="5.72845">
        <ele>385</ele>
        <time>2021-06-26T09:30:23.000Z</time>
      </trkpt>
      <trkpt lat="45.19803" lon="5.72844">
        <ele>384.39999389648</ele>
        <time>2021-06-26T09:30:24.000Z</time>
      </trkpt>
      <trkpt lat="45.19798" lon="5.7284">
        <ele>383.39999389648</ele>
        <time>2021-06-26T09:30:26.000Z</time>
      </trkpt>
      <trkpt lat="45.19788" lon="5.72837">
        <ele>383</ele>
        <time>2021-06-26T09:30:29.000Z</time>
      </trkpt>
      <trkpt lat="45.19782" lon="5.72835">
        <ele>381.79998779297</ele>
        <time>2021-06-26T09:30:31.000Z</time>
      </trkpt>
      <trkpt lat="45.19779" lon="5.72835">
        <ele>381.60000610352</ele>
        <time>2021-06-26T09:30:32.000Z</time>
      </trkpt>
      <trkpt lat="45.19773" lon="5.72832">
        <ele>380.79998779297</ele>
        <time>2021-06-26T09:30:34.000Z</time>
      </trkpt>
      <trkpt lat="45.19767" lon="5.72828">
        <ele>380.60000610352</ele>
        <time>2021-06-26T09:30:36.000Z</time>
      </trkpt>
      <trkpt lat="45.19762" lon="5.72825">
        <ele>379.20001220703</ele>
        <time>2021-06-26T09:30:38.000Z</time>
      </trkpt>
      <trkpt lat="45.19756" lon="5.72821">
        <ele>378.79998779297</ele>
        <time>2021-06-26T09:30:41.000Z</time>
      </trkpt>
      <trkpt lat="45.19752" lon="5.7282">
        <ele>377.20001220703</ele>
        <time>2021-06-26T09:30:43.000Z</time>
      </trkpt>
      <trkpt lat="45.19751" lon="5.72819">
        <ele>377</ele>
        <time>2021-06-26T09:30:44.000Z</time>
      </trkpt>
      <trkpt lat="45.19751" lon="5.7282">
        <ele>377</ele>
        <time>2021-06-26T09:30:45.000Z</time>
      </trkpt>
      <trkpt lat="45.19758" lon="5.72828">
        <ele>376.20001220703</ele>
        <time>2021-06-26T09:30:50.000Z</time>
      </trkpt>
      <trkpt lat="45.19763" lon="5.72831">
        <ele>375.60000610352</ele>
        <time>2021-06-26T09:30:52.000Z</time>
      </trkpt>
      <trkpt lat="45.19768" lon="5.72833">
        <ele>375</ele>
        <time>2021-06-26T09:30:54.000Z</time>
      </trkpt>
      <trkpt lat="45.19772" lon="5.72836">
        <ele>373.79998779297</ele>
        <time>2021-06-26T09:30:56.000Z</time>
      </trkpt>
      <trkpt lat="45.19779" lon="5.72842">
        <ele>372.79998779297</ele>
        <time>2021-06-26T09:31:00.000Z</time>
      </trkpt>
      <trkpt lat="45.19783" lon="5.72847">
        <ele>371.79998779297</ele>
        <time>2021-06-26T09:31:02.000Z</time>
      </trkpt>
      <trkpt lat="45.19787" lon="5.72852">
        <ele>371.39999389648</ele>
        <time>2021-06-26T09:31:04.000Z</time>
      </trkpt>
      <trkpt lat="45.19792" lon="5.72859">
        <ele>369.79998779297</ele>
        <time>2021-06-26T09:31:07.000Z</time>
      </trkpt>
      <trkpt lat="45.19798" lon="5.72863">
        <ele>368.39999389648</ele>
        <time>2021-06-26T09:31:10.000Z</time>
      </trkpt>
      <trkpt lat="45.19801" lon="5.7287">
        <ele>367.79998779297</ele>
        <time>2021-06-26T09:31:13.000Z</time>
      </trkpt>
      <trkpt lat="45.198" lon="5.72873">
        <ele>367</ele>
        <time>2021-06-26T09:31:14.000Z</time>
      </trkpt>
      <trkpt lat="45.19799" lon="5.72875">
        <ele>367</ele>
        <time>2021-06-26T09:31:15.000Z</time>
      </trkpt>
      <trkpt lat="45.19794" lon="5.72878">
        <ele>366.60000610352</ele>
        <time>2021-06-26T09:31:17.000Z</time>
      </trkpt>
      <trkpt lat="45.19784" lon="5.72878">
        <ele>365.20001220703</ele>
        <time>2021-06-26T09:31:21.000Z</time>
      </trkpt>
      <trkpt lat="45.19782" lon="5.72878">
        <ele>364.60000610352</ele>
        <time>2021-06-26T09:31:22.000Z</time>
      </trkpt>
      <trkpt lat="45.19775" lon="5.72877">
        <ele>364</ele>
        <time>2021-06-26T09:31:24.000Z</time>
      </trkpt>
      <trkpt lat="45.19767" lon="5.72875">
        <ele>363.39999389648</ele>
        <time>2021-06-26T09:31:27.000Z</time>
      </trkpt>
      <trkpt lat="45.19765" lon="5.72874">
        <ele>362.79998779297</ele>
        <time>2021-06-26T09:31:28.000Z</time>
      </trkpt>
      <trkpt lat="45.19762" lon="5.72871">
        <ele>362.39999389648</ele>
        <time>2021-06-26T09:31:29.000Z</time>
      </trkpt>
      <trkpt lat="45.19758" lon="5.72869">
        <ele>362</ele>
        <time>2021-06-26T09:31:31.000Z</time>
      </trkpt>
      <trkpt lat="45.19752" lon="5.72866">
        <ele>360.39999389648</ele>
        <time>2021-06-26T09:31:33.000Z</time>
      </trkpt>
      <trkpt lat="45.19744" lon="5.72861">
        <ele>360</ele>
        <time>2021-06-26T09:31:36.000Z</time>
      </trkpt>
      <trkpt lat="45.19743" lon="5.72858">
        <ele>359</ele>
        <time>2021-06-26T09:31:38.000Z</time>
      </trkpt>
      <trkpt lat="45.19744" lon="5.72858">
        <ele>359</ele>
        <time>2021-06-26T09:31:39.000Z</time>
      </trkpt>
      <trkpt lat="45.19752" lon="5.7286">
        <ele>357.39999389648</ele>
        <time>2021-06-26T09:31:45.000Z</time>
      </trkpt>
      <trkpt lat="45.19762" lon="5.7287">
        <ele>355.79998779297</ele>
        <time>2021-06-26T09:31:50.000Z</time>
      </trkpt>
      <trkpt lat="45.19763" lon="5.72872">
        <ele>355.60000610352</ele>
        <time>2021-06-26T09:31:51.000Z</time>
      </trkpt>
      <trkpt lat="45.19767" lon="5.72878">
        <ele>354.79998779297</ele>
        <time>2021-06-26T09:31:54.000Z</time>
      </trkpt>
      <trkpt lat="45.19774" lon="5.72884">
        <ele>353.79998779297</ele>
        <time>2021-06-26T09:31:57.000Z</time>
      </trkpt>
      <trkpt lat="45.1978" lon="5.72888">
        <ele>353</ele>
        <time>2021-06-26T09:31:59.000Z</time>
      </trkpt>
      <trkpt lat="45.19784" lon="5.72894">
        <ele>351.60000610352</ele>
        <time>2021-06-26T09:32:01.000Z</time>
      </trkpt>
      <trkpt lat="45.19794" lon="5.72908">
        <ele>350.39999389648</ele>
        <time>2021-06-26T09:32:06.000Z</time>
      </trkpt>
      <trkpt lat="45.19795" lon="5.7291">
        <ele>349.79998779297</ele>
        <time>2021-06-26T09:32:07.000Z</time>
      </trkpt>
      <trkpt lat="45.19797" lon="5.72917">
        <ele>349.60000610352</ele>
        <time>2021-06-26T09:32:09.000Z</time>
      </trkpt>
      <trkpt lat="45.19796" lon="5.72918">
        <ele>348.60000610352</ele>
        <time>2021-06-26T09:32:10.000Z</time>
      </trkpt>
      <trkpt lat="45.19794" lon="5.7292">
        <ele>347.60000610352</ele>
        <time>2021-06-26T09:32:11.000Z</time>
      </trkpt>
      <trkpt lat="45.1979" lon="5.7292">
        <ele>347.60000610352</ele>
        <time>2021-06-26T09:32:13.000Z</time>
      </trkpt>
      <trkpt lat="45.19777" lon="5.72917">
        <ele>346.39999389648</ele>
        <time>2021-06-26T09:32:18.000Z</time>
      </trkpt>
      <trkpt lat="45.19767" lon="5.72915">
        <ele>344.79998779297</ele>
        <time>2021-06-26T09:32:21.000Z</time>
      </trkpt>
      <trkpt lat="45.19756" lon="5.72908">
        <ele>343.79998779297</ele>
        <time>2021-06-26T09:32:25.000Z</time>
      </trkpt>
      <trkpt lat="45.19754" lon="5.72907">
        <ele>343</ele>
        <time>2021-06-26T09:32:26.000Z</time>
      </trkpt>
      <trkpt lat="45.19741" lon="5.72901">
        <ele>341</ele>
        <time>2021-06-26T09:32:31.000Z</time>
      </trkpt>
      <trkpt lat="45.1974" lon="5.72898">
        <ele>340.60000610352</ele>
        <time>2021-06-26T09:32:32.000Z</time>
      </trkpt>
      <trkpt lat="45.19725" lon="5.72896">
        <ele>339.60000610352</ele>
        <time>2021-06-26T09:32:37.000Z</time>
      </trkpt>
      <trkpt lat="45.19714" lon="5.72892">
        <ele>339</ele>
        <time>2021-06-26T09:32:40.000Z</time>
      </trkpt>
      <trkpt lat="45.19711" lon="5.72891">
        <ele>339</ele>
        <time>2021-06-26T09:32:41.000Z</time>
      </trkpt>
      <trkpt lat="45.19708" lon="5.72889">
        <ele>338.20001220703</ele>
        <time>2021-06-26T09:32:42.000Z</time>
      </trkpt>
      <trkpt lat="45.19699" lon="5.72883">
        <ele>337.39999389648</ele>
        <time>2021-06-26T09:32:45.000Z</time>
      </trkpt>
      <trkpt lat="45.19694" lon="5.72879">
        <ele>336.79998779297</ele>
        <time>2021-06-26T09:32:47.000Z</time>
      </trkpt>
      <trkpt lat="45.1969" lon="5.72874">
        <ele>336.39999389648</ele>
        <time>2021-06-26T09:32:49.000Z</time>
      </trkpt>
      <trkpt lat="45.19687" lon="5.72872">
        <ele>336.39999389648</ele>
        <time>2021-06-26T09:32:50.000Z</time>
      </trkpt>
      <trkpt lat="45.19686" lon="5.72871">
        <ele>335.60000610352</ele>
        <time>2021-06-26T09:32:51.000Z</time>
      </trkpt>
      <trkpt lat="45.19687" lon="5.72869">
        <ele>334.79998779297</ele>
        <time>2021-06-26T09:32:53.000Z</time>
      </trkpt>
      <trkpt lat="45.19689" lon="5.72869">
        <ele>334.39999389648</ele>
        <time>2021-06-26T09:32:54.000Z</time>
      </trkpt>
      <trkpt lat="45.19692" lon="5.7287">
        <ele>334.39999389648</ele>
        <time>2021-06-26T09:32:56.000Z</time>
      </trkpt>
      <trkpt lat="45.19694" lon="5.72874">
        <ele>333.79998779297</ele>
        <time>2021-06-26T09:32:58.000Z</time>
      </trkpt>
      <trkpt lat="45.19695" lon="5.72875">
        <ele>333.39999389648</ele>
        <time>2021-06-26T09:32:59.000Z</time>
      </trkpt>
      <trkpt lat="45.197" lon="5.72879">
        <ele>332.20001220703</ele>
        <time>2021-06-26T09:33:03.000Z</time>
      </trkpt>
      <trkpt lat="45.19702" lon="5.72881">
        <ele>332</ele>
        <time>2021-06-26T09:33:04.000Z</time>
      </trkpt>
      <trkpt lat="45.19708" lon="5.72889">
        <ele>330.60000610352</ele>
        <time>2021-06-26T09:33:08.000Z</time>
      </trkpt>
      <trkpt lat="45.19711" lon="5.72893">
        <ele>330.39999389648</ele>
        <time>2021-06-26T09:33:10.000Z</time>
      </trkpt>
      <trkpt lat="45.19713" lon="5.72898">
        <ele>329.39999389648</ele>
        <time>2021-06-26T09:33:12.000Z</time>
      </trkpt>
      <trkpt lat="45.1972" lon="5.72912">
        <ele>328.20001220703</ele>
        <time>2021-06-26T09:33:16.000Z</time>
      </trkpt>
      <trkpt lat="45.19724" lon="5.72917">
        <ele>327.39999389648</ele>
        <time>2021-06-26T09:33:18.000Z</time>
      </trkpt>
      <trkpt lat="45.1973" lon="5.72926">
        <ele>326.39999389648</ele>
        <time>2021-06-26T09:33:21.000Z</time>
      </trkpt>
      <trkpt lat="45.19739" lon="5.72938">
        <ele>325.79998779297</ele>
        <time>2021-06-26T09:33:25.000Z</time>
      </trkpt>
      <trkpt lat="45.19744" lon="5.72946">
        <ele>325</ele>
        <time>2021-06-26T09:33:27.000Z</time>
      </trkpt>
      <trkpt lat="45.19751" lon="5.72952">
        <ele>324.20001220703</ele>
        <time>2021-06-26T09:33:30.000Z</time>
      </trkpt>
      <trkpt lat="45.19753" lon="5.72954">
        <ele>324</ele>
        <time>2021-06-26T09:33:31.000Z</time>
      </trkpt>
      <trkpt lat="45.19754" lon="5.72956">
        <ele>323.79998779297</ele>
        <time>2021-06-26T09:33:32.000Z</time>
      </trkpt>
      <trkpt lat="45.19755" lon="5.72958">
        <ele>322.79998779297</ele>
        <time>2021-06-26T09:33:33.000Z</time>
      </trkpt>
      <trkpt lat="45.19766" lon="5.72971">
        <ele>321.39999389648</ele>
        <time>2021-06-26T09:33:39.000Z</time>
      </trkpt>
      <trkpt lat="45.19766" lon="5.72973">
        <ele>321.39999389648</ele>
        <time>2021-06-26T09:33:40.000Z</time>
      </trkpt>
      <trkpt lat="45.19771" lon="5.72979">
        <ele>320.39999389648</ele>
        <time>2021-06-26T09:33:43.000Z</time>
      </trkpt>
      <trkpt lat="45.19772" lon="5.7298">
        <ele>319.79998779297</ele>
        <time>2021-06-26T09:33:44.000Z</time>
      </trkpt>
      <trkpt lat="45.19774" lon="5.72982">
        <ele>319.20001220703</ele>
        <time>2021-06-26T09:33:45.000Z</time>
      </trkpt>
      <trkpt lat="45.19776" lon="5.72985">
        <ele>319.20001220703</ele>
        <time>2021-06-26T09:33:46.000Z</time>
      </trkpt>
      <trkpt lat="45.19777" lon="5.72989">
        <ele>319</ele>
        <time>2021-06-26T09:33:47.000Z</time>
      </trkpt>
      <trkpt lat="45.19779" lon="5.72992">
        <ele>318.79998779297</ele>
        <time>2021-06-26T09:33:48.000Z</time>
      </trkpt>
      <trkpt lat="45.19784" lon="5.72999">
        <ele>317.79998779297</ele>
        <time>2021-06-26T09:33:51.000Z</time>
      </trkpt>
      <trkpt lat="45.19787" lon="5.73001">
        <ele>317.60000610352</ele>
        <time>2021-06-26T09:33:52.000Z</time>
      </trkpt>
      <trkpt lat="45.19794" lon="5.73008">
        <ele>317.20001220703</ele>
        <time>2021-06-26T09:33:55.000Z</time>
      </trkpt>
      <trkpt lat="45.19793" lon="5.73013">
        <ele>316.20001220703</ele>
        <time>2021-06-26T09:33:57.000Z</time>
      </trkpt>
      <trkpt lat="45.19789" lon="5.73018">
        <ele>315.79998779297</ele>
        <time>2021-06-26T09:33:59.000Z</time>
      </trkpt>
      <trkpt lat="45.19787" lon="5.7302">
        <ele>315.20001220703</ele>
        <time>2021-06-26T09:34:00.000Z</time>
      </trkpt>
      <trkpt lat="45.19785" lon="5.7302">
        <ele>315</ele>
        <time>2021-06-26T09:34:01.000Z</time>
      </trkpt>
      <trkpt lat="45.19781" lon="5.73019">
        <ele>314.60000610352</ele>
        <time>2021-06-26T09:34:03.000Z</time>
      </trkpt>
      <trkpt lat="45.19777" lon="5.73018">
        <ele>314.20001220703</ele>
        <time>2021-06-26T09:34:05.000Z</time>
      </trkpt>
      <trkpt lat="45.19769" lon="5.73015">
        <ele>313</ele>
        <time>2021-06-26T09:34:08.000Z</time>
      </trkpt>
      <trkpt lat="45.19767" lon="5.73014">
        <ele>313</ele>
        <time>2021-06-26T09:34:09.000Z</time>
      </trkpt>
      <trkpt lat="45.1976" lon="5.73012">
        <ele>311.79998779297</ele>
        <time>2021-06-26T09:34:13.000Z</time>
      </trkpt>
      <trkpt lat="45.19761" lon="5.73013">
        <ele>311.39999389648</ele>
        <time>2021-06-26T09:34:14.000Z</time>
      </trkpt>
      <trkpt lat="45.19762" lon="5.73013">
        <ele>311</ele>
        <time>2021-06-26T09:34:15.000Z</time>
      </trkpt>
      <trkpt lat="45.19764" lon="5.73012">
        <ele>310.79998779297</ele>
        <time>2021-06-26T09:34:17.000Z</time>
      </trkpt>
      <trkpt lat="45.19766" lon="5.73013">
        <ele>310.60000610352</ele>
        <time>2021-06-26T09:34:18.000Z</time>
      </trkpt>
      <trkpt lat="45.1977" lon="5.73014">
        <ele>309.20001220703</ele>
        <time>2021-06-26T09:34:20.000Z</time>
      </trkpt>
      <trkpt lat="45.19779" lon="5.7302">
        <ele>308.79998779297</ele>
        <time>2021-06-26T09:34:24.000Z</time>
      </trkpt>
      <trkpt lat="45.19784" lon="5.73024">
        <ele>308</ele>
        <time>2021-06-26T09:34:26.000Z</time>
      </trkpt>
      <trkpt lat="45.19795" lon="5.73033">
        <ele>306.60000610352</ele>
        <time>2021-06-26T09:34:31.000Z</time>
      </trkpt>
      <trkpt lat="45.19796" lon="5.73037">
        <ele>306</ele>
        <time>2021-06-26T09:34:33.000Z</time>
      </trkpt>
      <trkpt lat="45.19794" lon="5.73039">
        <ele>305.20001220703</ele>
        <time>2021-06-26T09:34:35.000Z</time>
      </trkpt>
      <trkpt lat="45.19783" lon="5.73043">
        <ele>303.60000610352</ele>
        <time>2021-06-26T09:34:39.000Z</time>
      </trkpt>
      <trkpt lat="45.19781" lon="5.73044">
        <ele>303.39999389648</ele>
        <time>2021-06-26T09:34:40.000Z</time>
      </trkpt>
      <trkpt lat="45.19769" lon="5.73045">
        <ele>302</ele>
        <time>2021-06-26T09:34:45.000Z</time>
      </trkpt>
      <trkpt lat="45.19763" lon="5.73043">
        <ele>301.39999389648</ele>
        <time>2021-06-26T09:34:47.000Z</time>
      </trkpt>
      <trkpt lat="45.19759" lon="5.73041">
        <ele>300.79998779297</ele>
        <time>2021-06-26T09:34:49.000Z</time>
      </trkpt>
      <trkpt lat="45.19751" lon="5.73041">
        <ele>299.39999389648</ele>
        <time>2021-06-26T09:34:53.000Z</time>
      </trkpt>
      <trkpt lat="45.19751" lon="5.73039">
        <ele>299.20001220703</ele>
        <time>2021-06-26T09:34:54.000Z</time>
      </trkpt>
      <trkpt lat="45.19757" lon="5.73034">
        <ele>298</ele>
        <time>2021-06-26T09:34:57.000Z</time>
      </trkpt>
      <trkpt lat="45.19769" lon="5.73039">
        <ele>297.39999389648</ele>
        <time>2021-06-26T09:35:02.000Z</time>
      </trkpt>
      <trkpt lat="45.19772" lon="5.73043">
        <ele>296.60000610352</ele>
        <time>2021-06-26T09:35:04.000Z</time>
      </trkpt>
      <trkpt lat="45.19778" lon="5.73047">
        <ele>295.60000610352</ele>
        <time>2021-06-26T09:35:07.000Z</time>
      </trkpt>
      <trkpt lat="45.1978" lon="5.73048">
        <ele>295.39999389648</ele>
        <time>2021-06-26T09:35:08.000Z</time>
      </trkpt>
      <trkpt lat="45.19787" lon="5.73053">
        <ele>294.39999389648</ele>
        <time>2021-06-26T09:35:11.000Z</time>
      </trkpt>
      <trkpt lat="45.19789" lon="5.73055">
        <ele>294.39999389648</ele>
        <time>2021-06-26T09:35:12.000Z</time>
      </trkpt>
      <trkpt lat="45.19789" lon="5.73056">
        <ele>294.39999389648</ele>
        <time>2021-06-26T09:35:13.000Z</time>
      </trkpt>
      <trkpt lat="45.19789" lon="5.73058">
        <ele>294.39999389648</ele>
        <time>2021-06-26T09:35:14.000Z</time>
      </trkpt>
      <trkpt lat="45.19785" lon="5.73062">
        <ele>292.60000610352</ele>
        <time>2021-06-26T09:35:16.000Z</time>
      </trkpt>
      <trkpt lat="45.19777" lon="5.73063">
        <ele>292</ele>
        <time>2021-06-26T09:35:19.000Z</time>
      </trkpt>
      <trkpt lat="45.19774" lon="5.73062">
        <ele>291.20001220703</ele>
        <time>2021-06-26T09:35:21.000Z</time>
      </trkpt>
      <trkpt lat="45.19764" lon="5.7306">
        <ele>290</ele>
        <time>2021-06-26T09:35:25.000Z</time>
      </trkpt>
      <trkpt lat="45.19762" lon="5.7306">
        <ele>289.39999389648</ele>
        <time>2021-06-26T09:35:26.000Z</time>
      </trkpt>
      <trkpt lat="45.1975" lon="5.73061">
        <ele>288.39999389648</ele>
        <time>2021-06-26T09:35:30.000Z</time>
      </trkpt>
      <trkpt lat="45.1975" lon="5.73061">
        <ele>288.20001220703</ele>
        <time>2021-06-26T09:35:31.000Z</time>
      </trkpt>
      <trkpt lat="45.19753" lon="5.7306">
        <ele>288.20001220703</ele>
        <time>2021-06-26T09:35:32.000Z</time>
      </trkpt>
      <trkpt lat="45.19756" lon="5.73058">
        <ele>286.79998779297</ele>
        <time>2021-06-26T09:35:35.000Z</time>
      </trkpt>
      <trkpt lat="45.1976" lon="5.7306">
        <ele>286.39999389648</ele>
        <time>2021-06-26T09:35:37.000Z</time>
      </trkpt>
      <trkpt lat="45.19762" lon="5.73061">
        <ele>285.79998779297</ele>
        <time>2021-06-26T09:35:38.000Z</time>
      </trkpt>
      <trkpt lat="45.19772" lon="5.73065">
        <ele>285</ele>
        <time>2021-06-26T09:35:43.000Z</time>
      </trkpt>
      <trkpt lat="45.19773" lon="5.73065">
        <ele>284.60000610352</ele>
        <time>2021-06-26T09:35:44.000Z</time>
      </trkpt>
      <trkpt lat="45.19774" lon="5.73066">
        <ele>283.79998779297</ele>
        <time>2021-06-26T09:35:45.000Z</time>
      </trkpt>
      <trkpt lat="45.19775" lon="5.73067">
        <ele>283.60000610352</ele>
        <time>2021-06-26T09:35:46.000Z</time>
      </trkpt>
      <trkpt lat="45.19776" lon="5.73069">
        <ele>283.39999389648</ele>
        <time>2021-06-26T09:35:47.000Z</time>
      </trkpt>
      <trkpt lat="45.19779" lon="5.7307">
        <ele>282.79998779297</ele>
        <time>2021-06-26T09:35:48.000Z</time>
      </trkpt>
      <trkpt lat="45.19781" lon="5.7307">
        <ele>282.60000610352</ele>
        <time>2021-06-26T09:35:49.000Z</time>
      </trkpt>
      <trkpt lat="45.19783" lon="5.73072">
        <ele>282.39999389648</ele>
        <time>2021-06-26T09:35:50.000Z</time>
      </trkpt>
      <trkpt lat="45.1979" lon="5.73078">
        <ele>281.79998779297</ele>
        <time>2021-06-26T09:35:53.000Z</time>
      </trkpt>
      <trkpt lat="45.19794" lon="5.73082">
        <ele>281.60000610352</ele>
        <time>2021-06-26T09:35:54.000Z</time>
      </trkpt>
      <trkpt lat="45.19796" lon="5.73092">
        <ele>281.20001220703</ele>
        <time>2021-06-26T09:35:56.000Z</time>
      </trkpt>
      <trkpt lat="45.19792" lon="5.731">
        <ele>280.39999389648</ele>
        <time>2021-06-26T09:35:58.000Z</time>
      </trkpt>
      <trkpt lat="45.19788" lon="5.73103">
        <ele>279.79998779297</ele>
        <time>2021-06-26T09:36:00.000Z</time>
      </trkpt>
      <trkpt lat="45.1978" lon="5.73103">
        <ele>279.20001220703</ele>
        <time>2021-06-26T09:36:03.000Z</time>
      </trkpt>
      <trkpt lat="45.19771" lon="5.73102">
        <ele>277.39999389648</ele>
        <time>2021-06-26T09:36:06.000Z</time>
      </trkpt>
      <trkpt lat="45.19768" lon="5.73102">
        <ele>277.39999389648</ele>
        <time>2021-06-26T09:36:07.000Z</time>
      </trkpt>
      <trkpt lat="45.19759" lon="5.731">
        <ele>276.39999389648</ele>
        <time>2021-06-26T09:36:13.000Z</time>
      </trkpt>
      <trkpt lat="45.19761" lon="5.731">
        <ele>276</ele>
        <time>2021-06-26T09:36:14.000Z</time>
      </trkpt>
      <trkpt lat="45.19764" lon="5.731">
        <ele>275</ele>
        <time>2021-06-26T09:36:16.000Z</time>
      </trkpt>
      <trkpt lat="45.19767" lon="5.73099">
        <ele>274.60000610352</ele>
        <time>2021-06-26T09:36:17.000Z</time>
      </trkpt>
      <trkpt lat="45.19824" lon="5.73134">
        <ele>270.79998779297</ele>
        <time>2021-06-26T09:36:30.000Z</time>
      </trkpt>
      <trkpt lat="45.19817" lon="5.73135">
        <ele>269.79998779297</ele>
        <time>2021-06-26T09:36:31.000Z</time>
      </trkpt>
      <trkpt lat="45.19798" lon="5.73158">
        <ele>268.79998779297</ele>
        <time>2021-06-26T09:36:35.000Z</time>
      </trkpt>
      <trkpt lat="45.19787" lon="5.73157">
        <ele>267.20001220703</ele>
        <time>2021-06-26T09:36:39.000Z</time>
      </trkpt>
      <trkpt lat="45.19785" lon="5.73159">
        <ele>267.20001220703</ele>
        <time>2021-06-26T09:36:40.000Z</time>
      </trkpt>
      <trkpt lat="45.19783" lon="5.73163">
        <ele>266.20001220703</ele>
        <time>2021-06-26T09:36:42.000Z</time>
      </trkpt>
      <trkpt lat="45.19783" lon="5.73165">
        <ele>265</ele>
        <time>2021-06-26T09:36:44.000Z</time>
      </trkpt>
      <trkpt lat="45.19783" lon="5.73168">
        <ele>264.39999389648</ele>
        <time>2021-06-26T09:36:45.000Z</time>
      </trkpt>
      <trkpt lat="45.19784" lon="5.73179">
        <ele>263.79998779297</ele>
        <time>2021-06-26T09:36:48.000Z</time>
      </trkpt>
      <trkpt lat="45.19784" lon="5.73182">
        <ele>262.39999389648</ele>
        <time>2021-06-26T09:36:49.000Z</time>
      </trkpt>
      <trkpt lat="45.19785" lon="5.73187">
        <ele>262.39999389648</ele>
        <time>2021-06-26T09:36:51.000Z</time>
      </trkpt>
      <trkpt lat="45.19781" lon="5.73185">
        <ele>262.39999389648</ele>
        <time>2021-06-26T09:36:55.000Z</time>
      </trkpt>
      <trkpt lat="45.19781" lon="5.73183">
        <ele>262.39999389648</ele>
        <time>2021-06-26T09:36:56.000Z</time>
      </trkpt>
      <trkpt lat="45.1978" lon="5.73183">
        <ele>262.39999389648</ele>
        <time>2021-06-26T09:36:57.000Z</time>
      </trkpt>
      <trkpt lat="45.19778" lon="5.73183">
        <ele>262.20001220703</ele>
        <time>2021-06-26T09:37:00.000Z</time>
      </trkpt>
      <trkpt lat="45.19777" lon="5.73181">
        <ele>262.39999389648</ele>
        <time>2021-06-26T09:37:03.000Z</time>
      </trkpt>
      <trkpt lat="45.19776" lon="5.73182">
        <ele>262</ele>
        <time>2021-06-26T09:37:07.000Z</time>
      </trkpt>
      <trkpt lat="45.19779" lon="5.73189">
        <ele>262</ele>
        <time>2021-06-26T09:37:09.000Z</time>
      </trkpt>
      <trkpt lat="45.1978" lon="5.73197">
        <ele>261.79998779297</ele>
        <time>2021-06-26T09:37:11.000Z</time>
      </trkpt>
      <trkpt lat="45.19782" lon="5.73201">
        <ele>261.79998779297</ele>
        <time>2021-06-26T09:37:12.000Z</time>
      </trkpt>
      <trkpt lat="45.19782" lon="5.73213">
        <ele>262</ele>
        <time>2021-06-26T09:37:15.000Z</time>
      </trkpt>
      <trkpt lat="45.1978" lon="5.73227">
        <ele>262</ele>
        <time>2021-06-26T09:37:18.000Z</time>
      </trkpt>
      <trkpt lat="45.19775" lon="5.73252">
        <ele>262.79998779297</ele>
        <time>2021-06-26T09:37:26.000Z</time>
      </trkpt>
      <trkpt lat="45.19779" lon="5.73255">
        <ele>263.20001220703</ele>
        <time>2021-06-26T09:37:30.000Z</time>
      </trkpt>
      <trkpt lat="45.19788" lon="5.73258">
        <ele>263.39999389648</ele>
        <time>2021-06-26T09:37:34.000Z</time>
      </trkpt>
      <trkpt lat="45.19795" lon="5.73261">
        <ele>263.20001220703</ele>
        <time>2021-06-26T09:37:37.000Z</time>
      </trkpt>
      <trkpt lat="45.19811" lon="5.73265">
        <ele>263.39999389648</ele>
        <time>2021-06-26T09:37:43.000Z</time>
      </trkpt>
      <trkpt lat="45.19813" lon="5.73266">
        <ele>263.39999389648</ele>
        <time>2021-06-26T09:37:44.000Z</time>
      </trkpt>
      <trkpt lat="45.19823" lon="5.73267">
        <ele>263.60000610352</ele>
        <time>2021-06-26T09:37:48.000Z</time>
      </trkpt>
      <trkpt lat="45.19831" lon="5.73267">
        <ele>263.20001220703</ele>
        <time>2021-06-26T09:37:51.000Z</time>
      </trkpt>
      <trkpt lat="45.19834" lon="5.73268">
        <ele>263.20001220703</ele>
        <time>2021-06-26T09:37:52.000Z</time>
      </trkpt>
      <trkpt lat="45.19854" lon="5.73264">
        <ele>263.39999389648</ele>
        <time>2021-06-26T09:38:00.000Z</time>
      </trkpt>
      <trkpt lat="45.19866" lon="5.7326">
        <ele>263.39999389648</ele>
        <time>2021-06-26T09:38:04.000Z</time>
      </trkpt>
      <trkpt lat="45.19875" lon="5.73261">
        <ele>263.39999389648</ele>
        <time>2021-06-26T09:38:08.000Z</time>
      </trkpt>
      <trkpt lat="45.19886" lon="5.7326">
        <ele>263.60000610352</ele>
        <time>2021-06-26T09:38:14.000Z</time>
      </trkpt>
      <trkpt lat="45.19903" lon="5.73269">
        <ele>263.79998779297</ele>
        <time>2021-06-26T09:38:21.000Z</time>
      </trkpt>
      <trkpt lat="45.19917" lon="5.73277">
        <ele>263.79998779297</ele>
        <time>2021-06-26T09:38:26.000Z</time>
      </trkpt>
      <trkpt lat="45.19919" lon="5.73278">
        <ele>263.79998779297</ele>
        <time>2021-06-26T09:38:27.000Z</time>
      </trkpt>
      <trkpt lat="45.19922" lon="5.7328">
        <ele>263.79998779297</ele>
        <time>2021-06-26T09:38:28.000Z</time>
      </trkpt>
      <trkpt lat="45.1994" lon="5.73288">
        <ele>264</ele>
        <time>2021-06-26T09:38:34.000Z</time>
      </trkpt>
      <trkpt lat="45.19952" lon="5.73296">
        <ele>263.79998779297</ele>
        <time>2021-06-26T09:38:39.000Z</time>
      </trkpt>
      <trkpt lat="45.19955" lon="5.73298">
        <ele>263.39999389648</ele>
        <time>2021-06-26T09:38:40.000Z</time>
      </trkpt>
      <trkpt lat="45.19965" lon="5.73307">
        <ele>263.39999389648</ele>
        <time>2021-06-26T09:38:43.000Z</time>
      </trkpt>
      <trkpt lat="45.19973" lon="5.73312">
        <ele>263.39999389648</ele>
        <time>2021-06-26T09:38:46.000Z</time>
      </trkpt>
      <trkpt lat="45.19982" lon="5.73312">
        <ele>263.39999389648</ele>
        <time>2021-06-26T09:38:49.000Z</time>
      </trkpt>
      <trkpt lat="45.19999" lon="5.73319">
        <ele>263.39999389648</ele>
        <time>2021-06-26T09:38:55.000Z</time>
      </trkpt>
      <trkpt lat="45.20011" lon="5.73322">
        <ele>263</ele>
        <time>2021-06-26T09:38:59.000Z</time>
      </trkpt>
      <trkpt lat="45.20029" lon="5.73323">
        <ele>263</ele>
        <time>2021-06-26T09:39:05.000Z</time>
      </trkpt>
      <trkpt lat="45.20035" lon="5.73328">
        <ele>263.20001220703</ele>
        <time>2021-06-26T09:39:07.000Z</time>
      </trkpt>
      <trkpt lat="45.20039" lon="5.73332">
        <ele>262.79998779297</ele>
        <time>2021-06-26T09:39:09.000Z</time>
      </trkpt>
      <trkpt lat="45.20056" lon="5.7334">
        <ele>262.60000610352</ele>
        <time>2021-06-26T09:39:15.000Z</time>
      </trkpt>
      <trkpt lat="45.20068" lon="5.73346">
        <ele>262.60000610352</ele>
        <time>2021-06-26T09:39:20.000Z</time>
      </trkpt>
      <trkpt lat="45.20071" lon="5.73349">
        <ele>262.60000610352</ele>
        <time>2021-06-26T09:39:21.000Z</time>
      </trkpt>
      <trkpt lat="45.20083" lon="5.73357">
        <ele>262.60000610352</ele>
        <time>2021-06-26T09:39:26.000Z</time>
      </trkpt>
      <trkpt lat="45.20098" lon="5.73368">
        <ele>262.60000610352</ele>
        <time>2021-06-26T09:39:32.000Z</time>
      </trkpt>
      <trkpt lat="45.20114" lon="5.73381">
        <ele>262</ele>
        <time>2021-06-26T09:39:39.000Z</time>
      </trkpt>
      <trkpt lat="45.20121" lon="5.73391">
        <ele>262</ele>
        <time>2021-06-26T09:39:41.000Z</time>
      </trkpt>
      <trkpt lat="45.2013" lon="5.73405">
        <ele>261.39999389648</ele>
        <time>2021-06-26T09:39:44.000Z</time>
      </trkpt>
      <trkpt lat="45.20138" lon="5.73414">
        <ele>261</ele>
        <time>2021-06-26T09:39:48.000Z</time>
      </trkpt>
      <trkpt lat="45.20152" lon="5.73437">
        <ele>260.39999389648</ele>
        <time>2021-06-26T09:39:55.000Z</time>
      </trkpt>
      <trkpt lat="45.20157" lon="5.73447">
        <ele>260.39999389648</ele>
        <time>2021-06-26T09:39:57.000Z</time>
      </trkpt>
      <trkpt lat="45.20168" lon="5.73467">
        <ele>260.39999389648</ele>
        <time>2021-06-26T09:40:02.000Z</time>
      </trkpt>
      <trkpt lat="45.2018" lon="5.73484">
        <ele>260.60000610352</ele>
        <time>2021-06-26T09:40:08.000Z</time>
      </trkpt>
      <trkpt lat="45.20188" lon="5.73496">
        <ele>260.60000610352</ele>
        <time>2021-06-26T09:40:12.000Z</time>
      </trkpt>
      <trkpt lat="45.20196" lon="5.7351">
        <ele>260.79998779297</ele>
        <time>2021-06-26T09:40:17.000Z</time>
      </trkpt>
      <trkpt lat="45.2021" lon="5.7353">
        <ele>261.60000610352</ele>
        <time>2021-06-26T09:40:23.000Z</time>
      </trkpt>
      <trkpt lat="45.20212" lon="5.73535">
        <ele>261.60000610352</ele>
        <time>2021-06-26T09:40:24.000Z</time>
      </trkpt>
      <trkpt lat="45.20216" lon="5.73543">
        <ele>261.60000610352</ele>
        <time>2021-06-26T09:40:26.000Z</time>
      </trkpt>
      <trkpt lat="45.20227" lon="5.73566">
        <ele>262</ele>
        <time>2021-06-26T09:40:33.000Z</time>
      </trkpt>
      <trkpt lat="45.20228" lon="5.7357">
        <ele>262</ele>
        <time>2021-06-26T09:40:34.000Z</time>
      </trkpt>
      <trkpt lat="45.20237" lon="5.73587">
        <ele>261.39999389648</ele>
        <time>2021-06-26T09:40:40.000Z</time>
      </trkpt>
      <trkpt lat="45.20247" lon="5.73612">
        <ele>261.60000610352</ele>
        <time>2021-06-26T09:40:46.000Z</time>
      </trkpt>
      <trkpt lat="45.2025" lon="5.73626">
        <ele>261.60000610352</ele>
        <time>2021-06-26T09:40:49.000Z</time>
      </trkpt>
      <trkpt lat="45.20257" lon="5.73654">
        <ele>262</ele>
        <time>2021-06-26T09:40:55.000Z</time>
      </trkpt>
      <trkpt lat="45.20258" lon="5.73667">
        <ele>261.79998779297</ele>
        <time>2021-06-26T09:40:58.000Z</time>
      </trkpt>
      <trkpt lat="45.20262" lon="5.73692">
        <ele>262.20001220703</ele>
        <time>2021-06-26T09:41:04.000Z</time>
      </trkpt>
      <trkpt lat="45.20263" lon="5.73705">
        <ele>261.79998779297</ele>
        <time>2021-06-26T09:41:07.000Z</time>
      </trkpt>
      <trkpt lat="45.20269" lon="5.73729">
        <ele>261.60000610352</ele>
        <time>2021-06-26T09:41:13.000Z</time>
      </trkpt>
      <trkpt lat="45.2027" lon="5.73755">
        <ele>261.60000610352</ele>
        <time>2021-06-26T09:41:19.000Z</time>
      </trkpt>
      <trkpt lat="45.20273" lon="5.73769">
        <ele>262</ele>
        <time>2021-06-26T09:41:22.000Z</time>
      </trkpt>
      <trkpt lat="45.2027" lon="5.73794">
        <ele>262.20001220703</ele>
        <time>2021-06-26T09:41:28.000Z</time>
      </trkpt>
      <trkpt lat="45.2027" lon="5.73797">
        <ele>262.60000610352</ele>
        <time>2021-06-26T09:41:29.000Z</time>
      </trkpt>
      <trkpt lat="45.20264" lon="5.73819">
        <ele>262.79998779297</ele>
        <time>2021-06-26T09:41:35.000Z</time>
      </trkpt>
      <trkpt lat="45.20257" lon="5.73843">
        <ele>262.39999389648</ele>
        <time>2021-06-26T09:41:41.000Z</time>
      </trkpt>
      <trkpt lat="45.20256" lon="5.73847">
        <ele>262.79998779297</ele>
        <time>2021-06-26T09:41:42.000Z</time>
      </trkpt>
      <trkpt lat="45.20252" lon="5.73874">
        <ele>262.39999389648</ele>
        <time>2021-06-26T09:41:48.000Z</time>
      </trkpt>
      <trkpt lat="45.20249" lon="5.73882">
        <ele>262.39999389648</ele>
        <time>2021-06-26T09:41:50.000Z</time>
      </trkpt>
      <trkpt lat="45.20245" lon="5.73905">
        <ele>262.39999389648</ele>
        <time>2021-06-26T09:41:56.000Z</time>
      </trkpt>
      <trkpt lat="45.20242" lon="5.73917">
        <ele>262.39999389648</ele>
        <time>2021-06-26T09:41:59.000Z</time>
      </trkpt>
      <trkpt lat="45.20238" lon="5.73939">
        <ele>262.39999389648</ele>
        <time>2021-06-26T09:42:05.000Z</time>
      </trkpt>
      <trkpt lat="45.20226" lon="5.73964">
        <ele>262.39999389648</ele>
        <time>2021-06-26T09:42:11.000Z</time>
      </trkpt>
      <trkpt lat="45.20217" lon="5.73986">
        <ele>262.60000610352</ele>
        <time>2021-06-26T09:42:17.000Z</time>
      </trkpt>
      <trkpt lat="45.20209" lon="5.74011">
        <ele>262.20001220703</ele>
        <time>2021-06-26T09:42:24.000Z</time>
      </trkpt>
      <trkpt lat="45.20198" lon="5.74035">
        <ele>262.60000610352</ele>
        <time>2021-06-26T09:42:31.000Z</time>
      </trkpt>
      <trkpt lat="45.20196" lon="5.74038">
        <ele>262.39999389648</ele>
        <time>2021-06-26T09:42:32.000Z</time>
      </trkpt>
      <trkpt lat="45.20184" lon="5.74061">
        <ele>262.20001220703</ele>
        <time>2021-06-26T09:42:39.000Z</time>
      </trkpt>
      <trkpt lat="45.20182" lon="5.74064">
        <ele>262.39999389648</ele>
        <time>2021-06-26T09:42:40.000Z</time>
      </trkpt>
      <trkpt lat="45.20179" lon="5.7407">
        <ele>262.39999389648</ele>
        <time>2021-06-26T09:42:42.000Z</time>
      </trkpt>
      <trkpt lat="45.20172" lon="5.74084">
        <ele>263</ele>
        <time>2021-06-26T09:42:47.000Z</time>
      </trkpt>
      <trkpt lat="45.20161" lon="5.741">
        <ele>263.39999389648</ele>
        <time>2021-06-26T09:42:52.000Z</time>
      </trkpt>
      <trkpt lat="45.20157" lon="5.74107">
        <ele>263.79998779297</ele>
        <time>2021-06-26T09:42:54.000Z</time>
      </trkpt>
      <trkpt lat="45.20143" lon="5.74126">
        <ele>264.39999389648</ele>
        <time>2021-06-26T09:43:00.000Z</time>
      </trkpt>
      <trkpt lat="45.20138" lon="5.74134">
        <ele>265.20001220703</ele>
        <time>2021-06-26T09:43:03.000Z</time>
      </trkpt>
      <trkpt lat="45.2013" lon="5.74149">
        <ele>266</ele>
        <time>2021-06-26T09:43:08.000Z</time>
      </trkpt>
      <trkpt lat="45.20128" lon="5.74156">
        <ele>266.20001220703</ele>
        <time>2021-06-26T09:43:11.000Z</time>
      </trkpt>
      <trkpt lat="45.20124" lon="5.74165">
        <ele>267</ele>
        <time>2021-06-26T09:43:14.000Z</time>
      </trkpt>
      <trkpt lat="45.20117" lon="5.74174">
        <ele>267.39999389648</ele>
        <time>2021-06-26T09:43:18.000Z</time>
      </trkpt>
      <trkpt lat="45.20099" lon="5.74191">
        <ele>267.20001220703</ele>
        <time>2021-06-26T09:43:25.000Z</time>
      </trkpt>
      <trkpt lat="45.20096" lon="5.74192">
        <ele>267.39999389648</ele>
        <time>2021-06-26T09:43:26.000Z</time>
      </trkpt>
      <trkpt lat="45.20092" lon="5.74191">
        <ele>267.20001220703</ele>
        <time>2021-06-26T09:43:27.000Z</time>
      </trkpt>
      <trkpt lat="45.20087" lon="5.74186">
        <ele>267.39999389648</ele>
        <time>2021-06-26T09:43:29.000Z</time>
      </trkpt>
      <trkpt lat="45.20071" lon="5.7417">
        <ele>267.39999389648</ele>
        <time>2021-06-26T09:43:35.000Z</time>
      </trkpt>
      <trkpt lat="45.20069" lon="5.74167">
        <ele>267.39999389648</ele>
        <time>2021-06-26T09:43:36.000Z</time>
      </trkpt>
      <trkpt lat="45.20057" lon="5.7415">
        <ele>267.79998779297</ele>
        <time>2021-06-26T09:43:42.000Z</time>
      </trkpt>
      <trkpt lat="45.2005" lon="5.74139">
        <ele>267.79998779297</ele>
        <time>2021-06-26T09:43:46.000Z</time>
      </trkpt>
      <trkpt lat="45.20037" lon="5.74123">
        <ele>267.39999389648</ele>
        <time>2021-06-26T09:43:52.000Z</time>
      </trkpt>
      <trkpt lat="45.20032" lon="5.74116">
        <ele>267.79998779297</ele>
        <time>2021-06-26T09:43:55.000Z</time>
      </trkpt>
      <trkpt lat="45.2002" lon="5.74101">
        <ele>267.39999389648</ele>
        <time>2021-06-26T09:44:01.000Z</time>
      </trkpt>
      <trkpt lat="45.20016" lon="5.74096">
        <ele>267.60000610352</ele>
        <time>2021-06-26T09:44:03.000Z</time>
      </trkpt>
      <trkpt lat="45.20007" lon="5.7409">
        <ele>267.39999389648</ele>
        <time>2021-06-26T09:44:07.000Z</time>
      </trkpt>
      <trkpt lat="45.20006" lon="5.74091">
        <ele>267</ele>
        <time>2021-06-26T09:44:08.000Z</time>
      </trkpt>
      <trkpt lat="45.20003" lon="5.74094">
        <ele>266.60000610352</ele>
        <time>2021-06-26T09:44:10.000Z</time>
      </trkpt>
      <trkpt lat="45.2" lon="5.74102">
        <ele>266</ele>
        <time>2021-06-26T09:44:13.000Z</time>
      </trkpt>
      <trkpt lat="45.19995" lon="5.7411">
        <ele>265.60000610352</ele>
        <time>2021-06-26T09:44:16.000Z</time>
      </trkpt>
      <trkpt lat="45.19991" lon="5.74123">
        <ele>265</ele>
        <time>2021-06-26T09:44:20.000Z</time>
      </trkpt>
      <trkpt lat="45.19982" lon="5.74132">
        <ele>264</ele>
        <time>2021-06-26T09:44:24.000Z</time>
      </trkpt>
      <trkpt lat="45.1998" lon="5.74136">
        <ele>263.79998779297</ele>
        <time>2021-06-26T09:44:25.000Z</time>
      </trkpt>
      <trkpt lat="45.19971" lon="5.74143">
        <ele>263.79998779297</ele>
        <time>2021-06-26T09:44:28.000Z</time>
      </trkpt>
      <trkpt lat="45.19957" lon="5.74158">
        <ele>264</ele>
        <time>2021-06-26T09:44:34.000Z</time>
      </trkpt>
      <trkpt lat="45.19941" lon="5.74172">
        <ele>263.79998779297</ele>
        <time>2021-06-26T09:44:41.000Z</time>
      </trkpt>
      <trkpt lat="45.19938" lon="5.74175">
        <ele>264</ele>
        <time>2021-06-26T09:44:42.000Z</time>
      </trkpt>
      <trkpt lat="45.19926" lon="5.74187">
        <ele>264</ele>
        <time>2021-06-26T09:44:47.000Z</time>
      </trkpt>
      <trkpt lat="45.1991" lon="5.742">
        <ele>263.60000610352</ele>
        <time>2021-06-26T09:44:53.000Z</time>
      </trkpt>
      <trkpt lat="45.19908" lon="5.74201">
        <ele>263.60000610352</ele>
        <time>2021-06-26T09:44:54.000Z</time>
      </trkpt>
      <trkpt lat="45.199" lon="5.74206">
        <ele>264</ele>
        <time>2021-06-26T09:44:57.000Z</time>
      </trkpt>
      <trkpt lat="45.19882" lon="5.74216">
        <ele>263.79998779297</ele>
        <time>2021-06-26T09:45:04.000Z</time>
      </trkpt>
      <trkpt lat="45.19869" lon="5.74222">
        <ele>263.60000610352</ele>
        <time>2021-06-26T09:45:09.000Z</time>
      </trkpt>
      <trkpt lat="45.19863" lon="5.74224">
        <ele>263.60000610352</ele>
        <time>2021-06-26T09:45:11.000Z</time>
      </trkpt>
      <trkpt lat="45.19856" lon="5.74226">
        <ele>263.79998779297</ele>
        <time>2021-06-26T09:45:14.000Z</time>
      </trkpt>
      <trkpt lat="45.19839" lon="5.74233">
        <ele>264</ele>
        <time>2021-06-26T09:45:20.000Z</time>
      </trkpt>
      <trkpt lat="45.19819" lon="5.74241">
        <ele>263.60000610352</ele>
        <time>2021-06-26T09:45:27.000Z</time>
      </trkpt>
      <trkpt lat="45.19815" lon="5.74241">
        <ele>263.79998779297</ele>
        <time>2021-06-26T09:45:28.000Z</time>
      </trkpt>
      <trkpt lat="45.19799" lon="5.74244">
        <ele>264</ele>
        <time>2021-06-26T09:45:34.000Z</time>
      </trkpt>
      <trkpt lat="45.1979" lon="5.74245">
        <ele>264</ele>
        <time>2021-06-26T09:45:37.000Z</time>
      </trkpt>
      <trkpt lat="45.19782" lon="5.74247">
        <ele>264</ele>
        <time>2021-06-26T09:45:40.000Z</time>
      </trkpt>
      <trkpt lat="45.19769" lon="5.7425">
        <ele>264.20001220703</ele>
        <time>2021-06-26T09:45:44.000Z</time>
      </trkpt>
      <trkpt lat="45.19766" lon="5.74251">
        <ele>263.79998779297</ele>
        <time>2021-06-26T09:45:45.000Z</time>
      </trkpt>
      <trkpt lat="45.19762" lon="5.74251">
        <ele>263.79998779297</ele>
        <time>2021-06-26T09:45:47.000Z</time>
      </trkpt>
      <trkpt lat="45.1975" lon="5.74251">
        <ele>264</ele>
        <time>2021-06-26T09:45:52.000Z</time>
      </trkpt>
      <trkpt lat="45.19741" lon="5.74252">
        <ele>263.79998779297</ele>
        <time>2021-06-26T09:45:55.000Z</time>
      </trkpt>
      <trkpt lat="45.19721" lon="5.74253">
        <ele>264</ele>
        <time>2021-06-26T09:46:02.000Z</time>
      </trkpt>
      <trkpt lat="45.19716" lon="5.74254">
        <ele>264</ele>
        <time>2021-06-26T09:46:04.000Z</time>
      </trkpt>
      <trkpt lat="45.19697" lon="5.74257">
        <ele>263.79998779297</ele>
        <time>2021-06-26T09:46:10.000Z</time>
      </trkpt>
      <trkpt lat="45.19692" lon="5.74257">
        <ele>264</ele>
        <time>2021-06-26T09:46:12.000Z</time>
      </trkpt>
      <trkpt lat="45.19674" lon="5.74256">
        <ele>264</ele>
        <time>2021-06-26T09:46:19.000Z</time>
      </trkpt>
      <trkpt lat="45.19655" lon="5.74254">
        <ele>264.20001220703</ele>
        <time>2021-06-26T09:46:26.000Z</time>
      </trkpt>
      <trkpt lat="45.19647" lon="5.74252">
        <ele>263.79998779297</ele>
        <time>2021-06-26T09:46:29.000Z</time>
      </trkpt>
      <trkpt lat="45.19627" lon="5.74249">
        <ele>264.20001220703</ele>
        <time>2021-06-26T09:46:36.000Z</time>
      </trkpt>
      <trkpt lat="45.19625" lon="5.74248">
        <ele>264.20001220703</ele>
        <time>2021-06-26T09:46:37.000Z</time>
      </trkpt>
      <trkpt lat="45.19604" lon="5.74247">
        <ele>264</ele>
        <time>2021-06-26T09:46:44.000Z</time>
      </trkpt>
      <trkpt lat="45.1959" lon="5.74244">
        <ele>264</ele>
        <time>2021-06-26T09:46:49.000Z</time>
      </trkpt>
      <trkpt lat="45.19581" lon="5.74244">
        <ele>263.79998779297</ele>
        <time>2021-06-26T09:46:52.000Z</time>
      </trkpt>
      <trkpt lat="45.19561" lon="5.74238">
        <ele>263.79998779297</ele>
        <time>2021-06-26T09:47:00.000Z</time>
      </trkpt>
      <trkpt lat="45.19543" lon="5.74235">
        <ele>264</ele>
        <time>2021-06-26T09:47:06.000Z</time>
      </trkpt>
      <trkpt lat="45.19525" lon="5.7423">
        <ele>264</ele>
        <time>2021-06-26T09:47:12.000Z</time>
      </trkpt>
      <trkpt lat="45.19517" lon="5.74228">
        <ele>264</ele>
        <time>2021-06-26T09:47:15.000Z</time>
      </trkpt>
      <trkpt lat="45.19498" lon="5.74219">
        <ele>264.60000610352</ele>
        <time>2021-06-26T09:47:22.000Z</time>
      </trkpt>
      <trkpt lat="45.19492" lon="5.74216">
        <ele>264.79998779297</ele>
        <time>2021-06-26T09:47:24.000Z</time>
      </trkpt>
      <trkpt lat="45.19472" lon="5.74208">
        <ele>264.79998779297</ele>
        <time>2021-06-26T09:47:31.000Z</time>
      </trkpt>
      <trkpt lat="45.19454" lon="5.742">
        <ele>265.20001220703</ele>
        <time>2021-06-26T09:47:38.000Z</time>
      </trkpt>
      <trkpt lat="45.19452" lon="5.74199">
        <ele>265.20001220703</ele>
        <time>2021-06-26T09:47:39.000Z</time>
      </trkpt>
      <trkpt lat="45.19436" lon="5.74192">
        <ele>265.20001220703</ele>
        <time>2021-06-26T09:47:45.000Z</time>
      </trkpt>
      <trkpt lat="45.19418" lon="5.74189">
        <ele>265.39999389648</ele>
        <time>2021-06-26T09:47:51.000Z</time>
      </trkpt>
      <trkpt lat="45.19415" lon="5.74188">
        <ele>265.39999389648</ele>
        <time>2021-06-26T09:47:52.000Z</time>
      </trkpt>
      <trkpt lat="45.1941" lon="5.74186">
        <ele>265</ele>
        <time>2021-06-26T09:47:54.000Z</time>
      </trkpt>
      <trkpt lat="45.19402" lon="5.74184">
        <ele>264.79998779297</ele>
        <time>2021-06-26T09:47:57.000Z</time>
      </trkpt>
      <trkpt lat="45.19382" lon="5.74179">
        <ele>265.20001220703</ele>
        <time>2021-06-26T09:48:04.000Z</time>
      </trkpt>
      <trkpt lat="45.19377" lon="5.74177">
        <ele>265.20001220703</ele>
        <time>2021-06-26T09:48:06.000Z</time>
      </trkpt>
      <trkpt lat="45.19364" lon="5.74175">
        <ele>265.20001220703</ele>
        <time>2021-06-26T09:48:11.000Z</time>
      </trkpt>
      <trkpt lat="45.19358" lon="5.74174">
        <ele>265.20001220703</ele>
        <time>2021-06-26T09:48:13.000Z</time>
      </trkpt>
      <trkpt lat="45.19338" lon="5.7417">
        <ele>265</ele>
        <time>2021-06-26T09:48:20.000Z</time>
      </trkpt>
      <trkpt lat="45.1932" lon="5.74167">
        <ele>265.20001220703</ele>
        <time>2021-06-26T09:48:26.000Z</time>
      </trkpt>
      <trkpt lat="45.19312" lon="5.74167">
        <ele>265.20001220703</ele>
        <time>2021-06-26T09:48:29.000Z</time>
      </trkpt>
      <trkpt lat="45.19301" lon="5.74166">
        <ele>265</ele>
        <time>2021-06-26T09:48:33.000Z</time>
      </trkpt>
      <trkpt lat="45.19298" lon="5.74165">
        <ele>265</ele>
        <time>2021-06-26T09:48:34.000Z</time>
      </trkpt>
      <trkpt lat="45.19281" lon="5.7416">
        <ele>265.20001220703</ele>
        <time>2021-06-26T09:48:41.000Z</time>
      </trkpt>
      <trkpt lat="45.19279" lon="5.74159">
        <ele>265.20001220703</ele>
        <time>2021-06-26T09:48:42.000Z</time>
      </trkpt>
      <trkpt lat="45.19271" lon="5.74157">
        <ele>265.20001220703</ele>
        <time>2021-06-26T09:48:45.000Z</time>
      </trkpt>
      <trkpt lat="45.19261" lon="5.74153">
        <ele>264.79998779297</ele>
        <time>2021-06-26T09:48:49.000Z</time>
      </trkpt>
      <trkpt lat="45.19241" lon="5.74149">
        <ele>265</ele>
        <time>2021-06-26T09:48:57.000Z</time>
      </trkpt>
      <trkpt lat="45.19238" lon="5.74148">
        <ele>265</ele>
        <time>2021-06-26T09:48:58.000Z</time>
      </trkpt>
      <trkpt lat="45.19219" lon="5.7414">
        <ele>264.79998779297</ele>
        <time>2021-06-26T09:49:04.000Z</time>
      </trkpt>
      <trkpt lat="45.19217" lon="5.7414">
        <ele>265</ele>
        <time>2021-06-26T09:49:05.000Z</time>
      </trkpt>
      <trkpt lat="45.19204" lon="5.74135">
        <ele>265</ele>
        <time>2021-06-26T09:49:11.000Z</time>
      </trkpt>
      <trkpt lat="45.19201" lon="5.74135">
        <ele>265</ele>
        <time>2021-06-26T09:49:12.000Z</time>
      </trkpt>
      <trkpt lat="45.19196" lon="5.74136">
        <ele>265</ele>
        <time>2021-06-26T09:49:14.000Z</time>
      </trkpt>
      <trkpt lat="45.19189" lon="5.74138">
        <ele>264.79998779297</ele>
        <time>2021-06-26T09:49:16.000Z</time>
      </trkpt>
      <trkpt lat="45.19186" lon="5.74138">
        <ele>264.39999389648</ele>
        <time>2021-06-26T09:49:17.000Z</time>
      </trkpt>
      <trkpt lat="45.19179" lon="5.74141">
        <ele>263.79998779297</ele>
        <time>2021-06-26T09:49:20.000Z</time>
      </trkpt>
      <trkpt lat="45.19178" lon="5.74142">
        <ele>263.79998779297</ele>
        <time>2021-06-26T09:49:21.000Z</time>
      </trkpt>
      <trkpt lat="45.19178" lon="5.74146">
        <ele>263.39999389648</ele>
        <time>2021-06-26T09:49:23.000Z</time>
      </trkpt>
      <trkpt lat="45.19176" lon="5.74149">
        <ele>262.20001220703</ele>
        <time>2021-06-26T09:49:26.000Z</time>
      </trkpt>
      <trkpt lat="45.19176" lon="5.7415">
        <ele>262</ele>
        <time>2021-06-26T09:49:27.000Z</time>
      </trkpt>
      <trkpt lat="45.19177" lon="5.74152">
        <ele>261</ele>
        <time>2021-06-26T09:49:31.000Z</time>
      </trkpt>
      <trkpt lat="45.19179" lon="5.74152">
        <ele>261</ele>
        <time>2021-06-26T09:49:32.000Z</time>
      </trkpt>
      <trkpt lat="45.1918" lon="5.74151">
        <ele>261</ele>
        <time>2021-06-26T09:49:33.000Z</time>
      </trkpt>
      <trkpt lat="45.19188" lon="5.74148">
        <ele>260.79998779297</ele>
        <time>2021-06-26T09:49:37.000Z</time>
      </trkpt>
      <trkpt lat="45.19198" lon="5.74148">
        <ele>261.20001220703</ele>
        <time>2021-06-26T09:49:44.000Z</time>
      </trkpt>
      <trkpt lat="45.19202" lon="5.74147">
        <ele>261</ele>
        <time>2021-06-26T09:49:48.000Z</time>
      </trkpt>
      <trkpt lat="45.19203" lon="5.74147">
        <ele>261.20001220703</ele>
        <time>2021-06-26T09:49:49.000Z</time>
      </trkpt>
      <trkpt lat="45.19204" lon="5.74147">
        <ele>261.20001220703</ele>
        <time>2021-06-26T09:49:50.000Z</time>
      </trkpt>
      <trkpt lat="45.1921" lon="5.74145">
        <ele>261.20001220703</ele>
        <time>2021-06-26T09:49:54.000Z</time>
      </trkpt>
      <trkpt lat="45.19212" lon="5.74145">
        <ele>261.20001220703</ele>
        <time>2021-06-26T09:49:55.000Z</time>
      </trkpt>
      <trkpt lat="45.19213" lon="5.74146">
        <ele>261.20001220703</ele>
        <time>2021-06-26T09:49:56.000Z</time>
      </trkpt>
      <trkpt lat="45.19222" lon="5.74143">
        <ele>261.20001220703</ele>
        <time>2021-06-26T09:49:59.000Z</time>
      </trkpt>
      <trkpt lat="45.19241" lon="5.74143">
        <ele>261.39999389648</ele>
        <time>2021-06-26T09:50:06.000Z</time>
      </trkpt>
      <trkpt lat="45.1925" lon="5.74144">
        <ele>261.20001220703</ele>
        <time>2021-06-26T09:50:09.000Z</time>
      </trkpt>
      <trkpt lat="45.19258" lon="5.74147">
        <ele>261.60000610352</ele>
        <time>2021-06-26T09:50:12.000Z</time>
      </trkpt>
      <trkpt lat="45.19265" lon="5.74148">
        <ele>261.79998779297</ele>
        <time>2021-06-26T09:50:14.000Z</time>
      </trkpt>
      <trkpt lat="45.19277" lon="5.74148">
        <ele>261.20001220703</ele>
        <time>2021-06-26T09:50:19.000Z</time>
      </trkpt>
      <trkpt lat="45.19282" lon="5.74147">
        <ele>261.20001220703</ele>
        <time>2021-06-26T09:50:21.000Z</time>
      </trkpt>
      <trkpt lat="45.19301" lon="5.74153">
        <ele>261.39999389648</ele>
        <time>2021-06-26T09:50:27.000Z</time>
      </trkpt>
      <trkpt lat="45.19306" lon="5.74154">
        <ele>261.39999389648</ele>
        <time>2021-06-26T09:50:29.000Z</time>
      </trkpt>
      <trkpt lat="45.19325" lon="5.74157">
        <ele>261.60000610352</ele>
        <time>2021-06-26T09:50:36.000Z</time>
      </trkpt>
      <trkpt lat="45.19328" lon="5.74157">
        <ele>261.60000610352</ele>
        <time>2021-06-26T09:50:37.000Z</time>
      </trkpt>
      <trkpt lat="45.19346" lon="5.74161">
        <ele>262</ele>
        <time>2021-06-26T09:50:44.000Z</time>
      </trkpt>
      <trkpt lat="45.1935" lon="5.74162">
        <ele>262.20001220703</ele>
        <time>2021-06-26T09:50:45.000Z</time>
      </trkpt>
      <trkpt lat="45.19357" lon="5.74163">
        <ele>262</ele>
        <time>2021-06-26T09:50:48.000Z</time>
      </trkpt>
      <trkpt lat="45.19372" lon="5.74165">
        <ele>261.79998779297</ele>
        <time>2021-06-26T09:50:54.000Z</time>
      </trkpt>
      <trkpt lat="45.19375" lon="5.74166">
        <ele>261.79998779297</ele>
        <time>2021-06-26T09:50:55.000Z</time>
      </trkpt>
      <trkpt lat="45.19395" lon="5.74171">
        <ele>262</ele>
        <time>2021-06-26T09:51:03.000Z</time>
      </trkpt>
      <trkpt lat="45.19415" lon="5.74178">
        <ele>262</ele>
        <time>2021-06-26T09:51:10.000Z</time>
      </trkpt>
      <trkpt lat="45.1942" lon="5.74182">
        <ele>261.79998779297</ele>
        <time>2021-06-26T09:51:12.000Z</time>
      </trkpt>
      <trkpt lat="45.1944" lon="5.74187">
        <ele>261.60000610352</ele>
        <time>2021-06-26T09:51:19.000Z</time>
      </trkpt>
      <trkpt lat="45.19459" lon="5.74196">
        <ele>262.20001220703</ele>
        <time>2021-06-26T09:51:26.000Z</time>
      </trkpt>
      <trkpt lat="45.19461" lon="5.74197">
        <ele>261.79998779297</ele>
        <time>2021-06-26T09:51:27.000Z</time>
      </trkpt>
      <trkpt lat="45.19477" lon="5.74202">
        <ele>261.60000610352</ele>
        <time>2021-06-26T09:51:33.000Z</time>
      </trkpt>
      <trkpt lat="45.1948" lon="5.74203">
        <ele>261.60000610352</ele>
        <time>2021-06-26T09:51:34.000Z</time>
      </trkpt>
      <trkpt lat="45.19487" lon="5.74208">
        <ele>261.60000610352</ele>
        <time>2021-06-26T09:51:37.000Z</time>
      </trkpt>
      <trkpt lat="45.19496" lon="5.74211">
        <ele>261.39999389648</ele>
        <time>2021-06-26T09:51:41.000Z</time>
      </trkpt>
      <trkpt lat="45.19505" lon="5.74216">
        <ele>261.79998779297</ele>
        <time>2021-06-26T09:51:45.000Z</time>
      </trkpt>
      <trkpt lat="45.19513" lon="5.74218">
        <ele>262</ele>
        <time>2021-06-26T09:51:48.000Z</time>
      </trkpt>
      <trkpt lat="45.19521" lon="5.74219">
        <ele>262</ele>
        <time>2021-06-26T09:51:52.000Z</time>
      </trkpt>
      <trkpt lat="45.19521" lon="5.74218">
        <ele>262</ele>
        <time>2021-06-26T09:51:53.000Z</time>
      </trkpt>
      <trkpt lat="45.19517" lon="5.74219">
        <ele>262.20001220703</ele>
        <time>2021-06-26T09:51:56.000Z</time>
      </trkpt>
      <trkpt lat="45.19516" lon="5.74221">
        <ele>262.20001220703</ele>
        <time>2021-06-26T09:51:57.000Z</time>
      </trkpt>
      <trkpt lat="45.1951" lon="5.74221">
        <ele>263.20001220703</ele>
        <time>2021-06-26T09:52:00.000Z</time>
      </trkpt>
      <trkpt lat="45.19503" lon="5.74218">
        <ele>264.60000610352</ele>
        <time>2021-06-26T09:52:05.000Z</time>
      </trkpt>
      <trkpt lat="45.19502" lon="5.74217">
        <ele>264.79998779297</ele>
        <time>2021-06-26T09:52:06.000Z</time>
      </trkpt>
      <trkpt lat="45.19498" lon="5.74211">
        <ele>264.79998779297</ele>
        <time>2021-06-26T09:52:09.000Z</time>
      </trkpt>
      <trkpt lat="45.19502" lon="5.74208">
        <ele>264.79998779297</ele>
        <time>2021-06-26T09:52:11.000Z</time>
      </trkpt>
      <trkpt lat="45.19515" lon="5.74206">
        <ele>264.79998779297</ele>
        <time>2021-06-26T09:52:16.000Z</time>
      </trkpt>
      <trkpt lat="45.19524" lon="5.74208">
        <ele>264.39999389648</ele>
        <time>2021-06-26T09:52:19.000Z</time>
      </trkpt>
      <trkpt lat="45.19533" lon="5.74208">
        <ele>264</ele>
        <time>2021-06-26T09:52:22.000Z</time>
      </trkpt>
      <trkpt lat="45.1954" lon="5.74208">
        <ele>264</ele>
        <time>2021-06-26T09:52:24.000Z</time>
      </trkpt>
      <trkpt lat="45.19551" lon="5.74207">
        <ele>263.39999389648</ele>
        <time>2021-06-26T09:52:28.000Z</time>
      </trkpt>
      <trkpt lat="45.19558" lon="5.74207">
        <ele>263.39999389648</ele>
        <time>2021-06-26T09:52:31.000Z</time>
      </trkpt>
      <trkpt lat="45.19578" lon="5.74214">
        <ele>263.39999389648</ele>
        <time>2021-06-26T09:52:39.000Z</time>
      </trkpt>
      <trkpt lat="45.19589" lon="5.74216">
        <ele>263.20001220703</ele>
        <time>2021-06-26T09:52:44.000Z</time>
      </trkpt>
      <trkpt lat="45.196" lon="5.7422">
        <ele>263.39999389648</ele>
        <time>2021-06-26T09:52:49.000Z</time>
      </trkpt>
      <trkpt lat="45.19619" lon="5.74227">
        <ele>263.20001220703</ele>
        <time>2021-06-26T09:52:57.000Z</time>
      </trkpt>
      <trkpt lat="45.19627" lon="5.74229">
        <ele>263.39999389648</ele>
        <time>2021-06-26T09:53:00.000Z</time>
      </trkpt>
      <trkpt lat="45.19646" lon="5.74232">
        <ele>263</ele>
        <time>2021-06-26T09:53:08.000Z</time>
      </trkpt>
      <trkpt lat="45.1965" lon="5.74231">
        <ele>263</ele>
        <time>2021-06-26T09:53:10.000Z</time>
      </trkpt>
      <trkpt lat="45.19671" lon="5.74231">
        <ele>263.20001220703</ele>
        <time>2021-06-26T09:53:17.000Z</time>
      </trkpt>
      <trkpt lat="45.19679" lon="5.74231">
        <ele>263.20001220703</ele>
        <time>2021-06-26T09:53:20.000Z</time>
      </trkpt>
      <trkpt lat="45.19698" lon="5.74233">
        <ele>262.79998779297</ele>
        <time>2021-06-26T09:53:27.000Z</time>
      </trkpt>
      <trkpt lat="45.19701" lon="5.74233">
        <ele>262.79998779297</ele>
        <time>2021-06-26T09:53:28.000Z</time>
      </trkpt>
      <trkpt lat="45.1972" lon="5.74228">
        <ele>263.39999389648</ele>
        <time>2021-06-26T09:53:36.000Z</time>
      </trkpt>
      <trkpt lat="45.19722" lon="5.74228">
        <ele>263.20001220703</ele>
        <time>2021-06-26T09:53:37.000Z</time>
      </trkpt>
      <trkpt lat="45.19723" lon="5.74227">
        <ele>263.20001220703</ele>
        <time>2021-06-26T09:53:38.000Z</time>
      </trkpt>
      <trkpt lat="45.19724" lon="5.74222">
        <ele>263.20001220703</ele>
        <time>2021-06-26T09:53:41.000Z</time>
      </trkpt>
      <trkpt lat="45.19724" lon="5.74205">
        <ele>262.39999389648</ele>
        <time>2021-06-26T09:53:47.000Z</time>
      </trkpt>
      <trkpt lat="45.19719" lon="5.74182">
        <ele>263.20001220703</ele>
        <time>2021-06-26T09:53:53.000Z</time>
      </trkpt>
      <trkpt lat="45.19716" lon="5.74173">
        <ele>263.60000610352</ele>
        <time>2021-06-26T09:53:56.000Z</time>
      </trkpt>
      <trkpt lat="45.19713" lon="5.74162">
        <ele>263.20001220703</ele>
        <time>2021-06-26T09:53:59.000Z</time>
      </trkpt>
      <trkpt lat="45.19711" lon="5.74151">
        <ele>263</ele>
        <time>2021-06-26T09:54:02.000Z</time>
      </trkpt>
      <trkpt lat="45.19709" lon="5.74137">
        <ele>263</ele>
        <time>2021-06-26T09:54:06.000Z</time>
      </trkpt>
      <trkpt lat="45.19707" lon="5.74134">
        <ele>263</ele>
        <time>2021-06-26T09:54:07.000Z</time>
      </trkpt>
      <trkpt lat="45.197" lon="5.74107">
        <ele>263</ele>
        <time>2021-06-26T09:54:14.000Z</time>
      </trkpt>
      <trkpt lat="45.19698" lon="5.74093">
        <ele>263.79998779297</ele>
        <time>2021-06-26T09:54:17.000Z</time>
      </trkpt>
      <trkpt lat="45.19696" lon="5.74083">
        <ele>263.79998779297</ele>
        <time>2021-06-26T09:54:20.000Z</time>
      </trkpt>
      <trkpt lat="45.19694" lon="5.74077">
        <ele>263.20001220703</ele>
        <time>2021-06-26T09:54:22.000Z</time>
      </trkpt>
      <trkpt lat="45.19691" lon="5.7407">
        <ele>263.60000610352</ele>
        <time>2021-06-26T09:54:24.000Z</time>
      </trkpt>
      <trkpt lat="45.1969" lon="5.74068">
        <ele>263.60000610352</ele>
        <time>2021-06-26T09:54:25.000Z</time>
      </trkpt>
      <trkpt lat="45.19689" lon="5.74052">
        <ele>263.39999389648</ele>
        <time>2021-06-26T09:54:30.000Z</time>
      </trkpt>
      <trkpt lat="45.19686" lon="5.74035">
        <ele>263.39999389648</ele>
        <time>2021-06-26T09:54:35.000Z</time>
      </trkpt>
      <trkpt lat="45.19685" lon="5.74028">
        <ele>263.39999389648</ele>
        <time>2021-06-26T09:54:37.000Z</time>
      </trkpt>
      <trkpt lat="45.19681" lon="5.74021">
        <ele>263.20001220703</ele>
        <time>2021-06-26T09:54:40.000Z</time>
      </trkpt>
      <trkpt lat="45.19677" lon="5.74017">
        <ele>263.20001220703</ele>
        <time>2021-06-26T09:54:42.000Z</time>
      </trkpt>
      <trkpt lat="45.19673" lon="5.74016">
        <ele>263</ele>
        <time>2021-06-26T09:54:45.000Z</time>
      </trkpt>
      <trkpt lat="45.19668" lon="5.74016">
        <ele>262.79998779297</ele>
        <time>2021-06-26T09:54:47.000Z</time>
      </trkpt>
      <trkpt lat="45.19657" lon="5.74014">
        <ele>262.79998779297</ele>
        <time>2021-06-26T09:54:51.000Z</time>
      </trkpt>
      <trkpt lat="45.19652" lon="5.74011">
        <ele>262.79998779297</ele>
        <time>2021-06-26T09:54:53.000Z</time>
      </trkpt>
      <trkpt lat="45.19635" lon="5.74005">
        <ele>262.79998779297</ele>
        <time>2021-06-26T09:54:59.000Z</time>
      </trkpt>
      <trkpt lat="45.1963" lon="5.74002">
        <ele>262.79998779297</ele>
        <time>2021-06-26T09:55:01.000Z</time>
      </trkpt>
      <trkpt lat="45.19622" lon="5.74001">
        <ele>262.79998779297</ele>
        <time>2021-06-26T09:55:04.000Z</time>
      </trkpt>
      <trkpt lat="45.19617" lon="5.73998">
        <ele>262.79998779297</ele>
        <time>2021-06-26T09:55:06.000Z</time>
      </trkpt>
      <trkpt lat="45.19615" lon="5.73992">
        <ele>262.79998779297</ele>
        <time>2021-06-26T09:55:08.000Z</time>
      </trkpt>
      <trkpt lat="45.19618" lon="5.73972">
        <ele>263</ele>
        <time>2021-06-26T09:55:13.000Z</time>
      </trkpt>
      <trkpt lat="45.19622" lon="5.73965">
        <ele>263.20001220703</ele>
        <time>2021-06-26T09:55:18.000Z</time>
      </trkpt>
      <trkpt lat="45.19625" lon="5.73965">
        <ele>263.39999389648</ele>
        <time>2021-06-26T09:55:20.000Z</time>
      </trkpt>
      <trkpt lat="45.19629" lon="5.73967">
        <ele>263.39999389648</ele>
        <time>2021-06-26T09:55:22.000Z</time>
      </trkpt>
      <trkpt lat="45.19634" lon="5.73969">
        <ele>263.20001220703</ele>
        <time>2021-06-26T09:55:29.000Z</time>
      </trkpt>
      <trkpt lat="45.19631" lon="5.73965">
        <ele>263.20001220703</ele>
        <time>2021-06-26T09:55:39.000Z</time>
      </trkpt>
      <trkpt lat="45.19631" lon="5.73966">
        <ele>263.20001220703</ele>
        <time>2021-06-26T09:55:43.000Z</time>
      </trkpt>
      <trkpt lat="45.1963" lon="5.7397">
        <ele>263.20001220703</ele>
        <time>2021-06-26T09:55:46.000Z</time>
      </trkpt>
      <trkpt lat="45.19627" lon="5.7397">
        <ele>263.20001220703</ele>
        <time>2021-06-26T09:55:47.000Z</time>
      </trkpt>
      <trkpt lat="45.19629" lon="5.7397">
        <ele>263.20001220703</ele>
        <time>2021-06-26T09:55:51.000Z</time>
      </trkpt>
      <trkpt lat="45.1963" lon="5.7397">
        <ele>263.20001220703</ele>
        <time>2021-06-26T09:55:52.000Z</time>
      </trkpt>
      <trkpt lat="45.19632" lon="5.73966">
        <ele>263.60000610352</ele>
        <time>2021-06-26T09:55:56.000Z</time>
      </trkpt>
      <trkpt lat="45.19631" lon="5.73966">
        <ele>263.79998779297</ele>
        <time>2021-06-26T09:55:57.000Z</time>
      </trkpt>
      <trkpt lat="45.19629" lon="5.73969">
        <ele>264</ele>
        <time>2021-06-26T09:56:00.000Z</time>
      </trkpt>
      <trkpt lat="45.19629" lon="5.73972">
        <ele>264.20001220703</ele>
        <time>2021-06-26T09:56:01.000Z</time>
      </trkpt>
      <trkpt lat="45.1963" lon="5.73974">
        <ele>264.39999389648</ele>
        <time>2021-06-26T09:56:03.000Z</time>
      </trkpt>
      <trkpt lat="45.1963" lon="5.73975">
        <ele>265.20001220703</ele>
        <time>2021-06-26T09:56:04.000Z</time>
      </trkpt>
      <trkpt lat="45.1963" lon="5.73976">
        <ele>265.39999389648</ele>
        <time>2021-06-26T09:56:05.000Z</time>
      </trkpt>
      <trkpt lat="45.19632" lon="5.73977">
        <ele>266.20001220703</ele>
        <time>2021-06-26T09:56:08.000Z</time>
      </trkpt>
      <trkpt lat="45.19633" lon="5.73977">
        <ele>266.39999389648</ele>
        <time>2021-06-26T09:56:10.000Z</time>
      </trkpt>
      <trkpt lat="45.19636" lon="5.73975">
        <ele>266.79998779297</ele>
        <time>2021-06-26T09:56:14.000Z</time>
      </trkpt>
      <trkpt lat="45.19638" lon="5.73976">
        <ele>267</ele>
        <time>2021-06-26T09:56:17.000Z</time>
      </trkpt>
      <trkpt lat="45.19639" lon="5.73975">
        <ele>266.79998779297</ele>
        <time>2021-06-26T09:56:18.000Z</time>
      </trkpt>
      <trkpt lat="45.19641" lon="5.73975">
        <ele>266.60000610352</ele>
        <time>2021-06-26T09:56:21.000Z</time>
      </trkpt>
      <trkpt lat="45.19643" lon="5.73975">
        <ele>266.60000610352</ele>
        <time>2021-06-26T09:56:22.000Z</time>
      </trkpt>
      <trkpt lat="45.19644" lon="5.73975">
        <ele>266.60000610352</ele>
        <time>2021-06-26T09:56:23.000Z</time>
      </trkpt>
    </trkseg>
  </trk>
</gpx>